<?xml version="1.0" encoding="UTF-8"?><gpx xmlns="http://www.topografix.com/GPX/1/1" version="1.1" creator="iOrient"><trk><name>Большая прогулка. Вокруг казанки - 2</name><trkseg><trkpt lat="55.8238080" lon="49.1642420"><time>2021-09-11T17:05:25.557</time></trkpt><trkpt lat="55.8238210" lon="49.1642580"><time>2021-09-11T17:05:26.557</time></trkpt><trkpt lat="55.8238320" lon="49.1642710"><time>2021-09-11T17:05:27.557</time></trkpt><trkpt lat="55.8238420" lon="49.1642830"><time>2021-09-11T17:05:28.557</time></trkpt><trkpt lat="55.8238530" lon="49.1642960"><time>2021-09-11T17:05:30.557</time></trkpt><trkpt lat="55.8238630" lon="49.1643080"><time>2021-09-11T17:05:30.557</time></trkpt><trkpt lat="55.8238830" lon="49.1643290"><time>2021-09-11T17:05:31.557</time></trkpt><trkpt lat="55.8239040" lon="49.1643530"><time>2021-09-11T17:05:32.557</time></trkpt><trkpt lat="55.8239270" lon="49.1643810"><time>2021-09-11T17:05:33.557</time></trkpt><trkpt lat="55.8239460" lon="49.1644120"><time>2021-09-11T17:05:34.557</time></trkpt><trkpt lat="55.8239630" lon="49.1644440"><time>2021-09-11T17:05:35.557</time></trkpt><trkpt lat="55.8239780" lon="49.1644780"><time>2021-09-11T17:05:36.557</time></trkpt><trkpt lat="55.8239920" lon="49.1645150"><time>2021-09-11T17:05:37.557</time></trkpt><trkpt lat="55.8240050" lon="49.1645550"><time>2021-09-11T17:05:38.557</time></trkpt><trkpt lat="55.8240170" lon="49.1645940"><time>2021-09-11T17:05:39.557</time></trkpt><trkpt lat="55.8240270" lon="49.1646340"><time>2021-09-11T17:05:40.557</time></trkpt><trkpt lat="55.8240370" lon="49.1646760"><time>2021-09-11T17:05:41.557</time></trkpt><trkpt lat="55.8240460" lon="49.1647180"><time>2021-09-11T17:05:42.557</time></trkpt><trkpt lat="55.8240550" lon="49.1647620"><time>2021-09-11T17:05:43.557</time></trkpt><trkpt lat="55.8240650" lon="49.1648060"><time>2021-09-11T17:05:44.557</time></trkpt><trkpt lat="55.8240720" lon="49.1648500"><time>2021-09-11T17:05:45.557</time></trkpt><trkpt lat="55.8240810" lon="49.1649160"><time>2021-09-11T17:05:47.557</time></trkpt><trkpt lat="55.8240830" lon="49.1649390"><time>2021-09-11T17:05:47.557</time></trkpt><trkpt lat="55.8240870" lon="49.1649850"><time>2021-09-11T17:05:48.557</time></trkpt><trkpt lat="55.8240940" lon="49.1650310"><time>2021-09-11T17:05:49.557</time></trkpt><trkpt lat="55.8240990" lon="49.1650770"><time>2021-09-11T17:05:50.557</time></trkpt><trkpt lat="55.8241050" lon="49.1651230"><time>2021-09-11T17:05:51.557</time></trkpt><trkpt lat="55.8241090" lon="49.1651690"><time>2021-09-11T17:05:52.557</time></trkpt><trkpt lat="55.8241120" lon="49.1652150"><time>2021-09-11T17:05:53.557</time></trkpt><trkpt lat="55.8241160" lon="49.1652610"><time>2021-09-11T17:05:54.557</time></trkpt><trkpt lat="55.8241220" lon="49.1653090"><time>2021-09-11T17:05:55.557</time></trkpt><trkpt lat="55.8241280" lon="49.1653570"><time>2021-09-11T17:05:56.557</time></trkpt><trkpt lat="55.8241330" lon="49.1654040"><time>2021-09-11T17:05:57.557</time></trkpt><trkpt lat="55.8241380" lon="49.1654510"><time>2021-09-11T17:05:58.557</time></trkpt><trkpt lat="55.8241420" lon="49.1654970"><time>2021-09-11T17:05:59.557</time></trkpt><trkpt lat="55.8241480" lon="49.1655420"><time>2021-09-11T17:06:00.557</time></trkpt><trkpt lat="55.8241550" lon="49.1655860"><time>2021-09-11T17:06:01.557</time></trkpt><trkpt lat="55.8241620" lon="49.1656300"><time>2021-09-11T17:06:02.557</time></trkpt><trkpt lat="55.8241710" lon="49.1656740"><time>2021-09-11T17:06:03.557</time></trkpt><trkpt lat="55.8241800" lon="49.1657190"><time>2021-09-11T17:06:04.557</time></trkpt><trkpt lat="55.8241880" lon="49.1657640"><time>2021-09-11T17:06:05.557</time></trkpt><trkpt lat="55.8241990" lon="49.1658320"><time>2021-09-11T17:06:07.557</time></trkpt><trkpt lat="55.8242020" lon="49.1658550"><time>2021-09-11T17:06:07.557</time></trkpt><trkpt lat="55.8242110" lon="49.1659000"><time>2021-09-11T17:06:08.557</time></trkpt><trkpt lat="55.8242190" lon="49.1659460"><time>2021-09-11T17:06:09.557</time></trkpt><trkpt lat="55.8242270" lon="49.1659930"><time>2021-09-11T17:06:10.557</time></trkpt><trkpt lat="55.8242330" lon="49.1660400"><time>2021-09-11T17:06:11.557</time></trkpt><trkpt lat="55.8242380" lon="49.1661080"><time>2021-09-11T17:06:13.557</time></trkpt><trkpt lat="55.8242390" lon="49.1661300"><time>2021-09-11T17:06:13.557</time></trkpt><trkpt lat="55.8242390" lon="49.1661760"><time>2021-09-11T17:06:14.557</time></trkpt><trkpt lat="55.8242380" lon="49.1662220"><time>2021-09-11T17:06:15.557</time></trkpt><trkpt lat="55.8242370" lon="49.1662700"><time>2021-09-11T17:06:16.557</time></trkpt><trkpt lat="55.8242350" lon="49.1663170"><time>2021-09-11T17:06:17.557</time></trkpt><trkpt lat="55.8242310" lon="49.1663640"><time>2021-09-11T17:06:18.557</time></trkpt><trkpt lat="55.8242250" lon="49.1664080"><time>2021-09-11T17:06:19.557</time></trkpt><trkpt lat="55.8242160" lon="49.1664480"><time>2021-09-11T17:06:20.557</time></trkpt><trkpt lat="55.8242040" lon="49.1664850"><time>2021-09-11T17:06:21.557</time></trkpt><trkpt lat="55.8241930" lon="49.1665230"><time>2021-09-11T17:06:22.557</time></trkpt><trkpt lat="55.8241830" lon="49.1665640"><time>2021-09-11T17:06:23.557</time></trkpt><trkpt lat="55.8241750" lon="49.1666060"><time>2021-09-11T17:06:24.557</time></trkpt><trkpt lat="55.8241700" lon="49.1666470"><time>2021-09-11T17:06:25.557</time></trkpt><trkpt lat="55.8241710" lon="49.1666890"><time>2021-09-11T17:06:26.557</time></trkpt><trkpt lat="55.8241710" lon="49.1667280"><time>2021-09-11T17:06:27.557</time></trkpt><trkpt lat="55.8241740" lon="49.1667650"><time>2021-09-11T17:06:28.557</time></trkpt><trkpt lat="55.8241800" lon="49.1668000"><time>2021-09-11T17:06:29.557</time></trkpt><trkpt lat="55.8241880" lon="49.1668320"><time>2021-09-11T17:06:30.557</time></trkpt><trkpt lat="55.8241950" lon="49.1668610"><time>2021-09-11T17:06:31.557</time></trkpt><trkpt lat="55.8242040" lon="49.1668870"><time>2021-09-11T17:06:32.557</time></trkpt><trkpt lat="55.8242130" lon="49.1669100"><time>2021-09-11T17:06:33.557</time></trkpt><trkpt lat="55.8242220" lon="49.1669320"><time>2021-09-11T17:06:34.557</time></trkpt><trkpt lat="55.8242320" lon="49.1669530"><time>2021-09-11T17:06:35.557</time></trkpt><trkpt lat="55.8242430" lon="49.1669710"><time>2021-09-11T17:06:36.557</time></trkpt><trkpt lat="55.8242540" lon="49.1669860"><time>2021-09-11T17:06:37.557</time></trkpt><trkpt lat="55.8242650" lon="49.1670030"><time>2021-09-11T17:06:38.557</time></trkpt><trkpt lat="55.8242760" lon="49.1670260"><time>2021-09-11T17:06:39.557</time></trkpt><trkpt lat="55.8242840" lon="49.1670550"><time>2021-09-11T17:06:40.557</time></trkpt><trkpt lat="55.8242910" lon="49.1670870"><time>2021-09-11T17:06:41.557</time></trkpt><trkpt lat="55.8242990" lon="49.1671180"><time>2021-09-11T17:06:42.557</time></trkpt><trkpt lat="55.8243080" lon="49.1671460"><time>2021-09-11T17:06:43.557</time></trkpt><trkpt lat="55.8243170" lon="49.1671730"><time>2021-09-11T17:06:44.557</time></trkpt><trkpt lat="55.8243260" lon="49.1671960"><time>2021-09-11T17:06:45.557</time></trkpt><trkpt lat="55.8243360" lon="49.1672170"><time>2021-09-11T17:06:46.557</time></trkpt><trkpt lat="55.8243470" lon="49.1672310"><time>2021-09-11T17:06:47.557</time></trkpt><trkpt lat="55.8243620" lon="49.1672440"><time>2021-09-11T17:06:48.557</time></trkpt><trkpt lat="55.8243790" lon="49.1672560"><time>2021-09-11T17:06:49.557</time></trkpt><trkpt lat="55.8243970" lon="49.1672690"><time>2021-09-11T17:06:50.557</time></trkpt><trkpt lat="55.8244160" lon="49.1672850"><time>2021-09-11T17:06:51.557</time></trkpt><trkpt lat="55.8244360" lon="49.1673030"><time>2021-09-11T17:06:52.557</time></trkpt><trkpt lat="55.8244570" lon="49.1673200"><time>2021-09-11T17:06:53.557</time></trkpt><trkpt lat="55.8244790" lon="49.1673350"><time>2021-09-11T17:06:54.557</time></trkpt><trkpt lat="55.8245020" lon="49.1673470"><time>2021-09-11T17:06:55.557</time></trkpt><trkpt lat="55.8245250" lon="49.1673580"><time>2021-09-11T17:06:56.557</time></trkpt><trkpt lat="55.8245480" lon="49.1673680"><time>2021-09-11T17:06:57.557</time></trkpt><trkpt lat="55.8245710" lon="49.1673750"><time>2021-09-11T17:06:58.557</time></trkpt><trkpt lat="55.8245960" lon="49.1673820"><time>2021-09-11T17:06:59.557</time></trkpt><trkpt lat="55.8246200" lon="49.1673880"><time>2021-09-11T17:07:00.557</time></trkpt><trkpt lat="55.8246440" lon="49.1673930"><time>2021-09-11T17:07:01.557</time></trkpt><trkpt lat="55.8246680" lon="49.1673990"><time>2021-09-11T17:07:02.557</time></trkpt><trkpt lat="55.8247030" lon="49.1674190"><time>2021-09-11T17:07:04.557</time></trkpt><trkpt lat="55.8247140" lon="49.1674280"><time>2021-09-11T17:07:04.557</time></trkpt><trkpt lat="55.8247370" lon="49.1674460"><time>2021-09-11T17:07:05.557</time></trkpt><trkpt lat="55.8247600" lon="49.1674650"><time>2021-09-11T17:07:06.557</time></trkpt><trkpt lat="55.8247840" lon="49.1674830"><time>2021-09-11T17:07:07.557</time></trkpt><trkpt lat="55.8248060" lon="49.1675000"><time>2021-09-11T17:07:08.557</time></trkpt><trkpt lat="55.8248410" lon="49.1675270"><time>2021-09-11T17:07:10.557</time></trkpt><trkpt lat="55.8248520" lon="49.1675360"><time>2021-09-11T17:07:10.557</time></trkpt><trkpt lat="55.8248740" lon="49.1675540"><time>2021-09-11T17:07:11.557</time></trkpt><trkpt lat="55.8248970" lon="49.1675720"><time>2021-09-11T17:07:12.557</time></trkpt><trkpt lat="55.8249190" lon="49.1675870"><time>2021-09-11T17:07:13.557</time></trkpt><trkpt lat="55.8249410" lon="49.1676010"><time>2021-09-11T17:07:14.557</time></trkpt><trkpt lat="55.8249630" lon="49.1676140"><time>2021-09-11T17:07:15.557</time></trkpt><trkpt lat="55.8249860" lon="49.1676260"><time>2021-09-11T17:07:16.557</time></trkpt><trkpt lat="55.8250090" lon="49.1676380"><time>2021-09-11T17:07:17.557</time></trkpt><trkpt lat="55.8250330" lon="49.1676500"><time>2021-09-11T17:07:18.557</time></trkpt><trkpt lat="55.8250560" lon="49.1676650"><time>2021-09-11T17:07:19.557</time></trkpt><trkpt lat="55.8250800" lon="49.1676820"><time>2021-09-11T17:07:20.557</time></trkpt><trkpt lat="55.8251030" lon="49.1677010"><time>2021-09-11T17:07:21.557</time></trkpt><trkpt lat="55.8251270" lon="49.1677210"><time>2021-09-11T17:07:22.557</time></trkpt><trkpt lat="55.8251520" lon="49.1677420"><time>2021-09-11T17:07:23.557</time></trkpt><trkpt lat="55.8251770" lon="49.1677630"><time>2021-09-11T17:07:24.557</time></trkpt><trkpt lat="55.8252030" lon="49.1677850"><time>2021-09-11T17:07:25.557</time></trkpt><trkpt lat="55.8252400" lon="49.1678180"><time>2021-09-11T17:07:27.557</time></trkpt><trkpt lat="55.8252530" lon="49.1678300"><time>2021-09-11T17:07:27.557</time></trkpt><trkpt lat="55.8252780" lon="49.1678550"><time>2021-09-11T17:07:28.557</time></trkpt><trkpt lat="55.8253030" lon="49.1678790"><time>2021-09-11T17:07:29.557</time></trkpt><trkpt lat="55.8253400" lon="49.1679140"><time>2021-09-11T17:07:31.557</time></trkpt><trkpt lat="55.8253530" lon="49.1679260"><time>2021-09-11T17:07:31.557</time></trkpt><trkpt lat="55.8253780" lon="49.1679500"><time>2021-09-11T17:07:32.557</time></trkpt><trkpt lat="55.8254040" lon="49.1679750"><time>2021-09-11T17:07:33.557</time></trkpt><trkpt lat="55.8254290" lon="49.1679980"><time>2021-09-11T17:07:34.557</time></trkpt><trkpt lat="55.8254520" lon="49.1680220"><time>2021-09-11T17:07:35.557</time></trkpt><trkpt lat="55.8254860" lon="49.1680570"><time>2021-09-11T17:07:37.557</time></trkpt><trkpt lat="55.8254970" lon="49.1680680"><time>2021-09-11T17:07:37.557</time></trkpt><trkpt lat="55.8255180" lon="49.1680890"><time>2021-09-11T17:07:38.557</time></trkpt><trkpt lat="55.8255390" lon="49.1681100"><time>2021-09-11T17:07:39.557</time></trkpt><trkpt lat="55.8255600" lon="49.1681320"><time>2021-09-11T17:07:40.557</time></trkpt><trkpt lat="55.8255790" lon="49.1681540"><time>2021-09-11T17:07:41.557</time></trkpt><trkpt lat="55.8256080" lon="49.1681870"><time>2021-09-11T17:07:43.557</time></trkpt><trkpt lat="55.8256180" lon="49.1681990"><time>2021-09-11T17:07:43.557</time></trkpt><trkpt lat="55.8256380" lon="49.1682210"><time>2021-09-11T17:07:44.557</time></trkpt><trkpt lat="55.8256580" lon="49.1682410"><time>2021-09-11T17:07:45.557</time></trkpt><trkpt lat="55.8256780" lon="49.1682610"><time>2021-09-11T17:07:46.557</time></trkpt><trkpt lat="55.8256980" lon="49.1682800"><time>2021-09-11T17:07:47.557</time></trkpt><trkpt lat="55.8257160" lon="49.1682960"><time>2021-09-11T17:07:48.557</time></trkpt><trkpt lat="55.8257320" lon="49.1683100"><time>2021-09-11T17:07:49.557</time></trkpt><trkpt lat="55.8257510" lon="49.1683280"><time>2021-09-11T17:07:50.557</time></trkpt><trkpt lat="55.8257560" lon="49.1683330"><time>2021-09-11T17:07:51.557</time></trkpt><trkpt lat="55.8257610" lon="49.1683390"><time>2021-09-11T17:07:52.557</time></trkpt><trkpt lat="55.8257670" lon="49.1683450"><time>2021-09-11T17:07:53.557</time></trkpt><trkpt lat="55.8257720" lon="49.1683510"><time>2021-09-11T17:07:54.557</time></trkpt><trkpt lat="55.8257770" lon="49.1683560"><time>2021-09-11T17:07:55.557</time></trkpt><trkpt lat="55.8257820" lon="49.1683620"><time>2021-09-11T17:07:58.557</time></trkpt><trkpt lat="55.8257870" lon="49.1683680"><time>2021-09-11T17:07:59.557</time></trkpt><trkpt lat="55.8257920" lon="49.1683740"><time>2021-09-11T17:08:00.557</time></trkpt><trkpt lat="55.8257970" lon="49.1683790"><time>2021-09-11T17:08:01.557</time></trkpt><trkpt lat="55.8258020" lon="49.1683850"><time>2021-09-11T17:08:03.557</time></trkpt><trkpt lat="55.8258080" lon="49.1683910"><time>2021-09-11T17:08:06.557</time></trkpt><trkpt lat="55.8258130" lon="49.1683970"><time>2021-09-11T17:08:07.557</time></trkpt><trkpt lat="55.8258180" lon="49.1684020"><time>2021-09-11T17:08:09.557</time></trkpt><trkpt lat="55.8258230" lon="49.1684080"><time>2021-09-11T17:08:09.557</time></trkpt><trkpt lat="55.8258230" lon="49.1684040"><time>2021-09-11T17:08:10.557</time></trkpt><trkpt lat="55.8258180" lon="49.1683930"><time>2021-09-11T17:08:17.557</time></trkpt><trkpt lat="55.8258110" lon="49.1683870"><time>2021-09-11T17:08:18.557</time></trkpt><trkpt lat="55.8257970" lon="49.1683760"><time>2021-09-11T17:08:19.557</time></trkpt><trkpt lat="55.8257780" lon="49.1683630"><time>2021-09-11T17:08:20.557</time></trkpt><trkpt lat="55.8257420" lon="49.1683360"><time>2021-09-11T17:08:22.557</time></trkpt><trkpt lat="55.8257290" lon="49.1683260"><time>2021-09-11T17:08:22.557</time></trkpt><trkpt lat="55.8257020" lon="49.1683040"><time>2021-09-11T17:08:23.557</time></trkpt><trkpt lat="55.8256740" lon="49.1682800"><time>2021-09-11T17:08:24.557</time></trkpt><trkpt lat="55.8256490" lon="49.1682550"><time>2021-09-11T17:08:25.557</time></trkpt><trkpt lat="55.8256230" lon="49.1682290"><time>2021-09-11T17:08:26.557</time></trkpt><trkpt lat="55.8255970" lon="49.1682000"><time>2021-09-11T17:08:27.557</time></trkpt><trkpt lat="55.8255730" lon="49.1681720"><time>2021-09-11T17:08:28.557</time></trkpt><trkpt lat="55.8255490" lon="49.1681460"><time>2021-09-11T17:08:29.557</time></trkpt><trkpt lat="55.8255240" lon="49.1681230"><time>2021-09-11T17:08:30.557</time></trkpt><trkpt lat="55.8255010" lon="49.1681000"><time>2021-09-11T17:08:31.557</time></trkpt><trkpt lat="55.8254780" lon="49.1680770"><time>2021-09-11T17:08:32.557</time></trkpt><trkpt lat="55.8254560" lon="49.1680530"><time>2021-09-11T17:08:33.557</time></trkpt><trkpt lat="55.8254340" lon="49.1680300"><time>2021-09-11T17:08:34.557</time></trkpt><trkpt lat="55.8254120" lon="49.1680050"><time>2021-09-11T17:08:35.557</time></trkpt><trkpt lat="55.8253910" lon="49.1679810"><time>2021-09-11T17:08:36.557</time></trkpt><trkpt lat="55.8253700" lon="49.1679590"><time>2021-09-11T17:08:37.557</time></trkpt><trkpt lat="55.8253480" lon="49.1679380"><time>2021-09-11T17:08:38.557</time></trkpt><trkpt lat="55.8253260" lon="49.1679180"><time>2021-09-11T17:08:39.557</time></trkpt><trkpt lat="55.8253040" lon="49.1678980"><time>2021-09-11T17:08:40.557</time></trkpt><trkpt lat="55.8252820" lon="49.1678760"><time>2021-09-11T17:08:41.557</time></trkpt><trkpt lat="55.8252610" lon="49.1678550"><time>2021-09-11T17:08:42.557</time></trkpt><trkpt lat="55.8252390" lon="49.1678330"><time>2021-09-11T17:08:43.557</time></trkpt><trkpt lat="55.8252160" lon="49.1678120"><time>2021-09-11T17:08:44.557</time></trkpt><trkpt lat="55.8251960" lon="49.1677920"><time>2021-09-11T17:08:45.557</time></trkpt><trkpt lat="55.8251750" lon="49.1677720"><time>2021-09-11T17:08:46.557</time></trkpt><trkpt lat="55.8251500" lon="49.1677520"><time>2021-09-11T17:08:47.557</time></trkpt><trkpt lat="55.8251270" lon="49.1677330"><time>2021-09-11T17:08:48.557</time></trkpt><trkpt lat="55.8251030" lon="49.1677180"><time>2021-09-11T17:08:49.557</time></trkpt><trkpt lat="55.8250780" lon="49.1677060"><time>2021-09-11T17:08:50.557</time></trkpt><trkpt lat="55.8250540" lon="49.1676960"><time>2021-09-11T17:08:51.557</time></trkpt><trkpt lat="55.8250290" lon="49.1676840"><time>2021-09-11T17:08:52.557</time></trkpt><trkpt lat="55.8250010" lon="49.1676690"><time>2021-09-11T17:08:53.557</time></trkpt><trkpt lat="55.8249610" lon="49.1676490"><time>2021-09-11T17:08:55.557</time></trkpt><trkpt lat="55.8249480" lon="49.1676430"><time>2021-09-11T17:08:55.557</time></trkpt><trkpt lat="55.8249240" lon="49.1676290"><time>2021-09-11T17:08:56.557</time></trkpt><trkpt lat="55.8249010" lon="49.1676160"><time>2021-09-11T17:08:57.557</time></trkpt><trkpt lat="55.8248770" lon="49.1676000"><time>2021-09-11T17:08:58.557</time></trkpt><trkpt lat="55.8248520" lon="49.1675830"><time>2021-09-11T17:08:59.557</time></trkpt><trkpt lat="55.8248160" lon="49.1675560"><time>2021-09-11T17:09:01.557</time></trkpt><trkpt lat="55.8248050" lon="49.1675470"><time>2021-09-11T17:09:01.557</time></trkpt><trkpt lat="55.8247820" lon="49.1675270"><time>2021-09-11T17:09:02.557</time></trkpt><trkpt lat="55.8247600" lon="49.1675050"><time>2021-09-11T17:09:03.557</time></trkpt><trkpt lat="55.8247360" lon="49.1674820"><time>2021-09-11T17:09:04.557</time></trkpt><trkpt lat="55.8247110" lon="49.1674630"><time>2021-09-11T17:09:05.557</time></trkpt><trkpt lat="55.8246720" lon="49.1674440"><time>2021-09-11T17:09:07.557</time></trkpt><trkpt lat="55.8246580" lon="49.1674380"><time>2021-09-11T17:09:07.557</time></trkpt><trkpt lat="55.8246310" lon="49.1674270"><time>2021-09-11T17:09:08.557</time></trkpt><trkpt lat="55.8246030" lon="49.1674160"><time>2021-09-11T17:09:09.557</time></trkpt><trkpt lat="55.8245750" lon="49.1674070"><time>2021-09-11T17:09:10.557</time></trkpt><trkpt lat="55.8245480" lon="49.1673970"><time>2021-09-11T17:09:11.557</time></trkpt><trkpt lat="55.8245210" lon="49.1673860"><time>2021-09-11T17:09:12.557</time></trkpt><trkpt lat="55.8244950" lon="49.1673720"><time>2021-09-11T17:09:13.557</time></trkpt><trkpt lat="55.8244700" lon="49.1673540"><time>2021-09-11T17:09:14.557</time></trkpt><trkpt lat="55.8244450" lon="49.1673340"><time>2021-09-11T17:09:15.557</time></trkpt><trkpt lat="55.8244200" lon="49.1673130"><time>2021-09-11T17:09:16.557</time></trkpt><trkpt lat="55.8243830" lon="49.1672840"><time>2021-09-11T17:09:18.557</time></trkpt><trkpt lat="55.8243700" lon="49.1672750"><time>2021-09-11T17:09:18.557</time></trkpt><trkpt lat="55.8243460" lon="49.1672570"><time>2021-09-11T17:09:19.557</time></trkpt><trkpt lat="55.8243220" lon="49.1672390"><time>2021-09-11T17:09:20.557</time></trkpt><trkpt lat="55.8242990" lon="49.1672170"><time>2021-09-11T17:09:21.557</time></trkpt><trkpt lat="55.8242770" lon="49.1671930"><time>2021-09-11T17:09:22.557</time></trkpt><trkpt lat="55.8242470" lon="49.1671520"><time>2021-09-11T17:09:24.557</time></trkpt><trkpt lat="55.8242390" lon="49.1671370"><time>2021-09-11T17:09:24.557</time></trkpt><trkpt lat="55.8242270" lon="49.1671050"><time>2021-09-11T17:09:25.557</time></trkpt><trkpt lat="55.8242190" lon="49.1670750"><time>2021-09-11T17:09:26.557</time></trkpt><trkpt lat="55.8242050" lon="49.1670360"><time>2021-09-11T17:09:27.557</time></trkpt><trkpt lat="55.8241980" lon="49.1670250"><time>2021-09-11T17:09:28.557</time></trkpt><trkpt lat="55.8241910" lon="49.1670130"><time>2021-09-11T17:09:29.557</time></trkpt><trkpt lat="55.8241840" lon="49.1670020"><time>2021-09-11T17:09:30.557</time></trkpt><trkpt lat="55.8241770" lon="49.1669910"><time>2021-09-11T17:09:32.557</time></trkpt><trkpt lat="55.8241700" lon="49.1669800"><time>2021-09-11T17:09:32.557</time></trkpt><trkpt lat="55.8241600" lon="49.1669920"><time>2021-09-11T17:09:33.557</time></trkpt><trkpt lat="55.8241520" lon="49.1670130"><time>2021-09-11T17:09:34.557</time></trkpt><trkpt lat="55.8241470" lon="49.1670420"><time>2021-09-11T17:09:35.557</time></trkpt><trkpt lat="55.8241430" lon="49.1670780"><time>2021-09-11T17:09:36.557</time></trkpt><trkpt lat="55.8241380" lon="49.1671350"><time>2021-09-11T17:09:38.557</time></trkpt><trkpt lat="55.8241360" lon="49.1671540"><time>2021-09-11T17:09:38.557</time></trkpt><trkpt lat="55.8241320" lon="49.1671950"><time>2021-09-11T17:09:39.557</time></trkpt><trkpt lat="55.8241300" lon="49.1672390"><time>2021-09-11T17:09:39.557</time></trkpt><trkpt lat="55.8241270" lon="49.1672810"><time>2021-09-11T17:09:40.557</time></trkpt><trkpt lat="55.8241240" lon="49.1673250"><time>2021-09-11T17:09:41.557</time></trkpt><trkpt lat="55.8241180" lon="49.1673960"><time>2021-09-11T17:09:43.557</time></trkpt><trkpt lat="55.8241160" lon="49.1674200"><time>2021-09-11T17:09:43.557</time></trkpt><trkpt lat="55.8241110" lon="49.1674680"><time>2021-09-11T17:09:44.557</time></trkpt><trkpt lat="55.8241070" lon="49.1675140"><time>2021-09-11T17:09:45.557</time></trkpt><trkpt lat="55.8241030" lon="49.1675600"><time>2021-09-11T17:09:46.557</time></trkpt><trkpt lat="55.8240990" lon="49.1676050"><time>2021-09-11T17:09:47.557</time></trkpt><trkpt lat="55.8240920" lon="49.1676770"><time>2021-09-11T17:09:49.557</time></trkpt><trkpt lat="55.8240900" lon="49.1677010"><time>2021-09-11T17:09:49.557</time></trkpt><trkpt lat="55.8240870" lon="49.1677450"><time>2021-09-11T17:09:50.557</time></trkpt><trkpt lat="55.8240830" lon="49.1677900"><time>2021-09-11T17:09:51.557</time></trkpt><trkpt lat="55.8240790" lon="49.1678340"><time>2021-09-11T17:09:52.557</time></trkpt><trkpt lat="55.8240760" lon="49.1678820"><time>2021-09-11T17:09:53.557</time></trkpt><trkpt lat="55.8240710" lon="49.1679290"><time>2021-09-11T17:09:54.557</time></trkpt><trkpt lat="55.8240660" lon="49.1679770"><time>2021-09-11T17:09:55.557</time></trkpt><trkpt lat="55.8240610" lon="49.1680210"><time>2021-09-11T17:09:56.557</time></trkpt><trkpt lat="55.8240560" lon="49.1680640"><time>2021-09-11T17:09:57.557</time></trkpt><trkpt lat="55.8240530" lon="49.1681120"><time>2021-09-11T17:09:58.557</time></trkpt><trkpt lat="55.8240480" lon="49.1681600"><time>2021-09-11T17:09:59.557</time></trkpt><trkpt lat="55.8240430" lon="49.1682080"><time>2021-09-11T17:10:00.557</time></trkpt><trkpt lat="55.8240380" lon="49.1682540"><time>2021-09-11T17:10:01.557</time></trkpt><trkpt lat="55.8240340" lon="49.1682970"><time>2021-09-11T17:10:02.557</time></trkpt><trkpt lat="55.8240310" lon="49.1683410"><time>2021-09-11T17:10:03.557</time></trkpt><trkpt lat="55.8240260" lon="49.1683880"><time>2021-09-11T17:10:04.557</time></trkpt><trkpt lat="55.8240230" lon="49.1684350"><time>2021-09-11T17:10:05.557</time></trkpt><trkpt lat="55.8240190" lon="49.1684780"><time>2021-09-11T17:10:06.557</time></trkpt><trkpt lat="55.8240140" lon="49.1685220"><time>2021-09-11T17:10:07.557</time></trkpt><trkpt lat="55.8240090" lon="49.1685670"><time>2021-09-11T17:10:08.557</time></trkpt><trkpt lat="55.8240040" lon="49.1686180"><time>2021-09-11T17:10:09.557</time></trkpt><trkpt lat="55.8239990" lon="49.1686690"><time>2021-09-11T17:10:10.557</time></trkpt><trkpt lat="55.8239940" lon="49.1687160"><time>2021-09-11T17:10:11.557</time></trkpt><trkpt lat="55.8239880" lon="49.1687620"><time>2021-09-11T17:10:12.557</time></trkpt><trkpt lat="55.8239830" lon="49.1688080"><time>2021-09-11T17:10:13.557</time></trkpt><trkpt lat="55.8239770" lon="49.1688550"><time>2021-09-11T17:10:14.557</time></trkpt><trkpt lat="55.8239720" lon="49.1688990"><time>2021-09-11T17:10:15.557</time></trkpt><trkpt lat="55.8239660" lon="49.1689440"><time>2021-09-11T17:10:16.557</time></trkpt><trkpt lat="55.8239610" lon="49.1689910"><time>2021-09-11T17:10:17.557</time></trkpt><trkpt lat="55.8239560" lon="49.1690380"><time>2021-09-11T17:10:18.557</time></trkpt><trkpt lat="55.8239510" lon="49.1690870"><time>2021-09-11T17:10:19.557</time></trkpt><trkpt lat="55.8239480" lon="49.1691380"><time>2021-09-11T17:10:20.557</time></trkpt><trkpt lat="55.8239450" lon="49.1692100"><time>2021-09-11T17:10:22.557</time></trkpt><trkpt lat="55.8239430" lon="49.1692330"><time>2021-09-11T17:10:22.557</time></trkpt><trkpt lat="55.8239410" lon="49.1692810"><time>2021-09-11T17:10:23.557</time></trkpt><trkpt lat="55.8239380" lon="49.1693290"><time>2021-09-11T17:10:24.557</time></trkpt><trkpt lat="55.8239360" lon="49.1693780"><time>2021-09-11T17:10:25.557</time></trkpt><trkpt lat="55.8239340" lon="49.1694260"><time>2021-09-11T17:10:26.557</time></trkpt><trkpt lat="55.8239290" lon="49.1694970"><time>2021-09-11T17:10:28.557</time></trkpt><trkpt lat="55.8239260" lon="49.1695200"><time>2021-09-11T17:10:28.557</time></trkpt><trkpt lat="55.8239190" lon="49.1695690"><time>2021-09-11T17:10:29.557</time></trkpt><trkpt lat="55.8239120" lon="49.1696130"><time>2021-09-11T17:10:30.557</time></trkpt><trkpt lat="55.8238980" lon="49.1696790"><time>2021-09-11T17:10:32.557</time></trkpt><trkpt lat="55.8238920" lon="49.1697000"><time>2021-09-11T17:10:32.557</time></trkpt><trkpt lat="55.8238800" lon="49.1697400"><time>2021-09-11T17:10:33.557</time></trkpt><trkpt lat="55.8238660" lon="49.1697790"><time>2021-09-11T17:10:34.557</time></trkpt><trkpt lat="55.8238490" lon="49.1698200"><time>2021-09-11T17:10:35.557</time></trkpt><trkpt lat="55.8238320" lon="49.1698610"><time>2021-09-11T17:10:36.557</time></trkpt><trkpt lat="55.8238070" lon="49.1699190"><time>2021-09-11T17:10:38.557</time></trkpt><trkpt lat="55.8237990" lon="49.1699390"><time>2021-09-11T17:10:38.557</time></trkpt><trkpt lat="55.8237860" lon="49.1699810"><time>2021-09-11T17:10:39.557</time></trkpt><trkpt lat="55.8237750" lon="49.1700270"><time>2021-09-11T17:10:40.557</time></trkpt><trkpt lat="55.8237660" lon="49.1700720"><time>2021-09-11T17:10:41.557</time></trkpt><trkpt lat="55.8237580" lon="49.1701150"><time>2021-09-11T17:10:42.557</time></trkpt><trkpt lat="55.8237500" lon="49.1701590"><time>2021-09-11T17:10:43.557</time></trkpt><trkpt lat="55.8237450" lon="49.1702060"><time>2021-09-11T17:10:44.557</time></trkpt><trkpt lat="55.8237400" lon="49.1702570"><time>2021-09-11T17:10:45.557</time></trkpt><trkpt lat="55.8237370" lon="49.1703060"><time>2021-09-11T17:10:46.557</time></trkpt><trkpt lat="55.8237350" lon="49.1703770"><time>2021-09-11T17:10:48.557</time></trkpt><trkpt lat="55.8237330" lon="49.1704000"><time>2021-09-11T17:10:48.557</time></trkpt><trkpt lat="55.8237280" lon="49.1704470"><time>2021-09-11T17:10:49.557</time></trkpt><trkpt lat="55.8237250" lon="49.1704930"><time>2021-09-11T17:10:50.557</time></trkpt><trkpt lat="55.8237200" lon="49.1705410"><time>2021-09-11T17:10:51.557</time></trkpt><trkpt lat="55.8237140" lon="49.1705880"><time>2021-09-11T17:10:52.557</time></trkpt><trkpt lat="55.8237060" lon="49.1706510"><time>2021-09-11T17:10:54.557</time></trkpt><trkpt lat="55.8237030" lon="49.1706720"><time>2021-09-11T17:10:54.557</time></trkpt><trkpt lat="55.8236980" lon="49.1707180"><time>2021-09-11T17:10:55.557</time></trkpt><trkpt lat="55.8236930" lon="49.1707640"><time>2021-09-11T17:10:56.557</time></trkpt><trkpt lat="55.8236870" lon="49.1708090"><time>2021-09-11T17:10:57.557</time></trkpt><trkpt lat="55.8236830" lon="49.1708510"><time>2021-09-11T17:10:58.557</time></trkpt><trkpt lat="55.8236740" lon="49.1709160"><time>2021-09-11T17:11:00.557</time></trkpt><trkpt lat="55.8236700" lon="49.1709370"><time>2021-09-11T17:11:00.557</time></trkpt><trkpt lat="55.8236610" lon="49.1709790"><time>2021-09-11T17:11:01.557</time></trkpt><trkpt lat="55.8236540" lon="49.1710200"><time>2021-09-11T17:11:02.557</time></trkpt><trkpt lat="55.8236470" lon="49.1710580"><time>2021-09-11T17:11:03.557</time></trkpt><trkpt lat="55.8236420" lon="49.1710950"><time>2021-09-11T17:11:04.557</time></trkpt><trkpt lat="55.8236370" lon="49.1711330"><time>2021-09-11T17:11:05.557</time></trkpt><trkpt lat="55.8236320" lon="49.1711670"><time>2021-09-11T17:11:06.557</time></trkpt><trkpt lat="55.8236260" lon="49.1711910"><time>2021-09-11T17:11:07.557</time></trkpt><trkpt lat="55.8236260" lon="49.1711860"><time>2021-09-11T17:11:08.557</time></trkpt><trkpt lat="55.8236250" lon="49.1711810"><time>2021-09-11T17:11:09.557</time></trkpt><trkpt lat="55.8236240" lon="49.1711760"><time>2021-09-11T17:11:10.557</time></trkpt><trkpt lat="55.8236230" lon="49.1711710"><time>2021-09-11T17:11:11.557</time></trkpt><trkpt lat="55.8236230" lon="49.1711670"><time>2021-09-11T17:11:12.557</time></trkpt><trkpt lat="55.8236220" lon="49.1711620"><time>2021-09-11T17:11:13.557</time></trkpt><trkpt lat="55.8236210" lon="49.1711570"><time>2021-09-11T17:11:14.557</time></trkpt><trkpt lat="55.8236200" lon="49.1711520"><time>2021-09-11T17:11:15.557</time></trkpt><trkpt lat="55.8236200" lon="49.1711470"><time>2021-09-11T17:11:17.557</time></trkpt><trkpt lat="55.8236190" lon="49.1711420"><time>2021-09-11T17:11:17.557</time></trkpt><trkpt lat="55.8236160" lon="49.1711230"><time>2021-09-11T17:11:18.557</time></trkpt><trkpt lat="55.8236100" lon="49.1711070"><time>2021-09-11T17:11:19.557</time></trkpt><trkpt lat="55.8236030" lon="49.1710890"><time>2021-09-11T17:11:20.557</time></trkpt><trkpt lat="55.8235940" lon="49.1710750"><time>2021-09-11T17:11:21.557</time></trkpt><trkpt lat="55.8235820" lon="49.1710680"><time>2021-09-11T17:11:22.557</time></trkpt><trkpt lat="55.8235710" lon="49.1710720"><time>2021-09-11T17:11:23.557</time></trkpt><trkpt lat="55.8235580" lon="49.1710870"><time>2021-09-11T17:11:24.557</time></trkpt><trkpt lat="55.8235460" lon="49.1711100"><time>2021-09-11T17:11:25.557</time></trkpt><trkpt lat="55.8235360" lon="49.1711380"><time>2021-09-11T17:11:26.557</time></trkpt><trkpt lat="55.8235260" lon="49.1711690"><time>2021-09-11T17:11:27.557</time></trkpt><trkpt lat="55.8235150" lon="49.1712030"><time>2021-09-11T17:11:28.557</time></trkpt><trkpt lat="55.8235050" lon="49.1712360"><time>2021-09-11T17:11:29.557</time></trkpt><trkpt lat="55.8234980" lon="49.1712720"><time>2021-09-11T17:11:30.557</time></trkpt><trkpt lat="55.8234940" lon="49.1713090"><time>2021-09-11T17:11:31.557</time></trkpt><trkpt lat="55.8234910" lon="49.1713500"><time>2021-09-11T17:11:32.557</time></trkpt><trkpt lat="55.8234890" lon="49.1713910"><time>2021-09-11T17:11:33.557</time></trkpt><trkpt lat="55.8234870" lon="49.1714340"><time>2021-09-11T17:11:34.557</time></trkpt><trkpt lat="55.8234840" lon="49.1714740"><time>2021-09-11T17:11:35.557</time></trkpt><trkpt lat="55.8234790" lon="49.1715130"><time>2021-09-11T17:11:36.557</time></trkpt><trkpt lat="55.8234730" lon="49.1715550"><time>2021-09-11T17:11:37.557</time></trkpt><trkpt lat="55.8234670" lon="49.1715960"><time>2021-09-11T17:11:38.557</time></trkpt><trkpt lat="55.8234600" lon="49.1716360"><time>2021-09-11T17:11:39.557</time></trkpt><trkpt lat="55.8234500" lon="49.1716750"><time>2021-09-11T17:11:40.557</time></trkpt><trkpt lat="55.8234360" lon="49.1717080"><time>2021-09-11T17:11:41.557</time></trkpt><trkpt lat="55.8234170" lon="49.1717350"><time>2021-09-11T17:11:42.557</time></trkpt><trkpt lat="55.8233940" lon="49.1717530"><time>2021-09-11T17:11:43.557</time></trkpt><trkpt lat="55.8233700" lon="49.1717610"><time>2021-09-11T17:11:44.557</time></trkpt><trkpt lat="55.8233420" lon="49.1717620"><time>2021-09-11T17:11:45.557</time></trkpt><trkpt lat="55.8233170" lon="49.1717590"><time>2021-09-11T17:11:46.557</time></trkpt><trkpt lat="55.8232890" lon="49.1717490"><time>2021-09-11T17:11:47.557</time></trkpt><trkpt lat="55.8232640" lon="49.1717350"><time>2021-09-11T17:11:48.557</time></trkpt><trkpt lat="55.8232410" lon="49.1717190"><time>2021-09-11T17:11:49.557</time></trkpt><trkpt lat="55.8232200" lon="49.1717030"><time>2021-09-11T17:11:50.557</time></trkpt><trkpt lat="55.8231970" lon="49.1716870"><time>2021-09-11T17:11:51.557</time></trkpt><trkpt lat="55.8231750" lon="49.1716710"><time>2021-09-11T17:11:52.557</time></trkpt><trkpt lat="55.8231500" lon="49.1716520"><time>2021-09-11T17:11:53.557</time></trkpt><trkpt lat="55.8231260" lon="49.1716300"><time>2021-09-11T17:11:54.557</time></trkpt><trkpt lat="55.8230890" lon="49.1716000"><time>2021-09-11T17:11:56.557</time></trkpt><trkpt lat="55.8230770" lon="49.1715920"><time>2021-09-11T17:11:56.557</time></trkpt><trkpt lat="55.8230520" lon="49.1715770"><time>2021-09-11T17:11:57.557</time></trkpt><trkpt lat="55.8230290" lon="49.1715650"><time>2021-09-11T17:11:58.557</time></trkpt><trkpt lat="55.8230070" lon="49.1715550"><time>2021-09-11T17:11:59.557</time></trkpt><trkpt lat="55.8229880" lon="49.1715440"><time>2021-09-11T17:12:00.557</time></trkpt><trkpt lat="55.8229640" lon="49.1715280"><time>2021-09-11T17:12:02.557</time></trkpt><trkpt lat="55.8229560" lon="49.1715230"><time>2021-09-11T17:12:02.557</time></trkpt><trkpt lat="55.8229390" lon="49.1715110"><time>2021-09-11T17:12:03.557</time></trkpt><trkpt lat="55.8229200" lon="49.1715000"><time>2021-09-11T17:12:04.557</time></trkpt><trkpt lat="55.8228880" lon="49.1714840"><time>2021-09-11T17:12:06.557</time></trkpt><trkpt lat="55.8228760" lon="49.1714790"><time>2021-09-11T17:12:06.557</time></trkpt><trkpt lat="55.8228520" lon="49.1714680"><time>2021-09-11T17:12:07.557</time></trkpt><trkpt lat="55.8228290" lon="49.1714600"><time>2021-09-11T17:12:08.557</time></trkpt><trkpt lat="55.8228080" lon="49.1714530"><time>2021-09-11T17:12:09.557</time></trkpt><trkpt lat="55.8227880" lon="49.1714460"><time>2021-09-11T17:12:10.557</time></trkpt><trkpt lat="55.8227650" lon="49.1714410"><time>2021-09-11T17:12:11.557</time></trkpt><trkpt lat="55.8227370" lon="49.1714360"><time>2021-09-11T17:12:12.557</time></trkpt><trkpt lat="55.8227070" lon="49.1714290"><time>2021-09-11T17:12:13.557</time></trkpt><trkpt lat="55.8226780" lon="49.1714190"><time>2021-09-11T17:12:14.557</time></trkpt><trkpt lat="55.8226530" lon="49.1714080"><time>2021-09-11T17:12:15.557</time></trkpt><trkpt lat="55.8226170" lon="49.1713930"><time>2021-09-11T17:12:17.557</time></trkpt><trkpt lat="55.8226040" lon="49.1713900"><time>2021-09-11T17:12:17.557</time></trkpt><trkpt lat="55.8225770" lon="49.1713900"><time>2021-09-11T17:12:18.557</time></trkpt><trkpt lat="55.8225500" lon="49.1713910"><time>2021-09-11T17:12:19.557</time></trkpt><trkpt lat="55.8225240" lon="49.1713920"><time>2021-09-11T17:12:20.557</time></trkpt><trkpt lat="55.8224970" lon="49.1713920"><time>2021-09-11T17:12:21.557</time></trkpt><trkpt lat="55.8224570" lon="49.1713940"><time>2021-09-11T17:12:23.557</time></trkpt><trkpt lat="55.8224440" lon="49.1713950"><time>2021-09-11T17:12:23.557</time></trkpt><trkpt lat="55.8224210" lon="49.1714000"><time>2021-09-11T17:12:24.557</time></trkpt><trkpt lat="55.8224010" lon="49.1714100"><time>2021-09-11T17:12:25.557</time></trkpt><trkpt lat="55.8223860" lon="49.1714260"><time>2021-09-11T17:12:26.557</time></trkpt><trkpt lat="55.8223780" lon="49.1714420"><time>2021-09-11T17:12:27.557</time></trkpt><trkpt lat="55.8223770" lon="49.1714550"><time>2021-09-11T17:12:28.557</time></trkpt><trkpt lat="55.8223800" lon="49.1714690"><time>2021-09-11T17:12:29.557</time></trkpt><trkpt lat="55.8223880" lon="49.1714840"><time>2021-09-11T17:12:30.557</time></trkpt><trkpt lat="55.8223980" lon="49.1715030"><time>2021-09-11T17:12:31.557</time></trkpt><trkpt lat="55.8224110" lon="49.1715250"><time>2021-09-11T17:12:32.557</time></trkpt><trkpt lat="55.8224250" lon="49.1715460"><time>2021-09-11T17:12:33.557</time></trkpt><trkpt lat="55.8224390" lon="49.1715670"><time>2021-09-11T17:12:34.557</time></trkpt><trkpt lat="55.8224540" lon="49.1715870"><time>2021-09-11T17:12:35.557</time></trkpt><trkpt lat="55.8224680" lon="49.1716060"><time>2021-09-11T17:12:36.557</time></trkpt><trkpt lat="55.8224830" lon="49.1716240"><time>2021-09-11T17:12:37.557</time></trkpt><trkpt lat="55.8224970" lon="49.1716440"><time>2021-09-11T17:12:38.557</time></trkpt><trkpt lat="55.8225100" lon="49.1716620"><time>2021-09-11T17:12:39.557</time></trkpt><trkpt lat="55.8225230" lon="49.1716790"><time>2021-09-11T17:12:40.557</time></trkpt><trkpt lat="55.8225370" lon="49.1716980"><time>2021-09-11T17:12:41.557</time></trkpt><trkpt lat="55.8225520" lon="49.1717170"><time>2021-09-11T17:12:42.557</time></trkpt><trkpt lat="55.8225670" lon="49.1717350"><time>2021-09-11T17:12:43.557</time></trkpt><trkpt lat="55.8225820" lon="49.1717530"><time>2021-09-11T17:12:44.557</time></trkpt><trkpt lat="55.8225970" lon="49.1717690"><time>2021-09-11T17:12:45.557</time></trkpt><trkpt lat="55.8226210" lon="49.1717870"><time>2021-09-11T17:12:46.557</time></trkpt><trkpt lat="55.8226320" lon="49.1717960"><time>2021-09-11T17:12:47.557</time></trkpt><trkpt lat="55.8226440" lon="49.1718050"><time>2021-09-11T17:12:48.557</time></trkpt><trkpt lat="55.8226550" lon="49.1718140"><time>2021-09-11T17:12:50.557</time></trkpt><trkpt lat="55.8226670" lon="49.1718230"><time>2021-09-11T17:12:50.557</time></trkpt><trkpt lat="55.8226890" lon="49.1718530"><time>2021-09-11T17:12:51.557</time></trkpt><trkpt lat="55.8226980" lon="49.1718660"><time>2021-09-11T17:12:52.557</time></trkpt><trkpt lat="55.8227070" lon="49.1718800"><time>2021-09-11T17:12:53.557</time></trkpt><trkpt lat="55.8227160" lon="49.1718940"><time>2021-09-11T17:12:54.557</time></trkpt><trkpt lat="55.8227250" lon="49.1719070"><time>2021-09-11T17:12:56.557</time></trkpt><trkpt lat="55.8227340" lon="49.1719210"><time>2021-09-11T17:12:56.557</time></trkpt><trkpt lat="55.8227410" lon="49.1719570"><time>2021-09-11T17:12:57.557</time></trkpt><trkpt lat="55.8227410" lon="49.1719740"><time>2021-09-11T17:12:58.557</time></trkpt><trkpt lat="55.8227420" lon="49.1719900"><time>2021-09-11T17:12:59.557</time></trkpt><trkpt lat="55.8227430" lon="49.1720060"><time>2021-09-11T17:13:00.557</time></trkpt><trkpt lat="55.8227430" lon="49.1720230"><time>2021-09-11T17:13:02.557</time></trkpt><trkpt lat="55.8227440" lon="49.1720390"><time>2021-09-11T17:13:02.557</time></trkpt><trkpt lat="55.8227260" lon="49.1720540"><time>2021-09-11T17:13:03.557</time></trkpt><trkpt lat="55.8227130" lon="49.1720540"><time>2021-09-11T17:13:04.557</time></trkpt><trkpt lat="55.8227010" lon="49.1720550"><time>2021-09-11T17:13:05.557</time></trkpt><trkpt lat="55.8226890" lon="49.1720550"><time>2021-09-11T17:13:06.557</time></trkpt><trkpt lat="55.8226760" lon="49.1720550"><time>2021-09-11T17:13:07.557</time></trkpt><trkpt lat="55.8226640" lon="49.1720550"><time>2021-09-11T17:13:08.557</time></trkpt><trkpt lat="55.8226510" lon="49.1720550"><time>2021-09-11T17:13:09.557</time></trkpt><trkpt lat="55.8226390" lon="49.1720550"><time>2021-09-11T17:13:10.557</time></trkpt><trkpt lat="55.8226270" lon="49.1720560"><time>2021-09-11T17:13:11.557</time></trkpt><trkpt lat="55.8226140" lon="49.1720560"><time>2021-09-11T17:13:13.557</time></trkpt><trkpt lat="55.8226020" lon="49.1720560"><time>2021-09-11T17:13:13.557</time></trkpt><trkpt lat="55.8225890" lon="49.1720660"><time>2021-09-11T17:13:14.557</time></trkpt><trkpt lat="55.8225780" lon="49.1720750"><time>2021-09-11T17:13:15.557</time></trkpt><trkpt lat="55.8225690" lon="49.1720850"><time>2021-09-11T17:13:16.557</time></trkpt><trkpt lat="55.8225620" lon="49.1720940"><time>2021-09-11T17:13:17.557</time></trkpt><trkpt lat="55.8225560" lon="49.1721020"><time>2021-09-11T17:13:18.557</time></trkpt><trkpt lat="55.8225500" lon="49.1721090"><time>2021-09-11T17:13:19.557</time></trkpt><trkpt lat="55.8225460" lon="49.1721150"><time>2021-09-11T17:13:20.557</time></trkpt><trkpt lat="55.8225460" lon="49.1721220"><time>2021-09-11T17:13:21.557</time></trkpt><trkpt lat="55.8225480" lon="49.1721310"><time>2021-09-11T17:13:22.557</time></trkpt><trkpt lat="55.8225520" lon="49.1721370"><time>2021-09-11T17:13:23.557</time></trkpt><trkpt lat="55.8225570" lon="49.1721430"><time>2021-09-11T17:13:24.557</time></trkpt><trkpt lat="55.8225620" lon="49.1721490"><time>2021-09-11T17:13:25.557</time></trkpt><trkpt lat="55.8225680" lon="49.1721560"><time>2021-09-11T17:13:26.557</time></trkpt><trkpt lat="55.8225740" lon="49.1721640"><time>2021-09-11T17:13:27.557</time></trkpt><trkpt lat="55.8225800" lon="49.1721730"><time>2021-09-11T17:13:28.557</time></trkpt><trkpt lat="55.8225870" lon="49.1721840"><time>2021-09-11T17:13:29.557</time></trkpt><trkpt lat="55.8225930" lon="49.1721980"><time>2021-09-11T17:13:30.557</time></trkpt><trkpt lat="55.8225970" lon="49.1722130"><time>2021-09-11T17:13:31.557</time></trkpt><trkpt lat="55.8225980" lon="49.1722250"><time>2021-09-11T17:13:32.557</time></trkpt><trkpt lat="55.8225950" lon="49.1722320"><time>2021-09-11T17:13:33.557</time></trkpt><trkpt lat="55.8225820" lon="49.1722350"><time>2021-09-11T17:13:34.557</time></trkpt><trkpt lat="55.8225670" lon="49.1722370"><time>2021-09-11T17:13:35.557</time></trkpt><trkpt lat="55.8225480" lon="49.1722390"><time>2021-09-11T17:13:36.557</time></trkpt><trkpt lat="55.8225300" lon="49.1722370"><time>2021-09-11T17:13:37.557</time></trkpt><trkpt lat="55.8225030" lon="49.1722340"><time>2021-09-11T17:13:38.557</time></trkpt><trkpt lat="55.8224920" lon="49.1722330"><time>2021-09-11T17:13:40.557</time></trkpt><trkpt lat="55.8224820" lon="49.1722320"><time>2021-09-11T17:13:40.557</time></trkpt><trkpt lat="55.8224540" lon="49.1722270"><time>2021-09-11T17:13:41.557</time></trkpt><trkpt lat="55.8224420" lon="49.1722240"><time>2021-09-11T17:13:42.557</time></trkpt><trkpt lat="55.8224310" lon="49.1722200"><time>2021-09-11T17:13:43.557</time></trkpt><trkpt lat="55.8224190" lon="49.1722160"><time>2021-09-11T17:13:44.557</time></trkpt><trkpt lat="55.8224070" lon="49.1722130"><time>2021-09-11T17:13:46.557</time></trkpt><trkpt lat="55.8223950" lon="49.1722090"><time>2021-09-11T17:13:46.557</time></trkpt><trkpt lat="55.8223760" lon="49.1722060"><time>2021-09-11T17:13:47.557</time></trkpt><trkpt lat="55.8223570" lon="49.1722080"><time>2021-09-11T17:13:48.557</time></trkpt><trkpt lat="55.8223390" lon="49.1722110"><time>2021-09-11T17:13:49.557</time></trkpt><trkpt lat="55.8223220" lon="49.1722210"><time>2021-09-11T17:13:50.557</time></trkpt><trkpt lat="55.8222980" lon="49.1722510"><time>2021-09-11T17:13:52.557</time></trkpt><trkpt lat="55.8222910" lon="49.1722620"><time>2021-09-11T17:13:52.557</time></trkpt><trkpt lat="55.8222770" lon="49.1722880"><time>2021-09-11T17:13:53.557</time></trkpt><trkpt lat="55.8222630" lon="49.1723160"><time>2021-09-11T17:13:54.557</time></trkpt><trkpt lat="55.8222510" lon="49.1723430"><time>2021-09-11T17:13:54.557</time></trkpt><trkpt lat="55.8222370" lon="49.1723690"><time>2021-09-11T17:13:55.557</time></trkpt><trkpt lat="55.8222220" lon="49.1723950"><time>2021-09-11T17:13:56.557</time></trkpt><trkpt lat="55.8222060" lon="49.1724180"><time>2021-09-11T17:13:57.557</time></trkpt><trkpt lat="55.8221870" lon="49.1724380"><time>2021-09-11T17:13:58.557</time></trkpt><trkpt lat="55.8221640" lon="49.1724510"><time>2021-09-11T17:13:59.557</time></trkpt><trkpt lat="55.8221370" lon="49.1724590"><time>2021-09-11T17:14:01.557</time></trkpt><trkpt lat="55.8221290" lon="49.1724610"><time>2021-09-11T17:14:01.557</time></trkpt><trkpt lat="55.8221170" lon="49.1724680"><time>2021-09-11T17:14:02.557</time></trkpt><trkpt lat="55.8221110" lon="49.1724780"><time>2021-09-11T17:14:03.557</time></trkpt><trkpt lat="55.8221040" lon="49.1724960"><time>2021-09-11T17:14:04.557</time></trkpt><trkpt lat="55.8220970" lon="49.1725200"><time>2021-09-11T17:14:05.557</time></trkpt><trkpt lat="55.8220900" lon="49.1725460"><time>2021-09-11T17:14:06.557</time></trkpt><trkpt lat="55.8220840" lon="49.1725780"><time>2021-09-11T17:14:07.557</time></trkpt><trkpt lat="55.8220810" lon="49.1726090"><time>2021-09-11T17:14:08.557</time></trkpt><trkpt lat="55.8220800" lon="49.1726470"><time>2021-09-11T17:14:09.557</time></trkpt><trkpt lat="55.8220820" lon="49.1726860"><time>2021-09-11T17:14:10.557</time></trkpt><trkpt lat="55.8220860" lon="49.1727430"><time>2021-09-11T17:14:12.557</time></trkpt><trkpt lat="55.8220870" lon="49.1727640"><time>2021-09-11T17:14:12.557</time></trkpt><trkpt lat="55.8220880" lon="49.1728040"><time>2021-09-11T17:14:13.557</time></trkpt><trkpt lat="55.8220870" lon="49.1728450"><time>2021-09-11T17:14:14.557</time></trkpt><trkpt lat="55.8220830" lon="49.1728880"><time>2021-09-11T17:14:15.557</time></trkpt><trkpt lat="55.8220780" lon="49.1729330"><time>2021-09-11T17:14:16.557</time></trkpt><trkpt lat="55.8220710" lon="49.1729730"><time>2021-09-11T17:14:17.557</time></trkpt><trkpt lat="55.8220620" lon="49.1730120"><time>2021-09-11T17:14:18.557</time></trkpt><trkpt lat="55.8220490" lon="49.1730540"><time>2021-09-11T17:14:19.557</time></trkpt><trkpt lat="55.8220370" lon="49.1730930"><time>2021-09-11T17:14:20.557</time></trkpt><trkpt lat="55.8220240" lon="49.1731280"><time>2021-09-11T17:14:21.557</time></trkpt><trkpt lat="55.8220110" lon="49.1731640"><time>2021-09-11T17:14:22.557</time></trkpt><trkpt lat="55.8219990" lon="49.1732000"><time>2021-09-11T17:14:23.557</time></trkpt><trkpt lat="55.8219850" lon="49.1732400"><time>2021-09-11T17:14:24.557</time></trkpt><trkpt lat="55.8219690" lon="49.1732810"><time>2021-09-11T17:14:25.557</time></trkpt><trkpt lat="55.8219530" lon="49.1733200"><time>2021-09-11T17:14:26.557</time></trkpt><trkpt lat="55.8219410" lon="49.1733550"><time>2021-09-11T17:14:27.557</time></trkpt><trkpt lat="55.8219310" lon="49.1733890"><time>2021-09-11T17:14:28.557</time></trkpt><trkpt lat="55.8219200" lon="49.1734230"><time>2021-09-11T17:14:29.557</time></trkpt><trkpt lat="55.8219080" lon="49.1734590"><time>2021-09-11T17:14:30.557</time></trkpt><trkpt lat="55.8218960" lon="49.1734930"><time>2021-09-11T17:14:31.557</time></trkpt><trkpt lat="55.8218840" lon="49.1735270"><time>2021-09-11T17:14:32.557</time></trkpt><trkpt lat="55.8218740" lon="49.1735600"><time>2021-09-11T17:14:33.557</time></trkpt><trkpt lat="55.8218640" lon="49.1735920"><time>2021-09-11T17:14:34.557</time></trkpt><trkpt lat="55.8218520" lon="49.1736260"><time>2021-09-11T17:14:35.557</time></trkpt><trkpt lat="55.8218400" lon="49.1736600"><time>2021-09-11T17:14:36.557</time></trkpt><trkpt lat="55.8218310" lon="49.1736900"><time>2021-09-11T17:14:37.557</time></trkpt><trkpt lat="55.8218220" lon="49.1737180"><time>2021-09-11T17:14:38.557</time></trkpt><trkpt lat="55.8218130" lon="49.1737530"><time>2021-09-11T17:14:39.557</time></trkpt><trkpt lat="55.8218120" lon="49.1737670"><time>2021-09-11T17:14:40.557</time></trkpt><trkpt lat="55.8218100" lon="49.1737820"><time>2021-09-11T17:14:41.557</time></trkpt><trkpt lat="55.8218080" lon="49.1737960"><time>2021-09-11T17:14:42.557</time></trkpt><trkpt lat="55.8218060" lon="49.1738110"><time>2021-09-11T17:14:43.557</time></trkpt><trkpt lat="55.8218050" lon="49.1738250"><time>2021-09-11T17:14:45.557</time></trkpt><trkpt lat="55.8218030" lon="49.1738400"><time>2021-09-11T17:14:45.557</time></trkpt><trkpt lat="55.8217910" lon="49.1738850"><time>2021-09-11T17:14:46.557</time></trkpt><trkpt lat="55.8217860" lon="49.1739090"><time>2021-09-11T17:14:47.557</time></trkpt><trkpt lat="55.8217810" lon="49.1739330"><time>2021-09-11T17:14:48.557</time></trkpt><trkpt lat="55.8217750" lon="49.1739560"><time>2021-09-11T17:14:49.557</time></trkpt><trkpt lat="55.8217700" lon="49.1739800"><time>2021-09-11T17:14:51.557</time></trkpt><trkpt lat="55.8217650" lon="49.1740040"><time>2021-09-11T17:14:51.557</time></trkpt><trkpt lat="55.8217590" lon="49.1740470"><time>2021-09-11T17:14:52.557</time></trkpt><trkpt lat="55.8217510" lon="49.1740930"><time>2021-09-11T17:14:53.557</time></trkpt><trkpt lat="55.8217420" lon="49.1741370"><time>2021-09-11T17:14:54.557</time></trkpt><trkpt lat="55.8217300" lon="49.1741780"><time>2021-09-11T17:14:55.557</time></trkpt><trkpt lat="55.8217170" lon="49.1742170"><time>2021-09-11T17:14:56.557</time></trkpt><trkpt lat="55.8217070" lon="49.1742580"><time>2021-09-11T17:14:57.557</time></trkpt><trkpt lat="55.8216950" lon="49.1743060"><time>2021-09-11T17:14:58.557</time></trkpt><trkpt lat="55.8216840" lon="49.1743530"><time>2021-09-11T17:14:59.557</time></trkpt><trkpt lat="55.8216710" lon="49.1743950"><time>2021-09-11T17:15:00.557</time></trkpt><trkpt lat="55.8216550" lon="49.1744280"><time>2021-09-11T17:15:01.557</time></trkpt><trkpt lat="55.8216350" lon="49.1744580"><time>2021-09-11T17:15:02.557</time></trkpt><trkpt lat="55.8216120" lon="49.1744860"><time>2021-09-11T17:15:03.557</time></trkpt><trkpt lat="55.8215870" lon="49.1745120"><time>2021-09-11T17:15:04.557</time></trkpt><trkpt lat="55.8215610" lon="49.1745370"><time>2021-09-11T17:15:05.557</time></trkpt><trkpt lat="55.8215350" lon="49.1745630"><time>2021-09-11T17:15:06.557</time></trkpt><trkpt lat="55.8215120" lon="49.1745900"><time>2021-09-11T17:15:07.557</time></trkpt><trkpt lat="55.8214910" lon="49.1746150"><time>2021-09-11T17:15:08.557</time></trkpt><trkpt lat="55.8214740" lon="49.1746330"><time>2021-09-11T17:15:09.557</time></trkpt><trkpt lat="55.8214550" lon="49.1746520"><time>2021-09-11T17:15:10.557</time></trkpt><trkpt lat="55.8214350" lon="49.1746730"><time>2021-09-11T17:15:11.557</time></trkpt><trkpt lat="55.8214170" lon="49.1746900"><time>2021-09-11T17:15:12.557</time></trkpt><trkpt lat="55.8214030" lon="49.1747020"><time>2021-09-11T17:15:13.557</time></trkpt><trkpt lat="55.8213940" lon="49.1747090"><time>2021-09-11T17:15:14.557</time></trkpt><trkpt lat="55.8213880" lon="49.1747110"><time>2021-09-11T17:15:15.557</time></trkpt><trkpt lat="55.8213850" lon="49.1747050"><time>2021-09-11T17:15:16.557</time></trkpt><trkpt lat="55.8213880" lon="49.1747000"><time>2021-09-11T17:15:17.557</time></trkpt><trkpt lat="55.8213930" lon="49.1747010"><time>2021-09-11T17:15:18.557</time></trkpt><trkpt lat="55.8214020" lon="49.1747100"><time>2021-09-11T17:15:19.557</time></trkpt><trkpt lat="55.8214120" lon="49.1747260"><time>2021-09-11T17:15:20.557</time></trkpt><trkpt lat="55.8214250" lon="49.1747430"><time>2021-09-11T17:15:21.557</time></trkpt><trkpt lat="55.8214410" lon="49.1747590"><time>2021-09-11T17:15:22.557</time></trkpt><trkpt lat="55.8214580" lon="49.1747750"><time>2021-09-11T17:15:23.557</time></trkpt><trkpt lat="55.8214800" lon="49.1748010"><time>2021-09-11T17:15:25.557</time></trkpt><trkpt lat="55.8214860" lon="49.1748090"><time>2021-09-11T17:15:25.557</time></trkpt><trkpt lat="55.8215000" lon="49.1748240"><time>2021-09-11T17:15:26.557</time></trkpt><trkpt lat="55.8215140" lon="49.1748360"><time>2021-09-11T17:15:27.557</time></trkpt><trkpt lat="55.8215290" lon="49.1748460"><time>2021-09-11T17:15:28.557</time></trkpt><trkpt lat="55.8215460" lon="49.1748520"><time>2021-09-11T17:15:29.557</time></trkpt><trkpt lat="55.8215630" lon="49.1748540"><time>2021-09-11T17:15:30.557</time></trkpt><trkpt lat="55.8215820" lon="49.1748520"><time>2021-09-11T17:15:31.557</time></trkpt><trkpt lat="55.8216030" lon="49.1748480"><time>2021-09-11T17:15:32.557</time></trkpt><trkpt lat="55.8216260" lon="49.1748400"><time>2021-09-11T17:15:33.557</time></trkpt><trkpt lat="55.8216500" lon="49.1748300"><time>2021-09-11T17:15:34.557</time></trkpt><trkpt lat="55.8216750" lon="49.1748200"><time>2021-09-11T17:15:35.557</time></trkpt><trkpt lat="55.8216980" lon="49.1748100"><time>2021-09-11T17:15:36.557</time></trkpt><trkpt lat="55.8217190" lon="49.1748000"><time>2021-09-11T17:15:37.557</time></trkpt><trkpt lat="55.8217380" lon="49.1747900"><time>2021-09-11T17:15:38.557</time></trkpt><trkpt lat="55.8217620" lon="49.1747770"><time>2021-09-11T17:15:39.557</time></trkpt><trkpt lat="55.8217710" lon="49.1747720"><time>2021-09-11T17:15:40.557</time></trkpt><trkpt lat="55.8217800" lon="49.1747670"><time>2021-09-11T17:15:41.557</time></trkpt><trkpt lat="55.8217880" lon="49.1747620"><time>2021-09-11T17:15:42.557</time></trkpt><trkpt lat="55.8217970" lon="49.1747570"><time>2021-09-11T17:15:43.557</time></trkpt><trkpt lat="55.8218060" lon="49.1747520"><time>2021-09-11T17:15:45.557</time></trkpt><trkpt lat="55.8218150" lon="49.1747470"><time>2021-09-11T17:15:45.557</time></trkpt><trkpt lat="55.8218300" lon="49.1747340"><time>2021-09-11T17:15:46.557</time></trkpt><trkpt lat="55.8218490" lon="49.1747190"><time>2021-09-11T17:15:47.557</time></trkpt><trkpt lat="55.8218710" lon="49.1747030"><time>2021-09-11T17:15:48.557</time></trkpt><trkpt lat="55.8218940" lon="49.1746850"><time>2021-09-11T17:15:49.557</time></trkpt><trkpt lat="55.8219270" lon="49.1746510"><time>2021-09-11T17:15:51.557</time></trkpt><trkpt lat="55.8219370" lon="49.1746390"><time>2021-09-11T17:15:51.557</time></trkpt><trkpt lat="55.8219600" lon="49.1746130"><time>2021-09-11T17:15:52.557</time></trkpt><trkpt lat="55.8219830" lon="49.1745880"><time>2021-09-11T17:15:53.557</time></trkpt><trkpt lat="55.8220050" lon="49.1745650"><time>2021-09-11T17:15:54.557</time></trkpt><trkpt lat="55.8220250" lon="49.1745450"><time>2021-09-11T17:15:55.557</time></trkpt><trkpt lat="55.8220410" lon="49.1745320"><time>2021-09-11T17:15:56.557</time></trkpt><trkpt lat="55.8220500" lon="49.1745280"><time>2021-09-11T17:15:57.557</time></trkpt><trkpt lat="55.8220500" lon="49.1745300"><time>2021-09-11T17:15:58.557</time></trkpt><trkpt lat="55.8220440" lon="49.1745380"><time>2021-09-11T17:15:59.557</time></trkpt><trkpt lat="55.8220310" lon="49.1745560"><time>2021-09-11T17:16:00.557</time></trkpt><trkpt lat="55.8220130" lon="49.1745790"><time>2021-09-11T17:16:01.557</time></trkpt><trkpt lat="55.8219920" lon="49.1746010"><time>2021-09-11T17:16:02.557</time></trkpt><trkpt lat="55.8219710" lon="49.1746220"><time>2021-09-11T17:16:03.557</time></trkpt><trkpt lat="55.8219490" lon="49.1746410"><time>2021-09-11T17:16:04.557</time></trkpt><trkpt lat="55.8219280" lon="49.1746610"><time>2021-09-11T17:16:05.557</time></trkpt><trkpt lat="55.8219060" lon="49.1746790"><time>2021-09-11T17:16:06.557</time></trkpt><trkpt lat="55.8218840" lon="49.1746980"><time>2021-09-11T17:16:07.557</time></trkpt><trkpt lat="55.8218610" lon="49.1747180"><time>2021-09-11T17:16:08.557</time></trkpt><trkpt lat="55.8218400" lon="49.1747380"><time>2021-09-11T17:16:09.557</time></trkpt><trkpt lat="55.8218150" lon="49.1747590"><time>2021-09-11T17:16:10.557</time></trkpt><trkpt lat="55.8217880" lon="49.1747810"><time>2021-09-11T17:16:11.557</time></trkpt><trkpt lat="55.8217580" lon="49.1748020"><time>2021-09-11T17:16:13.557</time></trkpt><trkpt lat="55.8217280" lon="49.1748250"><time>2021-09-11T17:16:14.557</time></trkpt><trkpt lat="55.8216960" lon="49.1748480"><time>2021-09-11T17:16:14.557</time></trkpt><trkpt lat="55.8216670" lon="49.1748690"><time>2021-09-11T17:16:15.557</time></trkpt><trkpt lat="55.8216410" lon="49.1748890"><time>2021-09-11T17:16:16.557</time></trkpt><trkpt lat="55.8216120" lon="49.1749100"><time>2021-09-11T17:16:17.557</time></trkpt><trkpt lat="55.8215830" lon="49.1749330"><time>2021-09-11T17:16:18.557</time></trkpt><trkpt lat="55.8215560" lon="49.1749550"><time>2021-09-11T17:16:19.557</time></trkpt><trkpt lat="55.8215290" lon="49.1749750"><time>2021-09-11T17:16:20.557</time></trkpt><trkpt lat="55.8215050" lon="49.1749930"><time>2021-09-11T17:16:21.557</time></trkpt><trkpt lat="55.8214800" lon="49.1750090"><time>2021-09-11T17:16:22.557</time></trkpt><trkpt lat="55.8214550" lon="49.1750230"><time>2021-09-11T17:16:23.557</time></trkpt><trkpt lat="55.8214290" lon="49.1750370"><time>2021-09-11T17:16:24.557</time></trkpt><trkpt lat="55.8214040" lon="49.1750500"><time>2021-09-11T17:16:25.557</time></trkpt><trkpt lat="55.8213780" lon="49.1750630"><time>2021-09-11T17:16:26.557</time></trkpt><trkpt lat="55.8213540" lon="49.1750760"><time>2021-09-11T17:16:27.557</time></trkpt><trkpt lat="55.8213280" lon="49.1750920"><time>2021-09-11T17:16:28.557</time></trkpt><trkpt lat="55.8213030" lon="49.1751090"><time>2021-09-11T17:16:29.557</time></trkpt><trkpt lat="55.8212770" lon="49.1751240"><time>2021-09-11T17:16:30.557</time></trkpt><trkpt lat="55.8212520" lon="49.1751380"><time>2021-09-11T17:16:31.557</time></trkpt><trkpt lat="55.8212270" lon="49.1751520"><time>2021-09-11T17:16:32.557</time></trkpt><trkpt lat="55.8211890" lon="49.1751730"><time>2021-09-11T17:16:34.557</time></trkpt><trkpt lat="55.8211760" lon="49.1751800"><time>2021-09-11T17:16:34.557</time></trkpt><trkpt lat="55.8211510" lon="49.1751940"><time>2021-09-11T17:16:35.557</time></trkpt><trkpt lat="55.8211240" lon="49.1752090"><time>2021-09-11T17:16:36.557</time></trkpt><trkpt lat="55.8210980" lon="49.1752220"><time>2021-09-11T17:16:37.557</time></trkpt><trkpt lat="55.8210720" lon="49.1752340"><time>2021-09-11T17:16:38.557</time></trkpt><trkpt lat="55.8210330" lon="49.1752540"><time>2021-09-11T17:16:40.557</time></trkpt><trkpt lat="55.8210190" lon="49.1752600"><time>2021-09-11T17:16:40.557</time></trkpt><trkpt lat="55.8209930" lon="49.1752740"><time>2021-09-11T17:16:41.557</time></trkpt><trkpt lat="55.8209690" lon="49.1752890"><time>2021-09-11T17:16:42.557</time></trkpt><trkpt lat="55.8209440" lon="49.1753020"><time>2021-09-11T17:16:43.557</time></trkpt><trkpt lat="55.8209210" lon="49.1753140"><time>2021-09-11T17:16:44.557</time></trkpt><trkpt lat="55.8208860" lon="49.1753330"><time>2021-09-11T17:16:46.557</time></trkpt><trkpt lat="55.8208740" lon="49.1753390"><time>2021-09-11T17:16:46.557</time></trkpt><trkpt lat="55.8208510" lon="49.1753520"><time>2021-09-11T17:16:47.557</time></trkpt><trkpt lat="55.8208290" lon="49.1753640"><time>2021-09-11T17:16:48.557</time></trkpt><trkpt lat="55.8207940" lon="49.1753850"><time>2021-09-11T17:16:50.557</time></trkpt><trkpt lat="55.8207820" lon="49.1753910"><time>2021-09-11T17:16:50.557</time></trkpt><trkpt lat="55.8207580" lon="49.1754030"><time>2021-09-11T17:16:51.557</time></trkpt><trkpt lat="55.8207340" lon="49.1754130"><time>2021-09-11T17:16:52.557</time></trkpt><trkpt lat="55.8207110" lon="49.1754240"><time>2021-09-11T17:16:53.557</time></trkpt><trkpt lat="55.8206890" lon="49.1754360"><time>2021-09-11T17:16:54.557</time></trkpt><trkpt lat="55.8206560" lon="49.1754560"><time>2021-09-11T17:16:56.557</time></trkpt><trkpt lat="55.8206450" lon="49.1754620"><time>2021-09-11T17:16:56.557</time></trkpt><trkpt lat="55.8206240" lon="49.1754740"><time>2021-09-11T17:16:57.557</time></trkpt><trkpt lat="55.8206040" lon="49.1754880"><time>2021-09-11T17:16:58.557</time></trkpt><trkpt lat="55.8205830" lon="49.1755040"><time>2021-09-11T17:16:59.557</time></trkpt><trkpt lat="55.8205620" lon="49.1755190"><time>2021-09-11T17:17:00.557</time></trkpt><trkpt lat="55.8205410" lon="49.1755340"><time>2021-09-11T17:17:01.557</time></trkpt><trkpt lat="55.8205210" lon="49.1755480"><time>2021-09-11T17:17:02.557</time></trkpt><trkpt lat="55.8205000" lon="49.1755610"><time>2021-09-11T17:17:03.557</time></trkpt><trkpt lat="55.8204770" lon="49.1755730"><time>2021-09-11T17:17:04.557</time></trkpt><trkpt lat="55.8204530" lon="49.1755870"><time>2021-09-11T17:17:05.557</time></trkpt><trkpt lat="55.8204280" lon="49.1756000"><time>2021-09-11T17:17:06.557</time></trkpt><trkpt lat="55.8204040" lon="49.1756130"><time>2021-09-11T17:17:07.557</time></trkpt><trkpt lat="55.8203780" lon="49.1756260"><time>2021-09-11T17:17:08.557</time></trkpt><trkpt lat="55.8203530" lon="49.1756380"><time>2021-09-11T17:17:09.557</time></trkpt><trkpt lat="55.8203270" lon="49.1756510"><time>2021-09-11T17:17:10.557</time></trkpt><trkpt lat="55.8203010" lon="49.1756620"><time>2021-09-11T17:17:11.557</time></trkpt><trkpt lat="55.8202760" lon="49.1756730"><time>2021-09-11T17:17:12.557</time></trkpt><trkpt lat="55.8202510" lon="49.1756840"><time>2021-09-11T17:17:13.557</time></trkpt><trkpt lat="55.8202280" lon="49.1756970"><time>2021-09-11T17:17:14.557</time></trkpt><trkpt lat="55.8202050" lon="49.1757110"><time>2021-09-11T17:17:15.557</time></trkpt><trkpt lat="55.8201820" lon="49.1757250"><time>2021-09-11T17:17:16.557</time></trkpt><trkpt lat="55.8201600" lon="49.1757370"><time>2021-09-11T17:17:17.557</time></trkpt><trkpt lat="55.8201380" lon="49.1757510"><time>2021-09-11T17:17:18.557</time></trkpt><trkpt lat="55.8201160" lon="49.1757640"><time>2021-09-11T17:17:19.557</time></trkpt><trkpt lat="55.8200950" lon="49.1757780"><time>2021-09-11T17:17:20.557</time></trkpt><trkpt lat="55.8200750" lon="49.1757910"><time>2021-09-11T17:17:21.557</time></trkpt><trkpt lat="55.8200540" lon="49.1758020"><time>2021-09-11T17:17:22.557</time></trkpt><trkpt lat="55.8200320" lon="49.1758140"><time>2021-09-11T17:17:23.557</time></trkpt><trkpt lat="55.8200080" lon="49.1758270"><time>2021-09-11T17:17:24.557</time></trkpt><trkpt lat="55.8199840" lon="49.1758400"><time>2021-09-11T17:17:25.557</time></trkpt><trkpt lat="55.8199600" lon="49.1758540"><time>2021-09-11T17:17:26.557</time></trkpt><trkpt lat="55.8199370" lon="49.1758670"><time>2021-09-11T17:17:27.557</time></trkpt><trkpt lat="55.8199150" lon="49.1758790"><time>2021-09-11T17:17:28.557</time></trkpt><trkpt lat="55.8198950" lon="49.1758920"><time>2021-09-11T17:17:29.557</time></trkpt><trkpt lat="55.8198760" lon="49.1759040"><time>2021-09-11T17:17:30.557</time></trkpt><trkpt lat="55.8198580" lon="49.1759170"><time>2021-09-11T17:17:31.557</time></trkpt><trkpt lat="55.8198370" lon="49.1759300"><time>2021-09-11T17:17:32.557</time></trkpt><trkpt lat="55.8198060" lon="49.1759510"><time>2021-09-11T17:17:34.557</time></trkpt><trkpt lat="55.8197960" lon="49.1759580"><time>2021-09-11T17:17:34.557</time></trkpt><trkpt lat="55.8197750" lon="49.1759740"><time>2021-09-11T17:17:35.557</time></trkpt><trkpt lat="55.8197540" lon="49.1759910"><time>2021-09-11T17:17:36.557</time></trkpt><trkpt lat="55.8197330" lon="49.1760090"><time>2021-09-11T17:17:37.557</time></trkpt><trkpt lat="55.8197130" lon="49.1760290"><time>2021-09-11T17:17:38.557</time></trkpt><trkpt lat="55.8196860" lon="49.1760650"><time>2021-09-11T17:17:40.557</time></trkpt><trkpt lat="55.8196770" lon="49.1760780"><time>2021-09-11T17:17:40.557</time></trkpt><trkpt lat="55.8196600" lon="49.1761020"><time>2021-09-11T17:17:41.557</time></trkpt><trkpt lat="55.8196430" lon="49.1761250"><time>2021-09-11T17:17:42.557</time></trkpt><trkpt lat="55.8196250" lon="49.1761520"><time>2021-09-11T17:17:43.557</time></trkpt><trkpt lat="55.8196070" lon="49.1761820"><time>2021-09-11T17:17:44.557</time></trkpt><trkpt lat="55.8195810" lon="49.1762360"><time>2021-09-11T17:17:46.557</time></trkpt><trkpt lat="55.8195710" lon="49.1762570"><time>2021-09-11T17:17:46.557</time></trkpt><trkpt lat="55.8195520" lon="49.1763010"><time>2021-09-11T17:17:47.557</time></trkpt><trkpt lat="55.8195340" lon="49.1763440"><time>2021-09-11T17:17:48.557</time></trkpt><trkpt lat="55.8195140" lon="49.1763880"><time>2021-09-11T17:17:49.557</time></trkpt><trkpt lat="55.8194920" lon="49.1764310"><time>2021-09-11T17:17:50.557</time></trkpt><trkpt lat="55.8194720" lon="49.1764710"><time>2021-09-11T17:17:51.557</time></trkpt><trkpt lat="55.8194520" lon="49.1765080"><time>2021-09-11T17:17:52.557</time></trkpt><trkpt lat="55.8194320" lon="49.1765440"><time>2021-09-11T17:17:53.557</time></trkpt><trkpt lat="55.8194100" lon="49.1765790"><time>2021-09-11T17:17:54.557</time></trkpt><trkpt lat="55.8193890" lon="49.1766130"><time>2021-09-11T17:17:55.557</time></trkpt><trkpt lat="55.8193690" lon="49.1766470"><time>2021-09-11T17:17:56.557</time></trkpt><trkpt lat="55.8193480" lon="49.1766810"><time>2021-09-11T17:17:57.557</time></trkpt><trkpt lat="55.8193310" lon="49.1767100"><time>2021-09-11T17:17:58.557</time></trkpt><trkpt lat="55.8193180" lon="49.1767290"><time>2021-09-11T17:17:59.557</time></trkpt><trkpt lat="55.8193100" lon="49.1767470"><time>2021-09-11T17:18:00.557</time></trkpt><trkpt lat="55.8193050" lon="49.1767620"><time>2021-09-11T17:18:01.557</time></trkpt><trkpt lat="55.8193050" lon="49.1767780"><time>2021-09-11T17:18:02.557</time></trkpt><trkpt lat="55.8193110" lon="49.1767980"><time>2021-09-11T17:18:03.557</time></trkpt><trkpt lat="55.8193220" lon="49.1768210"><time>2021-09-11T17:18:04.557</time></trkpt><trkpt lat="55.8193360" lon="49.1768470"><time>2021-09-11T17:18:05.557</time></trkpt><trkpt lat="55.8193530" lon="49.1768730"><time>2021-09-11T17:18:06.557</time></trkpt><trkpt lat="55.8193720" lon="49.1768980"><time>2021-09-11T17:18:07.557</time></trkpt><trkpt lat="55.8193920" lon="49.1769220"><time>2021-09-11T17:18:08.557</time></trkpt><trkpt lat="55.8194130" lon="49.1769460"><time>2021-09-11T17:18:09.557</time></trkpt><trkpt lat="55.8194350" lon="49.1769700"><time>2021-09-11T17:18:09.557</time></trkpt><trkpt lat="55.8194560" lon="49.1769950"><time>2021-09-11T17:18:10.557</time></trkpt><trkpt lat="55.8194790" lon="49.1770230"><time>2021-09-11T17:18:11.557</time></trkpt><trkpt lat="55.8195000" lon="49.1770540"><time>2021-09-11T17:18:12.557</time></trkpt><trkpt lat="55.8195190" lon="49.1770890"><time>2021-09-11T17:18:13.557</time></trkpt><trkpt lat="55.8195390" lon="49.1771260"><time>2021-09-11T17:18:14.557</time></trkpt><trkpt lat="55.8195570" lon="49.1771630"><time>2021-09-11T17:18:15.557</time></trkpt><trkpt lat="55.8195750" lon="49.1772010"><time>2021-09-11T17:18:16.557</time></trkpt><trkpt lat="55.8195930" lon="49.1772370"><time>2021-09-11T17:18:17.557</time></trkpt><trkpt lat="55.8196090" lon="49.1772730"><time>2021-09-11T17:18:18.557</time></trkpt><trkpt lat="55.8196250" lon="49.1773090"><time>2021-09-11T17:18:19.557</time></trkpt><trkpt lat="55.8196380" lon="49.1773490"><time>2021-09-11T17:18:20.557</time></trkpt><trkpt lat="55.8196450" lon="49.1773900"><time>2021-09-11T17:18:21.557</time></trkpt><trkpt lat="55.8196490" lon="49.1774350"><time>2021-09-11T17:18:22.557</time></trkpt><trkpt lat="55.8196490" lon="49.1774810"><time>2021-09-11T17:18:23.557</time></trkpt><trkpt lat="55.8196460" lon="49.1775280"><time>2021-09-11T17:18:24.557</time></trkpt><trkpt lat="55.8196410" lon="49.1775770"><time>2021-09-11T17:18:25.557</time></trkpt><trkpt lat="55.8196360" lon="49.1776250"><time>2021-09-11T17:18:26.557</time></trkpt><trkpt lat="55.8196310" lon="49.1776730"><time>2021-09-11T17:18:27.557</time></trkpt><trkpt lat="55.8196240" lon="49.1777210"><time>2021-09-11T17:18:28.557</time></trkpt><trkpt lat="55.8196170" lon="49.1777690"><time>2021-09-11T17:18:29.557</time></trkpt><trkpt lat="55.8196100" lon="49.1778170"><time>2021-09-11T17:18:30.557</time></trkpt><trkpt lat="55.8196030" lon="49.1778670"><time>2021-09-11T17:18:31.557</time></trkpt><trkpt lat="55.8195910" lon="49.1779380"><time>2021-09-11T17:18:33.557</time></trkpt><trkpt lat="55.8195860" lon="49.1779610"><time>2021-09-11T17:18:33.557</time></trkpt><trkpt lat="55.8195760" lon="49.1780060"><time>2021-09-11T17:18:34.557</time></trkpt><trkpt lat="55.8195660" lon="49.1780500"><time>2021-09-11T17:18:35.557</time></trkpt><trkpt lat="55.8195590" lon="49.1780940"><time>2021-09-11T17:18:36.557</time></trkpt><trkpt lat="55.8195550" lon="49.1781390"><time>2021-09-11T17:18:37.557</time></trkpt><trkpt lat="55.8195600" lon="49.1782100"><time>2021-09-11T17:18:39.557</time></trkpt><trkpt lat="55.8195630" lon="49.1782340"><time>2021-09-11T17:18:39.557</time></trkpt><trkpt lat="55.8195710" lon="49.1782820"><time>2021-09-11T17:18:40.557</time></trkpt><trkpt lat="55.8195820" lon="49.1783340"><time>2021-09-11T17:18:41.557</time></trkpt><trkpt lat="55.8195910" lon="49.1783800"><time>2021-09-11T17:18:42.557</time></trkpt><trkpt lat="55.8196010" lon="49.1784260"><time>2021-09-11T17:18:43.557</time></trkpt><trkpt lat="55.8196180" lon="49.1784950"><time>2021-09-11T17:18:45.557</time></trkpt><trkpt lat="55.8196240" lon="49.1785190"><time>2021-09-11T17:18:45.557</time></trkpt><trkpt lat="55.8196340" lon="49.1785680"><time>2021-09-11T17:18:46.557</time></trkpt><trkpt lat="55.8196450" lon="49.1786170"><time>2021-09-11T17:18:47.557</time></trkpt><trkpt lat="55.8196540" lon="49.1786670"><time>2021-09-11T17:18:48.557</time></trkpt><trkpt lat="55.8196660" lon="49.1787180"><time>2021-09-11T17:18:49.557</time></trkpt><trkpt lat="55.8196750" lon="49.1787670"><time>2021-09-11T17:18:50.557</time></trkpt><trkpt lat="55.8196850" lon="49.1788150"><time>2021-09-11T17:18:51.557</time></trkpt><trkpt lat="55.8196930" lon="49.1788640"><time>2021-09-11T17:18:52.557</time></trkpt><trkpt lat="55.8196970" lon="49.1789150"><time>2021-09-11T17:18:53.557</time></trkpt><trkpt lat="55.8196990" lon="49.1789630"><time>2021-09-11T17:18:54.557</time></trkpt><trkpt lat="55.8197000" lon="49.1790130"><time>2021-09-11T17:18:55.557</time></trkpt><trkpt lat="55.8197000" lon="49.1790640"><time>2021-09-11T17:18:56.557</time></trkpt><trkpt lat="55.8196950" lon="49.1791150"><time>2021-09-11T17:18:57.557</time></trkpt><trkpt lat="55.8196880" lon="49.1791640"><time>2021-09-11T17:18:58.557</time></trkpt><trkpt lat="55.8196800" lon="49.1792130"><time>2021-09-11T17:18:59.557</time></trkpt><trkpt lat="55.8196700" lon="49.1792580"><time>2021-09-11T17:19:00.557</time></trkpt><trkpt lat="55.8196530" lon="49.1793220"><time>2021-09-11T17:19:02.557</time></trkpt><trkpt lat="55.8196470" lon="49.1793420"><time>2021-09-11T17:19:02.557</time></trkpt><trkpt lat="55.8196350" lon="49.1793820"><time>2021-09-11T17:19:03.557</time></trkpt><trkpt lat="55.8196250" lon="49.1794210"><time>2021-09-11T17:19:04.557</time></trkpt><trkpt lat="55.8196150" lon="49.1794590"><time>2021-09-11T17:19:05.557</time></trkpt><trkpt lat="55.8196030" lon="49.1794960"><time>2021-09-11T17:19:06.557</time></trkpt><trkpt lat="55.8195860" lon="49.1795530"><time>2021-09-11T17:19:08.557</time></trkpt><trkpt lat="55.8195800" lon="49.1795720"><time>2021-09-11T17:19:08.557</time></trkpt><trkpt lat="55.8195690" lon="49.1796120"><time>2021-09-11T17:19:09.557</time></trkpt><trkpt lat="55.8195570" lon="49.1796540"><time>2021-09-11T17:19:10.557</time></trkpt><trkpt lat="55.8195440" lon="49.1796970"><time>2021-09-11T17:19:11.557</time></trkpt><trkpt lat="55.8195330" lon="49.1797400"><time>2021-09-11T17:19:12.557</time></trkpt><trkpt lat="55.8195240" lon="49.1797850"><time>2021-09-11T17:19:13.557</time></trkpt><trkpt lat="55.8195180" lon="49.1798300"><time>2021-09-11T17:19:14.557</time></trkpt><trkpt lat="55.8195140" lon="49.1798770"><time>2021-09-11T17:19:15.557</time></trkpt><trkpt lat="55.8195080" lon="49.1799490"><time>2021-09-11T17:19:17.557</time></trkpt><trkpt lat="55.8195060" lon="49.1799730"><time>2021-09-11T17:19:17.557</time></trkpt><trkpt lat="55.8195040" lon="49.1800170"><time>2021-09-11T17:19:18.557</time></trkpt><trkpt lat="55.8195010" lon="49.1800630"><time>2021-09-11T17:19:19.557</time></trkpt><trkpt lat="55.8194970" lon="49.1801070"><time>2021-09-11T17:19:20.557</time></trkpt><trkpt lat="55.8194930" lon="49.1801500"><time>2021-09-11T17:19:21.557</time></trkpt><trkpt lat="55.8194920" lon="49.1802140"><time>2021-09-11T17:19:23.557</time></trkpt><trkpt lat="55.8194930" lon="49.1802350"><time>2021-09-11T17:19:23.557</time></trkpt><trkpt lat="55.8194990" lon="49.1802750"><time>2021-09-11T17:19:24.557</time></trkpt><trkpt lat="55.8195100" lon="49.1803110"><time>2021-09-11T17:19:25.557</time></trkpt><trkpt lat="55.8195350" lon="49.1803510"><time>2021-09-11T17:19:27.557</time></trkpt><trkpt lat="55.8195440" lon="49.1803620"><time>2021-09-11T17:19:27.557</time></trkpt><trkpt lat="55.8195660" lon="49.1803810"><time>2021-09-11T17:19:28.557</time></trkpt><trkpt lat="55.8195900" lon="49.1803970"><time>2021-09-11T17:19:29.557</time></trkpt><trkpt lat="55.8196160" lon="49.1804100"><time>2021-09-11T17:19:30.557</time></trkpt><trkpt lat="55.8196410" lon="49.1804240"><time>2021-09-11T17:19:31.557</time></trkpt><trkpt lat="55.8196770" lon="49.1804430"><time>2021-09-11T17:19:33.557</time></trkpt><trkpt lat="55.8196890" lon="49.1804500"><time>2021-09-11T17:19:33.557</time></trkpt><trkpt lat="55.8197140" lon="49.1804640"><time>2021-09-11T17:19:34.557</time></trkpt><trkpt lat="55.8197390" lon="49.1804790"><time>2021-09-11T17:19:35.557</time></trkpt><trkpt lat="55.8197650" lon="49.1804930"><time>2021-09-11T17:19:36.557</time></trkpt><trkpt lat="55.8197890" lon="49.1805090"><time>2021-09-11T17:19:37.557</time></trkpt><trkpt lat="55.8198140" lon="49.1805240"><time>2021-09-11T17:19:38.557</time></trkpt><trkpt lat="55.8198380" lon="49.1805370"><time>2021-09-11T17:19:39.557</time></trkpt><trkpt lat="55.8198630" lon="49.1805520"><time>2021-09-11T17:19:40.557</time></trkpt><trkpt lat="55.8198850" lon="49.1805670"><time>2021-09-11T17:19:41.557</time></trkpt><trkpt lat="55.8199070" lon="49.1805820"><time>2021-09-11T17:19:42.557</time></trkpt><trkpt lat="55.8199290" lon="49.1805960"><time>2021-09-11T17:19:43.557</time></trkpt><trkpt lat="55.8199530" lon="49.1806080"><time>2021-09-11T17:19:44.557</time></trkpt><trkpt lat="55.8199770" lon="49.1806210"><time>2021-09-11T17:19:45.557</time></trkpt><trkpt lat="55.8200040" lon="49.1806340"><time>2021-09-11T17:19:46.557</time></trkpt><trkpt lat="55.8200310" lon="49.1806470"><time>2021-09-11T17:19:47.557</time></trkpt><trkpt lat="55.8200550" lon="49.1806630"><time>2021-09-11T17:19:48.557</time></trkpt><trkpt lat="55.8200780" lon="49.1806810"><time>2021-09-11T17:19:49.557</time></trkpt><trkpt lat="55.8200980" lon="49.1807030"><time>2021-09-11T17:19:50.557</time></trkpt><trkpt lat="55.8201170" lon="49.1807290"><time>2021-09-11T17:19:51.557</time></trkpt><trkpt lat="55.8201360" lon="49.1807570"><time>2021-09-11T17:19:52.557</time></trkpt><trkpt lat="55.8201560" lon="49.1807850"><time>2021-09-11T17:19:53.557</time></trkpt><trkpt lat="55.8201770" lon="49.1808120"><time>2021-09-11T17:19:54.557</time></trkpt><trkpt lat="55.8202130" lon="49.1808480"><time>2021-09-11T17:19:56.557</time></trkpt><trkpt lat="55.8202240" lon="49.1808610"><time>2021-09-11T17:19:56.557</time></trkpt><trkpt lat="55.8202450" lon="49.1808880"><time>2021-09-11T17:19:57.557</time></trkpt><trkpt lat="55.8202630" lon="49.1809150"><time>2021-09-11T17:19:58.557</time></trkpt><trkpt lat="55.8202800" lon="49.1809410"><time>2021-09-11T17:19:59.557</time></trkpt><trkpt lat="55.8202970" lon="49.1809670"><time>2021-09-11T17:20:00.557</time></trkpt><trkpt lat="55.8203290" lon="49.1809970"><time>2021-09-11T17:20:02.557</time></trkpt><trkpt lat="55.8203410" lon="49.1810070"><time>2021-09-11T17:20:02.557</time></trkpt><trkpt lat="55.8203660" lon="49.1810240"><time>2021-09-11T17:20:03.557</time></trkpt><trkpt lat="55.8203890" lon="49.1810430"><time>2021-09-11T17:20:04.557</time></trkpt><trkpt lat="55.8204120" lon="49.1810630"><time>2021-09-11T17:20:05.557</time></trkpt><trkpt lat="55.8204360" lon="49.1810820"><time>2021-09-11T17:20:06.557</time></trkpt><trkpt lat="55.8204700" lon="49.1811100"><time>2021-09-11T17:20:08.557</time></trkpt><trkpt lat="55.8204810" lon="49.1811200"><time>2021-09-11T17:20:08.557</time></trkpt><trkpt lat="55.8205030" lon="49.1811390"><time>2021-09-11T17:20:09.557</time></trkpt><trkpt lat="55.8205240" lon="49.1811590"><time>2021-09-11T17:20:10.557</time></trkpt><trkpt lat="55.8205420" lon="49.1811830"><time>2021-09-11T17:20:11.557</time></trkpt><trkpt lat="55.8205760" lon="49.1812120"><time>2021-09-11T17:20:13.557</time></trkpt><trkpt lat="55.8205880" lon="49.1812200"><time>2021-09-11T17:20:13.557</time></trkpt><trkpt lat="55.8206140" lon="49.1812350"><time>2021-09-11T17:20:14.557</time></trkpt><trkpt lat="55.8206420" lon="49.1812490"><time>2021-09-11T17:20:15.557</time></trkpt><trkpt lat="55.8206680" lon="49.1812640"><time>2021-09-11T17:20:16.557</time></trkpt><trkpt lat="55.8206930" lon="49.1812790"><time>2021-09-11T17:20:17.557</time></trkpt><trkpt lat="55.8207190" lon="49.1812970"><time>2021-09-11T17:20:18.557</time></trkpt><trkpt lat="55.8207450" lon="49.1813140"><time>2021-09-11T17:20:19.557</time></trkpt><trkpt lat="55.8207710" lon="49.1813280"><time>2021-09-11T17:20:20.557</time></trkpt><trkpt lat="55.8207970" lon="49.1813410"><time>2021-09-11T17:20:21.557</time></trkpt><trkpt lat="55.8208350" lon="49.1813620"><time>2021-09-11T17:20:23.557</time></trkpt><trkpt lat="55.8208470" lon="49.1813700"><time>2021-09-11T17:20:23.557</time></trkpt><trkpt lat="55.8208740" lon="49.1813870"><time>2021-09-11T17:20:24.557</time></trkpt><trkpt lat="55.8209000" lon="49.1814060"><time>2021-09-11T17:20:25.557</time></trkpt><trkpt lat="55.8209370" lon="49.1814320"><time>2021-09-11T17:20:27.557</time></trkpt><trkpt lat="55.8209490" lon="49.1814410"><time>2021-09-11T17:20:27.557</time></trkpt><trkpt lat="55.8209740" lon="49.1814590"><time>2021-09-11T17:20:28.557</time></trkpt><trkpt lat="55.8209970" lon="49.1814760"><time>2021-09-11T17:20:29.557</time></trkpt><trkpt lat="55.8210210" lon="49.1814920"><time>2021-09-11T17:20:30.557</time></trkpt><trkpt lat="55.8210450" lon="49.1815080"><time>2021-09-11T17:20:31.557</time></trkpt><trkpt lat="55.8210790" lon="49.1815350"><time>2021-09-11T17:20:33.557</time></trkpt><trkpt lat="55.8210900" lon="49.1815440"><time>2021-09-11T17:20:33.557</time></trkpt><trkpt lat="55.8211130" lon="49.1815610"><time>2021-09-11T17:20:34.557</time></trkpt><trkpt lat="55.8211340" lon="49.1815770"><time>2021-09-11T17:20:35.557</time></trkpt><trkpt lat="55.8211560" lon="49.1815930"><time>2021-09-11T17:20:36.557</time></trkpt><trkpt lat="55.8211760" lon="49.1816110"><time>2021-09-11T17:20:37.557</time></trkpt><trkpt lat="55.8211980" lon="49.1816280"><time>2021-09-11T17:20:38.557</time></trkpt><trkpt lat="55.8212200" lon="49.1816450"><time>2021-09-11T17:20:39.557</time></trkpt><trkpt lat="55.8212440" lon="49.1816620"><time>2021-09-11T17:20:40.557</time></trkpt><trkpt lat="55.8212690" lon="49.1816770"><time>2021-09-11T17:20:41.557</time></trkpt><trkpt lat="55.8212940" lon="49.1816940"><time>2021-09-11T17:20:42.557</time></trkpt><trkpt lat="55.8213180" lon="49.1817110"><time>2021-09-11T17:20:43.557</time></trkpt><trkpt lat="55.8213430" lon="49.1817260"><time>2021-09-11T17:20:44.557</time></trkpt><trkpt lat="55.8213690" lon="49.1817400"><time>2021-09-11T17:20:45.557</time></trkpt><trkpt lat="55.8213950" lon="49.1817560"><time>2021-09-11T17:20:46.557</time></trkpt><trkpt lat="55.8214210" lon="49.1817720"><time>2021-09-11T17:20:47.557</time></trkpt><trkpt lat="55.8214450" lon="49.1817890"><time>2021-09-11T17:20:48.557</time></trkpt><trkpt lat="55.8214820" lon="49.1818170"><time>2021-09-11T17:20:50.557</time></trkpt><trkpt lat="55.8214940" lon="49.1818270"><time>2021-09-11T17:20:50.557</time></trkpt><trkpt lat="55.8215180" lon="49.1818460"><time>2021-09-11T17:20:51.557</time></trkpt><trkpt lat="55.8215430" lon="49.1818640"><time>2021-09-11T17:20:52.557</time></trkpt><trkpt lat="55.8215680" lon="49.1818790"><time>2021-09-11T17:20:53.557</time></trkpt><trkpt lat="55.8215920" lon="49.1818940"><time>2021-09-11T17:20:54.557</time></trkpt><trkpt lat="55.8216270" lon="49.1819150"><time>2021-09-11T17:20:56.557</time></trkpt><trkpt lat="55.8216390" lon="49.1819220"><time>2021-09-11T17:20:56.557</time></trkpt><trkpt lat="55.8216620" lon="49.1819360"><time>2021-09-11T17:20:57.557</time></trkpt><trkpt lat="55.8216860" lon="49.1819500"><time>2021-09-11T17:20:58.557</time></trkpt><trkpt lat="55.8217100" lon="49.1819630"><time>2021-09-11T17:20:59.557</time></trkpt><trkpt lat="55.8217340" lon="49.1819760"><time>2021-09-11T17:21:00.557</time></trkpt><trkpt lat="55.8217710" lon="49.1819940"><time>2021-09-11T17:21:02.557</time></trkpt><trkpt lat="55.8217820" lon="49.1820010"><time>2021-09-11T17:21:02.557</time></trkpt><trkpt lat="55.8218050" lon="49.1820140"><time>2021-09-11T17:21:03.557</time></trkpt><trkpt lat="55.8218280" lon="49.1820280"><time>2021-09-11T17:21:04.557</time></trkpt><trkpt lat="55.8218510" lon="49.1820430"><time>2021-09-11T17:21:05.557</time></trkpt><trkpt lat="55.8218750" lon="49.1820560"><time>2021-09-11T17:21:06.557</time></trkpt><trkpt lat="55.8218980" lon="49.1820690"><time>2021-09-11T17:21:07.557</time></trkpt><trkpt lat="55.8219210" lon="49.1820820"><time>2021-09-11T17:21:08.557</time></trkpt><trkpt lat="55.8219430" lon="49.1820950"><time>2021-09-11T17:21:09.557</time></trkpt><trkpt lat="55.8219650" lon="49.1821070"><time>2021-09-11T17:21:10.557</time></trkpt><trkpt lat="55.8219860" lon="49.1821210"><time>2021-09-11T17:21:11.557</time></trkpt><trkpt lat="55.8220170" lon="49.1821420"><time>2021-09-11T17:21:13.557</time></trkpt><trkpt lat="55.8220270" lon="49.1821500"><time>2021-09-11T17:21:13.557</time></trkpt><trkpt lat="55.8220490" lon="49.1821650"><time>2021-09-11T17:21:14.557</time></trkpt><trkpt lat="55.8220710" lon="49.1821800"><time>2021-09-11T17:21:15.557</time></trkpt><trkpt lat="55.8220920" lon="49.1821950"><time>2021-09-11T17:21:16.557</time></trkpt><trkpt lat="55.8221130" lon="49.1822090"><time>2021-09-11T17:21:17.557</time></trkpt><trkpt lat="55.8221350" lon="49.1822220"><time>2021-09-11T17:21:18.557</time></trkpt><trkpt lat="55.8221560" lon="49.1822350"><time>2021-09-11T17:21:19.557</time></trkpt><trkpt lat="55.8221770" lon="49.1822470"><time>2021-09-11T17:21:20.557</time></trkpt><trkpt lat="55.8222000" lon="49.1822590"><time>2021-09-11T17:21:21.557</time></trkpt><trkpt lat="55.8222220" lon="49.1822670"><time>2021-09-11T17:21:22.557</time></trkpt><trkpt lat="55.8222460" lon="49.1822710"><time>2021-09-11T17:21:23.557</time></trkpt><trkpt lat="55.8222700" lon="49.1822770"><time>2021-09-11T17:21:24.557</time></trkpt><trkpt lat="55.8222940" lon="49.1822880"><time>2021-09-11T17:21:25.557</time></trkpt><trkpt lat="55.8223180" lon="49.1823050"><time>2021-09-11T17:21:26.557</time></trkpt><trkpt lat="55.8223400" lon="49.1823240"><time>2021-09-11T17:21:27.557</time></trkpt><trkpt lat="55.8223610" lon="49.1823450"><time>2021-09-11T17:21:28.557</time></trkpt><trkpt lat="55.8223830" lon="49.1823640"><time>2021-09-11T17:21:29.557</time></trkpt><trkpt lat="55.8224040" lon="49.1823820"><time>2021-09-11T17:21:30.557</time></trkpt><trkpt lat="55.8224260" lon="49.1823970"><time>2021-09-11T17:21:31.557</time></trkpt><trkpt lat="55.8224490" lon="49.1824120"><time>2021-09-11T17:21:32.557</time></trkpt><trkpt lat="55.8224700" lon="49.1824270"><time>2021-09-11T17:21:33.557</time></trkpt><trkpt lat="55.8224910" lon="49.1824430"><time>2021-09-11T17:21:34.557</time></trkpt><trkpt lat="55.8225120" lon="49.1824600"><time>2021-09-11T17:21:35.557</time></trkpt><trkpt lat="55.8225340" lon="49.1824770"><time>2021-09-11T17:21:36.557</time></trkpt><trkpt lat="55.8225560" lon="49.1824930"><time>2021-09-11T17:21:37.557</time></trkpt><trkpt lat="55.8225780" lon="49.1825080"><time>2021-09-11T17:21:38.557</time></trkpt><trkpt lat="55.8226000" lon="49.1825230"><time>2021-09-11T17:21:39.557</time></trkpt><trkpt lat="55.8226220" lon="49.1825390"><time>2021-09-11T17:21:40.557</time></trkpt><trkpt lat="55.8226440" lon="49.1825540"><time>2021-09-11T17:21:41.557</time></trkpt><trkpt lat="55.8226670" lon="49.1825680"><time>2021-09-11T17:21:42.557</time></trkpt><trkpt lat="55.8226900" lon="49.1825830"><time>2021-09-11T17:21:43.557</time></trkpt><trkpt lat="55.8227120" lon="49.1825980"><time>2021-09-11T17:21:44.557</time></trkpt><trkpt lat="55.8227320" lon="49.1826140"><time>2021-09-11T17:21:45.557</time></trkpt><trkpt lat="55.8227520" lon="49.1826300"><time>2021-09-11T17:21:46.557</time></trkpt><trkpt lat="55.8227710" lon="49.1826470"><time>2021-09-11T17:21:47.557</time></trkpt><trkpt lat="55.8227900" lon="49.1826650"><time>2021-09-11T17:21:48.557</time></trkpt><trkpt lat="55.8228160" lon="49.1826990"><time>2021-09-11T17:21:50.557</time></trkpt><trkpt lat="55.8228240" lon="49.1827120"><time>2021-09-11T17:21:50.557</time></trkpt><trkpt lat="55.8228390" lon="49.1827400"><time>2021-09-11T17:21:51.557</time></trkpt><trkpt lat="55.8228530" lon="49.1827690"><time>2021-09-11T17:21:52.557</time></trkpt><trkpt lat="55.8228680" lon="49.1828010"><time>2021-09-11T17:21:53.557</time></trkpt><trkpt lat="55.8228790" lon="49.1828350"><time>2021-09-11T17:21:54.557</time></trkpt><trkpt lat="55.8228930" lon="49.1828870"><time>2021-09-11T17:21:56.557</time></trkpt><trkpt lat="55.8228970" lon="49.1829040"><time>2021-09-11T17:21:56.557</time></trkpt><trkpt lat="55.8229100" lon="49.1829330"><time>2021-09-11T17:21:57.557</time></trkpt><trkpt lat="55.8229280" lon="49.1829560"><time>2021-09-11T17:21:58.557</time></trkpt><trkpt lat="55.8229470" lon="49.1829770"><time>2021-09-11T17:21:59.557</time></trkpt><trkpt lat="55.8229680" lon="49.1829980"><time>2021-09-11T17:22:00.557</time></trkpt><trkpt lat="55.8230010" lon="49.1830260"><time>2021-09-11T17:22:02.557</time></trkpt><trkpt lat="55.8230120" lon="49.1830350"><time>2021-09-11T17:22:02.557</time></trkpt><trkpt lat="55.8230330" lon="49.1830530"><time>2021-09-11T17:22:03.557</time></trkpt><trkpt lat="55.8230550" lon="49.1830710"><time>2021-09-11T17:22:04.557</time></trkpt><trkpt lat="55.8230760" lon="49.1830870"><time>2021-09-11T17:22:05.557</time></trkpt><trkpt lat="55.8230990" lon="49.1831030"><time>2021-09-11T17:22:06.557</time></trkpt><trkpt lat="55.8231220" lon="49.1831190"><time>2021-09-11T17:22:07.557</time></trkpt><trkpt lat="55.8231440" lon="49.1831350"><time>2021-09-11T17:22:08.557</time></trkpt><trkpt lat="55.8231670" lon="49.1831510"><time>2021-09-11T17:22:09.557</time></trkpt><trkpt lat="55.8231890" lon="49.1831660"><time>2021-09-11T17:22:10.557</time></trkpt><trkpt lat="55.8232130" lon="49.1831810"><time>2021-09-11T17:22:11.557</time></trkpt><trkpt lat="55.8232360" lon="49.1831960"><time>2021-09-11T17:22:12.557</time></trkpt><trkpt lat="55.8232590" lon="49.1832100"><time>2021-09-11T17:22:13.557</time></trkpt><trkpt lat="55.8232820" lon="49.1832260"><time>2021-09-11T17:22:14.557</time></trkpt><trkpt lat="55.8233060" lon="49.1832400"><time>2021-09-11T17:22:15.557</time></trkpt><trkpt lat="55.8233290" lon="49.1832530"><time>2021-09-11T17:22:16.557</time></trkpt><trkpt lat="55.8233520" lon="49.1832660"><time>2021-09-11T17:22:17.557</time></trkpt><trkpt lat="55.8233760" lon="49.1832790"><time>2021-09-11T17:22:18.557</time></trkpt><trkpt lat="55.8234000" lon="49.1832920"><time>2021-09-11T17:22:19.557</time></trkpt><trkpt lat="55.8234230" lon="49.1833050"><time>2021-09-11T17:22:20.557</time></trkpt><trkpt lat="55.8234460" lon="49.1833200"><time>2021-09-11T17:22:21.557</time></trkpt><trkpt lat="55.8234690" lon="49.1833330"><time>2021-09-11T17:22:22.557</time></trkpt><trkpt lat="55.8234930" lon="49.1833460"><time>2021-09-11T17:22:23.557</time></trkpt><trkpt lat="55.8235150" lon="49.1833610"><time>2021-09-11T17:22:24.557</time></trkpt><trkpt lat="55.8235370" lon="49.1833740"><time>2021-09-11T17:22:24.557</time></trkpt><trkpt lat="55.8235610" lon="49.1833870"><time>2021-09-11T17:22:25.557</time></trkpt><trkpt lat="55.8235850" lon="49.1834000"><time>2021-09-11T17:22:26.557</time></trkpt><trkpt lat="55.8236090" lon="49.1834140"><time>2021-09-11T17:22:27.557</time></trkpt><trkpt lat="55.8236330" lon="49.1834290"><time>2021-09-11T17:22:28.557</time></trkpt><trkpt lat="55.8236560" lon="49.1834450"><time>2021-09-11T17:22:29.557</time></trkpt><trkpt lat="55.8236800" lon="49.1834640"><time>2021-09-11T17:22:30.557</time></trkpt><trkpt lat="55.8237140" lon="49.1834910"><time>2021-09-11T17:22:32.557</time></trkpt><trkpt lat="55.8237250" lon="49.1835010"><time>2021-09-11T17:22:32.557</time></trkpt><trkpt lat="55.8237470" lon="49.1835210"><time>2021-09-11T17:22:33.557</time></trkpt><trkpt lat="55.8237690" lon="49.1835410"><time>2021-09-11T17:22:34.557</time></trkpt><trkpt lat="55.8237900" lon="49.1835590"><time>2021-09-11T17:22:35.557</time></trkpt><trkpt lat="55.8238110" lon="49.1835780"><time>2021-09-11T17:22:36.557</time></trkpt><trkpt lat="55.8238430" lon="49.1836040"><time>2021-09-11T17:22:38.557</time></trkpt><trkpt lat="55.8238540" lon="49.1836130"><time>2021-09-11T17:22:38.557</time></trkpt><trkpt lat="55.8238760" lon="49.1836300"><time>2021-09-11T17:22:39.557</time></trkpt><trkpt lat="55.8238950" lon="49.1836460"><time>2021-09-11T17:22:40.557</time></trkpt><trkpt lat="55.8239160" lon="49.1836600"><time>2021-09-11T17:22:41.557</time></trkpt><trkpt lat="55.8239340" lon="49.1836700"><time>2021-09-11T17:22:42.557</time></trkpt><trkpt lat="55.8239470" lon="49.1836780"><time>2021-09-11T17:22:43.557</time></trkpt><trkpt lat="55.8239590" lon="49.1836850"><time>2021-09-11T17:22:44.557</time></trkpt><trkpt lat="55.8239720" lon="49.1836940"><time>2021-09-11T17:22:45.557</time></trkpt><trkpt lat="55.8239880" lon="49.1837040"><time>2021-09-11T17:22:46.557</time></trkpt><trkpt lat="55.8240050" lon="49.1837170"><time>2021-09-11T17:22:47.557</time></trkpt><trkpt lat="55.8240220" lon="49.1837310"><time>2021-09-11T17:22:48.557</time></trkpt><trkpt lat="55.8240410" lon="49.1837460"><time>2021-09-11T17:22:49.557</time></trkpt><trkpt lat="55.8240610" lon="49.1837600"><time>2021-09-11T17:22:50.557</time></trkpt><trkpt lat="55.8240810" lon="49.1837750"><time>2021-09-11T17:22:51.557</time></trkpt><trkpt lat="55.8241020" lon="49.1837890"><time>2021-09-11T17:22:52.557</time></trkpt><trkpt lat="55.8241230" lon="49.1838040"><time>2021-09-11T17:22:53.557</time></trkpt><trkpt lat="55.8241450" lon="49.1838180"><time>2021-09-11T17:22:54.557</time></trkpt><trkpt lat="55.8241680" lon="49.1838320"><time>2021-09-11T17:22:55.557</time></trkpt><trkpt lat="55.8241900" lon="49.1838470"><time>2021-09-11T17:22:56.557</time></trkpt><trkpt lat="55.8242120" lon="49.1838620"><time>2021-09-11T17:22:57.557</time></trkpt><trkpt lat="55.8242340" lon="49.1838770"><time>2021-09-11T17:22:58.557</time></trkpt><trkpt lat="55.8242570" lon="49.1838930"><time>2021-09-11T17:22:59.557</time></trkpt><trkpt lat="55.8242790" lon="49.1839090"><time>2021-09-11T17:23:00.557</time></trkpt><trkpt lat="55.8243010" lon="49.1839240"><time>2021-09-11T17:23:01.557</time></trkpt><trkpt lat="55.8243240" lon="49.1839380"><time>2021-09-11T17:23:02.557</time></trkpt><trkpt lat="55.8243470" lon="49.1839500"><time>2021-09-11T17:23:03.557</time></trkpt><trkpt lat="55.8243700" lon="49.1839620"><time>2021-09-11T17:23:04.557</time></trkpt><trkpt lat="55.8243950" lon="49.1839740"><time>2021-09-11T17:23:05.557</time></trkpt><trkpt lat="55.8244190" lon="49.1839870"><time>2021-09-11T17:23:06.557</time></trkpt><trkpt lat="55.8244430" lon="49.1840010"><time>2021-09-11T17:23:07.557</time></trkpt><trkpt lat="55.8244670" lon="49.1840160"><time>2021-09-11T17:23:08.557</time></trkpt><trkpt lat="55.8244900" lon="49.1840300"><time>2021-09-11T17:23:09.557</time></trkpt><trkpt lat="55.8245120" lon="49.1840440"><time>2021-09-11T17:23:10.557</time></trkpt><trkpt lat="55.8245340" lon="49.1840580"><time>2021-09-11T17:23:11.557</time></trkpt><trkpt lat="55.8245550" lon="49.1840730"><time>2021-09-11T17:23:12.557</time></trkpt><trkpt lat="55.8245780" lon="49.1840870"><time>2021-09-11T17:23:13.557</time></trkpt><trkpt lat="55.8246000" lon="49.1841020"><time>2021-09-11T17:23:14.557</time></trkpt><trkpt lat="55.8246230" lon="49.1841160"><time>2021-09-11T17:23:15.557</time></trkpt><trkpt lat="55.8246450" lon="49.1841300"><time>2021-09-11T17:23:16.557</time></trkpt><trkpt lat="55.8246680" lon="49.1841430"><time>2021-09-11T17:23:17.557</time></trkpt><trkpt lat="55.8246920" lon="49.1841560"><time>2021-09-11T17:23:18.557</time></trkpt><trkpt lat="55.8247170" lon="49.1841680"><time>2021-09-11T17:23:19.557</time></trkpt><trkpt lat="55.8247390" lon="49.1841810"><time>2021-09-11T17:23:20.557</time></trkpt><trkpt lat="55.8247750" lon="49.1842020"><time>2021-09-11T17:23:22.557</time></trkpt><trkpt lat="55.8247870" lon="49.1842100"><time>2021-09-11T17:23:22.557</time></trkpt><trkpt lat="55.8248120" lon="49.1842240"><time>2021-09-11T17:23:23.557</time></trkpt><trkpt lat="55.8248380" lon="49.1842380"><time>2021-09-11T17:23:24.557</time></trkpt><trkpt lat="55.8248750" lon="49.1842580"><time>2021-09-11T17:23:26.557</time></trkpt><trkpt lat="55.8248870" lon="49.1842650"><time>2021-09-11T17:23:26.557</time></trkpt><trkpt lat="55.8249100" lon="49.1842780"><time>2021-09-11T17:23:27.557</time></trkpt><trkpt lat="55.8249330" lon="49.1842910"><time>2021-09-11T17:23:28.557</time></trkpt><trkpt lat="55.8249560" lon="49.1843030"><time>2021-09-11T17:23:29.557</time></trkpt><trkpt lat="55.8249800" lon="49.1843150"><time>2021-09-11T17:23:30.557</time></trkpt><trkpt lat="55.8250140" lon="49.1843340"><time>2021-09-11T17:23:32.557</time></trkpt><trkpt lat="55.8250250" lon="49.1843400"><time>2021-09-11T17:23:32.557</time></trkpt><trkpt lat="55.8250480" lon="49.1843520"><time>2021-09-11T17:23:33.557</time></trkpt><trkpt lat="55.8250710" lon="49.1843640"><time>2021-09-11T17:23:34.557</time></trkpt><trkpt lat="55.8250930" lon="49.1843770"><time>2021-09-11T17:23:35.557</time></trkpt><trkpt lat="55.8251160" lon="49.1843900"><time>2021-09-11T17:23:36.557</time></trkpt><trkpt lat="55.8251390" lon="49.1844030"><time>2021-09-11T17:23:37.557</time></trkpt><trkpt lat="55.8251610" lon="49.1844180"><time>2021-09-11T17:23:38.557</time></trkpt><trkpt lat="55.8251830" lon="49.1844320"><time>2021-09-11T17:23:39.557</time></trkpt><trkpt lat="55.8252040" lon="49.1844480"><time>2021-09-11T17:23:40.557</time></trkpt><trkpt lat="55.8252240" lon="49.1844640"><time>2021-09-11T17:23:41.557</time></trkpt><trkpt lat="55.8252450" lon="49.1844790"><time>2021-09-11T17:23:42.557</time></trkpt><trkpt lat="55.8252650" lon="49.1844920"><time>2021-09-11T17:23:43.557</time></trkpt><trkpt lat="55.8252870" lon="49.1845050"><time>2021-09-11T17:23:44.557</time></trkpt><trkpt lat="55.8253080" lon="49.1845160"><time>2021-09-11T17:23:45.557</time></trkpt><trkpt lat="55.8253290" lon="49.1845280"><time>2021-09-11T17:23:46.557</time></trkpt><trkpt lat="55.8253510" lon="49.1845400"><time>2021-09-11T17:23:47.557</time></trkpt><trkpt lat="55.8253710" lon="49.1845530"><time>2021-09-11T17:23:48.557</time></trkpt><trkpt lat="55.8253920" lon="49.1845680"><time>2021-09-11T17:23:49.557</time></trkpt><trkpt lat="55.8254140" lon="49.1845830"><time>2021-09-11T17:23:50.557</time></trkpt><trkpt lat="55.8254350" lon="49.1845980"><time>2021-09-11T17:23:51.557</time></trkpt><trkpt lat="55.8254560" lon="49.1846140"><time>2021-09-11T17:23:52.557</time></trkpt><trkpt lat="55.8254770" lon="49.1846290"><time>2021-09-11T17:23:53.557</time></trkpt><trkpt lat="55.8255090" lon="49.1846510"><time>2021-09-11T17:23:55.557</time></trkpt><trkpt lat="55.8255190" lon="49.1846580"><time>2021-09-11T17:23:55.557</time></trkpt><trkpt lat="55.8255400" lon="49.1846730"><time>2021-09-11T17:23:56.557</time></trkpt><trkpt lat="55.8255620" lon="49.1846880"><time>2021-09-11T17:23:57.557</time></trkpt><trkpt lat="55.8255830" lon="49.1847030"><time>2021-09-11T17:23:58.557</time></trkpt><trkpt lat="55.8256050" lon="49.1847170"><time>2021-09-11T17:23:59.557</time></trkpt><trkpt lat="55.8256380" lon="49.1847380"><time>2021-09-11T17:24:01.557</time></trkpt><trkpt lat="55.8256490" lon="49.1847450"><time>2021-09-11T17:24:01.557</time></trkpt><trkpt lat="55.8256710" lon="49.1847600"><time>2021-09-11T17:24:02.557</time></trkpt><trkpt lat="55.8256930" lon="49.1847750"><time>2021-09-11T17:24:03.557</time></trkpt><trkpt lat="55.8257140" lon="49.1847900"><time>2021-09-11T17:24:04.557</time></trkpt><trkpt lat="55.8257360" lon="49.1848040"><time>2021-09-11T17:24:05.557</time></trkpt><trkpt lat="55.8257590" lon="49.1848170"><time>2021-09-11T17:24:06.557</time></trkpt><trkpt lat="55.8257810" lon="49.1848330"><time>2021-09-11T17:24:07.557</time></trkpt><trkpt lat="55.8258020" lon="49.1848500"><time>2021-09-11T17:24:08.557</time></trkpt><trkpt lat="55.8258240" lon="49.1848660"><time>2021-09-11T17:24:09.557</time></trkpt><trkpt lat="55.8258460" lon="49.1848820"><time>2021-09-11T17:24:10.557</time></trkpt><trkpt lat="55.8258660" lon="49.1848960"><time>2021-09-11T17:24:11.557</time></trkpt><trkpt lat="55.8258870" lon="49.1849110"><time>2021-09-11T17:24:12.557</time></trkpt><trkpt lat="55.8259090" lon="49.1849270"><time>2021-09-11T17:24:13.557</time></trkpt><trkpt lat="55.8259310" lon="49.1849420"><time>2021-09-11T17:24:14.557</time></trkpt><trkpt lat="55.8259650" lon="49.1849640"><time>2021-09-11T17:24:16.557</time></trkpt><trkpt lat="55.8259750" lon="49.1849720"><time>2021-09-11T17:24:16.557</time></trkpt><trkpt lat="55.8259950" lon="49.1849880"><time>2021-09-11T17:24:17.557</time></trkpt><trkpt lat="55.8260160" lon="49.1850050"><time>2021-09-11T17:24:18.557</time></trkpt><trkpt lat="55.8260370" lon="49.1850220"><time>2021-09-11T17:24:19.557</time></trkpt><trkpt lat="55.8260600" lon="49.1850350"><time>2021-09-11T17:24:20.557</time></trkpt><trkpt lat="55.8260950" lon="49.1850560"><time>2021-09-11T17:24:22.557</time></trkpt><trkpt lat="55.8261070" lon="49.1850640"><time>2021-09-11T17:24:22.557</time></trkpt><trkpt lat="55.8261310" lon="49.1850790"><time>2021-09-11T17:24:23.557</time></trkpt><trkpt lat="55.8261550" lon="49.1850940"><time>2021-09-11T17:24:24.557</time></trkpt><trkpt lat="55.8261880" lon="49.1851160"><time>2021-09-11T17:24:26.557</time></trkpt><trkpt lat="55.8261980" lon="49.1851240"><time>2021-09-11T17:24:26.557</time></trkpt><trkpt lat="55.8262200" lon="49.1851400"><time>2021-09-11T17:24:27.557</time></trkpt><trkpt lat="55.8262410" lon="49.1851550"><time>2021-09-11T17:24:28.557</time></trkpt><trkpt lat="55.8262620" lon="49.1851700"><time>2021-09-11T17:24:29.557</time></trkpt><trkpt lat="55.8262840" lon="49.1851830"><time>2021-09-11T17:24:30.557</time></trkpt><trkpt lat="55.8263050" lon="49.1851940"><time>2021-09-11T17:24:31.557</time></trkpt><trkpt lat="55.8263280" lon="49.1852060"><time>2021-09-11T17:24:32.557</time></trkpt><trkpt lat="55.8263510" lon="49.1852170"><time>2021-09-11T17:24:33.557</time></trkpt><trkpt lat="55.8263750" lon="49.1852280"><time>2021-09-11T17:24:34.557</time></trkpt><trkpt lat="55.8263990" lon="49.1852400"><time>2021-09-11T17:24:35.557</time></trkpt><trkpt lat="55.8264220" lon="49.1852560"><time>2021-09-11T17:24:36.557</time></trkpt><trkpt lat="55.8264430" lon="49.1852700"><time>2021-09-11T17:24:37.557</time></trkpt><trkpt lat="55.8264650" lon="49.1852850"><time>2021-09-11T17:24:38.557</time></trkpt><trkpt lat="55.8264870" lon="49.1853000"><time>2021-09-11T17:24:39.557</time></trkpt><trkpt lat="55.8265060" lon="49.1853160"><time>2021-09-11T17:24:40.557</time></trkpt><trkpt lat="55.8265150" lon="49.1853470"><time>2021-09-11T17:24:41.557</time></trkpt><trkpt lat="55.8265110" lon="49.1853610"><time>2021-09-11T17:24:42.557</time></trkpt><trkpt lat="55.8265060" lon="49.1853740"><time>2021-09-11T17:24:43.557</time></trkpt><trkpt lat="55.8265020" lon="49.1853880"><time>2021-09-11T17:24:44.557</time></trkpt><trkpt lat="55.8264980" lon="49.1854010"><time>2021-09-11T17:24:45.557</time></trkpt><trkpt lat="55.8264940" lon="49.1854150"><time>2021-09-11T17:24:46.557</time></trkpt><trkpt lat="55.8264890" lon="49.1854280"><time>2021-09-11T17:24:47.557</time></trkpt><trkpt lat="55.8264850" lon="49.1854420"><time>2021-09-11T17:24:49.557</time></trkpt><trkpt lat="55.8264810" lon="49.1854550"><time>2021-09-11T17:24:49.557</time></trkpt><trkpt lat="55.8264630" lon="49.1854660"><time>2021-09-11T17:24:50.557</time></trkpt><trkpt lat="55.8264440" lon="49.1854720"><time>2021-09-11T17:24:51.557</time></trkpt><trkpt lat="55.8264230" lon="49.1854790"><time>2021-09-11T17:24:52.557</time></trkpt><trkpt lat="55.8264030" lon="49.1854870"><time>2021-09-11T17:24:53.557</time></trkpt><trkpt lat="55.8263750" lon="49.1855040"><time>2021-09-11T17:24:55.557</time></trkpt><trkpt lat="55.8263660" lon="49.1855100"><time>2021-09-11T17:24:55.557</time></trkpt><trkpt lat="55.8263470" lon="49.1855270"><time>2021-09-11T17:24:56.557</time></trkpt><trkpt lat="55.8263270" lon="49.1855450"><time>2021-09-11T17:24:57.557</time></trkpt><trkpt lat="55.8263080" lon="49.1855660"><time>2021-09-11T17:24:58.557</time></trkpt><trkpt lat="55.8262920" lon="49.1855900"><time>2021-09-11T17:24:59.557</time></trkpt><trkpt lat="55.8262770" lon="49.1856170"><time>2021-09-11T17:25:00.557</time></trkpt><trkpt lat="55.8262640" lon="49.1856480"><time>2021-09-11T17:25:01.557</time></trkpt><trkpt lat="55.8262530" lon="49.1856810"><time>2021-09-11T17:25:02.557</time></trkpt><trkpt lat="55.8262460" lon="49.1857160"><time>2021-09-11T17:25:03.557</time></trkpt><trkpt lat="55.8262400" lon="49.1857560"><time>2021-09-11T17:25:04.557</time></trkpt><trkpt lat="55.8262400" lon="49.1857950"><time>2021-09-11T17:25:05.557</time></trkpt><trkpt lat="55.8262460" lon="49.1858310"><time>2021-09-11T17:25:06.557</time></trkpt><trkpt lat="55.8262570" lon="49.1858640"><time>2021-09-11T17:25:07.557</time></trkpt><trkpt lat="55.8262710" lon="49.1858930"><time>2021-09-11T17:25:08.557</time></trkpt><trkpt lat="55.8262880" lon="49.1859180"><time>2021-09-11T17:25:09.557</time></trkpt><trkpt lat="55.8263070" lon="49.1859410"><time>2021-09-11T17:25:10.557</time></trkpt><trkpt lat="55.8263280" lon="49.1859640"><time>2021-09-11T17:25:11.557</time></trkpt><trkpt lat="55.8263510" lon="49.1859860"><time>2021-09-11T17:25:12.557</time></trkpt><trkpt lat="55.8263740" lon="49.1860080"><time>2021-09-11T17:25:13.557</time></trkpt><trkpt lat="55.8263960" lon="49.1860270"><time>2021-09-11T17:25:14.557</time></trkpt><trkpt lat="55.8264190" lon="49.1860450"><time>2021-09-11T17:25:15.557</time></trkpt><trkpt lat="55.8264420" lon="49.1860640"><time>2021-09-11T17:25:16.557</time></trkpt><trkpt lat="55.8264630" lon="49.1860830"><time>2021-09-11T17:25:17.557</time></trkpt><trkpt lat="55.8264850" lon="49.1861040"><time>2021-09-11T17:25:18.557</time></trkpt><trkpt lat="55.8265060" lon="49.1861240"><time>2021-09-11T17:25:19.557</time></trkpt><trkpt lat="55.8265280" lon="49.1861460"><time>2021-09-11T17:25:20.557</time></trkpt><trkpt lat="55.8265500" lon="49.1861660"><time>2021-09-11T17:25:21.557</time></trkpt><trkpt lat="55.8265710" lon="49.1861880"><time>2021-09-11T17:25:22.557</time></trkpt><trkpt lat="55.8265920" lon="49.1862120"><time>2021-09-11T17:25:23.557</time></trkpt><trkpt lat="55.8266130" lon="49.1862370"><time>2021-09-11T17:25:24.557</time></trkpt><trkpt lat="55.8266350" lon="49.1862630"><time>2021-09-11T17:25:25.557</time></trkpt><trkpt lat="55.8266570" lon="49.1862880"><time>2021-09-11T17:25:26.557</time></trkpt><trkpt lat="55.8266790" lon="49.1863120"><time>2021-09-11T17:25:27.557</time></trkpt><trkpt lat="55.8267000" lon="49.1863330"><time>2021-09-11T17:25:28.557</time></trkpt><trkpt lat="55.8267220" lon="49.1863560"><time>2021-09-11T17:25:29.557</time></trkpt><trkpt lat="55.8267430" lon="49.1863810"><time>2021-09-11T17:25:30.557</time></trkpt><trkpt lat="55.8267640" lon="49.1864060"><time>2021-09-11T17:25:31.557</time></trkpt><trkpt lat="55.8267830" lon="49.1864300"><time>2021-09-11T17:25:32.557</time></trkpt><trkpt lat="55.8268030" lon="49.1864570"><time>2021-09-11T17:25:33.557</time></trkpt><trkpt lat="55.8268210" lon="49.1864840"><time>2021-09-11T17:25:34.557</time></trkpt><trkpt lat="55.8268390" lon="49.1865100"><time>2021-09-11T17:25:35.557</time></trkpt><trkpt lat="55.8268660" lon="49.1865420"><time>2021-09-11T17:25:37.557</time></trkpt><trkpt lat="55.8268750" lon="49.1865510"><time>2021-09-11T17:25:37.557</time></trkpt><trkpt lat="55.8268910" lon="49.1865680"><time>2021-09-11T17:25:38.557</time></trkpt><trkpt lat="55.8269130" lon="49.1865870"><time>2021-09-11T17:25:39.557</time></trkpt><trkpt lat="55.8269200" lon="49.1865920"><time>2021-09-11T17:25:40.557</time></trkpt><trkpt lat="55.8269270" lon="49.1865970"><time>2021-09-11T17:25:41.557</time></trkpt><trkpt lat="55.8269340" lon="49.1866020"><time>2021-09-11T17:25:42.557</time></trkpt><trkpt lat="55.8269420" lon="49.1866060"><time>2021-09-11T17:25:43.557</time></trkpt><trkpt lat="55.8269490" lon="49.1866110"><time>2021-09-11T17:25:46.557</time></trkpt><trkpt lat="55.8269560" lon="49.1866160"><time>2021-09-11T17:25:47.557</time></trkpt><trkpt lat="55.8269630" lon="49.1866210"><time>2021-09-11T17:25:49.557</time></trkpt><trkpt lat="55.8269700" lon="49.1866260"><time>2021-09-11T17:25:49.557</time></trkpt><trkpt lat="55.8269690" lon="49.1866290"><time>2021-09-11T17:25:51.557</time></trkpt><trkpt lat="55.8269690" lon="49.1866300"><time>2021-09-11T17:25:51.557</time></trkpt><trkpt lat="55.8269680" lon="49.1866320"><time>2021-09-11T17:25:52.557</time></trkpt><trkpt lat="55.8269680" lon="49.1866310"><time>2021-09-11T17:25:53.557</time></trkpt><trkpt lat="55.8269670" lon="49.1866310"><time>2021-09-11T17:25:55.557</time></trkpt><trkpt lat="55.8269660" lon="49.1866310"><time>2021-09-11T17:25:55.557</time></trkpt><trkpt lat="55.8269750" lon="49.1866120"><time>2021-09-11T17:25:56.557</time></trkpt><trkpt lat="55.8269820" lon="49.1866030"><time>2021-09-11T17:25:57.557</time></trkpt><trkpt lat="55.8269900" lon="49.1865940"><time>2021-09-11T17:25:58.557</time></trkpt><trkpt lat="55.8269970" lon="49.1865850"><time>2021-09-11T17:25:59.557</time></trkpt><trkpt lat="55.8270050" lon="49.1865760"><time>2021-09-11T17:26:01.557</time></trkpt><trkpt lat="55.8270120" lon="49.1865670"><time>2021-09-11T17:26:01.557</time></trkpt><trkpt lat="55.8270270" lon="49.1865710"><time>2021-09-11T17:26:02.557</time></trkpt><trkpt lat="55.8270430" lon="49.1865820"><time>2021-09-11T17:26:03.557</time></trkpt><trkpt lat="55.8270590" lon="49.1865980"><time>2021-09-11T17:26:04.557</time></trkpt><trkpt lat="55.8270770" lon="49.1866150"><time>2021-09-11T17:26:05.557</time></trkpt><trkpt lat="55.8271070" lon="49.1866400"><time>2021-09-11T17:26:07.557</time></trkpt><trkpt lat="55.8271170" lon="49.1866500"><time>2021-09-11T17:26:07.557</time></trkpt><trkpt lat="55.8271360" lon="49.1866680"><time>2021-09-11T17:26:08.557</time></trkpt><trkpt lat="55.8271550" lon="49.1866840"><time>2021-09-11T17:26:09.557</time></trkpt><trkpt lat="55.8271720" lon="49.1866990"><time>2021-09-11T17:26:10.557</time></trkpt><trkpt lat="55.8272000" lon="49.1867120"><time>2021-09-11T17:26:12.557</time></trkpt><trkpt lat="55.8272090" lon="49.1867160"><time>2021-09-11T17:26:12.557</time></trkpt><trkpt lat="55.8272280" lon="49.1867240"><time>2021-09-11T17:26:13.557</time></trkpt><trkpt lat="55.8272460" lon="49.1867320"><time>2021-09-11T17:26:14.557</time></trkpt><trkpt lat="55.8272710" lon="49.1867360"><time>2021-09-11T17:26:15.557</time></trkpt><trkpt lat="55.8272800" lon="49.1867330"><time>2021-09-11T17:26:16.557</time></trkpt><trkpt lat="55.8272900" lon="49.1867310"><time>2021-09-11T17:26:18.557</time></trkpt><trkpt lat="55.8272990" lon="49.1867280"><time>2021-09-11T17:26:18.557</time></trkpt><trkpt lat="55.8273170" lon="49.1867020"><time>2021-09-11T17:26:19.557</time></trkpt><trkpt lat="55.8273260" lon="49.1866880"><time>2021-09-11T17:26:20.557</time></trkpt><trkpt lat="55.8273340" lon="49.1866750"><time>2021-09-11T17:26:21.557</time></trkpt><trkpt lat="55.8273420" lon="49.1866610"><time>2021-09-11T17:26:22.557</time></trkpt><trkpt lat="55.8273510" lon="49.1866480"><time>2021-09-11T17:26:23.557</time></trkpt><trkpt lat="55.8273590" lon="49.1866340"><time>2021-09-11T17:26:24.557</time></trkpt><trkpt lat="55.8273670" lon="49.1866210"><time>2021-09-11T17:26:25.557</time></trkpt><trkpt lat="55.8273760" lon="49.1866070"><time>2021-09-11T17:26:26.557</time></trkpt><trkpt lat="55.8273840" lon="49.1865940"><time>2021-09-11T17:26:27.557</time></trkpt><trkpt lat="55.8273920" lon="49.1865800"><time>2021-09-11T17:26:28.557</time></trkpt><trkpt lat="55.8274010" lon="49.1865670"><time>2021-09-11T17:26:29.557</time></trkpt><trkpt lat="55.8274090" lon="49.1865530"><time>2021-09-11T17:26:30.557</time></trkpt><trkpt lat="55.8274170" lon="49.1865400"><time>2021-09-11T17:26:31.557</time></trkpt><trkpt lat="55.8274250" lon="49.1865260"><time>2021-09-11T17:26:32.557</time></trkpt><trkpt lat="55.8274340" lon="49.1865130"><time>2021-09-11T17:26:33.557</time></trkpt><trkpt lat="55.8274420" lon="49.1864990"><time>2021-09-11T17:26:34.557</time></trkpt><trkpt lat="55.8274500" lon="49.1864860"><time>2021-09-11T17:26:35.557</time></trkpt><trkpt lat="55.8274590" lon="49.1864720"><time>2021-09-11T17:26:36.557</time></trkpt><trkpt lat="55.8274670" lon="49.1864590"><time>2021-09-11T17:26:37.557</time></trkpt><trkpt lat="55.8274750" lon="49.1864450"><time>2021-09-11T17:26:38.557</time></trkpt><trkpt lat="55.8274840" lon="49.1864320"><time>2021-09-11T17:26:39.557</time></trkpt><trkpt lat="55.8274920" lon="49.1864180"><time>2021-09-11T17:26:39.557</time></trkpt><trkpt lat="55.8275100" lon="49.1864150"><time>2021-09-11T17:26:40.557</time></trkpt><trkpt lat="55.8275180" lon="49.1864140"><time>2021-09-11T17:26:41.557</time></trkpt><trkpt lat="55.8275260" lon="49.1864130"><time>2021-09-11T17:26:42.557</time></trkpt><trkpt lat="55.8275340" lon="49.1864120"><time>2021-09-11T17:26:44.557</time></trkpt><trkpt lat="55.8275420" lon="49.1864110"><time>2021-09-11T17:26:44.557</time></trkpt><trkpt lat="55.8275680" lon="49.1864020"><time>2021-09-11T17:26:45.557</time></trkpt><trkpt lat="55.8275810" lon="49.1863970"><time>2021-09-11T17:26:46.557</time></trkpt><trkpt lat="55.8275940" lon="49.1863920"><time>2021-09-11T17:26:47.557</time></trkpt><trkpt lat="55.8276070" lon="49.1863870"><time>2021-09-11T17:26:48.557</time></trkpt><trkpt lat="55.8276200" lon="49.1863820"><time>2021-09-11T17:26:50.557</time></trkpt><trkpt lat="55.8276330" lon="49.1863770"><time>2021-09-11T17:26:50.557</time></trkpt><trkpt lat="55.8276500" lon="49.1863790"><time>2021-09-11T17:26:51.557</time></trkpt><trkpt lat="55.8276690" lon="49.1863890"><time>2021-09-11T17:26:52.557</time></trkpt><trkpt lat="55.8276870" lon="49.1864020"><time>2021-09-11T17:26:53.557</time></trkpt><trkpt lat="55.8277050" lon="49.1864160"><time>2021-09-11T17:26:54.557</time></trkpt><trkpt lat="55.8277240" lon="49.1864270"><time>2021-09-11T17:26:55.557</time></trkpt><trkpt lat="55.8277400" lon="49.1864360"><time>2021-09-11T17:26:56.557</time></trkpt><trkpt lat="55.8277580" lon="49.1864430"><time>2021-09-11T17:26:57.557</time></trkpt><trkpt lat="55.8277790" lon="49.1864450"><time>2021-09-11T17:26:58.557</time></trkpt><trkpt lat="55.8277990" lon="49.1864430"><time>2021-09-11T17:26:59.557</time></trkpt><trkpt lat="55.8278180" lon="49.1864370"><time>2021-09-11T17:27:00.557</time></trkpt><trkpt lat="55.8278360" lon="49.1864290"><time>2021-09-11T17:27:01.557</time></trkpt><trkpt lat="55.8278550" lon="49.1864210"><time>2021-09-11T17:27:02.557</time></trkpt><trkpt lat="55.8278740" lon="49.1864160"><time>2021-09-11T17:27:03.557</time></trkpt><trkpt lat="55.8278920" lon="49.1864180"><time>2021-09-11T17:27:04.557</time></trkpt><trkpt lat="55.8279120" lon="49.1864230"><time>2021-09-11T17:27:05.557</time></trkpt><trkpt lat="55.8279460" lon="49.1864300"><time>2021-09-11T17:27:07.557</time></trkpt><trkpt lat="55.8279580" lon="49.1864320"><time>2021-09-11T17:27:07.557</time></trkpt><trkpt lat="55.8279840" lon="49.1864330"><time>2021-09-11T17:27:08.557</time></trkpt><trkpt lat="55.8280110" lon="49.1864340"><time>2021-09-11T17:27:09.557</time></trkpt><trkpt lat="55.8280370" lon="49.1864380"><time>2021-09-11T17:27:10.557</time></trkpt><trkpt lat="55.8280600" lon="49.1864460"><time>2021-09-11T17:27:11.557</time></trkpt><trkpt lat="55.8280840" lon="49.1864570"><time>2021-09-11T17:27:12.557</time></trkpt><trkpt lat="55.8281060" lon="49.1864720"><time>2021-09-11T17:27:13.557</time></trkpt><trkpt lat="55.8281380" lon="49.1864980"><time>2021-09-11T17:27:15.557</time></trkpt><trkpt lat="55.8281480" lon="49.1865080"><time>2021-09-11T17:27:15.557</time></trkpt><trkpt lat="55.8281690" lon="49.1865280"><time>2021-09-11T17:27:16.557</time></trkpt><trkpt lat="55.8281970" lon="49.1865580"><time>2021-09-11T17:27:18.557</time></trkpt><trkpt lat="55.8282050" lon="49.1865700"><time>2021-09-11T17:27:18.557</time></trkpt><trkpt lat="55.8282220" lon="49.1865950"><time>2021-09-11T17:27:19.557</time></trkpt><trkpt lat="55.8282400" lon="49.1866190"><time>2021-09-11T17:27:20.557</time></trkpt><trkpt lat="55.8282590" lon="49.1866430"><time>2021-09-11T17:27:21.557</time></trkpt><trkpt lat="55.8282780" lon="49.1866640"><time>2021-09-11T17:27:22.557</time></trkpt><trkpt lat="55.8283000" lon="49.1866870"><time>2021-09-11T17:27:23.557</time></trkpt><trkpt lat="55.8283210" lon="49.1867090"><time>2021-09-11T17:27:24.557</time></trkpt><trkpt lat="55.8283410" lon="49.1867320"><time>2021-09-11T17:27:25.557</time></trkpt><trkpt lat="55.8283610" lon="49.1867590"><time>2021-09-11T17:27:26.557</time></trkpt><trkpt lat="55.8283820" lon="49.1867880"><time>2021-09-11T17:27:27.557</time></trkpt><trkpt lat="55.8284000" lon="49.1868160"><time>2021-09-11T17:27:28.557</time></trkpt><trkpt lat="55.8284200" lon="49.1868480"><time>2021-09-11T17:27:29.557</time></trkpt><trkpt lat="55.8284420" lon="49.1868790"><time>2021-09-11T17:27:30.557</time></trkpt><trkpt lat="55.8284760" lon="49.1869220"><time>2021-09-11T17:27:32.557</time></trkpt><trkpt lat="55.8284880" lon="49.1869360"><time>2021-09-11T17:27:32.557</time></trkpt><trkpt lat="55.8285100" lon="49.1869620"><time>2021-09-11T17:27:33.557</time></trkpt><trkpt lat="55.8285320" lon="49.1869860"><time>2021-09-11T17:27:34.557</time></trkpt><trkpt lat="55.8285540" lon="49.1870090"><time>2021-09-11T17:27:35.557</time></trkpt><trkpt lat="55.8285730" lon="49.1870340"><time>2021-09-11T17:27:36.557</time></trkpt><trkpt lat="55.8286000" lon="49.1870680"><time>2021-09-11T17:27:38.557</time></trkpt><trkpt lat="55.8286090" lon="49.1870780"><time>2021-09-11T17:27:38.557</time></trkpt><trkpt lat="55.8286270" lon="49.1870970"><time>2021-09-11T17:27:39.557</time></trkpt><trkpt lat="55.8286440" lon="49.1871170"><time>2021-09-11T17:27:40.557</time></trkpt><trkpt lat="55.8286620" lon="49.1871380"><time>2021-09-11T17:27:41.557</time></trkpt><trkpt lat="55.8286790" lon="49.1871590"><time>2021-09-11T17:27:42.557</time></trkpt><trkpt lat="55.8286970" lon="49.1871810"><time>2021-09-11T17:27:43.557</time></trkpt><trkpt lat="55.8287130" lon="49.1872030"><time>2021-09-11T17:27:44.557</time></trkpt><trkpt lat="55.8287290" lon="49.1872250"><time>2021-09-11T17:27:45.557</time></trkpt><trkpt lat="55.8287450" lon="49.1872490"><time>2021-09-11T17:27:46.557</time></trkpt><trkpt lat="55.8287610" lon="49.1872740"><time>2021-09-11T17:27:47.557</time></trkpt><trkpt lat="55.8287760" lon="49.1872950"><time>2021-09-11T17:27:48.557</time></trkpt><trkpt lat="55.8287920" lon="49.1873160"><time>2021-09-11T17:27:49.557</time></trkpt><trkpt lat="55.8288090" lon="49.1873370"><time>2021-09-11T17:27:50.557</time></trkpt><trkpt lat="55.8288260" lon="49.1873600"><time>2021-09-11T17:27:51.557</time></trkpt><trkpt lat="55.8288450" lon="49.1873820"><time>2021-09-11T17:27:52.557</time></trkpt><trkpt lat="55.8288650" lon="49.1874060"><time>2021-09-11T17:27:53.557</time></trkpt><trkpt lat="55.8288860" lon="49.1874270"><time>2021-09-11T17:27:54.557</time></trkpt><trkpt lat="55.8289080" lon="49.1874480"><time>2021-09-11T17:27:55.557</time></trkpt><trkpt lat="55.8289300" lon="49.1874700"><time>2021-09-11T17:27:56.557</time></trkpt><trkpt lat="55.8289530" lon="49.1874930"><time>2021-09-11T17:27:57.557</time></trkpt><trkpt lat="55.8289750" lon="49.1875150"><time>2021-09-11T17:27:58.557</time></trkpt><trkpt lat="55.8289980" lon="49.1875370"><time>2021-09-11T17:27:59.557</time></trkpt><trkpt lat="55.8290320" lon="49.1875720"><time>2021-09-11T17:28:01.557</time></trkpt><trkpt lat="55.8290430" lon="49.1875840"><time>2021-09-11T17:28:01.557</time></trkpt><trkpt lat="55.8290640" lon="49.1876070"><time>2021-09-11T17:28:02.557</time></trkpt><trkpt lat="55.8290850" lon="49.1876290"><time>2021-09-11T17:28:03.557</time></trkpt><trkpt lat="55.8291080" lon="49.1876520"><time>2021-09-11T17:28:04.557</time></trkpt><trkpt lat="55.8291320" lon="49.1876730"><time>2021-09-11T17:28:05.557</time></trkpt><trkpt lat="55.8291640" lon="49.1877010"><time>2021-09-11T17:28:07.557</time></trkpt><trkpt lat="55.8291740" lon="49.1877110"><time>2021-09-11T17:28:07.557</time></trkpt><trkpt lat="55.8291940" lon="49.1877290"><time>2021-09-11T17:28:08.557</time></trkpt><trkpt lat="55.8292150" lon="49.1877480"><time>2021-09-11T17:28:09.557</time></trkpt><trkpt lat="55.8292480" lon="49.1877780"><time>2021-09-11T17:28:11.557</time></trkpt><trkpt lat="55.8292590" lon="49.1877890"><time>2021-09-11T17:28:11.557</time></trkpt><trkpt lat="55.8292800" lon="49.1878130"><time>2021-09-11T17:28:12.557</time></trkpt><trkpt lat="55.8293000" lon="49.1878370"><time>2021-09-11T17:28:13.557</time></trkpt><trkpt lat="55.8293200" lon="49.1878610"><time>2021-09-11T17:28:14.557</time></trkpt><trkpt lat="55.8293410" lon="49.1878820"><time>2021-09-11T17:28:15.557</time></trkpt><trkpt lat="55.8293700" lon="49.1879160"><time>2021-09-11T17:28:17.557</time></trkpt><trkpt lat="55.8293790" lon="49.1879280"><time>2021-09-11T17:28:17.557</time></trkpt><trkpt lat="55.8293970" lon="49.1879520"><time>2021-09-11T17:28:18.557</time></trkpt><trkpt lat="55.8294140" lon="49.1879750"><time>2021-09-11T17:28:19.557</time></trkpt><trkpt lat="55.8294330" lon="49.1880000"><time>2021-09-11T17:28:20.557</time></trkpt><trkpt lat="55.8294520" lon="49.1880240"><time>2021-09-11T17:28:21.557</time></trkpt><trkpt lat="55.8294720" lon="49.1880490"><time>2021-09-11T17:28:22.557</time></trkpt><trkpt lat="55.8294930" lon="49.1880700"><time>2021-09-11T17:28:23.557</time></trkpt><trkpt lat="55.8295120" lon="49.1880920"><time>2021-09-11T17:28:24.557</time></trkpt><trkpt lat="55.8295300" lon="49.1881150"><time>2021-09-11T17:28:25.557</time></trkpt><trkpt lat="55.8295480" lon="49.1881400"><time>2021-09-11T17:28:26.557</time></trkpt><trkpt lat="55.8295680" lon="49.1881640"><time>2021-09-11T17:28:27.557</time></trkpt><trkpt lat="55.8295880" lon="49.1881850"><time>2021-09-11T17:28:28.557</time></trkpt><trkpt lat="55.8296090" lon="49.1882050"><time>2021-09-11T17:28:29.557</time></trkpt><trkpt lat="55.8296310" lon="49.1882230"><time>2021-09-11T17:28:30.557</time></trkpt><trkpt lat="55.8296550" lon="49.1882420"><time>2021-09-11T17:28:31.557</time></trkpt><trkpt lat="55.8296760" lon="49.1882610"><time>2021-09-11T17:28:32.557</time></trkpt><trkpt lat="55.8296970" lon="49.1882820"><time>2021-09-11T17:28:33.557</time></trkpt><trkpt lat="55.8297170" lon="49.1883090"><time>2021-09-11T17:28:34.557</time></trkpt><trkpt lat="55.8297390" lon="49.1883360"><time>2021-09-11T17:28:35.557</time></trkpt><trkpt lat="55.8297640" lon="49.1883610"><time>2021-09-11T17:28:36.557</time></trkpt><trkpt lat="55.8298020" lon="49.1883970"><time>2021-09-11T17:28:38.557</time></trkpt><trkpt lat="55.8298130" lon="49.1884090"><time>2021-09-11T17:28:38.557</time></trkpt><trkpt lat="55.8298360" lon="49.1884330"><time>2021-09-11T17:28:39.557</time></trkpt><trkpt lat="55.8298570" lon="49.1884550"><time>2021-09-11T17:28:40.557</time></trkpt><trkpt lat="55.8298760" lon="49.1884790"><time>2021-09-11T17:28:41.557</time></trkpt><trkpt lat="55.8298940" lon="49.1885050"><time>2021-09-11T17:28:42.557</time></trkpt><trkpt lat="55.8299130" lon="49.1885310"><time>2021-09-11T17:28:43.557</time></trkpt><trkpt lat="55.8299320" lon="49.1885580"><time>2021-09-11T17:28:44.557</time></trkpt><trkpt lat="55.8299510" lon="49.1885830"><time>2021-09-11T17:28:45.557</time></trkpt><trkpt lat="55.8299710" lon="49.1886070"><time>2021-09-11T17:28:46.557</time></trkpt><trkpt lat="55.8300010" lon="49.1886400"><time>2021-09-11T17:28:48.557</time></trkpt><trkpt lat="55.8300100" lon="49.1886520"><time>2021-09-11T17:28:48.557</time></trkpt><trkpt lat="55.8300300" lon="49.1886750"><time>2021-09-11T17:28:49.557</time></trkpt><trkpt lat="55.8300490" lon="49.1886980"><time>2021-09-11T17:28:50.557</time></trkpt><trkpt lat="55.8300690" lon="49.1887210"><time>2021-09-11T17:28:51.557</time></trkpt><trkpt lat="55.8300890" lon="49.1887440"><time>2021-09-11T17:28:52.557</time></trkpt><trkpt lat="55.8301210" lon="49.1887780"><time>2021-09-11T17:28:54.557</time></trkpt><trkpt lat="55.8301310" lon="49.1887900"><time>2021-09-11T17:28:54.557</time></trkpt><trkpt lat="55.8301500" lon="49.1888130"><time>2021-09-11T17:28:55.557</time></trkpt><trkpt lat="55.8301710" lon="49.1888370"><time>2021-09-11T17:28:56.557</time></trkpt><trkpt lat="55.8301900" lon="49.1888610"><time>2021-09-11T17:28:57.557</time></trkpt><trkpt lat="55.8302100" lon="49.1888850"><time>2021-09-11T17:28:58.557</time></trkpt><trkpt lat="55.8302400" lon="49.1889210"><time>2021-09-11T17:29:00.557</time></trkpt><trkpt lat="55.8302490" lon="49.1889340"><time>2021-09-11T17:29:00.557</time></trkpt><trkpt lat="55.8302690" lon="49.1889580"><time>2021-09-11T17:29:01.557</time></trkpt><trkpt lat="55.8302900" lon="49.1889820"><time>2021-09-11T17:29:02.557</time></trkpt><trkpt lat="55.8303100" lon="49.1890040"><time>2021-09-11T17:29:03.557</time></trkpt><trkpt lat="55.8303310" lon="49.1890260"><time>2021-09-11T17:29:04.557</time></trkpt><trkpt lat="55.8303520" lon="49.1890470"><time>2021-09-11T17:29:05.557</time></trkpt><trkpt lat="55.8303720" lon="49.1890680"><time>2021-09-11T17:29:06.557</time></trkpt><trkpt lat="55.8303920" lon="49.1890910"><time>2021-09-11T17:29:07.557</time></trkpt><trkpt lat="55.8304120" lon="49.1891130"><time>2021-09-11T17:29:08.557</time></trkpt><trkpt lat="55.8304320" lon="49.1891360"><time>2021-09-11T17:29:09.557</time></trkpt><trkpt lat="55.8304510" lon="49.1891590"><time>2021-09-11T17:29:10.557</time></trkpt><trkpt lat="55.8304700" lon="49.1891820"><time>2021-09-11T17:29:11.557</time></trkpt><trkpt lat="55.8304890" lon="49.1892040"><time>2021-09-11T17:29:12.557</time></trkpt><trkpt lat="55.8305070" lon="49.1892270"><time>2021-09-11T17:29:13.557</time></trkpt><trkpt lat="55.8305260" lon="49.1892510"><time>2021-09-11T17:29:14.557</time></trkpt><trkpt lat="55.8305440" lon="49.1892750"><time>2021-09-11T17:29:15.557</time></trkpt><trkpt lat="55.8305620" lon="49.1893000"><time>2021-09-11T17:29:16.557</time></trkpt><trkpt lat="55.8305810" lon="49.1893220"><time>2021-09-11T17:29:17.557</time></trkpt><trkpt lat="55.8306000" lon="49.1893450"><time>2021-09-11T17:29:18.557</time></trkpt><trkpt lat="55.8306180" lon="49.1893680"><time>2021-09-11T17:29:19.557</time></trkpt><trkpt lat="55.8306370" lon="49.1893910"><time>2021-09-11T17:29:20.557</time></trkpt><trkpt lat="55.8306560" lon="49.1894140"><time>2021-09-11T17:29:21.557</time></trkpt><trkpt lat="55.8306770" lon="49.1894380"><time>2021-09-11T17:29:22.557</time></trkpt><trkpt lat="55.8306970" lon="49.1894620"><time>2021-09-11T17:29:23.557</time></trkpt><trkpt lat="55.8307170" lon="49.1894870"><time>2021-09-11T17:29:24.557</time></trkpt><trkpt lat="55.8307360" lon="49.1895120"><time>2021-09-11T17:29:25.557</time></trkpt><trkpt lat="55.8307560" lon="49.1895370"><time>2021-09-11T17:29:26.557</time></trkpt><trkpt lat="55.8307760" lon="49.1895610"><time>2021-09-11T17:29:27.557</time></trkpt><trkpt lat="55.8307960" lon="49.1895840"><time>2021-09-11T17:29:28.557</time></trkpt><trkpt lat="55.8308160" lon="49.1896080"><time>2021-09-11T17:29:29.557</time></trkpt><trkpt lat="55.8308370" lon="49.1896320"><time>2021-09-11T17:29:30.557</time></trkpt><trkpt lat="55.8308570" lon="49.1896550"><time>2021-09-11T17:29:31.557</time></trkpt><trkpt lat="55.8308770" lon="49.1896790"><time>2021-09-11T17:29:32.557</time></trkpt><trkpt lat="55.8308970" lon="49.1897040"><time>2021-09-11T17:29:33.557</time></trkpt><trkpt lat="55.8309170" lon="49.1897290"><time>2021-09-11T17:29:34.557</time></trkpt><trkpt lat="55.8309370" lon="49.1897540"><time>2021-09-11T17:29:35.557</time></trkpt><trkpt lat="55.8309570" lon="49.1897790"><time>2021-09-11T17:29:36.557</time></trkpt><trkpt lat="55.8309880" lon="49.1898150"><time>2021-09-11T17:29:38.557</time></trkpt><trkpt lat="55.8309980" lon="49.1898270"><time>2021-09-11T17:29:38.557</time></trkpt><trkpt lat="55.8310180" lon="49.1898490"><time>2021-09-11T17:29:39.557</time></trkpt><trkpt lat="55.8310390" lon="49.1898710"><time>2021-09-11T17:29:40.557</time></trkpt><trkpt lat="55.8310610" lon="49.1898930"><time>2021-09-11T17:29:41.557</time></trkpt><trkpt lat="55.8310820" lon="49.1899140"><time>2021-09-11T17:29:42.557</time></trkpt><trkpt lat="55.8311150" lon="49.1899470"><time>2021-09-11T17:29:44.557</time></trkpt><trkpt lat="55.8311260" lon="49.1899580"><time>2021-09-11T17:29:44.557</time></trkpt><trkpt lat="55.8311470" lon="49.1899810"><time>2021-09-11T17:29:45.557</time></trkpt><trkpt lat="55.8311680" lon="49.1900050"><time>2021-09-11T17:29:46.557</time></trkpt><trkpt lat="55.8311880" lon="49.1900300"><time>2021-09-11T17:29:47.557</time></trkpt><trkpt lat="55.8312080" lon="49.1900550"><time>2021-09-11T17:29:48.557</time></trkpt><trkpt lat="55.8312260" lon="49.1900820"><time>2021-09-11T17:29:49.557</time></trkpt><trkpt lat="55.8312440" lon="49.1901090"><time>2021-09-11T17:29:50.557</time></trkpt><trkpt lat="55.8312630" lon="49.1901340"><time>2021-09-11T17:29:51.557</time></trkpt><trkpt lat="55.8312820" lon="49.1901580"><time>2021-09-11T17:29:52.557</time></trkpt><trkpt lat="55.8313120" lon="49.1901950"><time>2021-09-11T17:29:54.557</time></trkpt><trkpt lat="55.8313210" lon="49.1902080"><time>2021-09-11T17:29:54.557</time></trkpt><trkpt lat="55.8313410" lon="49.1902340"><time>2021-09-11T17:29:55.557</time></trkpt><trkpt lat="55.8313610" lon="49.1902590"><time>2021-09-11T17:29:56.557</time></trkpt><trkpt lat="55.8313810" lon="49.1902840"><time>2021-09-11T17:29:57.557</time></trkpt><trkpt lat="55.8314010" lon="49.1903090"><time>2021-09-11T17:29:58.557</time></trkpt><trkpt lat="55.8314210" lon="49.1903320"><time>2021-09-11T17:29:59.557</time></trkpt><trkpt lat="55.8314420" lon="49.1903540"><time>2021-09-11T17:30:00.557</time></trkpt><trkpt lat="55.8314620" lon="49.1903760"><time>2021-09-11T17:30:01.557</time></trkpt><trkpt lat="55.8314840" lon="49.1903990"><time>2021-09-11T17:30:02.557</time></trkpt><trkpt lat="55.8315040" lon="49.1904220"><time>2021-09-11T17:30:03.557</time></trkpt><trkpt lat="55.8315250" lon="49.1904440"><time>2021-09-11T17:30:04.557</time></trkpt><trkpt lat="55.8315460" lon="49.1904660"><time>2021-09-11T17:30:05.557</time></trkpt><trkpt lat="55.8315680" lon="49.1904880"><time>2021-09-11T17:30:06.557</time></trkpt><trkpt lat="55.8315900" lon="49.1905110"><time>2021-09-11T17:30:07.557</time></trkpt><trkpt lat="55.8316120" lon="49.1905340"><time>2021-09-11T17:30:08.557</time></trkpt><trkpt lat="55.8316330" lon="49.1905560"><time>2021-09-11T17:30:09.557</time></trkpt><trkpt lat="55.8316530" lon="49.1905770"><time>2021-09-11T17:30:10.557</time></trkpt><trkpt lat="55.8316730" lon="49.1905980"><time>2021-09-11T17:30:11.557</time></trkpt><trkpt lat="55.8316910" lon="49.1906190"><time>2021-09-11T17:30:12.557</time></trkpt><trkpt lat="55.8317090" lon="49.1906400"><time>2021-09-11T17:30:13.557</time></trkpt><trkpt lat="55.8317270" lon="49.1906610"><time>2021-09-11T17:30:14.557</time></trkpt><trkpt lat="55.8317470" lon="49.1906830"><time>2021-09-11T17:30:15.557</time></trkpt><trkpt lat="55.8317670" lon="49.1907050"><time>2021-09-11T17:30:16.557</time></trkpt><trkpt lat="55.8317870" lon="49.1907260"><time>2021-09-11T17:30:17.557</time></trkpt><trkpt lat="55.8318070" lon="49.1907490"><time>2021-09-11T17:30:18.557</time></trkpt><trkpt lat="55.8318280" lon="49.1907700"><time>2021-09-11T17:30:19.557</time></trkpt><trkpt lat="55.8318470" lon="49.1907910"><time>2021-09-11T17:30:20.557</time></trkpt><trkpt lat="55.8318780" lon="49.1908190"><time>2021-09-11T17:30:22.557</time></trkpt><trkpt lat="55.8318880" lon="49.1908280"><time>2021-09-11T17:30:22.557</time></trkpt><trkpt lat="55.8319090" lon="49.1908460"><time>2021-09-11T17:30:23.557</time></trkpt><trkpt lat="55.8319290" lon="49.1908620"><time>2021-09-11T17:30:24.557</time></trkpt><trkpt lat="55.8319500" lon="49.1908790"><time>2021-09-11T17:30:25.557</time></trkpt><trkpt lat="55.8319720" lon="49.1908950"><time>2021-09-11T17:30:26.557</time></trkpt><trkpt lat="55.8319940" lon="49.1909110"><time>2021-09-11T17:30:27.557</time></trkpt><trkpt lat="55.8320150" lon="49.1909260"><time>2021-09-11T17:30:28.557</time></trkpt><trkpt lat="55.8320370" lon="49.1909430"><time>2021-09-11T17:30:29.557</time></trkpt><trkpt lat="55.8320600" lon="49.1909580"><time>2021-09-11T17:30:30.557</time></trkpt><trkpt lat="55.8320930" lon="49.1909810"><time>2021-09-11T17:30:32.557</time></trkpt><trkpt lat="55.8321040" lon="49.1909880"><time>2021-09-11T17:30:32.557</time></trkpt><trkpt lat="55.8321260" lon="49.1910010"><time>2021-09-11T17:30:33.557</time></trkpt><trkpt lat="55.8321490" lon="49.1910130"><time>2021-09-11T17:30:34.557</time></trkpt><trkpt lat="55.8321720" lon="49.1910230"><time>2021-09-11T17:30:35.557</time></trkpt><trkpt lat="55.8321940" lon="49.1910320"><time>2021-09-11T17:30:36.557</time></trkpt><trkpt lat="55.8322270" lon="49.1910460"><time>2021-09-11T17:30:38.557</time></trkpt><trkpt lat="55.8322380" lon="49.1910510"><time>2021-09-11T17:30:38.557</time></trkpt><trkpt lat="55.8322610" lon="49.1910590"><time>2021-09-11T17:30:39.557</time></trkpt><trkpt lat="55.8322850" lon="49.1910660"><time>2021-09-11T17:30:40.557</time></trkpt><trkpt lat="55.8323090" lon="49.1910730"><time>2021-09-11T17:30:41.557</time></trkpt><trkpt lat="55.8323320" lon="49.1910800"><time>2021-09-11T17:30:42.557</time></trkpt><trkpt lat="55.8323560" lon="49.1910870"><time>2021-09-11T17:30:43.557</time></trkpt><trkpt lat="55.8323790" lon="49.1910950"><time>2021-09-11T17:30:44.557</time></trkpt><trkpt lat="55.8324020" lon="49.1911020"><time>2021-09-11T17:30:45.557</time></trkpt><trkpt lat="55.8324250" lon="49.1911080"><time>2021-09-11T17:30:46.557</time></trkpt><trkpt lat="55.8324500" lon="49.1911120"><time>2021-09-11T17:30:47.557</time></trkpt><trkpt lat="55.8324750" lon="49.1911160"><time>2021-09-11T17:30:48.557</time></trkpt><trkpt lat="55.8324990" lon="49.1911180"><time>2021-09-11T17:30:49.557</time></trkpt><trkpt lat="55.8325230" lon="49.1911220"><time>2021-09-11T17:30:50.557</time></trkpt><trkpt lat="55.8325460" lon="49.1911250"><time>2021-09-11T17:30:51.557</time></trkpt><trkpt lat="55.8325680" lon="49.1911290"><time>2021-09-11T17:30:52.557</time></trkpt><trkpt lat="55.8325920" lon="49.1911320"><time>2021-09-11T17:30:53.557</time></trkpt><trkpt lat="55.8326160" lon="49.1911340"><time>2021-09-11T17:30:54.557</time></trkpt><trkpt lat="55.8326400" lon="49.1911350"><time>2021-09-11T17:30:54.557</time></trkpt><trkpt lat="55.8326640" lon="49.1911360"><time>2021-09-11T17:30:55.557</time></trkpt><trkpt lat="55.8326890" lon="49.1911360"><time>2021-09-11T17:30:56.557</time></trkpt><trkpt lat="55.8327130" lon="49.1911370"><time>2021-09-11T17:30:57.557</time></trkpt><trkpt lat="55.8327370" lon="49.1911370"><time>2021-09-11T17:30:58.557</time></trkpt><trkpt lat="55.8327710" lon="49.1911370"><time>2021-09-11T17:31:00.557</time></trkpt><trkpt lat="55.8327820" lon="49.1911360"><time>2021-09-11T17:31:00.557</time></trkpt><trkpt lat="55.8328060" lon="49.1911330"><time>2021-09-11T17:31:01.557</time></trkpt><trkpt lat="55.8328300" lon="49.1911300"><time>2021-09-11T17:31:02.557</time></trkpt><trkpt lat="55.8328540" lon="49.1911260"><time>2021-09-11T17:31:03.557</time></trkpt><trkpt lat="55.8328780" lon="49.1911230"><time>2021-09-11T17:31:04.557</time></trkpt><trkpt lat="55.8329140" lon="49.1911220"><time>2021-09-11T17:31:06.557</time></trkpt><trkpt lat="55.8329250" lon="49.1911220"><time>2021-09-11T17:31:06.557</time></trkpt><trkpt lat="55.8329480" lon="49.1911220"><time>2021-09-11T17:31:07.557</time></trkpt><trkpt lat="55.8329710" lon="49.1911240"><time>2021-09-11T17:31:08.557</time></trkpt><trkpt lat="55.8330050" lon="49.1911250"><time>2021-09-11T17:31:10.557</time></trkpt><trkpt lat="55.8330170" lon="49.1911260"><time>2021-09-11T17:31:10.557</time></trkpt><trkpt lat="55.8330420" lon="49.1911260"><time>2021-09-11T17:31:11.557</time></trkpt><trkpt lat="55.8330650" lon="49.1911270"><time>2021-09-11T17:31:12.557</time></trkpt><trkpt lat="55.8330890" lon="49.1911270"><time>2021-09-11T17:31:13.557</time></trkpt><trkpt lat="55.8331120" lon="49.1911270"><time>2021-09-11T17:31:14.557</time></trkpt><trkpt lat="55.8331360" lon="49.1911280"><time>2021-09-11T17:31:15.557</time></trkpt><trkpt lat="55.8331590" lon="49.1911290"><time>2021-09-11T17:31:16.557</time></trkpt><trkpt lat="55.8331830" lon="49.1911290"><time>2021-09-11T17:31:17.557</time></trkpt><trkpt lat="55.8332090" lon="49.1911290"><time>2021-09-11T17:31:18.557</time></trkpt><trkpt lat="55.8332350" lon="49.1911270"><time>2021-09-11T17:31:19.557</time></trkpt><trkpt lat="55.8332740" lon="49.1911260"><time>2021-09-11T17:31:21.557</time></trkpt><trkpt lat="55.8332860" lon="49.1911270"><time>2021-09-11T17:31:21.557</time></trkpt><trkpt lat="55.8333110" lon="49.1911270"><time>2021-09-11T17:31:22.557</time></trkpt><trkpt lat="55.8333370" lon="49.1911280"><time>2021-09-11T17:31:23.557</time></trkpt><trkpt lat="55.8333620" lon="49.1911310"><time>2021-09-11T17:31:24.557</time></trkpt><trkpt lat="55.8333840" lon="49.1911350"><time>2021-09-11T17:31:25.557</time></trkpt><trkpt lat="55.8334090" lon="49.1911400"><time>2021-09-11T17:31:26.557</time></trkpt><trkpt lat="55.8334350" lon="49.1911440"><time>2021-09-11T17:31:27.557</time></trkpt><trkpt lat="55.8334600" lon="49.1911460"><time>2021-09-11T17:31:28.557</time></trkpt><trkpt lat="55.8334840" lon="49.1911450"><time>2021-09-11T17:31:29.557</time></trkpt><trkpt lat="55.8335200" lon="49.1911400"><time>2021-09-11T17:31:31.557</time></trkpt><trkpt lat="55.8335320" lon="49.1911370"><time>2021-09-11T17:31:31.557</time></trkpt><trkpt lat="55.8335570" lon="49.1911330"><time>2021-09-11T17:31:32.557</time></trkpt><trkpt lat="55.8335830" lon="49.1911300"><time>2021-09-11T17:31:33.557</time></trkpt><trkpt lat="55.8336070" lon="49.1911280"><time>2021-09-11T17:31:34.557</time></trkpt><trkpt lat="55.8336280" lon="49.1911280"><time>2021-09-11T17:31:35.557</time></trkpt><trkpt lat="55.8336650" lon="49.1911320"><time>2021-09-11T17:31:37.557</time></trkpt><trkpt lat="55.8336780" lon="49.1911340"><time>2021-09-11T17:31:37.557</time></trkpt><trkpt lat="55.8337070" lon="49.1911340"><time>2021-09-11T17:31:38.557</time></trkpt><trkpt lat="55.8337350" lon="49.1911340"><time>2021-09-11T17:31:39.557</time></trkpt><trkpt lat="55.8337620" lon="49.1911360"><time>2021-09-11T17:31:40.557</time></trkpt><trkpt lat="55.8337890" lon="49.1911370"><time>2021-09-11T17:31:41.557</time></trkpt><trkpt lat="55.8338150" lon="49.1911360"><time>2021-09-11T17:31:42.557</time></trkpt><trkpt lat="55.8338420" lon="49.1911340"><time>2021-09-11T17:31:43.557</time></trkpt><trkpt lat="55.8338700" lon="49.1911320"><time>2021-09-11T17:31:44.557</time></trkpt><trkpt lat="55.8338980" lon="49.1911270"><time>2021-09-11T17:31:45.557</time></trkpt><trkpt lat="55.8339260" lon="49.1911240"><time>2021-09-11T17:31:46.557</time></trkpt><trkpt lat="55.8339530" lon="49.1911190"><time>2021-09-11T17:31:47.557</time></trkpt><trkpt lat="55.8339810" lon="49.1911130"><time>2021-09-11T17:31:48.557</time></trkpt><trkpt lat="55.8340080" lon="49.1911060"><time>2021-09-11T17:31:49.557</time></trkpt><trkpt lat="55.8340350" lon="49.1910990"><time>2021-09-11T17:31:50.557</time></trkpt><trkpt lat="55.8340620" lon="49.1910910"><time>2021-09-11T17:31:51.557</time></trkpt><trkpt lat="55.8340880" lon="49.1910820"><time>2021-09-11T17:31:52.557</time></trkpt><trkpt lat="55.8341140" lon="49.1910700"><time>2021-09-11T17:31:53.557</time></trkpt><trkpt lat="55.8341420" lon="49.1910580"><time>2021-09-11T17:31:54.557</time></trkpt><trkpt lat="55.8341690" lon="49.1910470"><time>2021-09-11T17:31:55.557</time></trkpt><trkpt lat="55.8341950" lon="49.1910370"><time>2021-09-11T17:31:56.557</time></trkpt><trkpt lat="55.8342200" lon="49.1910270"><time>2021-09-11T17:31:57.557</time></trkpt><trkpt lat="55.8342450" lon="49.1910160"><time>2021-09-11T17:31:58.557</time></trkpt><trkpt lat="55.8342840" lon="49.1909990"><time>2021-09-11T17:32:00.557</time></trkpt><trkpt lat="55.8342970" lon="49.1909920"><time>2021-09-11T17:32:00.557</time></trkpt><trkpt lat="55.8343220" lon="49.1909800"><time>2021-09-11T17:32:01.557</time></trkpt><trkpt lat="55.8343470" lon="49.1909680"><time>2021-09-11T17:32:02.557</time></trkpt><trkpt lat="55.8343720" lon="49.1909560"><time>2021-09-11T17:32:03.557</time></trkpt><trkpt lat="55.8343950" lon="49.1909450"><time>2021-09-11T17:32:04.557</time></trkpt><trkpt lat="55.8344270" lon="49.1909310"><time>2021-09-11T17:32:06.557</time></trkpt><trkpt lat="55.8344370" lon="49.1909260"><time>2021-09-11T17:32:06.557</time></trkpt><trkpt lat="55.8344580" lon="49.1909160"><time>2021-09-11T17:32:07.557</time></trkpt><trkpt lat="55.8344790" lon="49.1909060"><time>2021-09-11T17:32:08.557</time></trkpt><trkpt lat="55.8345020" lon="49.1908930"><time>2021-09-11T17:32:09.557</time></trkpt><trkpt lat="55.8345360" lon="49.1908750"><time>2021-09-11T17:32:11.557</time></trkpt><trkpt lat="55.8345470" lon="49.1908680"><time>2021-09-11T17:32:11.557</time></trkpt><trkpt lat="55.8345690" lon="49.1908540"><time>2021-09-11T17:32:12.557</time></trkpt><trkpt lat="55.8345910" lon="49.1908400"><time>2021-09-11T17:32:13.557</time></trkpt><trkpt lat="55.8346120" lon="49.1908250"><time>2021-09-11T17:32:14.557</time></trkpt><trkpt lat="55.8346340" lon="49.1908110"><time>2021-09-11T17:32:15.557</time></trkpt><trkpt lat="55.8346550" lon="49.1907960"><time>2021-09-11T17:32:16.557</time></trkpt><trkpt lat="55.8346760" lon="49.1907810"><time>2021-09-11T17:32:17.557</time></trkpt><trkpt lat="55.8346970" lon="49.1907660"><time>2021-09-11T17:32:18.557</time></trkpt><trkpt lat="55.8347190" lon="49.1907520"><time>2021-09-11T17:32:19.557</time></trkpt><trkpt lat="55.8347510" lon="49.1907320"><time>2021-09-11T17:32:21.557</time></trkpt><trkpt lat="55.8347620" lon="49.1907250"><time>2021-09-11T17:32:21.557</time></trkpt><trkpt lat="55.8347850" lon="49.1907120"><time>2021-09-11T17:32:22.557</time></trkpt><trkpt lat="55.8348080" lon="49.1906970"><time>2021-09-11T17:32:23.557</time></trkpt><trkpt lat="55.8348440" lon="49.1906760"><time>2021-09-11T17:32:25.557</time></trkpt><trkpt lat="55.8348560" lon="49.1906680"><time>2021-09-11T17:32:25.557</time></trkpt><trkpt lat="55.8348810" lon="49.1906520"><time>2021-09-11T17:32:26.557</time></trkpt><trkpt lat="55.8349040" lon="49.1906380"><time>2021-09-11T17:32:27.557</time></trkpt><trkpt lat="55.8349270" lon="49.1906230"><time>2021-09-11T17:32:28.557</time></trkpt><trkpt lat="55.8349500" lon="49.1906080"><time>2021-09-11T17:32:29.557</time></trkpt><trkpt lat="55.8349730" lon="49.1905930"><time>2021-09-11T17:32:30.557</time></trkpt><trkpt lat="55.8349970" lon="49.1905770"><time>2021-09-11T17:32:31.557</time></trkpt><trkpt lat="55.8350190" lon="49.1905610"><time>2021-09-11T17:32:32.557</time></trkpt><trkpt lat="55.8350430" lon="49.1905430"><time>2021-09-11T17:32:33.557</time></trkpt><trkpt lat="55.8350660" lon="49.1905280"><time>2021-09-11T17:32:34.557</time></trkpt><trkpt lat="55.8350880" lon="49.1905130"><time>2021-09-11T17:32:35.557</time></trkpt><trkpt lat="55.8351110" lon="49.1904970"><time>2021-09-11T17:32:36.557</time></trkpt><trkpt lat="55.8351340" lon="49.1904830"><time>2021-09-11T17:32:37.557</time></trkpt><trkpt lat="55.8351560" lon="49.1904690"><time>2021-09-11T17:32:38.557</time></trkpt><trkpt lat="55.8351790" lon="49.1904550"><time>2021-09-11T17:32:39.557</time></trkpt><trkpt lat="55.8352010" lon="49.1904400"><time>2021-09-11T17:32:40.557</time></trkpt><trkpt lat="55.8352370" lon="49.1904180"><time>2021-09-11T17:32:42.557</time></trkpt><trkpt lat="55.8352480" lon="49.1904100"><time>2021-09-11T17:32:42.557</time></trkpt><trkpt lat="55.8352730" lon="49.1903960"><time>2021-09-11T17:32:43.557</time></trkpt><trkpt lat="55.8352970" lon="49.1903820"><time>2021-09-11T17:32:44.557</time></trkpt><trkpt lat="55.8353200" lon="49.1903670"><time>2021-09-11T17:32:45.557</time></trkpt><trkpt lat="55.8353440" lon="49.1903520"><time>2021-09-11T17:32:46.557</time></trkpt><trkpt lat="55.8353790" lon="49.1903300"><time>2021-09-11T17:32:48.557</time></trkpt><trkpt lat="55.8353900" lon="49.1903230"><time>2021-09-11T17:32:48.557</time></trkpt><trkpt lat="55.8354120" lon="49.1903060"><time>2021-09-11T17:32:49.557</time></trkpt><trkpt lat="55.8354350" lon="49.1902880"><time>2021-09-11T17:32:50.557</time></trkpt><trkpt lat="55.8354590" lon="49.1902690"><time>2021-09-11T17:32:51.557</time></trkpt><trkpt lat="55.8354830" lon="49.1902510"><time>2021-09-11T17:32:52.557</time></trkpt><trkpt lat="55.8355080" lon="49.1902360"><time>2021-09-11T17:32:53.557</time></trkpt><trkpt lat="55.8355330" lon="49.1902240"><time>2021-09-11T17:32:54.557</time></trkpt><trkpt lat="55.8355580" lon="49.1902140"><time>2021-09-11T17:32:55.557</time></trkpt><trkpt lat="55.8355820" lon="49.1902040"><time>2021-09-11T17:32:56.557</time></trkpt><trkpt lat="55.8356040" lon="49.1901930"><time>2021-09-11T17:32:57.557</time></trkpt><trkpt lat="55.8356270" lon="49.1901820"><time>2021-09-11T17:32:58.557</time></trkpt><trkpt lat="55.8356490" lon="49.1901700"><time>2021-09-11T17:32:59.557</time></trkpt><trkpt lat="55.8356720" lon="49.1901570"><time>2021-09-11T17:33:00.557</time></trkpt><trkpt lat="55.8356950" lon="49.1901430"><time>2021-09-11T17:33:01.557</time></trkpt><trkpt lat="55.8357180" lon="49.1901290"><time>2021-09-11T17:33:02.557</time></trkpt><trkpt lat="55.8357400" lon="49.1901130"><time>2021-09-11T17:33:03.557</time></trkpt><trkpt lat="55.8357620" lon="49.1900960"><time>2021-09-11T17:33:04.557</time></trkpt><trkpt lat="55.8357840" lon="49.1900780"><time>2021-09-11T17:33:05.557</time></trkpt><trkpt lat="55.8358080" lon="49.1900590"><time>2021-09-11T17:33:06.557</time></trkpt><trkpt lat="55.8358300" lon="49.1900410"><time>2021-09-11T17:33:07.557</time></trkpt><trkpt lat="55.8358530" lon="49.1900240"><time>2021-09-11T17:33:08.557</time></trkpt><trkpt lat="55.8358770" lon="49.1900080"><time>2021-09-11T17:33:09.557</time></trkpt><trkpt lat="55.8359000" lon="49.1899920"><time>2021-09-11T17:33:10.557</time></trkpt><trkpt lat="55.8359220" lon="49.1899780"><time>2021-09-11T17:33:11.557</time></trkpt><trkpt lat="55.8359430" lon="49.1899630"><time>2021-09-11T17:33:12.557</time></trkpt><trkpt lat="55.8359630" lon="49.1899500"><time>2021-09-11T17:33:13.557</time></trkpt><trkpt lat="55.8359810" lon="49.1899370"><time>2021-09-11T17:33:14.557</time></trkpt><trkpt lat="55.8360100" lon="49.1899160"><time>2021-09-11T17:33:16.557</time></trkpt><trkpt lat="55.8360200" lon="49.1899090"><time>2021-09-11T17:33:16.557</time></trkpt><trkpt lat="55.8360410" lon="49.1898960"><time>2021-09-11T17:33:17.557</time></trkpt><trkpt lat="55.8360630" lon="49.1898830"><time>2021-09-11T17:33:18.557</time></trkpt><trkpt lat="55.8360850" lon="49.1898690"><time>2021-09-11T17:33:19.557</time></trkpt><trkpt lat="55.8361090" lon="49.1898550"><time>2021-09-11T17:33:20.557</time></trkpt><trkpt lat="55.8361430" lon="49.1898350"><time>2021-09-11T17:33:22.557</time></trkpt><trkpt lat="55.8361540" lon="49.1898290"><time>2021-09-11T17:33:22.557</time></trkpt><trkpt lat="55.8361760" lon="49.1898160"><time>2021-09-11T17:33:23.557</time></trkpt><trkpt lat="55.8361980" lon="49.1898020"><time>2021-09-11T17:33:24.557</time></trkpt><trkpt lat="55.8362310" lon="49.1897790"><time>2021-09-11T17:33:26.557</time></trkpt><trkpt lat="55.8362420" lon="49.1897710"><time>2021-09-11T17:33:26.557</time></trkpt><trkpt lat="55.8362640" lon="49.1897540"><time>2021-09-11T17:33:27.557</time></trkpt><trkpt lat="55.8362860" lon="49.1897380"><time>2021-09-11T17:33:28.557</time></trkpt><trkpt lat="55.8363080" lon="49.1897250"><time>2021-09-11T17:33:29.557</time></trkpt><trkpt lat="55.8363310" lon="49.1897150"><time>2021-09-11T17:33:30.557</time></trkpt><trkpt lat="55.8363640" lon="49.1897030"><time>2021-09-11T17:33:32.557</time></trkpt><trkpt lat="55.8363750" lon="49.1896980"><time>2021-09-11T17:33:32.557</time></trkpt><trkpt lat="55.8363980" lon="49.1896880"><time>2021-09-11T17:33:33.557</time></trkpt><trkpt lat="55.8364210" lon="49.1896740"><time>2021-09-11T17:33:34.557</time></trkpt><trkpt lat="55.8364570" lon="49.1896530"><time>2021-09-11T17:33:36.557</time></trkpt><trkpt lat="55.8364690" lon="49.1896460"><time>2021-09-11T17:33:36.557</time></trkpt><trkpt lat="55.8364910" lon="49.1896330"><time>2021-09-11T17:33:37.557</time></trkpt><trkpt lat="55.8365130" lon="49.1896190"><time>2021-09-11T17:33:38.557</time></trkpt><trkpt lat="55.8365350" lon="49.1896050"><time>2021-09-11T17:33:39.557</time></trkpt><trkpt lat="55.8365580" lon="49.1895920"><time>2021-09-11T17:33:40.557</time></trkpt><trkpt lat="55.8365910" lon="49.1895700"><time>2021-09-11T17:33:42.557</time></trkpt><trkpt lat="55.8366010" lon="49.1895630"><time>2021-09-11T17:33:42.557</time></trkpt><trkpt lat="55.8366240" lon="49.1895500"><time>2021-09-11T17:33:43.557</time></trkpt><trkpt lat="55.8366450" lon="49.1895370"><time>2021-09-11T17:33:44.557</time></trkpt><trkpt lat="55.8366660" lon="49.1895240"><time>2021-09-11T17:33:45.557</time></trkpt><trkpt lat="55.8366880" lon="49.1895100"><time>2021-09-11T17:33:46.557</time></trkpt><trkpt lat="55.8367100" lon="49.1894950"><time>2021-09-11T17:33:47.557</time></trkpt><trkpt lat="55.8367310" lon="49.1894810"><time>2021-09-11T17:33:48.557</time></trkpt><trkpt lat="55.8367530" lon="49.1894670"><time>2021-09-11T17:33:49.557</time></trkpt><trkpt lat="55.8367760" lon="49.1894530"><time>2021-09-11T17:33:50.557</time></trkpt><trkpt lat="55.8368000" lon="49.1894390"><time>2021-09-11T17:33:51.557</time></trkpt><trkpt lat="55.8368240" lon="49.1894250"><time>2021-09-11T17:33:52.557</time></trkpt><trkpt lat="55.8368470" lon="49.1894110"><time>2021-09-11T17:33:53.557</time></trkpt><trkpt lat="55.8368700" lon="49.1893980"><time>2021-09-11T17:33:54.557</time></trkpt><trkpt lat="55.8368930" lon="49.1893850"><time>2021-09-11T17:33:55.557</time></trkpt><trkpt lat="55.8369140" lon="49.1893700"><time>2021-09-11T17:33:56.557</time></trkpt><trkpt lat="55.8369370" lon="49.1893530"><time>2021-09-11T17:33:57.557</time></trkpt><trkpt lat="55.8369710" lon="49.1893270"><time>2021-09-11T17:33:59.557</time></trkpt><trkpt lat="55.8369820" lon="49.1893180"><time>2021-09-11T17:33:59.557</time></trkpt><trkpt lat="55.8370060" lon="49.1893000"><time>2021-09-11T17:34:00.557</time></trkpt><trkpt lat="55.8370300" lon="49.1892820"><time>2021-09-11T17:34:01.557</time></trkpt><trkpt lat="55.8370530" lon="49.1892650"><time>2021-09-11T17:34:02.557</time></trkpt><trkpt lat="55.8370770" lon="49.1892470"><time>2021-09-11T17:34:03.557</time></trkpt><trkpt lat="55.8371110" lon="49.1892240"><time>2021-09-11T17:34:05.557</time></trkpt><trkpt lat="55.8371220" lon="49.1892160"><time>2021-09-11T17:34:05.557</time></trkpt><trkpt lat="55.8371430" lon="49.1892020"><time>2021-09-11T17:34:06.557</time></trkpt><trkpt lat="55.8371640" lon="49.1891880"><time>2021-09-11T17:34:07.557</time></trkpt><trkpt lat="55.8371960" lon="49.1891680"><time>2021-09-11T17:34:09.557</time></trkpt><trkpt lat="55.8372060" lon="49.1891620"><time>2021-09-11T17:34:09.557</time></trkpt><trkpt lat="55.8372270" lon="49.1891510"><time>2021-09-11T17:34:10.557</time></trkpt><trkpt lat="55.8372490" lon="49.1891380"><time>2021-09-11T17:34:11.557</time></trkpt><trkpt lat="55.8372710" lon="49.1891260"><time>2021-09-11T17:34:12.557</time></trkpt><trkpt lat="55.8372940" lon="49.1891110"><time>2021-09-11T17:34:13.557</time></trkpt><trkpt lat="55.8373300" lon="49.1890880"><time>2021-09-11T17:34:15.557</time></trkpt><trkpt lat="55.8373410" lon="49.1890790"><time>2021-09-11T17:34:15.557</time></trkpt><trkpt lat="55.8373650" lon="49.1890630"><time>2021-09-11T17:34:16.557</time></trkpt><trkpt lat="55.8373890" lon="49.1890460"><time>2021-09-11T17:34:17.557</time></trkpt><trkpt lat="55.8374140" lon="49.1890290"><time>2021-09-11T17:34:18.557</time></trkpt><trkpt lat="55.8374370" lon="49.1890100"><time>2021-09-11T17:34:19.557</time></trkpt><trkpt lat="55.8374600" lon="49.1889910"><time>2021-09-11T17:34:20.557</time></trkpt><trkpt lat="55.8374840" lon="49.1889730"><time>2021-09-11T17:34:21.557</time></trkpt><trkpt lat="55.8375060" lon="49.1889550"><time>2021-09-11T17:34:22.557</time></trkpt><trkpt lat="55.8375270" lon="49.1889390"><time>2021-09-11T17:34:23.557</time></trkpt><trkpt lat="55.8375490" lon="49.1889250"><time>2021-09-11T17:34:24.557</time></trkpt><trkpt lat="55.8375710" lon="49.1889090"><time>2021-09-11T17:34:25.557</time></trkpt><trkpt lat="55.8375930" lon="49.1888930"><time>2021-09-11T17:34:26.557</time></trkpt><trkpt lat="55.8376150" lon="49.1888740"><time>2021-09-11T17:34:27.557</time></trkpt><trkpt lat="55.8376370" lon="49.1888550"><time>2021-09-11T17:34:28.557</time></trkpt><trkpt lat="55.8376580" lon="49.1888390"><time>2021-09-11T17:34:29.557</time></trkpt><trkpt lat="55.8376790" lon="49.1888230"><time>2021-09-11T17:34:30.557</time></trkpt><trkpt lat="55.8377010" lon="49.1888090"><time>2021-09-11T17:34:31.557</time></trkpt><trkpt lat="55.8377220" lon="49.1887950"><time>2021-09-11T17:34:32.557</time></trkpt><trkpt lat="55.8377430" lon="49.1887800"><time>2021-09-11T17:34:33.557</time></trkpt><trkpt lat="55.8377660" lon="49.1887650"><time>2021-09-11T17:34:34.557</time></trkpt><trkpt lat="55.8377880" lon="49.1887500"><time>2021-09-11T17:34:35.557</time></trkpt><trkpt lat="55.8378090" lon="49.1887330"><time>2021-09-11T17:34:36.557</time></trkpt><trkpt lat="55.8378300" lon="49.1887160"><time>2021-09-11T17:34:37.557</time></trkpt><trkpt lat="55.8378490" lon="49.1886970"><time>2021-09-11T17:34:38.557</time></trkpt><trkpt lat="55.8378660" lon="49.1886770"><time>2021-09-11T17:34:39.557</time></trkpt><trkpt lat="55.8378800" lon="49.1886400"><time>2021-09-11T17:34:40.557</time></trkpt><trkpt lat="55.8378840" lon="49.1886250"><time>2021-09-11T17:34:42.557</time></trkpt><trkpt lat="55.8378870" lon="49.1886090"><time>2021-09-11T17:34:42.557</time></trkpt><trkpt lat="55.8378860" lon="49.1885810"><time>2021-09-11T17:34:43.557</time></trkpt><trkpt lat="55.8378820" lon="49.1885510"><time>2021-09-11T17:34:44.557</time></trkpt><trkpt lat="55.8378760" lon="49.1885180"><time>2021-09-11T17:34:45.557</time></trkpt><trkpt lat="55.8378710" lon="49.1884860"><time>2021-09-11T17:34:46.557</time></trkpt><trkpt lat="55.8378600" lon="49.1884320"><time>2021-09-11T17:34:48.557</time></trkpt><trkpt lat="55.8378560" lon="49.1884120"><time>2021-09-11T17:34:48.557</time></trkpt><trkpt lat="55.8378470" lon="49.1883710"><time>2021-09-11T17:34:49.557</time></trkpt><trkpt lat="55.8378370" lon="49.1883310"><time>2021-09-11T17:34:50.557</time></trkpt><trkpt lat="55.8378270" lon="49.1882900"><time>2021-09-11T17:34:51.557</time></trkpt><trkpt lat="55.8378170" lon="49.1882480"><time>2021-09-11T17:34:52.557</time></trkpt><trkpt lat="55.8378060" lon="49.1882080"><time>2021-09-11T17:34:53.557</time></trkpt><trkpt lat="55.8377950" lon="49.1881700"><time>2021-09-11T17:34:54.557</time></trkpt><trkpt lat="55.8377840" lon="49.1881320"><time>2021-09-11T17:34:55.557</time></trkpt><trkpt lat="55.8377730" lon="49.1880930"><time>2021-09-11T17:34:56.557</time></trkpt><trkpt lat="55.8377560" lon="49.1880340"><time>2021-09-11T17:34:58.557</time></trkpt><trkpt lat="55.8377500" lon="49.1880150"><time>2021-09-11T17:34:58.557</time></trkpt><trkpt lat="55.8377390" lon="49.1879760"><time>2021-09-11T17:34:59.557</time></trkpt><trkpt lat="55.8377280" lon="49.1879390"><time>2021-09-11T17:35:00.557</time></trkpt><trkpt lat="55.8377170" lon="49.1879030"><time>2021-09-11T17:35:01.557</time></trkpt><trkpt lat="55.8377070" lon="49.1878670"><time>2021-09-11T17:35:02.557</time></trkpt><trkpt lat="55.8376990" lon="49.1878330"><time>2021-09-11T17:35:03.557</time></trkpt><trkpt lat="55.8376920" lon="49.1878020"><time>2021-09-11T17:35:04.557</time></trkpt><trkpt lat="55.8376850" lon="49.1877580"><time>2021-09-11T17:35:05.557</time></trkpt><trkpt lat="55.8376850" lon="49.1877380"><time>2021-09-11T17:35:06.557</time></trkpt><trkpt lat="55.8376840" lon="49.1877190"><time>2021-09-11T17:35:09.557</time></trkpt><trkpt lat="55.8376840" lon="49.1876990"><time>2021-09-11T17:35:10.557</time></trkpt><trkpt lat="55.8376830" lon="49.1876790"><time>2021-09-11T17:35:11.557</time></trkpt><trkpt lat="55.8376830" lon="49.1876590"><time>2021-09-11T17:35:12.557</time></trkpt><trkpt lat="55.8376820" lon="49.1876400"><time>2021-09-11T17:35:13.557</time></trkpt><trkpt lat="55.8376820" lon="49.1876200"><time>2021-09-11T17:35:15.557</time></trkpt><trkpt lat="55.8376810" lon="49.1876000"><time>2021-09-11T17:35:15.557</time></trkpt><trkpt lat="55.8376860" lon="49.1875590"><time>2021-09-11T17:35:16.557</time></trkpt><trkpt lat="55.8376900" lon="49.1875170"><time>2021-09-11T17:35:17.557</time></trkpt><trkpt lat="55.8376950" lon="49.1874720"><time>2021-09-11T17:35:18.557</time></trkpt><trkpt lat="55.8377000" lon="49.1874260"><time>2021-09-11T17:35:19.557</time></trkpt><trkpt lat="55.8377080" lon="49.1873580"><time>2021-09-11T17:35:21.557</time></trkpt><trkpt lat="55.8377110" lon="49.1873360"><time>2021-09-11T17:35:21.557</time></trkpt><trkpt lat="55.8377150" lon="49.1872910"><time>2021-09-11T17:35:22.557</time></trkpt><trkpt lat="55.8377200" lon="49.1872460"><time>2021-09-11T17:35:23.557</time></trkpt><trkpt lat="55.8377280" lon="49.1871790"><time>2021-09-11T17:35:25.557</time></trkpt><trkpt lat="55.8377300" lon="49.1871570"><time>2021-09-11T17:35:25.557</time></trkpt><trkpt lat="55.8377350" lon="49.1871130"><time>2021-09-11T17:35:26.557</time></trkpt><trkpt lat="55.8377400" lon="49.1870690"><time>2021-09-11T17:35:27.557</time></trkpt><trkpt lat="55.8377470" lon="49.1870250"><time>2021-09-11T17:35:28.557</time></trkpt><trkpt lat="55.8377550" lon="49.1869790"><time>2021-09-11T17:35:29.557</time></trkpt><trkpt lat="55.8377660" lon="49.1869100"><time>2021-09-11T17:35:31.557</time></trkpt><trkpt lat="55.8377700" lon="49.1868860"><time>2021-09-11T17:35:31.557</time></trkpt><trkpt lat="55.8377780" lon="49.1868410"><time>2021-09-11T17:35:32.557</time></trkpt><trkpt lat="55.8377850" lon="49.1867910"><time>2021-09-11T17:35:33.557</time></trkpt><trkpt lat="55.8377910" lon="49.1867450"><time>2021-09-11T17:35:34.557</time></trkpt><trkpt lat="55.8377970" lon="49.1866990"><time>2021-09-11T17:35:35.557</time></trkpt><trkpt lat="55.8378020" lon="49.1866530"><time>2021-09-11T17:35:36.557</time></trkpt><trkpt lat="55.8378080" lon="49.1866050"><time>2021-09-11T17:35:37.557</time></trkpt><trkpt lat="55.8378140" lon="49.1865590"><time>2021-09-11T17:35:38.557</time></trkpt><trkpt lat="55.8378190" lon="49.1865180"><time>2021-09-11T17:35:39.557</time></trkpt><trkpt lat="55.8378230" lon="49.1864770"><time>2021-09-11T17:35:40.557</time></trkpt><trkpt lat="55.8378270" lon="49.1864360"><time>2021-09-11T17:35:41.557</time></trkpt><trkpt lat="55.8378310" lon="49.1863950"><time>2021-09-11T17:35:42.557</time></trkpt><trkpt lat="55.8378340" lon="49.1863550"><time>2021-09-11T17:35:43.557</time></trkpt><trkpt lat="55.8378370" lon="49.1863120"><time>2021-09-11T17:35:44.557</time></trkpt><trkpt lat="55.8378400" lon="49.1862720"><time>2021-09-11T17:35:45.557</time></trkpt><trkpt lat="55.8378420" lon="49.1862330"><time>2021-09-11T17:35:46.557</time></trkpt><trkpt lat="55.8378450" lon="49.1861950"><time>2021-09-11T17:35:47.557</time></trkpt><trkpt lat="55.8378480" lon="49.1861570"><time>2021-09-11T17:35:48.557</time></trkpt><trkpt lat="55.8378500" lon="49.1861200"><time>2021-09-11T17:35:49.557</time></trkpt><trkpt lat="55.8378520" lon="49.1860840"><time>2021-09-11T17:35:50.557</time></trkpt><trkpt lat="55.8378550" lon="49.1860450"><time>2021-09-11T17:35:51.557</time></trkpt><trkpt lat="55.8378570" lon="49.1860000"><time>2021-09-11T17:35:52.557</time></trkpt><trkpt lat="55.8378600" lon="49.1859350"><time>2021-09-11T17:35:54.557</time></trkpt><trkpt lat="55.8378610" lon="49.1859140"><time>2021-09-11T17:35:54.557</time></trkpt><trkpt lat="55.8378630" lon="49.1858720"><time>2021-09-11T17:35:55.557</time></trkpt><trkpt lat="55.8378640" lon="49.1858300"><time>2021-09-11T17:35:56.557</time></trkpt><trkpt lat="55.8378630" lon="49.1857880"><time>2021-09-11T17:35:57.557</time></trkpt><trkpt lat="55.8378620" lon="49.1857440"><time>2021-09-11T17:35:58.557</time></trkpt><trkpt lat="55.8378590" lon="49.1856810"><time>2021-09-11T17:36:00.557</time></trkpt><trkpt lat="55.8378570" lon="49.1856610"><time>2021-09-11T17:36:00.557</time></trkpt><trkpt lat="55.8378540" lon="49.1856210"><time>2021-09-11T17:36:01.557</time></trkpt><trkpt lat="55.8378500" lon="49.1855800"><time>2021-09-11T17:36:02.557</time></trkpt><trkpt lat="55.8378440" lon="49.1855380"><time>2021-09-11T17:36:03.557</time></trkpt><trkpt lat="55.8378370" lon="49.1854990"><time>2021-09-11T17:36:04.557</time></trkpt><trkpt lat="55.8378290" lon="49.1854600"><time>2021-09-11T17:36:05.557</time></trkpt><trkpt lat="55.8378210" lon="49.1854230"><time>2021-09-11T17:36:06.557</time></trkpt><trkpt lat="55.8378130" lon="49.1853850"><time>2021-09-11T17:36:07.557</time></trkpt><trkpt lat="55.8378040" lon="49.1853460"><time>2021-09-11T17:36:08.557</time></trkpt><trkpt lat="55.8377950" lon="49.1853070"><time>2021-09-11T17:36:09.557</time></trkpt><trkpt lat="55.8377800" lon="49.1852520"><time>2021-09-11T17:36:11.557</time></trkpt><trkpt lat="55.8377750" lon="49.1852340"><time>2021-09-11T17:36:11.557</time></trkpt><trkpt lat="55.8377660" lon="49.1851950"><time>2021-09-11T17:36:12.557</time></trkpt><trkpt lat="55.8377580" lon="49.1851550"><time>2021-09-11T17:36:13.557</time></trkpt><trkpt lat="55.8377490" lon="49.1850920"><time>2021-09-11T17:36:15.557</time></trkpt><trkpt lat="55.8377460" lon="49.1850710"><time>2021-09-11T17:36:15.557</time></trkpt><trkpt lat="55.8377400" lon="49.1850280"><time>2021-09-11T17:36:16.557</time></trkpt><trkpt lat="55.8377350" lon="49.1849850"><time>2021-09-11T17:36:17.557</time></trkpt><trkpt lat="55.8377300" lon="49.1849420"><time>2021-09-11T17:36:18.557</time></trkpt><trkpt lat="55.8377260" lon="49.1849010"><time>2021-09-11T17:36:19.557</time></trkpt><trkpt lat="55.8377210" lon="49.1848410"><time>2021-09-11T17:36:21.557</time></trkpt><trkpt lat="55.8377190" lon="49.1848210"><time>2021-09-11T17:36:21.557</time></trkpt><trkpt lat="55.8377160" lon="49.1847800"><time>2021-09-11T17:36:22.557</time></trkpt><trkpt lat="55.8377140" lon="49.1847390"><time>2021-09-11T17:36:23.557</time></trkpt><trkpt lat="55.8377100" lon="49.1846780"><time>2021-09-11T17:36:25.557</time></trkpt><trkpt lat="55.8377090" lon="49.1846590"><time>2021-09-11T17:36:25.557</time></trkpt><trkpt lat="55.8377080" lon="49.1846240"><time>2021-09-11T17:36:26.557</time></trkpt><trkpt lat="55.8377060" lon="49.1845870"><time>2021-09-11T17:36:27.557</time></trkpt><trkpt lat="55.8377060" lon="49.1845770"><time>2021-09-11T17:36:30.557</time></trkpt><trkpt lat="55.8377060" lon="49.1845660"><time>2021-09-11T17:36:31.557</time></trkpt><trkpt lat="55.8377060" lon="49.1845560"><time>2021-09-11T17:36:32.557</time></trkpt><trkpt lat="55.8377060" lon="49.1845450"><time>2021-09-11T17:36:33.557</time></trkpt><trkpt lat="55.8377060" lon="49.1845350"><time>2021-09-11T17:36:34.557</time></trkpt><trkpt lat="55.8377060" lon="49.1845240"><time>2021-09-11T17:36:36.557</time></trkpt><trkpt lat="55.8377060" lon="49.1845140"><time>2021-09-11T17:36:38.557</time></trkpt><trkpt lat="55.8377060" lon="49.1845030"><time>2021-09-11T17:36:38.557</time></trkpt><trkpt lat="55.8376850" lon="49.1845150"><time>2021-09-11T17:36:39.557</time></trkpt><trkpt lat="55.8376730" lon="49.1845190"><time>2021-09-11T17:36:40.557</time></trkpt><trkpt lat="55.8376610" lon="49.1845240"><time>2021-09-11T17:36:41.557</time></trkpt><trkpt lat="55.8376480" lon="49.1845280"><time>2021-09-11T17:36:42.557</time></trkpt><trkpt lat="55.8376360" lon="49.1845330"><time>2021-09-11T17:36:44.557</time></trkpt><trkpt lat="55.8376240" lon="49.1845370"><time>2021-09-11T17:36:44.557</time></trkpt><trkpt lat="55.8376150" lon="49.1845370"><time>2021-09-11T17:36:45.557</time></trkpt><trkpt lat="55.8376110" lon="49.1845390"><time>2021-09-11T17:36:46.557</time></trkpt><trkpt lat="55.8376130" lon="49.1845410"><time>2021-09-11T17:36:47.557</time></trkpt><trkpt lat="55.8376190" lon="49.1845410"><time>2021-09-11T17:36:48.557</time></trkpt><trkpt lat="55.8376320" lon="49.1845350"><time>2021-09-11T17:36:49.557</time></trkpt><trkpt lat="55.8376490" lon="49.1845270"><time>2021-09-11T17:36:50.557</time></trkpt><trkpt lat="55.8376670" lon="49.1845160"><time>2021-09-11T17:36:51.557</time></trkpt><trkpt lat="55.8376840" lon="49.1845010"><time>2021-09-11T17:36:52.557</time></trkpt><trkpt lat="55.8376970" lon="49.1844790"><time>2021-09-11T17:36:53.557</time></trkpt><trkpt lat="55.8377090" lon="49.1844500"><time>2021-09-11T17:36:54.557</time></trkpt><trkpt lat="55.8377180" lon="49.1844190"><time>2021-09-11T17:36:55.557</time></trkpt><trkpt lat="55.8377250" lon="49.1843860"><time>2021-09-11T17:36:56.557</time></trkpt><trkpt lat="55.8377290" lon="49.1843480"><time>2021-09-11T17:36:57.557</time></trkpt><trkpt lat="55.8377330" lon="49.1843090"><time>2021-09-11T17:36:58.557</time></trkpt><trkpt lat="55.8377370" lon="49.1842690"><time>2021-09-11T17:36:59.557</time></trkpt><trkpt lat="55.8377400" lon="49.1842090"><time>2021-09-11T17:37:01.557</time></trkpt><trkpt lat="55.8377390" lon="49.1841900"><time>2021-09-11T17:37:01.557</time></trkpt><trkpt lat="55.8377370" lon="49.1841520"><time>2021-09-11T17:37:02.557</time></trkpt><trkpt lat="55.8377340" lon="49.1841170"><time>2021-09-11T17:37:03.557</time></trkpt><trkpt lat="55.8377290" lon="49.1840860"><time>2021-09-11T17:37:04.557</time></trkpt><trkpt lat="55.8377230" lon="49.1840600"><time>2021-09-11T17:37:05.557</time></trkpt><trkpt lat="55.8377100" lon="49.1840360"><time>2021-09-11T17:37:06.557</time></trkpt><trkpt lat="55.8376980" lon="49.1840120"><time>2021-09-11T17:37:07.557</time></trkpt><trkpt lat="55.8376880" lon="49.1839830"><time>2021-09-11T17:37:08.557</time></trkpt><trkpt lat="55.8376800" lon="49.1839450"><time>2021-09-11T17:37:09.557</time></trkpt><trkpt lat="55.8376760" lon="49.1839090"><time>2021-09-11T17:37:10.557</time></trkpt><trkpt lat="55.8376720" lon="49.1838530"><time>2021-09-11T17:37:12.557</time></trkpt><trkpt lat="55.8376700" lon="49.1838350"><time>2021-09-11T17:37:12.557</time></trkpt><trkpt lat="55.8376660" lon="49.1837970"><time>2021-09-11T17:37:13.557</time></trkpt><trkpt lat="55.8376620" lon="49.1837600"><time>2021-09-11T17:37:14.557</time></trkpt><trkpt lat="55.8376590" lon="49.1837200"><time>2021-09-11T17:37:15.557</time></trkpt><trkpt lat="55.8376530" lon="49.1836820"><time>2021-09-11T17:37:16.557</time></trkpt><trkpt lat="55.8376430" lon="49.1836240"><time>2021-09-11T17:37:18.557</time></trkpt><trkpt lat="55.8376390" lon="49.1836050"><time>2021-09-11T17:37:18.557</time></trkpt><trkpt lat="55.8376310" lon="49.1835670"><time>2021-09-11T17:37:19.557</time></trkpt><trkpt lat="55.8376230" lon="49.1835250"><time>2021-09-11T17:37:20.557</time></trkpt><trkpt lat="55.8376150" lon="49.1834850"><time>2021-09-11T17:37:21.557</time></trkpt><trkpt lat="55.8376070" lon="49.1834480"><time>2021-09-11T17:37:22.557</time></trkpt><trkpt lat="55.8375990" lon="49.1834140"><time>2021-09-11T17:37:23.557</time></trkpt><trkpt lat="55.8375900" lon="49.1833850"><time>2021-09-11T17:37:24.557</time></trkpt><trkpt lat="55.8375800" lon="49.1833610"><time>2021-09-11T17:37:25.557</time></trkpt><trkpt lat="55.8375680" lon="49.1833430"><time>2021-09-11T17:37:26.557</time></trkpt><trkpt lat="55.8375530" lon="49.1833290"><time>2021-09-11T17:37:27.557</time></trkpt><trkpt lat="55.8375360" lon="49.1833200"><time>2021-09-11T17:37:28.557</time></trkpt><trkpt lat="55.8375170" lon="49.1833130"><time>2021-09-11T17:37:29.557</time></trkpt><trkpt lat="55.8374970" lon="49.1833040"><time>2021-09-11T17:37:30.557</time></trkpt><trkpt lat="55.8374730" lon="49.1832970"><time>2021-09-11T17:37:31.557</time></trkpt><trkpt lat="55.8374500" lon="49.1832930"><time>2021-09-11T17:37:32.557</time></trkpt><trkpt lat="55.8374260" lon="49.1832900"><time>2021-09-11T17:37:33.557</time></trkpt><trkpt lat="55.8374010" lon="49.1832840"><time>2021-09-11T17:37:34.557</time></trkpt><trkpt lat="55.8373770" lon="49.1832750"><time>2021-09-11T17:37:35.557</time></trkpt><trkpt lat="55.8373530" lon="49.1832590"><time>2021-09-11T17:37:36.557</time></trkpt><trkpt lat="55.8373300" lon="49.1832440"><time>2021-09-11T17:37:37.557</time></trkpt><trkpt lat="55.8373060" lon="49.1832280"><time>2021-09-11T17:37:38.557</time></trkpt><trkpt lat="55.8372820" lon="49.1832120"><time>2021-09-11T17:37:39.557</time></trkpt><trkpt lat="55.8372590" lon="49.1832000"><time>2021-09-11T17:37:40.557</time></trkpt><trkpt lat="55.8372360" lon="49.1831930"><time>2021-09-11T17:37:41.557</time></trkpt><trkpt lat="55.8372100" lon="49.1831890"><time>2021-09-11T17:37:42.557</time></trkpt><trkpt lat="55.8371840" lon="49.1831880"><time>2021-09-11T17:37:43.557</time></trkpt><trkpt lat="55.8371470" lon="49.1831860"><time>2021-09-11T17:37:45.557</time></trkpt><trkpt lat="55.8371350" lon="49.1831860"><time>2021-09-11T17:37:45.557</time></trkpt><trkpt lat="55.8371070" lon="49.1831870"><time>2021-09-11T17:37:46.557</time></trkpt><trkpt lat="55.8370790" lon="49.1831890"><time>2021-09-11T17:37:47.557</time></trkpt><trkpt lat="55.8370540" lon="49.1831910"><time>2021-09-11T17:37:48.557</time></trkpt><trkpt lat="55.8370280" lon="49.1831950"><time>2021-09-11T17:37:49.557</time></trkpt><trkpt lat="55.8370040" lon="49.1831970"><time>2021-09-11T17:37:50.557</time></trkpt><trkpt lat="55.8369800" lon="49.1831960"><time>2021-09-11T17:37:51.557</time></trkpt><trkpt lat="55.8369570" lon="49.1831950"><time>2021-09-11T17:37:52.557</time></trkpt><trkpt lat="55.8369340" lon="49.1831930"><time>2021-09-11T17:37:53.557</time></trkpt><trkpt lat="55.8368990" lon="49.1831880"><time>2021-09-11T17:37:55.557</time></trkpt><trkpt lat="55.8368870" lon="49.1831870"><time>2021-09-11T17:37:55.557</time></trkpt><trkpt lat="55.8368640" lon="49.1831800"><time>2021-09-11T17:37:56.557</time></trkpt><trkpt lat="55.8368410" lon="49.1831740"><time>2021-09-11T17:37:57.557</time></trkpt><trkpt lat="55.8368180" lon="49.1831660"><time>2021-09-11T17:37:58.557</time></trkpt><trkpt lat="55.8367950" lon="49.1831570"><time>2021-09-11T17:37:59.557</time></trkpt><trkpt lat="55.8367750" lon="49.1831480"><time>2021-09-11T17:38:00.557</time></trkpt><trkpt lat="55.8367530" lon="49.1831370"><time>2021-09-11T17:38:01.557</time></trkpt><trkpt lat="55.8367310" lon="49.1831240"><time>2021-09-11T17:38:02.557</time></trkpt><trkpt lat="55.8367080" lon="49.1831130"><time>2021-09-11T17:38:03.557</time></trkpt><trkpt lat="55.8366850" lon="49.1831040"><time>2021-09-11T17:38:04.557</time></trkpt><trkpt lat="55.8366510" lon="49.1830970"><time>2021-09-11T17:38:06.557</time></trkpt><trkpt lat="55.8366400" lon="49.1830960"><time>2021-09-11T17:38:06.557</time></trkpt><trkpt lat="55.8366210" lon="49.1830940"><time>2021-09-11T17:38:07.557</time></trkpt><trkpt lat="55.8366040" lon="49.1830920"><time>2021-09-11T17:38:08.557</time></trkpt><trkpt lat="55.8365900" lon="49.1830890"><time>2021-09-11T17:38:09.557</time></trkpt><trkpt lat="55.8365800" lon="49.1830860"><time>2021-09-11T17:38:10.557</time></trkpt><trkpt lat="55.8365560" lon="49.1830790"><time>2021-09-11T17:38:12.557</time></trkpt><trkpt lat="55.8365570" lon="49.1830810"><time>2021-09-11T17:38:16.557</time></trkpt><trkpt lat="55.8365580" lon="49.1830810"><time>2021-09-11T17:38:17.557</time></trkpt><trkpt lat="55.8365620" lon="49.1830830"><time>2021-09-11T17:38:20.557</time></trkpt><trkpt lat="55.8365650" lon="49.1830820"><time>2021-09-11T17:38:21.557</time></trkpt><trkpt lat="55.8365710" lon="49.1830810"><time>2021-09-11T17:38:22.557</time></trkpt><trkpt lat="55.8365790" lon="49.1830800"><time>2021-09-11T17:38:23.557</time></trkpt><trkpt lat="55.8365890" lon="49.1830790"><time>2021-09-11T17:38:24.557</time></trkpt><trkpt lat="55.8366000" lon="49.1830780"><time>2021-09-11T17:38:25.557</time></trkpt><trkpt lat="55.8366130" lon="49.1830760"><time>2021-09-11T17:38:26.557</time></trkpt><trkpt lat="55.8366260" lon="49.1830750"><time>2021-09-11T17:38:27.557</time></trkpt><trkpt lat="55.8366400" lon="49.1830770"><time>2021-09-11T17:38:28.557</time></trkpt><trkpt lat="55.8366520" lon="49.1830800"><time>2021-09-11T17:38:29.557</time></trkpt><trkpt lat="55.8366650" lon="49.1830850"><time>2021-09-11T17:38:30.557</time></trkpt><trkpt lat="55.8366770" lon="49.1830930"><time>2021-09-11T17:38:31.557</time></trkpt><trkpt lat="55.8366910" lon="49.1831020"><time>2021-09-11T17:38:32.557</time></trkpt><trkpt lat="55.8367070" lon="49.1831130"><time>2021-09-11T17:38:33.557</time></trkpt><trkpt lat="55.8367250" lon="49.1831230"><time>2021-09-11T17:38:34.557</time></trkpt><trkpt lat="55.8367460" lon="49.1831320"><time>2021-09-11T17:38:35.557</time></trkpt><trkpt lat="55.8367660" lon="49.1831420"><time>2021-09-11T17:38:36.557</time></trkpt><trkpt lat="55.8367880" lon="49.1831510"><time>2021-09-11T17:38:37.557</time></trkpt><trkpt lat="55.8368100" lon="49.1831590"><time>2021-09-11T17:38:38.557</time></trkpt><trkpt lat="55.8368350" lon="49.1831640"><time>2021-09-11T17:38:39.557</time></trkpt><trkpt lat="55.8368600" lon="49.1831680"><time>2021-09-11T17:38:40.557</time></trkpt><trkpt lat="55.8368840" lon="49.1831730"><time>2021-09-11T17:38:41.557</time></trkpt><trkpt lat="55.8369080" lon="49.1831790"><time>2021-09-11T17:38:42.557</time></trkpt><trkpt lat="55.8369320" lon="49.1831820"><time>2021-09-11T17:38:43.557</time></trkpt><trkpt lat="55.8369560" lon="49.1831830"><time>2021-09-11T17:38:44.557</time></trkpt><trkpt lat="55.8369800" lon="49.1831840"><time>2021-09-11T17:38:45.557</time></trkpt><trkpt lat="55.8370040" lon="49.1831860"><time>2021-09-11T17:38:46.557</time></trkpt><trkpt lat="55.8370270" lon="49.1831880"><time>2021-09-11T17:38:47.557</time></trkpt><trkpt lat="55.8370500" lon="49.1831910"><time>2021-09-11T17:38:48.557</time></trkpt><trkpt lat="55.8370740" lon="49.1831920"><time>2021-09-11T17:38:49.557</time></trkpt><trkpt lat="55.8370990" lon="49.1831930"><time>2021-09-11T17:38:50.557</time></trkpt><trkpt lat="55.8371230" lon="49.1831940"><time>2021-09-11T17:38:51.557</time></trkpt><trkpt lat="55.8371480" lon="49.1831950"><time>2021-09-11T17:38:52.557</time></trkpt><trkpt lat="55.8371840" lon="49.1832030"><time>2021-09-11T17:38:54.557</time></trkpt><trkpt lat="55.8371950" lon="49.1832070"><time>2021-09-11T17:38:54.557</time></trkpt><trkpt lat="55.8372210" lon="49.1832190"><time>2021-09-11T17:38:55.557</time></trkpt><trkpt lat="55.8372440" lon="49.1832330"><time>2021-09-11T17:38:56.557</time></trkpt><trkpt lat="55.8372670" lon="49.1832490"><time>2021-09-11T17:38:57.557</time></trkpt><trkpt lat="55.8372890" lon="49.1832660"><time>2021-09-11T17:38:58.557</time></trkpt><trkpt lat="55.8373110" lon="49.1832860"><time>2021-09-11T17:38:59.557</time></trkpt><trkpt lat="55.8373320" lon="49.1833080"><time>2021-09-11T17:39:00.557</time></trkpt><trkpt lat="55.8373510" lon="49.1833300"><time>2021-09-11T17:39:01.557</time></trkpt><trkpt lat="55.8373690" lon="49.1833530"><time>2021-09-11T17:39:02.557</time></trkpt><trkpt lat="55.8373880" lon="49.1833740"><time>2021-09-11T17:39:03.557</time></trkpt><trkpt lat="55.8374070" lon="49.1833920"><time>2021-09-11T17:39:04.557</time></trkpt><trkpt lat="55.8374290" lon="49.1834080"><time>2021-09-11T17:39:05.557</time></trkpt><trkpt lat="55.8374500" lon="49.1834220"><time>2021-09-11T17:39:06.557</time></trkpt><trkpt lat="55.8374710" lon="49.1834350"><time>2021-09-11T17:39:07.557</time></trkpt><trkpt lat="55.8374950" lon="49.1834500"><time>2021-09-11T17:39:08.557</time></trkpt><trkpt lat="55.8375160" lon="49.1834630"><time>2021-09-11T17:39:09.557</time></trkpt><trkpt lat="55.8375370" lon="49.1834780"><time>2021-09-11T17:39:10.557</time></trkpt><trkpt lat="55.8375580" lon="49.1834950"><time>2021-09-11T17:39:11.557</time></trkpt><trkpt lat="55.8375780" lon="49.1835190"><time>2021-09-11T17:39:12.557</time></trkpt><trkpt lat="55.8375950" lon="49.1835470"><time>2021-09-11T17:39:13.557</time></trkpt><trkpt lat="55.8376080" lon="49.1835780"><time>2021-09-11T17:39:14.557</time></trkpt><trkpt lat="55.8376170" lon="49.1836110"><time>2021-09-11T17:39:15.557</time></trkpt><trkpt lat="55.8376230" lon="49.1836440"><time>2021-09-11T17:39:16.557</time></trkpt><trkpt lat="55.8376280" lon="49.1836770"><time>2021-09-11T17:39:17.557</time></trkpt><trkpt lat="55.8376310" lon="49.1837140"><time>2021-09-11T17:39:18.557</time></trkpt><trkpt lat="55.8376310" lon="49.1837500"><time>2021-09-11T17:39:19.557</time></trkpt><trkpt lat="55.8376310" lon="49.1837880"><time>2021-09-11T17:39:20.557</time></trkpt><trkpt lat="55.8376330" lon="49.1838270"><time>2021-09-11T17:39:21.557</time></trkpt><trkpt lat="55.8376400" lon="49.1838630"><time>2021-09-11T17:39:22.557</time></trkpt><trkpt lat="55.8376500" lon="49.1838910"><time>2021-09-11T17:39:23.557</time></trkpt><trkpt lat="55.8376640" lon="49.1839150"><time>2021-09-11T17:39:24.557</time></trkpt><trkpt lat="55.8376800" lon="49.1839380"><time>2021-09-11T17:39:24.557</time></trkpt><trkpt lat="55.8376950" lon="49.1839630"><time>2021-09-11T17:39:25.557</time></trkpt><trkpt lat="55.8377080" lon="49.1839930"><time>2021-09-11T17:39:26.557</time></trkpt><trkpt lat="55.8377210" lon="49.1840290"><time>2021-09-11T17:39:27.557</time></trkpt><trkpt lat="55.8377300" lon="49.1840690"><time>2021-09-11T17:39:28.557</time></trkpt><trkpt lat="55.8377360" lon="49.1841110"><time>2021-09-11T17:39:29.557</time></trkpt><trkpt lat="55.8377390" lon="49.1841570"><time>2021-09-11T17:39:30.557</time></trkpt><trkpt lat="55.8377400" lon="49.1842030"><time>2021-09-11T17:39:31.557</time></trkpt><trkpt lat="55.8377400" lon="49.1842540"><time>2021-09-11T17:39:32.557</time></trkpt><trkpt lat="55.8377400" lon="49.1843010"><time>2021-09-11T17:39:33.557</time></trkpt><trkpt lat="55.8377390" lon="49.1843680"><time>2021-09-11T17:39:35.557</time></trkpt><trkpt lat="55.8377380" lon="49.1843900"><time>2021-09-11T17:39:35.557</time></trkpt><trkpt lat="55.8377370" lon="49.1844350"><time>2021-09-11T17:39:36.557</time></trkpt><trkpt lat="55.8377350" lon="49.1844810"><time>2021-09-11T17:39:37.557</time></trkpt><trkpt lat="55.8377310" lon="49.1845270"><time>2021-09-11T17:39:38.557</time></trkpt><trkpt lat="55.8377280" lon="49.1845730"><time>2021-09-11T17:39:39.557</time></trkpt><trkpt lat="55.8377260" lon="49.1846410"><time>2021-09-11T17:39:41.557</time></trkpt><trkpt lat="55.8377250" lon="49.1846630"><time>2021-09-11T17:39:41.557</time></trkpt><trkpt lat="55.8377260" lon="49.1847080"><time>2021-09-11T17:39:42.557</time></trkpt><trkpt lat="55.8377260" lon="49.1847530"><time>2021-09-11T17:39:43.557</time></trkpt><trkpt lat="55.8377270" lon="49.1847980"><time>2021-09-11T17:39:44.557</time></trkpt><trkpt lat="55.8377280" lon="49.1848440"><time>2021-09-11T17:39:45.557</time></trkpt><trkpt lat="55.8377300" lon="49.1848880"><time>2021-09-11T17:39:46.557</time></trkpt><trkpt lat="55.8377320" lon="49.1849320"><time>2021-09-11T17:39:47.557</time></trkpt><trkpt lat="55.8377340" lon="49.1849740"><time>2021-09-11T17:39:48.557</time></trkpt><trkpt lat="55.8377370" lon="49.1850150"><time>2021-09-11T17:39:49.557</time></trkpt><trkpt lat="55.8377400" lon="49.1850560"><time>2021-09-11T17:39:50.557</time></trkpt><trkpt lat="55.8377440" lon="49.1850960"><time>2021-09-11T17:39:51.557</time></trkpt><trkpt lat="55.8377480" lon="49.1851370"><time>2021-09-11T17:39:52.557</time></trkpt><trkpt lat="55.8377540" lon="49.1851790"><time>2021-09-11T17:39:53.557</time></trkpt><trkpt lat="55.8377610" lon="49.1852160"><time>2021-09-11T17:39:54.557</time></trkpt><trkpt lat="55.8377690" lon="49.1852510"><time>2021-09-11T17:39:55.557</time></trkpt><trkpt lat="55.8377760" lon="49.1852870"><time>2021-09-11T17:39:56.557</time></trkpt><trkpt lat="55.8377840" lon="49.1853230"><time>2021-09-11T17:39:57.557</time></trkpt><trkpt lat="55.8377940" lon="49.1853580"><time>2021-09-11T17:39:58.557</time></trkpt><trkpt lat="55.8378040" lon="49.1853930"><time>2021-09-11T17:39:59.557</time></trkpt><trkpt lat="55.8378140" lon="49.1854320"><time>2021-09-11T17:40:00.557</time></trkpt><trkpt lat="55.8378250" lon="49.1854690"><time>2021-09-11T17:40:01.557</time></trkpt><trkpt lat="55.8378330" lon="49.1855070"><time>2021-09-11T17:40:02.557</time></trkpt><trkpt lat="55.8378440" lon="49.1855650"><time>2021-09-11T17:40:04.557</time></trkpt><trkpt lat="55.8378460" lon="49.1855850"><time>2021-09-11T17:40:04.557</time></trkpt><trkpt lat="55.8378510" lon="49.1856240"><time>2021-09-11T17:40:05.557</time></trkpt><trkpt lat="55.8378550" lon="49.1856630"><time>2021-09-11T17:40:06.557</time></trkpt><trkpt lat="55.8378570" lon="49.1857220"><time>2021-09-11T17:40:08.557</time></trkpt><trkpt lat="55.8378560" lon="49.1857410"><time>2021-09-11T17:40:08.557</time></trkpt><trkpt lat="55.8378560" lon="49.1857800"><time>2021-09-11T17:40:09.557</time></trkpt><trkpt lat="55.8378550" lon="49.1858180"><time>2021-09-11T17:40:10.557</time></trkpt><trkpt lat="55.8378520" lon="49.1858560"><time>2021-09-11T17:40:11.557</time></trkpt><trkpt lat="55.8378500" lon="49.1858930"><time>2021-09-11T17:40:12.557</time></trkpt><trkpt lat="55.8378500" lon="49.1859460"><time>2021-09-11T17:40:14.557</time></trkpt><trkpt lat="55.8378500" lon="49.1859630"><time>2021-09-11T17:40:14.557</time></trkpt><trkpt lat="55.8378500" lon="49.1859980"><time>2021-09-11T17:40:15.557</time></trkpt><trkpt lat="55.8378500" lon="49.1860350"><time>2021-09-11T17:40:16.557</time></trkpt><trkpt lat="55.8378490" lon="49.1860730"><time>2021-09-11T17:40:17.557</time></trkpt><trkpt lat="55.8378440" lon="49.1861120"><time>2021-09-11T17:40:18.557</time></trkpt><trkpt lat="55.8378350" lon="49.1861740"><time>2021-09-11T17:40:20.557</time></trkpt><trkpt lat="55.8378320" lon="49.1861940"><time>2021-09-11T17:40:20.557</time></trkpt><trkpt lat="55.8378260" lon="49.1862390"><time>2021-09-11T17:40:21.557</time></trkpt><trkpt lat="55.8378190" lon="49.1862810"><time>2021-09-11T17:40:22.557</time></trkpt><trkpt lat="55.8378110" lon="49.1863440"><time>2021-09-11T17:40:24.557</time></trkpt><trkpt lat="55.8378080" lon="49.1863660"><time>2021-09-11T17:40:24.557</time></trkpt><trkpt lat="55.8378020" lon="49.1864090"><time>2021-09-11T17:40:25.557</time></trkpt><trkpt lat="55.8377980" lon="49.1864520"><time>2021-09-11T17:40:26.557</time></trkpt><trkpt lat="55.8377930" lon="49.1864940"><time>2021-09-11T17:40:27.557</time></trkpt><trkpt lat="55.8377870" lon="49.1865370"><time>2021-09-11T17:40:28.557</time></trkpt><trkpt lat="55.8377820" lon="49.1865810"><time>2021-09-11T17:40:29.557</time></trkpt><trkpt lat="55.8377790" lon="49.1866260"><time>2021-09-11T17:40:30.557</time></trkpt><trkpt lat="55.8377770" lon="49.1866710"><time>2021-09-11T17:40:31.557</time></trkpt><trkpt lat="55.8377750" lon="49.1867170"><time>2021-09-11T17:40:32.557</time></trkpt><trkpt lat="55.8377710" lon="49.1867580"><time>2021-09-11T17:40:33.557</time></trkpt><trkpt lat="55.8377690" lon="49.1867980"><time>2021-09-11T17:40:34.557</time></trkpt><trkpt lat="55.8377650" lon="49.1868390"><time>2021-09-11T17:40:35.557</time></trkpt><trkpt lat="55.8377600" lon="49.1868810"><time>2021-09-11T17:40:36.557</time></trkpt><trkpt lat="55.8377540" lon="49.1869190"><time>2021-09-11T17:40:37.557</time></trkpt><trkpt lat="55.8377490" lon="49.1869560"><time>2021-09-11T17:40:38.557</time></trkpt><trkpt lat="55.8377440" lon="49.1869960"><time>2021-09-11T17:40:39.557</time></trkpt><trkpt lat="55.8377360" lon="49.1870560"><time>2021-09-11T17:40:41.557</time></trkpt><trkpt lat="55.8377330" lon="49.1870750"><time>2021-09-11T17:40:41.557</time></trkpt><trkpt lat="55.8377260" lon="49.1871150"><time>2021-09-11T17:40:42.557</time></trkpt><trkpt lat="55.8377200" lon="49.1871530"><time>2021-09-11T17:40:43.557</time></trkpt><trkpt lat="55.8377160" lon="49.1871910"><time>2021-09-11T17:40:44.557</time></trkpt><trkpt lat="55.8377110" lon="49.1872300"><time>2021-09-11T17:40:45.557</time></trkpt><trkpt lat="55.8377050" lon="49.1872690"><time>2021-09-11T17:40:46.557</time></trkpt><trkpt lat="55.8376980" lon="49.1873100"><time>2021-09-11T17:40:47.557</time></trkpt><trkpt lat="55.8376910" lon="49.1873500"><time>2021-09-11T17:40:48.557</time></trkpt><trkpt lat="55.8376860" lon="49.1873910"><time>2021-09-11T17:40:49.557</time></trkpt><trkpt lat="55.8376800" lon="49.1874500"><time>2021-09-11T17:40:51.557</time></trkpt><trkpt lat="55.8376780" lon="49.1874690"><time>2021-09-11T17:40:51.557</time></trkpt><trkpt lat="55.8376750" lon="49.1875050"><time>2021-09-11T17:40:52.557</time></trkpt><trkpt lat="55.8376720" lon="49.1875450"><time>2021-09-11T17:40:53.557</time></trkpt><trkpt lat="55.8376700" lon="49.1875830"><time>2021-09-11T17:40:54.557</time></trkpt><trkpt lat="55.8376680" lon="49.1876200"><time>2021-09-11T17:40:55.557</time></trkpt><trkpt lat="55.8376670" lon="49.1876770"><time>2021-09-11T17:40:57.557</time></trkpt><trkpt lat="55.8376670" lon="49.1876960"><time>2021-09-11T17:40:57.557</time></trkpt><trkpt lat="55.8376690" lon="49.1877340"><time>2021-09-11T17:40:58.557</time></trkpt><trkpt lat="55.8376720" lon="49.1877720"><time>2021-09-11T17:40:59.557</time></trkpt><trkpt lat="55.8376790" lon="49.1878090"><time>2021-09-11T17:41:00.557</time></trkpt><trkpt lat="55.8376860" lon="49.1878420"><time>2021-09-11T17:41:01.557</time></trkpt><trkpt lat="55.8377000" lon="49.1878940"><time>2021-09-11T17:41:03.557</time></trkpt><trkpt lat="55.8377040" lon="49.1879130"><time>2021-09-11T17:41:03.557</time></trkpt><trkpt lat="55.8377130" lon="49.1879470"><time>2021-09-11T17:41:04.557</time></trkpt><trkpt lat="55.8377220" lon="49.1879840"><time>2021-09-11T17:41:05.557</time></trkpt><trkpt lat="55.8377300" lon="49.1880180"><time>2021-09-11T17:41:06.557</time></trkpt><trkpt lat="55.8377430" lon="49.1880720"><time>2021-09-11T17:41:08.557</time></trkpt><trkpt lat="55.8377470" lon="49.1880900"><time>2021-09-11T17:41:08.557</time></trkpt><trkpt lat="55.8377550" lon="49.1881260"><time>2021-09-11T17:41:09.557</time></trkpt><trkpt lat="55.8377630" lon="49.1881610"><time>2021-09-11T17:41:10.557</time></trkpt><trkpt lat="55.8377710" lon="49.1881980"><time>2021-09-11T17:41:11.557</time></trkpt><trkpt lat="55.8377810" lon="49.1882340"><time>2021-09-11T17:41:12.557</time></trkpt><trkpt lat="55.8377910" lon="49.1882710"><time>2021-09-11T17:41:13.557</time></trkpt><trkpt lat="55.8378010" lon="49.1883060"><time>2021-09-11T17:41:14.557</time></trkpt><trkpt lat="55.8378110" lon="49.1883410"><time>2021-09-11T17:41:15.557</time></trkpt><trkpt lat="55.8378200" lon="49.1883740"><time>2021-09-11T17:41:16.557</time></trkpt><trkpt lat="55.8378300" lon="49.1884060"><time>2021-09-11T17:41:17.557</time></trkpt><trkpt lat="55.8378400" lon="49.1884370"><time>2021-09-11T17:41:18.557</time></trkpt><trkpt lat="55.8378520" lon="49.1884650"><time>2021-09-11T17:41:19.557</time></trkpt><trkpt lat="55.8378640" lon="49.1884910"><time>2021-09-11T17:41:20.557</time></trkpt><trkpt lat="55.8378770" lon="49.1885120"><time>2021-09-11T17:41:21.557</time></trkpt><trkpt lat="55.8378910" lon="49.1885300"><time>2021-09-11T17:41:22.557</time></trkpt><trkpt lat="55.8379050" lon="49.1885440"><time>2021-09-11T17:41:23.557</time></trkpt><trkpt lat="55.8379210" lon="49.1885540"><time>2021-09-11T17:41:24.557</time></trkpt><trkpt lat="55.8379400" lon="49.1885620"><time>2021-09-11T17:41:25.557</time></trkpt><trkpt lat="55.8379590" lon="49.1885670"><time>2021-09-11T17:41:26.557</time></trkpt><trkpt lat="55.8379800" lon="49.1885680"><time>2021-09-11T17:41:27.557</time></trkpt><trkpt lat="55.8380010" lon="49.1885670"><time>2021-09-11T17:41:28.557</time></trkpt><trkpt lat="55.8380220" lon="49.1885650"><time>2021-09-11T17:41:29.557</time></trkpt><trkpt lat="55.8380430" lon="49.1885620"><time>2021-09-11T17:41:30.557</time></trkpt><trkpt lat="55.8380650" lon="49.1885570"><time>2021-09-11T17:41:31.557</time></trkpt><trkpt lat="55.8380890" lon="49.1885500"><time>2021-09-11T17:41:32.557</time></trkpt><trkpt lat="55.8381130" lon="49.1885410"><time>2021-09-11T17:41:33.557</time></trkpt><trkpt lat="55.8381460" lon="49.1885260"><time>2021-09-11T17:41:35.557</time></trkpt><trkpt lat="55.8381570" lon="49.1885200"><time>2021-09-11T17:41:35.557</time></trkpt><trkpt lat="55.8381780" lon="49.1885110"><time>2021-09-11T17:41:36.557</time></trkpt><trkpt lat="55.8381970" lon="49.1885020"><time>2021-09-11T17:41:37.557</time></trkpt><trkpt lat="55.8382140" lon="49.1884920"><time>2021-09-11T17:41:38.557</time></trkpt><trkpt lat="55.8382320" lon="49.1884810"><time>2021-09-11T17:41:39.557</time></trkpt><trkpt lat="55.8382610" lon="49.1884600"><time>2021-09-11T17:41:41.557</time></trkpt><trkpt lat="55.8382700" lon="49.1884520"><time>2021-09-11T17:41:41.557</time></trkpt><trkpt lat="55.8382900" lon="49.1884350"><time>2021-09-11T17:41:42.557</time></trkpt><trkpt lat="55.8383090" lon="49.1884160"><time>2021-09-11T17:41:43.557</time></trkpt><trkpt lat="55.8383310" lon="49.1883940"><time>2021-09-11T17:41:44.557</time></trkpt><trkpt lat="55.8383510" lon="49.1883730"><time>2021-09-11T17:41:45.557</time></trkpt><trkpt lat="55.8383830" lon="49.1883450"><time>2021-09-11T17:41:47.557</time></trkpt><trkpt lat="55.8383940" lon="49.1883360"><time>2021-09-11T17:41:47.557</time></trkpt><trkpt lat="55.8384150" lon="49.1883200"><time>2021-09-11T17:41:48.557</time></trkpt><trkpt lat="55.8384370" lon="49.1883050"><time>2021-09-11T17:41:49.557</time></trkpt><trkpt lat="55.8384590" lon="49.1882910"><time>2021-09-11T17:41:50.557</time></trkpt><trkpt lat="55.8384800" lon="49.1882770"><time>2021-09-11T17:41:51.557</time></trkpt><trkpt lat="55.8385000" lon="49.1882670"><time>2021-09-11T17:41:52.557</time></trkpt><trkpt lat="55.8385220" lon="49.1882570"><time>2021-09-11T17:41:53.557</time></trkpt><trkpt lat="55.8385430" lon="49.1882480"><time>2021-09-11T17:41:54.557</time></trkpt><trkpt lat="55.8385640" lon="49.1882380"><time>2021-09-11T17:41:55.557</time></trkpt><trkpt lat="55.8385860" lon="49.1882300"><time>2021-09-11T17:41:56.557</time></trkpt><trkpt lat="55.8386090" lon="49.1882210"><time>2021-09-11T17:41:57.557</time></trkpt><trkpt lat="55.8386320" lon="49.1882110"><time>2021-09-11T17:41:58.557</time></trkpt><trkpt lat="55.8386570" lon="49.1882010"><time>2021-09-11T17:41:59.557</time></trkpt><trkpt lat="55.8386810" lon="49.1881910"><time>2021-09-11T17:42:00.557</time></trkpt><trkpt lat="55.8387050" lon="49.1881820"><time>2021-09-11T17:42:01.557</time></trkpt><trkpt lat="55.8387290" lon="49.1881730"><time>2021-09-11T17:42:02.557</time></trkpt><trkpt lat="55.8387630" lon="49.1881600"><time>2021-09-11T17:42:04.557</time></trkpt><trkpt lat="55.8387730" lon="49.1881560"><time>2021-09-11T17:42:04.557</time></trkpt><trkpt lat="55.8387960" lon="49.1881460"><time>2021-09-11T17:42:05.557</time></trkpt><trkpt lat="55.8388200" lon="49.1881380"><time>2021-09-11T17:42:06.557</time></trkpt><trkpt lat="55.8388410" lon="49.1881320"><time>2021-09-11T17:42:07.557</time></trkpt><trkpt lat="55.8388640" lon="49.1881250"><time>2021-09-11T17:42:08.557</time></trkpt><trkpt lat="55.8388840" lon="49.1881200"><time>2021-09-11T17:42:09.557</time></trkpt><trkpt lat="55.8389040" lon="49.1881130"><time>2021-09-11T17:42:10.557</time></trkpt><trkpt lat="55.8389250" lon="49.1881050"><time>2021-09-11T17:42:11.557</time></trkpt><trkpt lat="55.8389460" lon="49.1880950"><time>2021-09-11T17:42:12.557</time></trkpt><trkpt lat="55.8389660" lon="49.1880840"><time>2021-09-11T17:42:13.557</time></trkpt><trkpt lat="55.8389880" lon="49.1880730"><time>2021-09-11T17:42:14.557</time></trkpt><trkpt lat="55.8390090" lon="49.1880630"><time>2021-09-11T17:42:15.557</time></trkpt><trkpt lat="55.8390300" lon="49.1880540"><time>2021-09-11T17:42:16.557</time></trkpt><trkpt lat="55.8390510" lon="49.1880420"><time>2021-09-11T17:42:17.557</time></trkpt><trkpt lat="55.8390730" lon="49.1880300"><time>2021-09-11T17:42:18.557</time></trkpt><trkpt lat="55.8390960" lon="49.1880180"><time>2021-09-11T17:42:19.557</time></trkpt><trkpt lat="55.8391190" lon="49.1880060"><time>2021-09-11T17:42:20.557</time></trkpt><trkpt lat="55.8391420" lon="49.1879950"><time>2021-09-11T17:42:21.557</time></trkpt><trkpt lat="55.8391640" lon="49.1879840"><time>2021-09-11T17:42:22.557</time></trkpt><trkpt lat="55.8391880" lon="49.1879720"><time>2021-09-11T17:42:23.557</time></trkpt><trkpt lat="55.8392110" lon="49.1879600"><time>2021-09-11T17:42:24.557</time></trkpt><trkpt lat="55.8392350" lon="49.1879470"><time>2021-09-11T17:42:25.557</time></trkpt><trkpt lat="55.8392570" lon="49.1879340"><time>2021-09-11T17:42:26.557</time></trkpt><trkpt lat="55.8392810" lon="49.1879220"><time>2021-09-11T17:42:27.557</time></trkpt><trkpt lat="55.8393180" lon="49.1879030"><time>2021-09-11T17:42:29.557</time></trkpt><trkpt lat="55.8393290" lon="49.1878970"><time>2021-09-11T17:42:29.557</time></trkpt><trkpt lat="55.8393500" lon="49.1878850"><time>2021-09-11T17:42:30.557</time></trkpt><trkpt lat="55.8393720" lon="49.1878750"><time>2021-09-11T17:42:31.557</time></trkpt><trkpt lat="55.8393960" lon="49.1878650"><time>2021-09-11T17:42:32.557</time></trkpt><trkpt lat="55.8394210" lon="49.1878550"><time>2021-09-11T17:42:33.557</time></trkpt><trkpt lat="55.8394560" lon="49.1878410"><time>2021-09-11T17:42:35.557</time></trkpt><trkpt lat="55.8394670" lon="49.1878360"><time>2021-09-11T17:42:35.557</time></trkpt><trkpt lat="55.8394920" lon="49.1878270"><time>2021-09-11T17:42:36.557</time></trkpt><trkpt lat="55.8395150" lon="49.1878210"><time>2021-09-11T17:42:37.557</time></trkpt><trkpt lat="55.8395390" lon="49.1878180"><time>2021-09-11T17:42:38.557</time></trkpt><trkpt lat="55.8395640" lon="49.1878150"><time>2021-09-11T17:42:39.557</time></trkpt><trkpt lat="55.8395870" lon="49.1878130"><time>2021-09-11T17:42:40.557</time></trkpt><trkpt lat="55.8396110" lon="49.1878110"><time>2021-09-11T17:42:41.557</time></trkpt><trkpt lat="55.8396360" lon="49.1878090"><time>2021-09-11T17:42:42.557</time></trkpt><trkpt lat="55.8396600" lon="49.1878070"><time>2021-09-11T17:42:43.557</time></trkpt><trkpt lat="55.8396830" lon="49.1878060"><time>2021-09-11T17:42:44.557</time></trkpt><trkpt lat="55.8397080" lon="49.1878020"><time>2021-09-11T17:42:45.557</time></trkpt><trkpt lat="55.8397320" lon="49.1877980"><time>2021-09-11T17:42:46.557</time></trkpt><trkpt lat="55.8397580" lon="49.1877950"><time>2021-09-11T17:42:47.557</time></trkpt><trkpt lat="55.8397810" lon="49.1877930"><time>2021-09-11T17:42:48.557</time></trkpt><trkpt lat="55.8398040" lon="49.1877900"><time>2021-09-11T17:42:49.557</time></trkpt><trkpt lat="55.8398280" lon="49.1877860"><time>2021-09-11T17:42:50.557</time></trkpt><trkpt lat="55.8398520" lon="49.1877810"><time>2021-09-11T17:42:51.557</time></trkpt><trkpt lat="55.8398750" lon="49.1877760"><time>2021-09-11T17:42:52.557</time></trkpt><trkpt lat="55.8398990" lon="49.1877700"><time>2021-09-11T17:42:53.557</time></trkpt><trkpt lat="55.8399230" lon="49.1877660"><time>2021-09-11T17:42:54.557</time></trkpt><trkpt lat="55.8399460" lon="49.1877620"><time>2021-09-11T17:42:55.557</time></trkpt><trkpt lat="55.8399700" lon="49.1877590"><time>2021-09-11T17:42:56.557</time></trkpt><trkpt lat="55.8400080" lon="49.1877540"><time>2021-09-11T17:42:58.557</time></trkpt><trkpt lat="55.8400200" lon="49.1877520"><time>2021-09-11T17:42:58.557</time></trkpt><trkpt lat="55.8400440" lon="49.1877480"><time>2021-09-11T17:42:59.557</time></trkpt><trkpt lat="55.8400670" lon="49.1877440"><time>2021-09-11T17:43:00.557</time></trkpt><trkpt lat="55.8400910" lon="49.1877370"><time>2021-09-11T17:43:01.557</time></trkpt><trkpt lat="55.8401150" lon="49.1877310"><time>2021-09-11T17:43:02.557</time></trkpt><trkpt lat="55.8401500" lon="49.1877200"><time>2021-09-11T17:43:04.557</time></trkpt><trkpt lat="55.8401620" lon="49.1877160"><time>2021-09-11T17:43:04.557</time></trkpt><trkpt lat="55.8401870" lon="49.1877080"><time>2021-09-11T17:43:05.557</time></trkpt><trkpt lat="55.8402100" lon="49.1877010"><time>2021-09-11T17:43:06.557</time></trkpt><trkpt lat="55.8402330" lon="49.1876950"><time>2021-09-11T17:43:07.557</time></trkpt><trkpt lat="55.8402680" lon="49.1876890"><time>2021-09-11T17:43:09.557</time></trkpt><trkpt lat="55.8402790" lon="49.1876870"><time>2021-09-11T17:43:09.557</time></trkpt><trkpt lat="55.8403010" lon="49.1876840"><time>2021-09-11T17:43:10.557</time></trkpt><trkpt lat="55.8403230" lon="49.1876820"><time>2021-09-11T17:43:11.557</time></trkpt><trkpt lat="55.8403460" lon="49.1876790"><time>2021-09-11T17:43:12.557</time></trkpt><trkpt lat="55.8403690" lon="49.1876750"><time>2021-09-11T17:43:13.557</time></trkpt><trkpt lat="55.8404050" lon="49.1876670"><time>2021-09-11T17:43:15.557</time></trkpt><trkpt lat="55.8404160" lon="49.1876640"><time>2021-09-11T17:43:15.557</time></trkpt><trkpt lat="55.8404390" lon="49.1876570"><time>2021-09-11T17:43:16.557</time></trkpt><trkpt lat="55.8404620" lon="49.1876490"><time>2021-09-11T17:43:17.557</time></trkpt><trkpt lat="55.8404850" lon="49.1876440"><time>2021-09-11T17:43:18.557</time></trkpt><trkpt lat="55.8405080" lon="49.1876390"><time>2021-09-11T17:43:19.557</time></trkpt><trkpt lat="55.8405320" lon="49.1876340"><time>2021-09-11T17:43:20.557</time></trkpt><trkpt lat="55.8405550" lon="49.1876270"><time>2021-09-11T17:43:21.557</time></trkpt><trkpt lat="55.8405890" lon="49.1876190"><time>2021-09-11T17:43:23.557</time></trkpt><trkpt lat="55.8406000" lon="49.1876160"><time>2021-09-11T17:43:23.557</time></trkpt><trkpt lat="55.8406230" lon="49.1876120"><time>2021-09-11T17:43:24.557</time></trkpt><trkpt lat="55.8406490" lon="49.1876080"><time>2021-09-11T17:43:25.557</time></trkpt><trkpt lat="55.8406730" lon="49.1876050"><time>2021-09-11T17:43:26.557</time></trkpt><trkpt lat="55.8406960" lon="49.1876040"><time>2021-09-11T17:43:27.557</time></trkpt><trkpt lat="55.8407310" lon="49.1876000"><time>2021-09-11T17:43:29.557</time></trkpt><trkpt lat="55.8407420" lon="49.1875970"><time>2021-09-11T17:43:29.557</time></trkpt><trkpt lat="55.8407670" lon="49.1875870"><time>2021-09-11T17:43:30.557</time></trkpt><trkpt lat="55.8407900" lon="49.1875750"><time>2021-09-11T17:43:31.557</time></trkpt><trkpt lat="55.8408140" lon="49.1875620"><time>2021-09-11T17:43:32.557</time></trkpt><trkpt lat="55.8408400" lon="49.1875490"><time>2021-09-11T17:43:33.557</time></trkpt><trkpt lat="55.8408640" lon="49.1875380"><time>2021-09-11T17:43:34.557</time></trkpt><trkpt lat="55.8408880" lon="49.1875290"><time>2021-09-11T17:43:35.557</time></trkpt><trkpt lat="55.8409120" lon="49.1875210"><time>2021-09-11T17:43:36.557</time></trkpt><trkpt lat="55.8409360" lon="49.1875130"><time>2021-09-11T17:43:37.557</time></trkpt><trkpt lat="55.8409600" lon="49.1875060"><time>2021-09-11T17:43:38.557</time></trkpt><trkpt lat="55.8409840" lon="49.1875010"><time>2021-09-11T17:43:39.557</time></trkpt><trkpt lat="55.8410100" lon="49.1874960"><time>2021-09-11T17:43:39.557</time></trkpt><trkpt lat="55.8410340" lon="49.1874920"><time>2021-09-11T17:43:40.557</time></trkpt><trkpt lat="55.8410570" lon="49.1874860"><time>2021-09-11T17:43:41.557</time></trkpt><trkpt lat="55.8410800" lon="49.1874800"><time>2021-09-11T17:43:42.557</time></trkpt><trkpt lat="55.8411020" lon="49.1874700"><time>2021-09-11T17:43:43.557</time></trkpt><trkpt lat="55.8411350" lon="49.1874570"><time>2021-09-11T17:43:45.557</time></trkpt><trkpt lat="55.8411450" lon="49.1874530"><time>2021-09-11T17:43:45.557</time></trkpt><trkpt lat="55.8411690" lon="49.1874430"><time>2021-09-11T17:43:46.557</time></trkpt><trkpt lat="55.8411930" lon="49.1874330"><time>2021-09-11T17:43:47.557</time></trkpt><trkpt lat="55.8412180" lon="49.1874230"><time>2021-09-11T17:43:48.557</time></trkpt><trkpt lat="55.8412410" lon="49.1874120"><time>2021-09-11T17:43:49.557</time></trkpt><trkpt lat="55.8412740" lon="49.1874000"><time>2021-09-11T17:43:51.557</time></trkpt><trkpt lat="55.8412850" lon="49.1873960"><time>2021-09-11T17:43:51.557</time></trkpt><trkpt lat="55.8413060" lon="49.1873880"><time>2021-09-11T17:43:52.557</time></trkpt><trkpt lat="55.8413280" lon="49.1873810"><time>2021-09-11T17:43:53.557</time></trkpt><trkpt lat="55.8413480" lon="49.1873750"><time>2021-09-11T17:43:54.557</time></trkpt><trkpt lat="55.8413680" lon="49.1873720"><time>2021-09-11T17:43:55.557</time></trkpt><trkpt lat="55.8414010" lon="49.1873670"><time>2021-09-11T17:43:57.557</time></trkpt><trkpt lat="55.8414110" lon="49.1873650"><time>2021-09-11T17:43:57.557</time></trkpt><trkpt lat="55.8414330" lon="49.1873620"><time>2021-09-11T17:43:58.557</time></trkpt><trkpt lat="55.8414550" lon="49.1873590"><time>2021-09-11T17:43:59.557</time></trkpt><trkpt lat="55.8414770" lon="49.1873560"><time>2021-09-11T17:44:00.557</time></trkpt><trkpt lat="55.8414980" lon="49.1873530"><time>2021-09-11T17:44:01.557</time></trkpt><trkpt lat="55.8415200" lon="49.1873500"><time>2021-09-11T17:44:02.557</time></trkpt><trkpt lat="55.8415420" lon="49.1873460"><time>2021-09-11T17:44:03.557</time></trkpt><trkpt lat="55.8415630" lon="49.1873430"><time>2021-09-11T17:44:04.557</time></trkpt><trkpt lat="55.8415850" lon="49.1873380"><time>2021-09-11T17:44:05.557</time></trkpt><trkpt lat="55.8416060" lon="49.1873350"><time>2021-09-11T17:44:06.557</time></trkpt><trkpt lat="55.8416270" lon="49.1873280"><time>2021-09-11T17:44:07.557</time></trkpt><trkpt lat="55.8416500" lon="49.1873210"><time>2021-09-11T17:44:08.557</time></trkpt><trkpt lat="55.8416730" lon="49.1873160"><time>2021-09-11T17:44:09.557</time></trkpt><trkpt lat="55.8416950" lon="49.1873120"><time>2021-09-11T17:44:10.557</time></trkpt><trkpt lat="55.8417170" lon="49.1873080"><time>2021-09-11T17:44:11.557</time></trkpt><trkpt lat="55.8417400" lon="49.1873030"><time>2021-09-11T17:44:12.557</time></trkpt><trkpt lat="55.8417630" lon="49.1873000"><time>2021-09-11T17:44:13.557</time></trkpt><trkpt lat="55.8417860" lon="49.1872960"><time>2021-09-11T17:44:14.557</time></trkpt><trkpt lat="55.8418100" lon="49.1872900"><time>2021-09-11T17:44:15.557</time></trkpt><trkpt lat="55.8418350" lon="49.1872820"><time>2021-09-11T17:44:16.557</time></trkpt><trkpt lat="55.8418600" lon="49.1872740"><time>2021-09-11T17:44:17.557</time></trkpt><trkpt lat="55.8418850" lon="49.1872650"><time>2021-09-11T17:44:18.557</time></trkpt><trkpt lat="55.8419080" lon="49.1872550"><time>2021-09-11T17:44:19.557</time></trkpt><trkpt lat="55.8419320" lon="49.1872460"><time>2021-09-11T17:44:20.557</time></trkpt><trkpt lat="55.8419550" lon="49.1872370"><time>2021-09-11T17:44:21.557</time></trkpt><trkpt lat="55.8419790" lon="49.1872290"><time>2021-09-11T17:44:22.557</time></trkpt><trkpt lat="55.8420030" lon="49.1872190"><time>2021-09-11T17:44:23.557</time></trkpt><trkpt lat="55.8420280" lon="49.1872100"><time>2021-09-11T17:44:24.557</time></trkpt><trkpt lat="55.8420530" lon="49.1871990"><time>2021-09-11T17:44:25.557</time></trkpt><trkpt lat="55.8420770" lon="49.1871880"><time>2021-09-11T17:44:26.557</time></trkpt><trkpt lat="55.8421010" lon="49.1871780"><time>2021-09-11T17:44:27.557</time></trkpt><trkpt lat="55.8421370" lon="49.1871630"><time>2021-09-11T17:44:29.557</time></trkpt><trkpt lat="55.8421490" lon="49.1871580"><time>2021-09-11T17:44:29.557</time></trkpt><trkpt lat="55.8421730" lon="49.1871470"><time>2021-09-11T17:44:30.557</time></trkpt><trkpt lat="55.8421990" lon="49.1871360"><time>2021-09-11T17:44:31.557</time></trkpt><trkpt lat="55.8422220" lon="49.1871260"><time>2021-09-11T17:44:32.557</time></trkpt><trkpt lat="55.8422460" lon="49.1871160"><time>2021-09-11T17:44:33.557</time></trkpt><trkpt lat="55.8422820" lon="49.1871000"><time>2021-09-11T17:44:35.557</time></trkpt><trkpt lat="55.8422940" lon="49.1870940"><time>2021-09-11T17:44:35.557</time></trkpt><trkpt lat="55.8423190" lon="49.1870820"><time>2021-09-11T17:44:36.557</time></trkpt><trkpt lat="55.8423430" lon="49.1870690"><time>2021-09-11T17:44:37.557</time></trkpt><trkpt lat="55.8423790" lon="49.1870550"><time>2021-09-11T17:44:39.557</time></trkpt><trkpt lat="55.8423910" lon="49.1870500"><time>2021-09-11T17:44:39.557</time></trkpt><trkpt lat="55.8424150" lon="49.1870410"><time>2021-09-11T17:44:40.557</time></trkpt><trkpt lat="55.8424400" lon="49.1870320"><time>2021-09-11T17:44:41.557</time></trkpt><trkpt lat="55.8424630" lon="49.1870220"><time>2021-09-11T17:44:42.557</time></trkpt><trkpt lat="55.8424850" lon="49.1870120"><time>2021-09-11T17:44:43.557</time></trkpt><trkpt lat="55.8425210" lon="49.1869970"><time>2021-09-11T17:44:45.557</time></trkpt><trkpt lat="55.8425320" lon="49.1869930"><time>2021-09-11T17:44:45.557</time></trkpt><trkpt lat="55.8425550" lon="49.1869840"><time>2021-09-11T17:44:46.557</time></trkpt><trkpt lat="55.8425760" lon="49.1869760"><time>2021-09-11T17:44:47.557</time></trkpt><trkpt lat="55.8425980" lon="49.1869670"><time>2021-09-11T17:44:48.557</time></trkpt><trkpt lat="55.8426200" lon="49.1869580"><time>2021-09-11T17:44:49.557</time></trkpt><trkpt lat="55.8426420" lon="49.1869480"><time>2021-09-11T17:44:50.557</time></trkpt><trkpt lat="55.8426640" lon="49.1869360"><time>2021-09-11T17:44:51.557</time></trkpt><trkpt lat="55.8426870" lon="49.1869250"><time>2021-09-11T17:44:52.557</time></trkpt><trkpt lat="55.8427090" lon="49.1869150"><time>2021-09-11T17:44:53.557</time></trkpt><trkpt lat="55.8427320" lon="49.1869050"><time>2021-09-11T17:44:54.557</time></trkpt><trkpt lat="55.8427540" lon="49.1868950"><time>2021-09-11T17:44:55.557</time></trkpt><trkpt lat="55.8427750" lon="49.1868850"><time>2021-09-11T17:44:56.557</time></trkpt><trkpt lat="55.8427960" lon="49.1868750"><time>2021-09-11T17:44:57.557</time></trkpt><trkpt lat="55.8428170" lon="49.1868670"><time>2021-09-11T17:44:58.557</time></trkpt><trkpt lat="55.8428380" lon="49.1868590"><time>2021-09-11T17:44:59.557</time></trkpt><trkpt lat="55.8428590" lon="49.1868510"><time>2021-09-11T17:45:00.557</time></trkpt><trkpt lat="55.8428800" lon="49.1868440"><time>2021-09-11T17:45:01.557</time></trkpt><trkpt lat="55.8428980" lon="49.1868380"><time>2021-09-11T17:45:02.557</time></trkpt><trkpt lat="55.8429180" lon="49.1868310"><time>2021-09-11T17:45:03.557</time></trkpt><trkpt lat="55.8429380" lon="49.1868230"><time>2021-09-11T17:45:04.557</time></trkpt><trkpt lat="55.8429580" lon="49.1868150"><time>2021-09-11T17:45:05.557</time></trkpt><trkpt lat="55.8429790" lon="49.1868040"><time>2021-09-11T17:45:06.557</time></trkpt><trkpt lat="55.8430010" lon="49.1867920"><time>2021-09-11T17:45:07.557</time></trkpt><trkpt lat="55.8430230" lon="49.1867780"><time>2021-09-11T17:45:08.557</time></trkpt><trkpt lat="55.8430460" lon="49.1867640"><time>2021-09-11T17:45:09.557</time></trkpt><trkpt lat="55.8430670" lon="49.1867530"><time>2021-09-11T17:45:10.557</time></trkpt><trkpt lat="55.8430870" lon="49.1867440"><time>2021-09-11T17:45:11.557</time></trkpt><trkpt lat="55.8431090" lon="49.1867340"><time>2021-09-11T17:45:12.557</time></trkpt><trkpt lat="55.8431310" lon="49.1867210"><time>2021-09-11T17:45:13.557</time></trkpt><trkpt lat="55.8431540" lon="49.1867050"><time>2021-09-11T17:45:14.557</time></trkpt><trkpt lat="55.8431750" lon="49.1866880"><time>2021-09-11T17:45:15.557</time></trkpt><trkpt lat="55.8431950" lon="49.1866700"><time>2021-09-11T17:45:16.557</time></trkpt><trkpt lat="55.8432150" lon="49.1866490"><time>2021-09-11T17:45:17.557</time></trkpt><trkpt lat="55.8432400" lon="49.1866140"><time>2021-09-11T17:45:19.557</time></trkpt><trkpt lat="55.8432460" lon="49.1866000"><time>2021-09-11T17:45:19.557</time></trkpt><trkpt lat="55.8432550" lon="49.1865690"><time>2021-09-11T17:45:20.557</time></trkpt><trkpt lat="55.8432610" lon="49.1865350"><time>2021-09-11T17:45:21.557</time></trkpt><trkpt lat="55.8432670" lon="49.1864830"><time>2021-09-11T17:45:23.557</time></trkpt><trkpt lat="55.8432690" lon="49.1864650"><time>2021-09-11T17:45:23.557</time></trkpt><trkpt lat="55.8432730" lon="49.1864290"><time>2021-09-11T17:45:24.557</time></trkpt><trkpt lat="55.8432760" lon="49.1863910"><time>2021-09-11T17:45:25.557</time></trkpt><trkpt lat="55.8432810" lon="49.1863540"><time>2021-09-11T17:45:26.557</time></trkpt><trkpt lat="55.8432860" lon="49.1863160"><time>2021-09-11T17:45:27.557</time></trkpt><trkpt lat="55.8432950" lon="49.1862580"><time>2021-09-11T17:45:29.557</time></trkpt><trkpt lat="55.8432970" lon="49.1862380"><time>2021-09-11T17:45:29.557</time></trkpt><trkpt lat="55.8433010" lon="49.1862020"><time>2021-09-11T17:45:30.557</time></trkpt><trkpt lat="55.8433020" lon="49.1861670"><time>2021-09-11T17:45:31.557</time></trkpt><trkpt lat="55.8433030" lon="49.1861310"><time>2021-09-11T17:45:32.557</time></trkpt><trkpt lat="55.8433050" lon="49.1860910"><time>2021-09-11T17:45:33.557</time></trkpt><trkpt lat="55.8433060" lon="49.1860500"><time>2021-09-11T17:45:34.557</time></trkpt><trkpt lat="55.8433080" lon="49.1860120"><time>2021-09-11T17:45:35.557</time></trkpt><trkpt lat="55.8433110" lon="49.1859730"><time>2021-09-11T17:45:36.557</time></trkpt><trkpt lat="55.8433170" lon="49.1859350"><time>2021-09-11T17:45:37.557</time></trkpt><trkpt lat="55.8433250" lon="49.1858990"><time>2021-09-11T17:45:38.557</time></trkpt><trkpt lat="55.8433340" lon="49.1858640"><time>2021-09-11T17:45:39.557</time></trkpt><trkpt lat="55.8433440" lon="49.1858280"><time>2021-09-11T17:45:40.557</time></trkpt><trkpt lat="55.8433540" lon="49.1857920"><time>2021-09-11T17:45:41.557</time></trkpt><trkpt lat="55.8433630" lon="49.1857590"><time>2021-09-11T17:45:42.557</time></trkpt><trkpt lat="55.8433740" lon="49.1857250"><time>2021-09-11T17:45:43.557</time></trkpt><trkpt lat="55.8433850" lon="49.1856910"><time>2021-09-11T17:45:44.557</time></trkpt><trkpt lat="55.8433960" lon="49.1856590"><time>2021-09-11T17:45:45.557</time></trkpt><trkpt lat="55.8434070" lon="49.1856290"><time>2021-09-11T17:45:46.557</time></trkpt><trkpt lat="55.8434190" lon="49.1855990"><time>2021-09-11T17:45:47.557</time></trkpt><trkpt lat="55.8434320" lon="49.1855670"><time>2021-09-11T17:45:48.557</time></trkpt><trkpt lat="55.8434490" lon="49.1855350"><time>2021-09-11T17:45:49.557</time></trkpt><trkpt lat="55.8434670" lon="49.1855070"><time>2021-09-11T17:45:50.557</time></trkpt><trkpt lat="55.8434970" lon="49.1854720"><time>2021-09-11T17:45:52.557</time></trkpt><trkpt lat="55.8435080" lon="49.1854600"><time>2021-09-11T17:45:52.557</time></trkpt><trkpt lat="55.8435310" lon="49.1854350"><time>2021-09-11T17:45:53.557</time></trkpt><trkpt lat="55.8435510" lon="49.1854100"><time>2021-09-11T17:45:54.557</time></trkpt><trkpt lat="55.8435720" lon="49.1853870"><time>2021-09-11T17:45:55.557</time></trkpt><trkpt lat="55.8435920" lon="49.1853660"><time>2021-09-11T17:45:56.557</time></trkpt><trkpt lat="55.8436130" lon="49.1853430"><time>2021-09-11T17:45:57.557</time></trkpt><trkpt lat="55.8436340" lon="49.1853180"><time>2021-09-11T17:45:58.557</time></trkpt><trkpt lat="55.8436540" lon="49.1852950"><time>2021-09-11T17:45:59.557</time></trkpt><trkpt lat="55.8436750" lon="49.1852700"><time>2021-09-11T17:46:00.557</time></trkpt><trkpt lat="55.8437000" lon="49.1852290"><time>2021-09-11T17:46:02.557</time></trkpt><trkpt lat="55.8437070" lon="49.1852130"><time>2021-09-11T17:46:02.557</time></trkpt><trkpt lat="55.8437190" lon="49.1851790"><time>2021-09-11T17:46:03.557</time></trkpt><trkpt lat="55.8437280" lon="49.1851450"><time>2021-09-11T17:46:04.557</time></trkpt><trkpt lat="55.8437340" lon="49.1850900"><time>2021-09-11T17:46:06.557</time></trkpt><trkpt lat="55.8437340" lon="49.1850710"><time>2021-09-11T17:46:06.557</time></trkpt><trkpt lat="55.8437300" lon="49.1850320"><time>2021-09-11T17:46:07.557</time></trkpt><trkpt lat="55.8437250" lon="49.1849970"><time>2021-09-11T17:46:08.557</time></trkpt><trkpt lat="55.8437250" lon="49.1849630"><time>2021-09-11T17:46:09.557</time></trkpt><trkpt lat="55.8437250" lon="49.1849300"><time>2021-09-11T17:46:10.557</time></trkpt><trkpt lat="55.8437220" lon="49.1848990"><time>2021-09-11T17:46:11.557</time></trkpt><trkpt lat="55.8437220" lon="49.1848590"><time>2021-09-11T17:46:12.557</time></trkpt><trkpt lat="55.8437260" lon="49.1848500"><time>2021-09-11T17:46:13.557</time></trkpt><trkpt lat="55.8437290" lon="49.1848400"><time>2021-09-11T17:46:14.557</time></trkpt><trkpt lat="55.8437320" lon="49.1848310"><time>2021-09-11T17:46:15.557</time></trkpt><trkpt lat="55.8437350" lon="49.1848210"><time>2021-09-11T17:46:16.557</time></trkpt><trkpt lat="55.8437390" lon="49.1848120"><time>2021-09-11T17:46:17.557</time></trkpt><trkpt lat="55.8437420" lon="49.1848020"><time>2021-09-11T17:46:18.557</time></trkpt><trkpt lat="55.8437450" lon="49.1847920"><time>2021-09-11T17:46:19.557</time></trkpt><trkpt lat="55.8437480" lon="49.1847830"><time>2021-09-11T17:46:20.557</time></trkpt><trkpt lat="55.8437520" lon="49.1847730"><time>2021-09-11T17:46:22.557</time></trkpt><trkpt lat="55.8437550" lon="49.1847640"><time>2021-09-11T17:46:23.557</time></trkpt><trkpt lat="55.8437580" lon="49.1847540"><time>2021-09-11T17:46:24.557</time></trkpt><trkpt lat="55.8437610" lon="49.1847440"><time>2021-09-11T17:46:25.557</time></trkpt><trkpt lat="55.8437650" lon="49.1847350"><time>2021-09-11T17:46:32.557</time></trkpt><trkpt lat="55.8437680" lon="49.1847250"><time>2021-09-11T17:46:33.557</time></trkpt><trkpt lat="55.8437710" lon="49.1847160"><time>2021-09-11T17:46:34.557</time></trkpt><trkpt lat="55.8437740" lon="49.1847060"><time>2021-09-11T17:46:35.557</time></trkpt><trkpt lat="55.8437780" lon="49.1846970"><time>2021-09-11T17:46:37.557</time></trkpt><trkpt lat="55.8437810" lon="49.1846870"><time>2021-09-11T17:46:37.557</time></trkpt><trkpt lat="55.8438000" lon="49.1846680"><time>2021-09-11T17:46:38.557</time></trkpt><trkpt lat="55.8438190" lon="49.1846490"><time>2021-09-11T17:46:39.557</time></trkpt><trkpt lat="55.8438380" lon="49.1846310"><time>2021-09-11T17:46:40.557</time></trkpt><trkpt lat="55.8438570" lon="49.1846160"><time>2021-09-11T17:46:41.557</time></trkpt><trkpt lat="55.8438880" lon="49.1845930"><time>2021-09-11T17:46:43.557</time></trkpt><trkpt lat="55.8438990" lon="49.1845840"><time>2021-09-11T17:46:43.557</time></trkpt><trkpt lat="55.8439200" lon="49.1845650"><time>2021-09-11T17:46:44.557</time></trkpt><trkpt lat="55.8439400" lon="49.1845440"><time>2021-09-11T17:46:45.557</time></trkpt><trkpt lat="55.8439580" lon="49.1845230"><time>2021-09-11T17:46:46.557</time></trkpt><trkpt lat="55.8439760" lon="49.1845010"><time>2021-09-11T17:46:47.557</time></trkpt><trkpt lat="55.8439950" lon="49.1844780"><time>2021-09-11T17:46:48.557</time></trkpt><trkpt lat="55.8440150" lon="49.1844530"><time>2021-09-11T17:46:49.557</time></trkpt><trkpt lat="55.8440360" lon="49.1844270"><time>2021-09-11T17:46:50.557</time></trkpt><trkpt lat="55.8440580" lon="49.1843980"><time>2021-09-11T17:46:51.557</time></trkpt><trkpt lat="55.8440780" lon="49.1843700"><time>2021-09-11T17:46:52.557</time></trkpt><trkpt lat="55.8440950" lon="49.1843450"><time>2021-09-11T17:46:53.557</time></trkpt><trkpt lat="55.8441090" lon="49.1843230"><time>2021-09-11T17:46:54.557</time></trkpt><trkpt lat="55.8441220" lon="49.1842890"><time>2021-09-11T17:46:55.557</time></trkpt><trkpt lat="55.8441270" lon="49.1842770"><time>2021-09-11T17:46:56.557</time></trkpt><trkpt lat="55.8441330" lon="49.1842660"><time>2021-09-11T17:46:57.557</time></trkpt><trkpt lat="55.8441380" lon="49.1842540"><time>2021-09-11T17:46:58.557</time></trkpt><trkpt lat="55.8441430" lon="49.1842420"><time>2021-09-11T17:47:00.557</time></trkpt><trkpt lat="55.8441480" lon="49.1842300"><time>2021-09-11T17:47:00.557</time></trkpt><trkpt lat="55.8441570" lon="49.1842070"><time>2021-09-11T17:47:02.557</time></trkpt><trkpt lat="55.8441520" lon="49.1842050"><time>2021-09-11T17:47:03.557</time></trkpt><trkpt lat="55.8441480" lon="49.1842040"><time>2021-09-11T17:47:04.557</time></trkpt><trkpt lat="55.8441430" lon="49.1842020"><time>2021-09-11T17:47:06.557</time></trkpt><trkpt lat="55.8441390" lon="49.1842010"><time>2021-09-11T17:47:06.557</time></trkpt><trkpt lat="55.8441230" lon="49.1841860"><time>2021-09-11T17:47:07.557</time></trkpt><trkpt lat="55.8441180" lon="49.1841770"><time>2021-09-11T17:47:08.557</time></trkpt><trkpt lat="55.8441140" lon="49.1841670"><time>2021-09-11T17:47:09.557</time></trkpt><trkpt lat="55.8441090" lon="49.1841570"><time>2021-09-11T17:47:10.557</time></trkpt><trkpt lat="55.8441050" lon="49.1841470"><time>2021-09-11T17:47:11.557</time></trkpt><trkpt lat="55.8441010" lon="49.1841380"><time>2021-09-11T17:47:12.557</time></trkpt><trkpt lat="55.8440960" lon="49.1841280"><time>2021-09-11T17:47:13.557</time></trkpt><trkpt lat="55.8440920" lon="49.1841180"><time>2021-09-11T17:47:14.557</time></trkpt><trkpt lat="55.8440870" lon="49.1841090"><time>2021-09-11T17:47:15.557</time></trkpt><trkpt lat="55.8440830" lon="49.1840990"><time>2021-09-11T17:47:16.557</time></trkpt><trkpt lat="55.8440790" lon="49.1840890"><time>2021-09-11T17:47:17.557</time></trkpt><trkpt lat="55.8440740" lon="49.1840800"><time>2021-09-11T17:47:18.557</time></trkpt><trkpt lat="55.8440700" lon="49.1840700"><time>2021-09-11T17:47:19.557</time></trkpt><trkpt lat="55.8440650" lon="49.1840600"><time>2021-09-11T17:47:20.557</time></trkpt><trkpt lat="55.8440610" lon="49.1840500"><time>2021-09-11T17:47:21.557</time></trkpt><trkpt lat="55.8440560" lon="49.1840410"><time>2021-09-11T17:47:22.557</time></trkpt><trkpt lat="55.8440520" lon="49.1840310"><time>2021-09-11T17:47:23.557</time></trkpt><trkpt lat="55.8440480" lon="49.1840210"><time>2021-09-11T17:47:24.557</time></trkpt><trkpt lat="55.8440430" lon="49.1840120"><time>2021-09-11T17:47:25.557</time></trkpt><trkpt lat="55.8440390" lon="49.1840020"><time>2021-09-11T17:47:26.557</time></trkpt><trkpt lat="55.8440340" lon="49.1839920"><time>2021-09-11T17:47:27.557</time></trkpt><trkpt lat="55.8440300" lon="49.1839830"><time>2021-09-11T17:47:28.557</time></trkpt><trkpt lat="55.8440260" lon="49.1839730"><time>2021-09-11T17:47:29.557</time></trkpt><trkpt lat="55.8440210" lon="49.1839630"><time>2021-09-11T17:47:30.557</time></trkpt><trkpt lat="55.8440170" lon="49.1839530"><time>2021-09-11T17:47:31.557</time></trkpt><trkpt lat="55.8440120" lon="49.1839440"><time>2021-09-11T17:47:33.557</time></trkpt><trkpt lat="55.8440080" lon="49.1839340"><time>2021-09-11T17:47:33.557</time></trkpt><trkpt lat="55.8440030" lon="49.1839070"><time>2021-09-11T17:47:34.557</time></trkpt><trkpt lat="55.8440030" lon="49.1838940"><time>2021-09-11T17:47:35.557</time></trkpt><trkpt lat="55.8440020" lon="49.1838810"><time>2021-09-11T17:47:36.557</time></trkpt><trkpt lat="55.8440010" lon="49.1838690"><time>2021-09-11T17:47:37.557</time></trkpt><trkpt lat="55.8440010" lon="49.1838560"><time>2021-09-11T17:47:39.557</time></trkpt><trkpt lat="55.8440000" lon="49.1838430"><time>2021-09-11T17:47:39.557</time></trkpt><trkpt lat="55.8439910" lon="49.1838180"><time>2021-09-11T17:47:40.557</time></trkpt><trkpt lat="55.8439850" lon="49.1838090"><time>2021-09-11T17:47:41.557</time></trkpt><trkpt lat="55.8439780" lon="49.1838000"><time>2021-09-11T17:47:42.557</time></trkpt><trkpt lat="55.8439720" lon="49.1837910"><time>2021-09-11T17:47:43.557</time></trkpt><trkpt lat="55.8439650" lon="49.1837810"><time>2021-09-11T17:47:44.557</time></trkpt><trkpt lat="55.8439590" lon="49.1837720"><time>2021-09-11T17:47:45.557</time></trkpt><trkpt lat="55.8439520" lon="49.1837630"><time>2021-09-11T17:47:46.557</time></trkpt><trkpt lat="55.8439460" lon="49.1837540"><time>2021-09-11T17:47:47.557</time></trkpt><trkpt lat="55.8439390" lon="49.1837450"><time>2021-09-11T17:47:48.557</time></trkpt><trkpt lat="55.8439330" lon="49.1837360"><time>2021-09-11T17:47:49.557</time></trkpt><trkpt lat="55.8439260" lon="49.1837270"><time>2021-09-11T17:47:50.557</time></trkpt><trkpt lat="55.8439200" lon="49.1837180"><time>2021-09-11T17:47:51.557</time></trkpt><trkpt lat="55.8439130" lon="49.1837080"><time>2021-09-11T17:47:52.557</time></trkpt><trkpt lat="55.8439070" lon="49.1836990"><time>2021-09-11T17:47:53.557</time></trkpt><trkpt lat="55.8439000" lon="49.1836900"><time>2021-09-11T17:47:54.557</time></trkpt><trkpt lat="55.8438940" lon="49.1836810"><time>2021-09-11T17:47:55.557</time></trkpt><trkpt lat="55.8438870" lon="49.1836720"><time>2021-09-11T17:47:55.557</time></trkpt><trkpt lat="55.8438790" lon="49.1836620"><time>2021-09-11T17:47:56.557</time></trkpt><trkpt lat="55.8438750" lon="49.1836570"><time>2021-09-11T17:47:57.557</time></trkpt><trkpt lat="55.8438720" lon="49.1836510"><time>2021-09-11T17:47:58.557</time></trkpt><trkpt lat="55.8438680" lon="49.1836460"><time>2021-09-11T17:47:59.557</time></trkpt><trkpt lat="55.8438650" lon="49.1836410"><time>2021-09-11T17:48:01.557</time></trkpt><trkpt lat="55.8438610" lon="49.1836360"><time>2021-09-11T17:48:01.557</time></trkpt><trkpt lat="55.8438520" lon="49.1836250"><time>2021-09-11T17:48:02.557</time></trkpt><trkpt lat="55.8438480" lon="49.1836180"><time>2021-09-11T17:48:03.557</time></trkpt><trkpt lat="55.8438430" lon="49.1836120"><time>2021-09-11T17:48:04.557</time></trkpt><trkpt lat="55.8438390" lon="49.1836050"><time>2021-09-11T17:48:06.557</time></trkpt><trkpt lat="55.8438350" lon="49.1835990"><time>2021-09-11T17:48:06.557</time></trkpt><trkpt lat="55.8438300" lon="49.1835760"><time>2021-09-11T17:48:07.557</time></trkpt><trkpt lat="55.8438280" lon="49.1835660"><time>2021-09-11T17:48:08.557</time></trkpt><trkpt lat="55.8438270" lon="49.1835560"><time>2021-09-11T17:48:09.557</time></trkpt><trkpt lat="55.8438250" lon="49.1835460"><time>2021-09-11T17:48:10.557</time></trkpt><trkpt lat="55.8438240" lon="49.1835360"><time>2021-09-11T17:48:12.557</time></trkpt><trkpt lat="55.8438220" lon="49.1835260"><time>2021-09-11T17:48:12.557</time></trkpt><trkpt lat="55.8438160" lon="49.1835120"><time>2021-09-11T17:48:13.557</time></trkpt><trkpt lat="55.8438130" lon="49.1835070"><time>2021-09-11T17:48:14.557</time></trkpt><trkpt lat="55.8438100" lon="49.1835010"><time>2021-09-11T17:48:15.557</time></trkpt><trkpt lat="55.8438060" lon="49.1834960"><time>2021-09-11T17:48:16.557</time></trkpt><trkpt lat="55.8438030" lon="49.1834910"><time>2021-09-11T17:48:18.557</time></trkpt><trkpt lat="55.8438000" lon="49.1834860"><time>2021-09-11T17:48:18.557</time></trkpt><trkpt lat="55.8437980" lon="49.1834690"><time>2021-09-11T17:48:19.557</time></trkpt><trkpt lat="55.8437980" lon="49.1834600"><time>2021-09-11T17:48:20.557</time></trkpt><trkpt lat="55.8437980" lon="49.1834510"><time>2021-09-11T17:48:22.557</time></trkpt><trkpt lat="55.8437980" lon="49.1834420"><time>2021-09-11T17:48:22.557</time></trkpt><trkpt lat="55.8437950" lon="49.1834200"><time>2021-09-11T17:48:23.557</time></trkpt><trkpt lat="55.8437920" lon="49.1834110"><time>2021-09-11T17:48:24.557</time></trkpt><trkpt lat="55.8437890" lon="49.1834020"><time>2021-09-11T17:48:25.557</time></trkpt><trkpt lat="55.8437860" lon="49.1833930"><time>2021-09-11T17:48:26.557</time></trkpt><trkpt lat="55.8437830" lon="49.1833840"><time>2021-09-11T17:48:27.557</time></trkpt><trkpt lat="55.8437800" lon="49.1833750"><time>2021-09-11T17:48:28.557</time></trkpt><trkpt lat="55.8437770" lon="49.1833660"><time>2021-09-11T17:48:29.557</time></trkpt><trkpt lat="55.8437740" lon="49.1833570"><time>2021-09-11T17:48:30.557</time></trkpt><trkpt lat="55.8437710" lon="49.1833480"><time>2021-09-11T17:48:31.557</time></trkpt><trkpt lat="55.8437680" lon="49.1833390"><time>2021-09-11T17:48:32.557</time></trkpt><trkpt lat="55.8437650" lon="49.1833300"><time>2021-09-11T17:48:33.557</time></trkpt><trkpt lat="55.8437630" lon="49.1833210"><time>2021-09-11T17:48:34.557</time></trkpt><trkpt lat="55.8437600" lon="49.1833120"><time>2021-09-11T17:48:35.557</time></trkpt><trkpt lat="55.8437570" lon="49.1833030"><time>2021-09-11T17:48:36.557</time></trkpt><trkpt lat="55.8437540" lon="49.1832940"><time>2021-09-11T17:48:37.557</time></trkpt><trkpt lat="55.8437510" lon="49.1832850"><time>2021-09-11T17:48:38.557</time></trkpt><trkpt lat="55.8437480" lon="49.1832760"><time>2021-09-11T17:48:39.557</time></trkpt><trkpt lat="55.8437450" lon="49.1832670"><time>2021-09-11T17:48:40.557</time></trkpt><trkpt lat="55.8437420" lon="49.1832580"><time>2021-09-11T17:48:41.557</time></trkpt><trkpt lat="55.8437390" lon="49.1832490"><time>2021-09-11T17:48:42.557</time></trkpt><trkpt lat="55.8437360" lon="49.1832400"><time>2021-09-11T17:48:43.557</time></trkpt><trkpt lat="55.8437330" lon="49.1832310"><time>2021-09-11T17:48:45.557</time></trkpt><trkpt lat="55.8437300" lon="49.1832220"><time>2021-09-11T17:48:45.557</time></trkpt><trkpt lat="55.8437240" lon="49.1832090"><time>2021-09-11T17:48:47.557</time></trkpt><trkpt lat="55.8437220" lon="49.1832060"><time>2021-09-11T17:48:47.557</time></trkpt><trkpt lat="55.8437180" lon="49.1831920"><time>2021-09-11T17:48:48.557</time></trkpt><trkpt lat="55.8437170" lon="49.1831850"><time>2021-09-11T17:48:49.557</time></trkpt><trkpt lat="55.8437150" lon="49.1831790"><time>2021-09-11T17:48:51.557</time></trkpt><trkpt lat="55.8437140" lon="49.1831730"><time>2021-09-11T17:48:51.557</time></trkpt><trkpt lat="55.8437110" lon="49.1831560"><time>2021-09-11T17:48:52.557</time></trkpt><trkpt lat="55.8437090" lon="49.1831470"><time>2021-09-11T17:48:53.557</time></trkpt><trkpt lat="55.8437080" lon="49.1831370"><time>2021-09-11T17:48:54.557</time></trkpt><trkpt lat="55.8437060" lon="49.1831270"><time>2021-09-11T17:48:55.557</time></trkpt><trkpt lat="55.8437050" lon="49.1831180"><time>2021-09-11T17:48:56.557</time></trkpt><trkpt lat="55.8437030" lon="49.1831080"><time>2021-09-11T17:48:57.557</time></trkpt><trkpt lat="55.8437020" lon="49.1830980"><time>2021-09-11T17:48:58.557</time></trkpt><trkpt lat="55.8437000" lon="49.1830890"><time>2021-09-11T17:48:59.557</time></trkpt><trkpt lat="55.8436990" lon="49.1830790"><time>2021-09-11T17:49:00.557</time></trkpt><trkpt lat="55.8436970" lon="49.1830690"><time>2021-09-11T17:49:01.557</time></trkpt><trkpt lat="55.8436960" lon="49.1830600"><time>2021-09-11T17:49:02.557</time></trkpt><trkpt lat="55.8436940" lon="49.1830500"><time>2021-09-11T17:49:03.557</time></trkpt><trkpt lat="55.8436930" lon="49.1830400"><time>2021-09-11T17:49:04.557</time></trkpt><trkpt lat="55.8436910" lon="49.1830310"><time>2021-09-11T17:49:06.557</time></trkpt><trkpt lat="55.8436900" lon="49.1830210"><time>2021-09-11T17:49:06.557</time></trkpt><trkpt lat="55.8436870" lon="49.1830100"><time>2021-09-11T17:49:07.557</time></trkpt><trkpt lat="55.8436830" lon="49.1830070"><time>2021-09-11T17:49:08.557</time></trkpt><trkpt lat="55.8436780" lon="49.1830030"><time>2021-09-11T17:49:09.557</time></trkpt><trkpt lat="55.8436730" lon="49.1830000"><time>2021-09-11T17:49:11.557</time></trkpt><trkpt lat="55.8436680" lon="49.1829970"><time>2021-09-11T17:49:12.557</time></trkpt><trkpt lat="55.8436640" lon="49.1829940"><time>2021-09-11T17:49:13.557</time></trkpt><trkpt lat="55.8436590" lon="49.1829910"><time>2021-09-11T17:49:14.557</time></trkpt><trkpt lat="55.8436540" lon="49.1829880"><time>2021-09-11T17:49:15.557</time></trkpt><trkpt lat="55.8436490" lon="49.1829840"><time>2021-09-11T17:49:16.557</time></trkpt><trkpt lat="55.8436450" lon="49.1829810"><time>2021-09-11T17:49:18.557</time></trkpt><trkpt lat="55.8436400" lon="49.1829780"><time>2021-09-11T17:49:18.557</time></trkpt><trkpt lat="55.8436370" lon="49.1829610"><time>2021-09-11T17:49:19.557</time></trkpt><trkpt lat="55.8436360" lon="49.1829510"><time>2021-09-11T17:49:20.557</time></trkpt><trkpt lat="55.8436340" lon="49.1829410"><time>2021-09-11T17:49:21.557</time></trkpt><trkpt lat="55.8436330" lon="49.1829310"><time>2021-09-11T17:49:22.557</time></trkpt><trkpt lat="55.8436310" lon="49.1829220"><time>2021-09-11T17:49:23.557</time></trkpt><trkpt lat="55.8436290" lon="49.1829120"><time>2021-09-11T17:49:24.557</time></trkpt><trkpt lat="55.8436280" lon="49.1829020"><time>2021-09-11T17:49:25.557</time></trkpt><trkpt lat="55.8436260" lon="49.1828920"><time>2021-09-11T17:49:26.557</time></trkpt><trkpt lat="55.8436240" lon="49.1828820"><time>2021-09-11T17:49:27.557</time></trkpt><trkpt lat="55.8436230" lon="49.1828720"><time>2021-09-11T17:49:28.557</time></trkpt><trkpt lat="55.8436210" lon="49.1828620"><time>2021-09-11T17:49:29.557</time></trkpt><trkpt lat="55.8436200" lon="49.1828520"><time>2021-09-11T17:49:30.557</time></trkpt><trkpt lat="55.8436180" lon="49.1828430"><time>2021-09-11T17:49:31.557</time></trkpt><trkpt lat="55.8436160" lon="49.1828330"><time>2021-09-11T17:49:32.557</time></trkpt><trkpt lat="55.8436150" lon="49.1828230"><time>2021-09-11T17:49:34.557</time></trkpt><trkpt lat="55.8436130" lon="49.1828130"><time>2021-09-11T17:49:34.557</time></trkpt><trkpt lat="55.8436080" lon="49.1827840"><time>2021-09-11T17:49:35.557</time></trkpt><trkpt lat="55.8436070" lon="49.1827690"><time>2021-09-11T17:49:36.557</time></trkpt><trkpt lat="55.8436050" lon="49.1827550"><time>2021-09-11T17:49:37.557</time></trkpt><trkpt lat="55.8436030" lon="49.1827410"><time>2021-09-11T17:49:38.557</time></trkpt><trkpt lat="55.8436020" lon="49.1827260"><time>2021-09-11T17:49:40.557</time></trkpt><trkpt lat="55.8436000" lon="49.1827120"><time>2021-09-11T17:49:40.557</time></trkpt><trkpt lat="55.8436080" lon="49.1826800"><time>2021-09-11T17:49:41.557</time></trkpt><trkpt lat="55.8436140" lon="49.1826680"><time>2021-09-11T17:49:42.557</time></trkpt><trkpt lat="55.8436200" lon="49.1826560"><time>2021-09-11T17:49:43.557</time></trkpt><trkpt lat="55.8436260" lon="49.1826430"><time>2021-09-11T17:49:44.557</time></trkpt><trkpt lat="55.8436320" lon="49.1826310"><time>2021-09-11T17:49:45.557</time></trkpt><trkpt lat="55.8436390" lon="49.1826190"><time>2021-09-11T17:49:46.557</time></trkpt><trkpt lat="55.8436450" lon="49.1826070"><time>2021-09-11T17:49:47.557</time></trkpt><trkpt lat="55.8436510" lon="49.1825950"><time>2021-09-11T17:49:48.557</time></trkpt><trkpt lat="55.8436570" lon="49.1825830"><time>2021-09-11T17:49:49.557</time></trkpt><trkpt lat="55.8436630" lon="49.1825710"><time>2021-09-11T17:49:50.557</time></trkpt><trkpt lat="55.8436690" lon="49.1825580"><time>2021-09-11T17:49:51.557</time></trkpt><trkpt lat="55.8436750" lon="49.1825460"><time>2021-09-11T17:49:52.557</time></trkpt><trkpt lat="55.8436810" lon="49.1825340"><time>2021-09-11T17:49:53.557</time></trkpt><trkpt lat="55.8436870" lon="49.1825220"><time>2021-09-11T17:49:54.557</time></trkpt><trkpt lat="55.8436930" lon="49.1825100"><time>2021-09-11T17:49:55.557</time></trkpt><trkpt lat="55.8437000" lon="49.1824980"><time>2021-09-11T17:49:56.557</time></trkpt><trkpt lat="55.8437060" lon="49.1824860"><time>2021-09-11T17:49:57.557</time></trkpt><trkpt lat="55.8437120" lon="49.1824730"><time>2021-09-11T17:49:58.557</time></trkpt><trkpt lat="55.8437180" lon="49.1824610"><time>2021-09-11T17:49:59.557</time></trkpt><trkpt lat="55.8437240" lon="49.1824490"><time>2021-09-11T17:50:01.557</time></trkpt><trkpt lat="55.8437300" lon="49.1824370"><time>2021-09-11T17:50:01.557</time></trkpt><trkpt lat="55.8437240" lon="49.1824470"><time>2021-09-11T17:50:02.557</time></trkpt><trkpt lat="55.8437170" lon="49.1824550"><time>2021-09-11T17:50:03.557</time></trkpt><trkpt lat="55.8437110" lon="49.1824640"><time>2021-09-11T17:50:04.557</time></trkpt><trkpt lat="55.8437040" lon="49.1824730"><time>2021-09-11T17:50:05.557</time></trkpt><trkpt lat="55.8436980" lon="49.1824820"><time>2021-09-11T17:50:06.557</time></trkpt><trkpt lat="55.8436910" lon="49.1824900"><time>2021-09-11T17:50:08.557</time></trkpt><trkpt lat="55.8436850" lon="49.1824990"><time>2021-09-11T17:50:08.557</time></trkpt><trkpt lat="55.8436630" lon="49.1825140"><time>2021-09-11T17:50:09.557</time></trkpt><trkpt lat="55.8436530" lon="49.1825160"><time>2021-09-11T17:50:10.557</time></trkpt><trkpt lat="55.8436430" lon="49.1825190"><time>2021-09-11T17:50:11.557</time></trkpt><trkpt lat="55.8436320" lon="49.1825220"><time>2021-09-11T17:50:12.557</time></trkpt><trkpt lat="55.8436220" lon="49.1825240"><time>2021-09-11T17:50:14.557</time></trkpt><trkpt lat="55.8436120" lon="49.1825270"><time>2021-09-11T17:50:14.557</time></trkpt><trkpt lat="55.8435950" lon="49.1825340"><time>2021-09-11T17:50:15.557</time></trkpt><trkpt lat="55.8435880" lon="49.1825370"><time>2021-09-11T17:50:16.557</time></trkpt><trkpt lat="55.8435820" lon="49.1825410"><time>2021-09-11T17:50:17.557</time></trkpt><trkpt lat="55.8435760" lon="49.1825440"><time>2021-09-11T17:50:18.557</time></trkpt><trkpt lat="55.8435700" lon="49.1825480"><time>2021-09-11T17:50:19.557</time></trkpt><trkpt lat="55.8435630" lon="49.1825520"><time>2021-09-11T17:50:20.557</time></trkpt><trkpt lat="55.8435570" lon="49.1825550"><time>2021-09-11T17:50:21.557</time></trkpt><trkpt lat="55.8435510" lon="49.1825590"><time>2021-09-11T17:50:23.557</time></trkpt><trkpt lat="55.8435440" lon="49.1825620"><time>2021-09-11T17:50:25.557</time></trkpt><trkpt lat="55.8435380" lon="49.1825660"><time>2021-09-11T17:50:25.557</time></trkpt><trkpt lat="55.8435340" lon="49.1825790"><time>2021-09-11T17:50:26.557</time></trkpt><trkpt lat="55.8435300" lon="49.1825940"><time>2021-09-11T17:50:27.557</time></trkpt><trkpt lat="55.8435240" lon="49.1826140"><time>2021-09-11T17:50:28.557</time></trkpt><trkpt lat="55.8435170" lon="49.1826380"><time>2021-09-11T17:50:29.557</time></trkpt><trkpt lat="55.8435070" lon="49.1826640"><time>2021-09-11T17:50:30.557</time></trkpt><trkpt lat="55.8434850" lon="49.1827020"><time>2021-09-11T17:50:31.557</time></trkpt><trkpt lat="55.8434750" lon="49.1827140"><time>2021-09-11T17:50:32.557</time></trkpt><trkpt lat="55.8434640" lon="49.1827270"><time>2021-09-11T17:50:33.557</time></trkpt><trkpt lat="55.8434530" lon="49.1827390"><time>2021-09-11T17:50:34.557</time></trkpt><trkpt lat="55.8434430" lon="49.1827520"><time>2021-09-11T17:50:35.557</time></trkpt><trkpt lat="55.8434320" lon="49.1827640"><time>2021-09-11T17:50:36.557</time></trkpt><trkpt lat="55.8434210" lon="49.1827770"><time>2021-09-11T17:50:37.557</time></trkpt><trkpt lat="55.8434110" lon="49.1827890"><time>2021-09-11T17:50:38.557</time></trkpt><trkpt lat="55.8434000" lon="49.1828020"><time>2021-09-11T17:50:39.557</time></trkpt><trkpt lat="55.8433890" lon="49.1828140"><time>2021-09-11T17:50:40.557</time></trkpt><trkpt lat="55.8433790" lon="49.1828270"><time>2021-09-11T17:50:42.557</time></trkpt><trkpt lat="55.8433680" lon="49.1828390"><time>2021-09-11T17:50:42.557</time></trkpt><trkpt lat="55.8433530" lon="49.1828540"><time>2021-09-11T17:50:43.557</time></trkpt><trkpt lat="55.8433390" lon="49.1828690"><time>2021-09-11T17:50:44.557</time></trkpt><trkpt lat="55.8433230" lon="49.1828850"><time>2021-09-11T17:50:45.557</time></trkpt><trkpt lat="55.8433070" lon="49.1828990"><time>2021-09-11T17:50:46.557</time></trkpt><trkpt lat="55.8432830" lon="49.1829190"><time>2021-09-11T17:50:48.557</time></trkpt><trkpt lat="55.8432750" lon="49.1829260"><time>2021-09-11T17:50:48.557</time></trkpt><trkpt lat="55.8432600" lon="49.1829420"><time>2021-09-11T17:50:49.557</time></trkpt><trkpt lat="55.8432430" lon="49.1829590"><time>2021-09-11T17:50:50.557</time></trkpt><trkpt lat="55.8432260" lon="49.1829770"><time>2021-09-11T17:50:51.557</time></trkpt><trkpt lat="55.8432090" lon="49.1829930"><time>2021-09-11T17:50:52.557</time></trkpt><trkpt lat="55.8431940" lon="49.1830090"><time>2021-09-11T17:50:53.557</time></trkpt><trkpt lat="55.8431790" lon="49.1830230"><time>2021-09-11T17:50:54.557</time></trkpt><trkpt lat="55.8431650" lon="49.1830350"><time>2021-09-11T17:50:55.557</time></trkpt><trkpt lat="55.8431540" lon="49.1830440"><time>2021-09-11T17:50:56.557</time></trkpt><trkpt lat="55.8431430" lon="49.1830520"><time>2021-09-11T17:50:57.557</time></trkpt><trkpt lat="55.8431330" lon="49.1830620"><time>2021-09-11T17:50:58.557</time></trkpt><trkpt lat="55.8431220" lon="49.1830730"><time>2021-09-11T17:50:59.557</time></trkpt><trkpt lat="55.8431110" lon="49.1830820"><time>2021-09-11T17:51:00.557</time></trkpt><trkpt lat="55.8430990" lon="49.1830910"><time>2021-09-11T17:51:01.557</time></trkpt><trkpt lat="55.8430840" lon="49.1831010"><time>2021-09-11T17:51:02.557</time></trkpt><trkpt lat="55.8430700" lon="49.1831140"><time>2021-09-11T17:51:03.557</time></trkpt><trkpt lat="55.8430540" lon="49.1831300"><time>2021-09-11T17:51:04.557</time></trkpt><trkpt lat="55.8430350" lon="49.1831480"><time>2021-09-11T17:51:05.557</time></trkpt><trkpt lat="55.8430170" lon="49.1831640"><time>2021-09-11T17:51:06.557</time></trkpt><trkpt lat="55.8430000" lon="49.1831770"><time>2021-09-11T17:51:07.557</time></trkpt><trkpt lat="55.8429830" lon="49.1831870"><time>2021-09-11T17:51:08.557</time></trkpt><trkpt lat="55.8429680" lon="49.1831990"><time>2021-09-11T17:51:09.557</time></trkpt><trkpt lat="55.8429540" lon="49.1832120"><time>2021-09-11T17:51:10.557</time></trkpt><trkpt lat="55.8429400" lon="49.1832290"><time>2021-09-11T17:51:11.557</time></trkpt><trkpt lat="55.8429270" lon="49.1832460"><time>2021-09-11T17:51:12.557</time></trkpt><trkpt lat="55.8429120" lon="49.1832620"><time>2021-09-11T17:51:13.557</time></trkpt><trkpt lat="55.8428970" lon="49.1832800"><time>2021-09-11T17:51:14.557</time></trkpt><trkpt lat="55.8428770" lon="49.1833000"><time>2021-09-11T17:51:16.557</time></trkpt><trkpt lat="55.8428700" lon="49.1833070"><time>2021-09-11T17:51:16.557</time></trkpt><trkpt lat="55.8428570" lon="49.1833230"><time>2021-09-11T17:51:17.557</time></trkpt><trkpt lat="55.8428430" lon="49.1833430"><time>2021-09-11T17:51:18.557</time></trkpt><trkpt lat="55.8428260" lon="49.1833650"><time>2021-09-11T17:51:19.557</time></trkpt><trkpt lat="55.8428100" lon="49.1833870"><time>2021-09-11T17:51:20.557</time></trkpt><trkpt lat="55.8427930" lon="49.1834090"><time>2021-09-11T17:51:21.557</time></trkpt><trkpt lat="55.8427750" lon="49.1834290"><time>2021-09-11T17:51:22.557</time></trkpt><trkpt lat="55.8427590" lon="49.1834480"><time>2021-09-11T17:51:23.557</time></trkpt><trkpt lat="55.8427370" lon="49.1834700"><time>2021-09-11T17:51:24.557</time></trkpt><trkpt lat="55.8427300" lon="49.1834780"><time>2021-09-11T17:51:26.557</time></trkpt><trkpt lat="55.8427230" lon="49.1834850"><time>2021-09-11T17:51:26.557</time></trkpt><trkpt lat="55.8427010" lon="49.1835040"><time>2021-09-11T17:51:32.557</time></trkpt><trkpt lat="55.8427000" lon="49.1835050"><time>2021-09-11T17:51:33.557</time></trkpt><trkpt lat="55.8426990" lon="49.1835070"><time>2021-09-11T17:51:35.557</time></trkpt><trkpt lat="55.8426980" lon="49.1835080"><time>2021-09-11T17:51:35.557</time></trkpt><trkpt lat="55.8427000" lon="49.1835060"><time>2021-09-11T17:51:36.557</time></trkpt><trkpt lat="55.8427020" lon="49.1835030"><time>2021-09-11T17:51:38.557</time></trkpt><trkpt lat="55.8427050" lon="49.1834990"><time>2021-09-11T17:51:39.557</time></trkpt><trkpt lat="55.8427070" lon="49.1834960"><time>2021-09-11T17:51:41.557</time></trkpt><trkpt lat="55.8427100" lon="49.1834920"><time>2021-09-11T17:51:41.557</time></trkpt><trkpt lat="55.8427140" lon="49.1834870"><time>2021-09-11T17:51:42.557</time></trkpt><trkpt lat="55.8427180" lon="49.1834820"><time>2021-09-11T17:51:43.557</time></trkpt><trkpt lat="55.8427200" lon="49.1834800"><time>2021-09-11T17:51:44.557</time></trkpt><trkpt lat="55.8427210" lon="49.1834830"><time>2021-09-11T17:51:45.557</time></trkpt><trkpt lat="55.8427200" lon="49.1834870"><time>2021-09-11T17:51:46.557</time></trkpt><trkpt lat="55.8427150" lon="49.1834950"><time>2021-09-11T17:51:47.557</time></trkpt><trkpt lat="55.8427080" lon="49.1835050"><time>2021-09-11T17:51:48.557</time></trkpt><trkpt lat="55.8426970" lon="49.1835150"><time>2021-09-11T17:51:49.557</time></trkpt><trkpt lat="55.8426850" lon="49.1835290"><time>2021-09-11T17:51:50.557</time></trkpt><trkpt lat="55.8426720" lon="49.1835460"><time>2021-09-11T17:51:51.557</time></trkpt><trkpt lat="55.8426580" lon="49.1835670"><time>2021-09-11T17:51:52.557</time></trkpt><trkpt lat="55.8426420" lon="49.1835900"><time>2021-09-11T17:51:53.557</time></trkpt><trkpt lat="55.8426260" lon="49.1836140"><time>2021-09-11T17:51:54.557</time></trkpt><trkpt lat="55.8426090" lon="49.1836360"><time>2021-09-11T17:51:55.557</time></trkpt><trkpt lat="55.8425830" lon="49.1836690"><time>2021-09-11T17:51:57.557</time></trkpt><trkpt lat="55.8425740" lon="49.1836800"><time>2021-09-11T17:51:57.557</time></trkpt><trkpt lat="55.8425570" lon="49.1837020"><time>2021-09-11T17:51:58.557</time></trkpt><trkpt lat="55.8425400" lon="49.1837280"><time>2021-09-11T17:51:59.557</time></trkpt><trkpt lat="55.8425230" lon="49.1837550"><time>2021-09-11T17:52:00.557</time></trkpt><trkpt lat="55.8425060" lon="49.1837810"><time>2021-09-11T17:52:01.557</time></trkpt><trkpt lat="55.8424870" lon="49.1838070"><time>2021-09-11T17:52:02.557</time></trkpt><trkpt lat="55.8424680" lon="49.1838310"><time>2021-09-11T17:52:03.557</time></trkpt><trkpt lat="55.8424480" lon="49.1838590"><time>2021-09-11T17:52:04.557</time></trkpt><trkpt lat="55.8424300" lon="49.1838880"><time>2021-09-11T17:52:05.557</time></trkpt><trkpt lat="55.8424150" lon="49.1839170"><time>2021-09-11T17:52:06.557</time></trkpt><trkpt lat="55.8424010" lon="49.1839440"><time>2021-09-11T17:52:07.557</time></trkpt><trkpt lat="55.8423880" lon="49.1839700"><time>2021-09-11T17:52:08.557</time></trkpt><trkpt lat="55.8423760" lon="49.1839930"><time>2021-09-11T17:52:09.557</time></trkpt><trkpt lat="55.8423660" lon="49.1840150"><time>2021-09-11T17:52:09.557</time></trkpt><trkpt lat="55.8423580" lon="49.1840290"><time>2021-09-11T17:52:10.557</time></trkpt><trkpt lat="55.8423510" lon="49.1840330"><time>2021-09-11T17:52:11.557</time></trkpt><trkpt lat="55.8423480" lon="49.1840320"><time>2021-09-11T17:52:12.557</time></trkpt><trkpt lat="55.8423470" lon="49.1840290"><time>2021-09-11T17:52:13.557</time></trkpt><trkpt lat="55.8423490" lon="49.1840210"><time>2021-09-11T17:52:14.557</time></trkpt><trkpt lat="55.8423540" lon="49.1840060"><time>2021-09-11T17:52:15.557</time></trkpt><trkpt lat="55.8423610" lon="49.1839870"><time>2021-09-11T17:52:16.557</time></trkpt><trkpt lat="55.8423720" lon="49.1839650"><time>2021-09-11T17:52:17.557</time></trkpt><trkpt lat="55.8423830" lon="49.1839420"><time>2021-09-11T17:52:18.557</time></trkpt><trkpt lat="55.8423970" lon="49.1839180"><time>2021-09-11T17:52:19.557</time></trkpt><trkpt lat="55.8424230" lon="49.1838820"><time>2021-09-11T17:52:21.557</time></trkpt><trkpt lat="55.8424330" lon="49.1838700"><time>2021-09-11T17:52:21.557</time></trkpt><trkpt lat="55.8424540" lon="49.1838500"><time>2021-09-11T17:52:22.557</time></trkpt><trkpt lat="55.8424730" lon="49.1838300"><time>2021-09-11T17:52:23.557</time></trkpt><trkpt lat="55.8424920" lon="49.1838100"><time>2021-09-11T17:52:24.557</time></trkpt><trkpt lat="55.8425090" lon="49.1837890"><time>2021-09-11T17:52:25.557</time></trkpt><trkpt lat="55.8425370" lon="49.1837550"><time>2021-09-11T17:52:27.557</time></trkpt><trkpt lat="55.8425460" lon="49.1837440"><time>2021-09-11T17:52:27.557</time></trkpt><trkpt lat="55.8425650" lon="49.1837230"><time>2021-09-11T17:52:28.557</time></trkpt><trkpt lat="55.8425810" lon="49.1837030"><time>2021-09-11T17:52:29.557</time></trkpt><trkpt lat="55.8425950" lon="49.1836850"><time>2021-09-11T17:52:30.557</time></trkpt><trkpt lat="55.8426060" lon="49.1836660"><time>2021-09-11T17:52:31.557</time></trkpt><trkpt lat="55.8426150" lon="49.1836460"><time>2021-09-11T17:52:32.557</time></trkpt><trkpt lat="55.8426250" lon="49.1836270"><time>2021-09-11T17:52:33.557</time></trkpt><trkpt lat="55.8426380" lon="49.1836070"><time>2021-09-11T17:52:34.557</time></trkpt><trkpt lat="55.8426510" lon="49.1835850"><time>2021-09-11T17:52:35.557</time></trkpt><trkpt lat="55.8426640" lon="49.1835620"><time>2021-09-11T17:52:36.557</time></trkpt><trkpt lat="55.8426760" lon="49.1835380"><time>2021-09-11T17:52:37.557</time></trkpt><trkpt lat="55.8426900" lon="49.1835140"><time>2021-09-11T17:52:38.557</time></trkpt><trkpt lat="55.8427060" lon="49.1834890"><time>2021-09-11T17:52:39.557</time></trkpt><trkpt lat="55.8427230" lon="49.1834670"><time>2021-09-11T17:52:40.557</time></trkpt><trkpt lat="55.8427400" lon="49.1834460"><time>2021-09-11T17:52:41.557</time></trkpt><trkpt lat="55.8427580" lon="49.1834230"><time>2021-09-11T17:52:42.557</time></trkpt><trkpt lat="55.8427760" lon="49.1833990"><time>2021-09-11T17:52:43.557</time></trkpt><trkpt lat="55.8427920" lon="49.1833770"><time>2021-09-11T17:52:44.557</time></trkpt><trkpt lat="55.8428070" lon="49.1833560"><time>2021-09-11T17:52:45.557</time></trkpt><trkpt lat="55.8428220" lon="49.1833370"><time>2021-09-11T17:52:46.557</time></trkpt><trkpt lat="55.8428380" lon="49.1833190"><time>2021-09-11T17:52:47.557</time></trkpt><trkpt lat="55.8428550" lon="49.1833020"><time>2021-09-11T17:52:48.557</time></trkpt><trkpt lat="55.8428800" lon="49.1832780"><time>2021-09-11T17:52:50.557</time></trkpt><trkpt lat="55.8428870" lon="49.1832690"><time>2021-09-11T17:52:50.557</time></trkpt><trkpt lat="55.8429020" lon="49.1832530"><time>2021-09-11T17:52:51.557</time></trkpt><trkpt lat="55.8429180" lon="49.1832350"><time>2021-09-11T17:52:52.557</time></trkpt><trkpt lat="55.8429350" lon="49.1832200"><time>2021-09-11T17:52:53.557</time></trkpt><trkpt lat="55.8429520" lon="49.1832080"><time>2021-09-11T17:52:55.557</time></trkpt><trkpt lat="55.8429690" lon="49.1831960"><time>2021-09-11T17:52:56.557</time></trkpt><trkpt lat="55.8429850" lon="49.1831820"><time>2021-09-11T17:52:56.557</time></trkpt><trkpt lat="55.8430010" lon="49.1831650"><time>2021-09-11T17:52:57.557</time></trkpt><trkpt lat="55.8430180" lon="49.1831470"><time>2021-09-11T17:52:58.557</time></trkpt><trkpt lat="55.8430330" lon="49.1831310"><time>2021-09-11T17:52:59.557</time></trkpt><trkpt lat="55.8430490" lon="49.1831180"><time>2021-09-11T17:53:00.557</time></trkpt><trkpt lat="55.8430710" lon="49.1831020"><time>2021-09-11T17:53:01.557</time></trkpt><trkpt lat="55.8430800" lon="49.1830960"><time>2021-09-11T17:53:02.557</time></trkpt><trkpt lat="55.8430880" lon="49.1830890"><time>2021-09-11T17:53:03.557</time></trkpt><trkpt lat="55.8430970" lon="49.1830830"><time>2021-09-11T17:53:04.557</time></trkpt><trkpt lat="55.8431050" lon="49.1830760"><time>2021-09-11T17:53:05.557</time></trkpt><trkpt lat="55.8431140" lon="49.1830700"><time>2021-09-11T17:53:07.557</time></trkpt><trkpt lat="55.8431220" lon="49.1830630"><time>2021-09-11T17:53:07.557</time></trkpt><trkpt lat="55.8431360" lon="49.1830490"><time>2021-09-11T17:53:08.557</time></trkpt><trkpt lat="55.8431500" lon="49.1830350"><time>2021-09-11T17:53:09.557</time></trkpt><trkpt lat="55.8431650" lon="49.1830190"><time>2021-09-11T17:53:10.557</time></trkpt><trkpt lat="55.8431790" lon="49.1830010"><time>2021-09-11T17:53:11.557</time></trkpt><trkpt lat="55.8431940" lon="49.1829820"><time>2021-09-11T17:53:12.557</time></trkpt><trkpt lat="55.8432100" lon="49.1829650"><time>2021-09-11T17:53:13.557</time></trkpt><trkpt lat="55.8432270" lon="49.1829490"><time>2021-09-11T17:53:14.557</time></trkpt><trkpt lat="55.8432470" lon="49.1829340"><time>2021-09-11T17:53:15.557</time></trkpt><trkpt lat="55.8432670" lon="49.1829190"><time>2021-09-11T17:53:16.557</time></trkpt><trkpt lat="55.8432860" lon="49.1829060"><time>2021-09-11T17:53:17.557</time></trkpt><trkpt lat="55.8433030" lon="49.1828930"><time>2021-09-11T17:53:18.557</time></trkpt><trkpt lat="55.8433220" lon="49.1828770"><time>2021-09-11T17:53:19.557</time></trkpt><trkpt lat="55.8433410" lon="49.1828630"><time>2021-09-11T17:53:20.557</time></trkpt><trkpt lat="55.8433580" lon="49.1828510"><time>2021-09-11T17:53:21.557</time></trkpt><trkpt lat="55.8433810" lon="49.1828270"><time>2021-09-11T17:53:22.557</time></trkpt><trkpt lat="55.8433890" lon="49.1828150"><time>2021-09-11T17:53:23.557</time></trkpt><trkpt lat="55.8433970" lon="49.1828040"><time>2021-09-11T17:53:24.557</time></trkpt><trkpt lat="55.8434050" lon="49.1827920"><time>2021-09-11T17:53:25.557</time></trkpt><trkpt lat="55.8434130" lon="49.1827800"><time>2021-09-11T17:53:26.557</time></trkpt><trkpt lat="55.8434210" lon="49.1827680"><time>2021-09-11T17:53:27.557</time></trkpt><trkpt lat="55.8434290" lon="49.1827570"><time>2021-09-11T17:53:28.557</time></trkpt><trkpt lat="55.8434370" lon="49.1827450"><time>2021-09-11T17:53:29.557</time></trkpt><trkpt lat="55.8434450" lon="49.1827330"><time>2021-09-11T17:53:30.557</time></trkpt><trkpt lat="55.8434530" lon="49.1827210"><time>2021-09-11T17:53:31.557</time></trkpt><trkpt lat="55.8434610" lon="49.1827100"><time>2021-09-11T17:53:32.557</time></trkpt><trkpt lat="55.8434690" lon="49.1826980"><time>2021-09-11T17:53:34.557</time></trkpt><trkpt lat="55.8434770" lon="49.1826860"><time>2021-09-11T17:53:34.557</time></trkpt><trkpt lat="55.8434940" lon="49.1826500"><time>2021-09-11T17:53:35.557</time></trkpt><trkpt lat="55.8435020" lon="49.1826410"><time>2021-09-11T17:53:36.557</time></trkpt><trkpt lat="55.8435110" lon="49.1826310"><time>2021-09-11T17:53:37.557</time></trkpt><trkpt lat="55.8435190" lon="49.1826220"><time>2021-09-11T17:53:38.557</time></trkpt><trkpt lat="55.8435280" lon="49.1826120"><time>2021-09-11T17:53:39.557</time></trkpt><trkpt lat="55.8435370" lon="49.1826020"><time>2021-09-11T17:53:40.557</time></trkpt><trkpt lat="55.8435450" lon="49.1825930"><time>2021-09-11T17:53:41.557</time></trkpt><trkpt lat="55.8435540" lon="49.1825830"><time>2021-09-11T17:53:42.557</time></trkpt><trkpt lat="55.8435620" lon="49.1825740"><time>2021-09-11T17:53:44.557</time></trkpt><trkpt lat="55.8435710" lon="49.1825640"><time>2021-09-11T17:53:44.557</time></trkpt><trkpt lat="55.8435970" lon="49.1825530"><time>2021-09-11T17:53:45.557</time></trkpt><trkpt lat="55.8436100" lon="49.1825420"><time>2021-09-11T17:53:46.557</time></trkpt><trkpt lat="55.8436230" lon="49.1825320"><time>2021-09-11T17:53:47.557</time></trkpt><trkpt lat="55.8436350" lon="49.1825210"><time>2021-09-11T17:53:48.557</time></trkpt><trkpt lat="55.8436480" lon="49.1825110"><time>2021-09-11T17:53:50.557</time></trkpt><trkpt lat="55.8436610" lon="49.1825000"><time>2021-09-11T17:53:50.557</time></trkpt><trkpt lat="55.8436760" lon="49.1824830"><time>2021-09-11T17:53:51.557</time></trkpt><trkpt lat="55.8436930" lon="49.1824690"><time>2021-09-11T17:53:52.557</time></trkpt><trkpt lat="55.8437100" lon="49.1824560"><time>2021-09-11T17:53:53.557</time></trkpt><trkpt lat="55.8437280" lon="49.1824410"><time>2021-09-11T17:53:54.557</time></trkpt><trkpt lat="55.8437530" lon="49.1824170"><time>2021-09-11T17:53:56.557</time></trkpt><trkpt lat="55.8437610" lon="49.1824080"><time>2021-09-11T17:53:56.557</time></trkpt><trkpt lat="55.8437750" lon="49.1823900"><time>2021-09-11T17:53:57.557</time></trkpt><trkpt lat="55.8437890" lon="49.1823720"><time>2021-09-11T17:53:58.557</time></trkpt><trkpt lat="55.8438010" lon="49.1823570"><time>2021-09-11T17:53:59.557</time></trkpt><trkpt lat="55.8438130" lon="49.1823430"><time>2021-09-11T17:54:00.557</time></trkpt><trkpt lat="55.8438240" lon="49.1823290"><time>2021-09-11T17:54:01.557</time></trkpt><trkpt lat="55.8438360" lon="49.1823140"><time>2021-09-11T17:54:02.557</time></trkpt><trkpt lat="55.8438490" lon="49.1822990"><time>2021-09-11T17:54:03.557</time></trkpt><trkpt lat="55.8438640" lon="49.1822800"><time>2021-09-11T17:54:04.557</time></trkpt><trkpt lat="55.8438780" lon="49.1822660"><time>2021-09-11T17:54:05.557</time></trkpt><trkpt lat="55.8438920" lon="49.1822550"><time>2021-09-11T17:54:06.557</time></trkpt><trkpt lat="55.8439070" lon="49.1822460"><time>2021-09-11T17:54:07.557</time></trkpt><trkpt lat="55.8439210" lon="49.1822360"><time>2021-09-11T17:54:08.557</time></trkpt><trkpt lat="55.8439340" lon="49.1822280"><time>2021-09-11T17:54:09.557</time></trkpt><trkpt lat="55.8439460" lon="49.1822220"><time>2021-09-11T17:54:10.557</time></trkpt><trkpt lat="55.8439580" lon="49.1822190"><time>2021-09-11T17:54:11.557</time></trkpt><trkpt lat="55.8439750" lon="49.1822130"><time>2021-09-11T17:54:12.557</time></trkpt><trkpt lat="55.8439920" lon="49.1822060"><time>2021-09-11T17:54:13.557</time></trkpt><trkpt lat="55.8440070" lon="49.1821990"><time>2021-09-11T17:54:14.557</time></trkpt><trkpt lat="55.8440230" lon="49.1821900"><time>2021-09-11T17:54:15.557</time></trkpt><trkpt lat="55.8440370" lon="49.1821790"><time>2021-09-11T17:54:16.557</time></trkpt><trkpt lat="55.8440510" lon="49.1821650"><time>2021-09-11T17:54:17.557</time></trkpt><trkpt lat="55.8440640" lon="49.1821490"><time>2021-09-11T17:54:18.557</time></trkpt><trkpt lat="55.8440770" lon="49.1821350"><time>2021-09-11T17:54:19.557</time></trkpt><trkpt lat="55.8440900" lon="49.1821220"><time>2021-09-11T17:54:20.557</time></trkpt><trkpt lat="55.8441030" lon="49.1821100"><time>2021-09-11T17:54:21.557</time></trkpt><trkpt lat="55.8441170" lon="49.1820960"><time>2021-09-11T17:54:22.557</time></trkpt><trkpt lat="55.8441330" lon="49.1820800"><time>2021-09-11T17:54:23.557</time></trkpt><trkpt lat="55.8441500" lon="49.1820660"><time>2021-09-11T17:54:24.557</time></trkpt><trkpt lat="55.8441660" lon="49.1820540"><time>2021-09-11T17:54:25.557</time></trkpt><trkpt lat="55.8441910" lon="49.1820440"><time>2021-09-11T17:54:26.557</time></trkpt><trkpt lat="55.8442000" lon="49.1820400"><time>2021-09-11T17:54:28.557</time></trkpt><trkpt lat="55.8442100" lon="49.1820370"><time>2021-09-11T17:54:28.557</time></trkpt><trkpt lat="55.8442320" lon="49.1820190"><time>2021-09-11T17:54:29.557</time></trkpt><trkpt lat="55.8442420" lon="49.1820080"><time>2021-09-11T17:54:30.557</time></trkpt><trkpt lat="55.8442530" lon="49.1819970"><time>2021-09-11T17:54:31.557</time></trkpt><trkpt lat="55.8442630" lon="49.1819860"><time>2021-09-11T17:54:32.557</time></trkpt><trkpt lat="55.8442730" lon="49.1819750"><time>2021-09-11T17:54:34.557</time></trkpt><trkpt lat="55.8442830" lon="49.1819640"><time>2021-09-11T17:54:34.557</time></trkpt><trkpt lat="55.8443090" lon="49.1819420"><time>2021-09-11T17:54:35.557</time></trkpt><trkpt lat="55.8443190" lon="49.1819290"><time>2021-09-11T17:54:36.557</time></trkpt><trkpt lat="55.8443300" lon="49.1819170"><time>2021-09-11T17:54:37.557</time></trkpt><trkpt lat="55.8443410" lon="49.1819050"><time>2021-09-11T17:54:38.557</time></trkpt><trkpt lat="55.8443510" lon="49.1818920"><time>2021-09-11T17:54:40.557</time></trkpt><trkpt lat="55.8443620" lon="49.1818800"><time>2021-09-11T17:54:40.557</time></trkpt><trkpt lat="55.8443730" lon="49.1818600"><time>2021-09-11T17:54:41.557</time></trkpt><trkpt lat="55.8443870" lon="49.1818390"><time>2021-09-11T17:54:42.557</time></trkpt><trkpt lat="55.8444020" lon="49.1818200"><time>2021-09-11T17:54:43.557</time></trkpt><trkpt lat="55.8444280" lon="49.1817940"><time>2021-09-11T17:54:44.557</time></trkpt><trkpt lat="55.8444390" lon="49.1817840"><time>2021-09-11T17:54:45.557</time></trkpt><trkpt lat="55.8444510" lon="49.1817730"><time>2021-09-11T17:54:47.557</time></trkpt><trkpt lat="55.8444620" lon="49.1817620"><time>2021-09-11T17:54:47.557</time></trkpt><trkpt lat="55.8444790" lon="49.1817600"><time>2021-09-11T17:54:48.557</time></trkpt><trkpt lat="55.8444960" lon="49.1817610"><time>2021-09-11T17:54:49.557</time></trkpt><trkpt lat="55.8445150" lon="49.1817640"><time>2021-09-11T17:54:50.557</time></trkpt><trkpt lat="55.8445330" lon="49.1817640"><time>2021-09-11T17:54:51.557</time></trkpt><trkpt lat="55.8445500" lon="49.1817620"><time>2021-09-11T17:54:52.557</time></trkpt><trkpt lat="55.8445670" lon="49.1817580"><time>2021-09-11T17:54:53.557</time></trkpt><trkpt lat="55.8445840" lon="49.1817520"><time>2021-09-11T17:54:54.557</time></trkpt><trkpt lat="55.8446010" lon="49.1817410"><time>2021-09-11T17:54:55.557</time></trkpt><trkpt lat="55.8446290" lon="49.1817190"><time>2021-09-11T17:54:57.557</time></trkpt><trkpt lat="55.8446380" lon="49.1817110"><time>2021-09-11T17:54:57.557</time></trkpt><trkpt lat="55.8446560" lon="49.1816970"><time>2021-09-11T17:54:58.557</time></trkpt><trkpt lat="55.8446730" lon="49.1816830"><time>2021-09-11T17:54:59.557</time></trkpt><trkpt lat="55.8447000" lon="49.1816710"><time>2021-09-11T17:55:00.557</time></trkpt><trkpt lat="55.8447120" lon="49.1816670"><time>2021-09-11T17:55:01.557</time></trkpt><trkpt lat="55.8447240" lon="49.1816640"><time>2021-09-11T17:55:02.557</time></trkpt><trkpt lat="55.8447360" lon="49.1816610"><time>2021-09-11T17:55:03.557</time></trkpt><trkpt lat="55.8447490" lon="49.1816570"><time>2021-09-11T17:55:04.557</time></trkpt><trkpt lat="55.8447610" lon="49.1816540"><time>2021-09-11T17:55:05.557</time></trkpt><trkpt lat="55.8447730" lon="49.1816510"><time>2021-09-11T17:55:06.557</time></trkpt><trkpt lat="55.8447850" lon="49.1816470"><time>2021-09-11T17:55:08.557</time></trkpt><trkpt lat="55.8447970" lon="49.1816440"><time>2021-09-11T17:55:08.557</time></trkpt><trkpt lat="55.8448110" lon="49.1816420"><time>2021-09-11T17:55:09.557</time></trkpt><trkpt lat="55.8448280" lon="49.1816370"><time>2021-09-11T17:55:10.557</time></trkpt><trkpt lat="55.8448470" lon="49.1816290"><time>2021-09-11T17:55:11.557</time></trkpt><trkpt lat="55.8448670" lon="49.1816200"><time>2021-09-11T17:55:12.557</time></trkpt><trkpt lat="55.8448970" lon="49.1816000"><time>2021-09-11T17:55:14.557</time></trkpt><trkpt lat="55.8449060" lon="49.1815940"><time>2021-09-11T17:55:14.557</time></trkpt><trkpt lat="55.8449230" lon="49.1815810"><time>2021-09-11T17:55:15.557</time></trkpt><trkpt lat="55.8449420" lon="49.1815660"><time>2021-09-11T17:55:16.557</time></trkpt><trkpt lat="55.8449640" lon="49.1815460"><time>2021-09-11T17:55:17.557</time></trkpt><trkpt lat="55.8449850" lon="49.1815260"><time>2021-09-11T17:55:18.557</time></trkpt><trkpt lat="55.8450040" lon="49.1815030"><time>2021-09-11T17:55:19.557</time></trkpt><trkpt lat="55.8450310" lon="49.1814680"><time>2021-09-11T17:55:21.557</time></trkpt><trkpt lat="55.8450390" lon="49.1814550"><time>2021-09-11T17:55:21.557</time></trkpt><trkpt lat="55.8450530" lon="49.1814300"><time>2021-09-11T17:55:22.557</time></trkpt><trkpt lat="55.8450680" lon="49.1814000"><time>2021-09-11T17:55:23.557</time></trkpt><trkpt lat="55.8450790" lon="49.1813690"><time>2021-09-11T17:55:24.557</time></trkpt><trkpt lat="55.8450900" lon="49.1813380"><time>2021-09-11T17:55:25.557</time></trkpt><trkpt lat="55.8451030" lon="49.1813090"><time>2021-09-11T17:55:26.557</time></trkpt><trkpt lat="55.8451200" lon="49.1812680"><time>2021-09-11T17:55:28.557</time></trkpt><trkpt lat="55.8451250" lon="49.1812530"><time>2021-09-11T17:55:28.557</time></trkpt><trkpt lat="55.8451360" lon="49.1812230"><time>2021-09-11T17:55:29.557</time></trkpt><trkpt lat="55.8451460" lon="49.1811960"><time>2021-09-11T17:55:30.557</time></trkpt><trkpt lat="55.8451560" lon="49.1811720"><time>2021-09-11T17:55:31.557</time></trkpt><trkpt lat="55.8451650" lon="49.1811470"><time>2021-09-11T17:55:32.557</time></trkpt><trkpt lat="55.8451730" lon="49.1811230"><time>2021-09-11T17:55:33.557</time></trkpt><trkpt lat="55.8451800" lon="49.1810980"><time>2021-09-11T17:55:34.557</time></trkpt><trkpt lat="55.8451860" lon="49.1810700"><time>2021-09-11T17:55:35.557</time></trkpt><trkpt lat="55.8451900" lon="49.1810390"><time>2021-09-11T17:55:36.557</time></trkpt><trkpt lat="55.8451950" lon="49.1810080"><time>2021-09-11T17:55:37.557</time></trkpt><trkpt lat="55.8452010" lon="49.1809780"><time>2021-09-11T17:55:38.557</time></trkpt><trkpt lat="55.8452080" lon="49.1809530"><time>2021-09-11T17:55:39.557</time></trkpt><trkpt lat="55.8452150" lon="49.1809290"><time>2021-09-11T17:55:40.557</time></trkpt><trkpt lat="55.8452220" lon="49.1809060"><time>2021-09-11T17:55:41.557</time></trkpt><trkpt lat="55.8452260" lon="49.1808830"><time>2021-09-11T17:55:42.557</time></trkpt><trkpt lat="55.8452320" lon="49.1808580"><time>2021-09-11T17:55:43.557</time></trkpt><trkpt lat="55.8452380" lon="49.1808300"><time>2021-09-11T17:55:44.557</time></trkpt><trkpt lat="55.8452450" lon="49.1808000"><time>2021-09-11T17:55:45.557</time></trkpt><trkpt lat="55.8452470" lon="49.1807480"><time>2021-09-11T17:55:46.557</time></trkpt><trkpt lat="55.8452450" lon="49.1807240"><time>2021-09-11T17:55:47.557</time></trkpt><trkpt lat="55.8452440" lon="49.1807000"><time>2021-09-11T17:55:48.557</time></trkpt><trkpt lat="55.8452420" lon="49.1806770"><time>2021-09-11T17:55:49.557</time></trkpt><trkpt lat="55.8452410" lon="49.1806530"><time>2021-09-11T17:55:51.557</time></trkpt><trkpt lat="55.8452390" lon="49.1806290"><time>2021-09-11T17:55:51.557</time></trkpt><trkpt lat="55.8452330" lon="49.1805830"><time>2021-09-11T17:55:52.557</time></trkpt><trkpt lat="55.8452300" lon="49.1805630"><time>2021-09-11T17:55:53.557</time></trkpt><trkpt lat="55.8452280" lon="49.1805430"><time>2021-09-11T17:55:54.557</time></trkpt><trkpt lat="55.8452250" lon="49.1805240"><time>2021-09-11T17:55:55.557</time></trkpt><trkpt lat="55.8452230" lon="49.1805040"><time>2021-09-11T17:55:57.557</time></trkpt><trkpt lat="55.8452200" lon="49.1804840"><time>2021-09-11T17:55:57.557</time></trkpt><trkpt lat="55.8452130" lon="49.1804410"><time>2021-09-11T17:55:58.557</time></trkpt><trkpt lat="55.8452110" lon="49.1804210"><time>2021-09-11T17:55:59.557</time></trkpt><trkpt lat="55.8452080" lon="49.1804020"><time>2021-09-11T17:56:00.557</time></trkpt><trkpt lat="55.8452060" lon="49.1803820"><time>2021-09-11T17:56:02.557</time></trkpt><trkpt lat="55.8452030" lon="49.1803630"><time>2021-09-11T17:56:02.557</time></trkpt><trkpt lat="55.8451950" lon="49.1803190"><time>2021-09-11T17:56:03.557</time></trkpt><trkpt lat="55.8451910" lon="49.1802970"><time>2021-09-11T17:56:04.557</time></trkpt><trkpt lat="55.8451870" lon="49.1802760"><time>2021-09-11T17:56:05.557</time></trkpt><trkpt lat="55.8451830" lon="49.1802550"><time>2021-09-11T17:56:06.557</time></trkpt><trkpt lat="55.8451790" lon="49.1802330"><time>2021-09-11T17:56:08.557</time></trkpt><trkpt lat="55.8451750" lon="49.1802120"><time>2021-09-11T17:56:08.557</time></trkpt><trkpt lat="55.8451710" lon="49.1801820"><time>2021-09-11T17:56:09.557</time></trkpt><trkpt lat="55.8451680" lon="49.1801520"><time>2021-09-11T17:56:10.557</time></trkpt><trkpt lat="55.8451650" lon="49.1801220"><time>2021-09-11T17:56:11.557</time></trkpt><trkpt lat="55.8451610" lon="49.1800910"><time>2021-09-11T17:56:12.557</time></trkpt><trkpt lat="55.8451570" lon="49.1800610"><time>2021-09-11T17:56:13.557</time></trkpt><trkpt lat="55.8451560" lon="49.1800290"><time>2021-09-11T17:56:14.557</time></trkpt><trkpt lat="55.8451560" lon="49.1799960"><time>2021-09-11T17:56:15.557</time></trkpt><trkpt lat="55.8451560" lon="49.1799420"><time>2021-09-11T17:56:16.557</time></trkpt><trkpt lat="55.8451540" lon="49.1799170"><time>2021-09-11T17:56:17.557</time></trkpt><trkpt lat="55.8451530" lon="49.1798930"><time>2021-09-11T17:56:18.557</time></trkpt><trkpt lat="55.8451510" lon="49.1798690"><time>2021-09-11T17:56:19.557</time></trkpt><trkpt lat="55.8451490" lon="49.1798440"><time>2021-09-11T17:56:20.557</time></trkpt><trkpt lat="55.8451470" lon="49.1798200"><time>2021-09-11T17:56:21.557</time></trkpt><trkpt lat="55.8451450" lon="49.1797960"><time>2021-09-11T17:56:22.557</time></trkpt><trkpt lat="55.8451440" lon="49.1797720"><time>2021-09-11T17:56:23.557</time></trkpt><trkpt lat="55.8451420" lon="49.1797470"><time>2021-09-11T17:56:24.557</time></trkpt><trkpt lat="55.8451400" lon="49.1797230"><time>2021-09-11T17:56:24.557</time></trkpt><trkpt lat="55.8451280" lon="49.1797010"><time>2021-09-11T17:56:25.557</time></trkpt><trkpt lat="55.8451080" lon="49.1796630"><time>2021-09-11T17:56:26.557</time></trkpt><trkpt lat="55.8450990" lon="49.1796450"><time>2021-09-11T17:56:27.557</time></trkpt><trkpt lat="55.8450890" lon="49.1796280"><time>2021-09-11T17:56:28.557</time></trkpt><trkpt lat="55.8450800" lon="49.1796100"><time>2021-09-11T17:56:29.557</time></trkpt><trkpt lat="55.8450710" lon="49.1795920"><time>2021-09-11T17:56:30.557</time></trkpt><trkpt lat="55.8450620" lon="49.1795740"><time>2021-09-11T17:56:31.557</time></trkpt><trkpt lat="55.8450520" lon="49.1795570"><time>2021-09-11T17:56:32.557</time></trkpt><trkpt lat="55.8450430" lon="49.1795390"><time>2021-09-11T17:56:34.557</time></trkpt><trkpt lat="55.8450340" lon="49.1795210"><time>2021-09-11T17:56:34.557</time></trkpt><trkpt lat="55.8450150" lon="49.1794890"><time>2021-09-11T17:56:35.557</time></trkpt><trkpt lat="55.8450060" lon="49.1794750"><time>2021-09-11T17:56:36.557</time></trkpt><trkpt lat="55.8449980" lon="49.1794610"><time>2021-09-11T17:56:37.557</time></trkpt><trkpt lat="55.8449900" lon="49.1794480"><time>2021-09-11T17:56:38.557</time></trkpt><trkpt lat="55.8449810" lon="49.1794340"><time>2021-09-11T17:56:40.557</time></trkpt><trkpt lat="55.8449730" lon="49.1794200"><time>2021-09-11T17:56:40.557</time></trkpt><trkpt lat="55.8449630" lon="49.1794020"><time>2021-09-11T17:56:41.557</time></trkpt><trkpt lat="55.8449600" lon="49.1793950"><time>2021-09-11T17:56:43.557</time></trkpt><trkpt lat="55.8449560" lon="49.1793880"><time>2021-09-11T17:56:45.557</time></trkpt><trkpt lat="55.8449530" lon="49.1793810"><time>2021-09-11T17:56:47.557</time></trkpt><trkpt lat="55.8449500" lon="49.1793740"><time>2021-09-11T17:56:47.557</time></trkpt><trkpt lat="55.8449500" lon="49.1793720"><time>2021-09-11T17:56:48.557</time></trkpt><trkpt lat="55.8449460" lon="49.1793620"><time>2021-09-11T17:57:08.557</time></trkpt><trkpt lat="55.8449420" lon="49.1793550"><time>2021-09-11T17:57:09.557</time></trkpt><trkpt lat="55.8449340" lon="49.1793380"><time>2021-09-11T17:57:10.557</time></trkpt><trkpt lat="55.8449240" lon="49.1793150"><time>2021-09-11T17:57:11.557</time></trkpt><trkpt lat="55.8449100" lon="49.1792890"><time>2021-09-11T17:57:12.557</time></trkpt><trkpt lat="55.8448950" lon="49.1792600"><time>2021-09-11T17:57:13.557</time></trkpt><trkpt lat="55.8448790" lon="49.1792310"><time>2021-09-11T17:57:14.557</time></trkpt><trkpt lat="55.8448630" lon="49.1791990"><time>2021-09-11T17:57:15.557</time></trkpt><trkpt lat="55.8448470" lon="49.1791650"><time>2021-09-11T17:57:16.557</time></trkpt><trkpt lat="55.8448320" lon="49.1791280"><time>2021-09-11T17:57:17.557</time></trkpt><trkpt lat="55.8448180" lon="49.1790920"><time>2021-09-11T17:57:18.557</time></trkpt><trkpt lat="55.8448070" lon="49.1790570"><time>2021-09-11T17:57:19.557</time></trkpt><trkpt lat="55.8447970" lon="49.1790230"><time>2021-09-11T17:57:20.557</time></trkpt><trkpt lat="55.8447870" lon="49.1789890"><time>2021-09-11T17:57:21.557</time></trkpt><trkpt lat="55.8447720" lon="49.1789390"><time>2021-09-11T17:57:23.557</time></trkpt><trkpt lat="55.8447660" lon="49.1789230"><time>2021-09-11T17:57:23.557</time></trkpt><trkpt lat="55.8447540" lon="49.1788890"><time>2021-09-11T17:57:24.557</time></trkpt><trkpt lat="55.8447430" lon="49.1788550"><time>2021-09-11T17:57:25.557</time></trkpt><trkpt lat="55.8447330" lon="49.1788230"><time>2021-09-11T17:57:26.557</time></trkpt><trkpt lat="55.8447230" lon="49.1787900"><time>2021-09-11T17:57:27.557</time></trkpt><trkpt lat="55.8447110" lon="49.1787370"><time>2021-09-11T17:57:29.557</time></trkpt><trkpt lat="55.8447070" lon="49.1787190"><time>2021-09-11T17:57:29.557</time></trkpt><trkpt lat="55.8446990" lon="49.1786820"><time>2021-09-11T17:57:30.557</time></trkpt><trkpt lat="55.8446920" lon="49.1786440"><time>2021-09-11T17:57:31.557</time></trkpt><trkpt lat="55.8446860" lon="49.1786040"><time>2021-09-11T17:57:32.557</time></trkpt><trkpt lat="55.8446770" lon="49.1785630"><time>2021-09-11T17:57:33.557</time></trkpt><trkpt lat="55.8446700" lon="49.1785210"><time>2021-09-11T17:57:34.557</time></trkpt><trkpt lat="55.8446630" lon="49.1784790"><time>2021-09-11T17:57:35.557</time></trkpt><trkpt lat="55.8446540" lon="49.1784360"><time>2021-09-11T17:57:36.557</time></trkpt><trkpt lat="55.8446450" lon="49.1783910"><time>2021-09-11T17:57:37.557</time></trkpt><trkpt lat="55.8446300" lon="49.1783270"><time>2021-09-11T17:57:39.557</time></trkpt><trkpt lat="55.8446240" lon="49.1783060"><time>2021-09-11T17:57:39.557</time></trkpt><trkpt lat="55.8446130" lon="49.1782640"><time>2021-09-11T17:57:40.557</time></trkpt><trkpt lat="55.8446030" lon="49.1782260"><time>2021-09-11T17:57:41.557</time></trkpt><trkpt lat="55.8445920" lon="49.1781880"><time>2021-09-11T17:57:42.557</time></trkpt><trkpt lat="55.8445800" lon="49.1781480"><time>2021-09-11T17:57:43.557</time></trkpt><trkpt lat="55.8445680" lon="49.1781060"><time>2021-09-11T17:57:44.557</time></trkpt><trkpt lat="55.8445540" lon="49.1780640"><time>2021-09-11T17:57:45.557</time></trkpt><trkpt lat="55.8445390" lon="49.1780240"><time>2021-09-11T17:57:46.557</time></trkpt><trkpt lat="55.8445230" lon="49.1779840"><time>2021-09-11T17:57:47.557</time></trkpt><trkpt lat="55.8445080" lon="49.1779430"><time>2021-09-11T17:57:48.557</time></trkpt><trkpt lat="55.8444950" lon="49.1779040"><time>2021-09-11T17:57:49.557</time></trkpt><trkpt lat="55.8444810" lon="49.1778660"><time>2021-09-11T17:57:50.557</time></trkpt><trkpt lat="55.8444660" lon="49.1778280"><time>2021-09-11T17:57:51.557</time></trkpt><trkpt lat="55.8444510" lon="49.1777890"><time>2021-09-11T17:57:52.557</time></trkpt><trkpt lat="55.8444370" lon="49.1777510"><time>2021-09-11T17:57:53.557</time></trkpt><trkpt lat="55.8444230" lon="49.1777140"><time>2021-09-11T17:57:54.557</time></trkpt><trkpt lat="55.8444020" lon="49.1776620"><time>2021-09-11T17:57:56.557</time></trkpt><trkpt lat="55.8443940" lon="49.1776460"><time>2021-09-11T17:57:56.557</time></trkpt><trkpt lat="55.8443800" lon="49.1776130"><time>2021-09-11T17:57:57.557</time></trkpt><trkpt lat="55.8443650" lon="49.1775790"><time>2021-09-11T17:57:58.557</time></trkpt><trkpt lat="55.8443500" lon="49.1775440"><time>2021-09-11T17:57:59.557</time></trkpt><trkpt lat="55.8443350" lon="49.1775070"><time>2021-09-11T17:58:00.557</time></trkpt><trkpt lat="55.8443220" lon="49.1774700"><time>2021-09-11T17:58:01.557</time></trkpt><trkpt lat="55.8443080" lon="49.1774350"><time>2021-09-11T17:58:02.557</time></trkpt><trkpt lat="55.8442920" lon="49.1774010"><time>2021-09-11T17:58:03.557</time></trkpt><trkpt lat="55.8442750" lon="49.1773710"><time>2021-09-11T17:58:04.557</time></trkpt><trkpt lat="55.8442470" lon="49.1773360"><time>2021-09-11T17:58:06.557</time></trkpt><trkpt lat="55.8442360" lon="49.1773270"><time>2021-09-11T17:58:06.557</time></trkpt><trkpt lat="55.8442160" lon="49.1773150"><time>2021-09-11T17:58:07.557</time></trkpt><trkpt lat="55.8441930" lon="49.1773080"><time>2021-09-11T17:58:08.557</time></trkpt><trkpt lat="55.8441710" lon="49.1773030"><time>2021-09-11T17:58:09.557</time></trkpt><trkpt lat="55.8441470" lon="49.1773010"><time>2021-09-11T17:58:10.557</time></trkpt><trkpt lat="55.8441140" lon="49.1773010"><time>2021-09-11T17:58:12.557</time></trkpt><trkpt lat="55.8441030" lon="49.1773010"><time>2021-09-11T17:58:12.557</time></trkpt><trkpt lat="55.8440800" lon="49.1773030"><time>2021-09-11T17:58:13.557</time></trkpt><trkpt lat="55.8440570" lon="49.1773050"><time>2021-09-11T17:58:14.557</time></trkpt><trkpt lat="55.8440330" lon="49.1773080"><time>2021-09-11T17:58:15.557</time></trkpt><trkpt lat="55.8440100" lon="49.1773090"><time>2021-09-11T17:58:16.557</time></trkpt><trkpt lat="55.8439880" lon="49.1773110"><time>2021-09-11T17:58:17.557</time></trkpt><trkpt lat="55.8439660" lon="49.1773140"><time>2021-09-11T17:58:18.557</time></trkpt><trkpt lat="55.8439420" lon="49.1773170"><time>2021-09-11T17:58:19.557</time></trkpt><trkpt lat="55.8439170" lon="49.1773200"><time>2021-09-11T17:58:20.557</time></trkpt><trkpt lat="55.8438930" lon="49.1773230"><time>2021-09-11T17:58:21.557</time></trkpt><trkpt lat="55.8438690" lon="49.1773220"><time>2021-09-11T17:58:22.557</time></trkpt><trkpt lat="55.8438440" lon="49.1773200"><time>2021-09-11T17:58:23.557</time></trkpt><trkpt lat="55.8438190" lon="49.1773150"><time>2021-09-11T17:58:24.557</time></trkpt><trkpt lat="55.8437950" lon="49.1773090"><time>2021-09-11T17:58:25.557</time></trkpt><trkpt lat="55.8437730" lon="49.1773030"><time>2021-09-11T17:58:26.557</time></trkpt><trkpt lat="55.8437520" lon="49.1772950"><time>2021-09-11T17:58:27.557</time></trkpt><trkpt lat="55.8437300" lon="49.1772890"><time>2021-09-11T17:58:28.557</time></trkpt><trkpt lat="55.8437060" lon="49.1772830"><time>2021-09-11T17:58:29.557</time></trkpt><trkpt lat="55.8436850" lon="49.1772810"><time>2021-09-11T17:58:30.557</time></trkpt><trkpt lat="55.8436620" lon="49.1772830"><time>2021-09-11T17:58:31.557</time></trkpt><trkpt lat="55.8436270" lon="49.1772940"><time>2021-09-11T17:58:33.557</time></trkpt><trkpt lat="55.8436150" lon="49.1772980"><time>2021-09-11T17:58:33.557</time></trkpt><trkpt lat="55.8435930" lon="49.1773070"><time>2021-09-11T17:58:34.557</time></trkpt><trkpt lat="55.8435720" lon="49.1773180"><time>2021-09-11T17:58:35.557</time></trkpt><trkpt lat="55.8435490" lon="49.1773290"><time>2021-09-11T17:58:36.557</time></trkpt><trkpt lat="55.8435260" lon="49.1773390"><time>2021-09-11T17:58:37.557</time></trkpt><trkpt lat="55.8434920" lon="49.1773590"><time>2021-09-11T17:58:39.557</time></trkpt><trkpt lat="55.8434800" lon="49.1773650"><time>2021-09-11T17:58:39.557</time></trkpt><trkpt lat="55.8434570" lon="49.1773770"><time>2021-09-11T17:58:40.557</time></trkpt><trkpt lat="55.8434330" lon="49.1773890"><time>2021-09-11T17:58:41.557</time></trkpt><trkpt lat="55.8434090" lon="49.1774010"><time>2021-09-11T17:58:42.557</time></trkpt><trkpt lat="55.8433850" lon="49.1774110"><time>2021-09-11T17:58:43.557</time></trkpt><trkpt lat="55.8433490" lon="49.1774280"><time>2021-09-11T17:58:45.557</time></trkpt><trkpt lat="55.8433370" lon="49.1774340"><time>2021-09-11T17:58:45.557</time></trkpt><trkpt lat="55.8433130" lon="49.1774450"><time>2021-09-11T17:58:46.557</time></trkpt><trkpt lat="55.8432890" lon="49.1774570"><time>2021-09-11T17:58:47.557</time></trkpt><trkpt lat="55.8432650" lon="49.1774710"><time>2021-09-11T17:58:48.557</time></trkpt><trkpt lat="55.8432410" lon="49.1774850"><time>2021-09-11T17:58:49.557</time></trkpt><trkpt lat="55.8432170" lon="49.1774990"><time>2021-09-11T17:58:50.557</time></trkpt><trkpt lat="55.8431920" lon="49.1775120"><time>2021-09-11T17:58:51.557</time></trkpt><trkpt lat="55.8431670" lon="49.1775240"><time>2021-09-11T17:58:52.557</time></trkpt><trkpt lat="55.8431430" lon="49.1775350"><time>2021-09-11T17:58:53.557</time></trkpt><trkpt lat="55.8431110" lon="49.1775500"><time>2021-09-11T17:58:55.557</time></trkpt><trkpt lat="55.8431000" lon="49.1775540"><time>2021-09-11T17:58:55.557</time></trkpt><trkpt lat="55.8430780" lon="49.1775610"><time>2021-09-11T17:58:56.557</time></trkpt><trkpt lat="55.8430570" lon="49.1775670"><time>2021-09-11T17:58:57.557</time></trkpt><trkpt lat="55.8430350" lon="49.1775740"><time>2021-09-11T17:58:58.557</time></trkpt><trkpt lat="55.8430140" lon="49.1775840"><time>2021-09-11T17:58:59.557</time></trkpt><trkpt lat="55.8429930" lon="49.1775950"><time>2021-09-11T17:59:00.557</time></trkpt><trkpt lat="55.8429710" lon="49.1776070"><time>2021-09-11T17:59:01.557</time></trkpt><trkpt lat="55.8429490" lon="49.1776220"><time>2021-09-11T17:59:02.557</time></trkpt><trkpt lat="55.8429270" lon="49.1776380"><time>2021-09-11T17:59:03.557</time></trkpt><trkpt lat="55.8429060" lon="49.1776560"><time>2021-09-11T17:59:04.557</time></trkpt><trkpt lat="55.8428850" lon="49.1776760"><time>2021-09-11T17:59:05.557</time></trkpt><trkpt lat="55.8428650" lon="49.1776970"><time>2021-09-11T17:59:06.557</time></trkpt><trkpt lat="55.8428460" lon="49.1777170"><time>2021-09-11T17:59:07.557</time></trkpt><trkpt lat="55.8428260" lon="49.1777390"><time>2021-09-11T17:59:08.557</time></trkpt><trkpt lat="55.8428060" lon="49.1777620"><time>2021-09-11T17:59:09.557</time></trkpt><trkpt lat="55.8427870" lon="49.1777850"><time>2021-09-11T17:59:10.557</time></trkpt><trkpt lat="55.8427670" lon="49.1778080"><time>2021-09-11T17:59:11.557</time></trkpt><trkpt lat="55.8427460" lon="49.1778310"><time>2021-09-11T17:59:12.557</time></trkpt><trkpt lat="55.8427250" lon="49.1778530"><time>2021-09-11T17:59:13.557</time></trkpt><trkpt lat="55.8427040" lon="49.1778740"><time>2021-09-11T17:59:14.557</time></trkpt><trkpt lat="55.8426820" lon="49.1778950"><time>2021-09-11T17:59:15.557</time></trkpt><trkpt lat="55.8426590" lon="49.1779160"><time>2021-09-11T17:59:16.557</time></trkpt><trkpt lat="55.8426350" lon="49.1779370"><time>2021-09-11T17:59:17.557</time></trkpt><trkpt lat="55.8426110" lon="49.1779550"><time>2021-09-11T17:59:18.557</time></trkpt><trkpt lat="55.8425840" lon="49.1779690"><time>2021-09-11T17:59:19.557</time></trkpt><trkpt lat="55.8425580" lon="49.1779760"><time>2021-09-11T17:59:20.557</time></trkpt><trkpt lat="55.8425310" lon="49.1779780"><time>2021-09-11T17:59:21.557</time></trkpt><trkpt lat="55.8425050" lon="49.1779720"><time>2021-09-11T17:59:22.557</time></trkpt><trkpt lat="55.8424820" lon="49.1779590"><time>2021-09-11T17:59:23.557</time></trkpt><trkpt lat="55.8424590" lon="49.1779430"><time>2021-09-11T17:59:24.557</time></trkpt><trkpt lat="55.8424370" lon="49.1779250"><time>2021-09-11T17:59:25.557</time></trkpt><trkpt lat="55.8424050" lon="49.1778920"><time>2021-09-11T17:59:27.557</time></trkpt><trkpt lat="55.8423950" lon="49.1778800"><time>2021-09-11T17:59:27.557</time></trkpt><trkpt lat="55.8423760" lon="49.1778550"><time>2021-09-11T17:59:28.557</time></trkpt><trkpt lat="55.8423590" lon="49.1778280"><time>2021-09-11T17:59:29.557</time></trkpt><trkpt lat="55.8423410" lon="49.1778000"><time>2021-09-11T17:59:30.557</time></trkpt><trkpt lat="55.8423230" lon="49.1777710"><time>2021-09-11T17:59:31.557</time></trkpt><trkpt lat="55.8422940" lon="49.1777240"><time>2021-09-11T17:59:33.557</time></trkpt><trkpt lat="55.8422840" lon="49.1777090"><time>2021-09-11T17:59:33.557</time></trkpt><trkpt lat="55.8422640" lon="49.1776780"><time>2021-09-11T17:59:34.557</time></trkpt><trkpt lat="55.8422450" lon="49.1776470"><time>2021-09-11T17:59:35.557</time></trkpt><trkpt lat="55.8422260" lon="49.1776170"><time>2021-09-11T17:59:36.557</time></trkpt><trkpt lat="55.8422080" lon="49.1775880"><time>2021-09-11T17:59:37.557</time></trkpt><trkpt lat="55.8421810" lon="49.1775470"><time>2021-09-11T17:59:39.557</time></trkpt><trkpt lat="55.8421710" lon="49.1775330"><time>2021-09-11T17:59:39.557</time></trkpt><trkpt lat="55.8421520" lon="49.1775050"><time>2021-09-11T17:59:40.557</time></trkpt><trkpt lat="55.8421340" lon="49.1774760"><time>2021-09-11T17:59:41.557</time></trkpt><trkpt lat="55.8421160" lon="49.1774430"><time>2021-09-11T17:59:42.557</time></trkpt><trkpt lat="55.8421000" lon="49.1774070"><time>2021-09-11T17:59:43.557</time></trkpt><trkpt lat="55.8420890" lon="49.1773670"><time>2021-09-11T17:59:44.557</time></trkpt><trkpt lat="55.8420800" lon="49.1773250"><time>2021-09-11T17:59:45.557</time></trkpt><trkpt lat="55.8420740" lon="49.1772810"><time>2021-09-11T17:59:46.557</time></trkpt><trkpt lat="55.8420700" lon="49.1772350"><time>2021-09-11T17:59:47.557</time></trkpt><trkpt lat="55.8420660" lon="49.1771880"><time>2021-09-11T17:59:48.557</time></trkpt><trkpt lat="55.8420620" lon="49.1771170"><time>2021-09-11T17:59:50.557</time></trkpt><trkpt lat="55.8420600" lon="49.1770940"><time>2021-09-11T17:59:50.557</time></trkpt><trkpt lat="55.8420560" lon="49.1770470"><time>2021-09-11T17:59:51.557</time></trkpt><trkpt lat="55.8420520" lon="49.1770010"><time>2021-09-11T17:59:52.557</time></trkpt><trkpt lat="55.8420480" lon="49.1769580"><time>2021-09-11T17:59:53.557</time></trkpt><trkpt lat="55.8420440" lon="49.1769150"><time>2021-09-11T17:59:54.557</time></trkpt><trkpt lat="55.8420380" lon="49.1768520"><time>2021-09-11T17:59:56.557</time></trkpt><trkpt lat="55.8420360" lon="49.1768310"><time>2021-09-11T17:59:56.557</time></trkpt><trkpt lat="55.8420320" lon="49.1767910"><time>2021-09-11T17:59:57.557</time></trkpt><trkpt lat="55.8420280" lon="49.1767510"><time>2021-09-11T17:59:58.557</time></trkpt><trkpt lat="55.8420240" lon="49.1767100"><time>2021-09-11T17:59:59.557</time></trkpt><trkpt lat="55.8420190" lon="49.1766460"><time>2021-09-11T18:00:01.557</time></trkpt><trkpt lat="55.8420170" lon="49.1766250"><time>2021-09-11T18:00:01.557</time></trkpt><trkpt lat="55.8420130" lon="49.1765820"><time>2021-09-11T18:00:02.557</time></trkpt><trkpt lat="55.8420070" lon="49.1765390"><time>2021-09-11T18:00:03.557</time></trkpt><trkpt lat="55.8420010" lon="49.1764990"><time>2021-09-11T18:00:04.557</time></trkpt><trkpt lat="55.8419920" lon="49.1764610"><time>2021-09-11T18:00:05.557</time></trkpt><trkpt lat="55.8419810" lon="49.1764260"><time>2021-09-11T18:00:06.557</time></trkpt><trkpt lat="55.8419660" lon="49.1763920"><time>2021-09-11T18:00:07.557</time></trkpt><trkpt lat="55.8419500" lon="49.1763610"><time>2021-09-11T18:00:08.557</time></trkpt><trkpt lat="55.8419340" lon="49.1763360"><time>2021-09-11T18:00:09.557</time></trkpt><trkpt lat="55.8419050" lon="49.1763050"><time>2021-09-11T18:00:11.557</time></trkpt><trkpt lat="55.8418950" lon="49.1762950"><time>2021-09-11T18:00:11.557</time></trkpt><trkpt lat="55.8418740" lon="49.1762770"><time>2021-09-11T18:00:12.557</time></trkpt><trkpt lat="55.8418530" lon="49.1762610"><time>2021-09-11T18:00:13.557</time></trkpt><trkpt lat="55.8418340" lon="49.1762480"><time>2021-09-11T18:00:14.557</time></trkpt><trkpt lat="55.8418170" lon="49.1762380"><time>2021-09-11T18:00:15.557</time></trkpt><trkpt lat="55.8417880" lon="49.1762280"><time>2021-09-11T18:00:17.557</time></trkpt><trkpt lat="55.8417790" lon="49.1762270"><time>2021-09-11T18:00:17.557</time></trkpt><trkpt lat="55.8417600" lon="49.1762250"><time>2021-09-11T18:00:18.557</time></trkpt><trkpt lat="55.8417410" lon="49.1762230"><time>2021-09-11T18:00:19.557</time></trkpt><trkpt lat="55.8417130" lon="49.1762110"><time>2021-09-11T18:00:21.557</time></trkpt><trkpt lat="55.8417030" lon="49.1762050"><time>2021-09-11T18:00:21.557</time></trkpt><trkpt lat="55.8416860" lon="49.1761900"><time>2021-09-11T18:00:22.557</time></trkpt><trkpt lat="55.8416680" lon="49.1761750"><time>2021-09-11T18:00:23.557</time></trkpt><trkpt lat="55.8416490" lon="49.1761600"><time>2021-09-11T18:00:24.557</time></trkpt><trkpt lat="55.8416290" lon="49.1761440"><time>2021-09-11T18:00:25.557</time></trkpt><trkpt lat="55.8416010" lon="49.1761180"><time>2021-09-11T18:00:27.557</time></trkpt><trkpt lat="55.8415910" lon="49.1761100"><time>2021-09-11T18:00:27.557</time></trkpt><trkpt lat="55.8415740" lon="49.1760960"><time>2021-09-11T18:00:28.557</time></trkpt><trkpt lat="55.8415530" lon="49.1760790"><time>2021-09-11T18:00:29.557</time></trkpt><trkpt lat="55.8415320" lon="49.1760610"><time>2021-09-11T18:00:30.557</time></trkpt><trkpt lat="55.8415130" lon="49.1760440"><time>2021-09-11T18:00:31.557</time></trkpt><trkpt lat="55.8414930" lon="49.1760310"><time>2021-09-11T18:00:32.557</time></trkpt><trkpt lat="55.8414130" lon="49.1760240"><time>2021-09-11T18:00:34.557</time></trkpt><trkpt lat="55.8413990" lon="49.1760440"><time>2021-09-11T18:00:35.557</time></trkpt><trkpt lat="55.8413890" lon="49.1760600"><time>2021-09-11T18:00:36.557</time></trkpt><trkpt lat="55.8413790" lon="49.1760770"><time>2021-09-11T18:00:37.557</time></trkpt><trkpt lat="55.8413690" lon="49.1760930"><time>2021-09-11T18:00:39.557</time></trkpt><trkpt lat="55.8413590" lon="49.1761090"><time>2021-09-11T18:00:39.557</time></trkpt><trkpt lat="55.8413420" lon="49.1761360"><time>2021-09-11T18:00:39.557</time></trkpt><trkpt lat="55.8413250" lon="49.1761630"><time>2021-09-11T18:00:40.557</time></trkpt><trkpt lat="55.8413090" lon="49.1761890"><time>2021-09-11T18:00:41.557</time></trkpt><trkpt lat="55.8412940" lon="49.1762140"><time>2021-09-11T18:00:42.557</time></trkpt><trkpt lat="55.8412810" lon="49.1762400"><time>2021-09-11T18:00:43.557</time></trkpt><trkpt lat="55.8412660" lon="49.1762650"><time>2021-09-11T18:00:44.557</time></trkpt><trkpt lat="55.8412500" lon="49.1762870"><time>2021-09-11T18:00:45.557</time></trkpt><trkpt lat="55.8412340" lon="49.1763100"><time>2021-09-11T18:00:46.557</time></trkpt><trkpt lat="55.8412190" lon="49.1763340"><time>2021-09-11T18:00:47.557</time></trkpt><trkpt lat="55.8412050" lon="49.1763580"><time>2021-09-11T18:00:48.557</time></trkpt><trkpt lat="55.8411880" lon="49.1763790"><time>2021-09-11T18:00:49.557</time></trkpt><trkpt lat="55.8411700" lon="49.1763950"><time>2021-09-11T18:00:50.557</time></trkpt><trkpt lat="55.8411520" lon="49.1764050"><time>2021-09-11T18:00:51.557</time></trkpt><trkpt lat="55.8411350" lon="49.1764170"><time>2021-09-11T18:00:52.557</time></trkpt><trkpt lat="55.8411090" lon="49.1764430"><time>2021-09-11T18:00:53.557</time></trkpt><trkpt lat="55.8410980" lon="49.1764570"><time>2021-09-11T18:00:55.557</time></trkpt><trkpt lat="55.8410870" lon="49.1764700"><time>2021-09-11T18:00:56.557</time></trkpt><trkpt lat="55.8410760" lon="49.1764830"><time>2021-09-11T18:00:56.557</time></trkpt><trkpt lat="55.8410610" lon="49.1764990"><time>2021-09-11T18:00:57.557</time></trkpt><trkpt lat="55.8410430" lon="49.1765100"><time>2021-09-11T18:00:58.557</time></trkpt><trkpt lat="55.8410240" lon="49.1765190"><time>2021-09-11T18:00:59.557</time></trkpt><trkpt lat="55.8410040" lon="49.1765250"><time>2021-09-11T18:01:00.557</time></trkpt><trkpt lat="55.8409820" lon="49.1765340"><time>2021-09-11T18:01:01.557</time></trkpt><trkpt lat="55.8409750" lon="49.1765400"><time>2021-09-11T18:01:02.557</time></trkpt><trkpt lat="55.8409690" lon="49.1765450"><time>2021-09-11T18:01:03.557</time></trkpt><trkpt lat="55.8409630" lon="49.1765510"><time>2021-09-11T18:01:04.557</time></trkpt><trkpt lat="55.8409560" lon="49.1765560"><time>2021-09-11T18:01:05.557</time></trkpt><trkpt lat="55.8409500" lon="49.1765610"><time>2021-09-11T18:01:06.557</time></trkpt><trkpt lat="55.8409430" lon="49.1765670"><time>2021-09-11T18:01:07.557</time></trkpt><trkpt lat="55.8409370" lon="49.1765720"><time>2021-09-11T18:01:08.557</time></trkpt><trkpt lat="55.8409310" lon="49.1765780"><time>2021-09-11T18:01:09.557</time></trkpt><trkpt lat="55.8409240" lon="49.1765830"><time>2021-09-11T18:01:10.557</time></trkpt><trkpt lat="55.8409180" lon="49.1765890"><time>2021-09-11T18:01:11.557</time></trkpt><trkpt lat="55.8409120" lon="49.1765940"><time>2021-09-11T18:01:12.557</time></trkpt><trkpt lat="55.8409050" lon="49.1765990"><time>2021-09-11T18:01:13.557</time></trkpt><trkpt lat="55.8408990" lon="49.1766050"><time>2021-09-11T18:01:14.557</time></trkpt><trkpt lat="55.8408930" lon="49.1766100"><time>2021-09-11T18:01:15.557</time></trkpt><trkpt lat="55.8408860" lon="49.1766160"><time>2021-09-11T18:01:16.557</time></trkpt><trkpt lat="55.8408800" lon="49.1766210"><time>2021-09-11T18:01:18.557</time></trkpt><trkpt lat="55.8408730" lon="49.1766260"><time>2021-09-11T18:01:19.557</time></trkpt><trkpt lat="55.8408670" lon="49.1766320"><time>2021-09-11T18:01:20.557</time></trkpt><trkpt lat="55.8408610" lon="49.1766370"><time>2021-09-11T18:01:21.557</time></trkpt><trkpt lat="55.8408540" lon="49.1766430"><time>2021-09-11T18:01:23.557</time></trkpt><trkpt lat="55.8408480" lon="49.1766480"><time>2021-09-11T18:01:23.557</time></trkpt><trkpt lat="55.8408660" lon="49.1766330"><time>2021-09-11T18:01:24.557</time></trkpt><trkpt lat="55.8408820" lon="49.1766200"><time>2021-09-11T18:01:25.557</time></trkpt><trkpt lat="55.8409010" lon="49.1766040"><time>2021-09-11T18:01:26.557</time></trkpt><trkpt lat="55.8409180" lon="49.1765870"><time>2021-09-11T18:01:27.557</time></trkpt><trkpt lat="55.8409340" lon="49.1765720"><time>2021-09-11T18:01:28.557</time></trkpt><trkpt lat="55.8409580" lon="49.1765460"><time>2021-09-11T18:01:29.557</time></trkpt><trkpt lat="55.8409670" lon="49.1765350"><time>2021-09-11T18:01:30.557</time></trkpt><trkpt lat="55.8409760" lon="49.1765240"><time>2021-09-11T18:01:32.557</time></trkpt><trkpt lat="55.8409850" lon="49.1765130"><time>2021-09-11T18:01:32.557</time></trkpt><trkpt lat="55.8410020" lon="49.1764990"><time>2021-09-11T18:01:33.557</time></trkpt><trkpt lat="55.8410090" lon="49.1764970"><time>2021-09-11T18:01:34.557</time></trkpt><trkpt lat="55.8410170" lon="49.1764950"><time>2021-09-11T18:01:35.557</time></trkpt><trkpt lat="55.8410250" lon="49.1764940"><time>2021-09-11T18:01:39.557</time></trkpt><trkpt lat="55.8410320" lon="49.1764920"><time>2021-09-11T18:01:40.557</time></trkpt><trkpt lat="55.8410400" lon="49.1764900"><time>2021-09-11T18:01:41.557</time></trkpt><trkpt lat="55.8410480" lon="49.1764880"><time>2021-09-11T18:01:42.557</time></trkpt><trkpt lat="55.8410560" lon="49.1764860"><time>2021-09-11T18:01:43.557</time></trkpt><trkpt lat="55.8410630" lon="49.1764840"><time>2021-09-11T18:01:44.557</time></trkpt><trkpt lat="55.8410710" lon="49.1764830"><time>2021-09-11T18:01:45.557</time></trkpt><trkpt lat="55.8410790" lon="49.1764810"><time>2021-09-11T18:01:46.557</time></trkpt><trkpt lat="55.8410860" lon="49.1764790"><time>2021-09-11T18:01:48.557</time></trkpt><trkpt lat="55.8410940" lon="49.1764770"><time>2021-09-11T18:01:48.557</time></trkpt><trkpt lat="55.8411100" lon="49.1764560"><time>2021-09-11T18:01:49.557</time></trkpt><trkpt lat="55.8411270" lon="49.1764410"><time>2021-09-11T18:01:50.557</time></trkpt><trkpt lat="55.8411550" lon="49.1764280"><time>2021-09-11T18:01:52.557</time></trkpt><trkpt lat="55.8411640" lon="49.1764240"><time>2021-09-11T18:01:52.557</time></trkpt><trkpt lat="55.8411810" lon="49.1764130"><time>2021-09-11T18:01:53.557</time></trkpt><trkpt lat="55.8411980" lon="49.1763980"><time>2021-09-11T18:01:54.557</time></trkpt><trkpt lat="55.8412140" lon="49.1763810"><time>2021-09-11T18:01:55.557</time></trkpt><trkpt lat="55.8412290" lon="49.1763630"><time>2021-09-11T18:01:56.557</time></trkpt><trkpt lat="55.8412430" lon="49.1763450"><time>2021-09-11T18:01:57.557</time></trkpt><trkpt lat="55.8412550" lon="49.1763270"><time>2021-09-11T18:01:58.557</time></trkpt><trkpt lat="55.8412670" lon="49.1763050"><time>2021-09-11T18:01:59.557</time></trkpt><trkpt lat="55.8412800" lon="49.1762810"><time>2021-09-11T18:02:00.557</time></trkpt><trkpt lat="55.8412950" lon="49.1762560"><time>2021-09-11T18:02:01.557</time></trkpt><trkpt lat="55.8413180" lon="49.1762230"><time>2021-09-11T18:02:03.557</time></trkpt><trkpt lat="55.8413260" lon="49.1762120"><time>2021-09-11T18:02:03.557</time></trkpt><trkpt lat="55.8413410" lon="49.1761880"><time>2021-09-11T18:02:04.557</time></trkpt><trkpt lat="55.8413560" lon="49.1761620"><time>2021-09-11T18:02:05.557</time></trkpt><trkpt lat="55.8413710" lon="49.1761350"><time>2021-09-11T18:02:06.557</time></trkpt><trkpt lat="55.8413850" lon="49.1761080"><time>2021-09-11T18:02:07.557</time></trkpt><trkpt lat="55.8413990" lon="49.1760830"><time>2021-09-11T18:02:08.557</time></trkpt><trkpt lat="55.8414150" lon="49.1760580"><time>2021-09-11T18:02:09.557</time></trkpt><trkpt lat="55.8414300" lon="49.1760390"><time>2021-09-11T18:02:10.557</time></trkpt><trkpt lat="55.8414450" lon="49.1760250"><time>2021-09-11T18:02:11.557</time></trkpt><trkpt lat="55.8414630" lon="49.1760160"><time>2021-09-11T18:02:12.557</time></trkpt><trkpt lat="55.8414810" lon="49.1760150"><time>2021-09-11T18:02:13.557</time></trkpt><trkpt lat="55.8415010" lon="49.1760220"><time>2021-09-11T18:02:14.557</time></trkpt><trkpt lat="55.8415210" lon="49.1760340"><time>2021-09-11T18:02:15.557</time></trkpt><trkpt lat="55.8415410" lon="49.1760490"><time>2021-09-11T18:02:16.557</time></trkpt><trkpt lat="55.8415600" lon="49.1760680"><time>2021-09-11T18:02:17.557</time></trkpt><trkpt lat="55.8415790" lon="49.1760860"><time>2021-09-11T18:02:18.557</time></trkpt><trkpt lat="55.8415990" lon="49.1761020"><time>2021-09-11T18:02:19.557</time></trkpt><trkpt lat="55.8416190" lon="49.1761180"><time>2021-09-11T18:02:20.557</time></trkpt><trkpt lat="55.8416380" lon="49.1761370"><time>2021-09-11T18:02:21.557</time></trkpt><trkpt lat="55.8416540" lon="49.1761580"><time>2021-09-11T18:02:22.557</time></trkpt><trkpt lat="55.8416790" lon="49.1761880"><time>2021-09-11T18:02:24.557</time></trkpt><trkpt lat="55.8416880" lon="49.1761970"><time>2021-09-11T18:02:24.557</time></trkpt><trkpt lat="55.8417060" lon="49.1762070"><time>2021-09-11T18:02:25.557</time></trkpt><trkpt lat="55.8417260" lon="49.1762140"><time>2021-09-11T18:02:26.557</time></trkpt><trkpt lat="55.8417460" lon="49.1762210"><time>2021-09-11T18:02:27.557</time></trkpt><trkpt lat="55.8417650" lon="49.1762270"><time>2021-09-11T18:02:28.557</time></trkpt><trkpt lat="55.8417970" lon="49.1762380"><time>2021-09-11T18:02:30.557</time></trkpt><trkpt lat="55.8418080" lon="49.1762420"><time>2021-09-11T18:02:30.557</time></trkpt><trkpt lat="55.8418310" lon="49.1762520"><time>2021-09-11T18:02:31.557</time></trkpt><trkpt lat="55.8418530" lon="49.1762640"><time>2021-09-11T18:02:32.557</time></trkpt><trkpt lat="55.8418760" lon="49.1762780"><time>2021-09-11T18:02:33.557</time></trkpt><trkpt lat="55.8418970" lon="49.1762930"><time>2021-09-11T18:02:34.557</time></trkpt><trkpt lat="55.8419180" lon="49.1763090"><time>2021-09-11T18:02:35.557</time></trkpt><trkpt lat="55.8419380" lon="49.1763280"><time>2021-09-11T18:02:36.557</time></trkpt><trkpt lat="55.8419570" lon="49.1763480"><time>2021-09-11T18:02:37.557</time></trkpt><trkpt lat="55.8419760" lon="49.1763710"><time>2021-09-11T18:02:38.557</time></trkpt><trkpt lat="55.8419920" lon="49.1763990"><time>2021-09-11T18:02:39.557</time></trkpt><trkpt lat="55.8420060" lon="49.1764310"><time>2021-09-11T18:02:40.557</time></trkpt><trkpt lat="55.8420170" lon="49.1764660"><time>2021-09-11T18:02:41.557</time></trkpt><trkpt lat="55.8420270" lon="49.1765030"><time>2021-09-11T18:02:42.557</time></trkpt><trkpt lat="55.8420360" lon="49.1765420"><time>2021-09-11T18:02:43.557</time></trkpt><trkpt lat="55.8420420" lon="49.1765830"><time>2021-09-11T18:02:44.557</time></trkpt><trkpt lat="55.8420460" lon="49.1766260"><time>2021-09-11T18:02:45.557</time></trkpt><trkpt lat="55.8420500" lon="49.1766690"><time>2021-09-11T18:02:46.557</time></trkpt><trkpt lat="55.8420540" lon="49.1767120"><time>2021-09-11T18:02:47.557</time></trkpt><trkpt lat="55.8420590" lon="49.1767550"><time>2021-09-11T18:02:48.557</time></trkpt><trkpt lat="55.8420640" lon="49.1767990"><time>2021-09-11T18:02:49.557</time></trkpt><trkpt lat="55.8420700" lon="49.1768440"><time>2021-09-11T18:02:50.557</time></trkpt><trkpt lat="55.8420760" lon="49.1768890"><time>2021-09-11T18:02:51.557</time></trkpt><trkpt lat="55.8420820" lon="49.1769560"><time>2021-09-11T18:02:53.557</time></trkpt><trkpt lat="55.8420840" lon="49.1769780"><time>2021-09-11T18:02:53.557</time></trkpt><trkpt lat="55.8420860" lon="49.1770240"><time>2021-09-11T18:02:54.557</time></trkpt><trkpt lat="55.8420880" lon="49.1770660"><time>2021-09-11T18:02:55.557</time></trkpt><trkpt lat="55.8420890" lon="49.1771080"><time>2021-09-11T18:02:56.557</time></trkpt><trkpt lat="55.8420890" lon="49.1771510"><time>2021-09-11T18:02:57.557</time></trkpt><trkpt lat="55.8420850" lon="49.1772210"><time>2021-09-11T18:02:59.557</time></trkpt><trkpt lat="55.8420840" lon="49.1772440"><time>2021-09-11T18:02:59.557</time></trkpt><trkpt lat="55.8420850" lon="49.1772920"><time>2021-09-11T18:03:00.557</time></trkpt><trkpt lat="55.8420890" lon="49.1773370"><time>2021-09-11T18:03:01.557</time></trkpt><trkpt lat="55.8420970" lon="49.1773770"><time>2021-09-11T18:03:02.557</time></trkpt><trkpt lat="55.8421190" lon="49.1774280"><time>2021-09-11T18:03:04.557</time></trkpt><trkpt lat="55.8421270" lon="49.1774440"><time>2021-09-11T18:03:04.557</time></trkpt><trkpt lat="55.8421440" lon="49.1774740"><time>2021-09-11T18:03:05.557</time></trkpt><trkpt lat="55.8421610" lon="49.1775020"><time>2021-09-11T18:03:06.557</time></trkpt><trkpt lat="55.8421790" lon="49.1775300"><time>2021-09-11T18:03:07.557</time></trkpt><trkpt lat="55.8421960" lon="49.1775610"><time>2021-09-11T18:03:08.557</time></trkpt><trkpt lat="55.8422240" lon="49.1776080"><time>2021-09-11T18:03:10.557</time></trkpt><trkpt lat="55.8422340" lon="49.1776240"><time>2021-09-11T18:03:10.557</time></trkpt><trkpt lat="55.8422520" lon="49.1776560"><time>2021-09-11T18:03:11.557</time></trkpt><trkpt lat="55.8422700" lon="49.1776860"><time>2021-09-11T18:03:12.557</time></trkpt><trkpt lat="55.8422960" lon="49.1777280"><time>2021-09-11T18:03:14.557</time></trkpt><trkpt lat="55.8423050" lon="49.1777420"><time>2021-09-11T18:03:14.557</time></trkpt><trkpt lat="55.8423230" lon="49.1777680"><time>2021-09-11T18:03:15.557</time></trkpt><trkpt lat="55.8423410" lon="49.1777960"><time>2021-09-11T18:03:16.557</time></trkpt><trkpt lat="55.8423690" lon="49.1778370"><time>2021-09-11T18:03:18.557</time></trkpt><trkpt lat="55.8423780" lon="49.1778520"><time>2021-09-11T18:03:18.557</time></trkpt><trkpt lat="55.8423940" lon="49.1778790"><time>2021-09-11T18:03:19.557</time></trkpt><trkpt lat="55.8424120" lon="49.1779040"><time>2021-09-11T18:03:20.557</time></trkpt><trkpt lat="55.8424310" lon="49.1779240"><time>2021-09-11T18:03:21.557</time></trkpt><trkpt lat="55.8424540" lon="49.1779400"><time>2021-09-11T18:03:22.557</time></trkpt><trkpt lat="55.8424900" lon="49.1779560"><time>2021-09-11T18:03:24.557</time></trkpt><trkpt lat="55.8425020" lon="49.1779610"><time>2021-09-11T18:03:24.557</time></trkpt><trkpt lat="55.8425260" lon="49.1779660"><time>2021-09-11T18:03:25.557</time></trkpt><trkpt lat="55.8425500" lon="49.1779650"><time>2021-09-11T18:03:26.557</time></trkpt><trkpt lat="55.8425740" lon="49.1779590"><time>2021-09-11T18:03:27.557</time></trkpt><trkpt lat="55.8425960" lon="49.1779490"><time>2021-09-11T18:03:28.557</time></trkpt><trkpt lat="55.8426280" lon="49.1779280"><time>2021-09-11T18:03:30.557</time></trkpt><trkpt lat="55.8426380" lon="49.1779190"><time>2021-09-11T18:03:30.557</time></trkpt><trkpt lat="55.8426580" lon="49.1779000"><time>2021-09-11T18:03:31.557</time></trkpt><trkpt lat="55.8426770" lon="49.1778800"><time>2021-09-11T18:03:32.557</time></trkpt><trkpt lat="55.8426960" lon="49.1778560"><time>2021-09-11T18:03:33.557</time></trkpt><trkpt lat="55.8427150" lon="49.1778320"><time>2021-09-11T18:03:34.557</time></trkpt><trkpt lat="55.8427350" lon="49.1778090"><time>2021-09-11T18:03:35.557</time></trkpt><trkpt lat="55.8427550" lon="49.1777840"><time>2021-09-11T18:03:36.557</time></trkpt><trkpt lat="55.8427750" lon="49.1777580"><time>2021-09-11T18:03:37.557</time></trkpt><trkpt lat="55.8427940" lon="49.1777320"><time>2021-09-11T18:03:38.557</time></trkpt><trkpt lat="55.8428150" lon="49.1777050"><time>2021-09-11T18:03:39.557</time></trkpt><trkpt lat="55.8428360" lon="49.1776800"><time>2021-09-11T18:03:40.557</time></trkpt><trkpt lat="55.8428580" lon="49.1776570"><time>2021-09-11T18:03:41.557</time></trkpt><trkpt lat="55.8428810" lon="49.1776350"><time>2021-09-11T18:03:42.557</time></trkpt><trkpt lat="55.8429040" lon="49.1776140"><time>2021-09-11T18:03:43.557</time></trkpt><trkpt lat="55.8429260" lon="49.1775960"><time>2021-09-11T18:03:44.557</time></trkpt><trkpt lat="55.8429480" lon="49.1775790"><time>2021-09-11T18:03:45.557</time></trkpt><trkpt lat="55.8429820" lon="49.1775590"><time>2021-09-11T18:03:47.557</time></trkpt><trkpt lat="55.8429930" lon="49.1775520"><time>2021-09-11T18:03:47.557</time></trkpt><trkpt lat="55.8430180" lon="49.1775400"><time>2021-09-11T18:03:48.557</time></trkpt><trkpt lat="55.8430430" lon="49.1775330"><time>2021-09-11T18:03:49.557</time></trkpt><trkpt lat="55.8430670" lon="49.1775280"><time>2021-09-11T18:03:50.557</time></trkpt><trkpt lat="55.8430920" lon="49.1775240"><time>2021-09-11T18:03:51.557</time></trkpt><trkpt lat="55.8431290" lon="49.1775140"><time>2021-09-11T18:03:53.557</time></trkpt><trkpt lat="55.8431410" lon="49.1775100"><time>2021-09-11T18:03:53.557</time></trkpt><trkpt lat="55.8431680" lon="49.1774970"><time>2021-09-11T18:03:54.557</time></trkpt><trkpt lat="55.8431950" lon="49.1774830"><time>2021-09-11T18:03:55.557</time></trkpt><trkpt lat="55.8432200" lon="49.1774690"><time>2021-09-11T18:03:56.557</time></trkpt><trkpt lat="55.8432450" lon="49.1774570"><time>2021-09-11T18:03:57.557</time></trkpt><trkpt lat="55.8432700" lon="49.1774440"><time>2021-09-11T18:03:58.557</time></trkpt><trkpt lat="55.8432950" lon="49.1774300"><time>2021-09-11T18:03:59.557</time></trkpt><trkpt lat="55.8433210" lon="49.1774170"><time>2021-09-11T18:04:00.557</time></trkpt><trkpt lat="55.8433490" lon="49.1774090"><time>2021-09-11T18:04:01.557</time></trkpt><trkpt lat="55.8433750" lon="49.1774010"><time>2021-09-11T18:04:02.557</time></trkpt><trkpt lat="55.8434010" lon="49.1773920"><time>2021-09-11T18:04:03.557</time></trkpt><trkpt lat="55.8434250" lon="49.1773820"><time>2021-09-11T18:04:04.557</time></trkpt><trkpt lat="55.8434500" lon="49.1773720"><time>2021-09-11T18:04:05.557</time></trkpt><trkpt lat="55.8434750" lon="49.1773620"><time>2021-09-11T18:04:06.557</time></trkpt><trkpt lat="55.8435000" lon="49.1773520"><time>2021-09-11T18:04:07.557</time></trkpt><trkpt lat="55.8435240" lon="49.1773420"><time>2021-09-11T18:04:08.557</time></trkpt><trkpt lat="55.8435470" lon="49.1773290"><time>2021-09-11T18:04:09.557</time></trkpt><trkpt lat="55.8435690" lon="49.1773140"><time>2021-09-11T18:04:10.557</time></trkpt><trkpt lat="55.8435930" lon="49.1773000"><time>2021-09-11T18:04:11.557</time></trkpt><trkpt lat="55.8436190" lon="49.1772880"><time>2021-09-11T18:04:12.557</time></trkpt><trkpt lat="55.8436450" lon="49.1772790"><time>2021-09-11T18:04:13.557</time></trkpt><trkpt lat="55.8436700" lon="49.1772740"><time>2021-09-11T18:04:14.557</time></trkpt><trkpt lat="55.8436940" lon="49.1772730"><time>2021-09-11T18:04:15.557</time></trkpt><trkpt lat="55.8437180" lon="49.1772740"><time>2021-09-11T18:04:16.557</time></trkpt><trkpt lat="55.8437410" lon="49.1772770"><time>2021-09-11T18:04:17.557</time></trkpt><trkpt lat="55.8437650" lon="49.1772810"><time>2021-09-11T18:04:18.557</time></trkpt><trkpt lat="55.8437890" lon="49.1772850"><time>2021-09-11T18:04:19.557</time></trkpt><trkpt lat="55.8438130" lon="49.1772890"><time>2021-09-11T18:04:20.557</time></trkpt><trkpt lat="55.8438370" lon="49.1772930"><time>2021-09-11T18:04:21.557</time></trkpt><trkpt lat="55.8438600" lon="49.1772960"><time>2021-09-11T18:04:22.557</time></trkpt><trkpt lat="55.8438970" lon="49.1772970"><time>2021-09-11T18:04:24.557</time></trkpt><trkpt lat="55.8439090" lon="49.1772970"><time>2021-09-11T18:04:24.557</time></trkpt><trkpt lat="55.8439340" lon="49.1772960"><time>2021-09-11T18:04:25.557</time></trkpt><trkpt lat="55.8439600" lon="49.1772930"><time>2021-09-11T18:04:26.557</time></trkpt><trkpt lat="55.8439980" lon="49.1772890"><time>2021-09-11T18:04:28.557</time></trkpt><trkpt lat="55.8440100" lon="49.1772870"><time>2021-09-11T18:04:28.557</time></trkpt><trkpt lat="55.8440340" lon="49.1772830"><time>2021-09-11T18:04:29.557</time></trkpt><trkpt lat="55.8440590" lon="49.1772760"><time>2021-09-11T18:04:30.557</time></trkpt><trkpt lat="55.8440840" lon="49.1772700"><time>2021-09-11T18:04:31.557</time></trkpt><trkpt lat="55.8441090" lon="49.1772640"><time>2021-09-11T18:04:32.557</time></trkpt><trkpt lat="55.8441450" lon="49.1772560"><time>2021-09-11T18:04:34.557</time></trkpt><trkpt lat="55.8441570" lon="49.1772530"><time>2021-09-11T18:04:34.557</time></trkpt><trkpt lat="55.8441810" lon="49.1772490"><time>2021-09-11T18:04:35.557</time></trkpt><trkpt lat="55.8442050" lon="49.1772500"><time>2021-09-11T18:04:36.557</time></trkpt><trkpt lat="55.8442300" lon="49.1772550"><time>2021-09-11T18:04:37.557</time></trkpt><trkpt lat="55.8442540" lon="49.1772650"><time>2021-09-11T18:04:38.557</time></trkpt><trkpt lat="55.8442780" lon="49.1772820"><time>2021-09-11T18:04:39.557</time></trkpt><trkpt lat="55.8442990" lon="49.1773030"><time>2021-09-11T18:04:40.557</time></trkpt><trkpt lat="55.8443190" lon="49.1773300"><time>2021-09-11T18:04:41.557</time></trkpt><trkpt lat="55.8443370" lon="49.1773610"><time>2021-09-11T18:04:42.557</time></trkpt><trkpt lat="55.8443520" lon="49.1773950"><time>2021-09-11T18:04:43.557</time></trkpt><trkpt lat="55.8443660" lon="49.1774330"><time>2021-09-11T18:04:44.557</time></trkpt><trkpt lat="55.8443800" lon="49.1774720"><time>2021-09-11T18:04:45.557</time></trkpt><trkpt lat="55.8443930" lon="49.1775110"><time>2021-09-11T18:04:46.557</time></trkpt><trkpt lat="55.8444060" lon="49.1775510"><time>2021-09-11T18:04:47.557</time></trkpt><trkpt lat="55.8444190" lon="49.1775890"><time>2021-09-11T18:04:48.557</time></trkpt><trkpt lat="55.8444330" lon="49.1776270"><time>2021-09-11T18:04:49.557</time></trkpt><trkpt lat="55.8444470" lon="49.1776650"><time>2021-09-11T18:04:50.557</time></trkpt><trkpt lat="55.8444630" lon="49.1777030"><time>2021-09-11T18:04:51.557</time></trkpt><trkpt lat="55.8444780" lon="49.1777390"><time>2021-09-11T18:04:52.557</time></trkpt><trkpt lat="55.8444930" lon="49.1777750"><time>2021-09-11T18:04:53.557</time></trkpt><trkpt lat="55.8445070" lon="49.1778120"><time>2021-09-11T18:04:54.557</time></trkpt><trkpt lat="55.8445190" lon="49.1778510"><time>2021-09-11T18:04:54.557</time></trkpt><trkpt lat="55.8445370" lon="49.1779090"><time>2021-09-11T18:04:56.557</time></trkpt><trkpt lat="55.8445420" lon="49.1779280"><time>2021-09-11T18:04:56.557</time></trkpt><trkpt lat="55.8445540" lon="49.1779670"><time>2021-09-11T18:04:57.557</time></trkpt><trkpt lat="55.8445650" lon="49.1780060"><time>2021-09-11T18:04:58.557</time></trkpt><trkpt lat="55.8445760" lon="49.1780460"><time>2021-09-11T18:04:59.557</time></trkpt><trkpt lat="55.8445870" lon="49.1780860"><time>2021-09-11T18:05:00.557</time></trkpt><trkpt lat="55.8445960" lon="49.1781260"><time>2021-09-11T18:05:01.557</time></trkpt><trkpt lat="55.8446050" lon="49.1781650"><time>2021-09-11T18:05:02.557</time></trkpt><trkpt lat="55.8446160" lon="49.1782050"><time>2021-09-11T18:05:03.557</time></trkpt><trkpt lat="55.8446280" lon="49.1782450"><time>2021-09-11T18:05:04.557</time></trkpt><trkpt lat="55.8446410" lon="49.1782830"><time>2021-09-11T18:05:05.557</time></trkpt><trkpt lat="55.8446600" lon="49.1783340"><time>2021-09-11T18:05:07.557</time></trkpt><trkpt lat="55.8446660" lon="49.1783490"><time>2021-09-11T18:05:07.557</time></trkpt><trkpt lat="55.8446810" lon="49.1783740"><time>2021-09-11T18:05:08.557</time></trkpt><trkpt lat="55.8446970" lon="49.1783940"><time>2021-09-11T18:05:09.557</time></trkpt><trkpt lat="55.8447140" lon="49.1784060"><time>2021-09-11T18:05:10.557</time></trkpt><trkpt lat="55.8447350" lon="49.1784120"><time>2021-09-11T18:05:11.557</time></trkpt><trkpt lat="55.8447660" lon="49.1784040"><time>2021-09-11T18:05:13.557</time></trkpt><trkpt lat="55.8447750" lon="49.1783990"><time>2021-09-11T18:05:13.557</time></trkpt><trkpt lat="55.8447920" lon="49.1783820"><time>2021-09-11T18:05:14.557</time></trkpt><trkpt lat="55.8448070" lon="49.1783590"><time>2021-09-11T18:05:15.557</time></trkpt><trkpt lat="55.8448290" lon="49.1783170"><time>2021-09-11T18:05:17.557</time></trkpt><trkpt lat="55.8448360" lon="49.1783020"><time>2021-09-11T18:05:17.557</time></trkpt><trkpt lat="55.8448530" lon="49.1782720"><time>2021-09-11T18:05:18.557</time></trkpt><trkpt lat="55.8448700" lon="49.1782470"><time>2021-09-11T18:05:19.557</time></trkpt><trkpt lat="55.8448870" lon="49.1782290"><time>2021-09-11T18:05:20.557</time></trkpt><trkpt lat="55.8449030" lon="49.1782170"><time>2021-09-11T18:05:21.557</time></trkpt><trkpt lat="55.8449250" lon="49.1782110"><time>2021-09-11T18:05:23.557</time></trkpt><trkpt lat="55.8449310" lon="49.1782110"><time>2021-09-11T18:05:23.557</time></trkpt><trkpt lat="55.8449400" lon="49.1782190"><time>2021-09-11T18:05:24.557</time></trkpt><trkpt lat="55.8449450" lon="49.1782330"><time>2021-09-11T18:05:25.557</time></trkpt><trkpt lat="55.8449510" lon="49.1782580"><time>2021-09-11T18:05:26.557</time></trkpt><trkpt lat="55.8449580" lon="49.1782840"><time>2021-09-11T18:05:27.557</time></trkpt><trkpt lat="55.8449670" lon="49.1783080"><time>2021-09-11T18:05:28.557</time></trkpt><trkpt lat="55.8449760" lon="49.1783250"><time>2021-09-11T18:05:29.557</time></trkpt><trkpt lat="55.8449840" lon="49.1783310"><time>2021-09-11T18:05:30.557</time></trkpt><trkpt lat="55.8449920" lon="49.1783250"><time>2021-09-11T18:05:31.557</time></trkpt><trkpt lat="55.8450000" lon="49.1783100"><time>2021-09-11T18:05:32.557</time></trkpt><trkpt lat="55.8450090" lon="49.1782940"><time>2021-09-11T18:05:33.557</time></trkpt><trkpt lat="55.8450220" lon="49.1782760"><time>2021-09-11T18:05:34.557</time></trkpt><trkpt lat="55.8450400" lon="49.1782540"><time>2021-09-11T18:05:35.557</time></trkpt><trkpt lat="55.8450600" lon="49.1782270"><time>2021-09-11T18:05:36.557</time></trkpt><trkpt lat="55.8450790" lon="49.1781950"><time>2021-09-11T18:05:37.557</time></trkpt><trkpt lat="55.8450970" lon="49.1781630"><time>2021-09-11T18:05:38.557</time></trkpt><trkpt lat="55.8451220" lon="49.1781170"><time>2021-09-11T18:05:40.557</time></trkpt><trkpt lat="55.8451290" lon="49.1781010"><time>2021-09-11T18:05:40.557</time></trkpt><trkpt lat="55.8451420" lon="49.1780720"><time>2021-09-11T18:05:41.557</time></trkpt><trkpt lat="55.8451520" lon="49.1780430"><time>2021-09-11T18:05:42.557</time></trkpt><trkpt lat="55.8451660" lon="49.1780030"><time>2021-09-11T18:05:43.557</time></trkpt><trkpt lat="55.8451710" lon="49.1779880"><time>2021-09-11T18:05:44.557</time></trkpt><trkpt lat="55.8451770" lon="49.1779730"><time>2021-09-11T18:05:46.557</time></trkpt><trkpt lat="55.8451820" lon="49.1779580"><time>2021-09-11T18:05:46.557</time></trkpt><trkpt lat="55.8451900" lon="49.1779390"><time>2021-09-11T18:05:47.557</time></trkpt><trkpt lat="55.8451980" lon="49.1779220"><time>2021-09-11T18:05:48.557</time></trkpt><trkpt lat="55.8452090" lon="49.1779090"><time>2021-09-11T18:05:49.557</time></trkpt><trkpt lat="55.8452240" lon="49.1779050"><time>2021-09-11T18:05:50.557</time></trkpt><trkpt lat="55.8452390" lon="49.1779100"><time>2021-09-11T18:05:51.557</time></trkpt><trkpt lat="55.8452550" lon="49.1779210"><time>2021-09-11T18:05:52.557</time></trkpt><trkpt lat="55.8452730" lon="49.1779360"><time>2021-09-11T18:05:53.557</time></trkpt><trkpt lat="55.8452910" lon="49.1779550"><time>2021-09-11T18:05:54.557</time></trkpt><trkpt lat="55.8453200" lon="49.1779760"><time>2021-09-11T18:05:56.557</time></trkpt><trkpt lat="55.8453290" lon="49.1779820"><time>2021-09-11T18:05:56.557</time></trkpt><trkpt lat="55.8453470" lon="49.1779910"><time>2021-09-11T18:05:57.557</time></trkpt><trkpt lat="55.8453660" lon="49.1779970"><time>2021-09-11T18:05:58.557</time></trkpt><trkpt lat="55.8453850" lon="49.1780000"><time>2021-09-11T18:05:59.557</time></trkpt><trkpt lat="55.8454150" lon="49.1780050"><time>2021-09-11T18:06:01.557</time></trkpt><trkpt lat="55.8454250" lon="49.1780070"><time>2021-09-11T18:06:01.557</time></trkpt><trkpt lat="55.8454450" lon="49.1780060"><time>2021-09-11T18:06:02.557</time></trkpt><trkpt lat="55.8454660" lon="49.1780010"><time>2021-09-11T18:06:03.557</time></trkpt><trkpt lat="55.8454890" lon="49.1779930"><time>2021-09-11T18:06:04.557</time></trkpt><trkpt lat="55.8455100" lon="49.1779880"><time>2021-09-11T18:06:05.557</time></trkpt><trkpt lat="55.8455370" lon="49.1779870"><time>2021-09-11T18:06:07.557</time></trkpt><trkpt lat="55.8455460" lon="49.1779880"><time>2021-09-11T18:06:07.557</time></trkpt><trkpt lat="55.8455620" lon="49.1779900"><time>2021-09-11T18:06:08.557</time></trkpt><trkpt lat="55.8455790" lon="49.1779960"><time>2021-09-11T18:06:09.557</time></trkpt><trkpt lat="55.8455980" lon="49.1780000"><time>2021-09-11T18:06:10.557</time></trkpt><trkpt lat="55.8456170" lon="49.1780030"><time>2021-09-11T18:06:11.557</time></trkpt><trkpt lat="55.8456360" lon="49.1780020"><time>2021-09-11T18:06:12.557</time></trkpt><trkpt lat="55.8456540" lon="49.1780040"><time>2021-09-11T18:06:13.557</time></trkpt><trkpt lat="55.8456830" lon="49.1780210"><time>2021-09-11T18:06:14.557</time></trkpt><trkpt lat="55.8456960" lon="49.1780280"><time>2021-09-11T18:06:15.557</time></trkpt><trkpt lat="55.8457080" lon="49.1780360"><time>2021-09-11T18:06:17.557</time></trkpt><trkpt lat="55.8457210" lon="49.1780440"><time>2021-09-11T18:06:17.557</time></trkpt><trkpt lat="55.8457410" lon="49.1780510"><time>2021-09-11T18:06:18.557</time></trkpt><trkpt lat="55.8457620" lon="49.1780570"><time>2021-09-11T18:06:19.557</time></trkpt><trkpt lat="55.8457840" lon="49.1780590"><time>2021-09-11T18:06:20.557</time></trkpt><trkpt lat="55.8458050" lon="49.1780610"><time>2021-09-11T18:06:21.557</time></trkpt><trkpt lat="55.8458260" lon="49.1780630"><time>2021-09-11T18:06:22.557</time></trkpt><trkpt lat="55.8458460" lon="49.1780650"><time>2021-09-11T18:06:23.557</time></trkpt><trkpt lat="55.8458650" lon="49.1780620"><time>2021-09-11T18:06:24.557</time></trkpt><trkpt lat="55.8458810" lon="49.1780570"><time>2021-09-11T18:06:25.557</time></trkpt><trkpt lat="55.8458930" lon="49.1780470"><time>2021-09-11T18:06:26.557</time></trkpt><trkpt lat="55.8459030" lon="49.1780340"><time>2021-09-11T18:06:27.557</time></trkpt><trkpt lat="55.8459140" lon="49.1780140"><time>2021-09-11T18:06:28.557</time></trkpt><trkpt lat="55.8459260" lon="49.1779920"><time>2021-09-11T18:06:29.557</time></trkpt><trkpt lat="55.8459360" lon="49.1779680"><time>2021-09-11T18:06:30.557</time></trkpt><trkpt lat="55.8459450" lon="49.1779440"><time>2021-09-11T18:06:31.557</time></trkpt><trkpt lat="55.8459550" lon="49.1779170"><time>2021-09-11T18:06:32.557</time></trkpt><trkpt lat="55.8459670" lon="49.1778730"><time>2021-09-11T18:06:34.557</time></trkpt><trkpt lat="55.8459710" lon="49.1778570"><time>2021-09-11T18:06:34.557</time></trkpt><trkpt lat="55.8459770" lon="49.1778230"><time>2021-09-11T18:06:35.557</time></trkpt><trkpt lat="55.8459840" lon="49.1777870"><time>2021-09-11T18:06:36.557</time></trkpt><trkpt lat="55.8459890" lon="49.1777520"><time>2021-09-11T18:06:37.557</time></trkpt><trkpt lat="55.8459920" lon="49.1777200"><time>2021-09-11T18:06:38.557</time></trkpt><trkpt lat="55.8459980" lon="49.1776790"><time>2021-09-11T18:06:40.557</time></trkpt><trkpt lat="55.8460000" lon="49.1776660"><time>2021-09-11T18:06:40.557</time></trkpt><trkpt lat="55.8460050" lon="49.1776230"><time>2021-09-11T18:06:41.557</time></trkpt><trkpt lat="55.8460060" lon="49.1776020"><time>2021-09-11T18:06:42.557</time></trkpt><trkpt lat="55.8460070" lon="49.1775820"><time>2021-09-11T18:06:43.557</time></trkpt><trkpt lat="55.8460080" lon="49.1775610"><time>2021-09-11T18:06:44.557</time></trkpt><trkpt lat="55.8460090" lon="49.1775410"><time>2021-09-11T18:06:46.557</time></trkpt><trkpt lat="55.8460100" lon="49.1775200"><time>2021-09-11T18:06:47.557</time></trkpt><trkpt lat="55.8460110" lon="49.1775000"><time>2021-09-11T18:06:47.557</time></trkpt><trkpt lat="55.8460120" lon="49.1774760"><time>2021-09-11T18:06:48.557</time></trkpt><trkpt lat="55.8460140" lon="49.1774580"><time>2021-09-11T18:06:49.557</time></trkpt><trkpt lat="55.8460160" lon="49.1774440"><time>2021-09-11T18:06:50.557</time></trkpt><trkpt lat="55.8460170" lon="49.1774350"><time>2021-09-11T18:06:51.557</time></trkpt><trkpt lat="55.8460180" lon="49.1774280"><time>2021-09-11T18:06:52.557</time></trkpt><trkpt lat="55.8460180" lon="49.1774230"><time>2021-09-11T18:06:53.557</time></trkpt><trkpt lat="55.8460200" lon="49.1774100"><time>2021-09-11T18:06:59.557</time></trkpt><trkpt lat="55.8460200" lon="49.1774090"><time>2021-09-11T18:07:01.557</time></trkpt><trkpt lat="55.8460200" lon="49.1774060"><time>2021-09-11T18:07:02.557</time></trkpt><trkpt lat="55.8460200" lon="49.1773970"><time>2021-09-11T18:07:03.557</time></trkpt><trkpt lat="55.8460220" lon="49.1773810"><time>2021-09-11T18:07:04.557</time></trkpt><trkpt lat="55.8460240" lon="49.1773620"><time>2021-09-11T18:07:05.557</time></trkpt><trkpt lat="55.8460260" lon="49.1773400"><time>2021-09-11T18:07:06.557</time></trkpt><trkpt lat="55.8460290" lon="49.1773160"><time>2021-09-11T18:07:07.557</time></trkpt><trkpt lat="55.8460320" lon="49.1772910"><time>2021-09-11T18:07:08.557</time></trkpt><trkpt lat="55.8460350" lon="49.1772650"><time>2021-09-11T18:07:09.557</time></trkpt><trkpt lat="55.8460370" lon="49.1772380"><time>2021-09-11T18:07:10.557</time></trkpt><trkpt lat="55.8460410" lon="49.1772090"><time>2021-09-11T18:07:11.557</time></trkpt><trkpt lat="55.8460440" lon="49.1771810"><time>2021-09-11T18:07:12.557</time></trkpt><trkpt lat="55.8460490" lon="49.1771530"><time>2021-09-11T18:07:13.557</time></trkpt><trkpt lat="55.8460530" lon="49.1771230"><time>2021-09-11T18:07:14.557</time></trkpt><trkpt lat="55.8460560" lon="49.1770910"><time>2021-09-11T18:07:15.557</time></trkpt><trkpt lat="55.8460580" lon="49.1770560"><time>2021-09-11T18:07:16.557</time></trkpt><trkpt lat="55.8460600" lon="49.1770190"><time>2021-09-11T18:07:17.557</time></trkpt><trkpt lat="55.8460620" lon="49.1769820"><time>2021-09-11T18:07:19.557</time></trkpt><trkpt lat="55.8460670" lon="49.1769430"><time>2021-09-11T18:07:20.557</time></trkpt><trkpt lat="55.8460730" lon="49.1769040"><time>2021-09-11T18:07:20.557</time></trkpt><trkpt lat="55.8460770" lon="49.1768660"><time>2021-09-11T18:07:21.557</time></trkpt><trkpt lat="55.8460820" lon="49.1768270"><time>2021-09-11T18:07:22.557</time></trkpt><trkpt lat="55.8460870" lon="49.1767880"><time>2021-09-11T18:07:23.557</time></trkpt><trkpt lat="55.8460910" lon="49.1767490"><time>2021-09-11T18:07:24.557</time></trkpt><trkpt lat="55.8460940" lon="49.1767080"><time>2021-09-11T18:07:25.557</time></trkpt><trkpt lat="55.8460970" lon="49.1766630"><time>2021-09-11T18:07:26.557</time></trkpt><trkpt lat="55.8461010" lon="49.1766180"><time>2021-09-11T18:07:27.557</time></trkpt><trkpt lat="55.8461040" lon="49.1765730"><time>2021-09-11T18:07:28.557</time></trkpt><trkpt lat="55.8461070" lon="49.1765270"><time>2021-09-11T18:07:29.557</time></trkpt><trkpt lat="55.8461090" lon="49.1764820"><time>2021-09-11T18:07:30.557</time></trkpt><trkpt lat="55.8461100" lon="49.1764350"><time>2021-09-11T18:07:31.557</time></trkpt><trkpt lat="55.8461140" lon="49.1763640"><time>2021-09-11T18:07:33.557</time></trkpt><trkpt lat="55.8461140" lon="49.1763400"><time>2021-09-11T18:07:33.557</time></trkpt><trkpt lat="55.8461150" lon="49.1762940"><time>2021-09-11T18:07:34.557</time></trkpt><trkpt lat="55.8461170" lon="49.1762470"><time>2021-09-11T18:07:35.557</time></trkpt><trkpt lat="55.8461180" lon="49.1762000"><time>2021-09-11T18:07:36.557</time></trkpt><trkpt lat="55.8461200" lon="49.1761570"><time>2021-09-11T18:07:37.557</time></trkpt><trkpt lat="55.8461220" lon="49.1761170"><time>2021-09-11T18:07:38.557</time></trkpt><trkpt lat="55.8461260" lon="49.1760680"><time>2021-09-11T18:07:40.557</time></trkpt><trkpt lat="55.8461280" lon="49.1760510"><time>2021-09-11T18:07:40.557</time></trkpt><trkpt lat="55.8461310" lon="49.1760130"><time>2021-09-11T18:07:41.557</time></trkpt><trkpt lat="55.8461400" lon="49.1759570"><time>2021-09-11T18:07:43.557</time></trkpt><trkpt lat="55.8461430" lon="49.1759380"><time>2021-09-11T18:07:43.557</time></trkpt><trkpt lat="55.8461460" lon="49.1759020"><time>2021-09-11T18:07:44.557</time></trkpt><trkpt lat="55.8461510" lon="49.1758700"><time>2021-09-11T18:07:45.557</time></trkpt><trkpt lat="55.8461550" lon="49.1758370"><time>2021-09-11T18:07:46.557</time></trkpt><trkpt lat="55.8461600" lon="49.1758020"><time>2021-09-11T18:07:47.557</time></trkpt><trkpt lat="55.8461730" lon="49.1757460"><time>2021-09-11T18:07:49.557</time></trkpt><trkpt lat="55.8461780" lon="49.1757280"><time>2021-09-11T18:07:49.557</time></trkpt><trkpt lat="55.8461830" lon="49.1756910"><time>2021-09-11T18:07:50.557</time></trkpt><trkpt lat="55.8461860" lon="49.1756540"><time>2021-09-11T18:07:51.557</time></trkpt><trkpt lat="55.8461880" lon="49.1756150"><time>2021-09-11T18:07:52.557</time></trkpt><trkpt lat="55.8461920" lon="49.1755760"><time>2021-09-11T18:07:53.557</time></trkpt><trkpt lat="55.8461990" lon="49.1755330"><time>2021-09-11T18:07:54.557</time></trkpt><trkpt lat="55.8462030" lon="49.1754890"><time>2021-09-11T18:07:55.557</time></trkpt><trkpt lat="55.8462060" lon="49.1754470"><time>2021-09-11T18:07:56.557</time></trkpt><trkpt lat="55.8462070" lon="49.1754050"><time>2021-09-11T18:07:57.557</time></trkpt><trkpt lat="55.8462080" lon="49.1753610"><time>2021-09-11T18:07:58.557</time></trkpt><trkpt lat="55.8462090" lon="49.1753180"><time>2021-09-11T18:07:59.557</time></trkpt><trkpt lat="55.8462100" lon="49.1752730"><time>2021-09-11T18:08:00.557</time></trkpt><trkpt lat="55.8462090" lon="49.1752290"><time>2021-09-11T18:08:01.557</time></trkpt><trkpt lat="55.8462080" lon="49.1751860"><time>2021-09-11T18:08:02.557</time></trkpt><trkpt lat="55.8462070" lon="49.1751450"><time>2021-09-11T18:08:03.557</time></trkpt><trkpt lat="55.8462070" lon="49.1750870"><time>2021-09-11T18:08:05.557</time></trkpt><trkpt lat="55.8462070" lon="49.1750670"><time>2021-09-11T18:08:05.557</time></trkpt><trkpt lat="55.8462080" lon="49.1750300"><time>2021-09-11T18:08:06.557</time></trkpt><trkpt lat="55.8462090" lon="49.1749940"><time>2021-09-11T18:08:07.557</time></trkpt><trkpt lat="55.8462120" lon="49.1749550"><time>2021-09-11T18:08:08.557</time></trkpt><trkpt lat="55.8462160" lon="49.1749170"><time>2021-09-11T18:08:09.557</time></trkpt><trkpt lat="55.8462200" lon="49.1748790"><time>2021-09-11T18:08:10.557</time></trkpt><trkpt lat="55.8462260" lon="49.1748400"><time>2021-09-11T18:08:11.557</time></trkpt><trkpt lat="55.8462320" lon="49.1748010"><time>2021-09-11T18:08:12.557</time></trkpt><trkpt lat="55.8462380" lon="49.1747630"><time>2021-09-11T18:08:13.557</time></trkpt><trkpt lat="55.8462450" lon="49.1747220"><time>2021-09-11T18:08:14.557</time></trkpt><trkpt lat="55.8462510" lon="49.1746790"><time>2021-09-11T18:08:15.557</time></trkpt><trkpt lat="55.8462580" lon="49.1746330"><time>2021-09-11T18:08:16.557</time></trkpt><trkpt lat="55.8462650" lon="49.1745860"><time>2021-09-11T18:08:17.557</time></trkpt><trkpt lat="55.8462700" lon="49.1745390"><time>2021-09-11T18:08:18.557</time></trkpt><trkpt lat="55.8462750" lon="49.1744920"><time>2021-09-11T18:08:19.557</time></trkpt><trkpt lat="55.8462840" lon="49.1744220"><time>2021-09-11T18:08:21.557</time></trkpt><trkpt lat="55.8462860" lon="49.1743980"><time>2021-09-11T18:08:21.557</time></trkpt><trkpt lat="55.8462930" lon="49.1743530"><time>2021-09-11T18:08:22.557</time></trkpt><trkpt lat="55.8463000" lon="49.1743090"><time>2021-09-11T18:08:23.557</time></trkpt><trkpt lat="55.8463050" lon="49.1742720"><time>2021-09-11T18:08:24.557</time></trkpt><trkpt lat="55.8463080" lon="49.1742390"><time>2021-09-11T18:08:25.557</time></trkpt><trkpt lat="55.8463130" lon="49.1741840"><time>2021-09-11T18:08:27.557</time></trkpt><trkpt lat="55.8463140" lon="49.1741640"><time>2021-09-11T18:08:27.557</time></trkpt><trkpt lat="55.8463150" lon="49.1741250"><time>2021-09-11T18:08:28.557</time></trkpt><trkpt lat="55.8463160" lon="49.1740840"><time>2021-09-11T18:08:29.557</time></trkpt><trkpt lat="55.8463190" lon="49.1740420"><time>2021-09-11T18:08:30.557</time></trkpt><trkpt lat="55.8463210" lon="49.1740010"><time>2021-09-11T18:08:31.557</time></trkpt><trkpt lat="55.8463260" lon="49.1739610"><time>2021-09-11T18:08:32.557</time></trkpt><trkpt lat="55.8463290" lon="49.1739200"><time>2021-09-11T18:08:33.557</time></trkpt><trkpt lat="55.8463350" lon="49.1738820"><time>2021-09-11T18:08:34.557</time></trkpt><trkpt lat="55.8463420" lon="49.1738440"><time>2021-09-11T18:08:35.557</time></trkpt><trkpt lat="55.8463480" lon="49.1738050"><time>2021-09-11T18:08:36.557</time></trkpt><trkpt lat="55.8463520" lon="49.1737650"><time>2021-09-11T18:08:37.557</time></trkpt><trkpt lat="55.8463550" lon="49.1737240"><time>2021-09-11T18:08:38.557</time></trkpt><trkpt lat="55.8463590" lon="49.1736820"><time>2021-09-11T18:08:39.557</time></trkpt><trkpt lat="55.8463620" lon="49.1736390"><time>2021-09-11T18:08:40.557</time></trkpt><trkpt lat="55.8463650" lon="49.1735960"><time>2021-09-11T18:08:41.557</time></trkpt><trkpt lat="55.8463690" lon="49.1735530"><time>2021-09-11T18:08:42.557</time></trkpt><trkpt lat="55.8463710" lon="49.1735130"><time>2021-09-11T18:08:43.557</time></trkpt><trkpt lat="55.8463740" lon="49.1734720"><time>2021-09-11T18:08:44.557</time></trkpt><trkpt lat="55.8463790" lon="49.1734280"><time>2021-09-11T18:08:45.557</time></trkpt><trkpt lat="55.8463830" lon="49.1733870"><time>2021-09-11T18:08:46.557</time></trkpt><trkpt lat="55.8463880" lon="49.1733470"><time>2021-09-11T18:08:47.557</time></trkpt><trkpt lat="55.8463940" lon="49.1733110"><time>2021-09-11T18:08:48.557</time></trkpt><trkpt lat="55.8464040" lon="49.1732570"><time>2021-09-11T18:08:50.557</time></trkpt><trkpt lat="55.8464070" lon="49.1732380"><time>2021-09-11T18:08:50.557</time></trkpt><trkpt lat="55.8464130" lon="49.1731980"><time>2021-09-11T18:08:51.557</time></trkpt><trkpt lat="55.8464190" lon="49.1731570"><time>2021-09-11T18:08:52.557</time></trkpt><trkpt lat="55.8464230" lon="49.1731180"><time>2021-09-11T18:08:53.557</time></trkpt><trkpt lat="55.8464260" lon="49.1730750"><time>2021-09-11T18:08:54.557</time></trkpt><trkpt lat="55.8464290" lon="49.1730070"><time>2021-09-11T18:08:56.557</time></trkpt><trkpt lat="55.8464300" lon="49.1729840"><time>2021-09-11T18:08:56.557</time></trkpt><trkpt lat="55.8464350" lon="49.1729390"><time>2021-09-11T18:08:57.557</time></trkpt><trkpt lat="55.8464410" lon="49.1728910"><time>2021-09-11T18:08:58.557</time></trkpt><trkpt lat="55.8464500" lon="49.1728480"><time>2021-09-11T18:08:59.557</time></trkpt><trkpt lat="55.8464640" lon="49.1728100"><time>2021-09-11T18:09:00.557</time></trkpt><trkpt lat="55.8464750" lon="49.1727720"><time>2021-09-11T18:09:01.557</time></trkpt><trkpt lat="55.8464860" lon="49.1727310"><time>2021-09-11T18:09:02.557</time></trkpt><trkpt lat="55.8464920" lon="49.1726900"><time>2021-09-11T18:09:03.557</time></trkpt><trkpt lat="55.8464970" lon="49.1726460"><time>2021-09-11T18:09:04.557</time></trkpt><trkpt lat="55.8465000" lon="49.1726020"><time>2021-09-11T18:09:05.557</time></trkpt><trkpt lat="55.8465010" lon="49.1725590"><time>2021-09-11T18:09:06.557</time></trkpt><trkpt lat="55.8465000" lon="49.1725170"><time>2021-09-11T18:09:07.557</time></trkpt><trkpt lat="55.8464960" lon="49.1724750"><time>2021-09-11T18:09:08.557</time></trkpt><trkpt lat="55.8464960" lon="49.1724340"><time>2021-09-11T18:09:09.557</time></trkpt><trkpt lat="55.8464960" lon="49.1723930"><time>2021-09-11T18:09:10.557</time></trkpt><trkpt lat="55.8464970" lon="49.1723530"><time>2021-09-11T18:09:10.557</time></trkpt><trkpt lat="55.8464990" lon="49.1723110"><time>2021-09-11T18:09:11.557</time></trkpt><trkpt lat="55.8465030" lon="49.1722720"><time>2021-09-11T18:09:12.557</time></trkpt><trkpt lat="55.8465070" lon="49.1722340"><time>2021-09-11T18:09:13.557</time></trkpt><trkpt lat="55.8465130" lon="49.1721960"><time>2021-09-11T18:09:14.557</time></trkpt><trkpt lat="55.8465190" lon="49.1721570"><time>2021-09-11T18:09:15.557</time></trkpt><trkpt lat="55.8465250" lon="49.1721180"><time>2021-09-11T18:09:16.557</time></trkpt><trkpt lat="55.8465300" lon="49.1720770"><time>2021-09-11T18:09:17.557</time></trkpt><trkpt lat="55.8465340" lon="49.1720330"><time>2021-09-11T18:09:18.557</time></trkpt><trkpt lat="55.8465400" lon="49.1719660"><time>2021-09-11T18:09:20.557</time></trkpt><trkpt lat="55.8465420" lon="49.1719440"><time>2021-09-11T18:09:20.557</time></trkpt><trkpt lat="55.8465460" lon="49.1718990"><time>2021-09-11T18:09:21.557</time></trkpt><trkpt lat="55.8465500" lon="49.1718550"><time>2021-09-11T18:09:22.557</time></trkpt><trkpt lat="55.8465540" lon="49.1718110"><time>2021-09-11T18:09:23.557</time></trkpt><trkpt lat="55.8465590" lon="49.1717630"><time>2021-09-11T18:09:24.557</time></trkpt><trkpt lat="55.8465690" lon="49.1717180"><time>2021-09-11T18:09:25.557</time></trkpt><trkpt lat="55.8465770" lon="49.1716730"><time>2021-09-11T18:09:26.557</time></trkpt><trkpt lat="55.8465850" lon="49.1716280"><time>2021-09-11T18:09:27.557</time></trkpt><trkpt lat="55.8465920" lon="49.1715820"><time>2021-09-11T18:09:28.557</time></trkpt><trkpt lat="55.8465970" lon="49.1715360"><time>2021-09-11T18:09:29.557</time></trkpt><trkpt lat="55.8466020" lon="49.1714910"><time>2021-09-11T18:09:30.557</time></trkpt><trkpt lat="55.8466070" lon="49.1714470"><time>2021-09-11T18:09:31.557</time></trkpt><trkpt lat="55.8466110" lon="49.1714020"><time>2021-09-11T18:09:32.557</time></trkpt><trkpt lat="55.8466130" lon="49.1713580"><time>2021-09-11T18:09:33.557</time></trkpt><trkpt lat="55.8466140" lon="49.1713130"><time>2021-09-11T18:09:34.557</time></trkpt><trkpt lat="55.8466160" lon="49.1712700"><time>2021-09-11T18:09:35.557</time></trkpt><trkpt lat="55.8466190" lon="49.1712290"><time>2021-09-11T18:09:36.557</time></trkpt><trkpt lat="55.8466220" lon="49.1711890"><time>2021-09-11T18:09:37.557</time></trkpt><trkpt lat="55.8466230" lon="49.1711470"><time>2021-09-11T18:09:38.557</time></trkpt><trkpt lat="55.8466230" lon="49.1711080"><time>2021-09-11T18:09:39.557</time></trkpt><trkpt lat="55.8466240" lon="49.1710680"><time>2021-09-11T18:09:40.557</time></trkpt><trkpt lat="55.8466250" lon="49.1710270"><time>2021-09-11T18:09:41.557</time></trkpt><trkpt lat="55.8466250" lon="49.1709670"><time>2021-09-11T18:09:43.557</time></trkpt><trkpt lat="55.8466250" lon="49.1709470"><time>2021-09-11T18:09:43.557</time></trkpt><trkpt lat="55.8466260" lon="49.1709070"><time>2021-09-11T18:09:44.557</time></trkpt><trkpt lat="55.8466280" lon="49.1708670"><time>2021-09-11T18:09:45.557</time></trkpt><trkpt lat="55.8466280" lon="49.1708270"><time>2021-09-11T18:09:46.557</time></trkpt><trkpt lat="55.8466290" lon="49.1707880"><time>2021-09-11T18:09:47.557</time></trkpt><trkpt lat="55.8466320" lon="49.1707270"><time>2021-09-11T18:09:49.557</time></trkpt><trkpt lat="55.8466330" lon="49.1707060"><time>2021-09-11T18:09:49.557</time></trkpt><trkpt lat="55.8466350" lon="49.1706640"><time>2021-09-11T18:09:50.557</time></trkpt><trkpt lat="55.8466370" lon="49.1706220"><time>2021-09-11T18:09:51.557</time></trkpt><trkpt lat="55.8466390" lon="49.1705790"><time>2021-09-11T18:09:52.557</time></trkpt><trkpt lat="55.8466410" lon="49.1705360"><time>2021-09-11T18:09:53.557</time></trkpt><trkpt lat="55.8466440" lon="49.1704920"><time>2021-09-11T18:09:54.557</time></trkpt><trkpt lat="55.8466470" lon="49.1704480"><time>2021-09-11T18:09:55.557</time></trkpt><trkpt lat="55.8466520" lon="49.1704030"><time>2021-09-11T18:09:56.557</time></trkpt><trkpt lat="55.8466550" lon="49.1703590"><time>2021-09-11T18:09:57.557</time></trkpt><trkpt lat="55.8466590" lon="49.1703140"><time>2021-09-11T18:09:58.557</time></trkpt><trkpt lat="55.8466620" lon="49.1702710"><time>2021-09-11T18:09:59.557</time></trkpt><trkpt lat="55.8466630" lon="49.1702280"><time>2021-09-11T18:10:00.557</time></trkpt><trkpt lat="55.8466650" lon="49.1701880"><time>2021-09-11T18:10:01.557</time></trkpt><trkpt lat="55.8466660" lon="49.1701480"><time>2021-09-11T18:10:02.557</time></trkpt><trkpt lat="55.8466710" lon="49.1701040"><time>2021-09-11T18:10:03.557</time></trkpt><trkpt lat="55.8466770" lon="49.1700610"><time>2021-09-11T18:10:04.557</time></trkpt><trkpt lat="55.8466830" lon="49.1700190"><time>2021-09-11T18:10:05.557</time></trkpt><trkpt lat="55.8466880" lon="49.1699760"><time>2021-09-11T18:10:06.557</time></trkpt><trkpt lat="55.8466920" lon="49.1699340"><time>2021-09-11T18:10:07.557</time></trkpt><trkpt lat="55.8466950" lon="49.1698910"><time>2021-09-11T18:10:08.557</time></trkpt><trkpt lat="55.8466970" lon="49.1698460"><time>2021-09-11T18:10:09.557</time></trkpt><trkpt lat="55.8466980" lon="49.1698040"><time>2021-09-11T18:10:10.557</time></trkpt><trkpt lat="55.8467020" lon="49.1697600"><time>2021-09-11T18:10:11.557</time></trkpt><trkpt lat="55.8467080" lon="49.1697140"><time>2021-09-11T18:10:12.557</time></trkpt><trkpt lat="55.8467130" lon="49.1696710"><time>2021-09-11T18:10:13.557</time></trkpt><trkpt lat="55.8467180" lon="49.1696280"><time>2021-09-11T18:10:14.557</time></trkpt><trkpt lat="55.8467200" lon="49.1695820"><time>2021-09-11T18:10:15.557</time></trkpt><trkpt lat="55.8467230" lon="49.1695370"><time>2021-09-11T18:10:16.557</time></trkpt><trkpt lat="55.8467250" lon="49.1694910"><time>2021-09-11T18:10:17.557</time></trkpt><trkpt lat="55.8467260" lon="49.1694450"><time>2021-09-11T18:10:18.557</time></trkpt><trkpt lat="55.8467260" lon="49.1693980"><time>2021-09-11T18:10:19.557</time></trkpt><trkpt lat="55.8467280" lon="49.1693520"><time>2021-09-11T18:10:20.557</time></trkpt><trkpt lat="55.8467300" lon="49.1693060"><time>2021-09-11T18:10:21.557</time></trkpt><trkpt lat="55.8467330" lon="49.1692620"><time>2021-09-11T18:10:22.557</time></trkpt><trkpt lat="55.8467380" lon="49.1692190"><time>2021-09-11T18:10:23.557</time></trkpt><trkpt lat="55.8467430" lon="49.1691770"><time>2021-09-11T18:10:24.557</time></trkpt><trkpt lat="55.8467470" lon="49.1691350"><time>2021-09-11T18:10:25.557</time></trkpt><trkpt lat="55.8467500" lon="49.1690900"><time>2021-09-11T18:10:26.557</time></trkpt><trkpt lat="55.8467520" lon="49.1690440"><time>2021-09-11T18:10:27.557</time></trkpt><trkpt lat="55.8467550" lon="49.1689950"><time>2021-09-11T18:10:28.557</time></trkpt><trkpt lat="55.8467570" lon="49.1689210"><time>2021-09-11T18:10:30.557</time></trkpt><trkpt lat="55.8467580" lon="49.1688960"><time>2021-09-11T18:10:30.557</time></trkpt><trkpt lat="55.8467600" lon="49.1688470"><time>2021-09-11T18:10:31.557</time></trkpt><trkpt lat="55.8467630" lon="49.1688000"><time>2021-09-11T18:10:32.557</time></trkpt><trkpt lat="55.8467660" lon="49.1687530"><time>2021-09-11T18:10:33.557</time></trkpt><trkpt lat="55.8467700" lon="49.1687060"><time>2021-09-11T18:10:34.557</time></trkpt><trkpt lat="55.8467760" lon="49.1686350"><time>2021-09-11T18:10:36.557</time></trkpt><trkpt lat="55.8467770" lon="49.1686110"><time>2021-09-11T18:10:36.557</time></trkpt><trkpt lat="55.8467780" lon="49.1685630"><time>2021-09-11T18:10:37.557</time></trkpt><trkpt lat="55.8467810" lon="49.1685160"><time>2021-09-11T18:10:38.557</time></trkpt><trkpt lat="55.8467860" lon="49.1684710"><time>2021-09-11T18:10:39.557</time></trkpt><trkpt lat="55.8467930" lon="49.1684280"><time>2021-09-11T18:10:40.557</time></trkpt><trkpt lat="55.8468000" lon="49.1683880"><time>2021-09-11T18:10:41.557</time></trkpt><trkpt lat="55.8468080" lon="49.1683500"><time>2021-09-11T18:10:42.557</time></trkpt><trkpt lat="55.8468150" lon="49.1683100"><time>2021-09-11T18:10:43.557</time></trkpt><trkpt lat="55.8468210" lon="49.1682700"><time>2021-09-11T18:10:44.557</time></trkpt><trkpt lat="55.8468270" lon="49.1682290"><time>2021-09-11T18:10:45.557</time></trkpt><trkpt lat="55.8468310" lon="49.1681860"><time>2021-09-11T18:10:46.557</time></trkpt><trkpt lat="55.8468360" lon="49.1681410"><time>2021-09-11T18:10:47.557</time></trkpt><trkpt lat="55.8468430" lon="49.1680980"><time>2021-09-11T18:10:48.557</time></trkpt><trkpt lat="55.8468500" lon="49.1680560"><time>2021-09-11T18:10:49.557</time></trkpt><trkpt lat="55.8468570" lon="49.1680150"><time>2021-09-11T18:10:50.557</time></trkpt><trkpt lat="55.8468620" lon="49.1679730"><time>2021-09-11T18:10:51.557</time></trkpt><trkpt lat="55.8468690" lon="49.1679100"><time>2021-09-11T18:10:53.557</time></trkpt><trkpt lat="55.8468700" lon="49.1678890"><time>2021-09-11T18:10:53.557</time></trkpt><trkpt lat="55.8468720" lon="49.1678470"><time>2021-09-11T18:10:54.557</time></trkpt><trkpt lat="55.8468740" lon="49.1678060"><time>2021-09-11T18:10:55.557</time></trkpt><trkpt lat="55.8468760" lon="49.1677660"><time>2021-09-11T18:10:56.557</time></trkpt><trkpt lat="55.8468780" lon="49.1677260"><time>2021-09-11T18:10:57.557</time></trkpt><trkpt lat="55.8468820" lon="49.1676850"><time>2021-09-11T18:10:58.557</time></trkpt><trkpt lat="55.8468860" lon="49.1676440"><time>2021-09-11T18:10:59.557</time></trkpt><trkpt lat="55.8468910" lon="49.1676060"><time>2021-09-11T18:11:00.557</time></trkpt><trkpt lat="55.8468940" lon="49.1675670"><time>2021-09-11T18:11:01.557</time></trkpt><trkpt lat="55.8468970" lon="49.1675280"><time>2021-09-11T18:11:02.557</time></trkpt><trkpt lat="55.8469000" lon="49.1674700"><time>2021-09-11T18:11:04.557</time></trkpt><trkpt lat="55.8469010" lon="49.1674500"><time>2021-09-11T18:11:04.557</time></trkpt><trkpt lat="55.8469010" lon="49.1674110"><time>2021-09-11T18:11:05.557</time></trkpt><trkpt lat="55.8469020" lon="49.1673690"><time>2021-09-11T18:11:06.557</time></trkpt><trkpt lat="55.8469040" lon="49.1673290"><time>2021-09-11T18:11:07.557</time></trkpt><trkpt lat="55.8469070" lon="49.1672890"><time>2021-09-11T18:11:08.557</time></trkpt><trkpt lat="55.8469130" lon="49.1672300"><time>2021-09-11T18:11:10.557</time></trkpt><trkpt lat="55.8469150" lon="49.1672110"><time>2021-09-11T18:11:10.557</time></trkpt><trkpt lat="55.8469210" lon="49.1671720"><time>2021-09-11T18:11:11.557</time></trkpt><trkpt lat="55.8469270" lon="49.1671350"><time>2021-09-11T18:11:12.557</time></trkpt><trkpt lat="55.8469340" lon="49.1670990"><time>2021-09-11T18:11:13.557</time></trkpt><trkpt lat="55.8469390" lon="49.1670590"><time>2021-09-11T18:11:14.557</time></trkpt><trkpt lat="55.8469430" lon="49.1670160"><time>2021-09-11T18:11:15.557</time></trkpt><trkpt lat="55.8469460" lon="49.1669700"><time>2021-09-11T18:11:16.557</time></trkpt><trkpt lat="55.8469480" lon="49.1669240"><time>2021-09-11T18:11:17.557</time></trkpt><trkpt lat="55.8469490" lon="49.1668770"><time>2021-09-11T18:11:18.557</time></trkpt><trkpt lat="55.8469460" lon="49.1668330"><time>2021-09-11T18:11:19.557</time></trkpt><trkpt lat="55.8469460" lon="49.1667900"><time>2021-09-11T18:11:20.557</time></trkpt><trkpt lat="55.8469440" lon="49.1667480"><time>2021-09-11T18:11:21.557</time></trkpt><trkpt lat="55.8469430" lon="49.1667070"><time>2021-09-11T18:11:22.557</time></trkpt><trkpt lat="55.8469440" lon="49.1666670"><time>2021-09-11T18:11:23.557</time></trkpt><trkpt lat="55.8469460" lon="49.1666280"><time>2021-09-11T18:11:24.557</time></trkpt><trkpt lat="55.8469460" lon="49.1665870"><time>2021-09-11T18:11:25.557</time></trkpt><trkpt lat="55.8469470" lon="49.1665440"><time>2021-09-11T18:11:26.557</time></trkpt><trkpt lat="55.8469470" lon="49.1665020"><time>2021-09-11T18:11:27.557</time></trkpt><trkpt lat="55.8469500" lon="49.1664610"><time>2021-09-11T18:11:28.557</time></trkpt><trkpt lat="55.8469530" lon="49.1664180"><time>2021-09-11T18:11:29.557</time></trkpt><trkpt lat="55.8469570" lon="49.1663750"><time>2021-09-11T18:11:30.557</time></trkpt><trkpt lat="55.8469620" lon="49.1663320"><time>2021-09-11T18:11:31.557</time></trkpt><trkpt lat="55.8469660" lon="49.1662890"><time>2021-09-11T18:11:32.557</time></trkpt><trkpt lat="55.8469720" lon="49.1662480"><time>2021-09-11T18:11:33.557</time></trkpt><trkpt lat="55.8469760" lon="49.1662090"><time>2021-09-11T18:11:34.557</time></trkpt><trkpt lat="55.8469820" lon="49.1661700"><time>2021-09-11T18:11:35.557</time></trkpt><trkpt lat="55.8469870" lon="49.1661290"><time>2021-09-11T18:11:36.557</time></trkpt><trkpt lat="55.8469910" lon="49.1660880"><time>2021-09-11T18:11:37.557</time></trkpt><trkpt lat="55.8469960" lon="49.1660480"><time>2021-09-11T18:11:38.557</time></trkpt><trkpt lat="55.8470010" lon="49.1660080"><time>2021-09-11T18:11:39.557</time></trkpt><trkpt lat="55.8470100" lon="49.1659500"><time>2021-09-11T18:11:41.557</time></trkpt><trkpt lat="55.8470130" lon="49.1659310"><time>2021-09-11T18:11:41.557</time></trkpt><trkpt lat="55.8470200" lon="49.1658930"><time>2021-09-11T18:11:42.557</time></trkpt><trkpt lat="55.8470290" lon="49.1658550"><time>2021-09-11T18:11:43.557</time></trkpt><trkpt lat="55.8470370" lon="49.1658170"><time>2021-09-11T18:11:44.557</time></trkpt><trkpt lat="55.8470440" lon="49.1657790"><time>2021-09-11T18:11:45.557</time></trkpt><trkpt lat="55.8470530" lon="49.1657230"><time>2021-09-11T18:11:47.557</time></trkpt><trkpt lat="55.8470550" lon="49.1657040"><time>2021-09-11T18:11:47.557</time></trkpt><trkpt lat="55.8470590" lon="49.1656650"><time>2021-09-11T18:11:48.557</time></trkpt><trkpt lat="55.8470620" lon="49.1656250"><time>2021-09-11T18:11:49.557</time></trkpt><trkpt lat="55.8470660" lon="49.1655850"><time>2021-09-11T18:11:50.557</time></trkpt><trkpt lat="55.8470710" lon="49.1655450"><time>2021-09-11T18:11:51.557</time></trkpt><trkpt lat="55.8470770" lon="49.1655060"><time>2021-09-11T18:11:52.557</time></trkpt><trkpt lat="55.8470830" lon="49.1654680"><time>2021-09-11T18:11:53.557</time></trkpt><trkpt lat="55.8470910" lon="49.1654300"><time>2021-09-11T18:11:54.557</time></trkpt><trkpt lat="55.8471030" lon="49.1653930"><time>2021-09-11T18:11:55.557</time></trkpt><trkpt lat="55.8471180" lon="49.1653580"><time>2021-09-11T18:11:56.557</time></trkpt><trkpt lat="55.8471360" lon="49.1653030"><time>2021-09-11T18:11:58.557</time></trkpt><trkpt lat="55.8471400" lon="49.1652830"><time>2021-09-11T18:11:58.557</time></trkpt><trkpt lat="55.8471460" lon="49.1652420"><time>2021-09-11T18:11:59.557</time></trkpt><trkpt lat="55.8471520" lon="49.1652020"><time>2021-09-11T18:12:00.557</time></trkpt><trkpt lat="55.8471580" lon="49.1651640"><time>2021-09-11T18:12:01.557</time></trkpt><trkpt lat="55.8471640" lon="49.1651250"><time>2021-09-11T18:12:02.557</time></trkpt><trkpt lat="55.8471680" lon="49.1650860"><time>2021-09-11T18:12:03.557</time></trkpt><trkpt lat="55.8471720" lon="49.1650470"><time>2021-09-11T18:12:04.557</time></trkpt><trkpt lat="55.8471740" lon="49.1650050"><time>2021-09-11T18:12:05.557</time></trkpt><trkpt lat="55.8471740" lon="49.1649630"><time>2021-09-11T18:12:06.557</time></trkpt><trkpt lat="55.8471740" lon="49.1649220"><time>2021-09-11T18:12:07.557</time></trkpt><trkpt lat="55.8471770" lon="49.1648840"><time>2021-09-11T18:12:08.557</time></trkpt><trkpt lat="55.8471830" lon="49.1648450"><time>2021-09-11T18:12:09.557</time></trkpt><trkpt lat="55.8471910" lon="49.1648090"><time>2021-09-11T18:12:10.557</time></trkpt><trkpt lat="55.8472000" lon="49.1647730"><time>2021-09-11T18:12:11.557</time></trkpt><trkpt lat="55.8472100" lon="49.1647380"><time>2021-09-11T18:12:12.557</time></trkpt><trkpt lat="55.8472190" lon="49.1647010"><time>2021-09-11T18:12:13.557</time></trkpt><trkpt lat="55.8472290" lon="49.1646640"><time>2021-09-11T18:12:14.557</time></trkpt><trkpt lat="55.8472380" lon="49.1646260"><time>2021-09-11T18:12:15.557</time></trkpt><trkpt lat="55.8472470" lon="49.1645870"><time>2021-09-11T18:12:16.557</time></trkpt><trkpt lat="55.8472570" lon="49.1645490"><time>2021-09-11T18:12:17.557</time></trkpt><trkpt lat="55.8472720" lon="49.1644900"><time>2021-09-11T18:12:19.557</time></trkpt><trkpt lat="55.8472760" lon="49.1644700"><time>2021-09-11T18:12:19.557</time></trkpt><trkpt lat="55.8472810" lon="49.1644280"><time>2021-09-11T18:12:20.557</time></trkpt><trkpt lat="55.8472860" lon="49.1643930"><time>2021-09-11T18:12:21.557</time></trkpt><trkpt lat="55.8473010" lon="49.1643610"><time>2021-09-11T18:12:22.557</time></trkpt><trkpt lat="55.8473090" lon="49.1643540"><time>2021-09-11T18:12:23.557</time></trkpt><trkpt lat="55.8473160" lon="49.1643470"><time>2021-09-11T18:12:25.557</time></trkpt><trkpt lat="55.8473240" lon="49.1643400"><time>2021-09-11T18:12:25.557</time></trkpt><trkpt lat="55.8473480" lon="49.1643470"><time>2021-09-11T18:12:26.557</time></trkpt><trkpt lat="55.8473600" lon="49.1643530"><time>2021-09-11T18:12:27.557</time></trkpt><trkpt lat="55.8473710" lon="49.1643590"><time>2021-09-11T18:12:28.557</time></trkpt><trkpt lat="55.8473820" lon="49.1643650"><time>2021-09-11T18:12:29.557</time></trkpt><trkpt lat="55.8473940" lon="49.1643710"><time>2021-09-11T18:12:31.557</time></trkpt><trkpt lat="55.8474050" lon="49.1643770"><time>2021-09-11T18:12:31.557</time></trkpt><trkpt lat="55.8474270" lon="49.1643770"><time>2021-09-11T18:12:32.557</time></trkpt><trkpt lat="55.8474360" lon="49.1643680"><time>2021-09-11T18:12:33.557</time></trkpt><trkpt lat="55.8474440" lon="49.1643580"><time>2021-09-11T18:12:34.557</time></trkpt><trkpt lat="55.8474530" lon="49.1643490"><time>2021-09-11T18:12:35.557</time></trkpt><trkpt lat="55.8474620" lon="49.1643400"><time>2021-09-11T18:12:36.557</time></trkpt><trkpt lat="55.8474710" lon="49.1643310"><time>2021-09-11T18:12:38.557</time></trkpt><trkpt lat="55.8474800" lon="49.1643220"><time>2021-09-11T18:12:39.557</time></trkpt><trkpt lat="55.8474890" lon="49.1643130"><time>2021-09-11T18:12:40.557</time></trkpt><trkpt lat="55.8474970" lon="49.1643030"><time>2021-09-11T18:12:41.557</time></trkpt><trkpt lat="55.8475060" lon="49.1642940"><time>2021-09-11T18:12:43.557</time></trkpt><trkpt lat="55.8475150" lon="49.1642850"><time>2021-09-11T18:12:43.557</time></trkpt><trkpt lat="55.8475190" lon="49.1642510"><time>2021-09-11T18:12:44.557</time></trkpt><trkpt lat="55.8475220" lon="49.1642130"><time>2021-09-11T18:12:45.557</time></trkpt><trkpt lat="55.8475270" lon="49.1641790"><time>2021-09-11T18:12:46.557</time></trkpt><trkpt lat="55.8475300" lon="49.1641480"><time>2021-09-11T18:12:47.557</time></trkpt><trkpt lat="55.8475340" lon="49.1641200"><time>2021-09-11T18:12:48.557</time></trkpt><trkpt lat="55.8475370" lon="49.1640970"><time>2021-09-11T18:12:49.557</time></trkpt><trkpt lat="55.8475420" lon="49.1640730"><time>2021-09-11T18:12:50.557</time></trkpt><trkpt lat="55.8475500" lon="49.1640470"><time>2021-09-11T18:12:51.557</time></trkpt><trkpt lat="55.8475590" lon="49.1640180"><time>2021-09-11T18:12:52.557</time></trkpt><trkpt lat="55.8475700" lon="49.1639900"><time>2021-09-11T18:12:53.557</time></trkpt><trkpt lat="55.8475830" lon="49.1639600"><time>2021-09-11T18:12:54.557</time></trkpt><trkpt lat="55.8475950" lon="49.1639280"><time>2021-09-11T18:12:55.557</time></trkpt><trkpt lat="55.8476050" lon="49.1638950"><time>2021-09-11T18:12:56.557</time></trkpt><trkpt lat="55.8476210" lon="49.1638470"><time>2021-09-11T18:12:58.557</time></trkpt><trkpt lat="55.8476260" lon="49.1638310"><time>2021-09-11T18:12:58.557</time></trkpt><trkpt lat="55.8476370" lon="49.1637980"><time>2021-09-11T18:12:59.557</time></trkpt><trkpt lat="55.8476450" lon="49.1637640"><time>2021-09-11T18:13:00.557</time></trkpt><trkpt lat="55.8476550" lon="49.1637320"><time>2021-09-11T18:13:01.557</time></trkpt><trkpt lat="55.8476640" lon="49.1637000"><time>2021-09-11T18:13:02.557</time></trkpt><trkpt lat="55.8476780" lon="49.1636520"><time>2021-09-11T18:13:04.557</time></trkpt><trkpt lat="55.8476820" lon="49.1636350"><time>2021-09-11T18:13:04.557</time></trkpt><trkpt lat="55.8476870" lon="49.1635990"><time>2021-09-11T18:13:05.557</time></trkpt><trkpt lat="55.8476920" lon="49.1635630"><time>2021-09-11T18:13:06.557</time></trkpt><trkpt lat="55.8476970" lon="49.1635270"><time>2021-09-11T18:13:07.557</time></trkpt><trkpt lat="55.8477060" lon="49.1634910"><time>2021-09-11T18:13:08.557</time></trkpt><trkpt lat="55.8477140" lon="49.1634510"><time>2021-09-11T18:13:09.557</time></trkpt><trkpt lat="55.8477230" lon="49.1634120"><time>2021-09-11T18:13:10.557</time></trkpt><trkpt lat="55.8477320" lon="49.1633730"><time>2021-09-11T18:13:11.557</time></trkpt><trkpt lat="55.8477410" lon="49.1633360"><time>2021-09-11T18:13:12.557</time></trkpt><trkpt lat="55.8477510" lon="49.1632980"><time>2021-09-11T18:13:13.557</time></trkpt><trkpt lat="55.8477580" lon="49.1632580"><time>2021-09-11T18:13:14.557</time></trkpt><trkpt lat="55.8477640" lon="49.1632170"><time>2021-09-11T18:13:15.557</time></trkpt><trkpt lat="55.8477700" lon="49.1631740"><time>2021-09-11T18:13:16.557</time></trkpt><trkpt lat="55.8477750" lon="49.1631310"><time>2021-09-11T18:13:17.557</time></trkpt><trkpt lat="55.8477820" lon="49.1630880"><time>2021-09-11T18:13:18.557</time></trkpt><trkpt lat="55.8477900" lon="49.1630440"><time>2021-09-11T18:13:19.557</time></trkpt><trkpt lat="55.8477960" lon="49.1630010"><time>2021-09-11T18:13:20.557</time></trkpt><trkpt lat="55.8478030" lon="49.1629590"><time>2021-09-11T18:13:21.557</time></trkpt><trkpt lat="55.8478110" lon="49.1629190"><time>2021-09-11T18:13:22.557</time></trkpt><trkpt lat="55.8478160" lon="49.1628800"><time>2021-09-11T18:13:23.557</time></trkpt><trkpt lat="55.8478200" lon="49.1628430"><time>2021-09-11T18:13:24.557</time></trkpt><trkpt lat="55.8478220" lon="49.1628120"><time>2021-09-11T18:13:24.557</time></trkpt><trkpt lat="55.8478180" lon="49.1627790"><time>2021-09-11T18:13:25.557</time></trkpt><trkpt lat="55.8478140" lon="49.1627710"><time>2021-09-11T18:13:26.557</time></trkpt><trkpt lat="55.8478110" lon="49.1627630"><time>2021-09-11T18:13:27.557</time></trkpt><trkpt lat="55.8478080" lon="49.1627550"><time>2021-09-11T18:13:28.557</time></trkpt><trkpt lat="55.8478040" lon="49.1627470"><time>2021-09-11T18:13:30.557</time></trkpt><trkpt lat="55.8478010" lon="49.1627390"><time>2021-09-11T18:13:30.557</time></trkpt><trkpt lat="55.8477810" lon="49.1627270"><time>2021-09-11T18:13:31.557</time></trkpt><trkpt lat="55.8477700" lon="49.1627240"><time>2021-09-11T18:13:32.557</time></trkpt><trkpt lat="55.8477590" lon="49.1627200"><time>2021-09-11T18:13:33.557</time></trkpt><trkpt lat="55.8477480" lon="49.1627170"><time>2021-09-11T18:13:34.557</time></trkpt><trkpt lat="55.8477370" lon="49.1627130"><time>2021-09-11T18:13:36.557</time></trkpt><trkpt lat="55.8477260" lon="49.1627100"><time>2021-09-11T18:13:36.557</time></trkpt><trkpt lat="55.8477040" lon="49.1627030"><time>2021-09-11T18:13:37.557</time></trkpt><trkpt lat="55.8476840" lon="49.1626910"><time>2021-09-11T18:13:38.557</time></trkpt><trkpt lat="55.8476670" lon="49.1626760"><time>2021-09-11T18:13:39.557</time></trkpt><trkpt lat="55.8476510" lon="49.1626600"><time>2021-09-11T18:13:40.557</time></trkpt><trkpt lat="55.8476390" lon="49.1626450"><time>2021-09-11T18:13:41.557</time></trkpt><trkpt lat="55.8476280" lon="49.1626320"><time>2021-09-11T18:13:42.557</time></trkpt><trkpt lat="55.8476180" lon="49.1626210"><time>2021-09-11T18:13:43.557</time></trkpt><trkpt lat="55.8476100" lon="49.1626100"><time>2021-09-11T18:13:44.557</time></trkpt><trkpt lat="55.8476010" lon="49.1625980"><time>2021-09-11T18:13:45.557</time></trkpt><trkpt lat="55.8475920" lon="49.1625850"><time>2021-09-11T18:13:46.557</time></trkpt><trkpt lat="55.8475830" lon="49.1625710"><time>2021-09-11T18:13:47.557</time></trkpt><trkpt lat="55.8475740" lon="49.1625580"><time>2021-09-11T18:13:48.557</time></trkpt><trkpt lat="55.8475650" lon="49.1625450"><time>2021-09-11T18:13:49.557</time></trkpt><trkpt lat="55.8475560" lon="49.1625350"><time>2021-09-11T18:13:50.557</time></trkpt><trkpt lat="55.8475470" lon="49.1625270"><time>2021-09-11T18:13:51.557</time></trkpt><trkpt lat="55.8475360" lon="49.1625210"><time>2021-09-11T18:13:52.557</time></trkpt><trkpt lat="55.8475250" lon="49.1625180"><time>2021-09-11T18:13:53.557</time></trkpt><trkpt lat="55.8475130" lon="49.1625170"><time>2021-09-11T18:13:54.557</time></trkpt><trkpt lat="55.8474990" lon="49.1625180"><time>2021-09-11T18:13:55.557</time></trkpt><trkpt lat="55.8474840" lon="49.1625180"><time>2021-09-11T18:13:56.557</time></trkpt><trkpt lat="55.8474670" lon="49.1625170"><time>2021-09-11T18:13:57.557</time></trkpt><trkpt lat="55.8474500" lon="49.1625150"><time>2021-09-11T18:13:58.557</time></trkpt><trkpt lat="55.8474320" lon="49.1625130"><time>2021-09-11T18:13:59.557</time></trkpt><trkpt lat="55.8474130" lon="49.1625090"><time>2021-09-11T18:14:00.557</time></trkpt><trkpt lat="55.8473940" lon="49.1625050"><time>2021-09-11T18:14:01.557</time></trkpt><trkpt lat="55.8473760" lon="49.1625000"><time>2021-09-11T18:14:02.557</time></trkpt><trkpt lat="55.8473580" lon="49.1624920"><time>2021-09-11T18:14:03.557</time></trkpt><trkpt lat="55.8473380" lon="49.1624880"><time>2021-09-11T18:14:04.557</time></trkpt><trkpt lat="55.8473180" lon="49.1624820"><time>2021-09-11T18:14:05.557</time></trkpt><trkpt lat="55.8472960" lon="49.1624790"><time>2021-09-11T18:14:06.557</time></trkpt><trkpt lat="55.8472720" lon="49.1624790"><time>2021-09-11T18:14:07.557</time></trkpt><trkpt lat="55.8472500" lon="49.1624750"><time>2021-09-11T18:14:08.557</time></trkpt><trkpt lat="55.8472130" lon="49.1624780"><time>2021-09-11T18:14:10.557</time></trkpt><trkpt lat="55.8472010" lon="49.1624790"><time>2021-09-11T18:14:10.557</time></trkpt><trkpt lat="55.8471800" lon="49.1624810"><time>2021-09-11T18:14:11.557</time></trkpt><trkpt lat="55.8471590" lon="49.1624820"><time>2021-09-11T18:14:12.557</time></trkpt><trkpt lat="55.8471350" lon="49.1624750"><time>2021-09-11T18:14:14.557</time></trkpt><trkpt lat="55.8471270" lon="49.1624720"><time>2021-09-11T18:14:14.557</time></trkpt><trkpt lat="55.8471030" lon="49.1624550"><time>2021-09-11T18:14:15.557</time></trkpt><trkpt lat="55.8470920" lon="49.1624460"><time>2021-09-11T18:14:16.557</time></trkpt><trkpt lat="55.8470810" lon="49.1624370"><time>2021-09-11T18:14:17.557</time></trkpt><trkpt lat="55.8470700" lon="49.1624290"><time>2021-09-11T18:14:18.557</time></trkpt><trkpt lat="55.8470590" lon="49.1624200"><time>2021-09-11T18:14:19.557</time></trkpt><trkpt lat="55.8470480" lon="49.1624110"><time>2021-09-11T18:14:20.557</time></trkpt><trkpt lat="55.8470370" lon="49.1624020"><time>2021-09-11T18:14:21.557</time></trkpt><trkpt lat="55.8470260" lon="49.1623930"><time>2021-09-11T18:14:22.557</time></trkpt><trkpt lat="55.8470150" lon="49.1623840"><time>2021-09-11T18:14:23.557</time></trkpt><trkpt lat="55.8470040" lon="49.1623750"><time>2021-09-11T18:14:24.557</time></trkpt><trkpt lat="55.8469930" lon="49.1623660"><time>2021-09-11T18:14:25.557</time></trkpt><trkpt lat="55.8469830" lon="49.1623580"><time>2021-09-11T18:14:26.557</time></trkpt><trkpt lat="55.8469720" lon="49.1623490"><time>2021-09-11T18:14:27.557</time></trkpt><trkpt lat="55.8469610" lon="49.1623400"><time>2021-09-11T18:14:28.557</time></trkpt><trkpt lat="55.8469500" lon="49.1623310"><time>2021-09-11T18:14:29.557</time></trkpt><trkpt lat="55.8469390" lon="49.1623220"><time>2021-09-11T18:14:30.557</time></trkpt><trkpt lat="55.8469280" lon="49.1623130"><time>2021-09-11T18:14:31.557</time></trkpt><trkpt lat="55.8469170" lon="49.1623040"><time>2021-09-11T18:14:32.557</time></trkpt><trkpt lat="55.8469060" lon="49.1622950"><time>2021-09-11T18:14:33.557</time></trkpt><trkpt lat="55.8468950" lon="49.1622870"><time>2021-09-11T18:14:34.557</time></trkpt><trkpt lat="55.8468840" lon="49.1622780"><time>2021-09-11T18:14:35.557</time></trkpt><trkpt lat="55.8468730" lon="49.1622690"><time>2021-09-11T18:14:37.557</time></trkpt><trkpt lat="55.8468620" lon="49.1622600"><time>2021-09-11T18:14:37.557</time></trkpt><trkpt lat="55.8468390" lon="49.1622490"><time>2021-09-11T18:14:38.557</time></trkpt><trkpt lat="55.8468270" lon="49.1622430"><time>2021-09-11T18:14:39.557</time></trkpt><trkpt lat="55.8468150" lon="49.1622360"><time>2021-09-11T18:14:40.557</time></trkpt><trkpt lat="55.8468030" lon="49.1622300"><time>2021-09-11T18:14:41.557</time></trkpt><trkpt lat="55.8467910" lon="49.1622230"><time>2021-09-11T18:14:42.557</time></trkpt><trkpt lat="55.8467780" lon="49.1622160"><time>2021-09-11T18:14:43.557</time></trkpt><trkpt lat="55.8467660" lon="49.1622100"><time>2021-09-11T18:14:44.557</time></trkpt><trkpt lat="55.8467540" lon="49.1622030"><time>2021-09-11T18:14:45.557</time></trkpt><trkpt lat="55.8467420" lon="49.1621970"><time>2021-09-11T18:14:47.557</time></trkpt><trkpt lat="55.8467300" lon="49.1621900"><time>2021-09-11T18:14:47.557</time></trkpt><trkpt lat="55.8467150" lon="49.1621840"><time>2021-09-11T18:14:48.557</time></trkpt><trkpt lat="55.8466980" lon="49.1621810"><time>2021-09-11T18:14:49.557</time></trkpt><trkpt lat="55.8466780" lon="49.1621750"><time>2021-09-11T18:14:50.557</time></trkpt><trkpt lat="55.8466580" lon="49.1621670"><time>2021-09-11T18:14:51.557</time></trkpt><trkpt lat="55.8466300" lon="49.1621510"><time>2021-09-11T18:14:53.557</time></trkpt><trkpt lat="55.8466200" lon="49.1621450"><time>2021-09-11T18:14:53.557</time></trkpt><trkpt lat="55.8466000" lon="49.1621290"><time>2021-09-11T18:14:54.557</time></trkpt><trkpt lat="55.8465800" lon="49.1621140"><time>2021-09-11T18:14:55.557</time></trkpt><trkpt lat="55.8465620" lon="49.1621010"><time>2021-09-11T18:14:56.557</time></trkpt><trkpt lat="55.8465320" lon="49.1620890"><time>2021-09-11T18:14:58.557</time></trkpt><trkpt lat="55.8465220" lon="49.1620850"><time>2021-09-11T18:14:58.557</time></trkpt><trkpt lat="55.8465030" lon="49.1620780"><time>2021-09-11T18:14:59.557</time></trkpt><trkpt lat="55.8464750" lon="49.1620730"><time>2021-09-11T18:15:00.557</time></trkpt><trkpt lat="55.8464640" lon="49.1620740"><time>2021-09-11T18:15:01.557</time></trkpt><trkpt lat="55.8464520" lon="49.1620740"><time>2021-09-11T18:15:02.557</time></trkpt><trkpt lat="55.8464410" lon="49.1620750"><time>2021-09-11T18:15:04.557</time></trkpt><trkpt lat="55.8464300" lon="49.1620760"><time>2021-09-11T18:15:04.557</time></trkpt><trkpt lat="55.8464200" lon="49.1620800"><time>2021-09-11T18:15:05.557</time></trkpt><trkpt lat="55.8464100" lon="49.1620850"><time>2021-09-11T18:15:06.557</time></trkpt><trkpt lat="55.8464020" lon="49.1620920"><time>2021-09-11T18:15:07.557</time></trkpt><trkpt lat="55.8463950" lon="49.1620990"><time>2021-09-11T18:15:08.557</time></trkpt><trkpt lat="55.8463870" lon="49.1621070"><time>2021-09-11T18:15:09.557</time></trkpt><trkpt lat="55.8463780" lon="49.1621100"><time>2021-09-11T18:15:10.557</time></trkpt><trkpt lat="55.8463680" lon="49.1621060"><time>2021-09-11T18:15:11.557</time></trkpt><trkpt lat="55.8463600" lon="49.1621000"><time>2021-09-11T18:15:12.557</time></trkpt><trkpt lat="55.8463540" lon="49.1620960"><time>2021-09-11T18:15:13.557</time></trkpt><trkpt lat="55.8463440" lon="49.1620840"><time>2021-09-11T18:15:16.557</time></trkpt><trkpt lat="55.8463470" lon="49.1620860"><time>2021-09-11T18:15:19.557</time></trkpt><trkpt lat="55.8463490" lon="49.1620870"><time>2021-09-11T18:15:22.557</time></trkpt><trkpt lat="55.8463490" lon="49.1620900"><time>2021-09-11T18:15:23.557</time></trkpt><trkpt lat="55.8463500" lon="49.1620950"><time>2021-09-11T18:15:24.557</time></trkpt><trkpt lat="55.8463530" lon="49.1621010"><time>2021-09-11T18:15:25.557</time></trkpt><trkpt lat="55.8463600" lon="49.1621030"><time>2021-09-11T18:15:26.557</time></trkpt><trkpt lat="55.8463690" lon="49.1620990"><time>2021-09-11T18:15:27.557</time></trkpt><trkpt lat="55.8463790" lon="49.1620920"><time>2021-09-11T18:15:28.557</time></trkpt><trkpt lat="55.8463880" lon="49.1620810"><time>2021-09-11T18:15:29.557</time></trkpt><trkpt lat="55.8463980" lon="49.1620690"><time>2021-09-11T18:15:30.557</time></trkpt><trkpt lat="55.8464070" lon="49.1620560"><time>2021-09-11T18:15:31.557</time></trkpt><trkpt lat="55.8464180" lon="49.1620440"><time>2021-09-11T18:15:32.557</time></trkpt><trkpt lat="55.8464300" lon="49.1620350"><time>2021-09-11T18:15:33.557</time></trkpt><trkpt lat="55.8464440" lon="49.1620320"><time>2021-09-11T18:15:34.557</time></trkpt><trkpt lat="55.8464600" lon="49.1620330"><time>2021-09-11T18:15:35.557</time></trkpt><trkpt lat="55.8464760" lon="49.1620400"><time>2021-09-11T18:15:36.557</time></trkpt><trkpt lat="55.8464940" lon="49.1620520"><time>2021-09-11T18:15:37.557</time></trkpt><trkpt lat="55.8465130" lon="49.1620680"><time>2021-09-11T18:15:38.557</time></trkpt><trkpt lat="55.8465420" lon="49.1620960"><time>2021-09-11T18:15:40.557</time></trkpt><trkpt lat="55.8465510" lon="49.1621050"><time>2021-09-11T18:15:40.557</time></trkpt><trkpt lat="55.8465700" lon="49.1621280"><time>2021-09-11T18:15:41.557</time></trkpt><trkpt lat="55.8465900" lon="49.1621490"><time>2021-09-11T18:15:42.557</time></trkpt><trkpt lat="55.8466070" lon="49.1621670"><time>2021-09-11T18:15:43.557</time></trkpt><trkpt lat="55.8466250" lon="49.1621830"><time>2021-09-11T18:15:44.557</time></trkpt><trkpt lat="55.8466470" lon="49.1622000"><time>2021-09-11T18:15:46.557</time></trkpt><trkpt lat="55.8466530" lon="49.1622050"><time>2021-09-11T18:15:46.557</time></trkpt><trkpt lat="55.8466750" lon="49.1622050"><time>2021-09-11T18:15:47.557</time></trkpt><trkpt lat="55.8466830" lon="49.1622030"><time>2021-09-11T18:15:48.557</time></trkpt><trkpt lat="55.8466920" lon="49.1622000"><time>2021-09-11T18:15:49.557</time></trkpt><trkpt lat="55.8467010" lon="49.1621970"><time>2021-09-11T18:15:50.557</time></trkpt><trkpt lat="55.8467090" lon="49.1621950"><time>2021-09-11T18:15:52.557</time></trkpt><trkpt lat="55.8467180" lon="49.1621920"><time>2021-09-11T18:15:52.557</time></trkpt><trkpt lat="55.8467320" lon="49.1621970"><time>2021-09-11T18:15:53.557</time></trkpt><trkpt lat="55.8467480" lon="49.1622040"><time>2021-09-11T18:15:54.557</time></trkpt><trkpt lat="55.8467660" lon="49.1622130"><time>2021-09-11T18:15:55.557</time></trkpt><trkpt lat="55.8467850" lon="49.1622230"><time>2021-09-11T18:15:56.557</time></trkpt><trkpt lat="55.8468030" lon="49.1622370"><time>2021-09-11T18:15:57.557</time></trkpt><trkpt lat="55.8468300" lon="49.1622520"><time>2021-09-11T18:15:58.557</time></trkpt><trkpt lat="55.8468420" lon="49.1622540"><time>2021-09-11T18:15:59.557</time></trkpt><trkpt lat="55.8468550" lon="49.1622570"><time>2021-09-11T18:16:00.557</time></trkpt><trkpt lat="55.8468670" lon="49.1622590"><time>2021-09-11T18:16:02.557</time></trkpt><trkpt lat="55.8468790" lon="49.1622620"><time>2021-09-11T18:16:02.557</time></trkpt><trkpt lat="55.8468950" lon="49.1622670"><time>2021-09-11T18:16:03.557</time></trkpt><trkpt lat="55.8469100" lon="49.1622740"><time>2021-09-11T18:16:04.557</time></trkpt><trkpt lat="55.8469240" lon="49.1622820"><time>2021-09-11T18:16:05.557</time></trkpt><trkpt lat="55.8469390" lon="49.1622910"><time>2021-09-11T18:16:06.557</time></trkpt><trkpt lat="55.8469550" lon="49.1623010"><time>2021-09-11T18:16:07.557</time></trkpt><trkpt lat="55.8469700" lon="49.1623100"><time>2021-09-11T18:16:08.557</time></trkpt><trkpt lat="55.8469850" lon="49.1623200"><time>2021-09-11T18:16:09.557</time></trkpt><trkpt lat="55.8470000" lon="49.1623280"><time>2021-09-11T18:16:10.557</time></trkpt><trkpt lat="55.8470140" lon="49.1623380"><time>2021-09-11T18:16:11.557</time></trkpt><trkpt lat="55.8470260" lon="49.1623520"><time>2021-09-11T18:16:12.557</time></trkpt><trkpt lat="55.8470360" lon="49.1623670"><time>2021-09-11T18:16:13.557</time></trkpt><trkpt lat="55.8470450" lon="49.1623830"><time>2021-09-11T18:16:14.557</time></trkpt><trkpt lat="55.8470570" lon="49.1623990"><time>2021-09-11T18:16:15.557</time></trkpt><trkpt lat="55.8470700" lon="49.1624150"><time>2021-09-11T18:16:16.557</time></trkpt><trkpt lat="55.8470860" lon="49.1624290"><time>2021-09-11T18:16:17.557</time></trkpt><trkpt lat="55.8471020" lon="49.1624420"><time>2021-09-11T18:16:18.557</time></trkpt><trkpt lat="55.8471180" lon="49.1624490"><time>2021-09-11T18:16:19.557</time></trkpt><trkpt lat="55.8471320" lon="49.1624520"><time>2021-09-11T18:16:20.557</time></trkpt><trkpt lat="55.8471460" lon="49.1624530"><time>2021-09-11T18:16:21.557</time></trkpt><trkpt lat="55.8471610" lon="49.1624530"><time>2021-09-11T18:16:22.557</time></trkpt><trkpt lat="55.8471780" lon="49.1624530"><time>2021-09-11T18:16:23.557</time></trkpt><trkpt lat="55.8471960" lon="49.1624530"><time>2021-09-11T18:16:24.557</time></trkpt><trkpt lat="55.8472150" lon="49.1624520"><time>2021-09-11T18:16:25.557</time></trkpt><trkpt lat="55.8472360" lon="49.1624510"><time>2021-09-11T18:16:26.557</time></trkpt><trkpt lat="55.8472560" lon="49.1624530"><time>2021-09-11T18:16:27.557</time></trkpt><trkpt lat="55.8472870" lon="49.1624580"><time>2021-09-11T18:16:29.557</time></trkpt><trkpt lat="55.8472970" lon="49.1624610"><time>2021-09-11T18:16:29.557</time></trkpt><trkpt lat="55.8473180" lon="49.1624660"><time>2021-09-11T18:16:30.557</time></trkpt><trkpt lat="55.8473390" lon="49.1624700"><time>2021-09-11T18:16:31.557</time></trkpt><trkpt lat="55.8473610" lon="49.1624730"><time>2021-09-11T18:16:32.557</time></trkpt><trkpt lat="55.8473830" lon="49.1624750"><time>2021-09-11T18:16:33.557</time></trkpt><trkpt lat="55.8474120" lon="49.1624780"><time>2021-09-11T18:16:35.557</time></trkpt><trkpt lat="55.8474210" lon="49.1624790"><time>2021-09-11T18:16:35.557</time></trkpt><trkpt lat="55.8474410" lon="49.1624800"><time>2021-09-11T18:16:36.557</time></trkpt><trkpt lat="55.8474610" lon="49.1624820"><time>2021-09-11T18:16:37.557</time></trkpt><trkpt lat="55.8474820" lon="49.1624820"><time>2021-09-11T18:16:38.557</time></trkpt><trkpt lat="55.8475030" lon="49.1624820"><time>2021-09-11T18:16:39.557</time></trkpt><trkpt lat="55.8475220" lon="49.1624800"><time>2021-09-11T18:16:40.557</time></trkpt><trkpt lat="55.8475410" lon="49.1624780"><time>2021-09-11T18:16:41.557</time></trkpt><trkpt lat="55.8475600" lon="49.1624790"><time>2021-09-11T18:16:42.557</time></trkpt><trkpt lat="55.8475780" lon="49.1624840"><time>2021-09-11T18:16:43.557</time></trkpt><trkpt lat="55.8476040" lon="49.1624880"><time>2021-09-11T18:16:45.557</time></trkpt><trkpt lat="55.8476120" lon="49.1624870"><time>2021-09-11T18:16:45.557</time></trkpt><trkpt lat="55.8476260" lon="49.1624730"><time>2021-09-11T18:16:46.557</time></trkpt><trkpt lat="55.8476400" lon="49.1624520"><time>2021-09-11T18:16:47.557</time></trkpt><trkpt lat="55.8476530" lon="49.1624270"><time>2021-09-11T18:16:48.557</time></trkpt><trkpt lat="55.8476670" lon="49.1624000"><time>2021-09-11T18:16:49.557</time></trkpt><trkpt lat="55.8476790" lon="49.1623700"><time>2021-09-11T18:16:50.557</time></trkpt><trkpt lat="55.8476910" lon="49.1623380"><time>2021-09-11T18:16:51.557</time></trkpt><trkpt lat="55.8477020" lon="49.1623050"><time>2021-09-11T18:16:52.557</time></trkpt><trkpt lat="55.8477120" lon="49.1622710"><time>2021-09-11T18:16:53.557</time></trkpt><trkpt lat="55.8477200" lon="49.1622340"><time>2021-09-11T18:16:54.557</time></trkpt><trkpt lat="55.8477290" lon="49.1621950"><time>2021-09-11T18:16:55.557</time></trkpt><trkpt lat="55.8477350" lon="49.1621580"><time>2021-09-11T18:16:56.557</time></trkpt><trkpt lat="55.8477420" lon="49.1621210"><time>2021-09-11T18:16:57.557</time></trkpt><trkpt lat="55.8477480" lon="49.1620810"><time>2021-09-11T18:16:58.557</time></trkpt><trkpt lat="55.8477560" lon="49.1620420"><time>2021-09-11T18:16:59.557</time></trkpt><trkpt lat="55.8477660" lon="49.1620040"><time>2021-09-11T18:17:00.557</time></trkpt><trkpt lat="55.8477760" lon="49.1619670"><time>2021-09-11T18:17:01.557</time></trkpt><trkpt lat="55.8477860" lon="49.1619290"><time>2021-09-11T18:17:02.557</time></trkpt><trkpt lat="55.8477970" lon="49.1618920"><time>2021-09-11T18:17:03.557</time></trkpt><trkpt lat="55.8478110" lon="49.1618530"><time>2021-09-11T18:17:04.557</time></trkpt><trkpt lat="55.8478230" lon="49.1618110"><time>2021-09-11T18:17:05.557</time></trkpt><trkpt lat="55.8478300" lon="49.1617730"><time>2021-09-11T18:17:06.557</time></trkpt><trkpt lat="55.8478340" lon="49.1617330"><time>2021-09-11T18:17:07.557</time></trkpt><trkpt lat="55.8478350" lon="49.1616930"><time>2021-09-11T18:17:08.557</time></trkpt><trkpt lat="55.8478350" lon="49.1616490"><time>2021-09-11T18:17:09.557</time></trkpt><trkpt lat="55.8478340" lon="49.1616080"><time>2021-09-11T18:17:10.557</time></trkpt><trkpt lat="55.8478330" lon="49.1615650"><time>2021-09-11T18:17:11.557</time></trkpt><trkpt lat="55.8478330" lon="49.1615040"><time>2021-09-11T18:17:13.557</time></trkpt><trkpt lat="55.8478330" lon="49.1614840"><time>2021-09-11T18:17:13.557</time></trkpt><trkpt lat="55.8478330" lon="49.1614430"><time>2021-09-11T18:17:14.557</time></trkpt><trkpt lat="55.8478350" lon="49.1614040"><time>2021-09-11T18:17:15.557</time></trkpt><trkpt lat="55.8478440" lon="49.1613430"><time>2021-09-11T18:17:17.557</time></trkpt><trkpt lat="55.8478470" lon="49.1613240"><time>2021-09-11T18:17:17.557</time></trkpt><trkpt lat="55.8478570" lon="49.1612910"><time>2021-09-11T18:17:18.557</time></trkpt><trkpt lat="55.8478720" lon="49.1612660"><time>2021-09-11T18:17:19.557</time></trkpt><trkpt lat="55.8478880" lon="49.1612450"><time>2021-09-11T18:17:20.557</time></trkpt><trkpt lat="55.8479040" lon="49.1612270"><time>2021-09-11T18:17:21.557</time></trkpt><trkpt lat="55.8479290" lon="49.1612010"><time>2021-09-11T18:17:23.557</time></trkpt><trkpt lat="55.8479370" lon="49.1611910"><time>2021-09-11T18:17:23.557</time></trkpt><trkpt lat="55.8479510" lon="49.1611700"><time>2021-09-11T18:17:24.557</time></trkpt><trkpt lat="55.8479630" lon="49.1611450"><time>2021-09-11T18:17:25.557</time></trkpt><trkpt lat="55.8479740" lon="49.1611190"><time>2021-09-11T18:17:26.557</time></trkpt><trkpt lat="55.8479840" lon="49.1610890"><time>2021-09-11T18:17:27.557</time></trkpt><trkpt lat="55.8479930" lon="49.1610550"><time>2021-09-11T18:17:28.557</time></trkpt><trkpt lat="55.8480040" lon="49.1610190"><time>2021-09-11T18:17:29.557</time></trkpt><trkpt lat="55.8480150" lon="49.1609820"><time>2021-09-11T18:17:30.557</time></trkpt><trkpt lat="55.8480260" lon="49.1609440"><time>2021-09-11T18:17:31.557</time></trkpt><trkpt lat="55.8480360" lon="49.1609060"><time>2021-09-11T18:17:32.557</time></trkpt><trkpt lat="55.8480460" lon="49.1608670"><time>2021-09-11T18:17:33.557</time></trkpt><trkpt lat="55.8480560" lon="49.1608290"><time>2021-09-11T18:17:34.557</time></trkpt><trkpt lat="55.8480670" lon="49.1607920"><time>2021-09-11T18:17:35.557</time></trkpt><trkpt lat="55.8480770" lon="49.1607560"><time>2021-09-11T18:17:36.557</time></trkpt><trkpt lat="55.8480850" lon="49.1607170"><time>2021-09-11T18:17:37.557</time></trkpt><trkpt lat="55.8481000" lon="49.1606600"><time>2021-09-11T18:17:39.557</time></trkpt><trkpt lat="55.8481050" lon="49.1606410"><time>2021-09-11T18:17:39.557</time></trkpt><trkpt lat="55.8481170" lon="49.1606080"><time>2021-09-11T18:17:39.557</time></trkpt><trkpt lat="55.8481290" lon="49.1605770"><time>2021-09-11T18:17:41.557</time></trkpt><trkpt lat="55.8481410" lon="49.1605490"><time>2021-09-11T18:17:42.557</time></trkpt><trkpt lat="55.8481550" lon="49.1605120"><time>2021-09-11T18:17:42.557</time></trkpt><trkpt lat="55.8481660" lon="49.1604770"><time>2021-09-11T18:17:43.557</time></trkpt><trkpt lat="55.8481770" lon="49.1604400"><time>2021-09-11T18:17:44.557</time></trkpt><trkpt lat="55.8481860" lon="49.1604040"><time>2021-09-11T18:17:45.557</time></trkpt><trkpt lat="55.8481960" lon="49.1603680"><time>2021-09-11T18:17:46.557</time></trkpt><trkpt lat="55.8482030" lon="49.1603310"><time>2021-09-11T18:17:47.557</time></trkpt><trkpt lat="55.8482080" lon="49.1602940"><time>2021-09-11T18:17:48.557</time></trkpt><trkpt lat="55.8482140" lon="49.1602590"><time>2021-09-11T18:17:49.557</time></trkpt><trkpt lat="55.8482240" lon="49.1602020"><time>2021-09-11T18:17:51.557</time></trkpt><trkpt lat="55.8482270" lon="49.1601830"><time>2021-09-11T18:17:51.557</time></trkpt><trkpt lat="55.8482340" lon="49.1601460"><time>2021-09-11T18:17:52.557</time></trkpt><trkpt lat="55.8482440" lon="49.1600950"><time>2021-09-11T18:17:54.557</time></trkpt><trkpt lat="55.8482470" lon="49.1600780"><time>2021-09-11T18:17:54.557</time></trkpt><trkpt lat="55.8482550" lon="49.1600450"><time>2021-09-11T18:17:55.557</time></trkpt><trkpt lat="55.8482630" lon="49.1600160"><time>2021-09-11T18:17:56.557</time></trkpt><trkpt lat="55.8482700" lon="49.1599880"><time>2021-09-11T18:17:57.557</time></trkpt><trkpt lat="55.8482780" lon="49.1599610"><time>2021-09-11T18:17:58.557</time></trkpt><trkpt lat="55.8482850" lon="49.1599330"><time>2021-09-11T18:17:59.557</time></trkpt><trkpt lat="55.8482920" lon="49.1598970"><time>2021-09-11T18:18:00.557</time></trkpt><trkpt lat="55.8483000" lon="49.1598480"><time>2021-09-11T18:18:02.557</time></trkpt><trkpt lat="55.8483020" lon="49.1598310"><time>2021-09-11T18:18:02.557</time></trkpt><trkpt lat="55.8483100" lon="49.1597940"><time>2021-09-11T18:18:03.557</time></trkpt><trkpt lat="55.8483180" lon="49.1597620"><time>2021-09-11T18:18:04.557</time></trkpt><trkpt lat="55.8483270" lon="49.1597270"><time>2021-09-11T18:18:05.557</time></trkpt><trkpt lat="55.8483380" lon="49.1596900"><time>2021-09-11T18:18:06.557</time></trkpt><trkpt lat="55.8483490" lon="49.1596510"><time>2021-09-11T18:18:07.557</time></trkpt><trkpt lat="55.8483620" lon="49.1596100"><time>2021-09-11T18:18:08.557</time></trkpt><trkpt lat="55.8483720" lon="49.1595710"><time>2021-09-11T18:18:09.557</time></trkpt><trkpt lat="55.8483780" lon="49.1595340"><time>2021-09-11T18:18:10.557</time></trkpt><trkpt lat="55.8483820" lon="49.1594790"><time>2021-09-11T18:18:12.557</time></trkpt><trkpt lat="55.8483820" lon="49.1594600"><time>2021-09-11T18:18:12.557</time></trkpt><trkpt lat="55.8483800" lon="49.1594270"><time>2021-09-11T18:18:13.557</time></trkpt><trkpt lat="55.8483650" lon="49.1593870"><time>2021-09-11T18:18:14.557</time></trkpt><trkpt lat="55.8483580" lon="49.1593740"><time>2021-09-11T18:18:16.557</time></trkpt><trkpt lat="55.8483500" lon="49.1593620"><time>2021-09-11T18:18:16.557</time></trkpt><trkpt lat="55.8483360" lon="49.1593510"><time>2021-09-11T18:18:17.557</time></trkpt><trkpt lat="55.8483200" lon="49.1593440"><time>2021-09-11T18:18:18.557</time></trkpt><trkpt lat="55.8483010" lon="49.1593410"><time>2021-09-11T18:18:19.557</time></trkpt><trkpt lat="55.8482820" lon="49.1593380"><time>2021-09-11T18:18:20.557</time></trkpt><trkpt lat="55.8482490" lon="49.1593310"><time>2021-09-11T18:18:22.557</time></trkpt><trkpt lat="55.8482380" lon="49.1593290"><time>2021-09-11T18:18:22.557</time></trkpt><trkpt lat="55.8482120" lon="49.1593230"><time>2021-09-11T18:18:23.557</time></trkpt><trkpt lat="55.8481890" lon="49.1593160"><time>2021-09-11T18:18:24.557</time></trkpt><trkpt lat="55.8481670" lon="49.1593060"><time>2021-09-11T18:18:25.557</time></trkpt><trkpt lat="55.8481440" lon="49.1592940"><time>2021-09-11T18:18:26.557</time></trkpt><trkpt lat="55.8481210" lon="49.1592830"><time>2021-09-11T18:18:27.557</time></trkpt><trkpt lat="55.8480990" lon="49.1592730"><time>2021-09-11T18:18:28.557</time></trkpt><trkpt lat="55.8480760" lon="49.1592620"><time>2021-09-11T18:18:29.557</time></trkpt><trkpt lat="55.8480550" lon="49.1592460"><time>2021-09-11T18:18:30.557</time></trkpt><trkpt lat="55.8480320" lon="49.1592270"><time>2021-09-11T18:18:31.557</time></trkpt><trkpt lat="55.8480120" lon="49.1592070"><time>2021-09-11T18:18:32.557</time></trkpt><trkpt lat="55.8479930" lon="49.1591860"><time>2021-09-11T18:18:33.557</time></trkpt><trkpt lat="55.8479740" lon="49.1591620"><time>2021-09-11T18:18:34.557</time></trkpt><trkpt lat="55.8479560" lon="49.1591360"><time>2021-09-11T18:18:35.557</time></trkpt><trkpt lat="55.8479380" lon="49.1591080"><time>2021-09-11T18:18:36.557</time></trkpt><trkpt lat="55.8479190" lon="49.1590830"><time>2021-09-11T18:18:37.557</time></trkpt><trkpt lat="55.8478880" lon="49.1590520"><time>2021-09-11T18:18:39.557</time></trkpt><trkpt lat="55.8478770" lon="49.1590430"><time>2021-09-11T18:18:39.557</time></trkpt><trkpt lat="55.8478550" lon="49.1590250"><time>2021-09-11T18:18:40.557</time></trkpt><trkpt lat="55.8478360" lon="49.1590090"><time>2021-09-11T18:18:41.557</time></trkpt><trkpt lat="55.8478160" lon="49.1589940"><time>2021-09-11T18:18:42.557</time></trkpt><trkpt lat="55.8477960" lon="49.1589810"><time>2021-09-11T18:18:43.557</time></trkpt><trkpt lat="55.8477750" lon="49.1589670"><time>2021-09-11T18:18:45.557</time></trkpt><trkpt lat="55.8477530" lon="49.1589550"><time>2021-09-11T18:18:46.557</time></trkpt><trkpt lat="55.8477290" lon="49.1589430"><time>2021-09-11T18:18:46.557</time></trkpt><trkpt lat="55.8477050" lon="49.1589320"><time>2021-09-11T18:18:47.557</time></trkpt><trkpt lat="55.8476800" lon="49.1589220"><time>2021-09-11T18:18:48.557</time></trkpt><trkpt lat="55.8476570" lon="49.1589110"><time>2021-09-11T18:18:49.557</time></trkpt><trkpt lat="55.8476230" lon="49.1588930"><time>2021-09-11T18:18:51.557</time></trkpt><trkpt lat="55.8476110" lon="49.1588870"><time>2021-09-11T18:18:51.557</time></trkpt><trkpt lat="55.8475900" lon="49.1588760"><time>2021-09-11T18:18:52.557</time></trkpt><trkpt lat="55.8475680" lon="49.1588610"><time>2021-09-11T18:18:53.557</time></trkpt><trkpt lat="55.8475520" lon="49.1588400"><time>2021-09-11T18:18:54.557</time></trkpt><trkpt lat="55.8475440" lon="49.1587960"><time>2021-09-11T18:18:56.557</time></trkpt><trkpt lat="55.8475440" lon="49.1587780"><time>2021-09-11T18:18:56.557</time></trkpt><trkpt lat="55.8475470" lon="49.1587430"><time>2021-09-11T18:18:57.557</time></trkpt><trkpt lat="55.8475530" lon="49.1587070"><time>2021-09-11T18:18:58.557</time></trkpt><trkpt lat="55.8475620" lon="49.1586720"><time>2021-09-11T18:18:59.557</time></trkpt><trkpt lat="55.8475710" lon="49.1586320"><time>2021-09-11T18:19:00.557</time></trkpt><trkpt lat="55.8475830" lon="49.1585690"><time>2021-09-11T18:19:02.557</time></trkpt><trkpt lat="55.8475870" lon="49.1585480"><time>2021-09-11T18:19:02.557</time></trkpt><trkpt lat="55.8475940" lon="49.1585060"><time>2021-09-11T18:19:03.557</time></trkpt><trkpt lat="55.8476000" lon="49.1584650"><time>2021-09-11T18:19:04.557</time></trkpt><trkpt lat="55.8476050" lon="49.1584260"><time>2021-09-11T18:19:05.557</time></trkpt><trkpt lat="55.8476120" lon="49.1583850"><time>2021-09-11T18:19:06.557</time></trkpt><trkpt lat="55.8476200" lon="49.1583390"><time>2021-09-11T18:19:07.557</time></trkpt><trkpt lat="55.8476270" lon="49.1582910"><time>2021-09-11T18:19:08.557</time></trkpt><trkpt lat="55.8476340" lon="49.1582390"><time>2021-09-11T18:19:09.557</time></trkpt><trkpt lat="55.8476410" lon="49.1581870"><time>2021-09-11T18:19:10.557</time></trkpt><trkpt lat="55.8476500" lon="49.1581360"><time>2021-09-11T18:19:11.557</time></trkpt><trkpt lat="55.8476580" lon="49.1580850"><time>2021-09-11T18:19:12.557</time></trkpt><trkpt lat="55.8476670" lon="49.1580360"><time>2021-09-11T18:19:13.557</time></trkpt><trkpt lat="55.8476770" lon="49.1579900"><time>2021-09-11T18:19:14.557</time></trkpt><trkpt lat="55.8476860" lon="49.1579500"><time>2021-09-11T18:19:15.557</time></trkpt><trkpt lat="55.8477000" lon="49.1578880"><time>2021-09-11T18:19:17.557</time></trkpt><trkpt lat="55.8477040" lon="49.1578660"><time>2021-09-11T18:19:17.557</time></trkpt><trkpt lat="55.8477130" lon="49.1578250"><time>2021-09-11T18:19:18.557</time></trkpt><trkpt lat="55.8477210" lon="49.1577840"><time>2021-09-11T18:19:19.557</time></trkpt><trkpt lat="55.8477290" lon="49.1577460"><time>2021-09-11T18:19:20.557</time></trkpt><trkpt lat="55.8477360" lon="49.1577080"><time>2021-09-11T18:19:21.557</time></trkpt><trkpt lat="55.8477480" lon="49.1576450"><time>2021-09-11T18:19:23.557</time></trkpt><trkpt lat="55.8477510" lon="49.1576230"><time>2021-09-11T18:19:23.557</time></trkpt><trkpt lat="55.8477570" lon="49.1575810"><time>2021-09-11T18:19:24.557</time></trkpt><trkpt lat="55.8477620" lon="49.1575370"><time>2021-09-11T18:19:25.557</time></trkpt><trkpt lat="55.8477690" lon="49.1574740"><time>2021-09-11T18:19:27.557</time></trkpt><trkpt lat="55.8477710" lon="49.1574540"><time>2021-09-11T18:19:27.557</time></trkpt><trkpt lat="55.8477750" lon="49.1574160"><time>2021-09-11T18:19:28.557</time></trkpt><trkpt lat="55.8477760" lon="49.1573830"><time>2021-09-11T18:19:29.557</time></trkpt><trkpt lat="55.8477740" lon="49.1573490"><time>2021-09-11T18:19:30.557</time></trkpt><trkpt lat="55.8477650" lon="49.1573090"><time>2021-09-11T18:19:31.557</time></trkpt><trkpt lat="55.8477510" lon="49.1572540"><time>2021-09-11T18:19:33.557</time></trkpt><trkpt lat="55.8477470" lon="49.1572370"><time>2021-09-11T18:19:33.557</time></trkpt><trkpt lat="55.8477420" lon="49.1572010"><time>2021-09-11T18:19:34.557</time></trkpt><trkpt lat="55.8477390" lon="49.1571640"><time>2021-09-11T18:19:35.557</time></trkpt><trkpt lat="55.8477370" lon="49.1571270"><time>2021-09-11T18:19:36.557</time></trkpt><trkpt lat="55.8477330" lon="49.1570890"><time>2021-09-11T18:19:37.557</time></trkpt><trkpt lat="55.8477270" lon="49.1570530"><time>2021-09-11T18:19:38.557</time></trkpt><trkpt lat="55.8477210" lon="49.1570210"><time>2021-09-11T18:19:39.557</time></trkpt><trkpt lat="55.8477120" lon="49.1569920"><time>2021-09-11T18:19:40.557</time></trkpt><trkpt lat="55.8477010" lon="49.1569670"><time>2021-09-11T18:19:41.557</time></trkpt><trkpt lat="55.8476860" lon="49.1569450"><time>2021-09-11T18:19:42.557</time></trkpt><trkpt lat="55.8476710" lon="49.1569290"><time>2021-09-11T18:19:43.557</time></trkpt><trkpt lat="55.8476530" lon="49.1569180"><time>2021-09-11T18:19:44.557</time></trkpt><trkpt lat="55.8476330" lon="49.1569110"><time>2021-09-11T18:19:45.557</time></trkpt><trkpt lat="55.8476120" lon="49.1569100"><time>2021-09-11T18:19:46.557</time></trkpt><trkpt lat="55.8475910" lon="49.1569120"><time>2021-09-11T18:19:47.557</time></trkpt><trkpt lat="55.8475700" lon="49.1569130"><time>2021-09-11T18:19:48.557</time></trkpt><trkpt lat="55.8475410" lon="49.1569230"><time>2021-09-11T18:19:50.557</time></trkpt><trkpt lat="55.8475320" lon="49.1569280"><time>2021-09-11T18:19:50.557</time></trkpt><trkpt lat="55.8475160" lon="49.1569420"><time>2021-09-11T18:19:51.557</time></trkpt><trkpt lat="55.8474990" lon="49.1569600"><time>2021-09-11T18:19:52.557</time></trkpt><trkpt lat="55.8474820" lon="49.1569820"><time>2021-09-11T18:19:53.557</time></trkpt><trkpt lat="55.8474630" lon="49.1570040"><time>2021-09-11T18:19:54.557</time></trkpt><trkpt lat="55.8474440" lon="49.1570280"><time>2021-09-11T18:19:55.557</time></trkpt><trkpt lat="55.8474250" lon="49.1570540"><time>2021-09-11T18:19:56.557</time></trkpt><trkpt lat="55.8474080" lon="49.1570800"><time>2021-09-11T18:19:57.557</time></trkpt><trkpt lat="55.8473910" lon="49.1571080"><time>2021-09-11T18:19:58.557</time></trkpt><trkpt lat="55.8473710" lon="49.1571380"><time>2021-09-11T18:19:59.557</time></trkpt><trkpt lat="55.8473430" lon="49.1571770"><time>2021-09-11T18:20:01.557</time></trkpt><trkpt lat="55.8473330" lon="49.1571880"><time>2021-09-11T18:20:01.557</time></trkpt><trkpt lat="55.8473120" lon="49.1572060"><time>2021-09-11T18:20:02.557</time></trkpt><trkpt lat="55.8472900" lon="49.1572230"><time>2021-09-11T18:20:03.557</time></trkpt><trkpt lat="55.8472670" lon="49.1572370"><time>2021-09-11T18:20:04.557</time></trkpt><trkpt lat="55.8472450" lon="49.1572520"><time>2021-09-11T18:20:05.557</time></trkpt><trkpt lat="55.8472110" lon="49.1572750"><time>2021-09-11T18:20:07.557</time></trkpt><trkpt lat="55.8472000" lon="49.1572820"><time>2021-09-11T18:20:07.557</time></trkpt><trkpt lat="55.8471800" lon="49.1572970"><time>2021-09-11T18:20:08.557</time></trkpt><trkpt lat="55.8471570" lon="49.1573100"><time>2021-09-11T18:20:09.557</time></trkpt><trkpt lat="55.8471350" lon="49.1573220"><time>2021-09-11T18:20:10.557</time></trkpt><trkpt lat="55.8471160" lon="49.1573340"><time>2021-09-11T18:20:11.557</time></trkpt><trkpt lat="55.8470970" lon="49.1573470"><time>2021-09-11T18:20:12.557</time></trkpt><trkpt lat="55.8470780" lon="49.1573570"><time>2021-09-11T18:20:13.557</time></trkpt><trkpt lat="55.8470490" lon="49.1573640"><time>2021-09-11T18:20:14.557</time></trkpt><trkpt lat="55.8470370" lon="49.1573650"><time>2021-09-11T18:20:15.557</time></trkpt><trkpt lat="55.8470240" lon="49.1573660"><time>2021-09-11T18:20:16.557</time></trkpt><trkpt lat="55.8470110" lon="49.1573670"><time>2021-09-11T18:20:17.557</time></trkpt><trkpt lat="55.8469980" lon="49.1573680"><time>2021-09-11T18:20:18.557</time></trkpt><trkpt lat="55.8469860" lon="49.1573690"><time>2021-09-11T18:20:19.557</time></trkpt><trkpt lat="55.8469730" lon="49.1573700"><time>2021-09-11T18:20:20.557</time></trkpt><trkpt lat="55.8469600" lon="49.1573710"><time>2021-09-11T18:20:21.557</time></trkpt><trkpt lat="55.8469470" lon="49.1573720"><time>2021-09-11T18:20:22.557</time></trkpt><trkpt lat="55.8469350" lon="49.1573730"><time>2021-09-11T18:20:23.557</time></trkpt><trkpt lat="55.8469220" lon="49.1573740"><time>2021-09-11T18:20:24.557</time></trkpt><trkpt lat="55.8469090" lon="49.1573750"><time>2021-09-11T18:20:25.557</time></trkpt><trkpt lat="55.8468960" lon="49.1573760"><time>2021-09-11T18:20:26.557</time></trkpt><trkpt lat="55.8468840" lon="49.1573770"><time>2021-09-11T18:20:28.557</time></trkpt><trkpt lat="55.8468710" lon="49.1573780"><time>2021-09-11T18:20:28.557</time></trkpt><trkpt lat="55.8468460" lon="49.1573700"><time>2021-09-11T18:20:29.557</time></trkpt><trkpt lat="55.8468340" lon="49.1573660"><time>2021-09-11T18:20:30.557</time></trkpt><trkpt lat="55.8468230" lon="49.1573620"><time>2021-09-11T18:20:31.557</time></trkpt><trkpt lat="55.8468120" lon="49.1573590"><time>2021-09-11T18:20:32.557</time></trkpt><trkpt lat="55.8468000" lon="49.1573550"><time>2021-09-11T18:20:34.557</time></trkpt><trkpt lat="55.8467890" lon="49.1573510"><time>2021-09-11T18:20:34.557</time></trkpt><trkpt lat="55.8467630" lon="49.1573400"><time>2021-09-11T18:20:35.557</time></trkpt><trkpt lat="55.8467500" lon="49.1573360"><time>2021-09-11T18:20:36.557</time></trkpt><trkpt lat="55.8467370" lon="49.1573330"><time>2021-09-11T18:20:37.557</time></trkpt><trkpt lat="55.8467240" lon="49.1573290"><time>2021-09-11T18:20:38.557</time></trkpt><trkpt lat="55.8467110" lon="49.1573250"><time>2021-09-11T18:20:39.557</time></trkpt><trkpt lat="55.8466980" lon="49.1573210"><time>2021-09-11T18:20:40.557</time></trkpt><trkpt lat="55.8466850" lon="49.1573180"><time>2021-09-11T18:20:41.557</time></trkpt><trkpt lat="55.8466720" lon="49.1573140"><time>2021-09-11T18:20:42.557</time></trkpt><trkpt lat="55.8466580" lon="49.1573100"><time>2021-09-11T18:20:43.557</time></trkpt><trkpt lat="55.8466450" lon="49.1573060"><time>2021-09-11T18:20:44.557</time></trkpt><trkpt lat="55.8466320" lon="49.1573030"><time>2021-09-11T18:20:45.557</time></trkpt><trkpt lat="55.8466190" lon="49.1572990"><time>2021-09-11T18:20:46.557</time></trkpt><trkpt lat="55.8466060" lon="49.1572950"><time>2021-09-11T18:20:47.557</time></trkpt><trkpt lat="55.8465930" lon="49.1572910"><time>2021-09-11T18:20:48.557</time></trkpt><trkpt lat="55.8465800" lon="49.1572880"><time>2021-09-11T18:20:49.557</time></trkpt><trkpt lat="55.8465670" lon="49.1572840"><time>2021-09-11T18:20:51.557</time></trkpt><trkpt lat="55.8465540" lon="49.1572800"><time>2021-09-11T18:20:51.557</time></trkpt><trkpt lat="55.8464970" lon="49.1572710"><time>2021-09-11T18:20:53.557</time></trkpt><trkpt lat="55.8464940" lon="49.1572690"><time>2021-09-11T18:20:54.557</time></trkpt><trkpt lat="55.8464850" lon="49.1572640"><time>2021-09-11T18:20:55.557</time></trkpt><trkpt lat="55.8464740" lon="49.1572580"><time>2021-09-11T18:20:56.557</time></trkpt><trkpt lat="55.8464620" lon="49.1572530"><time>2021-09-11T18:20:57.557</time></trkpt><trkpt lat="55.8464490" lon="49.1572470"><time>2021-09-11T18:20:58.557</time></trkpt><trkpt lat="55.8464370" lon="49.1572450"><time>2021-09-11T18:20:59.557</time></trkpt><trkpt lat="55.8464270" lon="49.1572440"><time>2021-09-11T18:21:00.557</time></trkpt><trkpt lat="55.8464170" lon="49.1572440"><time>2021-09-11T18:21:01.557</time></trkpt><trkpt lat="55.8464060" lon="49.1572440"><time>2021-09-11T18:21:02.557</time></trkpt><trkpt lat="55.8463930" lon="49.1572420"><time>2021-09-11T18:21:03.557</time></trkpt><trkpt lat="55.8463780" lon="49.1572390"><time>2021-09-11T18:21:04.557</time></trkpt><trkpt lat="55.8463610" lon="49.1572370"><time>2021-09-11T18:21:05.557</time></trkpt><trkpt lat="55.8463440" lon="49.1572350"><time>2021-09-11T18:21:06.557</time></trkpt><trkpt lat="55.8463260" lon="49.1572330"><time>2021-09-11T18:21:07.557</time></trkpt><trkpt lat="55.8462970" lon="49.1572220"><time>2021-09-11T18:21:08.557</time></trkpt><trkpt lat="55.8462840" lon="49.1572150"><time>2021-09-11T18:21:09.557</time></trkpt><trkpt lat="55.8462720" lon="49.1572070"><time>2021-09-11T18:21:10.557</time></trkpt><trkpt lat="55.8462590" lon="49.1571990"><time>2021-09-11T18:21:11.557</time></trkpt><trkpt lat="55.8462460" lon="49.1571920"><time>2021-09-11T18:21:12.557</time></trkpt><trkpt lat="55.8462330" lon="49.1571840"><time>2021-09-11T18:21:13.557</time></trkpt><trkpt lat="55.8462200" lon="49.1571760"><time>2021-09-11T18:21:14.557</time></trkpt><trkpt lat="55.8462080" lon="49.1571690"><time>2021-09-11T18:21:15.557</time></trkpt><trkpt lat="55.8461950" lon="49.1571610"><time>2021-09-11T18:21:16.557</time></trkpt><trkpt lat="55.8461820" lon="49.1571530"><time>2021-09-11T18:21:17.557</time></trkpt><trkpt lat="55.8461690" lon="49.1571460"><time>2021-09-11T18:21:18.557</time></trkpt><trkpt lat="55.8461560" lon="49.1571380"><time>2021-09-11T18:21:19.557</time></trkpt><trkpt lat="55.8461430" lon="49.1571300"><time>2021-09-11T18:21:20.557</time></trkpt><trkpt lat="55.8461310" lon="49.1571230"><time>2021-09-11T18:21:21.557</time></trkpt><trkpt lat="55.8461180" lon="49.1571150"><time>2021-09-11T18:21:22.557</time></trkpt><trkpt lat="55.8461050" lon="49.1571070"><time>2021-09-11T18:21:23.557</time></trkpt><trkpt lat="55.8460920" lon="49.1571000"><time>2021-09-11T18:21:24.557</time></trkpt><trkpt lat="55.8460790" lon="49.1570920"><time>2021-09-11T18:21:25.557</time></trkpt><trkpt lat="55.8460670" lon="49.1570840"><time>2021-09-11T18:21:26.557</time></trkpt><trkpt lat="55.8460540" lon="49.1570770"><time>2021-09-11T18:21:28.557</time></trkpt><trkpt lat="55.8460410" lon="49.1570690"><time>2021-09-11T18:21:28.557</time></trkpt><trkpt lat="55.8460150" lon="49.1570530"><time>2021-09-11T18:21:29.557</time></trkpt><trkpt lat="55.8460020" lon="49.1570470"><time>2021-09-11T18:21:30.557</time></trkpt><trkpt lat="55.8459900" lon="49.1570420"><time>2021-09-11T18:21:31.557</time></trkpt><trkpt lat="55.8459770" lon="49.1570370"><time>2021-09-11T18:21:32.557</time></trkpt><trkpt lat="55.8459650" lon="49.1570310"><time>2021-09-11T18:21:34.557</time></trkpt><trkpt lat="55.8459520" lon="49.1570260"><time>2021-09-11T18:21:34.557</time></trkpt><trkpt lat="55.8459360" lon="49.1570150"><time>2021-09-11T18:21:35.557</time></trkpt><trkpt lat="55.8459200" lon="49.1570020"><time>2021-09-11T18:21:36.557</time></trkpt><trkpt lat="55.8459060" lon="49.1569910"><time>2021-09-11T18:21:37.557</time></trkpt><trkpt lat="55.8458900" lon="49.1569780"><time>2021-09-11T18:21:38.557</time></trkpt><trkpt lat="55.8458750" lon="49.1569670"><time>2021-09-11T18:21:39.557</time></trkpt><trkpt lat="55.8458590" lon="49.1569550"><time>2021-09-11T18:21:40.557</time></trkpt><trkpt lat="55.8458420" lon="49.1569450"><time>2021-09-11T18:21:41.557</time></trkpt><trkpt lat="55.8458250" lon="49.1569360"><time>2021-09-11T18:21:42.557</time></trkpt><trkpt lat="55.8457960" lon="49.1569180"><time>2021-09-11T18:21:43.557</time></trkpt><trkpt lat="55.8457840" lon="49.1569090"><time>2021-09-11T18:21:44.557</time></trkpt><trkpt lat="55.8457710" lon="49.1569000"><time>2021-09-11T18:21:45.557</time></trkpt><trkpt lat="55.8457580" lon="49.1568910"><time>2021-09-11T18:21:46.557</time></trkpt><trkpt lat="55.8457460" lon="49.1568810"><time>2021-09-11T18:21:47.557</time></trkpt><trkpt lat="55.8457330" lon="49.1568720"><time>2021-09-11T18:21:48.557</time></trkpt><trkpt lat="55.8457200" lon="49.1568630"><time>2021-09-11T18:21:49.557</time></trkpt><trkpt lat="55.8457080" lon="49.1568540"><time>2021-09-11T18:21:51.557</time></trkpt><trkpt lat="55.8456950" lon="49.1568450"><time>2021-09-11T18:21:51.557</time></trkpt><trkpt lat="55.8456730" lon="49.1568240"><time>2021-09-11T18:21:52.557</time></trkpt><trkpt lat="55.8456640" lon="49.1568150"><time>2021-09-11T18:21:53.557</time></trkpt><trkpt lat="55.8456550" lon="49.1568070"><time>2021-09-11T18:21:54.557</time></trkpt><trkpt lat="55.8456460" lon="49.1567980"><time>2021-09-11T18:21:54.557</time></trkpt><trkpt lat="55.8456270" lon="49.1567780"><time>2021-09-11T18:21:55.557</time></trkpt><trkpt lat="55.8456190" lon="49.1567690"><time>2021-09-11T18:21:56.557</time></trkpt><trkpt lat="55.8456100" lon="49.1567600"><time>2021-09-11T18:21:57.557</time></trkpt><trkpt lat="55.8456010" lon="49.1567510"><time>2021-09-11T18:21:58.557</time></trkpt><trkpt lat="55.8455930" lon="49.1567420"><time>2021-09-11T18:22:00.557</time></trkpt><trkpt lat="55.8455840" lon="49.1567330"><time>2021-09-11T18:22:00.557</time></trkpt><trkpt lat="55.8455720" lon="49.1567210"><time>2021-09-11T18:22:01.557</time></trkpt><trkpt lat="55.8455600" lon="49.1567090"><time>2021-09-11T18:22:02.557</time></trkpt><trkpt lat="55.8455490" lon="49.1566950"><time>2021-09-11T18:22:03.557</time></trkpt><trkpt lat="55.8455390" lon="49.1566830"><time>2021-09-11T18:22:04.557</time></trkpt><trkpt lat="55.8455320" lon="49.1566710"><time>2021-09-11T18:22:05.557</time></trkpt><trkpt lat="55.8455270" lon="49.1566630"><time>2021-09-11T18:22:06.557</time></trkpt><trkpt lat="55.8455230" lon="49.1566550"><time>2021-09-11T18:22:07.557</time></trkpt><trkpt lat="55.8455170" lon="49.1566430"><time>2021-09-11T18:22:08.557</time></trkpt><trkpt lat="55.8455090" lon="49.1566320"><time>2021-09-11T18:22:09.557</time></trkpt><trkpt lat="55.8455030" lon="49.1566220"><time>2021-09-11T18:22:10.557</time></trkpt><trkpt lat="55.8454940" lon="49.1566110"><time>2021-09-11T18:22:11.557</time></trkpt><trkpt lat="55.8454850" lon="49.1565980"><time>2021-09-11T18:22:12.557</time></trkpt><trkpt lat="55.8454750" lon="49.1565840"><time>2021-09-11T18:22:13.557</time></trkpt><trkpt lat="55.8454620" lon="49.1565700"><time>2021-09-11T18:22:14.557</time></trkpt><trkpt lat="55.8454500" lon="49.1565560"><time>2021-09-11T18:22:15.557</time></trkpt><trkpt lat="55.8454380" lon="49.1565440"><time>2021-09-11T18:22:16.557</time></trkpt><trkpt lat="55.8454260" lon="49.1565330"><time>2021-09-11T18:22:17.557</time></trkpt><trkpt lat="55.8454120" lon="49.1565230"><time>2021-09-11T18:22:18.557</time></trkpt><trkpt lat="55.8453980" lon="49.1565140"><time>2021-09-11T18:22:19.557</time></trkpt><trkpt lat="55.8453840" lon="49.1565090"><time>2021-09-11T18:22:20.557</time></trkpt><trkpt lat="55.8453690" lon="49.1565060"><time>2021-09-11T18:22:21.557</time></trkpt><trkpt lat="55.8453540" lon="49.1565050"><time>2021-09-11T18:22:22.557</time></trkpt><trkpt lat="55.8453390" lon="49.1565020"><time>2021-09-11T18:22:23.557</time></trkpt><trkpt lat="55.8453250" lon="49.1564990"><time>2021-09-11T18:22:24.557</time></trkpt><trkpt lat="55.8453060" lon="49.1564980"><time>2021-09-11T18:22:25.557</time></trkpt><trkpt lat="55.8452820" lon="49.1565000"><time>2021-09-11T18:22:27.557</time></trkpt><trkpt lat="55.8452740" lon="49.1565000"><time>2021-09-11T18:22:27.557</time></trkpt><trkpt lat="55.8452530" lon="49.1565040"><time>2021-09-11T18:22:28.557</time></trkpt><trkpt lat="55.8452440" lon="49.1565060"><time>2021-09-11T18:22:29.557</time></trkpt><trkpt lat="55.8452360" lon="49.1565090"><time>2021-09-11T18:22:30.557</time></trkpt><trkpt lat="55.8452280" lon="49.1565120"><time>2021-09-11T18:22:31.557</time></trkpt><trkpt lat="55.8452190" lon="49.1565140"><time>2021-09-11T18:22:33.557</time></trkpt><trkpt lat="55.8452110" lon="49.1565170"><time>2021-09-11T18:22:33.557</time></trkpt><trkpt lat="55.8451990" lon="49.1565340"><time>2021-09-11T18:22:34.557</time></trkpt><trkpt lat="55.8451880" lon="49.1565540"><time>2021-09-11T18:22:35.557</time></trkpt><trkpt lat="55.8451780" lon="49.1565780"><time>2021-09-11T18:22:36.557</time></trkpt><trkpt lat="55.8451700" lon="49.1566020"><time>2021-09-11T18:22:37.557</time></trkpt><trkpt lat="55.8451640" lon="49.1566290"><time>2021-09-11T18:22:38.557</time></trkpt><trkpt lat="55.8451580" lon="49.1566610"><time>2021-09-11T18:22:39.557</time></trkpt><trkpt lat="55.8451520" lon="49.1566940"><time>2021-09-11T18:22:40.557</time></trkpt><trkpt lat="55.8451430" lon="49.1567310"><time>2021-09-11T18:22:41.557</time></trkpt><trkpt lat="55.8451340" lon="49.1567680"><time>2021-09-11T18:22:42.557</time></trkpt><trkpt lat="55.8451180" lon="49.1568280"><time>2021-09-11T18:22:44.557</time></trkpt><trkpt lat="55.8451120" lon="49.1568480"><time>2021-09-11T18:22:44.557</time></trkpt><trkpt lat="55.8450990" lon="49.1568870"><time>2021-09-11T18:22:45.557</time></trkpt><trkpt lat="55.8450870" lon="49.1569280"><time>2021-09-11T18:22:46.557</time></trkpt><trkpt lat="55.8450750" lon="49.1569680"><time>2021-09-11T18:22:47.557</time></trkpt><trkpt lat="55.8450630" lon="49.1570050"><time>2021-09-11T18:22:48.557</time></trkpt><trkpt lat="55.8450410" lon="49.1570620"><time>2021-09-11T18:22:50.557</time></trkpt><trkpt lat="55.8450340" lon="49.1570800"><time>2021-09-11T18:22:50.557</time></trkpt><trkpt lat="55.8450210" lon="49.1571180"><time>2021-09-11T18:22:51.557</time></trkpt><trkpt lat="55.8450080" lon="49.1571540"><time>2021-09-11T18:22:52.557</time></trkpt><trkpt lat="55.8449960" lon="49.1571930"><time>2021-09-11T18:22:53.557</time></trkpt><trkpt lat="55.8449760" lon="49.1572520"><time>2021-09-11T18:22:55.557</time></trkpt><trkpt lat="55.8449690" lon="49.1572710"><time>2021-09-11T18:22:55.557</time></trkpt><trkpt lat="55.8449560" lon="49.1573110"><time>2021-09-11T18:22:56.557</time></trkpt><trkpt lat="55.8449440" lon="49.1573510"><time>2021-09-11T18:22:57.557</time></trkpt><trkpt lat="55.8449310" lon="49.1573900"><time>2021-09-11T18:22:58.557</time></trkpt><trkpt lat="55.8449180" lon="49.1574280"><time>2021-09-11T18:22:59.557</time></trkpt><trkpt lat="55.8449060" lon="49.1574700"><time>2021-09-11T18:23:00.557</time></trkpt><trkpt lat="55.8448940" lon="49.1575100"><time>2021-09-11T18:23:01.557</time></trkpt><trkpt lat="55.8448830" lon="49.1575470"><time>2021-09-11T18:23:02.557</time></trkpt><trkpt lat="55.8448720" lon="49.1575840"><time>2021-09-11T18:23:03.557</time></trkpt><trkpt lat="55.8448550" lon="49.1576410"><time>2021-09-11T18:23:05.557</time></trkpt><trkpt lat="55.8448490" lon="49.1576600"><time>2021-09-11T18:23:05.557</time></trkpt><trkpt lat="55.8448370" lon="49.1577030"><time>2021-09-11T18:23:06.557</time></trkpt><trkpt lat="55.8448270" lon="49.1577450"><time>2021-09-11T18:23:07.557</time></trkpt><trkpt lat="55.8448180" lon="49.1577860"><time>2021-09-11T18:23:08.557</time></trkpt><trkpt lat="55.8448080" lon="49.1578300"><time>2021-09-11T18:23:09.557</time></trkpt><trkpt lat="55.8447930" lon="49.1578940"><time>2021-09-11T18:23:11.557</time></trkpt><trkpt lat="55.8447880" lon="49.1579160"><time>2021-09-11T18:23:11.557</time></trkpt><trkpt lat="55.8447810" lon="49.1579590"><time>2021-09-11T18:23:12.557</time></trkpt><trkpt lat="55.8447760" lon="49.1580020"><time>2021-09-11T18:23:13.557</time></trkpt><trkpt lat="55.8447720" lon="49.1580640"><time>2021-09-11T18:23:15.557</time></trkpt><trkpt lat="55.8447700" lon="49.1580840"><time>2021-09-11T18:23:15.557</time></trkpt><trkpt lat="55.8447670" lon="49.1581270"><time>2021-09-11T18:23:16.557</time></trkpt><trkpt lat="55.8447650" lon="49.1581710"><time>2021-09-11T18:23:17.557</time></trkpt><trkpt lat="55.8447650" lon="49.1582170"><time>2021-09-11T18:23:18.557</time></trkpt><trkpt lat="55.8447650" lon="49.1582640"><time>2021-09-11T18:23:19.557</time></trkpt><trkpt lat="55.8447680" lon="49.1583110"><time>2021-09-11T18:23:20.557</time></trkpt><trkpt lat="55.8447710" lon="49.1583580"><time>2021-09-11T18:23:21.557</time></trkpt><trkpt lat="55.8447700" lon="49.1584050"><time>2021-09-11T18:23:22.557</time></trkpt><trkpt lat="55.8447690" lon="49.1584480"><time>2021-09-11T18:23:23.557</time></trkpt><trkpt lat="55.8447690" lon="49.1584920"><time>2021-09-11T18:23:24.557</time></trkpt><trkpt lat="55.8447670" lon="49.1585360"><time>2021-09-11T18:23:25.557</time></trkpt><trkpt lat="55.8447660" lon="49.1585800"><time>2021-09-11T18:23:26.557</time></trkpt><trkpt lat="55.8447630" lon="49.1586230"><time>2021-09-11T18:23:27.557</time></trkpt><trkpt lat="55.8447600" lon="49.1586680"><time>2021-09-11T18:23:28.557</time></trkpt><trkpt lat="55.8447570" lon="49.1587120"><time>2021-09-11T18:23:29.557</time></trkpt><trkpt lat="55.8447540" lon="49.1587570"><time>2021-09-11T18:23:30.557</time></trkpt><trkpt lat="55.8447480" lon="49.1588220"><time>2021-09-11T18:23:32.557</time></trkpt><trkpt lat="55.8447460" lon="49.1588430"><time>2021-09-11T18:23:32.557</time></trkpt><trkpt lat="55.8447410" lon="49.1588860"><time>2021-09-11T18:23:33.557</time></trkpt><trkpt lat="55.8447360" lon="49.1589270"><time>2021-09-11T18:23:34.557</time></trkpt><trkpt lat="55.8447300" lon="49.1589700"><time>2021-09-11T18:23:35.557</time></trkpt><trkpt lat="55.8447230" lon="49.1590120"><time>2021-09-11T18:23:36.557</time></trkpt><trkpt lat="55.8447150" lon="49.1590570"><time>2021-09-11T18:23:37.557</time></trkpt><trkpt lat="55.8447080" lon="49.1590970"><time>2021-09-11T18:23:38.557</time></trkpt><trkpt lat="55.8447000" lon="49.1591370"><time>2021-09-11T18:23:39.557</time></trkpt><trkpt lat="55.8446920" lon="49.1591750"><time>2021-09-11T18:23:40.557</time></trkpt><trkpt lat="55.8446820" lon="49.1592130"><time>2021-09-11T18:23:41.557</time></trkpt><trkpt lat="55.8446630" lon="49.1592710"><time>2021-09-11T18:23:43.557</time></trkpt><trkpt lat="55.8446560" lon="49.1592890"><time>2021-09-11T18:23:43.557</time></trkpt><trkpt lat="55.8446390" lon="49.1593250"><time>2021-09-11T18:23:44.557</time></trkpt><trkpt lat="55.8446220" lon="49.1593550"><time>2021-09-11T18:23:45.557</time></trkpt><trkpt lat="55.8446060" lon="49.1593820"><time>2021-09-11T18:23:46.557</time></trkpt><trkpt lat="55.8445860" lon="49.1594080"><time>2021-09-11T18:23:47.557</time></trkpt><trkpt lat="55.8445540" lon="49.1594420"><time>2021-09-11T18:23:49.557</time></trkpt><trkpt lat="55.8445420" lon="49.1594530"><time>2021-09-11T18:23:49.557</time></trkpt><trkpt lat="55.8445190" lon="49.1594730"><time>2021-09-11T18:23:50.557</time></trkpt><trkpt lat="55.8444960" lon="49.1594910"><time>2021-09-11T18:23:51.557</time></trkpt><trkpt lat="55.8444730" lon="49.1595070"><time>2021-09-11T18:23:52.557</time></trkpt><trkpt lat="55.8444480" lon="49.1595230"><time>2021-09-11T18:23:53.557</time></trkpt><trkpt lat="55.8444210" lon="49.1595390"><time>2021-09-11T18:23:54.557</time></trkpt><trkpt lat="55.8443960" lon="49.1595530"><time>2021-09-11T18:23:55.557</time></trkpt><trkpt lat="55.8443730" lon="49.1595660"><time>2021-09-11T18:23:56.557</time></trkpt><trkpt lat="55.8443520" lon="49.1595760"><time>2021-09-11T18:23:57.557</time></trkpt><trkpt lat="55.8443340" lon="49.1595860"><time>2021-09-11T18:23:58.557</time></trkpt><trkpt lat="55.8443160" lon="49.1595940"><time>2021-09-11T18:23:59.557</time></trkpt><trkpt lat="55.8443120" lon="49.1595970"><time>2021-09-11T18:24:00.557</time></trkpt><trkpt lat="55.8443070" lon="49.1595990"><time>2021-09-11T18:24:03.557</time></trkpt><trkpt lat="55.8443020" lon="49.1596010"><time>2021-09-11T18:24:05.557</time></trkpt><trkpt lat="55.8442980" lon="49.1596040"><time>2021-09-11T18:24:07.557</time></trkpt><trkpt lat="55.8442930" lon="49.1596060"><time>2021-09-11T18:24:07.557</time></trkpt><trkpt lat="55.8442720" lon="49.1596170"><time>2021-09-11T18:24:08.557</time></trkpt><trkpt lat="55.8442580" lon="49.1596210"><time>2021-09-11T18:24:09.557</time></trkpt><trkpt lat="55.8442450" lon="49.1596250"><time>2021-09-11T18:24:10.557</time></trkpt><trkpt lat="55.8442320" lon="49.1596290"><time>2021-09-11T18:24:11.557</time></trkpt><trkpt lat="55.8442190" lon="49.1596330"><time>2021-09-11T18:24:12.557</time></trkpt><trkpt lat="55.8442050" lon="49.1596370"><time>2021-09-11T18:24:13.557</time></trkpt><trkpt lat="55.8441920" lon="49.1596410"><time>2021-09-11T18:24:14.557</time></trkpt><trkpt lat="55.8441790" lon="49.1596450"><time>2021-09-11T18:24:15.557</time></trkpt><trkpt lat="55.8441650" lon="49.1596490"><time>2021-09-11T18:24:17.557</time></trkpt><trkpt lat="55.8441520" lon="49.1596530"><time>2021-09-11T18:24:17.557</time></trkpt><trkpt lat="55.8441320" lon="49.1596620"><time>2021-09-11T18:24:18.557</time></trkpt><trkpt lat="55.8441110" lon="49.1596730"><time>2021-09-11T18:24:19.557</time></trkpt><trkpt lat="55.8440880" lon="49.1596850"><time>2021-09-11T18:24:20.557</time></trkpt><trkpt lat="55.8440640" lon="49.1596970"><time>2021-09-11T18:24:21.557</time></trkpt><trkpt lat="55.8440290" lon="49.1597190"><time>2021-09-11T18:24:23.557</time></trkpt><trkpt lat="55.8440170" lon="49.1597250"><time>2021-09-11T18:24:23.557</time></trkpt><trkpt lat="55.8439920" lon="49.1597390"><time>2021-09-11T18:24:24.557</time></trkpt><trkpt lat="55.8439690" lon="49.1597500"><time>2021-09-11T18:24:25.557</time></trkpt><trkpt lat="55.8439340" lon="49.1597670"><time>2021-09-11T18:24:27.557</time></trkpt><trkpt lat="55.8439210" lon="49.1597710"><time>2021-09-11T18:24:27.557</time></trkpt><trkpt lat="55.8438970" lon="49.1597800"><time>2021-09-11T18:24:28.557</time></trkpt><trkpt lat="55.8438690" lon="49.1597920"><time>2021-09-11T18:24:29.557</time></trkpt><trkpt lat="55.8438410" lon="49.1598040"><time>2021-09-11T18:24:30.557</time></trkpt><trkpt lat="55.8438160" lon="49.1598120"><time>2021-09-11T18:24:31.557</time></trkpt><trkpt lat="55.8437790" lon="49.1598180"><time>2021-09-11T18:24:33.557</time></trkpt><trkpt lat="55.8437670" lon="49.1598190"><time>2021-09-11T18:24:33.557</time></trkpt><trkpt lat="55.8437420" lon="49.1598200"><time>2021-09-11T18:24:34.557</time></trkpt><trkpt lat="55.8437170" lon="49.1598180"><time>2021-09-11T18:24:35.557</time></trkpt><trkpt lat="55.8436930" lon="49.1598150"><time>2021-09-11T18:24:36.557</time></trkpt><trkpt lat="55.8436680" lon="49.1598100"><time>2021-09-11T18:24:37.557</time></trkpt><trkpt lat="55.8436430" lon="49.1598040"><time>2021-09-11T18:24:38.557</time></trkpt><trkpt lat="55.8436190" lon="49.1597970"><time>2021-09-11T18:24:39.557</time></trkpt><trkpt lat="55.8435930" lon="49.1597870"><time>2021-09-11T18:24:40.557</time></trkpt><trkpt lat="55.8435670" lon="49.1597760"><time>2021-09-11T18:24:41.557</time></trkpt><trkpt lat="55.8435430" lon="49.1597680"><time>2021-09-11T18:24:42.557</time></trkpt><trkpt lat="55.8435050" lon="49.1597560"><time>2021-09-11T18:24:44.557</time></trkpt><trkpt lat="55.8434920" lon="49.1597530"><time>2021-09-11T18:24:44.557</time></trkpt><trkpt lat="55.8434640" lon="49.1597480"><time>2021-09-11T18:24:45.557</time></trkpt><trkpt lat="55.8434360" lon="49.1597450"><time>2021-09-11T18:24:46.557</time></trkpt><trkpt lat="55.8434110" lon="49.1597430"><time>2021-09-11T18:24:47.557</time></trkpt><trkpt lat="55.8433850" lon="49.1597410"><time>2021-09-11T18:24:48.557</time></trkpt><trkpt lat="55.8433430" lon="49.1597360"><time>2021-09-11T18:24:50.557</time></trkpt><trkpt lat="55.8433280" lon="49.1597350"><time>2021-09-11T18:24:50.557</time></trkpt><trkpt lat="55.8433000" lon="49.1597360"><time>2021-09-11T18:24:51.557</time></trkpt><trkpt lat="55.8432710" lon="49.1597360"><time>2021-09-11T18:24:52.557</time></trkpt><trkpt lat="55.8432450" lon="49.1597330"><time>2021-09-11T18:24:53.557</time></trkpt><trkpt lat="55.8432070" lon="49.1597210"><time>2021-09-11T18:24:55.557</time></trkpt><trkpt lat="55.8431940" lon="49.1597170"><time>2021-09-11T18:24:55.557</time></trkpt><trkpt lat="55.8431670" lon="49.1597090"><time>2021-09-11T18:24:56.557</time></trkpt><trkpt lat="55.8431400" lon="49.1597030"><time>2021-09-11T18:24:57.557</time></trkpt><trkpt lat="55.8431150" lon="49.1596980"><time>2021-09-11T18:24:58.557</time></trkpt><trkpt lat="55.8430910" lon="49.1596940"><time>2021-09-11T18:24:59.557</time></trkpt><trkpt lat="55.8430560" lon="49.1596850"><time>2021-09-11T18:25:01.557</time></trkpt><trkpt lat="55.8430430" lon="49.1596820"><time>2021-09-11T18:25:01.557</time></trkpt><trkpt lat="55.8430210" lon="49.1596800"><time>2021-09-11T18:25:02.557</time></trkpt><trkpt lat="55.8429960" lon="49.1596790"><time>2021-09-11T18:25:03.557</time></trkpt><trkpt lat="55.8429720" lon="49.1596770"><time>2021-09-11T18:25:04.557</time></trkpt><trkpt lat="55.8429480" lon="49.1596740"><time>2021-09-11T18:25:05.557</time></trkpt><trkpt lat="55.8429230" lon="49.1596670"><time>2021-09-11T18:25:06.557</time></trkpt><trkpt lat="55.8429000" lon="49.1596620"><time>2021-09-11T18:25:07.557</time></trkpt><trkpt lat="55.8428770" lon="49.1596540"><time>2021-09-11T18:25:08.557</time></trkpt><trkpt lat="55.8428510" lon="49.1596470"><time>2021-09-11T18:25:09.557</time></trkpt><trkpt lat="55.8428280" lon="49.1596400"><time>2021-09-11T18:25:10.557</time></trkpt><trkpt lat="55.8428070" lon="49.1596330"><time>2021-09-11T18:25:11.557</time></trkpt><trkpt lat="55.8427840" lon="49.1596260"><time>2021-09-11T18:25:12.557</time></trkpt><trkpt lat="55.8427590" lon="49.1596190"><time>2021-09-11T18:25:13.557</time></trkpt><trkpt lat="55.8427330" lon="49.1596110"><time>2021-09-11T18:25:14.557</time></trkpt><trkpt lat="55.8427100" lon="49.1595950"><time>2021-09-11T18:25:15.557</time></trkpt><trkpt lat="55.8426880" lon="49.1595780"><time>2021-09-11T18:25:16.557</time></trkpt><trkpt lat="55.8426540" lon="49.1595590"><time>2021-09-11T18:25:18.557</time></trkpt><trkpt lat="55.8426420" lon="49.1595530"><time>2021-09-11T18:25:18.557</time></trkpt><trkpt lat="55.8426180" lon="49.1595440"><time>2021-09-11T18:25:19.557</time></trkpt><trkpt lat="55.8425980" lon="49.1595400"><time>2021-09-11T18:25:20.557</time></trkpt><trkpt lat="55.8425730" lon="49.1595340"><time>2021-09-11T18:25:22.557</time></trkpt><trkpt lat="55.8425650" lon="49.1595320"><time>2021-09-11T18:25:22.557</time></trkpt><trkpt lat="55.8425580" lon="49.1595280"><time>2021-09-11T18:25:23.557</time></trkpt><trkpt lat="55.8425620" lon="49.1595300"><time>2021-09-11T18:25:24.557</time></trkpt><trkpt lat="55.8425670" lon="49.1595310"><time>2021-09-11T18:25:25.557</time></trkpt><trkpt lat="55.8425710" lon="49.1595320"><time>2021-09-11T18:25:26.557</time></trkpt><trkpt lat="55.8425760" lon="49.1595340"><time>2021-09-11T18:25:28.557</time></trkpt><trkpt lat="55.8425800" lon="49.1595350"><time>2021-09-11T18:25:28.557</time></trkpt><trkpt lat="55.8425990" lon="49.1595430"><time>2021-09-11T18:25:29.557</time></trkpt><trkpt lat="55.8426020" lon="49.1595430"><time>2021-09-11T18:25:30.557</time></trkpt><trkpt lat="55.8426050" lon="49.1595440"><time>2021-09-11T18:25:31.557</time></trkpt><trkpt lat="55.8426070" lon="49.1595450"><time>2021-09-11T18:25:32.557</time></trkpt><trkpt lat="55.8426100" lon="49.1595460"><time>2021-09-11T18:25:33.557</time></trkpt><trkpt lat="55.8426130" lon="49.1595460"><time>2021-09-11T18:25:35.557</time></trkpt><trkpt lat="55.8426160" lon="49.1595470"><time>2021-09-11T18:25:35.557</time></trkpt><trkpt lat="55.8426030" lon="49.1595390"><time>2021-09-11T18:25:36.557</time></trkpt><trkpt lat="55.8425860" lon="49.1595340"><time>2021-09-11T18:25:37.557</time></trkpt><trkpt lat="55.8425660" lon="49.1595280"><time>2021-09-11T18:25:38.557</time></trkpt><trkpt lat="55.8425440" lon="49.1595220"><time>2021-09-11T18:25:39.557</time></trkpt><trkpt lat="55.8425210" lon="49.1595130"><time>2021-09-11T18:25:40.557</time></trkpt><trkpt lat="55.8424980" lon="49.1595010"><time>2021-09-11T18:25:41.557</time></trkpt><trkpt lat="55.8424750" lon="49.1594880"><time>2021-09-11T18:25:42.557</time></trkpt><trkpt lat="55.8424500" lon="49.1594750"><time>2021-09-11T18:25:43.557</time></trkpt><trkpt lat="55.8424130" lon="49.1594530"><time>2021-09-11T18:25:45.557</time></trkpt><trkpt lat="55.8424000" lon="49.1594450"><time>2021-09-11T18:25:45.557</time></trkpt><trkpt lat="55.8423730" lon="49.1594250"><time>2021-09-11T18:25:46.557</time></trkpt><trkpt lat="55.8423470" lon="49.1594050"><time>2021-09-11T18:25:47.557</time></trkpt><trkpt lat="55.8423220" lon="49.1593850"><time>2021-09-11T18:25:48.557</time></trkpt><trkpt lat="55.8422970" lon="49.1593630"><time>2021-09-11T18:25:49.557</time></trkpt><trkpt lat="55.8422720" lon="49.1593420"><time>2021-09-11T18:25:50.557</time></trkpt><trkpt lat="55.8422450" lon="49.1593190"><time>2021-09-11T18:25:51.557</time></trkpt><trkpt lat="55.8422190" lon="49.1592960"><time>2021-09-11T18:25:52.557</time></trkpt><trkpt lat="55.8421930" lon="49.1592730"><time>2021-09-11T18:25:53.557</time></trkpt><trkpt lat="55.8421670" lon="49.1592530"><time>2021-09-11T18:25:54.557</time></trkpt><trkpt lat="55.8421420" lon="49.1592350"><time>2021-09-11T18:25:55.557</time></trkpt><trkpt lat="55.8421170" lon="49.1592200"><time>2021-09-11T18:25:56.557</time></trkpt><trkpt lat="55.8420910" lon="49.1592090"><time>2021-09-11T18:25:57.557</time></trkpt><trkpt lat="55.8420650" lon="49.1592020"><time>2021-09-11T18:25:58.557</time></trkpt><trkpt lat="55.8420280" lon="49.1591960"><time>2021-09-11T18:26:00.557</time></trkpt><trkpt lat="55.8420160" lon="49.1591960"><time>2021-09-11T18:26:00.557</time></trkpt><trkpt lat="55.8419930" lon="49.1592020"><time>2021-09-11T18:26:01.557</time></trkpt><trkpt lat="55.8419720" lon="49.1592120"><time>2021-09-11T18:26:02.557</time></trkpt><trkpt lat="55.8419530" lon="49.1592270"><time>2021-09-11T18:26:03.557</time></trkpt><trkpt lat="55.8419370" lon="49.1592490"><time>2021-09-11T18:26:04.557</time></trkpt><trkpt lat="55.8419170" lon="49.1592920"><time>2021-09-11T18:26:06.557</time></trkpt><trkpt lat="55.8419110" lon="49.1593070"><time>2021-09-11T18:26:06.557</time></trkpt><trkpt lat="55.8419000" lon="49.1593390"><time>2021-09-11T18:26:07.557</time></trkpt><trkpt lat="55.8418900" lon="49.1593730"><time>2021-09-11T18:26:08.557</time></trkpt><trkpt lat="55.8418790" lon="49.1594080"><time>2021-09-11T18:26:09.557</time></trkpt><trkpt lat="55.8418670" lon="49.1594420"><time>2021-09-11T18:26:09.557</time></trkpt><trkpt lat="55.8418500" lon="49.1594940"><time>2021-09-11T18:26:11.557</time></trkpt><trkpt lat="55.8418440" lon="49.1595120"><time>2021-09-11T18:26:11.557</time></trkpt><trkpt lat="55.8418350" lon="49.1595500"><time>2021-09-11T18:26:12.557</time></trkpt><trkpt lat="55.8418290" lon="49.1595900"><time>2021-09-11T18:26:13.557</time></trkpt><trkpt lat="55.8418190" lon="49.1596570"><time>2021-09-11T18:26:15.557</time></trkpt><trkpt lat="55.8418150" lon="49.1596790"><time>2021-09-11T18:26:15.557</time></trkpt><trkpt lat="55.8418080" lon="49.1597280"><time>2021-09-11T18:26:16.557</time></trkpt><trkpt lat="55.8418020" lon="49.1597770"><time>2021-09-11T18:26:17.557</time></trkpt><trkpt lat="55.8417980" lon="49.1598220"><time>2021-09-11T18:26:18.557</time></trkpt><trkpt lat="55.8417940" lon="49.1598690"><time>2021-09-11T18:26:19.557</time></trkpt><trkpt lat="55.8417910" lon="49.1599140"><time>2021-09-11T18:26:20.557</time></trkpt><trkpt lat="55.8417880" lon="49.1599580"><time>2021-09-11T18:26:21.557</time></trkpt><trkpt lat="55.8417870" lon="49.1600040"><time>2021-09-11T18:26:22.557</time></trkpt><trkpt lat="55.8417850" lon="49.1600490"><time>2021-09-11T18:26:23.557</time></trkpt><trkpt lat="55.8417840" lon="49.1600940"><time>2021-09-11T18:26:24.557</time></trkpt><trkpt lat="55.8417830" lon="49.1601360"><time>2021-09-11T18:26:25.557</time></trkpt><trkpt lat="55.8417810" lon="49.1601830"><time>2021-09-11T18:26:26.557</time></trkpt><trkpt lat="55.8417780" lon="49.1602290"><time>2021-09-11T18:26:27.557</time></trkpt><trkpt lat="55.8417760" lon="49.1602750"><time>2021-09-11T18:26:28.557</time></trkpt><trkpt lat="55.8417730" lon="49.1603220"><time>2021-09-11T18:26:29.557</time></trkpt><trkpt lat="55.8417710" lon="49.1603690"><time>2021-09-11T18:26:30.557</time></trkpt><trkpt lat="55.8417670" lon="49.1604310"><time>2021-09-11T18:26:32.557</time></trkpt><trkpt lat="55.8417650" lon="49.1604530"><time>2021-09-11T18:26:32.557</time></trkpt><trkpt lat="55.8417600" lon="49.1604950"><time>2021-09-11T18:26:33.557</time></trkpt><trkpt lat="55.8417550" lon="49.1605300"><time>2021-09-11T18:26:34.557</time></trkpt><trkpt lat="55.8417500" lon="49.1605620"><time>2021-09-11T18:26:35.557</time></trkpt><trkpt lat="55.8417450" lon="49.1605890"><time>2021-09-11T18:26:36.557</time></trkpt><trkpt lat="55.8417400" lon="49.1606120"><time>2021-09-11T18:26:37.557</time></trkpt><trkpt lat="55.8417360" lon="49.1606330"><time>2021-09-11T18:26:38.557</time></trkpt><trkpt lat="55.8417310" lon="49.1606550"><time>2021-09-11T18:26:39.557</time></trkpt><trkpt lat="55.8417250" lon="49.1606780"><time>2021-09-11T18:26:40.557</time></trkpt><trkpt lat="55.8417190" lon="49.1607070"><time>2021-09-11T18:26:41.557</time></trkpt><trkpt lat="55.8417150" lon="49.1607370"><time>2021-09-11T18:26:42.557</time></trkpt><trkpt lat="55.8417110" lon="49.1607690"><time>2021-09-11T18:26:43.557</time></trkpt><trkpt lat="55.8417080" lon="49.1608000"><time>2021-09-11T18:26:44.557</time></trkpt><trkpt lat="55.8417030" lon="49.1608300"><time>2021-09-11T18:26:45.557</time></trkpt><trkpt lat="55.8416960" lon="49.1608580"><time>2021-09-11T18:26:46.557</time></trkpt><trkpt lat="55.8416840" lon="49.1608870"><time>2021-09-11T18:26:47.557</time></trkpt><trkpt lat="55.8416590" lon="49.1609220"><time>2021-09-11T18:26:49.557</time></trkpt><trkpt lat="55.8416500" lon="49.1609310"><time>2021-09-11T18:26:49.557</time></trkpt><trkpt lat="55.8416340" lon="49.1609460"><time>2021-09-11T18:26:50.557</time></trkpt><trkpt lat="55.8416120" lon="49.1609650"><time>2021-09-11T18:26:52.557</time></trkpt><trkpt lat="55.8416050" lon="49.1609710"><time>2021-09-11T18:26:52.557</time></trkpt><trkpt lat="55.8415910" lon="49.1609840"><time>2021-09-11T18:26:53.557</time></trkpt><trkpt lat="55.8415760" lon="49.1609960"><time>2021-09-11T18:26:54.557</time></trkpt><trkpt lat="55.8415610" lon="49.1610090"><time>2021-09-11T18:26:55.557</time></trkpt><trkpt lat="55.8415450" lon="49.1610220"><time>2021-09-11T18:26:56.557</time></trkpt><trkpt lat="55.8415280" lon="49.1610340"><time>2021-09-11T18:26:57.557</time></trkpt><trkpt lat="55.8415110" lon="49.1610450"><time>2021-09-11T18:26:58.557</time></trkpt><trkpt lat="55.8414860" lon="49.1610520"><time>2021-09-11T18:27:00.557</time></trkpt><trkpt lat="55.8414780" lon="49.1610530"><time>2021-09-11T18:27:00.557</time></trkpt><trkpt lat="55.8414610" lon="49.1610500"><time>2021-09-11T18:27:01.557</time></trkpt><trkpt lat="55.8414430" lon="49.1610420"><time>2021-09-11T18:27:02.557</time></trkpt><trkpt lat="55.8414240" lon="49.1610290"><time>2021-09-11T18:27:03.557</time></trkpt><trkpt lat="55.8414050" lon="49.1610150"><time>2021-09-11T18:27:04.557</time></trkpt><trkpt lat="55.8413860" lon="49.1610000"><time>2021-09-11T18:27:05.557</time></trkpt><trkpt lat="55.8413670" lon="49.1609870"><time>2021-09-11T18:27:06.557</time></trkpt><trkpt lat="55.8413470" lon="49.1609760"><time>2021-09-11T18:27:07.557</time></trkpt><trkpt lat="55.8413270" lon="49.1609670"><time>2021-09-11T18:27:08.557</time></trkpt><trkpt lat="55.8412970" lon="49.1609560"><time>2021-09-11T18:27:10.557</time></trkpt><trkpt lat="55.8412870" lon="49.1609540"><time>2021-09-11T18:27:10.557</time></trkpt><trkpt lat="55.8412670" lon="49.1609540"><time>2021-09-11T18:27:11.557</time></trkpt><trkpt lat="55.8412490" lon="49.1609590"><time>2021-09-11T18:27:12.557</time></trkpt><trkpt lat="55.8412180" lon="49.1609680"><time>2021-09-11T18:27:14.557</time></trkpt><trkpt lat="55.8412080" lon="49.1609710"><time>2021-09-11T18:27:14.557</time></trkpt><trkpt lat="55.8411900" lon="49.1609770"><time>2021-09-11T18:27:15.557</time></trkpt><trkpt lat="55.8411750" lon="49.1609790"><time>2021-09-11T18:27:16.557</time></trkpt><trkpt lat="55.8411640" lon="49.1609810"><time>2021-09-11T18:27:17.557</time></trkpt><trkpt lat="55.8411540" lon="49.1609830"><time>2021-09-11T18:27:18.557</time></trkpt><trkpt lat="55.8411420" lon="49.1609850"><time>2021-09-11T18:27:19.557</time></trkpt><trkpt lat="55.8411290" lon="49.1609870"><time>2021-09-11T18:27:20.557</time></trkpt><trkpt lat="55.8411140" lon="49.1609880"><time>2021-09-11T18:27:21.557</time></trkpt><trkpt lat="55.8410980" lon="49.1609910"><time>2021-09-11T18:27:22.557</time></trkpt><trkpt lat="55.8410800" lon="49.1609930"><time>2021-09-11T18:27:23.557</time></trkpt><trkpt lat="55.8410580" lon="49.1609910"><time>2021-09-11T18:27:24.557</time></trkpt><trkpt lat="55.8410360" lon="49.1609820"><time>2021-09-11T18:27:25.557</time></trkpt><trkpt lat="55.8410140" lon="49.1609710"><time>2021-09-11T18:27:26.557</time></trkpt><trkpt lat="55.8409940" lon="49.1609590"><time>2021-09-11T18:27:27.557</time></trkpt><trkpt lat="55.8409740" lon="49.1609510"><time>2021-09-11T18:27:28.557</time></trkpt><trkpt lat="55.8409550" lon="49.1609480"><time>2021-09-11T18:27:29.557</time></trkpt><trkpt lat="55.8409280" lon="49.1609570"><time>2021-09-11T18:27:31.557</time></trkpt><trkpt lat="55.8409190" lon="49.1609620"><time>2021-09-11T18:27:31.557</time></trkpt><trkpt lat="55.8409030" lon="49.1609790"><time>2021-09-11T18:27:32.557</time></trkpt><trkpt lat="55.8408860" lon="49.1610050"><time>2021-09-11T18:27:33.557</time></trkpt><trkpt lat="55.8408710" lon="49.1610320"><time>2021-09-11T18:27:34.557</time></trkpt><trkpt lat="55.8408570" lon="49.1610590"><time>2021-09-11T18:27:35.557</time></trkpt><trkpt lat="55.8408410" lon="49.1611010"><time>2021-09-11T18:27:37.557</time></trkpt><trkpt lat="55.8408350" lon="49.1611150"><time>2021-09-11T18:27:37.557</time></trkpt><trkpt lat="55.8408220" lon="49.1611450"><time>2021-09-11T18:27:38.557</time></trkpt><trkpt lat="55.8408080" lon="49.1611740"><time>2021-09-11T18:27:39.557</time></trkpt><trkpt lat="55.8407930" lon="49.1612020"><time>2021-09-11T18:27:40.557</time></trkpt><trkpt lat="55.8407800" lon="49.1612290"><time>2021-09-11T18:27:41.557</time></trkpt><trkpt lat="55.8407670" lon="49.1612570"><time>2021-09-11T18:27:42.557</time></trkpt><trkpt lat="55.8407530" lon="49.1612840"><time>2021-09-11T18:27:43.557</time></trkpt><trkpt lat="55.8407390" lon="49.1613110"><time>2021-09-11T18:27:44.557</time></trkpt><trkpt lat="55.8407210" lon="49.1613330"><time>2021-09-11T18:27:45.557</time></trkpt><trkpt lat="55.8407020" lon="49.1613520"><time>2021-09-11T18:27:46.557</time></trkpt><trkpt lat="55.8406820" lon="49.1613700"><time>2021-09-11T18:27:47.557</time></trkpt><trkpt lat="55.8406620" lon="49.1613910"><time>2021-09-11T18:27:48.557</time></trkpt><trkpt lat="55.8406440" lon="49.1614160"><time>2021-09-11T18:27:49.557</time></trkpt><trkpt lat="55.8406250" lon="49.1614470"><time>2021-09-11T18:27:50.557</time></trkpt><trkpt lat="55.8406080" lon="49.1614790"><time>2021-09-11T18:27:51.557</time></trkpt><trkpt lat="55.8405920" lon="49.1615130"><time>2021-09-11T18:27:52.557</time></trkpt><trkpt lat="55.8405740" lon="49.1615470"><time>2021-09-11T18:27:53.557</time></trkpt><trkpt lat="55.8405580" lon="49.1615790"><time>2021-09-11T18:27:54.557</time></trkpt><trkpt lat="55.8405400" lon="49.1616110"><time>2021-09-11T18:27:55.557</time></trkpt><trkpt lat="55.8405180" lon="49.1616460"><time>2021-09-11T18:27:56.557</time></trkpt><trkpt lat="55.8404960" lon="49.1616790"><time>2021-09-11T18:27:57.557</time></trkpt><trkpt lat="55.8404740" lon="49.1617110"><time>2021-09-11T18:27:58.557</time></trkpt><trkpt lat="55.8404520" lon="49.1617410"><time>2021-09-11T18:27:59.557</time></trkpt><trkpt lat="55.8404320" lon="49.1617650"><time>2021-09-11T18:28:00.557</time></trkpt><trkpt lat="55.8404090" lon="49.1617910"><time>2021-09-11T18:28:01.557</time></trkpt><trkpt lat="55.8403870" lon="49.1618140"><time>2021-09-11T18:28:02.557</time></trkpt><trkpt lat="55.8403530" lon="49.1618450"><time>2021-09-11T18:28:04.557</time></trkpt><trkpt lat="55.8403420" lon="49.1618550"><time>2021-09-11T18:28:04.557</time></trkpt><trkpt lat="55.8403210" lon="49.1618730"><time>2021-09-11T18:28:05.557</time></trkpt><trkpt lat="55.8402980" lon="49.1618920"><time>2021-09-11T18:28:06.557</time></trkpt><trkpt lat="55.8402750" lon="49.1619090"><time>2021-09-11T18:28:07.557</time></trkpt><trkpt lat="55.8402540" lon="49.1619250"><time>2021-09-11T18:28:08.557</time></trkpt><trkpt lat="55.8402220" lon="49.1619510"><time>2021-09-11T18:28:10.557</time></trkpt><trkpt lat="55.8402110" lon="49.1619600"><time>2021-09-11T18:28:10.557</time></trkpt><trkpt lat="55.8401910" lon="49.1619820"><time>2021-09-11T18:28:11.557</time></trkpt><trkpt lat="55.8401710" lon="49.1620060"><time>2021-09-11T18:28:12.557</time></trkpt><trkpt lat="55.8401440" lon="49.1620460"><time>2021-09-11T18:28:14.557</time></trkpt><trkpt lat="55.8401350" lon="49.1620590"><time>2021-09-11T18:28:14.557</time></trkpt><trkpt lat="55.8401180" lon="49.1620870"><time>2021-09-11T18:28:15.557</time></trkpt><trkpt lat="55.8401000" lon="49.1621140"><time>2021-09-11T18:28:16.557</time></trkpt><trkpt lat="55.8400810" lon="49.1621390"><time>2021-09-11T18:28:17.557</time></trkpt><trkpt lat="55.8400610" lon="49.1621620"><time>2021-09-11T18:28:18.557</time></trkpt><trkpt lat="55.8400430" lon="49.1621810"><time>2021-09-11T18:28:19.557</time></trkpt><trkpt lat="55.8400240" lon="49.1622010"><time>2021-09-11T18:28:20.557</time></trkpt><trkpt lat="55.8400030" lon="49.1622220"><time>2021-09-11T18:28:21.557</time></trkpt><trkpt lat="55.8399810" lon="49.1622410"><time>2021-09-11T18:28:22.557</time></trkpt><trkpt lat="55.8399590" lon="49.1622590"><time>2021-09-11T18:28:23.557</time></trkpt><trkpt lat="55.8399350" lon="49.1622750"><time>2021-09-11T18:28:24.557</time></trkpt><trkpt lat="55.8399130" lon="49.1622920"><time>2021-09-11T18:28:25.557</time></trkpt><trkpt lat="55.8398950" lon="49.1623120"><time>2021-09-11T18:28:26.557</time></trkpt><trkpt lat="55.8398800" lon="49.1623330"><time>2021-09-11T18:28:27.557</time></trkpt><trkpt lat="55.8398690" lon="49.1623550"><time>2021-09-11T18:28:28.557</time></trkpt><trkpt lat="55.8398600" lon="49.1623770"><time>2021-09-11T18:28:29.557</time></trkpt><trkpt lat="55.8398540" lon="49.1623960"><time>2021-09-11T18:28:30.557</time></trkpt><trkpt lat="55.8398470" lon="49.1624120"><time>2021-09-11T18:28:31.557</time></trkpt><trkpt lat="55.8398390" lon="49.1624240"><time>2021-09-11T18:28:32.557</time></trkpt><trkpt lat="55.8398280" lon="49.1624350"><time>2021-09-11T18:28:33.557</time></trkpt><trkpt lat="55.8398150" lon="49.1624420"><time>2021-09-11T18:28:34.557</time></trkpt><trkpt lat="55.8397990" lon="49.1624490"><time>2021-09-11T18:28:35.557</time></trkpt><trkpt lat="55.8397820" lon="49.1624570"><time>2021-09-11T18:28:36.557</time></trkpt><trkpt lat="55.8397640" lon="49.1624620"><time>2021-09-11T18:28:37.557</time></trkpt><trkpt lat="55.8397450" lon="49.1624630"><time>2021-09-11T18:28:38.557</time></trkpt><trkpt lat="55.8397260" lon="49.1624670"><time>2021-09-11T18:28:39.557</time></trkpt><trkpt lat="55.8396980" lon="49.1624730"><time>2021-09-11T18:28:41.557</time></trkpt><trkpt lat="55.8396880" lon="49.1624750"><time>2021-09-11T18:28:41.557</time></trkpt><trkpt lat="55.8396720" lon="49.1624860"><time>2021-09-11T18:28:42.557</time></trkpt><trkpt lat="55.8396560" lon="49.1625040"><time>2021-09-11T18:28:43.557</time></trkpt><trkpt lat="55.8396420" lon="49.1625270"><time>2021-09-11T18:28:44.557</time></trkpt><trkpt lat="55.8396290" lon="49.1625530"><time>2021-09-11T18:28:45.557</time></trkpt><trkpt lat="55.8396130" lon="49.1625980"><time>2021-09-11T18:28:47.557</time></trkpt><trkpt lat="55.8396080" lon="49.1626140"><time>2021-09-11T18:28:47.557</time></trkpt><trkpt lat="55.8395970" lon="49.1626490"><time>2021-09-11T18:28:48.557</time></trkpt><trkpt lat="55.8395880" lon="49.1626890"><time>2021-09-11T18:28:49.557</time></trkpt><trkpt lat="55.8395790" lon="49.1627270"><time>2021-09-11T18:28:50.557</time></trkpt><trkpt lat="55.8395710" lon="49.1627610"><time>2021-09-11T18:28:51.557</time></trkpt><trkpt lat="55.8395650" lon="49.1627920"><time>2021-09-11T18:28:52.557</time></trkpt><trkpt lat="55.8395590" lon="49.1628220"><time>2021-09-11T18:28:53.557</time></trkpt><trkpt lat="55.8395480" lon="49.1628640"><time>2021-09-11T18:28:54.557</time></trkpt><trkpt lat="55.8395440" lon="49.1628790"><time>2021-09-11T18:28:56.557</time></trkpt><trkpt lat="55.8395390" lon="49.1628940"><time>2021-09-11T18:28:56.557</time></trkpt><trkpt lat="55.8395230" lon="49.1629350"><time>2021-09-11T18:28:57.557</time></trkpt><trkpt lat="55.8395140" lon="49.1629530"><time>2021-09-11T18:28:58.557</time></trkpt><trkpt lat="55.8395060" lon="49.1629720"><time>2021-09-11T18:28:59.557</time></trkpt><trkpt lat="55.8394970" lon="49.1629900"><time>2021-09-11T18:29:00.557</time></trkpt><trkpt lat="55.8394880" lon="49.1630090"><time>2021-09-11T18:29:01.557</time></trkpt><trkpt lat="55.8394790" lon="49.1630280"><time>2021-09-11T18:29:02.557</time></trkpt><trkpt lat="55.8394710" lon="49.1630460"><time>2021-09-11T18:29:03.557</time></trkpt><trkpt lat="55.8394620" lon="49.1630650"><time>2021-09-11T18:29:04.557</time></trkpt><trkpt lat="55.8394530" lon="49.1630840"><time>2021-09-11T18:29:05.557</time></trkpt><trkpt lat="55.8394440" lon="49.1631020"><time>2021-09-11T18:29:06.557</time></trkpt><trkpt lat="55.8394360" lon="49.1631210"><time>2021-09-11T18:29:07.557</time></trkpt><trkpt lat="55.8394270" lon="49.1631390"><time>2021-09-11T18:29:09.557</time></trkpt><trkpt lat="55.8394180" lon="49.1631580"><time>2021-09-11T18:29:09.557</time></trkpt><trkpt lat="55.8394080" lon="49.1631850"><time>2021-09-11T18:29:10.557</time></trkpt><trkpt lat="55.8393940" lon="49.1632290"><time>2021-09-11T18:29:11.557</time></trkpt><trkpt lat="55.8393900" lon="49.1632460"><time>2021-09-11T18:29:13.557</time></trkpt><trkpt lat="55.8393850" lon="49.1632630"><time>2021-09-11T18:29:13.557</time></trkpt><trkpt lat="55.8393740" lon="49.1633020"><time>2021-09-11T18:29:14.557</time></trkpt><trkpt lat="55.8393700" lon="49.1633200"><time>2021-09-11T18:29:15.557</time></trkpt><trkpt lat="55.8393650" lon="49.1633370"><time>2021-09-11T18:29:16.557</time></trkpt><trkpt lat="55.8393600" lon="49.1633540"><time>2021-09-11T18:29:17.557</time></trkpt><trkpt lat="55.8393560" lon="49.1633720"><time>2021-09-11T18:29:19.557</time></trkpt><trkpt lat="55.8393510" lon="49.1633890"><time>2021-09-11T18:29:19.557</time></trkpt><trkpt lat="55.8393500" lon="49.1634090"><time>2021-09-11T18:29:20.557</time></trkpt><trkpt lat="55.8393520" lon="49.1634310"><time>2021-09-11T18:29:21.557</time></trkpt><trkpt lat="55.8393570" lon="49.1634560"><time>2021-09-11T18:29:22.557</time></trkpt><trkpt lat="55.8393640" lon="49.1634820"><time>2021-09-11T18:29:23.557</time></trkpt><trkpt lat="55.8393730" lon="49.1635100"><time>2021-09-11T18:29:24.557</time></trkpt><trkpt lat="55.8393830" lon="49.1635420"><time>2021-09-11T18:29:25.557</time></trkpt><trkpt lat="55.8393920" lon="49.1635760"><time>2021-09-11T18:29:26.557</time></trkpt><trkpt lat="55.8394010" lon="49.1636160"><time>2021-09-11T18:29:27.557</time></trkpt><trkpt lat="55.8394080" lon="49.1636520"><time>2021-09-11T18:29:28.557</time></trkpt><trkpt lat="55.8394140" lon="49.1636900"><time>2021-09-11T18:29:29.557</time></trkpt><trkpt lat="55.8394180" lon="49.1637240"><time>2021-09-11T18:29:30.557</time></trkpt><trkpt lat="55.8394200" lon="49.1637570"><time>2021-09-11T18:29:31.557</time></trkpt><trkpt lat="55.8394210" lon="49.1637920"><time>2021-09-11T18:29:32.557</time></trkpt><trkpt lat="55.8394190" lon="49.1638260"><time>2021-09-11T18:29:33.557</time></trkpt><trkpt lat="55.8394140" lon="49.1638620"><time>2021-09-11T18:29:34.557</time></trkpt><trkpt lat="55.8393990" lon="49.1639170"><time>2021-09-11T18:29:36.557</time></trkpt><trkpt lat="55.8393920" lon="49.1639360"><time>2021-09-11T18:29:36.557</time></trkpt><trkpt lat="55.8393760" lon="49.1639700"><time>2021-09-11T18:29:37.557</time></trkpt><trkpt lat="55.8393590" lon="49.1639990"><time>2021-09-11T18:29:38.557</time></trkpt><trkpt lat="55.8393410" lon="49.1640220"><time>2021-09-11T18:29:39.557</time></trkpt><trkpt lat="55.8393230" lon="49.1640370"><time>2021-09-11T18:29:40.557</time></trkpt><trkpt lat="55.8392980" lon="49.1640470"><time>2021-09-11T18:29:42.557</time></trkpt><trkpt lat="55.8392900" lon="49.1640470"><time>2021-09-11T18:29:42.557</time></trkpt><trkpt lat="55.8392710" lon="49.1640350"><time>2021-09-11T18:29:43.557</time></trkpt><trkpt lat="55.8392670" lon="49.1640300"><time>2021-09-11T18:29:44.557</time></trkpt><trkpt lat="55.8392630" lon="49.1640240"><time>2021-09-11T18:29:45.557</time></trkpt><trkpt lat="55.8392590" lon="49.1640180"><time>2021-09-11T18:29:46.557</time></trkpt><trkpt lat="55.8392540" lon="49.1640130"><time>2021-09-11T18:29:47.557</time></trkpt><trkpt lat="55.8392500" lon="49.1640070"><time>2021-09-11T18:29:52.557</time></trkpt><trkpt lat="55.8392460" lon="49.1640010"><time>2021-09-11T18:29:53.557</time></trkpt><trkpt lat="55.8392420" lon="49.1639960"><time>2021-09-11T18:29:55.557</time></trkpt><trkpt lat="55.8392380" lon="49.1639900"><time>2021-09-11T18:29:55.557</time></trkpt><trkpt lat="55.8392520" lon="49.1640010"><time>2021-09-11T18:29:56.557</time></trkpt><trkpt lat="55.8392600" lon="49.1640060"><time>2021-09-11T18:29:57.557</time></trkpt><trkpt lat="55.8392690" lon="49.1640110"><time>2021-09-11T18:29:58.557</time></trkpt><trkpt lat="55.8392780" lon="49.1640170"><time>2021-09-11T18:29:59.557</time></trkpt><trkpt lat="55.8392860" lon="49.1640220"><time>2021-09-11T18:30:01.557</time></trkpt><trkpt lat="55.8392950" lon="49.1640270"><time>2021-09-11T18:30:01.557</time></trkpt><trkpt lat="55.8393090" lon="49.1640240"><time>2021-09-11T18:30:02.557</time></trkpt><trkpt lat="55.8393240" lon="49.1640180"><time>2021-09-11T18:30:03.557</time></trkpt><trkpt lat="55.8393380" lon="49.1640090"><time>2021-09-11T18:30:04.557</time></trkpt><trkpt lat="55.8393540" lon="49.1639940"><time>2021-09-11T18:30:05.557</time></trkpt><trkpt lat="55.8393660" lon="49.1639740"><time>2021-09-11T18:30:06.557</time></trkpt><trkpt lat="55.8393770" lon="49.1639520"><time>2021-09-11T18:30:07.557</time></trkpt><trkpt lat="55.8393850" lon="49.1639290"><time>2021-09-11T18:30:08.557</time></trkpt><trkpt lat="55.8393900" lon="49.1639010"><time>2021-09-11T18:30:09.557</time></trkpt><trkpt lat="55.8393920" lon="49.1638730"><time>2021-09-11T18:30:10.557</time></trkpt><trkpt lat="55.8393890" lon="49.1638390"><time>2021-09-11T18:30:11.557</time></trkpt><trkpt lat="55.8393860" lon="49.1638020"><time>2021-09-11T18:30:12.557</time></trkpt><trkpt lat="55.8393820" lon="49.1637620"><time>2021-09-11T18:30:13.557</time></trkpt><trkpt lat="55.8393770" lon="49.1637180"><time>2021-09-11T18:30:14.557</time></trkpt><trkpt lat="55.8393710" lon="49.1636760"><time>2021-09-11T18:30:15.557</time></trkpt><trkpt lat="55.8393650" lon="49.1636390"><time>2021-09-11T18:30:16.557</time></trkpt><trkpt lat="55.8393550" lon="49.1636010"><time>2021-09-11T18:30:17.557</time></trkpt><trkpt lat="55.8393460" lon="49.1635650"><time>2021-09-11T18:30:18.557</time></trkpt><trkpt lat="55.8393330" lon="49.1635280"><time>2021-09-11T18:30:19.557</time></trkpt><trkpt lat="55.8393200" lon="49.1634970"><time>2021-09-11T18:30:20.557</time></trkpt><trkpt lat="55.8393040" lon="49.1634700"><time>2021-09-11T18:30:21.557</time></trkpt><trkpt lat="55.8392880" lon="49.1634450"><time>2021-09-11T18:30:22.557</time></trkpt><trkpt lat="55.8392710" lon="49.1634230"><time>2021-09-11T18:30:23.557</time></trkpt><trkpt lat="55.8392500" lon="49.1634040"><time>2021-09-11T18:30:24.557</time></trkpt><trkpt lat="55.8392290" lon="49.1633840"><time>2021-09-11T18:30:24.557</time></trkpt><trkpt lat="55.8392110" lon="49.1633640"><time>2021-09-11T18:30:25.557</time></trkpt><trkpt lat="55.8391950" lon="49.1633480"><time>2021-09-11T18:30:26.557</time></trkpt><trkpt lat="55.8391730" lon="49.1633270"><time>2021-09-11T18:30:27.557</time></trkpt><trkpt lat="55.8391640" lon="49.1633190"><time>2021-09-11T18:30:28.557</time></trkpt><trkpt lat="55.8391540" lon="49.1633120"><time>2021-09-11T18:30:32.557</time></trkpt><trkpt lat="55.8391450" lon="49.1633040"><time>2021-09-11T18:30:32.557</time></trkpt><trkpt lat="55.8391380" lon="49.1633090"><time>2021-09-11T18:30:33.557</time></trkpt><trkpt lat="55.8391270" lon="49.1633200"><time>2021-09-11T18:30:34.557</time></trkpt><trkpt lat="55.8391110" lon="49.1633400"><time>2021-09-11T18:30:35.557</time></trkpt><trkpt lat="55.8390950" lon="49.1633630"><time>2021-09-11T18:30:36.557</time></trkpt><trkpt lat="55.8390730" lon="49.1634060"><time>2021-09-11T18:30:38.557</time></trkpt><trkpt lat="55.8390660" lon="49.1634210"><time>2021-09-11T18:30:38.557</time></trkpt><trkpt lat="55.8390520" lon="49.1634570"><time>2021-09-11T18:30:39.557</time></trkpt><trkpt lat="55.8390400" lon="49.1634950"><time>2021-09-11T18:30:40.557</time></trkpt><trkpt lat="55.8390290" lon="49.1635340"><time>2021-09-11T18:30:41.557</time></trkpt><trkpt lat="55.8390180" lon="49.1635730"><time>2021-09-11T18:30:42.557</time></trkpt><trkpt lat="55.8390000" lon="49.1636290"><time>2021-09-11T18:30:44.557</time></trkpt><trkpt lat="55.8389940" lon="49.1636460"><time>2021-09-11T18:30:44.557</time></trkpt><trkpt lat="55.8389810" lon="49.1636780"><time>2021-09-11T18:30:45.557</time></trkpt><trkpt lat="55.8389680" lon="49.1637030"><time>2021-09-11T18:30:46.557</time></trkpt><trkpt lat="55.8389450" lon="49.1637140"><time>2021-09-11T18:30:47.557</time></trkpt><trkpt lat="55.8389340" lon="49.1637070"><time>2021-09-11T18:30:48.557</time></trkpt><trkpt lat="55.8389240" lon="49.1637010"><time>2021-09-11T18:30:49.557</time></trkpt><trkpt lat="55.8389140" lon="49.1636940"><time>2021-09-11T18:30:50.557</time></trkpt><trkpt lat="55.8389030" lon="49.1636870"><time>2021-09-11T18:30:51.557</time></trkpt><trkpt lat="55.8388930" lon="49.1636800"><time>2021-09-11T18:30:52.557</time></trkpt><trkpt lat="55.8388830" lon="49.1636740"><time>2021-09-11T18:30:53.557</time></trkpt><trkpt lat="55.8388720" lon="49.1636670"><time>2021-09-11T18:30:55.557</time></trkpt><trkpt lat="55.8388620" lon="49.1636600"><time>2021-09-11T18:30:55.557</time></trkpt><trkpt lat="55.8388530" lon="49.1636390"><time>2021-09-11T18:30:56.557</time></trkpt><trkpt lat="55.8388450" lon="49.1636190"><time>2021-09-11T18:30:57.557</time></trkpt><trkpt lat="55.8388380" lon="49.1636010"><time>2021-09-11T18:30:58.557</time></trkpt><trkpt lat="55.8388310" lon="49.1635830"><time>2021-09-11T18:30:59.557</time></trkpt><trkpt lat="55.8388220" lon="49.1635660"><time>2021-09-11T18:31:00.557</time></trkpt><trkpt lat="55.8388140" lon="49.1635520"><time>2021-09-11T18:31:01.557</time></trkpt><trkpt lat="55.8388020" lon="49.1635420"><time>2021-09-11T18:31:02.557</time></trkpt><trkpt lat="55.8387920" lon="49.1635360"><time>2021-09-11T18:31:03.557</time></trkpt><trkpt lat="55.8387810" lon="49.1635330"><time>2021-09-11T18:31:04.557</time></trkpt><trkpt lat="55.8387680" lon="49.1635340"><time>2021-09-11T18:31:05.557</time></trkpt><trkpt lat="55.8387560" lon="49.1635350"><time>2021-09-11T18:31:06.557</time></trkpt><trkpt lat="55.8387470" lon="49.1635370"><time>2021-09-11T18:31:07.557</time></trkpt><trkpt lat="55.8387400" lon="49.1635430"><time>2021-09-11T18:31:08.557</time></trkpt><trkpt lat="55.8387350" lon="49.1635550"><time>2021-09-11T18:31:09.557</time></trkpt><trkpt lat="55.8387330" lon="49.1635690"><time>2021-09-11T18:31:10.557</time></trkpt><trkpt lat="55.8387310" lon="49.1635910"><time>2021-09-11T18:31:11.557</time></trkpt><trkpt lat="55.8387290" lon="49.1636180"><time>2021-09-11T18:31:12.557</time></trkpt><trkpt lat="55.8387290" lon="49.1636520"><time>2021-09-11T18:31:13.557</time></trkpt><trkpt lat="55.8387300" lon="49.1636900"><time>2021-09-11T18:31:14.557</time></trkpt><trkpt lat="55.8387300" lon="49.1637480"><time>2021-09-11T18:31:16.557</time></trkpt><trkpt lat="55.8387300" lon="49.1637680"><time>2021-09-11T18:31:16.557</time></trkpt><trkpt lat="55.8387300" lon="49.1638110"><time>2021-09-11T18:31:17.557</time></trkpt><trkpt lat="55.8387320" lon="49.1638580"><time>2021-09-11T18:31:18.557</time></trkpt><trkpt lat="55.8387330" lon="49.1639030"><time>2021-09-11T18:31:19.557</time></trkpt><trkpt lat="55.8387350" lon="49.1639490"><time>2021-09-11T18:31:20.557</time></trkpt><trkpt lat="55.8387400" lon="49.1640230"><time>2021-09-11T18:31:22.557</time></trkpt><trkpt lat="55.8387410" lon="49.1640470"><time>2021-09-11T18:31:22.557</time></trkpt><trkpt lat="55.8387430" lon="49.1640960"><time>2021-09-11T18:31:23.557</time></trkpt><trkpt lat="55.8387450" lon="49.1641460"><time>2021-09-11T18:31:24.557</time></trkpt><trkpt lat="55.8387450" lon="49.1641940"><time>2021-09-11T18:31:25.557</time></trkpt><trkpt lat="55.8387420" lon="49.1642420"><time>2021-09-11T18:31:26.557</time></trkpt><trkpt lat="55.8387400" lon="49.1642890"><time>2021-09-11T18:31:27.557</time></trkpt><trkpt lat="55.8387380" lon="49.1643360"><time>2021-09-11T18:31:28.557</time></trkpt><trkpt lat="55.8387370" lon="49.1643820"><time>2021-09-11T18:31:29.557</time></trkpt><trkpt lat="55.8387360" lon="49.1644300"><time>2021-09-11T18:31:30.557</time></trkpt><trkpt lat="55.8387370" lon="49.1644760"><time>2021-09-11T18:31:31.557</time></trkpt><trkpt lat="55.8387380" lon="49.1645190"><time>2021-09-11T18:31:32.557</time></trkpt><trkpt lat="55.8387390" lon="49.1645630"><time>2021-09-11T18:31:33.557</time></trkpt><trkpt lat="55.8387430" lon="49.1646300"><time>2021-09-11T18:31:35.557</time></trkpt><trkpt lat="55.8387430" lon="49.1646530"><time>2021-09-11T18:31:35.557</time></trkpt><trkpt lat="55.8387430" lon="49.1647010"><time>2021-09-11T18:31:36.557</time></trkpt><trkpt lat="55.8387410" lon="49.1647430"><time>2021-09-11T18:31:37.557</time></trkpt><trkpt lat="55.8387390" lon="49.1648050"><time>2021-09-11T18:31:39.557</time></trkpt><trkpt lat="55.8387380" lon="49.1648260"><time>2021-09-11T18:31:39.557</time></trkpt><trkpt lat="55.8387380" lon="49.1648650"><time>2021-09-11T18:31:40.557</time></trkpt><trkpt lat="55.8387360" lon="49.1649010"><time>2021-09-11T18:31:41.557</time></trkpt><trkpt lat="55.8387290" lon="49.1649360"><time>2021-09-11T18:31:42.557</time></trkpt><trkpt lat="55.8387190" lon="49.1649730"><time>2021-09-11T18:31:43.557</time></trkpt><trkpt lat="55.8386980" lon="49.1650260"><time>2021-09-11T18:31:45.557</time></trkpt><trkpt lat="55.8386900" lon="49.1650420"><time>2021-09-11T18:31:45.557</time></trkpt><trkpt lat="55.8386740" lon="49.1650740"><time>2021-09-11T18:31:46.557</time></trkpt><trkpt lat="55.8386580" lon="49.1651040"><time>2021-09-11T18:31:47.557</time></trkpt><trkpt lat="55.8386390" lon="49.1651320"><time>2021-09-11T18:31:48.557</time></trkpt><trkpt lat="55.8386200" lon="49.1651550"><time>2021-09-11T18:31:49.557</time></trkpt><trkpt lat="55.8385980" lon="49.1651770"><time>2021-09-11T18:31:50.557</time></trkpt><trkpt lat="55.8385740" lon="49.1652000"><time>2021-09-11T18:31:51.557</time></trkpt><trkpt lat="55.8385490" lon="49.1652220"><time>2021-09-11T18:31:52.557</time></trkpt><trkpt lat="55.8385110" lon="49.1652530"><time>2021-09-11T18:31:54.557</time></trkpt><trkpt lat="55.8384980" lon="49.1652620"><time>2021-09-11T18:31:54.557</time></trkpt><trkpt lat="55.8384730" lon="49.1652790"><time>2021-09-11T18:31:55.557</time></trkpt><trkpt lat="55.8384450" lon="49.1652960"><time>2021-09-11T18:31:56.557</time></trkpt><trkpt lat="55.8384200" lon="49.1653120"><time>2021-09-11T18:31:57.557</time></trkpt><trkpt lat="55.8383960" lon="49.1653280"><time>2021-09-11T18:31:58.557</time></trkpt><trkpt lat="55.8383600" lon="49.1653480"><time>2021-09-11T18:32:00.557</time></trkpt><trkpt lat="55.8383480" lon="49.1653540"><time>2021-09-11T18:32:00.557</time></trkpt><trkpt lat="55.8383240" lon="49.1653650"><time>2021-09-11T18:32:01.557</time></trkpt><trkpt lat="55.8383000" lon="49.1653750"><time>2021-09-11T18:32:02.557</time></trkpt><trkpt lat="55.8382750" lon="49.1653860"><time>2021-09-11T18:32:03.557</time></trkpt><trkpt lat="55.8382480" lon="49.1653980"><time>2021-09-11T18:32:04.557</time></trkpt><trkpt lat="55.8382210" lon="49.1654110"><time>2021-09-11T18:32:05.557</time></trkpt><trkpt lat="55.8381960" lon="49.1654210"><time>2021-09-11T18:32:06.557</time></trkpt><trkpt lat="55.8381720" lon="49.1654310"><time>2021-09-11T18:32:07.557</time></trkpt><trkpt lat="55.8381460" lon="49.1654410"><time>2021-09-11T18:32:08.557</time></trkpt><trkpt lat="55.8381230" lon="49.1654510"><time>2021-09-11T18:32:09.557</time></trkpt><trkpt lat="55.8381010" lon="49.1654590"><time>2021-09-11T18:32:10.557</time></trkpt><trkpt lat="55.8380770" lon="49.1654680"><time>2021-09-11T18:32:11.557</time></trkpt><trkpt lat="55.8380540" lon="49.1654760"><time>2021-09-11T18:32:12.557</time></trkpt><trkpt lat="55.8380310" lon="49.1654840"><time>2021-09-11T18:32:13.557</time></trkpt><trkpt lat="55.8380080" lon="49.1654920"><time>2021-09-11T18:32:14.557</time></trkpt><trkpt lat="55.8379840" lon="49.1654990"><time>2021-09-11T18:32:15.557</time></trkpt><trkpt lat="55.8379620" lon="49.1655060"><time>2021-09-11T18:32:16.557</time></trkpt><trkpt lat="55.8379390" lon="49.1655140"><time>2021-09-11T18:32:17.557</time></trkpt><trkpt lat="55.8379170" lon="49.1655230"><time>2021-09-11T18:32:18.557</time></trkpt><trkpt lat="55.8378940" lon="49.1655350"><time>2021-09-11T18:32:19.557</time></trkpt><trkpt lat="55.8378590" lon="49.1655560"><time>2021-09-11T18:32:21.557</time></trkpt><trkpt lat="55.8378470" lon="49.1655640"><time>2021-09-11T18:32:21.557</time></trkpt><trkpt lat="55.8378240" lon="49.1655750"><time>2021-09-11T18:32:22.557</time></trkpt><trkpt lat="55.8378030" lon="49.1655860"><time>2021-09-11T18:32:23.557</time></trkpt><trkpt lat="55.8377800" lon="49.1655970"><time>2021-09-11T18:32:24.557</time></trkpt><trkpt lat="55.8377580" lon="49.1656060"><time>2021-09-11T18:32:25.557</time></trkpt><trkpt lat="55.8377220" lon="49.1656170"><time>2021-09-11T18:32:27.557</time></trkpt><trkpt lat="55.8377100" lon="49.1656200"><time>2021-09-11T18:32:27.557</time></trkpt><trkpt lat="55.8376870" lon="49.1656270"><time>2021-09-11T18:32:28.557</time></trkpt><trkpt lat="55.8376640" lon="49.1656340"><time>2021-09-11T18:32:29.557</time></trkpt><trkpt lat="55.8376400" lon="49.1656420"><time>2021-09-11T18:32:30.557</time></trkpt><trkpt lat="55.8376170" lon="49.1656500"><time>2021-09-11T18:32:31.557</time></trkpt><trkpt lat="55.8375930" lon="49.1656590"><time>2021-09-11T18:32:32.557</time></trkpt><trkpt lat="55.8375690" lon="49.1656690"><time>2021-09-11T18:32:33.557</time></trkpt><trkpt lat="55.8375440" lon="49.1656800"><time>2021-09-11T18:32:34.557</time></trkpt><trkpt lat="55.8375210" lon="49.1656900"><time>2021-09-11T18:32:35.557</time></trkpt><trkpt lat="55.8374980" lon="49.1657000"><time>2021-09-11T18:32:36.557</time></trkpt><trkpt lat="55.8374740" lon="49.1657100"><time>2021-09-11T18:32:37.557</time></trkpt><trkpt lat="55.8374500" lon="49.1657180"><time>2021-09-11T18:32:38.557</time></trkpt><trkpt lat="55.8374250" lon="49.1657270"><time>2021-09-11T18:32:39.557</time></trkpt><trkpt lat="55.8374000" lon="49.1657360"><time>2021-09-11T18:32:40.557</time></trkpt><trkpt lat="55.8373740" lon="49.1657470"><time>2021-09-11T18:32:41.557</time></trkpt><trkpt lat="55.8373470" lon="49.1657590"><time>2021-09-11T18:32:42.557</time></trkpt><trkpt lat="55.8373210" lon="49.1657690"><time>2021-09-11T18:32:44.557</time></trkpt><trkpt lat="55.8372940" lon="49.1657790"><time>2021-09-11T18:32:45.557</time></trkpt><trkpt lat="55.8372630" lon="49.1657870"><time>2021-09-11T18:32:45.557</time></trkpt><trkpt lat="55.8372350" lon="49.1657950"><time>2021-09-11T18:32:46.557</time></trkpt><trkpt lat="55.8372100" lon="49.1658000"><time>2021-09-11T18:32:47.557</time></trkpt><trkpt lat="55.8371820" lon="49.1658070"><time>2021-09-11T18:32:48.557</time></trkpt><trkpt lat="55.8371420" lon="49.1658140"><time>2021-09-11T18:32:50.557</time></trkpt><trkpt lat="55.8371280" lon="49.1658150"><time>2021-09-11T18:32:50.557</time></trkpt><trkpt lat="55.8371040" lon="49.1658130"><time>2021-09-11T18:32:51.557</time></trkpt><trkpt lat="55.8370780" lon="49.1658110"><time>2021-09-11T18:32:52.557</time></trkpt><trkpt lat="55.8370530" lon="49.1658100"><time>2021-09-11T18:32:53.557</time></trkpt><trkpt lat="55.8370140" lon="49.1658100"><time>2021-09-11T18:32:55.557</time></trkpt><trkpt lat="55.8370020" lon="49.1658100"><time>2021-09-11T18:32:55.557</time></trkpt><trkpt lat="55.8369770" lon="49.1658100"><time>2021-09-11T18:32:56.557</time></trkpt><trkpt lat="55.8369540" lon="49.1658110"><time>2021-09-11T18:32:57.557</time></trkpt><trkpt lat="55.8369270" lon="49.1658120"><time>2021-09-11T18:32:58.557</time></trkpt><trkpt lat="55.8369010" lon="49.1658150"><time>2021-09-11T18:32:59.557</time></trkpt><trkpt lat="55.8368620" lon="49.1658180"><time>2021-09-11T18:33:01.557</time></trkpt><trkpt lat="55.8368490" lon="49.1658180"><time>2021-09-11T18:33:01.557</time></trkpt><trkpt lat="55.8368240" lon="49.1658170"><time>2021-09-11T18:33:02.557</time></trkpt><trkpt lat="55.8368010" lon="49.1658150"><time>2021-09-11T18:33:03.557</time></trkpt><trkpt lat="55.8367770" lon="49.1658120"><time>2021-09-11T18:33:04.557</time></trkpt><trkpt lat="55.8367520" lon="49.1658100"><time>2021-09-11T18:33:05.557</time></trkpt><trkpt lat="55.8367270" lon="49.1658080"><time>2021-09-11T18:33:06.557</time></trkpt><trkpt lat="55.8367040" lon="49.1658100"><time>2021-09-11T18:33:07.557</time></trkpt><trkpt lat="55.8366800" lon="49.1658120"><time>2021-09-11T18:33:08.557</time></trkpt><trkpt lat="55.8366520" lon="49.1658140"><time>2021-09-11T18:33:09.557</time></trkpt><trkpt lat="55.8366280" lon="49.1658170"><time>2021-09-11T18:33:10.557</time></trkpt><trkpt lat="55.8366020" lon="49.1658180"><time>2021-09-11T18:33:11.557</time></trkpt><trkpt lat="55.8365770" lon="49.1658180"><time>2021-09-11T18:33:12.557</time></trkpt><trkpt lat="55.8365500" lon="49.1658200"><time>2021-09-11T18:33:13.557</time></trkpt><trkpt lat="55.8365130" lon="49.1658220"><time>2021-09-11T18:33:15.557</time></trkpt><trkpt lat="55.8365000" lon="49.1658220"><time>2021-09-11T18:33:15.557</time></trkpt><trkpt lat="55.8364770" lon="49.1658210"><time>2021-09-11T18:33:16.557</time></trkpt><trkpt lat="55.8364540" lon="49.1658220"><time>2021-09-11T18:33:17.557</time></trkpt><trkpt lat="55.8364310" lon="49.1658220"><time>2021-09-11T18:33:18.557</time></trkpt><trkpt lat="55.8364060" lon="49.1658230"><time>2021-09-11T18:33:19.557</time></trkpt><trkpt lat="55.8363820" lon="49.1658260"><time>2021-09-11T18:33:20.557</time></trkpt><trkpt lat="55.8363580" lon="49.1658270"><time>2021-09-11T18:33:21.557</time></trkpt><trkpt lat="55.8363340" lon="49.1658260"><time>2021-09-11T18:33:22.557</time></trkpt><trkpt lat="55.8363100" lon="49.1658220"><time>2021-09-11T18:33:23.557</time></trkpt><trkpt lat="55.8362870" lon="49.1658150"><time>2021-09-11T18:33:24.557</time></trkpt><trkpt lat="55.8362640" lon="49.1658080"><time>2021-09-11T18:33:25.557</time></trkpt><trkpt lat="55.8362400" lon="49.1658000"><time>2021-09-11T18:33:26.557</time></trkpt><trkpt lat="55.8362140" lon="49.1657930"><time>2021-09-11T18:33:27.557</time></trkpt><trkpt lat="55.8361880" lon="49.1657890"><time>2021-09-11T18:33:28.557</time></trkpt><trkpt lat="55.8361640" lon="49.1657840"><time>2021-09-11T18:33:29.557</time></trkpt><trkpt lat="55.8361410" lon="49.1657770"><time>2021-09-11T18:33:30.557</time></trkpt><trkpt lat="55.8361060" lon="49.1657630"><time>2021-09-11T18:33:32.557</time></trkpt><trkpt lat="55.8360940" lon="49.1657580"><time>2021-09-11T18:33:32.557</time></trkpt><trkpt lat="55.8360710" lon="49.1657450"><time>2021-09-11T18:33:33.557</time></trkpt><trkpt lat="55.8360490" lon="49.1657320"><time>2021-09-11T18:33:34.557</time></trkpt><trkpt lat="55.8360310" lon="49.1657160"><time>2021-09-11T18:33:35.557</time></trkpt><trkpt lat="55.8360130" lon="49.1656960"><time>2021-09-11T18:33:36.557</time></trkpt><trkpt lat="55.8359970" lon="49.1656710"><time>2021-09-11T18:33:38.557</time></trkpt><trkpt lat="55.8359840" lon="49.1656380"><time>2021-09-11T18:33:39.557</time></trkpt><trkpt lat="55.8359730" lon="49.1656030"><time>2021-09-11T18:33:39.557</time></trkpt><trkpt lat="55.8359650" lon="49.1655650"><time>2021-09-11T18:33:40.557</time></trkpt><trkpt lat="55.8359580" lon="49.1655300"><time>2021-09-11T18:33:41.557</time></trkpt><trkpt lat="55.8359520" lon="49.1654950"><time>2021-09-11T18:33:42.557</time></trkpt><trkpt lat="55.8359450" lon="49.1654580"><time>2021-09-11T18:33:43.557</time></trkpt><trkpt lat="55.8359390" lon="49.1654200"><time>2021-09-11T18:33:44.557</time></trkpt><trkpt lat="55.8359300" lon="49.1653820"><time>2021-09-11T18:33:45.557</time></trkpt><trkpt lat="55.8359230" lon="49.1653420"><time>2021-09-11T18:33:46.557</time></trkpt><trkpt lat="55.8359140" lon="49.1652990"><time>2021-09-11T18:33:47.557</time></trkpt><trkpt lat="55.8359060" lon="49.1652560"><time>2021-09-11T18:33:48.557</time></trkpt><trkpt lat="55.8358990" lon="49.1652130"><time>2021-09-11T18:33:49.557</time></trkpt><trkpt lat="55.8358940" lon="49.1651730"><time>2021-09-11T18:33:50.557</time></trkpt><trkpt lat="55.8358900" lon="49.1651330"><time>2021-09-11T18:33:51.557</time></trkpt><trkpt lat="55.8358870" lon="49.1650900"><time>2021-09-11T18:33:52.557</time></trkpt><trkpt lat="55.8358860" lon="49.1650490"><time>2021-09-11T18:33:53.557</time></trkpt><trkpt lat="55.8358830" lon="49.1650080"><time>2021-09-11T18:33:54.557</time></trkpt><trkpt lat="55.8358790" lon="49.1649670"><time>2021-09-11T18:33:55.557</time></trkpt><trkpt lat="55.8358740" lon="49.1649270"><time>2021-09-11T18:33:56.557</time></trkpt><trkpt lat="55.8358690" lon="49.1648880"><time>2021-09-11T18:33:57.557</time></trkpt><trkpt lat="55.8358600" lon="49.1648270"><time>2021-09-11T18:33:59.557</time></trkpt><trkpt lat="55.8358560" lon="49.1648060"><time>2021-09-11T18:33:59.557</time></trkpt><trkpt lat="55.8358480" lon="49.1647640"><time>2021-09-11T18:34:00.557</time></trkpt><trkpt lat="55.8358400" lon="49.1647250"><time>2021-09-11T18:34:01.557</time></trkpt><trkpt lat="55.8358300" lon="49.1646860"><time>2021-09-11T18:34:02.557</time></trkpt><trkpt lat="55.8358180" lon="49.1646500"><time>2021-09-11T18:34:03.557</time></trkpt><trkpt lat="55.8357940" lon="49.1646040"><time>2021-09-11T18:34:05.557</time></trkpt><trkpt lat="55.8357850" lon="49.1645900"><time>2021-09-11T18:34:05.557</time></trkpt><trkpt lat="55.8357650" lon="49.1645690"><time>2021-09-11T18:34:06.557</time></trkpt><trkpt lat="55.8357450" lon="49.1645610"><time>2021-09-11T18:34:07.557</time></trkpt><trkpt lat="55.8357270" lon="49.1645630"><time>2021-09-11T18:34:08.557</time></trkpt><trkpt lat="55.8357110" lon="49.1645750"><time>2021-09-11T18:34:09.557</time></trkpt><trkpt lat="55.8356950" lon="49.1645940"><time>2021-09-11T18:34:10.557</time></trkpt><trkpt lat="55.8356800" lon="49.1646180"><time>2021-09-11T18:34:11.557</time></trkpt><trkpt lat="55.8356660" lon="49.1646470"><time>2021-09-11T18:34:12.557</time></trkpt><trkpt lat="55.8356520" lon="49.1646790"><time>2021-09-11T18:34:13.557</time></trkpt><trkpt lat="55.8356380" lon="49.1647120"><time>2021-09-11T18:34:14.557</time></trkpt><trkpt lat="55.8356240" lon="49.1647450"><time>2021-09-11T18:34:15.557</time></trkpt><trkpt lat="55.8356110" lon="49.1647770"><time>2021-09-11T18:34:16.557</time></trkpt><trkpt lat="55.8355980" lon="49.1648080"><time>2021-09-11T18:34:17.557</time></trkpt><trkpt lat="55.8355870" lon="49.1648370"><time>2021-09-11T18:34:18.557</time></trkpt><trkpt lat="55.8355740" lon="49.1648720"><time>2021-09-11T18:34:19.557</time></trkpt><trkpt lat="55.8355610" lon="49.1649100"><time>2021-09-11T18:34:20.557</time></trkpt><trkpt lat="55.8355460" lon="49.1649500"><time>2021-09-11T18:34:21.557</time></trkpt><trkpt lat="55.8355330" lon="49.1649860"><time>2021-09-11T18:34:22.557</time></trkpt><trkpt lat="55.8355200" lon="49.1650200"><time>2021-09-11T18:34:23.557</time></trkpt><trkpt lat="55.8355050" lon="49.1650530"><time>2021-09-11T18:34:24.557</time></trkpt><trkpt lat="55.8354850" lon="49.1650830"><time>2021-09-11T18:34:25.557</time></trkpt><trkpt lat="55.8354630" lon="49.1651070"><time>2021-09-11T18:34:26.557</time></trkpt><trkpt lat="55.8354410" lon="49.1651240"><time>2021-09-11T18:34:27.557</time></trkpt><trkpt lat="55.8354200" lon="49.1651330"><time>2021-09-11T18:34:28.557</time></trkpt><trkpt lat="55.8353890" lon="49.1651310"><time>2021-09-11T18:34:30.557</time></trkpt><trkpt lat="55.8353780" lon="49.1651280"><time>2021-09-11T18:34:30.557</time></trkpt><trkpt lat="55.8353590" lon="49.1651170"><time>2021-09-11T18:34:31.557</time></trkpt><trkpt lat="55.8353410" lon="49.1651020"><time>2021-09-11T18:34:32.557</time></trkpt><trkpt lat="55.8353240" lon="49.1650840"><time>2021-09-11T18:34:33.557</time></trkpt><trkpt lat="55.8353090" lon="49.1650620"><time>2021-09-11T18:34:34.557</time></trkpt><trkpt lat="55.8352870" lon="49.1650240"><time>2021-09-11T18:34:36.557</time></trkpt><trkpt lat="55.8352790" lon="49.1650110"><time>2021-09-11T18:34:36.557</time></trkpt><trkpt lat="55.8352620" lon="49.1649850"><time>2021-09-11T18:34:37.557</time></trkpt><trkpt lat="55.8352450" lon="49.1649570"><time>2021-09-11T18:34:38.557</time></trkpt><trkpt lat="55.8352260" lon="49.1649260"><time>2021-09-11T18:34:39.557</time></trkpt><trkpt lat="55.8352080" lon="49.1648950"><time>2021-09-11T18:34:39.557</time></trkpt><trkpt lat="55.8351890" lon="49.1648650"><time>2021-09-11T18:34:40.557</time></trkpt><trkpt lat="55.8351700" lon="49.1648330"><time>2021-09-11T18:34:41.557</time></trkpt><trkpt lat="55.8351530" lon="49.1648020"><time>2021-09-11T18:34:42.557</time></trkpt><trkpt lat="55.8351360" lon="49.1647710"><time>2021-09-11T18:34:43.557</time></trkpt><trkpt lat="55.8351170" lon="49.1647430"><time>2021-09-11T18:34:44.557</time></trkpt><trkpt lat="55.8350990" lon="49.1647170"><time>2021-09-11T18:34:45.557</time></trkpt><trkpt lat="55.8350790" lon="49.1646920"><time>2021-09-11T18:34:46.557</time></trkpt><trkpt lat="55.8350600" lon="49.1646680"><time>2021-09-11T18:34:47.557</time></trkpt><trkpt lat="55.8350430" lon="49.1646450"><time>2021-09-11T18:34:48.557</time></trkpt><trkpt lat="55.8350240" lon="49.1646200"><time>2021-09-11T18:34:49.557</time></trkpt><trkpt lat="55.8350060" lon="49.1645960"><time>2021-09-11T18:34:50.557</time></trkpt><trkpt lat="55.8349870" lon="49.1645740"><time>2021-09-11T18:34:51.557</time></trkpt><trkpt lat="55.8349680" lon="49.1645510"><time>2021-09-11T18:34:52.557</time></trkpt><trkpt lat="55.8349480" lon="49.1645280"><time>2021-09-11T18:34:53.557</time></trkpt><trkpt lat="55.8349270" lon="49.1645050"><time>2021-09-11T18:34:54.557</time></trkpt><trkpt lat="55.8349070" lon="49.1644820"><time>2021-09-11T18:34:55.557</time></trkpt><trkpt lat="55.8348870" lon="49.1644610"><time>2021-09-11T18:34:56.557</time></trkpt><trkpt lat="55.8348680" lon="49.1644390"><time>2021-09-11T18:34:57.557</time></trkpt><trkpt lat="55.8348500" lon="49.1644160"><time>2021-09-11T18:34:58.557</time></trkpt><trkpt lat="55.8348300" lon="49.1643960"><time>2021-09-11T18:34:59.557</time></trkpt><trkpt lat="55.8348100" lon="49.1643780"><time>2021-09-11T18:35:00.557</time></trkpt><trkpt lat="55.8347900" lon="49.1643610"><time>2021-09-11T18:35:01.557</time></trkpt><trkpt lat="55.8347580" lon="49.1643380"><time>2021-09-11T18:35:03.557</time></trkpt><trkpt lat="55.8347460" lon="49.1643310"><time>2021-09-11T18:35:03.557</time></trkpt><trkpt lat="55.8347220" lon="49.1643170"><time>2021-09-11T18:35:04.557</time></trkpt><trkpt lat="55.8346980" lon="49.1642990"><time>2021-09-11T18:35:05.557</time></trkpt><trkpt lat="55.8346740" lon="49.1642800"><time>2021-09-11T18:35:06.557</time></trkpt><trkpt lat="55.8346500" lon="49.1642590"><time>2021-09-11T18:35:07.557</time></trkpt><trkpt lat="55.8346270" lon="49.1642380"><time>2021-09-11T18:35:08.557</time></trkpt><trkpt lat="55.8346030" lon="49.1642180"><time>2021-09-11T18:35:09.557</time></trkpt><trkpt lat="55.8345800" lon="49.1641970"><time>2021-09-11T18:35:10.557</time></trkpt><trkpt lat="55.8345560" lon="49.1641770"><time>2021-09-11T18:35:11.557</time></trkpt><trkpt lat="55.8345340" lon="49.1641570"><time>2021-09-11T18:35:12.557</time></trkpt><trkpt lat="55.8345130" lon="49.1641370"><time>2021-09-11T18:35:13.557</time></trkpt><trkpt lat="55.8344920" lon="49.1641150"><time>2021-09-11T18:35:14.557</time></trkpt><trkpt lat="55.8344700" lon="49.1640910"><time>2021-09-11T18:35:15.557</time></trkpt><trkpt lat="55.8344450" lon="49.1640710"><time>2021-09-11T18:35:16.557</time></trkpt><trkpt lat="55.8344230" lon="49.1640530"><time>2021-09-11T18:35:17.557</time></trkpt><trkpt lat="55.8343970" lon="49.1640400"><time>2021-09-11T18:35:18.557</time></trkpt><trkpt lat="55.8343740" lon="49.1640300"><time>2021-09-11T18:35:19.557</time></trkpt><trkpt lat="55.8343520" lon="49.1640240"><time>2021-09-11T18:35:20.557</time></trkpt><trkpt lat="55.8343330" lon="49.1640260"><time>2021-09-11T18:35:21.557</time></trkpt><trkpt lat="55.8343140" lon="49.1640350"><time>2021-09-11T18:35:22.557</time></trkpt><trkpt lat="55.8343000" lon="49.1640480"><time>2021-09-11T18:35:23.557</time></trkpt><trkpt lat="55.8342840" lon="49.1640680"><time>2021-09-11T18:35:24.557</time></trkpt><trkpt lat="55.8342580" lon="49.1640970"><time>2021-09-11T18:35:26.557</time></trkpt><trkpt lat="55.8342490" lon="49.1641050"><time>2021-09-11T18:35:26.557</time></trkpt><trkpt lat="55.8342310" lon="49.1641160"><time>2021-09-11T18:35:27.557</time></trkpt><trkpt lat="55.8342110" lon="49.1641200"><time>2021-09-11T18:35:28.557</time></trkpt><trkpt lat="55.8341800" lon="49.1641140"><time>2021-09-11T18:35:30.557</time></trkpt><trkpt lat="55.8341690" lon="49.1641110"><time>2021-09-11T18:35:30.557</time></trkpt><trkpt lat="55.8341480" lon="49.1641020"><time>2021-09-11T18:35:31.557</time></trkpt><trkpt lat="55.8341270" lon="49.1640890"><time>2021-09-11T18:35:32.557</time></trkpt><trkpt lat="55.8341080" lon="49.1640740"><time>2021-09-11T18:35:33.557</time></trkpt><trkpt lat="55.8340890" lon="49.1640550"><time>2021-09-11T18:35:34.557</time></trkpt><trkpt lat="55.8340600" lon="49.1640230"><time>2021-09-11T18:35:36.557</time></trkpt><trkpt lat="55.8340500" lon="49.1640130"><time>2021-09-11T18:35:36.557</time></trkpt><trkpt lat="55.8340310" lon="49.1639920"><time>2021-09-11T18:35:37.557</time></trkpt><trkpt lat="55.8340120" lon="49.1639700"><time>2021-09-11T18:35:38.557</time></trkpt><trkpt lat="55.8339840" lon="49.1639380"><time>2021-09-11T18:35:40.557</time></trkpt><trkpt lat="55.8339750" lon="49.1639270"><time>2021-09-11T18:35:40.557</time></trkpt><trkpt lat="55.8339570" lon="49.1639070"><time>2021-09-11T18:35:41.557</time></trkpt><trkpt lat="55.8339380" lon="49.1638880"><time>2021-09-11T18:35:42.557</time></trkpt><trkpt lat="55.8339180" lon="49.1638730"><time>2021-09-11T18:35:43.557</time></trkpt><trkpt lat="55.8338960" lon="49.1638590"><time>2021-09-11T18:35:44.557</time></trkpt><trkpt lat="55.8338750" lon="49.1638430"><time>2021-09-11T18:35:45.557</time></trkpt><trkpt lat="55.8338530" lon="49.1638260"><time>2021-09-11T18:35:46.557</time></trkpt><trkpt lat="55.8338320" lon="49.1638120"><time>2021-09-11T18:35:47.557</time></trkpt><trkpt lat="55.8338120" lon="49.1638010"><time>2021-09-11T18:35:48.557</time></trkpt><trkpt lat="55.8337930" lon="49.1637930"><time>2021-09-11T18:35:49.557</time></trkpt><trkpt lat="55.8337770" lon="49.1637870"><time>2021-09-11T18:35:50.557</time></trkpt><trkpt lat="55.8337620" lon="49.1637850"><time>2021-09-11T18:35:51.557</time></trkpt><trkpt lat="55.8337460" lon="49.1637860"><time>2021-09-11T18:35:52.557</time></trkpt><trkpt lat="55.8337310" lon="49.1637890"><time>2021-09-11T18:35:53.557</time></trkpt><trkpt lat="55.8337150" lon="49.1637960"><time>2021-09-11T18:35:54.557</time></trkpt><trkpt lat="55.8337010" lon="49.1638060"><time>2021-09-11T18:35:55.557</time></trkpt><trkpt lat="55.8336880" lon="49.1638230"><time>2021-09-11T18:35:56.557</time></trkpt><trkpt lat="55.8336770" lon="49.1638450"><time>2021-09-11T18:35:57.557</time></trkpt><trkpt lat="55.8336670" lon="49.1638700"><time>2021-09-11T18:35:58.557</time></trkpt><trkpt lat="55.8336570" lon="49.1638980"><time>2021-09-11T18:35:59.557</time></trkpt><trkpt lat="55.8336450" lon="49.1639210"><time>2021-09-11T18:36:00.557</time></trkpt><trkpt lat="55.8336300" lon="49.1639360"><time>2021-09-11T18:36:01.557</time></trkpt><trkpt lat="55.8336130" lon="49.1639430"><time>2021-09-11T18:36:02.557</time></trkpt><trkpt lat="55.8335960" lon="49.1639470"><time>2021-09-11T18:36:03.557</time></trkpt><trkpt lat="55.8335780" lon="49.1639480"><time>2021-09-11T18:36:04.557</time></trkpt><trkpt lat="55.8335590" lon="49.1639480"><time>2021-09-11T18:36:05.557</time></trkpt><trkpt lat="55.8335390" lon="49.1639460"><time>2021-09-11T18:36:06.557</time></trkpt><trkpt lat="55.8335090" lon="49.1639400"><time>2021-09-11T18:36:08.557</time></trkpt><trkpt lat="55.8334990" lon="49.1639380"><time>2021-09-11T18:36:08.557</time></trkpt><trkpt lat="55.8334780" lon="49.1639390"><time>2021-09-11T18:36:09.557</time></trkpt><trkpt lat="55.8334560" lon="49.1639440"><time>2021-09-11T18:36:10.557</time></trkpt><trkpt lat="55.8334260" lon="49.1639640"><time>2021-09-11T18:36:12.557</time></trkpt><trkpt lat="55.8334160" lon="49.1639710"><time>2021-09-11T18:36:12.557</time></trkpt><trkpt lat="55.8333970" lon="49.1639890"><time>2021-09-11T18:36:13.557</time></trkpt><trkpt lat="55.8333810" lon="49.1640070"><time>2021-09-11T18:36:14.557</time></trkpt><trkpt lat="55.8333650" lon="49.1640320"><time>2021-09-11T18:36:15.557</time></trkpt><trkpt lat="55.8333590" lon="49.1640410"><time>2021-09-11T18:36:16.557</time></trkpt><trkpt lat="55.8333540" lon="49.1640490"><time>2021-09-11T18:36:18.557</time></trkpt><trkpt lat="55.8333480" lon="49.1640570"><time>2021-09-11T18:36:18.557</time></trkpt><trkpt lat="55.8333400" lon="49.1640690"><time>2021-09-11T18:36:19.557</time></trkpt><trkpt lat="55.8333380" lon="49.1640760"><time>2021-09-11T18:36:20.557</time></trkpt><trkpt lat="55.8333370" lon="49.1640830"><time>2021-09-11T18:36:21.557</time></trkpt><trkpt lat="55.8333360" lon="49.1640900"><time>2021-09-11T18:36:22.557</time></trkpt><trkpt lat="55.8333340" lon="49.1640970"><time>2021-09-11T18:36:23.557</time></trkpt><trkpt lat="55.8333330" lon="49.1641030"><time>2021-09-11T18:36:24.557</time></trkpt><trkpt lat="55.8333310" lon="49.1641100"><time>2021-09-11T18:36:25.557</time></trkpt><trkpt lat="55.8333300" lon="49.1641170"><time>2021-09-11T18:36:26.557</time></trkpt><trkpt lat="55.8333290" lon="49.1641240"><time>2021-09-11T18:36:27.557</time></trkpt><trkpt lat="55.8333270" lon="49.1641310"><time>2021-09-11T18:36:29.557</time></trkpt><trkpt lat="55.8333260" lon="49.1641380"><time>2021-09-11T18:36:29.557</time></trkpt><trkpt lat="55.8333230" lon="49.1641670"><time>2021-09-11T18:36:30.557</time></trkpt><trkpt lat="55.8333180" lon="49.1641990"><time>2021-09-11T18:36:31.557</time></trkpt><trkpt lat="55.8333150" lon="49.1642320"><time>2021-09-11T18:36:32.557</time></trkpt><trkpt lat="55.8333120" lon="49.1642680"><time>2021-09-11T18:36:33.557</time></trkpt><trkpt lat="55.8333030" lon="49.1643190"><time>2021-09-11T18:36:35.557</time></trkpt><trkpt lat="55.8332980" lon="49.1643340"><time>2021-09-11T18:36:35.557</time></trkpt><trkpt lat="55.8332850" lon="49.1643600"><time>2021-09-11T18:36:36.557</time></trkpt><trkpt lat="55.8332710" lon="49.1643800"><time>2021-09-11T18:36:37.557</time></trkpt><trkpt lat="55.8332600" lon="49.1643940"><time>2021-09-11T18:36:38.557</time></trkpt><trkpt lat="55.8332490" lon="49.1644040"><time>2021-09-11T18:36:39.557</time></trkpt><trkpt lat="55.8332400" lon="49.1644140"><time>2021-09-11T18:36:40.557</time></trkpt><trkpt lat="55.8332350" lon="49.1644260"><time>2021-09-11T18:36:41.557</time></trkpt><trkpt lat="55.8332310" lon="49.1644390"><time>2021-09-11T18:36:42.557</time></trkpt><trkpt lat="55.8332280" lon="49.1644570"><time>2021-09-11T18:36:43.557</time></trkpt><trkpt lat="55.8332270" lon="49.1644810"><time>2021-09-11T18:36:44.557</time></trkpt><trkpt lat="55.8332240" lon="49.1645030"><time>2021-09-11T18:36:45.557</time></trkpt><trkpt lat="55.8332160" lon="49.1645180"><time>2021-09-11T18:36:46.557</time></trkpt><trkpt lat="55.8332030" lon="49.1645250"><time>2021-09-11T18:36:47.557</time></trkpt><trkpt lat="55.8331870" lon="49.1645260"><time>2021-09-11T18:36:48.557</time></trkpt><trkpt lat="55.8331690" lon="49.1645200"><time>2021-09-11T18:36:49.557</time></trkpt><trkpt lat="55.8331480" lon="49.1645090"><time>2021-09-11T18:36:50.557</time></trkpt><trkpt lat="55.8331260" lon="49.1644990"><time>2021-09-11T18:36:51.557</time></trkpt><trkpt lat="55.8331020" lon="49.1644910"><time>2021-09-11T18:36:52.557</time></trkpt><trkpt lat="55.8330790" lon="49.1644870"><time>2021-09-11T18:36:53.557</time></trkpt><trkpt lat="55.8330540" lon="49.1644850"><time>2021-09-11T18:36:54.557</time></trkpt><trkpt lat="55.8330310" lon="49.1644880"><time>2021-09-11T18:36:55.557</time></trkpt><trkpt lat="55.8330080" lon="49.1644930"><time>2021-09-11T18:36:56.557</time></trkpt><trkpt lat="55.8329830" lon="49.1645000"><time>2021-09-11T18:36:57.557</time></trkpt><trkpt lat="55.8329580" lon="49.1645100"><time>2021-09-11T18:36:58.557</time></trkpt><trkpt lat="55.8329330" lon="49.1645210"><time>2021-09-11T18:36:59.557</time></trkpt><trkpt lat="55.8329100" lon="49.1645330"><time>2021-09-11T18:37:00.557</time></trkpt><trkpt lat="55.8328860" lon="49.1645430"><time>2021-09-11T18:37:01.557</time></trkpt><trkpt lat="55.8328530" lon="49.1645580"><time>2021-09-11T18:37:03.557</time></trkpt><trkpt lat="55.8328420" lon="49.1645640"><time>2021-09-11T18:37:03.557</time></trkpt><trkpt lat="55.8328180" lon="49.1645800"><time>2021-09-11T18:37:04.557</time></trkpt><trkpt lat="55.8327950" lon="49.1645940"><time>2021-09-11T18:37:05.557</time></trkpt><trkpt lat="55.8327720" lon="49.1646060"><time>2021-09-11T18:37:06.557</time></trkpt><trkpt lat="55.8327470" lon="49.1646130"><time>2021-09-11T18:37:07.557</time></trkpt><trkpt lat="55.8327230" lon="49.1646180"><time>2021-09-11T18:37:08.557</time></trkpt><trkpt lat="55.8326990" lon="49.1646200"><time>2021-09-11T18:37:09.557</time></trkpt><trkpt lat="55.8326760" lon="49.1646170"><time>2021-09-11T18:37:10.557</time></trkpt><trkpt lat="55.8326550" lon="49.1646090"><time>2021-09-11T18:37:11.557</time></trkpt><trkpt lat="55.8326330" lon="49.1645970"><time>2021-09-11T18:37:12.557</time></trkpt><trkpt lat="55.8326120" lon="49.1645860"><time>2021-09-11T18:37:13.557</time></trkpt><trkpt lat="55.8325920" lon="49.1645790"><time>2021-09-11T18:37:14.557</time></trkpt><trkpt lat="55.8325720" lon="49.1645740"><time>2021-09-11T18:37:15.557</time></trkpt><trkpt lat="55.8325510" lon="49.1645750"><time>2021-09-11T18:37:16.557</time></trkpt><trkpt lat="55.8325260" lon="49.1645810"><time>2021-09-11T18:37:17.557</time></trkpt><trkpt lat="55.8325060" lon="49.1645930"><time>2021-09-11T18:37:18.557</time></trkpt><trkpt lat="55.8324880" lon="49.1646130"><time>2021-09-11T18:37:19.557</time></trkpt><trkpt lat="55.8324730" lon="49.1646380"><time>2021-09-11T18:37:20.557</time></trkpt><trkpt lat="55.8324550" lon="49.1646620"><time>2021-09-11T18:37:21.557</time></trkpt><trkpt lat="55.8324360" lon="49.1646790"><time>2021-09-11T18:37:22.557</time></trkpt><trkpt lat="55.8324150" lon="49.1646900"><time>2021-09-11T18:37:23.557</time></trkpt><trkpt lat="55.8323930" lon="49.1646990"><time>2021-09-11T18:37:24.557</time></trkpt><trkpt lat="55.8323710" lon="49.1647070"><time>2021-09-11T18:37:25.557</time></trkpt><trkpt lat="55.8323490" lon="49.1647110"><time>2021-09-11T18:37:26.557</time></trkpt><trkpt lat="55.8323270" lon="49.1647170"><time>2021-09-11T18:37:27.557</time></trkpt><trkpt lat="55.8323050" lon="49.1647190"><time>2021-09-11T18:37:28.557</time></trkpt><trkpt lat="55.8322830" lon="49.1647200"><time>2021-09-11T18:37:29.557</time></trkpt><trkpt lat="55.8322610" lon="49.1647220"><time>2021-09-11T18:37:30.557</time></trkpt><trkpt lat="55.8322390" lon="49.1647220"><time>2021-09-11T18:37:31.557</time></trkpt><trkpt lat="55.8322160" lon="49.1647200"><time>2021-09-11T18:37:32.557</time></trkpt><trkpt lat="55.8321790" lon="49.1647180"><time>2021-09-11T18:37:34.557</time></trkpt><trkpt lat="55.8321660" lon="49.1647170"><time>2021-09-11T18:37:34.557</time></trkpt><trkpt lat="55.8321410" lon="49.1647150"><time>2021-09-11T18:37:35.557</time></trkpt><trkpt lat="55.8321170" lon="49.1647130"><time>2021-09-11T18:37:36.557</time></trkpt><trkpt lat="55.8320940" lon="49.1647110"><time>2021-09-11T18:37:37.557</time></trkpt><trkpt lat="55.8320700" lon="49.1647070"><time>2021-09-11T18:37:38.557</time></trkpt><trkpt lat="55.8320350" lon="49.1646960"><time>2021-09-11T18:37:40.557</time></trkpt><trkpt lat="55.8320230" lon="49.1646930"><time>2021-09-11T18:37:40.557</time></trkpt><trkpt lat="55.8320000" lon="49.1646840"><time>2021-09-11T18:37:41.557</time></trkpt><trkpt lat="55.8319770" lon="49.1646750"><time>2021-09-11T18:37:42.557</time></trkpt><trkpt lat="55.8319510" lon="49.1646650"><time>2021-09-11T18:37:43.557</time></trkpt><trkpt lat="55.8319250" lon="49.1646580"><time>2021-09-11T18:37:44.557</time></trkpt><trkpt lat="55.8319000" lon="49.1646540"><time>2021-09-11T18:37:45.557</time></trkpt><trkpt lat="55.8318750" lon="49.1646550"><time>2021-09-11T18:37:46.557</time></trkpt><trkpt lat="55.8318500" lon="49.1646550"><time>2021-09-11T18:37:47.557</time></trkpt><trkpt lat="55.8318250" lon="49.1646500"><time>2021-09-11T18:37:48.557</time></trkpt><trkpt lat="55.8318040" lon="49.1646410"><time>2021-09-11T18:37:49.557</time></trkpt><trkpt lat="55.8317830" lon="49.1646280"><time>2021-09-11T18:37:50.557</time></trkpt><trkpt lat="55.8317610" lon="49.1646110"><time>2021-09-11T18:37:51.557</time></trkpt><trkpt lat="55.8317390" lon="49.1645920"><time>2021-09-11T18:37:52.557</time></trkpt><trkpt lat="55.8317180" lon="49.1645710"><time>2021-09-11T18:37:53.557</time></trkpt><trkpt lat="55.8316970" lon="49.1645520"><time>2021-09-11T18:37:54.557</time></trkpt><trkpt lat="55.8316750" lon="49.1645340"><time>2021-09-11T18:37:55.557</time></trkpt><trkpt lat="55.8316520" lon="49.1645190"><time>2021-09-11T18:37:56.557</time></trkpt><trkpt lat="55.8316280" lon="49.1645080"><time>2021-09-11T18:37:57.557</time></trkpt><trkpt lat="55.8316050" lon="49.1645000"><time>2021-09-11T18:37:58.557</time></trkpt><trkpt lat="55.8315820" lon="49.1644960"><time>2021-09-11T18:37:59.557</time></trkpt><trkpt lat="55.8315580" lon="49.1644950"><time>2021-09-11T18:38:00.557</time></trkpt><trkpt lat="55.8315350" lon="49.1644980"><time>2021-09-11T18:38:01.557</time></trkpt><trkpt lat="55.8315110" lon="49.1645040"><time>2021-09-11T18:38:02.557</time></trkpt><trkpt lat="55.8314880" lon="49.1645110"><time>2021-09-11T18:38:03.557</time></trkpt><trkpt lat="55.8314650" lon="49.1645150"><time>2021-09-11T18:38:04.557</time></trkpt><trkpt lat="55.8314430" lon="49.1645190"><time>2021-09-11T18:38:05.557</time></trkpt><trkpt lat="55.8314210" lon="49.1645190"><time>2021-09-11T18:38:06.557</time></trkpt><trkpt lat="55.8313920" lon="49.1645080"><time>2021-09-11T18:38:08.557</time></trkpt><trkpt lat="55.8313830" lon="49.1645040"><time>2021-09-11T18:38:08.557</time></trkpt><trkpt lat="55.8313650" lon="49.1644910"><time>2021-09-11T18:38:09.557</time></trkpt><trkpt lat="55.8313490" lon="49.1644780"><time>2021-09-11T18:38:10.557</time></trkpt><trkpt lat="55.8313250" lon="49.1644560"><time>2021-09-11T18:38:12.557</time></trkpt><trkpt lat="55.8313160" lon="49.1644490"><time>2021-09-11T18:38:12.557</time></trkpt><trkpt lat="55.8312970" lon="49.1644340"><time>2021-09-11T18:38:13.557</time></trkpt><trkpt lat="55.8312780" lon="49.1644200"><time>2021-09-11T18:38:14.557</time></trkpt><trkpt lat="55.8312580" lon="49.1644110"><time>2021-09-11T18:38:15.557</time></trkpt><trkpt lat="55.8312400" lon="49.1644080"><time>2021-09-11T18:38:16.557</time></trkpt><trkpt lat="55.8312210" lon="49.1644070"><time>2021-09-11T18:38:17.557</time></trkpt><trkpt lat="55.8312020" lon="49.1644040"><time>2021-09-11T18:38:18.557</time></trkpt><trkpt lat="55.8311820" lon="49.1644030"><time>2021-09-11T18:38:19.557</time></trkpt><trkpt lat="55.8311640" lon="49.1644020"><time>2021-09-11T18:38:20.557</time></trkpt><trkpt lat="55.8311450" lon="49.1643980"><time>2021-09-11T18:38:21.557</time></trkpt><trkpt lat="55.8311270" lon="49.1643930"><time>2021-09-11T18:38:22.557</time></trkpt><trkpt lat="55.8311030" lon="49.1643800"><time>2021-09-11T18:38:23.557</time></trkpt><trkpt lat="55.8310960" lon="49.1643710"><time>2021-09-11T18:38:24.557</time></trkpt><trkpt lat="55.8310880" lon="49.1643620"><time>2021-09-11T18:38:25.557</time></trkpt><trkpt lat="55.8310810" lon="49.1643530"><time>2021-09-11T18:38:26.557</time></trkpt><trkpt lat="55.8310740" lon="49.1643440"><time>2021-09-11T18:38:27.557</time></trkpt><trkpt lat="55.8310670" lon="49.1643350"><time>2021-09-11T18:38:28.557</time></trkpt><trkpt lat="55.8310600" lon="49.1643260"><time>2021-09-11T18:38:29.557</time></trkpt><trkpt lat="55.8310530" lon="49.1643170"><time>2021-09-11T18:38:30.557</time></trkpt><trkpt lat="55.8310450" lon="49.1643090"><time>2021-09-11T18:38:31.557</time></trkpt><trkpt lat="55.8310380" lon="49.1643000"><time>2021-09-11T18:38:32.557</time></trkpt><trkpt lat="55.8310310" lon="49.1642910"><time>2021-09-11T18:38:37.557</time></trkpt><trkpt lat="55.8310240" lon="49.1642820"><time>2021-09-11T18:38:38.557</time></trkpt><trkpt lat="55.8310170" lon="49.1642730"><time>2021-09-11T18:38:39.557</time></trkpt><trkpt lat="55.8310100" lon="49.1642640"><time>2021-09-11T18:38:40.557</time></trkpt><trkpt lat="55.8310020" lon="49.1642550"><time>2021-09-11T18:38:41.557</time></trkpt><trkpt lat="55.8309950" lon="49.1642460"><time>2021-09-11T18:38:43.557</time></trkpt><trkpt lat="55.8309880" lon="49.1642370"><time>2021-09-11T18:38:43.557</time></trkpt><trkpt lat="55.8309790" lon="49.1642160"><time>2021-09-11T18:38:44.557</time></trkpt><trkpt lat="55.8309740" lon="49.1642080"><time>2021-09-11T18:38:45.557</time></trkpt><trkpt lat="55.8309690" lon="49.1641990"><time>2021-09-11T18:38:51.557</time></trkpt><trkpt lat="55.8309640" lon="49.1641910"><time>2021-09-11T18:38:51.557</time></trkpt><trkpt lat="55.8309540" lon="49.1641790"><time>2021-09-11T18:38:52.557</time></trkpt><trkpt lat="55.8309490" lon="49.1641710"><time>2021-09-11T18:38:53.557</time></trkpt><trkpt lat="55.8309430" lon="49.1641620"><time>2021-09-11T18:38:54.557</time></trkpt><trkpt lat="55.8309380" lon="49.1641540"><time>2021-09-11T18:38:55.557</time></trkpt><trkpt lat="55.8309320" lon="49.1641460"><time>2021-09-11T18:38:55.557</time></trkpt><trkpt lat="55.8309240" lon="49.1641290"><time>2021-09-11T18:38:56.557</time></trkpt><trkpt lat="55.8309140" lon="49.1641120"><time>2021-09-11T18:38:57.557</time></trkpt><trkpt lat="55.8309040" lon="49.1640940"><time>2021-09-11T18:38:58.557</time></trkpt><trkpt lat="55.8308910" lon="49.1640720"><time>2021-09-11T18:38:59.557</time></trkpt><trkpt lat="55.8308730" lon="49.1640370"><time>2021-09-11T18:39:01.557</time></trkpt><trkpt lat="55.8308670" lon="49.1640250"><time>2021-09-11T18:39:01.557</time></trkpt><trkpt lat="55.8308540" lon="49.1639990"><time>2021-09-11T18:39:02.557</time></trkpt><trkpt lat="55.8308400" lon="49.1639730"><time>2021-09-11T18:39:03.557</time></trkpt><trkpt lat="55.8308160" lon="49.1639310"><time>2021-09-11T18:39:05.557</time></trkpt><trkpt lat="55.8308070" lon="49.1639170"><time>2021-09-11T18:39:05.557</time></trkpt><trkpt lat="55.8307910" lon="49.1638890"><time>2021-09-11T18:39:06.557</time></trkpt><trkpt lat="55.8307730" lon="49.1638630"><time>2021-09-11T18:39:07.557</time></trkpt><trkpt lat="55.8307460" lon="49.1638290"><time>2021-09-11T18:39:09.557</time></trkpt><trkpt lat="55.8307360" lon="49.1638180"><time>2021-09-11T18:39:09.557</time></trkpt><trkpt lat="55.8307180" lon="49.1637960"><time>2021-09-11T18:39:10.557</time></trkpt><trkpt lat="55.8307000" lon="49.1637740"><time>2021-09-11T18:39:11.557</time></trkpt><trkpt lat="55.8306810" lon="49.1637520"><time>2021-09-11T18:39:12.557</time></trkpt><trkpt lat="55.8306570" lon="49.1637300"><time>2021-09-11T18:39:14.557</time></trkpt><trkpt lat="55.8306350" lon="49.1637070"><time>2021-09-11T18:39:15.557</time></trkpt><trkpt lat="55.8306140" lon="49.1636790"><time>2021-09-11T18:39:15.557</time></trkpt><trkpt lat="55.8305960" lon="49.1636520"><time>2021-09-11T18:39:16.557</time></trkpt><trkpt lat="55.8305770" lon="49.1636230"><time>2021-09-11T18:39:17.557</time></trkpt><trkpt lat="55.8305580" lon="49.1635900"><time>2021-09-11T18:39:18.557</time></trkpt><trkpt lat="55.8305410" lon="49.1635560"><time>2021-09-11T18:39:19.557</time></trkpt><trkpt lat="55.8305290" lon="49.1635180"><time>2021-09-11T18:39:20.557</time></trkpt><trkpt lat="55.8305190" lon="49.1634790"><time>2021-09-11T18:39:21.557</time></trkpt><trkpt lat="55.8305080" lon="49.1634390"><time>2021-09-11T18:39:22.557</time></trkpt><trkpt lat="55.8304970" lon="49.1633960"><time>2021-09-11T18:39:23.557</time></trkpt><trkpt lat="55.8304870" lon="49.1633520"><time>2021-09-11T18:39:24.557</time></trkpt><trkpt lat="55.8304770" lon="49.1633090"><time>2021-09-11T18:39:25.557</time></trkpt><trkpt lat="55.8304690" lon="49.1632700"><time>2021-09-11T18:39:26.557</time></trkpt><trkpt lat="55.8304590" lon="49.1632320"><time>2021-09-11T18:39:27.557</time></trkpt><trkpt lat="55.8304470" lon="49.1631950"><time>2021-09-11T18:39:28.557</time></trkpt><trkpt lat="55.8304340" lon="49.1631590"><time>2021-09-11T18:39:29.557</time></trkpt><trkpt lat="55.8304230" lon="49.1631250"><time>2021-09-11T18:39:30.557</time></trkpt><trkpt lat="55.8304060" lon="49.1630730"><time>2021-09-11T18:39:32.557</time></trkpt><trkpt lat="55.8304000" lon="49.1630570"><time>2021-09-11T18:39:32.557</time></trkpt><trkpt lat="55.8303870" lon="49.1630270"><time>2021-09-11T18:39:33.557</time></trkpt><trkpt lat="55.8303720" lon="49.1629980"><time>2021-09-11T18:39:34.557</time></trkpt><trkpt lat="55.8303570" lon="49.1629670"><time>2021-09-11T18:39:35.557</time></trkpt><trkpt lat="55.8303420" lon="49.1629340"><time>2021-09-11T18:39:36.557</time></trkpt><trkpt lat="55.8303210" lon="49.1628850"><time>2021-09-11T18:39:38.557</time></trkpt><trkpt lat="55.8303140" lon="49.1628700"><time>2021-09-11T18:39:38.557</time></trkpt><trkpt lat="55.8302960" lon="49.1628390"><time>2021-09-11T18:39:39.557</time></trkpt><trkpt lat="55.8302790" lon="49.1628070"><time>2021-09-11T18:39:40.557</time></trkpt><trkpt lat="55.8302580" lon="49.1627660"><time>2021-09-11T18:39:42.557</time></trkpt><trkpt lat="55.8302500" lon="49.1627510"><time>2021-09-11T18:39:42.557</time></trkpt><trkpt lat="55.8302330" lon="49.1627210"><time>2021-09-11T18:39:43.557</time></trkpt><trkpt lat="55.8302170" lon="49.1626910"><time>2021-09-11T18:39:44.557</time></trkpt><trkpt lat="55.8302010" lon="49.1626620"><time>2021-09-11T18:39:45.557</time></trkpt><trkpt lat="55.8301850" lon="49.1626300"><time>2021-09-11T18:39:46.557</time></trkpt><trkpt lat="55.8301690" lon="49.1625960"><time>2021-09-11T18:39:47.557</time></trkpt><trkpt lat="55.8301530" lon="49.1625620"><time>2021-09-11T18:39:48.557</time></trkpt><trkpt lat="55.8301390" lon="49.1625270"><time>2021-09-11T18:39:49.557</time></trkpt><trkpt lat="55.8301270" lon="49.1624950"><time>2021-09-11T18:39:50.557</time></trkpt><trkpt lat="55.8301140" lon="49.1624590"><time>2021-09-11T18:39:51.557</time></trkpt><trkpt lat="55.8301010" lon="49.1624230"><time>2021-09-11T18:39:52.557</time></trkpt><trkpt lat="55.8300910" lon="49.1623860"><time>2021-09-11T18:39:53.557</time></trkpt><trkpt lat="55.8300820" lon="49.1623460"><time>2021-09-11T18:39:54.557</time></trkpt><trkpt lat="55.8300730" lon="49.1623080"><time>2021-09-11T18:39:55.557</time></trkpt><trkpt lat="55.8300660" lon="49.1622690"><time>2021-09-11T18:39:56.557</time></trkpt><trkpt lat="55.8300590" lon="49.1622270"><time>2021-09-11T18:39:57.557</time></trkpt><trkpt lat="55.8300470" lon="49.1621630"><time>2021-09-11T18:39:59.557</time></trkpt><trkpt lat="55.8300430" lon="49.1621420"><time>2021-09-11T18:39:59.557</time></trkpt><trkpt lat="55.8300360" lon="49.1621000"><time>2021-09-11T18:40:00.557</time></trkpt><trkpt lat="55.8300290" lon="49.1620580"><time>2021-09-11T18:40:01.557</time></trkpt><trkpt lat="55.8300200" lon="49.1620180"><time>2021-09-11T18:40:02.557</time></trkpt><trkpt lat="55.8300080" lon="49.1619770"><time>2021-09-11T18:40:03.557</time></trkpt><trkpt lat="55.8299870" lon="49.1619220"><time>2021-09-11T18:40:05.557</time></trkpt><trkpt lat="55.8299790" lon="49.1619040"><time>2021-09-11T18:40:05.557</time></trkpt><trkpt lat="55.8299630" lon="49.1618670"><time>2021-09-11T18:40:06.557</time></trkpt><trkpt lat="55.8299490" lon="49.1618300"><time>2021-09-11T18:40:07.557</time></trkpt><trkpt lat="55.8299270" lon="49.1617690"><time>2021-09-11T18:40:09.557</time></trkpt><trkpt lat="55.8299200" lon="49.1617490"><time>2021-09-11T18:40:09.557</time></trkpt><trkpt lat="55.8299080" lon="49.1617100"><time>2021-09-11T18:40:10.557</time></trkpt><trkpt lat="55.8298960" lon="49.1616750"><time>2021-09-11T18:40:11.557</time></trkpt><trkpt lat="55.8298850" lon="49.1616390"><time>2021-09-11T18:40:12.557</time></trkpt><trkpt lat="55.8298730" lon="49.1616040"><time>2021-09-11T18:40:13.557</time></trkpt><trkpt lat="55.8298620" lon="49.1615690"><time>2021-09-11T18:40:14.557</time></trkpt><trkpt lat="55.8298500" lon="49.1615320"><time>2021-09-11T18:40:15.557</time></trkpt><trkpt lat="55.8298370" lon="49.1614960"><time>2021-09-11T18:40:16.557</time></trkpt><trkpt lat="55.8298260" lon="49.1614610"><time>2021-09-11T18:40:17.557</time></trkpt><trkpt lat="55.8298140" lon="49.1614260"><time>2021-09-11T18:40:18.557</time></trkpt><trkpt lat="55.8298020" lon="49.1613910"><time>2021-09-11T18:40:19.557</time></trkpt><trkpt lat="55.8297900" lon="49.1613550"><time>2021-09-11T18:40:20.557</time></trkpt><trkpt lat="55.8297790" lon="49.1613200"><time>2021-09-11T18:40:21.557</time></trkpt><trkpt lat="55.8297690" lon="49.1612820"><time>2021-09-11T18:40:22.557</time></trkpt><trkpt lat="55.8297610" lon="49.1612470"><time>2021-09-11T18:40:23.557</time></trkpt><trkpt lat="55.8297530" lon="49.1612180"><time>2021-09-11T18:40:24.557</time></trkpt><trkpt lat="55.8297500" lon="49.1611920"><time>2021-09-11T18:40:25.557</time></trkpt><trkpt lat="55.8297500" lon="49.1611690"><time>2021-09-11T18:40:26.557</time></trkpt><trkpt lat="55.8297490" lon="49.1611460"><time>2021-09-11T18:40:27.557</time></trkpt><trkpt lat="55.8297470" lon="49.1611260"><time>2021-09-11T18:40:28.557</time></trkpt><trkpt lat="55.8297460" lon="49.1611110"><time>2021-09-11T18:40:29.557</time></trkpt><trkpt lat="55.8297450" lon="49.1610990"><time>2021-09-11T18:40:30.557</time></trkpt><trkpt lat="55.8297440" lon="49.1610910"><time>2021-09-11T18:40:31.557</time></trkpt><trkpt lat="55.8297390" lon="49.1610660"><time>2021-09-11T18:40:33.557</time></trkpt><trkpt lat="55.8297370" lon="49.1610640"><time>2021-09-11T18:40:34.557</time></trkpt><trkpt lat="55.8297310" lon="49.1610610"><time>2021-09-11T18:40:35.557</time></trkpt><trkpt lat="55.8297210" lon="49.1610560"><time>2021-09-11T18:40:36.557</time></trkpt><trkpt lat="55.8297060" lon="49.1610500"><time>2021-09-11T18:40:37.557</time></trkpt><trkpt lat="55.8296880" lon="49.1610400"><time>2021-09-11T18:40:38.557</time></trkpt><trkpt lat="55.8296680" lon="49.1610300"><time>2021-09-11T18:40:39.557</time></trkpt><trkpt lat="55.8296460" lon="49.1610240"><time>2021-09-11T18:40:40.557</time></trkpt><trkpt lat="55.8296220" lon="49.1610210"><time>2021-09-11T18:40:41.557</time></trkpt><trkpt lat="55.8295970" lon="49.1610210"><time>2021-09-11T18:40:42.557</time></trkpt><trkpt lat="55.8295720" lon="49.1610200"><time>2021-09-11T18:40:43.557</time></trkpt><trkpt lat="55.8295450" lon="49.1610220"><time>2021-09-11T18:40:44.557</time></trkpt><trkpt lat="55.8295190" lon="49.1610240"><time>2021-09-11T18:40:45.557</time></trkpt><trkpt lat="55.8294920" lon="49.1610270"><time>2021-09-11T18:40:46.557</time></trkpt><trkpt lat="55.8294650" lon="49.1610310"><time>2021-09-11T18:40:47.557</time></trkpt><trkpt lat="55.8294390" lon="49.1610340"><time>2021-09-11T18:40:48.557</time></trkpt><trkpt lat="55.8294120" lon="49.1610390"><time>2021-09-11T18:40:49.557</time></trkpt><trkpt lat="55.8293850" lon="49.1610440"><time>2021-09-11T18:40:50.557</time></trkpt><trkpt lat="55.8293590" lon="49.1610500"><time>2021-09-11T18:40:51.557</time></trkpt><trkpt lat="55.8293320" lon="49.1610530"><time>2021-09-11T18:40:52.557</time></trkpt><trkpt lat="55.8293060" lon="49.1610560"><time>2021-09-11T18:40:53.557</time></trkpt><trkpt lat="55.8292790" lon="49.1610600"><time>2021-09-11T18:40:54.557</time></trkpt><trkpt lat="55.8292510" lon="49.1610610"><time>2021-09-11T18:40:55.557</time></trkpt><trkpt lat="55.8292220" lon="49.1610610"><time>2021-09-11T18:40:56.557</time></trkpt><trkpt lat="55.8291900" lon="49.1610580"><time>2021-09-11T18:40:57.557</time></trkpt><trkpt lat="55.8291400" lon="49.1610530"><time>2021-09-11T18:40:59.557</time></trkpt><trkpt lat="55.8291220" lon="49.1610520"><time>2021-09-11T18:40:59.557</time></trkpt><trkpt lat="55.8290860" lon="49.1610490"><time>2021-09-11T18:41:00.557</time></trkpt><trkpt lat="55.8290490" lon="49.1610450"><time>2021-09-11T18:41:02.557</time></trkpt><trkpt lat="55.8290120" lon="49.1610400"><time>2021-09-11T18:41:02.557</time></trkpt><trkpt lat="55.8289740" lon="49.1610330"><time>2021-09-11T18:41:03.557</time></trkpt><trkpt lat="55.8289370" lon="49.1610220"><time>2021-09-11T18:41:05.557</time></trkpt><trkpt lat="55.8289060" lon="49.1610060"><time>2021-09-11T18:41:05.557</time></trkpt><trkpt lat="55.8288730" lon="49.1609790"><time>2021-09-11T18:41:06.557</time></trkpt><trkpt lat="55.8288450" lon="49.1609460"><time>2021-09-11T18:41:07.557</time></trkpt><trkpt lat="55.8288170" lon="49.1608900"><time>2021-09-11T18:41:09.557</time></trkpt><trkpt lat="55.8288090" lon="49.1608710"><time>2021-09-11T18:41:09.557</time></trkpt><trkpt lat="55.8287980" lon="49.1608310"><time>2021-09-11T18:41:10.557</time></trkpt><trkpt lat="55.8287920" lon="49.1607920"><time>2021-09-11T18:41:11.557</time></trkpt><trkpt lat="55.8287880" lon="49.1607530"><time>2021-09-11T18:41:12.557</time></trkpt><trkpt lat="55.8287840" lon="49.1607140"><time>2021-09-11T18:41:13.557</time></trkpt><trkpt lat="55.8287770" lon="49.1606750"><time>2021-09-11T18:41:14.557</time></trkpt><trkpt lat="55.8287660" lon="49.1606440"><time>2021-09-11T18:41:15.557</time></trkpt><trkpt lat="55.8287540" lon="49.1606190"><time>2021-09-11T18:41:16.557</time></trkpt><trkpt lat="55.8287370" lon="49.1605990"><time>2021-09-11T18:41:17.557</time></trkpt><trkpt lat="55.8287170" lon="49.1605860"><time>2021-09-11T18:41:18.557</time></trkpt><trkpt lat="55.8286840" lon="49.1605670"><time>2021-09-11T18:41:20.557</time></trkpt><trkpt lat="55.8286730" lon="49.1605620"><time>2021-09-11T18:41:20.557</time></trkpt><trkpt lat="55.8286510" lon="49.1605540"><time>2021-09-11T18:41:21.557</time></trkpt><trkpt lat="55.8286150" lon="49.1605450"><time>2021-09-11T18:41:23.557</time></trkpt><trkpt lat="55.8286020" lon="49.1605420"><time>2021-09-11T18:41:23.557</time></trkpt><trkpt lat="55.8285760" lon="49.1605380"><time>2021-09-11T18:41:24.557</time></trkpt><trkpt lat="55.8285380" lon="49.1605350"><time>2021-09-11T18:41:26.557</time></trkpt><trkpt lat="55.8285250" lon="49.1605350"><time>2021-09-11T18:41:26.557</time></trkpt><trkpt lat="55.8285000" lon="49.1605350"><time>2021-09-11T18:41:27.557</time></trkpt><trkpt lat="55.8284750" lon="49.1605330"><time>2021-09-11T18:41:28.557</time></trkpt><trkpt lat="55.8284510" lon="49.1605320"><time>2021-09-11T18:41:29.557</time></trkpt><trkpt lat="55.8284260" lon="49.1605310"><time>2021-09-11T18:41:30.557</time></trkpt><trkpt lat="55.8284020" lon="49.1605290"><time>2021-09-11T18:41:31.557</time></trkpt><trkpt lat="55.8283800" lon="49.1605250"><time>2021-09-11T18:41:32.557</time></trkpt><trkpt lat="55.8283570" lon="49.1605180"><time>2021-09-11T18:41:33.557</time></trkpt><trkpt lat="55.8283350" lon="49.1605090"><time>2021-09-11T18:41:34.557</time></trkpt><trkpt lat="55.8283130" lon="49.1604990"><time>2021-09-11T18:41:35.557</time></trkpt><trkpt lat="55.8282890" lon="49.1604910"><time>2021-09-11T18:41:36.557</time></trkpt><trkpt lat="55.8282650" lon="49.1604870"><time>2021-09-11T18:41:37.557</time></trkpt><trkpt lat="55.8282420" lon="49.1604870"><time>2021-09-11T18:41:38.557</time></trkpt><trkpt lat="55.8282180" lon="49.1604870"><time>2021-09-11T18:41:39.557</time></trkpt><trkpt lat="55.8281940" lon="49.1604870"><time>2021-09-11T18:41:40.557</time></trkpt><trkpt lat="55.8281720" lon="49.1604860"><time>2021-09-11T18:41:41.557</time></trkpt><trkpt lat="55.8281490" lon="49.1604850"><time>2021-09-11T18:41:42.557</time></trkpt><trkpt lat="55.8281260" lon="49.1604830"><time>2021-09-11T18:41:43.557</time></trkpt><trkpt lat="55.8281040" lon="49.1604790"><time>2021-09-11T18:41:44.557</time></trkpt><trkpt lat="55.8280810" lon="49.1604750"><time>2021-09-11T18:41:45.557</time></trkpt><trkpt lat="55.8280470" lon="49.1604680"><time>2021-09-11T18:41:47.557</time></trkpt><trkpt lat="55.8280360" lon="49.1604660"><time>2021-09-11T18:41:47.557</time></trkpt><trkpt lat="55.8280120" lon="49.1604610"><time>2021-09-11T18:41:48.557</time></trkpt><trkpt lat="55.8279900" lon="49.1604550"><time>2021-09-11T18:41:49.557</time></trkpt><trkpt lat="55.8279670" lon="49.1604480"><time>2021-09-11T18:41:50.557</time></trkpt><trkpt lat="55.8279440" lon="49.1604380"><time>2021-09-11T18:41:51.557</time></trkpt><trkpt lat="55.8279210" lon="49.1604290"><time>2021-09-11T18:41:52.557</time></trkpt><trkpt lat="55.8278980" lon="49.1604220"><time>2021-09-11T18:41:53.557</time></trkpt><trkpt lat="55.8278720" lon="49.1604190"><time>2021-09-11T18:41:54.557</time></trkpt><trkpt lat="55.8278480" lon="49.1604150"><time>2021-09-11T18:41:55.557</time></trkpt><trkpt lat="55.8278240" lon="49.1604120"><time>2021-09-11T18:41:56.557</time></trkpt><trkpt lat="55.8277890" lon="49.1604080"><time>2021-09-11T18:41:58.557</time></trkpt><trkpt lat="55.8277770" lon="49.1604070"><time>2021-09-11T18:41:58.557</time></trkpt><trkpt lat="55.8277520" lon="49.1604080"><time>2021-09-11T18:41:59.557</time></trkpt><trkpt lat="55.8277270" lon="49.1604080"><time>2021-09-11T18:42:00.557</time></trkpt><trkpt lat="55.8277030" lon="49.1604080"><time>2021-09-11T18:42:01.557</time></trkpt><trkpt lat="55.8276790" lon="49.1604060"><time>2021-09-11T18:42:02.557</time></trkpt><trkpt lat="55.8276450" lon="49.1604000"><time>2021-09-11T18:42:04.557</time></trkpt><trkpt lat="55.8276340" lon="49.1603980"><time>2021-09-11T18:42:04.557</time></trkpt><trkpt lat="55.8276120" lon="49.1603910"><time>2021-09-11T18:42:05.557</time></trkpt><trkpt lat="55.8275900" lon="49.1603850"><time>2021-09-11T18:42:06.557</time></trkpt><trkpt lat="55.8275560" lon="49.1603740"><time>2021-09-11T18:42:08.557</time></trkpt><trkpt lat="55.8275440" lon="49.1603700"><time>2021-09-11T18:42:08.557</time></trkpt><trkpt lat="55.8275210" lon="49.1603610"><time>2021-09-11T18:42:09.557</time></trkpt><trkpt lat="55.8274980" lon="49.1603560"><time>2021-09-11T18:42:10.557</time></trkpt><trkpt lat="55.8274740" lon="49.1603530"><time>2021-09-11T18:42:11.557</time></trkpt><trkpt lat="55.8274500" lon="49.1603490"><time>2021-09-11T18:42:12.557</time></trkpt><trkpt lat="55.8274260" lon="49.1603440"><time>2021-09-11T18:42:13.557</time></trkpt><trkpt lat="55.8274030" lon="49.1603370"><time>2021-09-11T18:42:14.557</time></trkpt><trkpt lat="55.8273800" lon="49.1603310"><time>2021-09-11T18:42:15.557</time></trkpt><trkpt lat="55.8273580" lon="49.1603260"><time>2021-09-11T18:42:16.557</time></trkpt><trkpt lat="55.8273360" lon="49.1603220"><time>2021-09-11T18:42:17.557</time></trkpt><trkpt lat="55.8273130" lon="49.1603180"><time>2021-09-11T18:42:18.557</time></trkpt><trkpt lat="55.8272900" lon="49.1603120"><time>2021-09-11T18:42:19.557</time></trkpt><trkpt lat="55.8272680" lon="49.1603060"><time>2021-09-11T18:42:20.557</time></trkpt><trkpt lat="55.8272460" lon="49.1602990"><time>2021-09-11T18:42:21.557</time></trkpt><trkpt lat="55.8272220" lon="49.1602910"><time>2021-09-11T18:42:22.557</time></trkpt><trkpt lat="55.8271990" lon="49.1602800"><time>2021-09-11T18:42:23.557</time></trkpt><trkpt lat="55.8271660" lon="49.1602650"><time>2021-09-11T18:42:25.557</time></trkpt><trkpt lat="55.8271550" lon="49.1602610"><time>2021-09-11T18:42:25.557</time></trkpt><trkpt lat="55.8271340" lon="49.1602520"><time>2021-09-11T18:42:26.557</time></trkpt><trkpt lat="55.8271130" lon="49.1602420"><time>2021-09-11T18:42:27.557</time></trkpt><trkpt lat="55.8270910" lon="49.1602330"><time>2021-09-11T18:42:28.557</time></trkpt><trkpt lat="55.8270680" lon="49.1602220"><time>2021-09-11T18:42:29.557</time></trkpt><trkpt lat="55.8270460" lon="49.1602080"><time>2021-09-11T18:42:30.557</time></trkpt><trkpt lat="55.8270250" lon="49.1601930"><time>2021-09-11T18:42:31.557</time></trkpt><trkpt lat="55.8270040" lon="49.1601790"><time>2021-09-11T18:42:32.557</time></trkpt><trkpt lat="55.8269830" lon="49.1601630"><time>2021-09-11T18:42:33.557</time></trkpt><trkpt lat="55.8269620" lon="49.1601420"><time>2021-09-11T18:42:34.557</time></trkpt><trkpt lat="55.8269420" lon="49.1601210"><time>2021-09-11T18:42:35.557</time></trkpt><trkpt lat="55.8269240" lon="49.1600980"><time>2021-09-11T18:42:36.557</time></trkpt><trkpt lat="55.8269060" lon="49.1600720"><time>2021-09-11T18:42:37.557</time></trkpt><trkpt lat="55.8268880" lon="49.1600460"><time>2021-09-11T18:42:38.557</time></trkpt><trkpt lat="55.8268710" lon="49.1600200"><time>2021-09-11T18:42:39.557</time></trkpt><trkpt lat="55.8268560" lon="49.1599930"><time>2021-09-11T18:42:40.557</time></trkpt><trkpt lat="55.8268410" lon="49.1599640"><time>2021-09-11T18:42:41.557</time></trkpt><trkpt lat="55.8268260" lon="49.1599350"><time>2021-09-11T18:42:42.557</time></trkpt><trkpt lat="55.8268090" lon="49.1599030"><time>2021-09-11T18:42:43.557</time></trkpt><trkpt lat="55.8267940" lon="49.1598700"><time>2021-09-11T18:42:44.557</time></trkpt><trkpt lat="55.8267780" lon="49.1598340"><time>2021-09-11T18:42:45.557</time></trkpt><trkpt lat="55.8267640" lon="49.1597970"><time>2021-09-11T18:42:46.557</time></trkpt><trkpt lat="55.8267450" lon="49.1597450"><time>2021-09-11T18:42:48.557</time></trkpt><trkpt lat="55.8267390" lon="49.1597290"><time>2021-09-11T18:42:48.557</time></trkpt><trkpt lat="55.8267280" lon="49.1596950"><time>2021-09-11T18:42:49.557</time></trkpt><trkpt lat="55.8267150" lon="49.1596590"><time>2021-09-11T18:42:50.557</time></trkpt><trkpt lat="55.8267040" lon="49.1596250"><time>2021-09-11T18:42:51.557</time></trkpt><trkpt lat="55.8266900" lon="49.1595710"><time>2021-09-11T18:42:53.557</time></trkpt><trkpt lat="55.8266850" lon="49.1595530"><time>2021-09-11T18:42:53.557</time></trkpt><trkpt lat="55.8266760" lon="49.1595150"><time>2021-09-11T18:42:54.557</time></trkpt><trkpt lat="55.8266680" lon="49.1594750"><time>2021-09-11T18:42:55.557</time></trkpt><trkpt lat="55.8266570" lon="49.1594210"><time>2021-09-11T18:42:57.557</time></trkpt><trkpt lat="55.8266530" lon="49.1594030"><time>2021-09-11T18:42:57.557</time></trkpt><trkpt lat="55.8266430" lon="49.1593640"><time>2021-09-11T18:42:58.557</time></trkpt><trkpt lat="55.8266350" lon="49.1593240"><time>2021-09-11T18:42:59.557</time></trkpt><trkpt lat="55.8266260" lon="49.1592840"><time>2021-09-11T18:43:00.557</time></trkpt><trkpt lat="55.8266180" lon="49.1592450"><time>2021-09-11T18:43:01.557</time></trkpt><trkpt lat="55.8266060" lon="49.1591900"><time>2021-09-11T18:43:03.557</time></trkpt><trkpt lat="55.8266020" lon="49.1591720"><time>2021-09-11T18:43:03.557</time></trkpt><trkpt lat="55.8265930" lon="49.1591340"><time>2021-09-11T18:43:04.557</time></trkpt><trkpt lat="55.8265840" lon="49.1590960"><time>2021-09-11T18:43:05.557</time></trkpt><trkpt lat="55.8265750" lon="49.1590580"><time>2021-09-11T18:43:06.557</time></trkpt><trkpt lat="55.8265660" lon="49.1590200"><time>2021-09-11T18:43:07.557</time></trkpt><trkpt lat="55.8265550" lon="49.1589790"><time>2021-09-11T18:43:08.557</time></trkpt><trkpt lat="55.8265440" lon="49.1589390"><time>2021-09-11T18:43:09.557</time></trkpt><trkpt lat="55.8265330" lon="49.1588970"><time>2021-09-11T18:43:09.557</time></trkpt><trkpt lat="55.8265220" lon="49.1588580"><time>2021-09-11T18:43:10.557</time></trkpt><trkpt lat="55.8265080" lon="49.1588190"><time>2021-09-11T18:43:11.557</time></trkpt><trkpt lat="55.8264930" lon="49.1587820"><time>2021-09-11T18:43:12.557</time></trkpt><trkpt lat="55.8264770" lon="49.1587500"><time>2021-09-11T18:43:13.557</time></trkpt><trkpt lat="55.8264610" lon="49.1587150"><time>2021-09-11T18:43:14.557</time></trkpt><trkpt lat="55.8264460" lon="49.1586840"><time>2021-09-11T18:43:15.557</time></trkpt><trkpt lat="55.8264310" lon="49.1586530"><time>2021-09-11T18:43:16.557</time></trkpt><trkpt lat="55.8264160" lon="49.1586240"><time>2021-09-11T18:43:17.557</time></trkpt><trkpt lat="55.8263990" lon="49.1585930"><time>2021-09-11T18:43:18.557</time></trkpt><trkpt lat="55.8263840" lon="49.1585640"><time>2021-09-11T18:43:19.557</time></trkpt><trkpt lat="55.8263610" lon="49.1585150"><time>2021-09-11T18:43:21.557</time></trkpt><trkpt lat="55.8263540" lon="49.1585000"><time>2021-09-11T18:43:21.557</time></trkpt><trkpt lat="55.8263310" lon="49.1584470"><time>2021-09-11T18:43:23.557</time></trkpt><trkpt lat="55.8263230" lon="49.1584310"><time>2021-09-11T18:43:23.557</time></trkpt><trkpt lat="55.8263060" lon="49.1583960"><time>2021-09-11T18:43:24.557</time></trkpt><trkpt lat="55.8262910" lon="49.1583610"><time>2021-09-11T18:43:25.557</time></trkpt><trkpt lat="55.8262760" lon="49.1583210"><time>2021-09-11T18:43:26.557</time></trkpt><trkpt lat="55.8262610" lon="49.1582830"><time>2021-09-11T18:43:27.557</time></trkpt><trkpt lat="55.8262420" lon="49.1582290"><time>2021-09-11T18:43:29.557</time></trkpt><trkpt lat="55.8262360" lon="49.1582110"><time>2021-09-11T18:43:29.557</time></trkpt><trkpt lat="55.8262230" lon="49.1581770"><time>2021-09-11T18:43:30.557</time></trkpt><trkpt lat="55.8262100" lon="49.1581460"><time>2021-09-11T18:43:31.557</time></trkpt><trkpt lat="55.8261970" lon="49.1581190"><time>2021-09-11T18:43:32.557</time></trkpt><trkpt lat="55.8261830" lon="49.1580930"><time>2021-09-11T18:43:33.557</time></trkpt><trkpt lat="55.8261690" lon="49.1580690"><time>2021-09-11T18:43:34.557</time></trkpt><trkpt lat="55.8261540" lon="49.1580440"><time>2021-09-11T18:43:35.557</time></trkpt><trkpt lat="55.8261410" lon="49.1580220"><time>2021-09-11T18:43:36.557</time></trkpt><trkpt lat="55.8261260" lon="49.1579900"><time>2021-09-11T18:43:37.557</time></trkpt><trkpt lat="55.8261210" lon="49.1579800"><time>2021-09-11T18:43:38.557</time></trkpt><trkpt lat="55.8261170" lon="49.1579690"><time>2021-09-11T18:43:39.557</time></trkpt><trkpt lat="55.8261130" lon="49.1579590"><time>2021-09-11T18:43:40.557</time></trkpt><trkpt lat="55.8261080" lon="49.1579480"><time>2021-09-11T18:43:42.557</time></trkpt><trkpt lat="55.8261040" lon="49.1579380"><time>2021-09-11T18:43:44.557</time></trkpt><trkpt lat="55.8261000" lon="49.1579270"><time>2021-09-11T18:43:45.557</time></trkpt><trkpt lat="55.8260950" lon="49.1579170"><time>2021-09-11T18:43:47.557</time></trkpt><trkpt lat="55.8260910" lon="49.1579060"><time>2021-09-11T18:43:47.557</time></trkpt><trkpt lat="55.8260880" lon="49.1578840"><time>2021-09-11T18:43:48.557</time></trkpt><trkpt lat="55.8260860" lon="49.1578750"><time>2021-09-11T18:43:49.557</time></trkpt><trkpt lat="55.8260840" lon="49.1578670"><time>2021-09-11T18:43:54.557</time></trkpt><trkpt lat="55.8260820" lon="49.1578580"><time>2021-09-11T18:43:54.557</time></trkpt><trkpt lat="55.8260790" lon="49.1578540"><time>2021-09-11T18:43:55.557</time></trkpt><trkpt lat="55.8260760" lon="49.1578460"><time>2021-09-11T18:43:56.557</time></trkpt><trkpt lat="55.8260730" lon="49.1578370"><time>2021-09-11T18:43:57.557</time></trkpt><trkpt lat="55.8260680" lon="49.1578250"><time>2021-09-11T18:43:58.557</time></trkpt><trkpt lat="55.8260630" lon="49.1578110"><time>2021-09-11T18:43:59.557</time></trkpt><trkpt lat="55.8260570" lon="49.1577940"><time>2021-09-11T18:44:00.557</time></trkpt><trkpt lat="55.8260500" lon="49.1577750"><time>2021-09-11T18:44:01.557</time></trkpt><trkpt lat="55.8260420" lon="49.1577490"><time>2021-09-11T18:44:02.557</time></trkpt><trkpt lat="55.8260350" lon="49.1577200"><time>2021-09-11T18:44:03.557</time></trkpt><trkpt lat="55.8260310" lon="49.1576860"><time>2021-09-11T18:44:04.557</time></trkpt><trkpt lat="55.8260290" lon="49.1576480"><time>2021-09-11T18:44:06.557</time></trkpt><trkpt lat="55.8260290" lon="49.1576100"><time>2021-09-11T18:44:07.557</time></trkpt><trkpt lat="55.8260290" lon="49.1575690"><time>2021-09-11T18:44:07.557</time></trkpt><trkpt lat="55.8260290" lon="49.1575250"><time>2021-09-11T18:44:08.557</time></trkpt><trkpt lat="55.8260280" lon="49.1574810"><time>2021-09-11T18:44:09.557</time></trkpt><trkpt lat="55.8260260" lon="49.1574330"><time>2021-09-11T18:44:10.557</time></trkpt><trkpt lat="55.8260230" lon="49.1573860"><time>2021-09-11T18:44:11.557</time></trkpt><trkpt lat="55.8260190" lon="49.1573390"><time>2021-09-11T18:44:12.557</time></trkpt><trkpt lat="55.8260130" lon="49.1572920"><time>2021-09-11T18:44:13.557</time></trkpt><trkpt lat="55.8260080" lon="49.1572460"><time>2021-09-11T18:44:14.557</time></trkpt><trkpt lat="55.8260020" lon="49.1572010"><time>2021-09-11T18:44:15.557</time></trkpt><trkpt lat="55.8259970" lon="49.1571550"><time>2021-09-11T18:44:16.557</time></trkpt><trkpt lat="55.8259900" lon="49.1571100"><time>2021-09-11T18:44:17.557</time></trkpt><trkpt lat="55.8259820" lon="49.1570680"><time>2021-09-11T18:44:18.557</time></trkpt><trkpt lat="55.8259740" lon="49.1570250"><time>2021-09-11T18:44:19.557</time></trkpt><trkpt lat="55.8259610" lon="49.1569600"><time>2021-09-11T18:44:21.557</time></trkpt><trkpt lat="55.8259560" lon="49.1569390"><time>2021-09-11T18:44:21.557</time></trkpt><trkpt lat="55.8259450" lon="49.1568970"><time>2021-09-11T18:44:22.557</time></trkpt><trkpt lat="55.8259360" lon="49.1568540"><time>2021-09-11T18:44:23.557</time></trkpt><trkpt lat="55.8259260" lon="49.1568110"><time>2021-09-11T18:44:24.557</time></trkpt><trkpt lat="55.8259170" lon="49.1567670"><time>2021-09-11T18:44:25.557</time></trkpt><trkpt lat="55.8259090" lon="49.1566990"><time>2021-09-11T18:44:27.557</time></trkpt><trkpt lat="55.8259060" lon="49.1566770"><time>2021-09-11T18:44:27.557</time></trkpt><trkpt lat="55.8259010" lon="49.1566310"><time>2021-09-11T18:44:28.557</time></trkpt><trkpt lat="55.8258970" lon="49.1565850"><time>2021-09-11T18:44:29.557</time></trkpt><trkpt lat="55.8258930" lon="49.1565140"><time>2021-09-11T18:44:31.557</time></trkpt><trkpt lat="55.8258920" lon="49.1564910"><time>2021-09-11T18:44:31.557</time></trkpt><trkpt lat="55.8258930" lon="49.1564450"><time>2021-09-11T18:44:32.557</time></trkpt><trkpt lat="55.8258950" lon="49.1563970"><time>2021-09-11T18:44:33.557</time></trkpt><trkpt lat="55.8258970" lon="49.1563490"><time>2021-09-11T18:44:34.557</time></trkpt><trkpt lat="55.8259000" lon="49.1563000"><time>2021-09-11T18:44:35.557</time></trkpt><trkpt lat="55.8259050" lon="49.1562500"><time>2021-09-11T18:44:36.557</time></trkpt><trkpt lat="55.8259110" lon="49.1561990"><time>2021-09-11T18:44:37.557</time></trkpt><trkpt lat="55.8259190" lon="49.1561500"><time>2021-09-11T18:44:38.557</time></trkpt><trkpt lat="55.8259300" lon="49.1561030"><time>2021-09-11T18:44:39.557</time></trkpt><trkpt lat="55.8259420" lon="49.1560570"><time>2021-09-11T18:44:40.557</time></trkpt><trkpt lat="55.8259550" lon="49.1560150"><time>2021-09-11T18:44:41.557</time></trkpt><trkpt lat="55.8259690" lon="49.1559740"><time>2021-09-11T18:44:42.557</time></trkpt><trkpt lat="55.8259920" lon="49.1559150"><time>2021-09-11T18:44:44.557</time></trkpt><trkpt lat="55.8259990" lon="49.1558960"><time>2021-09-11T18:44:44.557</time></trkpt><trkpt lat="55.8260140" lon="49.1558570"><time>2021-09-11T18:44:45.557</time></trkpt><trkpt lat="55.8260270" lon="49.1558180"><time>2021-09-11T18:44:46.557</time></trkpt><trkpt lat="55.8260370" lon="49.1557770"><time>2021-09-11T18:44:47.557</time></trkpt><trkpt lat="55.8260460" lon="49.1557340"><time>2021-09-11T18:44:48.557</time></trkpt><trkpt lat="55.8260530" lon="49.1556900"><time>2021-09-11T18:44:49.557</time></trkpt><trkpt lat="55.8260590" lon="49.1556460"><time>2021-09-11T18:44:50.557</time></trkpt><trkpt lat="55.8260640" lon="49.1556020"><time>2021-09-11T18:44:51.557</time></trkpt><trkpt lat="55.8260680" lon="49.1555590"><time>2021-09-11T18:44:52.557</time></trkpt><trkpt lat="55.8260720" lon="49.1555160"><time>2021-09-11T18:44:53.557</time></trkpt><trkpt lat="55.8260750" lon="49.1554720"><time>2021-09-11T18:44:54.557</time></trkpt><trkpt lat="55.8260770" lon="49.1554290"><time>2021-09-11T18:44:55.557</time></trkpt><trkpt lat="55.8260800" lon="49.1553880"><time>2021-09-11T18:44:56.557</time></trkpt><trkpt lat="55.8260830" lon="49.1553460"><time>2021-09-11T18:44:57.557</time></trkpt><trkpt lat="55.8260880" lon="49.1552780"><time>2021-09-11T18:44:59.557</time></trkpt><trkpt lat="55.8260900" lon="49.1552550"><time>2021-09-11T18:44:59.557</time></trkpt><trkpt lat="55.8260960" lon="49.1552100"><time>2021-09-11T18:45:00.557</time></trkpt><trkpt lat="55.8261040" lon="49.1551670"><time>2021-09-11T18:45:01.557</time></trkpt><trkpt lat="55.8261130" lon="49.1551240"><time>2021-09-11T18:45:02.557</time></trkpt><trkpt lat="55.8261230" lon="49.1550810"><time>2021-09-11T18:45:03.557</time></trkpt><trkpt lat="55.8261380" lon="49.1550160"><time>2021-09-11T18:45:05.557</time></trkpt><trkpt lat="55.8261420" lon="49.1549940"><time>2021-09-11T18:45:05.557</time></trkpt><trkpt lat="55.8261520" lon="49.1549500"><time>2021-09-11T18:45:06.557</time></trkpt><trkpt lat="55.8261590" lon="49.1549080"><time>2021-09-11T18:45:07.557</time></trkpt><trkpt lat="55.8261650" lon="49.1548530"><time>2021-09-11T18:45:09.557</time></trkpt><trkpt lat="55.8261650" lon="49.1548350"><time>2021-09-11T18:45:09.557</time></trkpt><trkpt lat="55.8261630" lon="49.1548030"><time>2021-09-11T18:45:10.557</time></trkpt><trkpt lat="55.8261530" lon="49.1547760"><time>2021-09-11T18:45:11.557</time></trkpt><trkpt lat="55.8261490" lon="49.1547730"><time>2021-09-11T18:45:12.557</time></trkpt><trkpt lat="55.8261440" lon="49.1547710"><time>2021-09-11T18:45:13.557</time></trkpt><trkpt lat="55.8261400" lon="49.1547680"><time>2021-09-11T18:45:15.557</time></trkpt><trkpt lat="55.8261360" lon="49.1547660"><time>2021-09-11T18:45:15.557</time></trkpt><trkpt lat="55.8261240" lon="49.1547900"><time>2021-09-11T18:45:16.557</time></trkpt><trkpt lat="55.8261190" lon="49.1548030"><time>2021-09-11T18:45:17.557</time></trkpt><trkpt lat="55.8261140" lon="49.1548170"><time>2021-09-11T18:45:18.557</time></trkpt><trkpt lat="55.8261080" lon="49.1548300"><time>2021-09-11T18:45:19.557</time></trkpt><trkpt lat="55.8261030" lon="49.1548430"><time>2021-09-11T18:45:21.557</time></trkpt><trkpt lat="55.8260980" lon="49.1548560"><time>2021-09-11T18:45:21.557</time></trkpt><trkpt lat="55.8260380" lon="49.1547420"><time>2021-09-11T18:45:22.557</time></trkpt><trkpt lat="55.8259840" lon="49.1546060"><time>2021-09-11T18:45:23.557</time></trkpt><trkpt lat="55.8259290" lon="49.1544710"><time>2021-09-11T18:45:24.557</time></trkpt><trkpt lat="55.8258740" lon="49.1543350"><time>2021-09-11T18:46:05.557</time></trkpt><trkpt lat="55.8258190" lon="49.1542000"><time>2021-09-11T18:46:06.557</time></trkpt><trkpt lat="55.8257650" lon="49.1540640"><time>2021-09-11T18:46:08.557</time></trkpt><trkpt lat="55.8257100" lon="49.1539290"><time>2021-09-11T18:46:08.557</time></trkpt><trkpt lat="55.8256990" lon="49.1539070"><time>2021-09-11T18:46:09.557</time></trkpt><trkpt lat="55.8256860" lon="49.1538840"><time>2021-09-11T18:46:10.557</time></trkpt><trkpt lat="55.8256710" lon="49.1538610"><time>2021-09-11T18:46:11.557</time></trkpt><trkpt lat="55.8256430" lon="49.1538290"><time>2021-09-11T18:46:13.557</time></trkpt><trkpt lat="55.8256330" lon="49.1538190"><time>2021-09-11T18:46:13.557</time></trkpt><trkpt lat="55.8256150" lon="49.1537940"><time>2021-09-11T18:46:14.557</time></trkpt><trkpt lat="55.8255950" lon="49.1537650"><time>2021-09-11T18:46:15.557</time></trkpt><trkpt lat="55.8255770" lon="49.1537330"><time>2021-09-11T18:46:16.557</time></trkpt><trkpt lat="55.8255450" lon="49.1536860"><time>2021-09-11T18:46:18.557</time></trkpt><trkpt lat="55.8255330" lon="49.1536700"><time>2021-09-11T18:46:18.557</time></trkpt><trkpt lat="55.8255150" lon="49.1536350"><time>2021-09-11T18:46:19.557</time></trkpt><trkpt lat="55.8255020" lon="49.1535970"><time>2021-09-11T18:46:20.557</time></trkpt><trkpt lat="55.8254960" lon="49.1535560"><time>2021-09-11T18:46:21.557</time></trkpt><trkpt lat="55.8254910" lon="49.1534880"><time>2021-09-11T18:46:23.557</time></trkpt><trkpt lat="55.8254900" lon="49.1534660"><time>2021-09-11T18:46:23.557</time></trkpt><trkpt lat="55.8254880" lon="49.1534250"><time>2021-09-11T18:46:24.557</time></trkpt><trkpt lat="55.8254840" lon="49.1533880"><time>2021-09-11T18:46:25.557</time></trkpt><trkpt lat="55.8254810" lon="49.1533490"><time>2021-09-11T18:46:26.557</time></trkpt><trkpt lat="55.8254790" lon="49.1533100"><time>2021-09-11T18:46:27.557</time></trkpt><trkpt lat="55.8254900" lon="49.1532590"><time>2021-09-11T18:46:28.557</time></trkpt><trkpt lat="55.8255020" lon="49.1532050"><time>2021-09-11T18:46:29.557</time></trkpt><trkpt lat="55.8255180" lon="49.1531470"><time>2021-09-11T18:46:30.557</time></trkpt><trkpt lat="55.8255390" lon="49.1530930"><time>2021-09-11T18:46:31.557</time></trkpt><trkpt lat="55.8255570" lon="49.1530480"><time>2021-09-11T18:46:32.557</time></trkpt><trkpt lat="55.8255750" lon="49.1530080"><time>2021-09-11T18:46:33.557</time></trkpt><trkpt lat="55.8255940" lon="49.1529670"><time>2021-09-11T18:46:34.557</time></trkpt><trkpt lat="55.8256120" lon="49.1529280"><time>2021-09-11T18:46:35.557</time></trkpt><trkpt lat="55.8256270" lon="49.1528920"><time>2021-09-11T18:46:36.557</time></trkpt><trkpt lat="55.8256400" lon="49.1528560"><time>2021-09-11T18:46:37.557</time></trkpt><trkpt lat="55.8256490" lon="49.1528180"><time>2021-09-11T18:46:38.557</time></trkpt><trkpt lat="55.8256580" lon="49.1527790"><time>2021-09-11T18:46:39.557</time></trkpt><trkpt lat="55.8256670" lon="49.1527430"><time>2021-09-11T18:46:40.557</time></trkpt><trkpt lat="55.8256750" lon="49.1527050"><time>2021-09-11T18:46:41.557</time></trkpt><trkpt lat="55.8256880" lon="49.1526510"><time>2021-09-11T18:46:43.557</time></trkpt><trkpt lat="55.8256920" lon="49.1526320"><time>2021-09-11T18:46:43.557</time></trkpt><trkpt lat="55.8257000" lon="49.1525920"><time>2021-09-11T18:46:44.557</time></trkpt><trkpt lat="55.8257090" lon="49.1525540"><time>2021-09-11T18:46:45.557</time></trkpt><trkpt lat="55.8257200" lon="49.1525170"><time>2021-09-11T18:46:46.557</time></trkpt><trkpt lat="55.8257290" lon="49.1524800"><time>2021-09-11T18:46:47.557</time></trkpt><trkpt lat="55.8257430" lon="49.1524190"><time>2021-09-11T18:46:49.557</time></trkpt><trkpt lat="55.8257460" lon="49.1523980"><time>2021-09-11T18:46:49.557</time></trkpt><trkpt lat="55.8257480" lon="49.1523600"><time>2021-09-11T18:46:50.557</time></trkpt><trkpt lat="55.8257480" lon="49.1523250"><time>2021-09-11T18:46:51.557</time></trkpt><trkpt lat="55.8257450" lon="49.1522900"><time>2021-09-11T18:46:52.557</time></trkpt><trkpt lat="55.8257380" lon="49.1522370"><time>2021-09-11T18:46:54.557</time></trkpt><trkpt lat="55.8257350" lon="49.1522200"><time>2021-09-11T18:46:54.557</time></trkpt><trkpt lat="55.8257320" lon="49.1521860"><time>2021-09-11T18:46:55.557</time></trkpt><trkpt lat="55.8257350" lon="49.1521450"><time>2021-09-11T18:46:56.557</time></trkpt><trkpt lat="55.8257440" lon="49.1521030"><time>2021-09-11T18:46:57.557</time></trkpt><trkpt lat="55.8257530" lon="49.1520600"><time>2021-09-11T18:46:58.557</time></trkpt><trkpt lat="55.8257620" lon="49.1520120"><time>2021-09-11T18:46:59.557</time></trkpt><trkpt lat="55.8257740" lon="49.1519610"><time>2021-09-11T18:47:00.557</time></trkpt><trkpt lat="55.8257890" lon="49.1519100"><time>2021-09-11T18:47:01.557</time></trkpt><trkpt lat="55.8258040" lon="49.1518640"><time>2021-09-11T18:47:02.557</time></trkpt><trkpt lat="55.8258090" lon="49.1518260"><time>2021-09-11T18:47:03.557</time></trkpt><trkpt lat="55.8258080" lon="49.1517870"><time>2021-09-11T18:47:04.557</time></trkpt><trkpt lat="55.8258040" lon="49.1517460"><time>2021-09-11T18:47:05.557</time></trkpt><trkpt lat="55.8257990" lon="49.1517070"><time>2021-09-11T18:47:06.557</time></trkpt><trkpt lat="55.8257940" lon="49.1516680"><time>2021-09-11T18:47:07.557</time></trkpt><trkpt lat="55.8257920" lon="49.1516280"><time>2021-09-11T18:47:08.557</time></trkpt><trkpt lat="55.8257910" lon="49.1515910"><time>2021-09-11T18:47:09.557</time></trkpt><trkpt lat="55.8257940" lon="49.1515550"><time>2021-09-11T18:47:10.557</time></trkpt><trkpt lat="55.8257990" lon="49.1515200"><time>2021-09-11T18:47:11.557</time></trkpt><trkpt lat="55.8258070" lon="49.1514910"><time>2021-09-11T18:47:12.557</time></trkpt><trkpt lat="55.8258210" lon="49.1514520"><time>2021-09-11T18:47:13.557</time></trkpt><trkpt lat="55.8258280" lon="49.1514370"><time>2021-09-11T18:47:15.557</time></trkpt><trkpt lat="55.8258340" lon="49.1514230"><time>2021-09-11T18:47:15.557</time></trkpt><trkpt lat="55.8258550" lon="49.1513880"><time>2021-09-11T18:47:16.557</time></trkpt><trkpt lat="55.8258650" lon="49.1513710"><time>2021-09-11T18:47:17.557</time></trkpt><trkpt lat="55.8258750" lon="49.1513550"><time>2021-09-11T18:47:18.557</time></trkpt><trkpt lat="55.8258840" lon="49.1513380"><time>2021-09-11T18:47:19.557</time></trkpt><trkpt lat="55.8258940" lon="49.1513220"><time>2021-09-11T18:47:21.557</time></trkpt><trkpt lat="55.8259040" lon="49.1513050"><time>2021-09-11T18:47:21.557</time></trkpt><trkpt lat="55.8259150" lon="49.1512680"><time>2021-09-11T18:47:22.557</time></trkpt><trkpt lat="55.8259270" lon="49.1512290"><time>2021-09-11T18:47:23.557</time></trkpt><trkpt lat="55.8259340" lon="49.1511900"><time>2021-09-11T18:47:24.557</time></trkpt><trkpt lat="55.8259400" lon="49.1511520"><time>2021-09-11T18:47:24.557</time></trkpt><trkpt lat="55.8259460" lon="49.1511150"><time>2021-09-11T18:47:25.557</time></trkpt><trkpt lat="55.8259520" lon="49.1510790"><time>2021-09-11T18:47:26.557</time></trkpt><trkpt lat="55.8259560" lon="49.1510420"><time>2021-09-11T18:47:27.557</time></trkpt><trkpt lat="55.8259570" lon="49.1510060"><time>2021-09-11T18:47:28.557</time></trkpt><trkpt lat="55.8259580" lon="49.1509670"><time>2021-09-11T18:47:29.557</time></trkpt><trkpt lat="55.8259590" lon="49.1509250"><time>2021-09-11T18:47:30.557</time></trkpt><trkpt lat="55.8259590" lon="49.1508830"><time>2021-09-11T18:47:31.557</time></trkpt><trkpt lat="55.8259590" lon="49.1508400"><time>2021-09-11T18:47:32.557</time></trkpt><trkpt lat="55.8259570" lon="49.1507960"><time>2021-09-11T18:47:33.557</time></trkpt><trkpt lat="55.8259550" lon="49.1507500"><time>2021-09-11T18:47:34.557</time></trkpt><trkpt lat="55.8259520" lon="49.1507010"><time>2021-09-11T18:47:35.557</time></trkpt><trkpt lat="55.8259450" lon="49.1506230"><time>2021-09-11T18:47:37.557</time></trkpt><trkpt lat="55.8259420" lon="49.1505970"><time>2021-09-11T18:47:37.557</time></trkpt><trkpt lat="55.8259390" lon="49.1505430"><time>2021-09-11T18:47:38.557</time></trkpt><trkpt lat="55.8259370" lon="49.1504910"><time>2021-09-11T18:47:39.557</time></trkpt><trkpt lat="55.8259380" lon="49.1504410"><time>2021-09-11T18:47:40.557</time></trkpt><trkpt lat="55.8259450" lon="49.1503950"><time>2021-09-11T18:47:41.557</time></trkpt><trkpt lat="55.8259540" lon="49.1503520"><time>2021-09-11T18:47:42.557</time></trkpt><trkpt lat="55.8259630" lon="49.1503070"><time>2021-09-11T18:47:43.557</time></trkpt><trkpt lat="55.8259640" lon="49.1502620"><time>2021-09-11T18:47:44.557</time></trkpt><trkpt lat="55.8259480" lon="49.1502180"><time>2021-09-11T18:47:45.557</time></trkpt><trkpt lat="55.8259040" lon="49.1501650"><time>2021-09-11T18:47:47.557</time></trkpt><trkpt lat="55.8258870" lon="49.1501520"><time>2021-09-11T18:47:47.557</time></trkpt><trkpt lat="55.8258550" lon="49.1501330"><time>2021-09-11T18:47:48.557</time></trkpt><trkpt lat="55.8258230" lon="49.1501220"><time>2021-09-11T18:47:49.557</time></trkpt><trkpt lat="55.8257920" lon="49.1501130"><time>2021-09-11T18:47:50.557</time></trkpt><trkpt lat="55.8257480" lon="49.1501060"><time>2021-09-11T18:47:52.557</time></trkpt><trkpt lat="55.8257340" lon="49.1501050"><time>2021-09-11T18:47:52.557</time></trkpt><trkpt lat="55.8257040" lon="49.1501030"><time>2021-09-11T18:47:53.557</time></trkpt><trkpt lat="55.8256760" lon="49.1501030"><time>2021-09-11T18:47:54.557</time></trkpt><trkpt lat="55.8256480" lon="49.1501030"><time>2021-09-11T18:47:55.557</time></trkpt><trkpt lat="55.8256190" lon="49.1501010"><time>2021-09-11T18:47:56.557</time></trkpt><trkpt lat="55.8255780" lon="49.1501010"><time>2021-09-11T18:47:58.557</time></trkpt><trkpt lat="55.8255640" lon="49.1501010"><time>2021-09-11T18:47:58.557</time></trkpt><trkpt lat="55.8255370" lon="49.1501040"><time>2021-09-11T18:47:59.557</time></trkpt><trkpt lat="55.8255060" lon="49.1501040"><time>2021-09-11T18:48:00.557</time></trkpt><trkpt lat="55.8254750" lon="49.1501030"><time>2021-09-11T18:48:01.557</time></trkpt><trkpt lat="55.8254480" lon="49.1500950"><time>2021-09-11T18:48:02.557</time></trkpt><trkpt lat="55.8254220" lon="49.1500760"><time>2021-09-11T18:48:03.557</time></trkpt><trkpt lat="55.8253970" lon="49.1500510"><time>2021-09-11T18:48:04.557</time></trkpt><trkpt lat="55.8253780" lon="49.1500190"><time>2021-09-11T18:48:05.557</time></trkpt><trkpt lat="55.8253660" lon="49.1499840"><time>2021-09-11T18:48:06.557</time></trkpt><trkpt lat="55.8253590" lon="49.1499430"><time>2021-09-11T18:48:07.557</time></trkpt><trkpt lat="55.8253570" lon="49.1498990"><time>2021-09-11T18:48:08.557</time></trkpt><trkpt lat="55.8253580" lon="49.1498530"><time>2021-09-11T18:48:09.557</time></trkpt><trkpt lat="55.8253620" lon="49.1498050"><time>2021-09-11T18:48:10.557</time></trkpt><trkpt lat="55.8253670" lon="49.1497600"><time>2021-09-11T18:48:11.557</time></trkpt><trkpt lat="55.8253760" lon="49.1496880"><time>2021-09-11T18:48:13.557</time></trkpt><trkpt lat="55.8253790" lon="49.1496620"><time>2021-09-11T18:48:13.557</time></trkpt><trkpt lat="55.8253860" lon="49.1496110"><time>2021-09-11T18:48:14.557</time></trkpt><trkpt lat="55.8253940" lon="49.1495640"><time>2021-09-11T18:48:15.557</time></trkpt><trkpt lat="55.8253990" lon="49.1495180"><time>2021-09-11T18:48:16.557</time></trkpt><trkpt lat="55.8254020" lon="49.1494680"><time>2021-09-11T18:48:17.557</time></trkpt><trkpt lat="55.8254090" lon="49.1493940"><time>2021-09-11T18:48:19.557</time></trkpt><trkpt lat="55.8254110" lon="49.1493700"><time>2021-09-11T18:48:19.557</time></trkpt><trkpt lat="55.8254140" lon="49.1493230"><time>2021-09-11T18:48:20.557</time></trkpt><trkpt lat="55.8254140" lon="49.1492790"><time>2021-09-11T18:48:21.557</time></trkpt><trkpt lat="55.8254160" lon="49.1492350"><time>2021-09-11T18:48:22.557</time></trkpt><trkpt lat="55.8254180" lon="49.1491910"><time>2021-09-11T18:48:23.557</time></trkpt><trkpt lat="55.8254220" lon="49.1491430"><time>2021-09-11T18:48:24.557</time></trkpt><trkpt lat="55.8254250" lon="49.1490970"><time>2021-09-11T18:48:25.557</time></trkpt><trkpt lat="55.8254300" lon="49.1490530"><time>2021-09-11T18:48:26.557</time></trkpt><trkpt lat="55.8254330" lon="49.1490060"><time>2021-09-11T18:48:27.557</time></trkpt><trkpt lat="55.8254320" lon="49.1489580"><time>2021-09-11T18:48:28.557</time></trkpt><trkpt lat="55.8254270" lon="49.1489110"><time>2021-09-11T18:48:29.557</time></trkpt><trkpt lat="55.8254230" lon="49.1488620"><time>2021-09-11T18:48:30.557</time></trkpt><trkpt lat="55.8254200" lon="49.1488130"><time>2021-09-11T18:48:31.557</time></trkpt><trkpt lat="55.8254170" lon="49.1487640"><time>2021-09-11T18:48:32.557</time></trkpt><trkpt lat="55.8254150" lon="49.1487180"><time>2021-09-11T18:48:33.557</time></trkpt><trkpt lat="55.8254160" lon="49.1486710"><time>2021-09-11T18:48:34.557</time></trkpt><trkpt lat="55.8254220" lon="49.1486020"><time>2021-09-11T18:48:36.557</time></trkpt><trkpt lat="55.8254240" lon="49.1485790"><time>2021-09-11T18:48:36.557</time></trkpt><trkpt lat="55.8254240" lon="49.1485340"><time>2021-09-11T18:48:37.557</time></trkpt><trkpt lat="55.8254230" lon="49.1484890"><time>2021-09-11T18:48:38.557</time></trkpt><trkpt lat="55.8254210" lon="49.1484450"><time>2021-09-11T18:48:39.557</time></trkpt><trkpt lat="55.8254200" lon="49.1483990"><time>2021-09-11T18:48:40.557</time></trkpt><trkpt lat="55.8254170" lon="49.1483340"><time>2021-09-11T18:48:42.557</time></trkpt><trkpt lat="55.8254160" lon="49.1483120"><time>2021-09-11T18:48:42.557</time></trkpt><trkpt lat="55.8254180" lon="49.1482680"><time>2021-09-11T18:48:43.557</time></trkpt><trkpt lat="55.8254210" lon="49.1482260"><time>2021-09-11T18:48:44.557</time></trkpt><trkpt lat="55.8254220" lon="49.1481830"><time>2021-09-11T18:48:45.557</time></trkpt><trkpt lat="55.8254240" lon="49.1481410"><time>2021-09-11T18:48:46.557</time></trkpt><trkpt lat="55.8254230" lon="49.1481000"><time>2021-09-11T18:48:47.557</time></trkpt><trkpt lat="55.8254210" lon="49.1480590"><time>2021-09-11T18:48:48.557</time></trkpt><trkpt lat="55.8254190" lon="49.1480160"><time>2021-09-11T18:48:49.557</time></trkpt><trkpt lat="55.8254130" lon="49.1479470"><time>2021-09-11T18:48:51.557</time></trkpt><trkpt lat="55.8254100" lon="49.1479240"><time>2021-09-11T18:48:51.557</time></trkpt><trkpt lat="55.8254060" lon="49.1478820"><time>2021-09-11T18:48:52.557</time></trkpt><trkpt lat="55.8254010" lon="49.1478400"><time>2021-09-11T18:48:53.557</time></trkpt><trkpt lat="55.8253940" lon="49.1478000"><time>2021-09-11T18:48:54.557</time></trkpt><trkpt lat="55.8253870" lon="49.1477630"><time>2021-09-11T18:48:55.557</time></trkpt><trkpt lat="55.8253740" lon="49.1477160"><time>2021-09-11T18:48:57.557</time></trkpt><trkpt lat="55.8253680" lon="49.1477020"><time>2021-09-11T18:48:57.557</time></trkpt><trkpt lat="55.8253530" lon="49.1476790"><time>2021-09-11T18:48:58.557</time></trkpt><trkpt lat="55.8253340" lon="49.1476620"><time>2021-09-11T18:48:59.557</time></trkpt><trkpt lat="55.8253140" lon="49.1476510"><time>2021-09-11T18:49:00.557</time></trkpt><trkpt lat="55.8252920" lon="49.1476430"><time>2021-09-11T18:49:01.557</time></trkpt><trkpt lat="55.8252680" lon="49.1476400"><time>2021-09-11T18:49:02.557</time></trkpt><trkpt lat="55.8252430" lon="49.1476360"><time>2021-09-11T18:49:03.557</time></trkpt><trkpt lat="55.8252170" lon="49.1476380"><time>2021-09-11T18:49:04.557</time></trkpt><trkpt lat="55.8251890" lon="49.1476470"><time>2021-09-11T18:49:05.557</time></trkpt><trkpt lat="55.8251580" lon="49.1476580"><time>2021-09-11T18:49:06.557</time></trkpt><trkpt lat="55.8251280" lon="49.1476650"><time>2021-09-11T18:49:07.557</time></trkpt><trkpt lat="55.8251010" lon="49.1476690"><time>2021-09-11T18:49:08.557</time></trkpt><trkpt lat="55.8250750" lon="49.1476700"><time>2021-09-11T18:49:09.557</time></trkpt><trkpt lat="55.8250500" lon="49.1476710"><time>2021-09-11T18:49:10.557</time></trkpt><trkpt lat="55.8250250" lon="49.1476720"><time>2021-09-11T18:49:11.557</time></trkpt><trkpt lat="55.8249980" lon="49.1476760"><time>2021-09-11T18:49:12.557</time></trkpt><trkpt lat="55.8249710" lon="49.1476800"><time>2021-09-11T18:49:13.557</time></trkpt><trkpt lat="55.8249430" lon="49.1476860"><time>2021-09-11T18:49:14.557</time></trkpt><trkpt lat="55.8249160" lon="49.1476910"><time>2021-09-11T18:49:15.557</time></trkpt><trkpt lat="55.8248870" lon="49.1476960"><time>2021-09-11T18:49:16.557</time></trkpt><trkpt lat="55.8248440" lon="49.1477050"><time>2021-09-11T18:49:18.557</time></trkpt><trkpt lat="55.8248290" lon="49.1477080"><time>2021-09-11T18:49:18.557</time></trkpt><trkpt lat="55.8248000" lon="49.1477140"><time>2021-09-11T18:49:19.557</time></trkpt><trkpt lat="55.8247700" lon="49.1477200"><time>2021-09-11T18:49:20.557</time></trkpt><trkpt lat="55.8247410" lon="49.1477200"><time>2021-09-11T18:49:21.557</time></trkpt><trkpt lat="55.8247120" lon="49.1477180"><time>2021-09-11T18:49:22.557</time></trkpt><trkpt lat="55.8246680" lon="49.1477090"><time>2021-09-11T18:49:24.557</time></trkpt><trkpt lat="55.8246530" lon="49.1477040"><time>2021-09-11T18:49:24.557</time></trkpt><trkpt lat="55.8246270" lon="49.1476930"><time>2021-09-11T18:49:25.557</time></trkpt><trkpt lat="55.8246030" lon="49.1476880"><time>2021-09-11T18:49:26.557</time></trkpt><trkpt lat="55.8245780" lon="49.1476860"><time>2021-09-11T18:49:27.557</time></trkpt><trkpt lat="55.8245530" lon="49.1476860"><time>2021-09-11T18:49:28.557</time></trkpt><trkpt lat="55.8245260" lon="49.1476880"><time>2021-09-11T18:49:29.557</time></trkpt><trkpt lat="55.8244980" lon="49.1476930"><time>2021-09-11T18:49:30.557</time></trkpt><trkpt lat="55.8244710" lon="49.1476990"><time>2021-09-11T18:49:31.557</time></trkpt><trkpt lat="55.8244430" lon="49.1477030"><time>2021-09-11T18:49:32.557</time></trkpt><trkpt lat="55.8244160" lon="49.1477070"><time>2021-09-11T18:49:33.557</time></trkpt><trkpt lat="55.8243910" lon="49.1477110"><time>2021-09-11T18:49:34.557</time></trkpt><trkpt lat="55.8243670" lon="49.1477120"><time>2021-09-11T18:49:35.557</time></trkpt><trkpt lat="55.8243430" lon="49.1477150"><time>2021-09-11T18:49:36.557</time></trkpt><trkpt lat="55.8243210" lon="49.1477190"><time>2021-09-11T18:49:37.557</time></trkpt><trkpt lat="55.8242980" lon="49.1477210"><time>2021-09-11T18:49:38.557</time></trkpt><trkpt lat="55.8242740" lon="49.1477200"><time>2021-09-11T18:49:39.557</time></trkpt><trkpt lat="55.8242400" lon="49.1477160"><time>2021-09-11T18:49:41.557</time></trkpt><trkpt lat="55.8242280" lon="49.1477140"><time>2021-09-11T18:49:41.557</time></trkpt><trkpt lat="55.8242040" lon="49.1477090"><time>2021-09-11T18:49:42.557</time></trkpt><trkpt lat="55.8241810" lon="49.1477050"><time>2021-09-11T18:49:43.557</time></trkpt><trkpt lat="55.8241560" lon="49.1477040"><time>2021-09-11T18:49:44.557</time></trkpt><trkpt lat="55.8241290" lon="49.1477060"><time>2021-09-11T18:49:45.557</time></trkpt><trkpt lat="55.8240890" lon="49.1477080"><time>2021-09-11T18:49:47.557</time></trkpt><trkpt lat="55.8240760" lon="49.1477090"><time>2021-09-11T18:49:47.557</time></trkpt><trkpt lat="55.8240490" lon="49.1477100"><time>2021-09-11T18:49:48.557</time></trkpt><trkpt lat="55.8240230" lon="49.1477070"><time>2021-09-11T18:49:49.557</time></trkpt><trkpt lat="55.8239970" lon="49.1477020"><time>2021-09-11T18:49:50.557</time></trkpt><trkpt lat="55.8239590" lon="49.1476960"><time>2021-09-11T18:49:52.557</time></trkpt><trkpt lat="55.8239460" lon="49.1476950"><time>2021-09-11T18:49:52.557</time></trkpt><trkpt lat="55.8239230" lon="49.1476960"><time>2021-09-11T18:49:53.557</time></trkpt><trkpt lat="55.8238990" lon="49.1476980"><time>2021-09-11T18:49:54.557</time></trkpt><trkpt lat="55.8238770" lon="49.1477010"><time>2021-09-11T18:49:55.557</time></trkpt><trkpt lat="55.8238520" lon="49.1477040"><time>2021-09-11T18:49:56.557</time></trkpt><trkpt lat="55.8238280" lon="49.1477080"><time>2021-09-11T18:49:57.557</time></trkpt><trkpt lat="55.8238050" lon="49.1477110"><time>2021-09-11T18:49:58.557</time></trkpt><trkpt lat="55.8237800" lon="49.1477180"><time>2021-09-11T18:49:59.557</time></trkpt><trkpt lat="55.8237560" lon="49.1477250"><time>2021-09-11T18:50:00.557</time></trkpt><trkpt lat="55.8237240" lon="49.1477350"><time>2021-09-11T18:50:02.557</time></trkpt><trkpt lat="55.8237130" lon="49.1477380"><time>2021-09-11T18:50:02.557</time></trkpt><trkpt lat="55.8236930" lon="49.1477470"><time>2021-09-11T18:50:03.557</time></trkpt><trkpt lat="55.8236700" lon="49.1477570"><time>2021-09-11T18:50:04.557</time></trkpt><trkpt lat="55.8236360" lon="49.1477670"><time>2021-09-11T18:50:06.557</time></trkpt><trkpt lat="55.8236230" lon="49.1477680"><time>2021-09-11T18:50:06.557</time></trkpt><trkpt lat="55.8235990" lon="49.1477670"><time>2021-09-11T18:50:07.557</time></trkpt><trkpt lat="55.8235730" lon="49.1477650"><time>2021-09-11T18:50:08.557</time></trkpt><trkpt lat="55.8235450" lon="49.1477650"><time>2021-09-11T18:50:09.557</time></trkpt><trkpt lat="55.8235180" lon="49.1477620"><time>2021-09-11T18:50:10.557</time></trkpt><trkpt lat="55.8234930" lon="49.1477550"><time>2021-09-11T18:50:11.557</time></trkpt><trkpt lat="55.8234720" lon="49.1477460"><time>2021-09-11T18:50:12.557</time></trkpt><trkpt lat="55.8234530" lon="49.1477350"><time>2021-09-11T18:50:13.557</time></trkpt><trkpt lat="55.8234330" lon="49.1477230"><time>2021-09-11T18:50:14.557</time></trkpt><trkpt lat="55.8234130" lon="49.1477110"><time>2021-09-11T18:50:15.557</time></trkpt><trkpt lat="55.8233930" lon="49.1476990"><time>2021-09-11T18:50:16.557</time></trkpt><trkpt lat="55.8233760" lon="49.1476880"><time>2021-09-11T18:50:17.557</time></trkpt><trkpt lat="55.8233520" lon="49.1476590"><time>2021-09-11T18:50:18.557</time></trkpt><trkpt lat="55.8233450" lon="49.1476440"><time>2021-09-11T18:50:19.557</time></trkpt><trkpt lat="55.8233370" lon="49.1476280"><time>2021-09-11T18:50:20.557</time></trkpt><trkpt lat="55.8233290" lon="49.1476130"><time>2021-09-11T18:50:21.557</time></trkpt><trkpt lat="55.8233220" lon="49.1475970"><time>2021-09-11T18:50:23.557</time></trkpt><trkpt lat="55.8233140" lon="49.1475820"><time>2021-09-11T18:50:23.557</time></trkpt><trkpt lat="55.8233100" lon="49.1475730"><time>2021-09-11T18:50:24.557</time></trkpt><trkpt lat="55.8233000" lon="49.1475410"><time>2021-09-11T18:50:26.557</time></trkpt><trkpt lat="55.8233020" lon="49.1475370"><time>2021-09-11T18:50:27.557</time></trkpt><trkpt lat="55.8233060" lon="49.1475280"><time>2021-09-11T18:50:28.557</time></trkpt><trkpt lat="55.8233100" lon="49.1475160"><time>2021-09-11T18:50:29.557</time></trkpt><trkpt lat="55.8233140" lon="49.1475010"><time>2021-09-11T18:50:30.557</time></trkpt><trkpt lat="55.8233170" lon="49.1474790"><time>2021-09-11T18:50:31.557</time></trkpt><trkpt lat="55.8233180" lon="49.1474550"><time>2021-09-11T18:50:32.557</time></trkpt><trkpt lat="55.8233220" lon="49.1474240"><time>2021-09-11T18:50:33.557</time></trkpt><trkpt lat="55.8233290" lon="49.1473730"><time>2021-09-11T18:50:35.557</time></trkpt><trkpt lat="55.8233330" lon="49.1473550"><time>2021-09-11T18:50:35.557</time></trkpt><trkpt lat="55.8233450" lon="49.1473230"><time>2021-09-11T18:50:36.557</time></trkpt><trkpt lat="55.8233580" lon="49.1472910"><time>2021-09-11T18:50:37.557</time></trkpt><trkpt lat="55.8233700" lon="49.1472560"><time>2021-09-11T18:50:38.557</time></trkpt><trkpt lat="55.8233810" lon="49.1472190"><time>2021-09-11T18:50:39.557</time></trkpt><trkpt lat="55.8233990" lon="49.1471660"><time>2021-09-11T18:50:41.557</time></trkpt><trkpt lat="55.8234050" lon="49.1471480"><time>2021-09-11T18:50:41.557</time></trkpt><trkpt lat="55.8234160" lon="49.1471100"><time>2021-09-11T18:50:42.557</time></trkpt><trkpt lat="55.8234270" lon="49.1470730"><time>2021-09-11T18:50:43.557</time></trkpt><trkpt lat="55.8234380" lon="49.1470370"><time>2021-09-11T18:50:44.557</time></trkpt><trkpt lat="55.8234500" lon="49.1470040"><time>2021-09-11T18:50:45.557</time></trkpt><trkpt lat="55.8234650" lon="49.1469710"><time>2021-09-11T18:50:46.557</time></trkpt><trkpt lat="55.8234820" lon="49.1469370"><time>2021-09-11T18:50:47.557</time></trkpt><trkpt lat="55.8234970" lon="49.1469050"><time>2021-09-11T18:50:48.557</time></trkpt><trkpt lat="55.8235110" lon="49.1468720"><time>2021-09-11T18:50:49.557</time></trkpt><trkpt lat="55.8235220" lon="49.1468370"><time>2021-09-11T18:50:50.557</time></trkpt><trkpt lat="55.8235320" lon="49.1468050"><time>2021-09-11T18:50:51.557</time></trkpt><trkpt lat="55.8235410" lon="49.1467750"><time>2021-09-11T18:50:52.557</time></trkpt><trkpt lat="55.8235490" lon="49.1467470"><time>2021-09-11T18:50:53.557</time></trkpt><trkpt lat="55.8235550" lon="49.1467190"><time>2021-09-11T18:50:54.557</time></trkpt><trkpt lat="55.8235620" lon="49.1466850"><time>2021-09-11T18:50:55.557</time></trkpt><trkpt lat="55.8235670" lon="49.1466480"><time>2021-09-11T18:50:56.557</time></trkpt><trkpt lat="55.8235710" lon="49.1466120"><time>2021-09-11T18:50:57.557</time></trkpt><trkpt lat="55.8235750" lon="49.1465760"><time>2021-09-11T18:50:58.557</time></trkpt><trkpt lat="55.8235810" lon="49.1465400"><time>2021-09-11T18:50:59.557</time></trkpt><trkpt lat="55.8235890" lon="49.1465030"><time>2021-09-11T18:51:00.557</time></trkpt><trkpt lat="55.8235980" lon="49.1464670"><time>2021-09-11T18:51:01.557</time></trkpt><trkpt lat="55.8236150" lon="49.1464090"><time>2021-09-11T18:51:03.557</time></trkpt><trkpt lat="55.8236210" lon="49.1463880"><time>2021-09-11T18:51:03.557</time></trkpt><trkpt lat="55.8236330" lon="49.1463400"><time>2021-09-11T18:51:04.557</time></trkpt><trkpt lat="55.8236470" lon="49.1462890"><time>2021-09-11T18:51:05.557</time></trkpt><trkpt lat="55.8236740" lon="49.1462090"><time>2021-09-11T18:51:07.557</time></trkpt><trkpt lat="55.8236820" lon="49.1461840"><time>2021-09-11T18:51:07.557</time></trkpt><trkpt lat="55.8236960" lon="49.1461370"><time>2021-09-11T18:51:08.557</time></trkpt><trkpt lat="55.8237100" lon="49.1460880"><time>2021-09-11T18:51:09.557</time></trkpt><trkpt lat="55.8237260" lon="49.1460320"><time>2021-09-11T18:51:10.557</time></trkpt><trkpt lat="55.8237440" lon="49.1459780"><time>2021-09-11T18:51:11.557</time></trkpt><trkpt lat="55.8237730" lon="49.1459050"><time>2021-09-11T18:51:13.557</time></trkpt><trkpt lat="55.8237820" lon="49.1458820"><time>2021-09-11T18:51:13.557</time></trkpt><trkpt lat="55.8237990" lon="49.1458390"><time>2021-09-11T18:51:14.557</time></trkpt><trkpt lat="55.8238140" lon="49.1458010"><time>2021-09-11T18:51:15.557</time></trkpt><trkpt lat="55.8238290" lon="49.1457630"><time>2021-09-11T18:51:16.557</time></trkpt><trkpt lat="55.8238420" lon="49.1457260"><time>2021-09-11T18:51:17.557</time></trkpt><trkpt lat="55.8238530" lon="49.1456920"><time>2021-09-11T18:51:18.557</time></trkpt><trkpt lat="55.8238640" lon="49.1456560"><time>2021-09-11T18:51:19.557</time></trkpt><trkpt lat="55.8238760" lon="49.1456190"><time>2021-09-11T18:51:20.557</time></trkpt><trkpt lat="55.8238890" lon="49.1455780"><time>2021-09-11T18:51:21.557</time></trkpt><trkpt lat="55.8238990" lon="49.1455340"><time>2021-09-11T18:51:22.557</time></trkpt><trkpt lat="55.8239060" lon="49.1454910"><time>2021-09-11T18:51:23.557</time></trkpt><trkpt lat="55.8239100" lon="49.1454460"><time>2021-09-11T18:51:24.557</time></trkpt><trkpt lat="55.8239100" lon="49.1453990"><time>2021-09-11T18:51:25.557</time></trkpt><trkpt lat="55.8239050" lon="49.1453400"><time>2021-09-11T18:51:26.557</time></trkpt><trkpt lat="55.8238960" lon="49.1452820"><time>2021-09-11T18:51:27.557</time></trkpt><trkpt lat="55.8238790" lon="49.1452220"><time>2021-09-11T18:51:28.557</time></trkpt><trkpt lat="55.8238590" lon="49.1451630"><time>2021-09-11T18:51:29.557</time></trkpt><trkpt lat="55.8238390" lon="49.1451000"><time>2021-09-11T18:51:30.557</time></trkpt><trkpt lat="55.8238220" lon="49.1450460"><time>2021-09-11T18:51:31.557</time></trkpt><trkpt lat="55.8238050" lon="49.1449960"><time>2021-09-11T18:51:32.557</time></trkpt><trkpt lat="55.8237770" lon="49.1449310"><time>2021-09-11T18:51:34.557</time></trkpt><trkpt lat="55.8237670" lon="49.1449110"><time>2021-09-11T18:51:34.557</time></trkpt><trkpt lat="55.8237500" lon="49.1448710"><time>2021-09-11T18:51:35.557</time></trkpt><trkpt lat="55.8237350" lon="49.1448320"><time>2021-09-11T18:51:36.557</time></trkpt><trkpt lat="55.8237220" lon="49.1447920"><time>2021-09-11T18:51:37.557</time></trkpt><trkpt lat="55.8237090" lon="49.1447500"><time>2021-09-11T18:51:38.557</time></trkpt><trkpt lat="55.8236980" lon="49.1447100"><time>2021-09-11T18:51:39.557</time></trkpt><trkpt lat="55.8236890" lon="49.1446720"><time>2021-09-11T18:51:39.557</time></trkpt><trkpt lat="55.8236820" lon="49.1446340"><time>2021-09-11T18:51:40.557</time></trkpt><trkpt lat="55.8236770" lon="49.1445990"><time>2021-09-11T18:51:41.557</time></trkpt><trkpt lat="55.8236720" lon="49.1445640"><time>2021-09-11T18:51:42.557</time></trkpt><trkpt lat="55.8236680" lon="49.1445230"><time>2021-09-11T18:51:43.557</time></trkpt><trkpt lat="55.8236670" lon="49.1444790"><time>2021-09-11T18:51:44.557</time></trkpt><trkpt lat="55.8236660" lon="49.1444360"><time>2021-09-11T18:51:45.557</time></trkpt><trkpt lat="55.8236600" lon="49.1443890"><time>2021-09-11T18:51:46.557</time></trkpt><trkpt lat="55.8236500" lon="49.1443430"><time>2021-09-11T18:51:47.557</time></trkpt><trkpt lat="55.8236390" lon="49.1442950"><time>2021-09-11T18:51:48.557</time></trkpt><trkpt lat="55.8236270" lon="49.1442440"><time>2021-09-11T18:51:49.557</time></trkpt><trkpt lat="55.8236150" lon="49.1441900"><time>2021-09-11T18:51:50.557</time></trkpt><trkpt lat="55.8236030" lon="49.1441320"><time>2021-09-11T18:51:51.557</time></trkpt><trkpt lat="55.8235950" lon="49.1440750"><time>2021-09-11T18:51:52.557</time></trkpt><trkpt lat="55.8235890" lon="49.1440170"><time>2021-09-11T18:51:53.557</time></trkpt><trkpt lat="55.8235850" lon="49.1439600"><time>2021-09-11T18:51:54.557</time></trkpt><trkpt lat="55.8235810" lon="49.1439060"><time>2021-09-11T18:51:55.557</time></trkpt><trkpt lat="55.8235730" lon="49.1438560"><time>2021-09-11T18:51:56.557</time></trkpt><trkpt lat="55.8235600" lon="49.1438030"><time>2021-09-11T18:51:57.557</time></trkpt><trkpt lat="55.8235480" lon="49.1437520"><time>2021-09-11T18:51:58.557</time></trkpt><trkpt lat="55.8235420" lon="49.1436820"><time>2021-09-11T18:52:00.557</time></trkpt><trkpt lat="55.8235410" lon="49.1436590"><time>2021-09-11T18:52:00.557</time></trkpt><trkpt lat="55.8235440" lon="49.1436150"><time>2021-09-11T18:52:01.557</time></trkpt><trkpt lat="55.8235470" lon="49.1435710"><time>2021-09-11T18:52:02.557</time></trkpt><trkpt lat="55.8235480" lon="49.1435290"><time>2021-09-11T18:52:03.557</time></trkpt><trkpt lat="55.8235460" lon="49.1434890"><time>2021-09-11T18:52:04.557</time></trkpt><trkpt lat="55.8235410" lon="49.1434490"><time>2021-09-11T18:52:05.557</time></trkpt><trkpt lat="55.8235350" lon="49.1434100"><time>2021-09-11T18:52:06.557</time></trkpt><trkpt lat="55.8235290" lon="49.1433700"><time>2021-09-11T18:52:07.557</time></trkpt><trkpt lat="55.8235250" lon="49.1433330"><time>2021-09-11T18:52:08.557</time></trkpt><trkpt lat="55.8235220" lon="49.1432970"><time>2021-09-11T18:52:09.557</time></trkpt><trkpt lat="55.8235190" lon="49.1432610"><time>2021-09-11T18:52:10.557</time></trkpt><trkpt lat="55.8235140" lon="49.1432230"><time>2021-09-11T18:52:11.557</time></trkpt><trkpt lat="55.8235080" lon="49.1431840"><time>2021-09-11T18:52:12.557</time></trkpt><trkpt lat="55.8235040" lon="49.1431410"><time>2021-09-11T18:52:13.557</time></trkpt><trkpt lat="55.8235000" lon="49.1430980"><time>2021-09-11T18:52:14.557</time></trkpt><trkpt lat="55.8234950" lon="49.1430570"><time>2021-09-11T18:52:15.557</time></trkpt><trkpt lat="55.8234920" lon="49.1430140"><time>2021-09-11T18:52:16.557</time></trkpt><trkpt lat="55.8234870" lon="49.1429720"><time>2021-09-11T18:52:17.557</time></trkpt><trkpt lat="55.8234820" lon="49.1429310"><time>2021-09-11T18:52:18.557</time></trkpt><trkpt lat="55.8234780" lon="49.1428910"><time>2021-09-11T18:52:19.557</time></trkpt><trkpt lat="55.8234760" lon="49.1428280"><time>2021-09-11T18:52:21.557</time></trkpt><trkpt lat="55.8234760" lon="49.1428070"><time>2021-09-11T18:52:21.557</time></trkpt><trkpt lat="55.8234740" lon="49.1427700"><time>2021-09-11T18:52:22.557</time></trkpt><trkpt lat="55.8234710" lon="49.1427360"><time>2021-09-11T18:52:23.557</time></trkpt><trkpt lat="55.8234700" lon="49.1427040"><time>2021-09-11T18:52:24.557</time></trkpt><trkpt lat="55.8234700" lon="49.1426680"><time>2021-09-11T18:52:25.557</time></trkpt><trkpt lat="55.8234740" lon="49.1426070"><time>2021-09-11T18:52:27.557</time></trkpt><trkpt lat="55.8234750" lon="49.1425860"><time>2021-09-11T18:52:27.557</time></trkpt><trkpt lat="55.8234790" lon="49.1425410"><time>2021-09-11T18:52:28.557</time></trkpt><trkpt lat="55.8234820" lon="49.1424930"><time>2021-09-11T18:52:29.557</time></trkpt><trkpt lat="55.8234890" lon="49.1424220"><time>2021-09-11T18:52:31.557</time></trkpt><trkpt lat="55.8234910" lon="49.1423980"><time>2021-09-11T18:52:31.557</time></trkpt><trkpt lat="55.8234950" lon="49.1423510"><time>2021-09-11T18:52:32.557</time></trkpt><trkpt lat="55.8234980" lon="49.1423020"><time>2021-09-11T18:52:33.557</time></trkpt><trkpt lat="55.8235010" lon="49.1422560"><time>2021-09-11T18:52:34.557</time></trkpt><trkpt lat="55.8235060" lon="49.1422130"><time>2021-09-11T18:52:35.557</time></trkpt><trkpt lat="55.8235100" lon="49.1421660"><time>2021-09-11T18:52:36.557</time></trkpt><trkpt lat="55.8235130" lon="49.1421210"><time>2021-09-11T18:52:37.557</time></trkpt><trkpt lat="55.8235150" lon="49.1420770"><time>2021-09-11T18:52:38.557</time></trkpt><trkpt lat="55.8235170" lon="49.1420300"><time>2021-09-11T18:52:39.557</time></trkpt><trkpt lat="55.8235190" lon="49.1419800"><time>2021-09-11T18:52:40.557</time></trkpt><trkpt lat="55.8235220" lon="49.1419330"><time>2021-09-11T18:52:41.557</time></trkpt><trkpt lat="55.8235230" lon="49.1418870"><time>2021-09-11T18:52:42.557</time></trkpt><trkpt lat="55.8235250" lon="49.1418400"><time>2021-09-11T18:52:43.557</time></trkpt><trkpt lat="55.8235260" lon="49.1417950"><time>2021-09-11T18:52:44.557</time></trkpt><trkpt lat="55.8235260" lon="49.1417490"><time>2021-09-11T18:52:45.557</time></trkpt><trkpt lat="55.8235260" lon="49.1417050"><time>2021-09-11T18:52:46.557</time></trkpt><trkpt lat="55.8235240" lon="49.1416610"><time>2021-09-11T18:52:47.557</time></trkpt><trkpt lat="55.8235230" lon="49.1416170"><time>2021-09-11T18:52:48.557</time></trkpt><trkpt lat="55.8235250" lon="49.1415750"><time>2021-09-11T18:52:49.557</time></trkpt><trkpt lat="55.8235260" lon="49.1415300"><time>2021-09-11T18:52:50.557</time></trkpt><trkpt lat="55.8235280" lon="49.1414870"><time>2021-09-11T18:52:51.557</time></trkpt><trkpt lat="55.8235310" lon="49.1414430"><time>2021-09-11T18:52:52.557</time></trkpt><trkpt lat="55.8235320" lon="49.1414030"><time>2021-09-11T18:52:53.557</time></trkpt><trkpt lat="55.8235280" lon="49.1413650"><time>2021-09-11T18:52:54.557</time></trkpt><trkpt lat="55.8235230" lon="49.1413230"><time>2021-09-11T18:52:55.557</time></trkpt><trkpt lat="55.8235200" lon="49.1412800"><time>2021-09-11T18:52:56.557</time></trkpt><trkpt lat="55.8235170" lon="49.1412380"><time>2021-09-11T18:52:57.557</time></trkpt><trkpt lat="55.8235140" lon="49.1411770"><time>2021-09-11T18:52:59.557</time></trkpt><trkpt lat="55.8235130" lon="49.1411570"><time>2021-09-11T18:52:59.557</time></trkpt><trkpt lat="55.8235090" lon="49.1411190"><time>2021-09-11T18:53:00.557</time></trkpt><trkpt lat="55.8235060" lon="49.1410790"><time>2021-09-11T18:53:01.557</time></trkpt><trkpt lat="55.8235010" lon="49.1410420"><time>2021-09-11T18:53:02.557</time></trkpt><trkpt lat="55.8234980" lon="49.1410050"><time>2021-09-11T18:53:03.557</time></trkpt><trkpt lat="55.8234970" lon="49.1409670"><time>2021-09-11T18:53:04.557</time></trkpt><trkpt lat="55.8234960" lon="49.1409290"><time>2021-09-11T18:53:05.557</time></trkpt><trkpt lat="55.8234960" lon="49.1408890"><time>2021-09-11T18:53:06.557</time></trkpt><trkpt lat="55.8234970" lon="49.1408470"><time>2021-09-11T18:53:07.557</time></trkpt><trkpt lat="55.8234980" lon="49.1408030"><time>2021-09-11T18:53:08.557</time></trkpt><trkpt lat="55.8234990" lon="49.1407600"><time>2021-09-11T18:53:09.557</time></trkpt><trkpt lat="55.8234990" lon="49.1407150"><time>2021-09-11T18:53:10.557</time></trkpt><trkpt lat="55.8234980" lon="49.1406700"><time>2021-09-11T18:53:11.557</time></trkpt><trkpt lat="55.8234960" lon="49.1406260"><time>2021-09-11T18:53:12.557</time></trkpt><trkpt lat="55.8234950" lon="49.1405810"><time>2021-09-11T18:53:13.557</time></trkpt><trkpt lat="55.8234960" lon="49.1405370"><time>2021-09-11T18:53:14.557</time></trkpt><trkpt lat="55.8234950" lon="49.1404940"><time>2021-09-11T18:53:15.557</time></trkpt><trkpt lat="55.8234960" lon="49.1404520"><time>2021-09-11T18:53:16.557</time></trkpt><trkpt lat="55.8234990" lon="49.1404100"><time>2021-09-11T18:53:17.557</time></trkpt><trkpt lat="55.8235010" lon="49.1403680"><time>2021-09-11T18:53:18.557</time></trkpt><trkpt lat="55.8235050" lon="49.1403060"><time>2021-09-11T18:53:20.557</time></trkpt><trkpt lat="55.8235070" lon="49.1402840"><time>2021-09-11T18:53:20.557</time></trkpt><trkpt lat="55.8235120" lon="49.1402420"><time>2021-09-11T18:53:21.557</time></trkpt><trkpt lat="55.8235180" lon="49.1402020"><time>2021-09-11T18:53:22.557</time></trkpt><trkpt lat="55.8235250" lon="49.1401610"><time>2021-09-11T18:53:23.557</time></trkpt><trkpt lat="55.8235300" lon="49.1401200"><time>2021-09-11T18:53:24.557</time></trkpt><trkpt lat="55.8235300" lon="49.1400550"><time>2021-09-11T18:53:26.557</time></trkpt><trkpt lat="55.8235290" lon="49.1400330"><time>2021-09-11T18:53:26.557</time></trkpt><trkpt lat="55.8235240" lon="49.1399880"><time>2021-09-11T18:53:27.557</time></trkpt><trkpt lat="55.8235180" lon="49.1399440"><time>2021-09-11T18:53:28.557</time></trkpt><trkpt lat="55.8235130" lon="49.1399010"><time>2021-09-11T18:53:29.557</time></trkpt><trkpt lat="55.8235070" lon="49.1398600"><time>2021-09-11T18:53:30.557</time></trkpt><trkpt lat="55.8235020" lon="49.1398190"><time>2021-09-11T18:53:31.557</time></trkpt><trkpt lat="55.8234970" lon="49.1397770"><time>2021-09-11T18:53:32.557</time></trkpt><trkpt lat="55.8234910" lon="49.1397340"><time>2021-09-11T18:53:33.557</time></trkpt><trkpt lat="55.8234850" lon="49.1396920"><time>2021-09-11T18:53:34.557</time></trkpt><trkpt lat="55.8234810" lon="49.1396470"><time>2021-09-11T18:53:35.557</time></trkpt><trkpt lat="55.8234760" lon="49.1396030"><time>2021-09-11T18:53:36.557</time></trkpt><trkpt lat="55.8234720" lon="49.1395610"><time>2021-09-11T18:53:37.557</time></trkpt><trkpt lat="55.8234690" lon="49.1395180"><time>2021-09-11T18:53:38.557</time></trkpt><trkpt lat="55.8234670" lon="49.1394750"><time>2021-09-11T18:53:39.557</time></trkpt><trkpt lat="55.8234680" lon="49.1394330"><time>2021-09-11T18:53:40.557</time></trkpt><trkpt lat="55.8234690" lon="49.1393890"><time>2021-09-11T18:53:41.557</time></trkpt><trkpt lat="55.8234720" lon="49.1393430"><time>2021-09-11T18:53:42.557</time></trkpt><trkpt lat="55.8234740" lon="49.1392960"><time>2021-09-11T18:53:43.557</time></trkpt><trkpt lat="55.8234770" lon="49.1392470"><time>2021-09-11T18:53:44.557</time></trkpt><trkpt lat="55.8234800" lon="49.1392020"><time>2021-09-11T18:53:45.557</time></trkpt><trkpt lat="55.8234830" lon="49.1391620"><time>2021-09-11T18:53:46.557</time></trkpt><trkpt lat="55.8234860" lon="49.1391200"><time>2021-09-11T18:53:47.557</time></trkpt><trkpt lat="55.8234890" lon="49.1390780"><time>2021-09-11T18:53:48.557</time></trkpt><trkpt lat="55.8234920" lon="49.1390330"><time>2021-09-11T18:53:49.557</time></trkpt><trkpt lat="55.8234960" lon="49.1389840"><time>2021-09-11T18:53:50.557</time></trkpt><trkpt lat="55.8234990" lon="49.1389360"><time>2021-09-11T18:53:51.557</time></trkpt><trkpt lat="55.8235010" lon="49.1388890"><time>2021-09-11T18:53:52.557</time></trkpt><trkpt lat="55.8235030" lon="49.1388440"><time>2021-09-11T18:53:53.557</time></trkpt><trkpt lat="55.8235040" lon="49.1388020"><time>2021-09-11T18:53:54.557</time></trkpt><trkpt lat="55.8235040" lon="49.1387570"><time>2021-09-11T18:53:55.557</time></trkpt><trkpt lat="55.8235030" lon="49.1387160"><time>2021-09-11T18:53:56.557</time></trkpt><trkpt lat="55.8235020" lon="49.1386550"><time>2021-09-11T18:53:58.557</time></trkpt><trkpt lat="55.8235010" lon="49.1386360"><time>2021-09-11T18:53:58.557</time></trkpt><trkpt lat="55.8235020" lon="49.1386020"><time>2021-09-11T18:53:59.557</time></trkpt><trkpt lat="55.8235070" lon="49.1385650"><time>2021-09-11T18:54:00.557</time></trkpt><trkpt lat="55.8235130" lon="49.1385230"><time>2021-09-11T18:54:01.557</time></trkpt><trkpt lat="55.8235160" lon="49.1384780"><time>2021-09-11T18:54:02.557</time></trkpt><trkpt lat="55.8235220" lon="49.1384080"><time>2021-09-11T18:54:04.557</time></trkpt><trkpt lat="55.8235230" lon="49.1383840"><time>2021-09-11T18:54:04.557</time></trkpt><trkpt lat="55.8235250" lon="49.1383350"><time>2021-09-11T18:54:05.557</time></trkpt><trkpt lat="55.8235250" lon="49.1382860"><time>2021-09-11T18:54:06.557</time></trkpt><trkpt lat="55.8235230" lon="49.1382400"><time>2021-09-11T18:54:07.557</time></trkpt><trkpt lat="55.8235210" lon="49.1381960"><time>2021-09-11T18:54:08.557</time></trkpt><trkpt lat="55.8235210" lon="49.1381530"><time>2021-09-11T18:54:09.557</time></trkpt><trkpt lat="55.8235210" lon="49.1381110"><time>2021-09-11T18:54:10.557</time></trkpt><trkpt lat="55.8235220" lon="49.1380690"><time>2021-09-11T18:54:11.557</time></trkpt><trkpt lat="55.8235240" lon="49.1380270"><time>2021-09-11T18:54:12.557</time></trkpt><trkpt lat="55.8235240" lon="49.1379830"><time>2021-09-11T18:54:13.557</time></trkpt><trkpt lat="55.8235260" lon="49.1379370"><time>2021-09-11T18:54:14.557</time></trkpt><trkpt lat="55.8235300" lon="49.1378930"><time>2021-09-11T18:54:15.557</time></trkpt><trkpt lat="55.8235340" lon="49.1378530"><time>2021-09-11T18:54:16.557</time></trkpt><trkpt lat="55.8235380" lon="49.1378110"><time>2021-09-11T18:54:17.557</time></trkpt><trkpt lat="55.8235420" lon="49.1377430"><time>2021-09-11T18:54:19.557</time></trkpt><trkpt lat="55.8235430" lon="49.1377210"><time>2021-09-11T18:54:19.557</time></trkpt><trkpt lat="55.8235440" lon="49.1376790"><time>2021-09-11T18:54:20.557</time></trkpt><trkpt lat="55.8235460" lon="49.1376190"><time>2021-09-11T18:54:22.557</time></trkpt><trkpt lat="55.8235460" lon="49.1375990"><time>2021-09-11T18:54:22.557</time></trkpt><trkpt lat="55.8235470" lon="49.1375540"><time>2021-09-11T18:54:23.557</time></trkpt><trkpt lat="55.8235480" lon="49.1374880"><time>2021-09-11T18:54:25.557</time></trkpt><trkpt lat="55.8235470" lon="49.1374660"><time>2021-09-11T18:54:25.557</time></trkpt><trkpt lat="55.8235450" lon="49.1374240"><time>2021-09-11T18:54:26.557</time></trkpt><trkpt lat="55.8235410" lon="49.1373830"><time>2021-09-11T18:54:27.557</time></trkpt><trkpt lat="55.8235380" lon="49.1373410"><time>2021-09-11T18:54:28.557</time></trkpt><trkpt lat="55.8235350" lon="49.1372930"><time>2021-09-11T18:54:29.557</time></trkpt><trkpt lat="55.8235310" lon="49.1372460"><time>2021-09-11T18:54:30.557</time></trkpt><trkpt lat="55.8235280" lon="49.1372040"><time>2021-09-11T18:54:31.557</time></trkpt><trkpt lat="55.8235260" lon="49.1371620"><time>2021-09-11T18:54:32.557</time></trkpt><trkpt lat="55.8235250" lon="49.1371180"><time>2021-09-11T18:54:33.557</time></trkpt><trkpt lat="55.8235250" lon="49.1370720"><time>2021-09-11T18:54:34.557</time></trkpt><trkpt lat="55.8235240" lon="49.1370270"><time>2021-09-11T18:54:35.557</time></trkpt><trkpt lat="55.8235240" lon="49.1369820"><time>2021-09-11T18:54:36.557</time></trkpt><trkpt lat="55.8235240" lon="49.1369400"><time>2021-09-11T18:54:37.557</time></trkpt><trkpt lat="55.8235250" lon="49.1368960"><time>2021-09-11T18:54:38.557</time></trkpt><trkpt lat="55.8235250" lon="49.1368490"><time>2021-09-11T18:54:39.557</time></trkpt><trkpt lat="55.8235240" lon="49.1368010"><time>2021-09-11T18:54:40.557</time></trkpt><trkpt lat="55.8235240" lon="49.1367340"><time>2021-09-11T18:54:42.557</time></trkpt><trkpt lat="55.8235240" lon="49.1367120"><time>2021-09-11T18:54:42.557</time></trkpt><trkpt lat="55.8235230" lon="49.1366660"><time>2021-09-11T18:54:43.557</time></trkpt><trkpt lat="55.8235230" lon="49.1366190"><time>2021-09-11T18:54:44.557</time></trkpt><trkpt lat="55.8235220" lon="49.1365730"><time>2021-09-11T18:54:45.557</time></trkpt><trkpt lat="55.8235230" lon="49.1365260"><time>2021-09-11T18:54:46.557</time></trkpt><trkpt lat="55.8235250" lon="49.1364830"><time>2021-09-11T18:54:47.557</time></trkpt><trkpt lat="55.8235280" lon="49.1364370"><time>2021-09-11T18:54:48.557</time></trkpt><trkpt lat="55.8235320" lon="49.1363900"><time>2021-09-11T18:54:49.557</time></trkpt><trkpt lat="55.8235380" lon="49.1363380"><time>2021-09-11T18:54:50.557</time></trkpt><trkpt lat="55.8235450" lon="49.1362870"><time>2021-09-11T18:54:51.557</time></trkpt><trkpt lat="55.8235510" lon="49.1362150"><time>2021-09-11T18:54:53.557</time></trkpt><trkpt lat="55.8235520" lon="49.1361900"><time>2021-09-11T18:54:53.557</time></trkpt><trkpt lat="55.8235550" lon="49.1361430"><time>2021-09-11T18:54:54.557</time></trkpt><trkpt lat="55.8235580" lon="49.1360940"><time>2021-09-11T18:54:55.557</time></trkpt><trkpt lat="55.8235610" lon="49.1360290"><time>2021-09-11T18:54:57.557</time></trkpt><trkpt lat="55.8235600" lon="49.1360070"><time>2021-09-11T18:54:57.557</time></trkpt><trkpt lat="55.8235580" lon="49.1359620"><time>2021-09-11T18:54:58.557</time></trkpt><trkpt lat="55.8235570" lon="49.1359160"><time>2021-09-11T18:54:59.557</time></trkpt><trkpt lat="55.8235580" lon="49.1358740"><time>2021-09-11T18:55:00.557</time></trkpt><trkpt lat="55.8235580" lon="49.1358390"><time>2021-09-11T18:55:01.557</time></trkpt><trkpt lat="55.8235590" lon="49.1357770"><time>2021-09-11T18:55:03.557</time></trkpt><trkpt lat="55.8235580" lon="49.1357540"><time>2021-09-11T18:55:03.557</time></trkpt><trkpt lat="55.8235560" lon="49.1357090"><time>2021-09-11T18:55:04.557</time></trkpt><trkpt lat="55.8235500" lon="49.1356630"><time>2021-09-11T18:55:05.557</time></trkpt><trkpt lat="55.8235440" lon="49.1355950"><time>2021-09-11T18:55:07.557</time></trkpt><trkpt lat="55.8235410" lon="49.1355740"><time>2021-09-11T18:55:07.557</time></trkpt><trkpt lat="55.8235350" lon="49.1355290"><time>2021-09-11T18:55:08.557</time></trkpt><trkpt lat="55.8235320" lon="49.1354830"><time>2021-09-11T18:55:09.557</time></trkpt><trkpt lat="55.8235290" lon="49.1354370"><time>2021-09-11T18:55:10.557</time></trkpt><trkpt lat="55.8235250" lon="49.1353880"><time>2021-09-11T18:55:11.557</time></trkpt><trkpt lat="55.8235220" lon="49.1353390"><time>2021-09-11T18:55:12.557</time></trkpt><trkpt lat="55.8235200" lon="49.1352930"><time>2021-09-11T18:55:13.557</time></trkpt><trkpt lat="55.8235170" lon="49.1352490"><time>2021-09-11T18:55:14.557</time></trkpt><trkpt lat="55.8235140" lon="49.1352030"><time>2021-09-11T18:55:15.557</time></trkpt><trkpt lat="55.8235100" lon="49.1351590"><time>2021-09-11T18:55:16.557</time></trkpt><trkpt lat="55.8235070" lon="49.1351150"><time>2021-09-11T18:55:17.557</time></trkpt><trkpt lat="55.8235060" lon="49.1350710"><time>2021-09-11T18:55:18.557</time></trkpt><trkpt lat="55.8235050" lon="49.1350290"><time>2021-09-11T18:55:19.557</time></trkpt><trkpt lat="55.8235040" lon="49.1349850"><time>2021-09-11T18:55:20.557</time></trkpt><trkpt lat="55.8235020" lon="49.1349420"><time>2021-09-11T18:55:21.557</time></trkpt><trkpt lat="55.8235010" lon="49.1348990"><time>2021-09-11T18:55:22.557</time></trkpt><trkpt lat="55.8234980" lon="49.1348350"><time>2021-09-11T18:55:24.557</time></trkpt><trkpt lat="55.8234970" lon="49.1348150"><time>2021-09-11T18:55:24.557</time></trkpt><trkpt lat="55.8234940" lon="49.1347720"><time>2021-09-11T18:55:25.557</time></trkpt><trkpt lat="55.8234910" lon="49.1347330"><time>2021-09-11T18:55:26.557</time></trkpt><trkpt lat="55.8234890" lon="49.1346950"><time>2021-09-11T18:55:27.557</time></trkpt><trkpt lat="55.8234870" lon="49.1346570"><time>2021-09-11T18:55:28.557</time></trkpt><trkpt lat="55.8234830" lon="49.1345990"><time>2021-09-11T18:55:30.557</time></trkpt><trkpt lat="55.8234800" lon="49.1345800"><time>2021-09-11T18:55:30.557</time></trkpt><trkpt lat="55.8234700" lon="49.1345510"><time>2021-09-11T18:55:31.557</time></trkpt><trkpt lat="55.8234550" lon="49.1345290"><time>2021-09-11T18:55:32.557</time></trkpt><trkpt lat="55.8234380" lon="49.1345170"><time>2021-09-11T18:55:33.557</time></trkpt><trkpt lat="55.8234170" lon="49.1345110"><time>2021-09-11T18:55:34.557</time></trkpt><trkpt lat="55.8233980" lon="49.1345120"><time>2021-09-11T18:55:35.557</time></trkpt><trkpt lat="55.8233810" lon="49.1345160"><time>2021-09-11T18:55:36.557</time></trkpt><trkpt lat="55.8233670" lon="49.1345200"><time>2021-09-11T18:55:37.557</time></trkpt><trkpt lat="55.8233520" lon="49.1345270"><time>2021-09-11T18:55:38.557</time></trkpt><trkpt lat="55.8233360" lon="49.1345390"><time>2021-09-11T18:55:39.557</time></trkpt><trkpt lat="55.8233190" lon="49.1345550"><time>2021-09-11T18:55:40.557</time></trkpt><trkpt lat="55.8233020" lon="49.1345720"><time>2021-09-11T18:55:41.557</time></trkpt><trkpt lat="55.8232830" lon="49.1345920"><time>2021-09-11T18:55:42.557</time></trkpt><trkpt lat="55.8232630" lon="49.1346150"><time>2021-09-11T18:55:43.557</time></trkpt><trkpt lat="55.8232420" lon="49.1346390"><time>2021-09-11T18:55:44.557</time></trkpt><trkpt lat="55.8232210" lon="49.1346670"><time>2021-09-11T18:55:45.557</time></trkpt><trkpt lat="55.8231890" lon="49.1347080"><time>2021-09-11T18:55:47.557</time></trkpt><trkpt lat="55.8231780" lon="49.1347210"><time>2021-09-11T18:55:47.557</time></trkpt><trkpt lat="55.8231570" lon="49.1347500"><time>2021-09-11T18:55:48.557</time></trkpt><trkpt lat="55.8231360" lon="49.1347800"><time>2021-09-11T18:55:49.557</time></trkpt><trkpt lat="55.8231160" lon="49.1348130"><time>2021-09-11T18:55:50.557</time></trkpt><trkpt lat="55.8230860" lon="49.1348650"><time>2021-09-11T18:55:52.557</time></trkpt><trkpt lat="55.8230760" lon="49.1348810"><time>2021-09-11T18:55:52.557</time></trkpt><trkpt lat="55.8230560" lon="49.1349130"><time>2021-09-11T18:55:53.557</time></trkpt><trkpt lat="55.8230350" lon="49.1349440"><time>2021-09-11T18:55:54.557</time></trkpt><trkpt lat="55.8230130" lon="49.1349750"><time>2021-09-11T18:55:54.557</time></trkpt><trkpt lat="55.8229910" lon="49.1350040"><time>2021-09-11T18:55:55.557</time></trkpt><trkpt lat="55.8229620" lon="49.1350420"><time>2021-09-11T18:55:57.557</time></trkpt><trkpt lat="55.8229520" lon="49.1350540"><time>2021-09-11T18:55:57.557</time></trkpt><trkpt lat="55.8229330" lon="49.1350770"><time>2021-09-11T18:55:58.557</time></trkpt><trkpt lat="55.8229130" lon="49.1351000"><time>2021-09-11T18:55:59.557</time></trkpt><trkpt lat="55.8228930" lon="49.1351230"><time>2021-09-11T18:56:00.557</time></trkpt><trkpt lat="55.8228710" lon="49.1351460"><time>2021-09-11T18:56:01.557</time></trkpt><trkpt lat="55.8228480" lon="49.1351650"><time>2021-09-11T18:56:02.557</time></trkpt><trkpt lat="55.8228250" lon="49.1351850"><time>2021-09-11T18:56:03.557</time></trkpt><trkpt lat="55.8228020" lon="49.1352030"><time>2021-09-11T18:56:04.557</time></trkpt><trkpt lat="55.8227780" lon="49.1352200"><time>2021-09-11T18:56:05.557</time></trkpt><trkpt lat="55.8227510" lon="49.1352360"><time>2021-09-11T18:56:06.557</time></trkpt><trkpt lat="55.8227260" lon="49.1352490"><time>2021-09-11T18:56:07.557</time></trkpt><trkpt lat="55.8226990" lon="49.1352610"><time>2021-09-11T18:56:08.557</time></trkpt><trkpt lat="55.8226710" lon="49.1352730"><time>2021-09-11T18:56:09.557</time></trkpt><trkpt lat="55.8226450" lon="49.1352830"><time>2021-09-11T18:56:10.557</time></trkpt><trkpt lat="55.8226190" lon="49.1352890"><time>2021-09-11T18:56:11.557</time></trkpt><trkpt lat="55.8225940" lon="49.1352940"><time>2021-09-11T18:56:12.557</time></trkpt><trkpt lat="55.8225700" lon="49.1352970"><time>2021-09-11T18:56:13.557</time></trkpt><trkpt lat="55.8225450" lon="49.1352980"><time>2021-09-11T18:56:14.557</time></trkpt><trkpt lat="55.8225210" lon="49.1353040"><time>2021-09-11T18:56:15.557</time></trkpt><trkpt lat="55.8224970" lon="49.1353080"><time>2021-09-11T18:56:16.557</time></trkpt><trkpt lat="55.8224720" lon="49.1353100"><time>2021-09-11T18:56:17.557</time></trkpt><trkpt lat="55.8224460" lon="49.1353110"><time>2021-09-11T18:56:18.557</time></trkpt><trkpt lat="55.8224200" lon="49.1353120"><time>2021-09-11T18:56:19.557</time></trkpt><trkpt lat="55.8223940" lon="49.1353140"><time>2021-09-11T18:56:20.557</time></trkpt><trkpt lat="55.8223680" lon="49.1353140"><time>2021-09-11T18:56:21.557</time></trkpt><trkpt lat="55.8223410" lon="49.1353110"><time>2021-09-11T18:56:22.557</time></trkpt><trkpt lat="55.8223150" lon="49.1353070"><time>2021-09-11T18:56:23.557</time></trkpt><trkpt lat="55.8222900" lon="49.1353040"><time>2021-09-11T18:56:24.557</time></trkpt><trkpt lat="55.8222640" lon="49.1353030"><time>2021-09-11T18:56:25.557</time></trkpt><trkpt lat="55.8222400" lon="49.1353030"><time>2021-09-11T18:56:26.557</time></trkpt><trkpt lat="55.8222030" lon="49.1353060"><time>2021-09-11T18:56:28.557</time></trkpt><trkpt lat="55.8221900" lon="49.1353070"><time>2021-09-11T18:56:28.557</time></trkpt><trkpt lat="55.8221660" lon="49.1353050"><time>2021-09-11T18:56:29.557</time></trkpt><trkpt lat="55.8221430" lon="49.1353030"><time>2021-09-11T18:56:30.557</time></trkpt><trkpt lat="55.8221190" lon="49.1353030"><time>2021-09-11T18:56:31.557</time></trkpt><trkpt lat="55.8220960" lon="49.1353000"><time>2021-09-11T18:56:32.557</time></trkpt><trkpt lat="55.8220740" lon="49.1352930"><time>2021-09-11T18:56:33.557</time></trkpt><trkpt lat="55.8220520" lon="49.1352880"><time>2021-09-11T18:56:34.557</time></trkpt><trkpt lat="55.8220310" lon="49.1352870"><time>2021-09-11T18:56:35.557</time></trkpt><trkpt lat="55.8220120" lon="49.1352870"><time>2021-09-11T18:56:36.557</time></trkpt><trkpt lat="55.8219980" lon="49.1352840"><time>2021-09-11T18:56:37.557</time></trkpt><trkpt lat="55.8219900" lon="49.1352770"><time>2021-09-11T18:56:38.557</time></trkpt><trkpt lat="55.8219860" lon="49.1352680"><time>2021-09-11T18:56:39.557</time></trkpt><trkpt lat="55.8219850" lon="49.1352620"><time>2021-09-11T18:56:40.557</time></trkpt><trkpt lat="55.8219840" lon="49.1352600"><time>2021-09-11T18:56:41.557</time></trkpt><trkpt lat="55.8219850" lon="49.1352620"><time>2021-09-11T18:56:42.557</time></trkpt><trkpt lat="55.8219850" lon="49.1352700"><time>2021-09-11T18:56:43.557</time></trkpt><trkpt lat="55.8219850" lon="49.1352800"><time>2021-09-11T18:56:44.557</time></trkpt><trkpt lat="55.8219840" lon="49.1352870"><time>2021-09-11T18:56:45.557</time></trkpt><trkpt lat="55.8219750" lon="49.1353010"><time>2021-09-11T18:57:00.557</time></trkpt><trkpt lat="55.8219700" lon="49.1352980"><time>2021-09-11T18:57:01.557</time></trkpt><trkpt lat="55.8219600" lon="49.1352910"><time>2021-09-11T18:57:02.557</time></trkpt><trkpt lat="55.8219460" lon="49.1352830"><time>2021-09-11T18:57:03.557</time></trkpt><trkpt lat="55.8219290" lon="49.1352740"><time>2021-09-11T18:57:04.557</time></trkpt><trkpt lat="55.8219120" lon="49.1352660"><time>2021-09-11T18:57:05.557</time></trkpt><trkpt lat="55.8218940" lon="49.1352620"><time>2021-09-11T18:57:06.557</time></trkpt><trkpt lat="55.8218750" lon="49.1352410"><time>2021-09-11T18:57:07.557</time></trkpt><trkpt lat="55.8218690" lon="49.1352310"><time>2021-09-11T18:57:08.557</time></trkpt><trkpt lat="55.8218640" lon="49.1352200"><time>2021-09-11T18:57:09.557</time></trkpt><trkpt lat="55.8218580" lon="49.1352100"><time>2021-09-11T18:57:10.557</time></trkpt><trkpt lat="55.8218530" lon="49.1351990"><time>2021-09-11T18:57:15.557</time></trkpt><trkpt lat="55.8218470" lon="49.1351890"><time>2021-09-11T18:57:16.557</time></trkpt><trkpt lat="55.8218420" lon="49.1351780"><time>2021-09-11T18:57:17.557</time></trkpt><trkpt lat="55.8218360" lon="49.1351680"><time>2021-09-11T18:57:18.557</time></trkpt><trkpt lat="55.8218310" lon="49.1351570"><time>2021-09-11T18:57:19.557</time></trkpt><trkpt lat="55.8218250" lon="49.1351470"><time>2021-09-11T18:57:21.557</time></trkpt><trkpt lat="55.8218200" lon="49.1351360"><time>2021-09-11T18:57:21.557</time></trkpt><trkpt lat="55.8218140" lon="49.1351070"><time>2021-09-11T18:57:22.557</time></trkpt><trkpt lat="55.8218110" lon="49.1350970"><time>2021-09-11T18:57:23.557</time></trkpt><trkpt lat="55.8218090" lon="49.1350860"><time>2021-09-11T18:57:24.557</time></trkpt><trkpt lat="55.8218070" lon="49.1350750"><time>2021-09-11T18:57:25.557</time></trkpt><trkpt lat="55.8218040" lon="49.1350650"><time>2021-09-11T18:57:27.557</time></trkpt><trkpt lat="55.8218020" lon="49.1350540"><time>2021-09-11T18:57:27.557</time></trkpt><trkpt lat="55.8217950" lon="49.1350220"><time>2021-09-11T18:57:29.557</time></trkpt><trkpt lat="55.8217940" lon="49.1350030"><time>2021-09-11T18:57:33.557</time></trkpt><trkpt lat="55.8217940" lon="49.1349840"><time>2021-09-11T18:57:43.557</time></trkpt><trkpt lat="55.8217930" lon="49.1349660"><time>2021-09-11T18:57:44.557</time></trkpt><trkpt lat="55.8217920" lon="49.1349470"><time>2021-09-11T18:57:45.557</time></trkpt><trkpt lat="55.8217910" lon="49.1349280"><time>2021-09-11T18:57:46.557</time></trkpt><trkpt lat="55.8217900" lon="49.1349090"><time>2021-09-11T18:57:47.557</time></trkpt><trkpt lat="55.8217900" lon="49.1348900"><time>2021-09-11T18:57:48.557</time></trkpt><trkpt lat="55.8217890" lon="49.1348710"><time>2021-09-11T18:57:49.557</time></trkpt><trkpt lat="55.8217880" lon="49.1348520"><time>2021-09-11T18:57:50.557</time></trkpt><trkpt lat="55.8217870" lon="49.1348330"><time>2021-09-11T18:57:51.557</time></trkpt><trkpt lat="55.8217860" lon="49.1348150"><time>2021-09-11T18:57:52.557</time></trkpt><trkpt lat="55.8217860" lon="49.1347960"><time>2021-09-11T18:57:53.557</time></trkpt><trkpt lat="55.8217850" lon="49.1347770"><time>2021-09-11T18:57:55.557</time></trkpt><trkpt lat="55.8217840" lon="49.1347580"><time>2021-09-11T18:57:55.557</time></trkpt><trkpt lat="55.8217820" lon="49.1347250"><time>2021-09-11T18:57:56.557</time></trkpt><trkpt lat="55.8217810" lon="49.1347130"><time>2021-09-11T18:57:57.557</time></trkpt><trkpt lat="55.8217810" lon="49.1347010"><time>2021-09-11T18:57:58.557</time></trkpt><trkpt lat="55.8217800" lon="49.1346890"><time>2021-09-11T18:57:59.557</time></trkpt><trkpt lat="55.8217790" lon="49.1346770"><time>2021-09-11T18:58:00.557</time></trkpt><trkpt lat="55.8217780" lon="49.1346660"><time>2021-09-11T18:58:01.557</time></trkpt><trkpt lat="55.8217770" lon="49.1346540"><time>2021-09-11T18:58:02.557</time></trkpt><trkpt lat="55.8217770" lon="49.1346420"><time>2021-09-11T18:58:04.557</time></trkpt><trkpt lat="55.8217760" lon="49.1346300"><time>2021-09-11T18:58:06.557</time></trkpt><trkpt lat="55.8217750" lon="49.1346180"><time>2021-09-11T18:58:06.557</time></trkpt><trkpt lat="55.8217570" lon="49.1346000"><time>2021-09-11T18:58:07.557</time></trkpt><trkpt lat="55.8217450" lon="49.1345970"><time>2021-09-11T18:58:08.557</time></trkpt><trkpt lat="55.8217340" lon="49.1345940"><time>2021-09-11T18:58:09.557</time></trkpt><trkpt lat="55.8217230" lon="49.1345910"><time>2021-09-11T18:58:10.557</time></trkpt><trkpt lat="55.8217110" lon="49.1345880"><time>2021-09-11T18:58:11.557</time></trkpt><trkpt lat="55.8217000" lon="49.1345840"><time>2021-09-11T18:58:12.557</time></trkpt><trkpt lat="55.8216890" lon="49.1345810"><time>2021-09-11T18:58:13.557</time></trkpt><trkpt lat="55.8216770" lon="49.1345780"><time>2021-09-11T18:58:14.557</time></trkpt><trkpt lat="55.8216660" lon="49.1345750"><time>2021-09-11T18:58:15.557</time></trkpt><trkpt lat="55.8216550" lon="49.1345720"><time>2021-09-11T18:58:16.557</time></trkpt><trkpt lat="55.8216430" lon="49.1345690"><time>2021-09-11T18:58:17.557</time></trkpt><trkpt lat="55.8216320" lon="49.1345660"><time>2021-09-11T18:58:18.557</time></trkpt><trkpt lat="55.8216200" lon="49.1345630"><time>2021-09-11T18:58:19.557</time></trkpt><trkpt lat="55.8216090" lon="49.1345600"><time>2021-09-11T18:58:20.557</time></trkpt><trkpt lat="55.8215980" lon="49.1345570"><time>2021-09-11T18:58:21.557</time></trkpt><trkpt lat="55.8215860" lon="49.1345540"><time>2021-09-11T18:58:22.557</time></trkpt><trkpt lat="55.8215750" lon="49.1345510"><time>2021-09-11T18:58:23.557</time></trkpt><trkpt lat="55.8215640" lon="49.1345470"><time>2021-09-11T18:58:24.557</time></trkpt><trkpt lat="55.8215520" lon="49.1345440"><time>2021-09-11T18:58:25.557</time></trkpt><trkpt lat="55.8215410" lon="49.1345410"><time>2021-09-11T18:58:26.557</time></trkpt><trkpt lat="55.8215300" lon="49.1345380"><time>2021-09-11T18:58:27.557</time></trkpt><trkpt lat="55.8215180" lon="49.1345350"><time>2021-09-11T18:58:29.557</time></trkpt><trkpt lat="55.8215070" lon="49.1345320"><time>2021-09-11T18:58:29.557</time></trkpt><trkpt lat="55.8214810" lon="49.1345530"><time>2021-09-11T18:58:30.557</time></trkpt><trkpt lat="55.8214700" lon="49.1345620"><time>2021-09-11T18:58:31.557</time></trkpt><trkpt lat="55.8214580" lon="49.1345720"><time>2021-09-11T18:58:32.557</time></trkpt><trkpt lat="55.8214460" lon="49.1345820"><time>2021-09-11T18:58:33.557</time></trkpt><trkpt lat="55.8214350" lon="49.1345910"><time>2021-09-11T18:58:35.557</time></trkpt><trkpt lat="55.8214230" lon="49.1346010"><time>2021-09-11T18:58:35.557</time></trkpt><trkpt lat="55.8213990" lon="49.1346170"><time>2021-09-11T18:58:36.557</time></trkpt><trkpt lat="55.8213870" lon="49.1346300"><time>2021-09-11T18:58:37.557</time></trkpt><trkpt lat="55.8213750" lon="49.1346430"><time>2021-09-11T18:58:38.557</time></trkpt><trkpt lat="55.8213630" lon="49.1346550"><time>2021-09-11T18:58:39.557</time></trkpt><trkpt lat="55.8213510" lon="49.1346680"><time>2021-09-11T18:58:40.557</time></trkpt><trkpt lat="55.8213390" lon="49.1346810"><time>2021-09-11T18:58:41.557</time></trkpt><trkpt lat="55.8213270" lon="49.1346940"><time>2021-09-11T18:58:42.557</time></trkpt><trkpt lat="55.8213150" lon="49.1347070"><time>2021-09-11T18:58:43.557</time></trkpt><trkpt lat="55.8213030" lon="49.1347200"><time>2021-09-11T18:58:44.557</time></trkpt><trkpt lat="55.8212910" lon="49.1347320"><time>2021-09-11T18:58:45.557</time></trkpt><trkpt lat="55.8212790" lon="49.1347450"><time>2021-09-11T18:58:46.557</time></trkpt><trkpt lat="55.8212670" lon="49.1347580"><time>2021-09-11T18:58:47.557</time></trkpt><trkpt lat="55.8212560" lon="49.1347710"><time>2021-09-11T18:58:48.557</time></trkpt><trkpt lat="55.8212440" lon="49.1347840"><time>2021-09-11T18:58:49.557</time></trkpt><trkpt lat="55.8212320" lon="49.1347970"><time>2021-09-11T18:58:50.557</time></trkpt><trkpt lat="55.8212200" lon="49.1348100"><time>2021-09-11T18:58:51.557</time></trkpt><trkpt lat="55.8212080" lon="49.1348220"><time>2021-09-11T18:58:52.557</time></trkpt><trkpt lat="55.8211960" lon="49.1348350"><time>2021-09-11T18:58:53.557</time></trkpt><trkpt lat="55.8211840" lon="49.1348480"><time>2021-09-11T18:58:54.557</time></trkpt><trkpt lat="55.8211720" lon="49.1348610"><time>2021-09-11T18:58:55.557</time></trkpt><trkpt lat="55.8211600" lon="49.1348740"><time>2021-09-11T18:58:56.557</time></trkpt><trkpt lat="55.8211480" lon="49.1348870"><time>2021-09-11T18:58:57.557</time></trkpt><trkpt lat="55.8211360" lon="49.1348990"><time>2021-09-11T18:58:58.557</time></trkpt><trkpt lat="55.8211240" lon="49.1349120"><time>2021-09-11T18:58:59.557</time></trkpt><trkpt lat="55.8211120" lon="49.1349250"><time>2021-09-11T18:59:01.557</time></trkpt><trkpt lat="55.8211000" lon="49.1349380"><time>2021-09-11T18:59:01.557</time></trkpt><trkpt lat="55.8210770" lon="49.1349230"><time>2021-09-11T18:59:02.557</time></trkpt><trkpt lat="55.8210680" lon="49.1349140"><time>2021-09-11T18:59:03.557</time></trkpt><trkpt lat="55.8210580" lon="49.1349060"><time>2021-09-11T18:59:05.557</time></trkpt><trkpt lat="55.8210490" lon="49.1348970"><time>2021-09-11T18:59:05.557</time></trkpt><trkpt lat="55.8210280" lon="49.1348710"><time>2021-09-11T18:59:06.557</time></trkpt><trkpt lat="55.8210170" lon="49.1348620"><time>2021-09-11T18:59:07.557</time></trkpt><trkpt lat="55.8210070" lon="49.1348520"><time>2021-09-11T18:59:08.557</time></trkpt><trkpt lat="55.8209970" lon="49.1348430"><time>2021-09-11T18:59:09.557</time></trkpt><trkpt lat="55.8209860" lon="49.1348340"><time>2021-09-11T18:59:11.557</time></trkpt><trkpt lat="55.8209760" lon="49.1348250"><time>2021-09-11T18:59:11.557</time></trkpt><trkpt lat="55.8209610" lon="49.1348160"><time>2021-09-11T18:59:12.557</time></trkpt><trkpt lat="55.8209460" lon="49.1348070"><time>2021-09-11T18:59:13.557</time></trkpt><trkpt lat="55.8209330" lon="49.1347980"><time>2021-09-11T18:59:14.557</time></trkpt><trkpt lat="55.8209190" lon="49.1347870"><time>2021-09-11T18:59:15.557</time></trkpt><trkpt lat="55.8209060" lon="49.1347750"><time>2021-09-11T18:59:16.557</time></trkpt><trkpt lat="55.8208940" lon="49.1347610"><time>2021-09-11T18:59:17.557</time></trkpt><trkpt lat="55.8208830" lon="49.1347430"><time>2021-09-11T18:59:18.557</time></trkpt><trkpt lat="55.8208750" lon="49.1347220"><time>2021-09-11T18:59:19.557</time></trkpt><trkpt lat="55.8208680" lon="49.1346980"><time>2021-09-11T18:59:20.557</time></trkpt><trkpt lat="55.8208630" lon="49.1346710"><time>2021-09-11T18:59:21.557</time></trkpt><trkpt lat="55.8208590" lon="49.1346430"><time>2021-09-11T18:59:22.557</time></trkpt><trkpt lat="55.8208560" lon="49.1346130"><time>2021-09-11T18:59:23.557</time></trkpt><trkpt lat="55.8208560" lon="49.1345800"><time>2021-09-11T18:59:24.557</time></trkpt><trkpt lat="55.8208480" lon="49.1345360"><time>2021-09-11T18:59:25.557</time></trkpt><trkpt lat="55.8208440" lon="49.1345210"><time>2021-09-11T18:59:26.557</time></trkpt><trkpt lat="55.8208390" lon="49.1345070"><time>2021-09-11T18:59:28.557</time></trkpt><trkpt lat="55.8208340" lon="49.1344920"><time>2021-09-11T18:59:28.557</time></trkpt><trkpt lat="55.8208200" lon="49.1344720"><time>2021-09-11T18:59:29.557</time></trkpt><trkpt lat="55.8208120" lon="49.1344650"><time>2021-09-11T18:59:30.557</time></trkpt><trkpt lat="55.8208040" lon="49.1344580"><time>2021-09-11T18:59:31.557</time></trkpt><trkpt lat="55.8207950" lon="49.1344510"><time>2021-09-11T18:59:32.557</time></trkpt><trkpt lat="55.8207870" lon="49.1344440"><time>2021-09-11T18:59:34.557</time></trkpt><trkpt lat="55.8207790" lon="49.1344370"><time>2021-09-11T18:59:34.557</time></trkpt><trkpt lat="55.8207660" lon="49.1344180"><time>2021-09-11T18:59:37.557</time></trkpt><trkpt lat="55.8207620" lon="49.1344150"><time>2021-09-11T18:59:38.557</time></trkpt><trkpt lat="55.8207550" lon="49.1344090"><time>2021-09-11T18:59:39.557</time></trkpt><trkpt lat="55.8207430" lon="49.1344020"><time>2021-09-11T18:59:40.557</time></trkpt><trkpt lat="55.8207270" lon="49.1343950"><time>2021-09-11T18:59:41.557</time></trkpt><trkpt lat="55.8207090" lon="49.1343890"><time>2021-09-11T18:59:42.557</time></trkpt><trkpt lat="55.8206900" lon="49.1343840"><time>2021-09-11T18:59:43.557</time></trkpt><trkpt lat="55.8206720" lon="49.1343800"><time>2021-09-11T18:59:44.557</time></trkpt><trkpt lat="55.8206560" lon="49.1343770"><time>2021-09-11T18:59:45.557</time></trkpt><trkpt lat="55.8206370" lon="49.1343760"><time>2021-09-11T18:59:46.557</time></trkpt><trkpt lat="55.8206180" lon="49.1343760"><time>2021-09-11T18:59:47.557</time></trkpt><trkpt lat="55.8206020" lon="49.1343750"><time>2021-09-11T18:59:48.557</time></trkpt><trkpt lat="55.8205830" lon="49.1343720"><time>2021-09-11T18:59:49.557</time></trkpt><trkpt lat="55.8205530" lon="49.1343690"><time>2021-09-11T18:59:50.557</time></trkpt><trkpt lat="55.8205390" lon="49.1343700"><time>2021-09-11T18:59:51.557</time></trkpt><trkpt lat="55.8205240" lon="49.1343710"><time>2021-09-11T18:59:52.557</time></trkpt><trkpt lat="55.8205100" lon="49.1343710"><time>2021-09-11T18:59:53.557</time></trkpt><trkpt lat="55.8204960" lon="49.1343720"><time>2021-09-11T18:59:54.557</time></trkpt><trkpt lat="55.8204820" lon="49.1343730"><time>2021-09-11T18:59:55.557</time></trkpt><trkpt lat="55.8204680" lon="49.1343740"><time>2021-09-11T18:59:56.557</time></trkpt><trkpt lat="55.8204530" lon="49.1343750"><time>2021-09-11T18:59:57.557</time></trkpt><trkpt lat="55.8204390" lon="49.1343760"><time>2021-09-11T18:59:58.557</time></trkpt><trkpt lat="55.8204250" lon="49.1343770"><time>2021-09-11T18:59:59.557</time></trkpt><trkpt lat="55.8204110" lon="49.1343770"><time>2021-09-11T19:00:00.557</time></trkpt><trkpt lat="55.8203960" lon="49.1343780"><time>2021-09-11T19:00:01.557</time></trkpt><trkpt lat="55.8203820" lon="49.1343790"><time>2021-09-11T19:00:03.557</time></trkpt><trkpt lat="55.8203680" lon="49.1343800"><time>2021-09-11T19:00:03.557</time></trkpt><trkpt lat="55.8203390" lon="49.1343830"><time>2021-09-11T19:00:04.557</time></trkpt><trkpt lat="55.8203270" lon="49.1343840"><time>2021-09-11T19:00:05.557</time></trkpt><trkpt lat="55.8203150" lon="49.1343840"><time>2021-09-11T19:00:07.557</time></trkpt><trkpt lat="55.8203030" lon="49.1343840"><time>2021-09-11T19:00:07.557</time></trkpt><trkpt lat="55.8202840" lon="49.1343860"><time>2021-09-11T19:00:08.557</time></trkpt><trkpt lat="55.8202650" lon="49.1343880"><time>2021-09-11T19:00:09.557</time></trkpt><trkpt lat="55.8202480" lon="49.1343900"><time>2021-09-11T19:00:09.557</time></trkpt><trkpt lat="55.8202180" lon="49.1343970"><time>2021-09-11T19:00:10.557</time></trkpt><trkpt lat="55.8202060" lon="49.1343990"><time>2021-09-11T19:00:12.557</time></trkpt><trkpt lat="55.8201930" lon="49.1344010"><time>2021-09-11T19:00:12.557</time></trkpt><trkpt lat="55.8201760" lon="49.1344070"><time>2021-09-11T19:00:13.557</time></trkpt><trkpt lat="55.8201570" lon="49.1344070"><time>2021-09-11T19:00:14.557</time></trkpt><trkpt lat="55.8201370" lon="49.1344030"><time>2021-09-11T19:00:15.557</time></trkpt><trkpt lat="55.8201180" lon="49.1343980"><time>2021-09-11T19:00:16.557</time></trkpt><trkpt lat="55.8201000" lon="49.1343970"><time>2021-09-11T19:00:17.557</time></trkpt><trkpt lat="55.8200830" lon="49.1343980"><time>2021-09-11T19:00:18.557</time></trkpt><trkpt lat="55.8200670" lon="49.1343990"><time>2021-09-11T19:00:19.557</time></trkpt><trkpt lat="55.8200530" lon="49.1344010"><time>2021-09-11T19:00:20.557</time></trkpt><trkpt lat="55.8200400" lon="49.1344060"><time>2021-09-11T19:00:21.557</time></trkpt><trkpt lat="55.8200270" lon="49.1344160"><time>2021-09-11T19:00:22.557</time></trkpt><trkpt lat="55.8200150" lon="49.1344270"><time>2021-09-11T19:00:23.557</time></trkpt><trkpt lat="55.8200030" lon="49.1344410"><time>2021-09-11T19:00:24.557</time></trkpt><trkpt lat="55.8199890" lon="49.1344600"><time>2021-09-11T19:00:25.557</time></trkpt><trkpt lat="55.8199730" lon="49.1344740"><time>2021-09-11T19:00:26.557</time></trkpt><trkpt lat="55.8199470" lon="49.1344850"><time>2021-09-11T19:00:27.557</time></trkpt><trkpt lat="55.8199360" lon="49.1344870"><time>2021-09-11T19:00:29.557</time></trkpt><trkpt lat="55.8199250" lon="49.1344900"><time>2021-09-11T19:00:29.557</time></trkpt><trkpt lat="55.8199070" lon="49.1344910"><time>2021-09-11T19:00:30.557</time></trkpt><trkpt lat="55.8198870" lon="49.1344930"><time>2021-09-11T19:00:31.557</time></trkpt><trkpt lat="55.8198660" lon="49.1344970"><time>2021-09-11T19:00:32.557</time></trkpt><trkpt lat="55.8198450" lon="49.1345040"><time>2021-09-11T19:00:33.557</time></trkpt><trkpt lat="55.8198250" lon="49.1345130"><time>2021-09-11T19:00:34.557</time></trkpt><trkpt lat="55.8198070" lon="49.1345250"><time>2021-09-11T19:00:35.557</time></trkpt><trkpt lat="55.8197890" lon="49.1345370"><time>2021-09-11T19:00:36.557</time></trkpt><trkpt lat="55.8197700" lon="49.1345510"><time>2021-09-11T19:00:37.557</time></trkpt><trkpt lat="55.8197510" lon="49.1345660"><time>2021-09-11T19:00:38.557</time></trkpt><trkpt lat="55.8197310" lon="49.1345810"><time>2021-09-11T19:00:39.557</time></trkpt><trkpt lat="55.8197110" lon="49.1345930"><time>2021-09-11T19:00:40.557</time></trkpt><trkpt lat="55.8196900" lon="49.1346030"><time>2021-09-11T19:00:41.557</time></trkpt><trkpt lat="55.8196690" lon="49.1346150"><time>2021-09-11T19:00:42.557</time></trkpt><trkpt lat="55.8196480" lon="49.1346240"><time>2021-09-11T19:00:43.557</time></trkpt><trkpt lat="55.8196290" lon="49.1346290"><time>2021-09-11T19:00:44.557</time></trkpt><trkpt lat="55.8196120" lon="49.1346490"><time>2021-09-11T19:00:45.557</time></trkpt><trkpt lat="55.8196100" lon="49.1346650"><time>2021-09-11T19:00:46.557</time></trkpt><trkpt lat="55.8196070" lon="49.1346810"><time>2021-09-11T19:00:47.557</time></trkpt><trkpt lat="55.8196050" lon="49.1346980"><time>2021-09-11T19:00:51.557</time></trkpt><trkpt lat="55.8196020" lon="49.1347140"><time>2021-09-11T19:00:52.557</time></trkpt><trkpt lat="55.8195990" lon="49.1347300"><time>2021-09-11T19:00:53.557</time></trkpt><trkpt lat="55.8195970" lon="49.1347460"><time>2021-09-11T19:00:55.557</time></trkpt><trkpt lat="55.8195940" lon="49.1347620"><time>2021-09-11T19:00:55.557</time></trkpt><trkpt lat="55.8195790" lon="49.1347670"><time>2021-09-11T19:00:56.557</time></trkpt><trkpt lat="55.8195640" lon="49.1347650"><time>2021-09-11T19:00:57.557</time></trkpt><trkpt lat="55.8195470" lon="49.1347570"><time>2021-09-11T19:00:58.557</time></trkpt><trkpt lat="55.8195310" lon="49.1347410"><time>2021-09-11T19:00:59.557</time></trkpt><trkpt lat="55.8195140" lon="49.1347200"><time>2021-09-11T19:01:00.557</time></trkpt><trkpt lat="55.8194970" lon="49.1346960"><time>2021-09-11T19:01:01.557</time></trkpt><trkpt lat="55.8194780" lon="49.1346710"><time>2021-09-11T19:01:02.557</time></trkpt><trkpt lat="55.8194470" lon="49.1346310"><time>2021-09-11T19:01:04.557</time></trkpt><trkpt lat="55.8194360" lon="49.1346180"><time>2021-09-11T19:01:04.557</time></trkpt><trkpt lat="55.8194130" lon="49.1345910"><time>2021-09-11T19:01:05.557</time></trkpt><trkpt lat="55.8193770" lon="49.1345530"><time>2021-09-11T19:01:07.557</time></trkpt><trkpt lat="55.8193650" lon="49.1345420"><time>2021-09-11T19:01:07.557</time></trkpt><trkpt lat="55.8193440" lon="49.1345240"><time>2021-09-11T19:01:08.557</time></trkpt><trkpt lat="55.8193240" lon="49.1345120"><time>2021-09-11T19:01:09.557</time></trkpt><trkpt lat="55.8193040" lon="49.1345000"><time>2021-09-11T19:01:10.557</time></trkpt><trkpt lat="55.8192810" lon="49.1344910"><time>2021-09-11T19:01:11.557</time></trkpt><trkpt lat="55.8192730" lon="49.1344890"><time>2021-09-11T19:01:13.557</time></trkpt><trkpt lat="55.8192640" lon="49.1344870"><time>2021-09-11T19:01:13.557</time></trkpt><trkpt lat="55.8192560" lon="49.1344840"><time>2021-09-11T19:01:14.557</time></trkpt><trkpt lat="55.8192480" lon="49.1344810"><time>2021-09-11T19:01:15.557</time></trkpt><trkpt lat="55.8192410" lon="49.1344750"><time>2021-09-11T19:01:16.557</time></trkpt><trkpt lat="55.8192370" lon="49.1344690"><time>2021-09-11T19:01:17.557</time></trkpt><trkpt lat="55.8192320" lon="49.1344580"><time>2021-09-11T19:01:18.557</time></trkpt><trkpt lat="55.8192220" lon="49.1344460"><time>2021-09-11T19:01:19.557</time></trkpt><trkpt lat="55.8192140" lon="49.1344380"><time>2021-09-11T19:01:20.557</time></trkpt><trkpt lat="55.8192000" lon="49.1344350"><time>2021-09-11T19:01:21.557</time></trkpt><trkpt lat="55.8191910" lon="49.1344340"><time>2021-09-11T19:01:22.557</time></trkpt><trkpt lat="55.8191830" lon="49.1344280"><time>2021-09-11T19:01:23.557</time></trkpt><trkpt lat="55.8191750" lon="49.1344280"><time>2021-09-11T19:01:24.557</time></trkpt><trkpt lat="55.8191710" lon="49.1344280"><time>2021-09-11T19:01:25.557</time></trkpt><trkpt lat="55.8191690" lon="49.1344270"><time>2021-09-11T19:01:26.557</time></trkpt><trkpt lat="55.8191690" lon="49.1344250"><time>2021-09-11T19:01:27.557</time></trkpt><trkpt lat="55.8191650" lon="49.1344190"><time>2021-09-11T19:01:28.557</time></trkpt><trkpt lat="55.8191100" lon="49.1343630"><time>2021-09-11T19:01:30.557</time></trkpt><trkpt lat="55.8191050" lon="49.1343550"><time>2021-09-11T19:01:31.557</time></trkpt><trkpt lat="55.8190990" lon="49.1343380"><time>2021-09-11T19:01:32.557</time></trkpt><trkpt lat="55.8190930" lon="49.1343130"><time>2021-09-11T19:01:33.557</time></trkpt><trkpt lat="55.8190860" lon="49.1342840"><time>2021-09-11T19:01:34.557</time></trkpt><trkpt lat="55.8190790" lon="49.1342520"><time>2021-09-11T19:01:35.557</time></trkpt><trkpt lat="55.8190710" lon="49.1342130"><time>2021-09-11T19:01:36.557</time></trkpt><trkpt lat="55.8190650" lon="49.1341750"><time>2021-09-11T19:01:37.557</time></trkpt><trkpt lat="55.8190590" lon="49.1341320"><time>2021-09-11T19:01:38.557</time></trkpt><trkpt lat="55.8190530" lon="49.1340910"><time>2021-09-11T19:01:39.557</time></trkpt><trkpt lat="55.8190470" lon="49.1340480"><time>2021-09-11T19:01:40.557</time></trkpt><trkpt lat="55.8190380" lon="49.1339830"><time>2021-09-11T19:01:42.557</time></trkpt><trkpt lat="55.8190340" lon="49.1339620"><time>2021-09-11T19:01:42.557</time></trkpt><trkpt lat="55.8190250" lon="49.1339190"><time>2021-09-11T19:01:43.557</time></trkpt><trkpt lat="55.8190190" lon="49.1338790"><time>2021-09-11T19:01:44.557</time></trkpt><trkpt lat="55.8190130" lon="49.1338400"><time>2021-09-11T19:01:45.557</time></trkpt><trkpt lat="55.8190060" lon="49.1337760"><time>2021-09-11T19:01:47.557</time></trkpt><trkpt lat="55.8190030" lon="49.1337540"><time>2021-09-11T19:01:47.557</time></trkpt><trkpt lat="55.8189990" lon="49.1337090"><time>2021-09-11T19:01:48.557</time></trkpt><trkpt lat="55.8189970" lon="49.1336630"><time>2021-09-11T19:01:49.557</time></trkpt><trkpt lat="55.8189950" lon="49.1336190"><time>2021-09-11T19:01:50.557</time></trkpt><trkpt lat="55.8189930" lon="49.1335760"><time>2021-09-11T19:01:51.557</time></trkpt><trkpt lat="55.8189920" lon="49.1335080"><time>2021-09-11T19:01:53.557</time></trkpt><trkpt lat="55.8189910" lon="49.1334860"><time>2021-09-11T19:01:53.557</time></trkpt><trkpt lat="55.8189910" lon="49.1334380"><time>2021-09-11T19:01:54.557</time></trkpt><trkpt lat="55.8189910" lon="49.1333930"><time>2021-09-11T19:01:55.557</time></trkpt><trkpt lat="55.8189910" lon="49.1333520"><time>2021-09-11T19:01:56.557</time></trkpt><trkpt lat="55.8189920" lon="49.1333160"><time>2021-09-11T19:01:57.557</time></trkpt><trkpt lat="55.8189930" lon="49.1332840"><time>2021-09-11T19:01:58.557</time></trkpt><trkpt lat="55.8189880" lon="49.1332460"><time>2021-09-11T19:01:59.557</time></trkpt><trkpt lat="55.8189830" lon="49.1332370"><time>2021-09-11T19:02:00.557</time></trkpt><trkpt lat="55.8189780" lon="49.1332270"><time>2021-09-11T19:02:01.557</time></trkpt><trkpt lat="55.8189730" lon="49.1332180"><time>2021-09-11T19:02:02.557</time></trkpt><trkpt lat="55.8189680" lon="49.1332080"><time>2021-09-11T19:02:03.557</time></trkpt><trkpt lat="55.8189620" lon="49.1331980"><time>2021-09-11T19:02:04.557</time></trkpt><trkpt lat="55.8189570" lon="49.1331890"><time>2021-09-11T19:02:05.557</time></trkpt><trkpt lat="55.8189520" lon="49.1331790"><time>2021-09-11T19:02:07.557</time></trkpt><trkpt lat="55.8189470" lon="49.1331700"><time>2021-09-11T19:02:09.557</time></trkpt><trkpt lat="55.8189420" lon="49.1331600"><time>2021-09-11T19:02:09.557</time></trkpt><trkpt lat="55.8189390" lon="49.1331600"><time>2021-09-11T19:02:10.557</time></trkpt><trkpt lat="55.8189340" lon="49.1331610"><time>2021-09-11T19:02:11.557</time></trkpt><trkpt lat="55.8189300" lon="49.1331580"><time>2021-09-11T19:02:12.557</time></trkpt><trkpt lat="55.8189250" lon="49.1331540"><time>2021-09-11T19:02:13.557</time></trkpt><trkpt lat="55.8189200" lon="49.1331520"><time>2021-09-11T19:02:14.557</time></trkpt><trkpt lat="55.8189170" lon="49.1331490"><time>2021-09-11T19:02:15.557</time></trkpt><trkpt lat="55.8189110" lon="49.1331440"><time>2021-09-11T19:02:16.557</time></trkpt><trkpt lat="55.8189020" lon="49.1331460"><time>2021-09-11T19:02:17.557</time></trkpt><trkpt lat="55.8188880" lon="49.1331440"><time>2021-09-11T19:02:18.557</time></trkpt><trkpt lat="55.8188690" lon="49.1331430"><time>2021-09-11T19:02:19.557</time></trkpt><trkpt lat="55.8188480" lon="49.1331420"><time>2021-09-11T19:02:20.557</time></trkpt><trkpt lat="55.8188260" lon="49.1331380"><time>2021-09-11T19:02:21.557</time></trkpt><trkpt lat="55.8188030" lon="49.1331360"><time>2021-09-11T19:02:22.557</time></trkpt><trkpt lat="55.8187800" lon="49.1331290"><time>2021-09-11T19:02:23.557</time></trkpt><trkpt lat="55.8187560" lon="49.1331220"><time>2021-09-11T19:02:24.557</time></trkpt><trkpt lat="55.8187210" lon="49.1331090"><time>2021-09-11T19:02:26.557</time></trkpt><trkpt lat="55.8187080" lon="49.1331040"><time>2021-09-11T19:02:26.557</time></trkpt><trkpt lat="55.8186820" lon="49.1330970"><time>2021-09-11T19:02:27.557</time></trkpt><trkpt lat="55.8186560" lon="49.1330940"><time>2021-09-11T19:02:28.557</time></trkpt><trkpt lat="55.8186100" lon="49.1330980"><time>2021-09-11T19:02:30.557</time></trkpt><trkpt lat="55.8185940" lon="49.1331000"><time>2021-09-11T19:02:30.557</time></trkpt><trkpt lat="55.8185630" lon="49.1331030"><time>2021-09-11T19:02:31.557</time></trkpt><trkpt lat="55.8185350" lon="49.1331040"><time>2021-09-11T19:02:32.557</time></trkpt><trkpt lat="55.8185080" lon="49.1331060"><time>2021-09-11T19:02:33.557</time></trkpt><trkpt lat="55.8184790" lon="49.1331080"><time>2021-09-11T19:02:34.557</time></trkpt><trkpt lat="55.8184410" lon="49.1331070"><time>2021-09-11T19:02:36.557</time></trkpt><trkpt lat="55.8184290" lon="49.1331070"><time>2021-09-11T19:02:36.557</time></trkpt><trkpt lat="55.8184060" lon="49.1331060"><time>2021-09-11T19:02:37.557</time></trkpt><trkpt lat="55.8183820" lon="49.1331030"><time>2021-09-11T19:02:38.557</time></trkpt><trkpt lat="55.8183570" lon="49.1331050"><time>2021-09-11T19:02:39.557</time></trkpt><trkpt lat="55.8183290" lon="49.1331060"><time>2021-09-11T19:02:40.557</time></trkpt><trkpt lat="55.8183050" lon="49.1331050"><time>2021-09-11T19:02:41.557</time></trkpt><trkpt lat="55.8182790" lon="49.1331040"><time>2021-09-11T19:02:42.557</time></trkpt><trkpt lat="55.8182530" lon="49.1331000"><time>2021-09-11T19:02:43.557</time></trkpt><trkpt lat="55.8182270" lon="49.1330920"><time>2021-09-11T19:02:44.557</time></trkpt><trkpt lat="55.8182010" lon="49.1330820"><time>2021-09-11T19:02:45.557</time></trkpt><trkpt lat="55.8181630" lon="49.1330680"><time>2021-09-11T19:02:47.557</time></trkpt><trkpt lat="55.8181500" lon="49.1330650"><time>2021-09-11T19:02:47.557</time></trkpt><trkpt lat="55.8181240" lon="49.1330600"><time>2021-09-11T19:02:48.557</time></trkpt><trkpt lat="55.8180980" lon="49.1330570"><time>2021-09-11T19:02:49.557</time></trkpt><trkpt lat="55.8180710" lon="49.1330550"><time>2021-09-11T19:02:50.557</time></trkpt><trkpt lat="55.8180410" lon="49.1330540"><time>2021-09-11T19:02:51.557</time></trkpt><trkpt lat="55.8180130" lon="49.1330550"><time>2021-09-11T19:02:52.557</time></trkpt><trkpt lat="55.8179830" lon="49.1330550"><time>2021-09-11T19:02:53.557</time></trkpt><trkpt lat="55.8179540" lon="49.1330570"><time>2021-09-11T19:02:54.557</time></trkpt><trkpt lat="55.8179260" lon="49.1330620"><time>2021-09-11T19:02:55.557</time></trkpt><trkpt lat="55.8178980" lon="49.1330630"><time>2021-09-11T19:02:56.557</time></trkpt><trkpt lat="55.8178590" lon="49.1330660"><time>2021-09-11T19:02:58.557</time></trkpt><trkpt lat="55.8178460" lon="49.1330660"><time>2021-09-11T19:02:58.557</time></trkpt><trkpt lat="55.8178190" lon="49.1330700"><time>2021-09-11T19:02:59.557</time></trkpt><trkpt lat="55.8177900" lon="49.1330750"><time>2021-09-11T19:03:00.557</time></trkpt><trkpt lat="55.8177610" lon="49.1330770"><time>2021-09-11T19:03:01.557</time></trkpt><trkpt lat="55.8177340" lon="49.1330780"><time>2021-09-11T19:03:02.557</time></trkpt><trkpt lat="55.8177060" lon="49.1330780"><time>2021-09-11T19:03:03.557</time></trkpt><trkpt lat="55.8176800" lon="49.1330750"><time>2021-09-11T19:03:04.557</time></trkpt><trkpt lat="55.8176530" lon="49.1330710"><time>2021-09-11T19:03:05.557</time></trkpt><trkpt lat="55.8176270" lon="49.1330680"><time>2021-09-11T19:03:06.557</time></trkpt><trkpt lat="55.8175900" lon="49.1330620"><time>2021-09-11T19:03:08.557</time></trkpt><trkpt lat="55.8175780" lon="49.1330610"><time>2021-09-11T19:03:08.557</time></trkpt><trkpt lat="55.8175560" lon="49.1330580"><time>2021-09-11T19:03:09.557</time></trkpt><trkpt lat="55.8175330" lon="49.1330570"><time>2021-09-11T19:03:10.557</time></trkpt><trkpt lat="55.8175080" lon="49.1330550"><time>2021-09-11T19:03:11.557</time></trkpt><trkpt lat="55.8174850" lon="49.1330500"><time>2021-09-11T19:03:12.557</time></trkpt><trkpt lat="55.8174630" lon="49.1330380"><time>2021-09-11T19:03:13.557</time></trkpt><trkpt lat="55.8174410" lon="49.1330200"><time>2021-09-11T19:03:14.557</time></trkpt><trkpt lat="55.8174200" lon="49.1329920"><time>2021-09-11T19:03:15.557</time></trkpt><trkpt lat="55.8174000" lon="49.1329600"><time>2021-09-11T19:03:16.557</time></trkpt><trkpt lat="55.8173800" lon="49.1329050"><time>2021-09-11T19:03:18.557</time></trkpt><trkpt lat="55.8173740" lon="49.1328860"><time>2021-09-11T19:03:18.557</time></trkpt><trkpt lat="55.8173660" lon="49.1328470"><time>2021-09-11T19:03:19.557</time></trkpt><trkpt lat="55.8173590" lon="49.1328080"><time>2021-09-11T19:03:20.557</time></trkpt><trkpt lat="55.8173540" lon="49.1327620"><time>2021-09-11T19:03:21.557</time></trkpt><trkpt lat="55.8173510" lon="49.1327170"><time>2021-09-11T19:03:22.557</time></trkpt><trkpt lat="55.8173480" lon="49.1326750"><time>2021-09-11T19:03:23.557</time></trkpt><trkpt lat="55.8173410" lon="49.1326130"><time>2021-09-11T19:03:25.557</time></trkpt><trkpt lat="55.8173370" lon="49.1325910"><time>2021-09-11T19:03:25.557</time></trkpt><trkpt lat="55.8173280" lon="49.1325470"><time>2021-09-11T19:03:26.557</time></trkpt><trkpt lat="55.8173200" lon="49.1325040"><time>2021-09-11T19:03:27.557</time></trkpt><trkpt lat="55.8173110" lon="49.1324640"><time>2021-09-11T19:03:28.557</time></trkpt><trkpt lat="55.8173030" lon="49.1324210"><time>2021-09-11T19:03:29.557</time></trkpt><trkpt lat="55.8172920" lon="49.1323550"><time>2021-09-11T19:03:31.557</time></trkpt><trkpt lat="55.8172880" lon="49.1323330"><time>2021-09-11T19:03:31.557</time></trkpt><trkpt lat="55.8172850" lon="49.1322830"><time>2021-09-11T19:03:32.557</time></trkpt><trkpt lat="55.8172820" lon="49.1322340"><time>2021-09-11T19:03:33.557</time></trkpt><trkpt lat="55.8172810" lon="49.1321870"><time>2021-09-11T19:03:34.557</time></trkpt><trkpt lat="55.8172780" lon="49.1321420"><time>2021-09-11T19:03:35.557</time></trkpt><trkpt lat="55.8172760" lon="49.1320970"><time>2021-09-11T19:03:36.557</time></trkpt><trkpt lat="55.8172740" lon="49.1320530"><time>2021-09-11T19:03:37.557</time></trkpt><trkpt lat="55.8172720" lon="49.1320110"><time>2021-09-11T19:03:38.557</time></trkpt><trkpt lat="55.8172700" lon="49.1319720"><time>2021-09-11T19:03:39.557</time></trkpt><trkpt lat="55.8172680" lon="49.1319300"><time>2021-09-11T19:03:40.557</time></trkpt><trkpt lat="55.8172670" lon="49.1318900"><time>2021-09-11T19:03:41.557</time></trkpt><trkpt lat="55.8172640" lon="49.1318460"><time>2021-09-11T19:03:42.557</time></trkpt><trkpt lat="55.8172630" lon="49.1318020"><time>2021-09-11T19:03:43.557</time></trkpt><trkpt lat="55.8172620" lon="49.1317620"><time>2021-09-11T19:03:45.557</time></trkpt><trkpt lat="55.8172590" lon="49.1317240"><time>2021-09-11T19:03:46.557</time></trkpt><trkpt lat="55.8172550" lon="49.1316860"><time>2021-09-11T19:03:46.557</time></trkpt><trkpt lat="55.8172460" lon="49.1316480"><time>2021-09-11T19:03:47.557</time></trkpt><trkpt lat="55.8172360" lon="49.1316160"><time>2021-09-11T19:03:48.557</time></trkpt><trkpt lat="55.8172210" lon="49.1315880"><time>2021-09-11T19:03:49.557</time></trkpt><trkpt lat="55.8172020" lon="49.1315640"><time>2021-09-11T19:03:50.557</time></trkpt><trkpt lat="55.8171820" lon="49.1315400"><time>2021-09-11T19:03:51.557</time></trkpt><trkpt lat="55.8171600" lon="49.1315200"><time>2021-09-11T19:03:52.557</time></trkpt><trkpt lat="55.8171370" lon="49.1315010"><time>2021-09-11T19:03:53.557</time></trkpt><trkpt lat="55.8171140" lon="49.1314860"><time>2021-09-11T19:03:54.557</time></trkpt><trkpt lat="55.8170790" lon="49.1314640"><time>2021-09-11T19:03:56.557</time></trkpt><trkpt lat="55.8170670" lon="49.1314570"><time>2021-09-11T19:03:56.557</time></trkpt><trkpt lat="55.8170430" lon="49.1314420"><time>2021-09-11T19:03:57.557</time></trkpt><trkpt lat="55.8170190" lon="49.1314250"><time>2021-09-11T19:03:58.557</time></trkpt><trkpt lat="55.8169840" lon="49.1313950"><time>2021-09-11T19:04:00.557</time></trkpt><trkpt lat="55.8169720" lon="49.1313860"><time>2021-09-11T19:04:00.557</time></trkpt><trkpt lat="55.8169390" lon="49.1313600"><time>2021-09-11T19:04:02.557</time></trkpt><trkpt lat="55.8169280" lon="49.1313520"><time>2021-09-11T19:04:02.557</time></trkpt><trkpt lat="55.8169070" lon="49.1313280"><time>2021-09-11T19:04:03.557</time></trkpt><trkpt lat="55.8168860" lon="49.1312980"><time>2021-09-11T19:04:04.557</time></trkpt><trkpt lat="55.8168580" lon="49.1312470"><time>2021-09-11T19:04:06.557</time></trkpt><trkpt lat="55.8168490" lon="49.1312300"><time>2021-09-11T19:04:06.557</time></trkpt><trkpt lat="55.8168310" lon="49.1311970"><time>2021-09-11T19:04:07.557</time></trkpt><trkpt lat="55.8168130" lon="49.1311650"><time>2021-09-11T19:04:08.557</time></trkpt><trkpt lat="55.8167940" lon="49.1311390"><time>2021-09-11T19:04:09.557</time></trkpt><trkpt lat="55.8167720" lon="49.1311170"><time>2021-09-11T19:04:10.557</time></trkpt><trkpt lat="55.8167500" lon="49.1310960"><time>2021-09-11T19:04:11.557</time></trkpt><trkpt lat="55.8167290" lon="49.1310740"><time>2021-09-11T19:04:12.557</time></trkpt><trkpt lat="55.8167080" lon="49.1310450"><time>2021-09-11T19:04:13.557</time></trkpt><trkpt lat="55.8166930" lon="49.1310180"><time>2021-09-11T19:04:14.557</time></trkpt><trkpt lat="55.8166800" lon="49.1309930"><time>2021-09-11T19:04:15.557</time></trkpt><trkpt lat="55.8166690" lon="49.1309680"><time>2021-09-11T19:04:16.557</time></trkpt><trkpt lat="55.8166620" lon="49.1309450"><time>2021-09-11T19:04:17.557</time></trkpt><trkpt lat="55.8166560" lon="49.1309250"><time>2021-09-11T19:04:18.557</time></trkpt><trkpt lat="55.8166490" lon="49.1309030"><time>2021-09-11T19:04:19.557</time></trkpt><trkpt lat="55.8166400" lon="49.1308810"><time>2021-09-11T19:04:20.557</time></trkpt><trkpt lat="55.8166250" lon="49.1308600"><time>2021-09-11T19:04:21.557</time></trkpt><trkpt lat="55.8165960" lon="49.1308270"><time>2021-09-11T19:04:23.557</time></trkpt><trkpt lat="55.8165850" lon="49.1308160"><time>2021-09-11T19:04:23.557</time></trkpt><trkpt lat="55.8165650" lon="49.1307930"><time>2021-09-11T19:04:24.557</time></trkpt><trkpt lat="55.8165470" lon="49.1307660"><time>2021-09-11T19:04:24.557</time></trkpt><trkpt lat="55.8165280" lon="49.1307370"><time>2021-09-11T19:04:25.557</time></trkpt><trkpt lat="55.8165070" lon="49.1307080"><time>2021-09-11T19:04:26.557</time></trkpt><trkpt lat="55.8164710" lon="49.1306660"><time>2021-09-11T19:04:28.557</time></trkpt><trkpt lat="55.8164590" lon="49.1306530"><time>2021-09-11T19:04:28.557</time></trkpt><trkpt lat="55.8164350" lon="49.1306290"><time>2021-09-11T19:04:29.557</time></trkpt><trkpt lat="55.8164120" lon="49.1306020"><time>2021-09-11T19:04:30.557</time></trkpt><trkpt lat="55.8163910" lon="49.1305790"><time>2021-09-11T19:04:31.557</time></trkpt><trkpt lat="55.8163700" lon="49.1305550"><time>2021-09-11T19:04:32.557</time></trkpt><trkpt lat="55.8163510" lon="49.1305270"><time>2021-09-11T19:04:33.557</time></trkpt><trkpt lat="55.8163380" lon="49.1304960"><time>2021-09-11T19:04:34.557</time></trkpt><trkpt lat="55.8163300" lon="49.1304600"><time>2021-09-11T19:04:35.557</time></trkpt><trkpt lat="55.8163260" lon="49.1304220"><time>2021-09-11T19:04:36.557</time></trkpt><trkpt lat="55.8163270" lon="49.1303810"><time>2021-09-11T19:04:37.557</time></trkpt><trkpt lat="55.8163300" lon="49.1303390"><time>2021-09-11T19:04:38.557</time></trkpt><trkpt lat="55.8163360" lon="49.1302930"><time>2021-09-11T19:04:39.557</time></trkpt><trkpt lat="55.8163420" lon="49.1302520"><time>2021-09-11T19:04:40.557</time></trkpt><trkpt lat="55.8163490" lon="49.1302100"><time>2021-09-11T19:04:41.557</time></trkpt><trkpt lat="55.8163570" lon="49.1301660"><time>2021-09-11T19:04:42.557</time></trkpt><trkpt lat="55.8163660" lon="49.1301220"><time>2021-09-11T19:04:43.557</time></trkpt><trkpt lat="55.8163770" lon="49.1300770"><time>2021-09-11T19:04:44.557</time></trkpt><trkpt lat="55.8163880" lon="49.1300350"><time>2021-09-11T19:04:45.557</time></trkpt><trkpt lat="55.8164010" lon="49.1299890"><time>2021-09-11T19:04:46.557</time></trkpt><trkpt lat="55.8164130" lon="49.1299440"><time>2021-09-11T19:04:47.557</time></trkpt><trkpt lat="55.8164250" lon="49.1298960"><time>2021-09-11T19:04:48.557</time></trkpt><trkpt lat="55.8164410" lon="49.1298280"><time>2021-09-11T19:04:50.557</time></trkpt><trkpt lat="55.8164460" lon="49.1298040"><time>2021-09-11T19:04:50.557</time></trkpt><trkpt lat="55.8164560" lon="49.1297560"><time>2021-09-11T19:04:51.557</time></trkpt><trkpt lat="55.8164650" lon="49.1297090"><time>2021-09-11T19:04:52.557</time></trkpt><trkpt lat="55.8164740" lon="49.1296610"><time>2021-09-11T19:04:53.557</time></trkpt><trkpt lat="55.8164830" lon="49.1296160"><time>2021-09-11T19:04:54.557</time></trkpt><trkpt lat="55.8164930" lon="49.1295720"><time>2021-09-11T19:04:55.557</time></trkpt><trkpt lat="55.8165020" lon="49.1295290"><time>2021-09-11T19:04:56.557</time></trkpt><trkpt lat="55.8165080" lon="49.1294870"><time>2021-09-11T19:04:57.557</time></trkpt><trkpt lat="55.8165160" lon="49.1294400"><time>2021-09-11T19:04:58.557</time></trkpt><trkpt lat="55.8165300" lon="49.1293740"><time>2021-09-11T19:05:00.557</time></trkpt><trkpt lat="55.8165340" lon="49.1293520"><time>2021-09-11T19:05:00.557</time></trkpt><trkpt lat="55.8165420" lon="49.1293080"><time>2021-09-11T19:05:01.557</time></trkpt><trkpt lat="55.8165490" lon="49.1292660"><time>2021-09-11T19:05:02.557</time></trkpt><trkpt lat="55.8165630" lon="49.1292030"><time>2021-09-11T19:05:04.557</time></trkpt><trkpt lat="55.8165680" lon="49.1291810"><time>2021-09-11T19:05:04.557</time></trkpt><trkpt lat="55.8165790" lon="49.1291380"><time>2021-09-11T19:05:05.557</time></trkpt><trkpt lat="55.8165910" lon="49.1290890"><time>2021-09-11T19:05:06.557</time></trkpt><trkpt lat="55.8166020" lon="49.1290430"><time>2021-09-11T19:05:07.557</time></trkpt><trkpt lat="55.8166110" lon="49.1289990"><time>2021-09-11T19:05:08.557</time></trkpt><trkpt lat="55.8166250" lon="49.1289320"><time>2021-09-11T19:05:10.557</time></trkpt><trkpt lat="55.8166290" lon="49.1289090"><time>2021-09-11T19:05:10.557</time></trkpt><trkpt lat="55.8166380" lon="49.1288650"><time>2021-09-11T19:05:11.557</time></trkpt><trkpt lat="55.8166470" lon="49.1288210"><time>2021-09-11T19:05:12.557</time></trkpt><trkpt lat="55.8166560" lon="49.1287770"><time>2021-09-11T19:05:13.557</time></trkpt><trkpt lat="55.8166660" lon="49.1287090"><time>2021-09-11T19:05:15.557</time></trkpt><trkpt lat="55.8166690" lon="49.1286860"><time>2021-09-11T19:05:15.557</time></trkpt><trkpt lat="55.8166760" lon="49.1286420"><time>2021-09-11T19:05:16.557</time></trkpt><trkpt lat="55.8166830" lon="49.1285980"><time>2021-09-11T19:05:17.557</time></trkpt><trkpt lat="55.8166900" lon="49.1285580"><time>2021-09-11T19:05:18.557</time></trkpt><trkpt lat="55.8166960" lon="49.1285190"><time>2021-09-11T19:05:19.557</time></trkpt><trkpt lat="55.8167000" lon="49.1284790"><time>2021-09-11T19:05:20.557</time></trkpt><trkpt lat="55.8167020" lon="49.1284390"><time>2021-09-11T19:05:21.557</time></trkpt><trkpt lat="55.8167030" lon="49.1284020"><time>2021-09-11T19:05:22.557</time></trkpt><trkpt lat="55.8167050" lon="49.1283580"><time>2021-09-11T19:05:23.557</time></trkpt><trkpt lat="55.8167060" lon="49.1283150"><time>2021-09-11T19:05:24.557</time></trkpt><trkpt lat="55.8167070" lon="49.1282720"><time>2021-09-11T19:05:25.557</time></trkpt><trkpt lat="55.8167090" lon="49.1282080"><time>2021-09-11T19:05:27.557</time></trkpt><trkpt lat="55.8167090" lon="49.1281860"><time>2021-09-11T19:05:27.557</time></trkpt><trkpt lat="55.8167110" lon="49.1281390"><time>2021-09-11T19:05:28.557</time></trkpt><trkpt lat="55.8167110" lon="49.1280930"><time>2021-09-11T19:05:29.557</time></trkpt><trkpt lat="55.8167110" lon="49.1280450"><time>2021-09-11T19:05:30.557</time></trkpt><trkpt lat="55.8167100" lon="49.1279960"><time>2021-09-11T19:05:31.557</time></trkpt><trkpt lat="55.8167080" lon="49.1279260"><time>2021-09-11T19:05:33.557</time></trkpt><trkpt lat="55.8167070" lon="49.1279030"><time>2021-09-11T19:05:33.557</time></trkpt><trkpt lat="55.8167070" lon="49.1278580"><time>2021-09-11T19:05:34.557</time></trkpt><trkpt lat="55.8167070" lon="49.1278120"><time>2021-09-11T19:05:35.557</time></trkpt><trkpt lat="55.8167070" lon="49.1277650"><time>2021-09-11T19:05:36.557</time></trkpt><trkpt lat="55.8167080" lon="49.1277180"><time>2021-09-11T19:05:37.557</time></trkpt><trkpt lat="55.8167080" lon="49.1276730"><time>2021-09-11T19:05:38.557</time></trkpt><trkpt lat="55.8167080" lon="49.1276270"><time>2021-09-11T19:05:39.557</time></trkpt><trkpt lat="55.8167060" lon="49.1275810"><time>2021-09-11T19:05:40.557</time></trkpt><trkpt lat="55.8167040" lon="49.1275360"><time>2021-09-11T19:05:41.557</time></trkpt><trkpt lat="55.8167040" lon="49.1274910"><time>2021-09-11T19:05:42.557</time></trkpt><trkpt lat="55.8167020" lon="49.1274250"><time>2021-09-11T19:05:44.557</time></trkpt><trkpt lat="55.8167010" lon="49.1274040"><time>2021-09-11T19:05:44.557</time></trkpt><trkpt lat="55.8166980" lon="49.1273620"><time>2021-09-11T19:05:45.557</time></trkpt><trkpt lat="55.8166940" lon="49.1273200"><time>2021-09-11T19:05:46.557</time></trkpt><trkpt lat="55.8166920" lon="49.1272800"><time>2021-09-11T19:05:47.557</time></trkpt><trkpt lat="55.8166890" lon="49.1272410"><time>2021-09-11T19:05:48.557</time></trkpt><trkpt lat="55.8166880" lon="49.1272040"><time>2021-09-11T19:05:49.557</time></trkpt><trkpt lat="55.8166890" lon="49.1271700"><time>2021-09-11T19:05:50.557</time></trkpt><trkpt lat="55.8166900" lon="49.1271200"><time>2021-09-11T19:05:51.557</time></trkpt><trkpt lat="55.8166910" lon="49.1271000"><time>2021-09-11T19:05:52.557</time></trkpt><trkpt lat="55.8166910" lon="49.1270810"><time>2021-09-11T19:05:53.557</time></trkpt><trkpt lat="55.8166920" lon="49.1270610"><time>2021-09-11T19:05:55.557</time></trkpt><trkpt lat="55.8166920" lon="49.1270420"><time>2021-09-11T19:05:55.557</time></trkpt><trkpt lat="55.8166910" lon="49.1270230"><time>2021-09-11T19:05:56.557</time></trkpt><trkpt lat="55.8166890" lon="49.1270180"><time>2021-09-11T19:05:57.557</time></trkpt><trkpt lat="55.8166880" lon="49.1270120"><time>2021-09-11T19:05:58.557</time></trkpt><trkpt lat="55.8166860" lon="49.1270070"><time>2021-09-11T19:06:00.557</time></trkpt><trkpt lat="55.8166840" lon="49.1270020"><time>2021-09-11T19:06:01.557</time></trkpt><trkpt lat="55.8166820" lon="49.1269970"><time>2021-09-11T19:06:04.557</time></trkpt><trkpt lat="55.8166810" lon="49.1269910"><time>2021-09-11T19:06:37.557</time></trkpt><trkpt lat="55.8166790" lon="49.1269860"><time>2021-09-11T19:06:57.557</time></trkpt><trkpt lat="55.8166770" lon="49.1269810"><time>2021-09-11T19:06:58.557</time></trkpt><trkpt lat="55.8166750" lon="49.1269760"><time>2021-09-11T19:06:59.557</time></trkpt><trkpt lat="55.8166740" lon="49.1269700"><time>2021-09-11T19:07:07.557</time></trkpt><trkpt lat="55.8166720" lon="49.1269650"><time>2021-09-11T19:07:09.557</time></trkpt><trkpt lat="55.8166700" lon="49.1269600"><time>2021-09-11T19:07:09.557</time></trkpt><trkpt lat="55.8166520" lon="49.1269550"><time>2021-09-11T19:07:10.557</time></trkpt><trkpt lat="55.8166350" lon="49.1269430"><time>2021-09-11T19:07:11.557</time></trkpt><trkpt lat="55.8166200" lon="49.1269260"><time>2021-09-11T19:07:12.557</time></trkpt><trkpt lat="55.8166090" lon="49.1269010"><time>2021-09-11T19:07:13.557</time></trkpt><trkpt lat="55.8166010" lon="49.1268660"><time>2021-09-11T19:07:14.557</time></trkpt><trkpt lat="55.8165770" lon="49.1266890"><time>2021-09-11T19:07:16.557</time></trkpt><trkpt lat="55.8165770" lon="49.1266780"><time>2021-09-11T19:07:17.557</time></trkpt><trkpt lat="55.8165740" lon="49.1266520"><time>2021-09-11T19:07:18.557</time></trkpt><trkpt lat="55.8165670" lon="49.1266220"><time>2021-09-11T19:07:19.557</time></trkpt><trkpt lat="55.8165590" lon="49.1265830"><time>2021-09-11T19:07:20.557</time></trkpt><trkpt lat="55.8165500" lon="49.1265400"><time>2021-09-11T19:07:21.557</time></trkpt><trkpt lat="55.8165420" lon="49.1265000"><time>2021-09-11T19:07:22.557</time></trkpt><trkpt lat="55.8165300" lon="49.1264600"><time>2021-09-11T19:07:23.557</time></trkpt><trkpt lat="55.8165030" lon="49.1264040"><time>2021-09-11T19:07:25.557</time></trkpt><trkpt lat="55.8164930" lon="49.1263890"><time>2021-09-11T19:07:25.557</time></trkpt><trkpt lat="55.8164730" lon="49.1263620"><time>2021-09-11T19:07:26.557</time></trkpt><trkpt lat="55.8164500" lon="49.1263420"><time>2021-09-11T19:07:27.557</time></trkpt><trkpt lat="55.8164260" lon="49.1263290"><time>2021-09-11T19:07:28.557</time></trkpt><trkpt lat="55.8163990" lon="49.1263230"><time>2021-09-11T19:07:29.557</time></trkpt><trkpt lat="55.8163590" lon="49.1263170"><time>2021-09-11T19:07:31.557</time></trkpt><trkpt lat="55.8163460" lon="49.1263160"><time>2021-09-11T19:07:31.557</time></trkpt><trkpt lat="55.8163170" lon="49.1263130"><time>2021-09-11T19:07:32.557</time></trkpt><trkpt lat="55.8162880" lon="49.1263140"><time>2021-09-11T19:07:33.557</time></trkpt><trkpt lat="55.8162580" lon="49.1263160"><time>2021-09-11T19:07:34.557</time></trkpt><trkpt lat="55.8162280" lon="49.1263190"><time>2021-09-11T19:07:35.557</time></trkpt><trkpt lat="55.8161980" lon="49.1263200"><time>2021-09-11T19:07:36.557</time></trkpt><trkpt lat="55.8161690" lon="49.1263220"><time>2021-09-11T19:07:37.557</time></trkpt><trkpt lat="55.8161400" lon="49.1263220"><time>2021-09-11T19:07:38.557</time></trkpt><trkpt lat="55.8161130" lon="49.1263220"><time>2021-09-11T19:07:39.557</time></trkpt><trkpt lat="55.8160850" lon="49.1263220"><time>2021-09-11T19:07:40.557</time></trkpt><trkpt lat="55.8160560" lon="49.1263220"><time>2021-09-11T19:07:41.557</time></trkpt><trkpt lat="55.8160260" lon="49.1263220"><time>2021-09-11T19:07:42.557</time></trkpt><trkpt lat="55.8159960" lon="49.1263220"><time>2021-09-11T19:07:43.557</time></trkpt><trkpt lat="55.8159650" lon="49.1263210"><time>2021-09-11T19:07:44.557</time></trkpt><trkpt lat="55.8159330" lon="49.1263210"><time>2021-09-11T19:07:45.557</time></trkpt><trkpt lat="55.8159020" lon="49.1263200"><time>2021-09-11T19:07:46.557</time></trkpt><trkpt lat="55.8158720" lon="49.1263200"><time>2021-09-11T19:07:47.557</time></trkpt><trkpt lat="55.8158420" lon="49.1263200"><time>2021-09-11T19:07:48.557</time></trkpt><trkpt lat="55.8158130" lon="49.1263190"><time>2021-09-11T19:07:49.557</time></trkpt><trkpt lat="55.8157850" lon="49.1263170"><time>2021-09-11T19:07:50.557</time></trkpt><trkpt lat="55.8157560" lon="49.1263150"><time>2021-09-11T19:07:51.557</time></trkpt><trkpt lat="55.8157130" lon="49.1263140"><time>2021-09-11T19:07:53.557</time></trkpt><trkpt lat="55.8156990" lon="49.1263140"><time>2021-09-11T19:07:53.557</time></trkpt><trkpt lat="55.8156720" lon="49.1263130"><time>2021-09-11T19:07:54.557</time></trkpt><trkpt lat="55.8156450" lon="49.1263140"><time>2021-09-11T19:07:55.557</time></trkpt><trkpt lat="55.8156210" lon="49.1263120"><time>2021-09-11T19:07:56.557</time></trkpt><trkpt lat="55.8155990" lon="49.1263060"><time>2021-09-11T19:07:57.557</time></trkpt><trkpt lat="55.8155720" lon="49.1262940"><time>2021-09-11T19:07:59.557</time></trkpt><trkpt lat="55.8155640" lon="49.1262890"><time>2021-09-11T19:07:59.557</time></trkpt><trkpt lat="55.8155430" lon="49.1262700"><time>2021-09-11T19:08:00.557</time></trkpt><trkpt lat="55.8155360" lon="49.1262600"><time>2021-09-11T19:08:01.557</time></trkpt><trkpt lat="55.8155280" lon="49.1262510"><time>2021-09-11T19:08:03.557</time></trkpt><trkpt lat="55.8155200" lon="49.1262420"><time>2021-09-11T19:08:03.557</time></trkpt><trkpt lat="55.8155140" lon="49.1262230"><time>2021-09-11T19:08:04.557</time></trkpt><trkpt lat="55.8155160" lon="49.1262150"><time>2021-09-11T19:08:05.557</time></trkpt><trkpt lat="55.8155180" lon="49.1262070"><time>2021-09-11T19:08:06.557</time></trkpt><trkpt lat="55.8155200" lon="49.1261990"><time>2021-09-11T19:08:07.557</time></trkpt><trkpt lat="55.8155220" lon="49.1261910"><time>2021-09-11T19:08:08.557</time></trkpt><trkpt lat="55.8155230" lon="49.1261820"><time>2021-09-11T19:08:10.557</time></trkpt><trkpt lat="55.8155250" lon="49.1261740"><time>2021-09-11T19:08:11.557</time></trkpt><trkpt lat="55.8155270" lon="49.1261660"><time>2021-09-11T19:08:12.557</time></trkpt><trkpt lat="55.8155290" lon="49.1261580"><time>2021-09-11T19:08:13.557</time></trkpt><trkpt lat="55.8155310" lon="49.1261500"><time>2021-09-11T19:08:15.557</time></trkpt><trkpt lat="55.8155330" lon="49.1261420"><time>2021-09-11T19:08:15.557</time></trkpt><trkpt lat="55.8155460" lon="49.1261270"><time>2021-09-11T19:08:16.557</time></trkpt><trkpt lat="55.8155600" lon="49.1261080"><time>2021-09-11T19:08:17.557</time></trkpt><trkpt lat="55.8155750" lon="49.1260870"><time>2021-09-11T19:08:18.557</time></trkpt><trkpt lat="55.8155900" lon="49.1260680"><time>2021-09-11T19:08:19.557</time></trkpt><trkpt lat="55.8156140" lon="49.1260370"><time>2021-09-11T19:08:21.557</time></trkpt><trkpt lat="55.8156220" lon="49.1260260"><time>2021-09-11T19:08:21.557</time></trkpt><trkpt lat="55.8156410" lon="49.1260040"><time>2021-09-11T19:08:22.557</time></trkpt><trkpt lat="55.8156610" lon="49.1259800"><time>2021-09-11T19:08:23.557</time></trkpt><trkpt lat="55.8156810" lon="49.1259570"><time>2021-09-11T19:08:24.557</time></trkpt><trkpt lat="55.8157000" lon="49.1259340"><time>2021-09-11T19:08:25.557</time></trkpt><trkpt lat="55.8157190" lon="49.1259100"><time>2021-09-11T19:08:26.557</time></trkpt><trkpt lat="55.8157390" lon="49.1258840"><time>2021-09-11T19:08:27.557</time></trkpt><trkpt lat="55.8157570" lon="49.1258560"><time>2021-09-11T19:08:28.557</time></trkpt><trkpt lat="55.8157770" lon="49.1258270"><time>2021-09-11T19:08:29.557</time></trkpt><trkpt lat="55.8157960" lon="49.1257990"><time>2021-09-11T19:08:30.557</time></trkpt><trkpt lat="55.8158160" lon="49.1257730"><time>2021-09-11T19:08:31.557</time></trkpt><trkpt lat="55.8158360" lon="49.1257490"><time>2021-09-11T19:08:32.557</time></trkpt><trkpt lat="55.8158550" lon="49.1257220"><time>2021-09-11T19:08:33.557</time></trkpt><trkpt lat="55.8158760" lon="49.1256960"><time>2021-09-11T19:08:34.557</time></trkpt><trkpt lat="55.8158960" lon="49.1256690"><time>2021-09-11T19:08:35.557</time></trkpt><trkpt lat="55.8159170" lon="49.1256420"><time>2021-09-11T19:08:36.557</time></trkpt><trkpt lat="55.8159490" lon="49.1256020"><time>2021-09-11T19:08:38.557</time></trkpt><trkpt lat="55.8159580" lon="49.1255880"><time>2021-09-11T19:08:38.557</time></trkpt><trkpt lat="55.8159770" lon="49.1255610"><time>2021-09-11T19:08:39.557</time></trkpt><trkpt lat="55.8159950" lon="49.1255310"><time>2021-09-11T19:08:39.557</time></trkpt><trkpt lat="55.8160120" lon="49.1255010"><time>2021-09-11T19:08:40.557</time></trkpt><trkpt lat="55.8160280" lon="49.1254710"><time>2021-09-11T19:08:41.557</time></trkpt><trkpt lat="55.8160430" lon="49.1254400"><time>2021-09-11T19:08:42.557</time></trkpt><trkpt lat="55.8160580" lon="49.1254090"><time>2021-09-11T19:08:43.557</time></trkpt><trkpt lat="55.8160730" lon="49.1253750"><time>2021-09-11T19:08:44.557</time></trkpt><trkpt lat="55.8160860" lon="49.1253390"><time>2021-09-11T19:08:45.557</time></trkpt><trkpt lat="55.8160990" lon="49.1253020"><time>2021-09-11T19:08:46.557</time></trkpt><trkpt lat="55.8161120" lon="49.1252650"><time>2021-09-11T19:08:47.557</time></trkpt><trkpt lat="55.8161250" lon="49.1252290"><time>2021-09-11T19:08:48.557</time></trkpt><trkpt lat="55.8161380" lon="49.1251950"><time>2021-09-11T19:08:49.557</time></trkpt><trkpt lat="55.8161530" lon="49.1251620"><time>2021-09-11T19:08:50.557</time></trkpt><trkpt lat="55.8161770" lon="49.1251130"><time>2021-09-11T19:08:52.557</time></trkpt><trkpt lat="55.8161850" lon="49.1250970"><time>2021-09-11T19:08:52.557</time></trkpt><trkpt lat="55.8162000" lon="49.1250640"><time>2021-09-11T19:08:53.557</time></trkpt><trkpt lat="55.8162150" lon="49.1250310"><time>2021-09-11T19:08:54.557</time></trkpt><trkpt lat="55.8162290" lon="49.1249950"><time>2021-09-11T19:08:55.557</time></trkpt><trkpt lat="55.8162430" lon="49.1249590"><time>2021-09-11T19:08:56.557</time></trkpt><trkpt lat="55.8162640" lon="49.1249060"><time>2021-09-11T19:08:58.557</time></trkpt><trkpt lat="55.8162700" lon="49.1248880"><time>2021-09-11T19:08:58.557</time></trkpt><trkpt lat="55.8162820" lon="49.1248540"><time>2021-09-11T19:08:59.557</time></trkpt><trkpt lat="55.8162950" lon="49.1248190"><time>2021-09-11T19:09:00.557</time></trkpt><trkpt lat="55.8163120" lon="49.1247640"><time>2021-09-11T19:09:02.557</time></trkpt><trkpt lat="55.8163170" lon="49.1247450"><time>2021-09-11T19:09:02.557</time></trkpt><trkpt lat="55.8163260" lon="49.1247050"><time>2021-09-11T19:09:03.557</time></trkpt><trkpt lat="55.8163350" lon="49.1246670"><time>2021-09-11T19:09:04.557</time></trkpt><trkpt lat="55.8163430" lon="49.1246280"><time>2021-09-11T19:09:05.557</time></trkpt><trkpt lat="55.8163490" lon="49.1245880"><time>2021-09-11T19:09:06.557</time></trkpt><trkpt lat="55.8163530" lon="49.1245490"><time>2021-09-11T19:09:07.557</time></trkpt><trkpt lat="55.8163540" lon="49.1245110"><time>2021-09-11T19:09:08.557</time></trkpt><trkpt lat="55.8163540" lon="49.1244680"><time>2021-09-11T19:09:09.557</time></trkpt><trkpt lat="55.8163530" lon="49.1244210"><time>2021-09-11T19:09:10.557</time></trkpt><trkpt lat="55.8163520" lon="49.1243720"><time>2021-09-11T19:09:11.557</time></trkpt><trkpt lat="55.8163520" lon="49.1243260"><time>2021-09-11T19:09:12.557</time></trkpt><trkpt lat="55.8163540" lon="49.1242780"><time>2021-09-11T19:09:13.557</time></trkpt><trkpt lat="55.8163550" lon="49.1242300"><time>2021-09-11T19:09:14.557</time></trkpt><trkpt lat="55.8163550" lon="49.1241820"><time>2021-09-11T19:09:15.557</time></trkpt><trkpt lat="55.8163560" lon="49.1241350"><time>2021-09-11T19:09:16.557</time></trkpt><trkpt lat="55.8163560" lon="49.1240880"><time>2021-09-11T19:09:17.557</time></trkpt><trkpt lat="55.8163570" lon="49.1240170"><time>2021-09-11T19:09:19.557</time></trkpt><trkpt lat="55.8163560" lon="49.1239940"><time>2021-09-11T19:09:19.557</time></trkpt><trkpt lat="55.8163550" lon="49.1239490"><time>2021-09-11T19:09:20.557</time></trkpt><trkpt lat="55.8163550" lon="49.1239030"><time>2021-09-11T19:09:21.557</time></trkpt><trkpt lat="55.8163550" lon="49.1238570"><time>2021-09-11T19:09:22.557</time></trkpt><trkpt lat="55.8163550" lon="49.1238080"><time>2021-09-11T19:09:23.557</time></trkpt><trkpt lat="55.8163550" lon="49.1237340"><time>2021-09-11T19:09:25.557</time></trkpt><trkpt lat="55.8163550" lon="49.1237090"><time>2021-09-11T19:09:25.557</time></trkpt><trkpt lat="55.8163560" lon="49.1236620"><time>2021-09-11T19:09:26.557</time></trkpt><trkpt lat="55.8163560" lon="49.1236140"><time>2021-09-11T19:09:27.557</time></trkpt><trkpt lat="55.8163570" lon="49.1235650"><time>2021-09-11T19:09:28.557</time></trkpt><trkpt lat="55.8163560" lon="49.1235170"><time>2021-09-11T19:09:29.557</time></trkpt><trkpt lat="55.8163550" lon="49.1234680"><time>2021-09-11T19:09:30.557</time></trkpt><trkpt lat="55.8163540" lon="49.1234200"><time>2021-09-11T19:09:31.557</time></trkpt><trkpt lat="55.8163540" lon="49.1233740"><time>2021-09-11T19:09:32.557</time></trkpt><trkpt lat="55.8163540" lon="49.1233290"><time>2021-09-11T19:09:33.557</time></trkpt><trkpt lat="55.8163540" lon="49.1232850"><time>2021-09-11T19:09:34.557</time></trkpt><trkpt lat="55.8163540" lon="49.1232400"><time>2021-09-11T19:09:35.557</time></trkpt><trkpt lat="55.8163550" lon="49.1231940"><time>2021-09-11T19:09:36.557</time></trkpt><trkpt lat="55.8163550" lon="49.1231480"><time>2021-09-11T19:09:37.557</time></trkpt><trkpt lat="55.8163550" lon="49.1231010"><time>2021-09-11T19:09:38.557</time></trkpt><trkpt lat="55.8163560" lon="49.1230530"><time>2021-09-11T19:09:39.557</time></trkpt><trkpt lat="55.8163570" lon="49.1230050"><time>2021-09-11T19:09:40.557</time></trkpt><trkpt lat="55.8163580" lon="49.1229340"><time>2021-09-11T19:09:42.557</time></trkpt><trkpt lat="55.8163580" lon="49.1229100"><time>2021-09-11T19:09:42.557</time></trkpt><trkpt lat="55.8163580" lon="49.1228410"><time>2021-09-11T19:09:44.557</time></trkpt><trkpt lat="55.8163580" lon="49.1228180"><time>2021-09-11T19:09:44.557</time></trkpt><trkpt lat="55.8163590" lon="49.1227480"><time>2021-09-11T19:09:46.557</time></trkpt><trkpt lat="55.8163590" lon="49.1227250"><time>2021-09-11T19:09:46.557</time></trkpt><trkpt lat="55.8163590" lon="49.1226780"><time>2021-09-11T19:09:47.557</time></trkpt><trkpt lat="55.8163590" lon="49.1226330"><time>2021-09-11T19:09:48.557</time></trkpt><trkpt lat="55.8163590" lon="49.1225890"><time>2021-09-11T19:09:49.557</time></trkpt><trkpt lat="55.8163610" lon="49.1225430"><time>2021-09-11T19:09:50.557</time></trkpt><trkpt lat="55.8163630" lon="49.1224970"><time>2021-09-11T19:09:51.557</time></trkpt><trkpt lat="55.8163640" lon="49.1224490"><time>2021-09-11T19:09:52.557</time></trkpt><trkpt lat="55.8163640" lon="49.1224020"><time>2021-09-11T19:09:53.557</time></trkpt><trkpt lat="55.8163640" lon="49.1223540"><time>2021-09-11T19:09:54.557</time></trkpt><trkpt lat="55.8163630" lon="49.1222840"><time>2021-09-11T19:09:56.557</time></trkpt><trkpt lat="55.8163630" lon="49.1222610"><time>2021-09-11T19:09:56.557</time></trkpt><trkpt lat="55.8163630" lon="49.1222150"><time>2021-09-11T19:09:57.557</time></trkpt><trkpt lat="55.8163630" lon="49.1221680"><time>2021-09-11T19:09:58.557</time></trkpt><trkpt lat="55.8163620" lon="49.1221230"><time>2021-09-11T19:09:59.557</time></trkpt><trkpt lat="55.8163630" lon="49.1220780"><time>2021-09-11T19:10:00.557</time></trkpt><trkpt lat="55.8163640" lon="49.1220340"><time>2021-09-11T19:10:01.557</time></trkpt><trkpt lat="55.8163650" lon="49.1219910"><time>2021-09-11T19:10:02.557</time></trkpt><trkpt lat="55.8163640" lon="49.1219480"><time>2021-09-11T19:10:03.557</time></trkpt><trkpt lat="55.8163630" lon="49.1218810"><time>2021-09-11T19:10:05.557</time></trkpt><trkpt lat="55.8163620" lon="49.1218590"><time>2021-09-11T19:10:05.557</time></trkpt><trkpt lat="55.8163610" lon="49.1218130"><time>2021-09-11T19:10:06.557</time></trkpt><trkpt lat="55.8163610" lon="49.1217690"><time>2021-09-11T19:10:07.557</time></trkpt><trkpt lat="55.8163640" lon="49.1217200"><time>2021-09-11T19:10:08.557</time></trkpt><trkpt lat="55.8163670" lon="49.1216720"><time>2021-09-11T19:10:09.557</time></trkpt><trkpt lat="55.8163700" lon="49.1216250"><time>2021-09-11T19:10:10.557</time></trkpt><trkpt lat="55.8163710" lon="49.1215790"><time>2021-09-11T19:10:11.557</time></trkpt><trkpt lat="55.8163710" lon="49.1215330"><time>2021-09-11T19:10:12.557</time></trkpt><trkpt lat="55.8163710" lon="49.1214870"><time>2021-09-11T19:10:13.557</time></trkpt><trkpt lat="55.8163700" lon="49.1214400"><time>2021-09-11T19:10:14.557</time></trkpt><trkpt lat="55.8163700" lon="49.1213950"><time>2021-09-11T19:10:15.557</time></trkpt><trkpt lat="55.8163710" lon="49.1213290"><time>2021-09-11T19:10:17.557</time></trkpt><trkpt lat="55.8163710" lon="49.1213060"><time>2021-09-11T19:10:17.557</time></trkpt><trkpt lat="55.8163710" lon="49.1212630"><time>2021-09-11T19:10:18.557</time></trkpt><trkpt lat="55.8163710" lon="49.1212170"><time>2021-09-11T19:10:19.557</time></trkpt><trkpt lat="55.8163700" lon="49.1211430"><time>2021-09-11T19:10:21.557</time></trkpt><trkpt lat="55.8163700" lon="49.1211180"><time>2021-09-11T19:10:21.557</time></trkpt><trkpt lat="55.8163640" lon="49.1209250"><time>2021-09-11T19:10:23.557</time></trkpt><trkpt lat="55.8163640" lon="49.1209130"><time>2021-09-11T19:10:24.557</time></trkpt><trkpt lat="55.8163640" lon="49.1208920"><time>2021-09-11T19:10:25.557</time></trkpt><trkpt lat="55.8163640" lon="49.1208620"><time>2021-09-11T19:10:26.557</time></trkpt><trkpt lat="55.8163630" lon="49.1208250"><time>2021-09-11T19:10:27.557</time></trkpt><trkpt lat="55.8163630" lon="49.1207860"><time>2021-09-11T19:10:29.557</time></trkpt><trkpt lat="55.8163640" lon="49.1207470"><time>2021-09-11T19:10:30.557</time></trkpt><trkpt lat="55.8163640" lon="49.1207030"><time>2021-09-11T19:10:30.557</time></trkpt><trkpt lat="55.8163640" lon="49.1206580"><time>2021-09-11T19:10:31.557</time></trkpt><trkpt lat="55.8163650" lon="49.1206150"><time>2021-09-11T19:10:32.557</time></trkpt><trkpt lat="55.8163710" lon="49.1205720"><time>2021-09-11T19:10:33.557</time></trkpt><trkpt lat="55.8163810" lon="49.1205260"><time>2021-09-11T19:10:34.557</time></trkpt><trkpt lat="55.8163940" lon="49.1204820"><time>2021-09-11T19:10:35.557</time></trkpt><trkpt lat="55.8164070" lon="49.1204410"><time>2021-09-11T19:10:36.557</time></trkpt><trkpt lat="55.8164180" lon="49.1204050"><time>2021-09-11T19:10:37.557</time></trkpt><trkpt lat="55.8164280" lon="49.1203660"><time>2021-09-11T19:10:38.557</time></trkpt><trkpt lat="55.8164370" lon="49.1203220"><time>2021-09-11T19:10:39.557</time></trkpt><trkpt lat="55.8164430" lon="49.1202810"><time>2021-09-11T19:10:40.557</time></trkpt><trkpt lat="55.8164480" lon="49.1202360"><time>2021-09-11T19:10:41.557</time></trkpt><trkpt lat="55.8164510" lon="49.1201940"><time>2021-09-11T19:10:42.557</time></trkpt><trkpt lat="55.8164530" lon="49.1201290"><time>2021-09-11T19:10:44.557</time></trkpt><trkpt lat="55.8164530" lon="49.1201070"><time>2021-09-11T19:10:44.557</time></trkpt><trkpt lat="55.8164520" lon="49.1200650"><time>2021-09-11T19:10:45.557</time></trkpt><trkpt lat="55.8164520" lon="49.1200230"><time>2021-09-11T19:10:46.557</time></trkpt><trkpt lat="55.8164520" lon="49.1199780"><time>2021-09-11T19:10:47.557</time></trkpt><trkpt lat="55.8164520" lon="49.1199330"><time>2021-09-11T19:10:48.557</time></trkpt><trkpt lat="55.8164510" lon="49.1198860"><time>2021-09-11T19:10:49.557</time></trkpt><trkpt lat="55.8164490" lon="49.1198360"><time>2021-09-11T19:10:50.557</time></trkpt><trkpt lat="55.8164470" lon="49.1197860"><time>2021-09-11T19:10:51.557</time></trkpt><trkpt lat="55.8164460" lon="49.1197380"><time>2021-09-11T19:10:52.557</time></trkpt><trkpt lat="55.8164450" lon="49.1196900"><time>2021-09-11T19:10:53.557</time></trkpt><trkpt lat="55.8164440" lon="49.1196420"><time>2021-09-11T19:10:54.557</time></trkpt><trkpt lat="55.8164450" lon="49.1195910"><time>2021-09-11T19:10:55.557</time></trkpt><trkpt lat="55.8164470" lon="49.1195160"><time>2021-09-11T19:10:57.557</time></trkpt><trkpt lat="55.8164470" lon="49.1194910"><time>2021-09-11T19:10:57.557</time></trkpt><trkpt lat="55.8164470" lon="49.1194420"><time>2021-09-11T19:10:58.557</time></trkpt><trkpt lat="55.8164470" lon="49.1194000"><time>2021-09-11T19:10:59.557</time></trkpt><trkpt lat="55.8164470" lon="49.1193560"><time>2021-09-11T19:11:00.557</time></trkpt><trkpt lat="55.8164460" lon="49.1193110"><time>2021-09-11T19:11:01.557</time></trkpt><trkpt lat="55.8164460" lon="49.1192630"><time>2021-09-11T19:11:02.557</time></trkpt><trkpt lat="55.8164480" lon="49.1192140"><time>2021-09-11T19:11:03.557</time></trkpt><trkpt lat="55.8164500" lon="49.1191450"><time>2021-09-11T19:11:05.557</time></trkpt><trkpt lat="55.8164500" lon="49.1191220"><time>2021-09-11T19:11:05.557</time></trkpt><trkpt lat="55.8164500" lon="49.1190790"><time>2021-09-11T19:11:06.557</time></trkpt><trkpt lat="55.8164510" lon="49.1190350"><time>2021-09-11T19:11:07.557</time></trkpt><trkpt lat="55.8164530" lon="49.1189920"><time>2021-09-11T19:11:08.557</time></trkpt><trkpt lat="55.8164550" lon="49.1189470"><time>2021-09-11T19:11:09.557</time></trkpt><trkpt lat="55.8164580" lon="49.1188780"><time>2021-09-11T19:11:11.557</time></trkpt><trkpt lat="55.8164580" lon="49.1188540"><time>2021-09-11T19:11:11.557</time></trkpt><trkpt lat="55.8164610" lon="49.1188060"><time>2021-09-11T19:11:12.557</time></trkpt><trkpt lat="55.8164630" lon="49.1187560"><time>2021-09-11T19:11:13.557</time></trkpt><trkpt lat="55.8164640" lon="49.1187070"><time>2021-09-11T19:11:14.557</time></trkpt><trkpt lat="55.8164640" lon="49.1186600"><time>2021-09-11T19:11:15.557</time></trkpt><trkpt lat="55.8164640" lon="49.1186190"><time>2021-09-11T19:11:16.557</time></trkpt><trkpt lat="55.8164640" lon="49.1185740"><time>2021-09-11T19:11:17.557</time></trkpt><trkpt lat="55.8164630" lon="49.1185300"><time>2021-09-11T19:11:18.557</time></trkpt><trkpt lat="55.8164620" lon="49.1184890"><time>2021-09-11T19:11:19.557</time></trkpt><trkpt lat="55.8164600" lon="49.1184490"><time>2021-09-11T19:11:20.557</time></trkpt><trkpt lat="55.8164580" lon="49.1184030"><time>2021-09-11T19:11:21.557</time></trkpt><trkpt lat="55.8164570" lon="49.1183610"><time>2021-09-11T19:11:22.557</time></trkpt><trkpt lat="55.8164550" lon="49.1183130"><time>2021-09-11T19:11:23.557</time></trkpt><trkpt lat="55.8164540" lon="49.1182660"><time>2021-09-11T19:11:24.557</time></trkpt><trkpt lat="55.8164540" lon="49.1182190"><time>2021-09-11T19:11:25.557</time></trkpt><trkpt lat="55.8164530" lon="49.1181760"><time>2021-09-11T19:11:26.557</time></trkpt><trkpt lat="55.8164510" lon="49.1181050"><time>2021-09-11T19:11:28.557</time></trkpt><trkpt lat="55.8164500" lon="49.1180820"><time>2021-09-11T19:11:28.557</time></trkpt><trkpt lat="55.8164480" lon="49.1180330"><time>2021-09-11T19:11:29.557</time></trkpt><trkpt lat="55.8164460" lon="49.1179840"><time>2021-09-11T19:11:30.557</time></trkpt><trkpt lat="55.8164460" lon="49.1179340"><time>2021-09-11T19:11:31.557</time></trkpt><trkpt lat="55.8164440" lon="49.1178850"><time>2021-09-11T19:11:32.557</time></trkpt><trkpt lat="55.8164440" lon="49.1178140"><time>2021-09-11T19:11:34.557</time></trkpt><trkpt lat="55.8164440" lon="49.1177910"><time>2021-09-11T19:11:34.557</time></trkpt><trkpt lat="55.8164430" lon="49.1177440"><time>2021-09-11T19:11:35.557</time></trkpt><trkpt lat="55.8164430" lon="49.1176960"><time>2021-09-11T19:11:36.557</time></trkpt><trkpt lat="55.8164440" lon="49.1176480"><time>2021-09-11T19:11:37.557</time></trkpt><trkpt lat="55.8164450" lon="49.1176050"><time>2021-09-11T19:11:38.557</time></trkpt><trkpt lat="55.8164460" lon="49.1175570"><time>2021-09-11T19:11:39.557</time></trkpt><trkpt lat="55.8164470" lon="49.1175110"><time>2021-09-11T19:11:40.557</time></trkpt><trkpt lat="55.8164470" lon="49.1174650"><time>2021-09-11T19:11:41.557</time></trkpt><trkpt lat="55.8164470" lon="49.1174160"><time>2021-09-11T19:11:42.557</time></trkpt><trkpt lat="55.8164480" lon="49.1173680"><time>2021-09-11T19:11:43.557</time></trkpt><trkpt lat="55.8164470" lon="49.1173230"><time>2021-09-11T19:11:44.557</time></trkpt><trkpt lat="55.8164470" lon="49.1172750"><time>2021-09-11T19:11:45.557</time></trkpt><trkpt lat="55.8164460" lon="49.1172260"><time>2021-09-11T19:11:46.557</time></trkpt><trkpt lat="55.8164460" lon="49.1171790"><time>2021-09-11T19:11:47.557</time></trkpt><trkpt lat="55.8164460" lon="49.1171330"><time>2021-09-11T19:11:48.557</time></trkpt><trkpt lat="55.8164460" lon="49.1170870"><time>2021-09-11T19:11:49.557</time></trkpt><trkpt lat="55.8164460" lon="49.1170420"><time>2021-09-11T19:11:50.557</time></trkpt><trkpt lat="55.8164460" lon="49.1170000"><time>2021-09-11T19:11:51.557</time></trkpt><trkpt lat="55.8164480" lon="49.1169560"><time>2021-09-11T19:11:52.557</time></trkpt><trkpt lat="55.8164500" lon="49.1169110"><time>2021-09-11T19:11:53.557</time></trkpt><trkpt lat="55.8164510" lon="49.1168700"><time>2021-09-11T19:11:54.557</time></trkpt><trkpt lat="55.8164520" lon="49.1168030"><time>2021-09-11T19:11:56.557</time></trkpt><trkpt lat="55.8164520" lon="49.1167800"><time>2021-09-11T19:11:56.557</time></trkpt><trkpt lat="55.8164530" lon="49.1167330"><time>2021-09-11T19:11:57.557</time></trkpt><trkpt lat="55.8164540" lon="49.1166900"><time>2021-09-11T19:11:58.557</time></trkpt><trkpt lat="55.8164550" lon="49.1166440"><time>2021-09-11T19:11:59.557</time></trkpt><trkpt lat="55.8164560" lon="49.1166010"><time>2021-09-11T19:12:00.557</time></trkpt><trkpt lat="55.8164550" lon="49.1165580"><time>2021-09-11T19:12:01.557</time></trkpt><trkpt lat="55.8164540" lon="49.1165100"><time>2021-09-11T19:12:02.557</time></trkpt><trkpt lat="55.8164540" lon="49.1164630"><time>2021-09-11T19:12:03.557</time></trkpt><trkpt lat="55.8164520" lon="49.1164200"><time>2021-09-11T19:12:04.557</time></trkpt><trkpt lat="55.8164510" lon="49.1163550"><time>2021-09-11T19:12:06.557</time></trkpt><trkpt lat="55.8164510" lon="49.1163330"><time>2021-09-11T19:12:06.557</time></trkpt><trkpt lat="55.8164510" lon="49.1162890"><time>2021-09-11T19:12:07.557</time></trkpt><trkpt lat="55.8164510" lon="49.1162440"><time>2021-09-11T19:12:08.557</time></trkpt><trkpt lat="55.8164520" lon="49.1161990"><time>2021-09-11T19:12:09.557</time></trkpt><trkpt lat="55.8164540" lon="49.1161540"><time>2021-09-11T19:12:10.557</time></trkpt><trkpt lat="55.8164560" lon="49.1161050"><time>2021-09-11T19:12:11.557</time></trkpt><trkpt lat="55.8164600" lon="49.1160600"><time>2021-09-11T19:12:12.557</time></trkpt><trkpt lat="55.8164630" lon="49.1160150"><time>2021-09-11T19:12:13.557</time></trkpt><trkpt lat="55.8164660" lon="49.1159700"><time>2021-09-11T19:12:14.557</time></trkpt><trkpt lat="55.8164710" lon="49.1159010"><time>2021-09-11T19:12:16.557</time></trkpt><trkpt lat="55.8164720" lon="49.1158780"><time>2021-09-11T19:12:16.557</time></trkpt><trkpt lat="55.8164750" lon="49.1158320"><time>2021-09-11T19:12:17.557</time></trkpt><trkpt lat="55.8164780" lon="49.1157870"><time>2021-09-11T19:12:18.557</time></trkpt><trkpt lat="55.8164810" lon="49.1157410"><time>2021-09-11T19:12:19.557</time></trkpt><trkpt lat="55.8164860" lon="49.1156960"><time>2021-09-11T19:12:20.557</time></trkpt><trkpt lat="55.8164920" lon="49.1156280"><time>2021-09-11T19:12:22.557</time></trkpt><trkpt lat="55.8164940" lon="49.1156050"><time>2021-09-11T19:12:22.557</time></trkpt><trkpt lat="55.8164970" lon="49.1155590"><time>2021-09-11T19:12:23.557</time></trkpt><trkpt lat="55.8165000" lon="49.1155150"><time>2021-09-11T19:12:24.557</time></trkpt><trkpt lat="55.8165030" lon="49.1154680"><time>2021-09-11T19:12:25.557</time></trkpt><trkpt lat="55.8165060" lon="49.1154200"><time>2021-09-11T19:12:26.557</time></trkpt><trkpt lat="55.8165090" lon="49.1153740"><time>2021-09-11T19:12:27.557</time></trkpt><trkpt lat="55.8165110" lon="49.1153280"><time>2021-09-11T19:12:28.557</time></trkpt><trkpt lat="55.8165130" lon="49.1152820"><time>2021-09-11T19:12:29.557</time></trkpt><trkpt lat="55.8165120" lon="49.1152370"><time>2021-09-11T19:12:30.557</time></trkpt><trkpt lat="55.8165120" lon="49.1151910"><time>2021-09-11T19:12:31.557</time></trkpt><trkpt lat="55.8165100" lon="49.1151210"><time>2021-09-11T19:12:33.557</time></trkpt><trkpt lat="55.8165090" lon="49.1151000"><time>2021-09-11T19:12:33.557</time></trkpt><trkpt lat="55.8165070" lon="49.1150550"><time>2021-09-11T19:12:34.557</time></trkpt><trkpt lat="55.8165060" lon="49.1150120"><time>2021-09-11T19:12:35.557</time></trkpt><trkpt lat="55.8165060" lon="49.1149730"><time>2021-09-11T19:12:36.557</time></trkpt><trkpt lat="55.8165070" lon="49.1149340"><time>2021-09-11T19:12:37.557</time></trkpt><trkpt lat="55.8165070" lon="49.1148900"><time>2021-09-11T19:12:38.557</time></trkpt><trkpt lat="55.8165060" lon="49.1148500"><time>2021-09-11T19:12:39.557</time></trkpt><trkpt lat="55.8165060" lon="49.1148060"><time>2021-09-11T19:12:40.557</time></trkpt><trkpt lat="55.8165070" lon="49.1147620"><time>2021-09-11T19:12:41.557</time></trkpt><trkpt lat="55.8165080" lon="49.1147170"><time>2021-09-11T19:12:42.557</time></trkpt><trkpt lat="55.8165100" lon="49.1146530"><time>2021-09-11T19:12:44.557</time></trkpt><trkpt lat="55.8165100" lon="49.1146300"><time>2021-09-11T19:12:44.557</time></trkpt><trkpt lat="55.8165110" lon="49.1145820"><time>2021-09-11T19:12:45.557</time></trkpt><trkpt lat="55.8165130" lon="49.1145350"><time>2021-09-11T19:12:46.557</time></trkpt><trkpt lat="55.8165150" lon="49.1144900"><time>2021-09-11T19:12:47.557</time></trkpt><trkpt lat="55.8165150" lon="49.1144470"><time>2021-09-11T19:12:48.557</time></trkpt><trkpt lat="55.8165170" lon="49.1144040"><time>2021-09-11T19:12:49.557</time></trkpt><trkpt lat="55.8165190" lon="49.1143630"><time>2021-09-11T19:12:50.557</time></trkpt><trkpt lat="55.8165200" lon="49.1143240"><time>2021-09-11T19:12:51.557</time></trkpt><trkpt lat="55.8165210" lon="49.1142840"><time>2021-09-11T19:12:52.557</time></trkpt><trkpt lat="55.8165230" lon="49.1142400"><time>2021-09-11T19:12:53.557</time></trkpt><trkpt lat="55.8165250" lon="49.1141960"><time>2021-09-11T19:12:54.557</time></trkpt><trkpt lat="55.8165260" lon="49.1141520"><time>2021-09-11T19:12:54.557</time></trkpt><trkpt lat="55.8165280" lon="49.1141120"><time>2021-09-11T19:12:55.557</time></trkpt><trkpt lat="55.8165290" lon="49.1140700"><time>2021-09-11T19:12:56.557</time></trkpt><trkpt lat="55.8165290" lon="49.1140260"><time>2021-09-11T19:12:57.557</time></trkpt><trkpt lat="55.8165260" lon="49.1139770"><time>2021-09-11T19:12:58.557</time></trkpt><trkpt lat="55.8165220" lon="49.1139300"><time>2021-09-11T19:12:59.557</time></trkpt><trkpt lat="55.8165210" lon="49.1138840"><time>2021-09-11T19:13:00.557</time></trkpt><trkpt lat="55.8165200" lon="49.1138390"><time>2021-09-11T19:13:01.557</time></trkpt><trkpt lat="55.8165210" lon="49.1137910"><time>2021-09-11T19:13:02.557</time></trkpt><trkpt lat="55.8165230" lon="49.1137210"><time>2021-09-11T19:13:04.557</time></trkpt><trkpt lat="55.8165230" lon="49.1136990"><time>2021-09-11T19:13:04.557</time></trkpt><trkpt lat="55.8165230" lon="49.1136490"><time>2021-09-11T19:13:05.557</time></trkpt><trkpt lat="55.8165220" lon="49.1136020"><time>2021-09-11T19:13:06.557</time></trkpt><trkpt lat="55.8165250" lon="49.1135480"><time>2021-09-11T19:13:07.557</time></trkpt><trkpt lat="55.8165280" lon="49.1135000"><time>2021-09-11T19:13:08.557</time></trkpt><trkpt lat="55.8165300" lon="49.1134520"><time>2021-09-11T19:13:10.557</time></trkpt><trkpt lat="55.8165320" lon="49.1134030"><time>2021-09-11T19:13:11.557</time></trkpt><trkpt lat="55.8165320" lon="49.1133550"><time>2021-09-11T19:13:11.557</time></trkpt><trkpt lat="55.8165320" lon="49.1133040"><time>2021-09-11T19:13:12.557</time></trkpt><trkpt lat="55.8165310" lon="49.1132590"><time>2021-09-11T19:13:13.557</time></trkpt><trkpt lat="55.8165300" lon="49.1132110"><time>2021-09-11T19:13:14.557</time></trkpt><trkpt lat="55.8165300" lon="49.1131660"><time>2021-09-11T19:13:15.557</time></trkpt><trkpt lat="55.8165310" lon="49.1131210"><time>2021-09-11T19:13:16.557</time></trkpt><trkpt lat="55.8165310" lon="49.1130720"><time>2021-09-11T19:13:17.557</time></trkpt><trkpt lat="55.8165310" lon="49.1130230"><time>2021-09-11T19:13:18.557</time></trkpt><trkpt lat="55.8165310" lon="49.1129780"><time>2021-09-11T19:13:19.557</time></trkpt><trkpt lat="55.8165300" lon="49.1129290"><time>2021-09-11T19:13:20.557</time></trkpt><trkpt lat="55.8165300" lon="49.1128810"><time>2021-09-11T19:13:21.557</time></trkpt><trkpt lat="55.8165300" lon="49.1128330"><time>2021-09-11T19:13:22.557</time></trkpt><trkpt lat="55.8165300" lon="49.1127850"><time>2021-09-11T19:13:23.557</time></trkpt><trkpt lat="55.8165290" lon="49.1127380"><time>2021-09-11T19:13:24.557</time></trkpt><trkpt lat="55.8165280" lon="49.1126910"><time>2021-09-11T19:13:25.557</time></trkpt><trkpt lat="55.8165270" lon="49.1126460"><time>2021-09-11T19:13:26.557</time></trkpt><trkpt lat="55.8165250" lon="49.1125970"><time>2021-09-11T19:13:27.557</time></trkpt><trkpt lat="55.8165240" lon="49.1125510"><time>2021-09-11T19:13:28.557</time></trkpt><trkpt lat="55.8165230" lon="49.1125030"><time>2021-09-11T19:13:29.557</time></trkpt><trkpt lat="55.8165230" lon="49.1124290"><time>2021-09-11T19:13:31.557</time></trkpt><trkpt lat="55.8165230" lon="49.1124040"><time>2021-09-11T19:13:31.557</time></trkpt><trkpt lat="55.8165230" lon="49.1123580"><time>2021-09-11T19:13:32.557</time></trkpt><trkpt lat="55.8165220" lon="49.1123080"><time>2021-09-11T19:13:33.557</time></trkpt><trkpt lat="55.8165230" lon="49.1122620"><time>2021-09-11T19:13:34.557</time></trkpt><trkpt lat="55.8165240" lon="49.1122160"><time>2021-09-11T19:13:35.557</time></trkpt><trkpt lat="55.8165250" lon="49.1121410"><time>2021-09-11T19:13:37.557</time></trkpt><trkpt lat="55.8165240" lon="49.1121160"><time>2021-09-11T19:13:37.557</time></trkpt><trkpt lat="55.8165220" lon="49.1120690"><time>2021-09-11T19:13:38.557</time></trkpt><trkpt lat="55.8165210" lon="49.1120220"><time>2021-09-11T19:13:39.557</time></trkpt><trkpt lat="55.8165170" lon="49.1119730"><time>2021-09-11T19:13:40.557</time></trkpt><trkpt lat="55.8165130" lon="49.1119240"><time>2021-09-11T19:13:41.557</time></trkpt><trkpt lat="55.8165100" lon="49.1118750"><time>2021-09-11T19:13:42.557</time></trkpt><trkpt lat="55.8165090" lon="49.1118270"><time>2021-09-11T19:13:43.557</time></trkpt><trkpt lat="55.8165070" lon="49.1117520"><time>2021-09-11T19:13:45.557</time></trkpt><trkpt lat="55.8165050" lon="49.1117270"><time>2021-09-11T19:13:45.557</time></trkpt><trkpt lat="55.8165020" lon="49.1116790"><time>2021-09-11T19:13:46.557</time></trkpt><trkpt lat="55.8164980" lon="49.1116310"><time>2021-09-11T19:13:47.557</time></trkpt><trkpt lat="55.8164920" lon="49.1115820"><time>2021-09-11T19:13:48.557</time></trkpt><trkpt lat="55.8164840" lon="49.1115350"><time>2021-09-11T19:13:49.557</time></trkpt><trkpt lat="55.8164750" lon="49.1114860"><time>2021-09-11T19:13:50.557</time></trkpt><trkpt lat="55.8164660" lon="49.1114360"><time>2021-09-11T19:13:51.557</time></trkpt><trkpt lat="55.8164580" lon="49.1113880"><time>2021-09-11T19:13:52.557</time></trkpt><trkpt lat="55.8164510" lon="49.1113390"><time>2021-09-11T19:13:53.557</time></trkpt><trkpt lat="55.8164430" lon="49.1112950"><time>2021-09-11T19:13:54.557</time></trkpt><trkpt lat="55.8164350" lon="49.1112490"><time>2021-09-11T19:13:55.557</time></trkpt><trkpt lat="55.8164280" lon="49.1112020"><time>2021-09-11T19:13:56.557</time></trkpt><trkpt lat="55.8164210" lon="49.1111540"><time>2021-09-11T19:13:57.557</time></trkpt><trkpt lat="55.8164100" lon="49.1110830"><time>2021-09-11T19:13:59.557</time></trkpt><trkpt lat="55.8164070" lon="49.1110600"><time>2021-09-11T19:13:59.557</time></trkpt><trkpt lat="55.8164010" lon="49.1110120"><time>2021-09-11T19:14:00.557</time></trkpt><trkpt lat="55.8163950" lon="49.1109650"><time>2021-09-11T19:14:01.557</time></trkpt><trkpt lat="55.8163870" lon="49.1108980"><time>2021-09-11T19:14:03.557</time></trkpt><trkpt lat="55.8163830" lon="49.1108770"><time>2021-09-11T19:14:03.557</time></trkpt><trkpt lat="55.8163760" lon="49.1108320"><time>2021-09-11T19:14:04.557</time></trkpt><trkpt lat="55.8163680" lon="49.1107870"><time>2021-09-11T19:14:05.557</time></trkpt><trkpt lat="55.8163600" lon="49.1107420"><time>2021-09-11T19:14:06.557</time></trkpt><trkpt lat="55.8163500" lon="49.1106970"><time>2021-09-11T19:14:07.557</time></trkpt><trkpt lat="55.8163340" lon="49.1106320"><time>2021-09-11T19:14:09.557</time></trkpt><trkpt lat="55.8163280" lon="49.1106110"><time>2021-09-11T19:14:09.557</time></trkpt><trkpt lat="55.8163160" lon="49.1105680"><time>2021-09-11T19:14:10.557</time></trkpt><trkpt lat="55.8163020" lon="49.1105210"><time>2021-09-11T19:14:11.557</time></trkpt><trkpt lat="55.8162890" lon="49.1104790"><time>2021-09-11T19:14:12.557</time></trkpt><trkpt lat="55.8162770" lon="49.1104380"><time>2021-09-11T19:14:13.557</time></trkpt><trkpt lat="55.8162640" lon="49.1103930"><time>2021-09-11T19:14:14.557</time></trkpt><trkpt lat="55.8162500" lon="49.1103500"><time>2021-09-11T19:14:15.557</time></trkpt><trkpt lat="55.8162380" lon="49.1103120"><time>2021-09-11T19:14:16.557</time></trkpt><trkpt lat="55.8162240" lon="49.1102740"><time>2021-09-11T19:14:17.557</time></trkpt><trkpt lat="55.8162110" lon="49.1102360"><time>2021-09-11T19:14:18.557</time></trkpt><trkpt lat="55.8161980" lon="49.1101960"><time>2021-09-11T19:14:19.557</time></trkpt><trkpt lat="55.8161830" lon="49.1101560"><time>2021-09-11T19:14:20.557</time></trkpt><trkpt lat="55.8161680" lon="49.1101140"><time>2021-09-11T19:14:21.557</time></trkpt><trkpt lat="55.8161540" lon="49.1100760"><time>2021-09-11T19:14:22.557</time></trkpt><trkpt lat="55.8161400" lon="49.1100380"><time>2021-09-11T19:14:23.557</time></trkpt><trkpt lat="55.8161260" lon="49.1099980"><time>2021-09-11T19:14:24.557</time></trkpt><trkpt lat="55.8161040" lon="49.1099400"><time>2021-09-11T19:14:26.557</time></trkpt><trkpt lat="55.8160970" lon="49.1099210"><time>2021-09-11T19:14:26.557</time></trkpt><trkpt lat="55.8160820" lon="49.1098830"><time>2021-09-11T19:14:27.557</time></trkpt><trkpt lat="55.8160670" lon="49.1098450"><time>2021-09-11T19:14:28.557</time></trkpt><trkpt lat="55.8160500" lon="49.1098070"><time>2021-09-11T19:14:29.557</time></trkpt><trkpt lat="55.8160340" lon="49.1097690"><time>2021-09-11T19:14:30.557</time></trkpt><trkpt lat="55.8160160" lon="49.1097310"><time>2021-09-11T19:14:31.557</time></trkpt><trkpt lat="55.8159970" lon="49.1096930"><time>2021-09-11T19:14:32.557</time></trkpt><trkpt lat="55.8159780" lon="49.1096540"><time>2021-09-11T19:14:33.557</time></trkpt><trkpt lat="55.8159590" lon="49.1096160"><time>2021-09-11T19:14:34.557</time></trkpt><trkpt lat="55.8159310" lon="49.1095580"><time>2021-09-11T19:14:36.557</time></trkpt><trkpt lat="55.8159220" lon="49.1095390"><time>2021-09-11T19:14:36.557</time></trkpt><trkpt lat="55.8159040" lon="49.1095010"><time>2021-09-11T19:14:37.557</time></trkpt><trkpt lat="55.8158860" lon="49.1094640"><time>2021-09-11T19:14:38.557</time></trkpt><trkpt lat="55.8158690" lon="49.1094250"><time>2021-09-11T19:14:39.557</time></trkpt><trkpt lat="55.8158520" lon="49.1093860"><time>2021-09-11T19:14:40.557</time></trkpt><trkpt lat="55.8158340" lon="49.1093500"><time>2021-09-11T19:14:41.557</time></trkpt><trkpt lat="55.8158160" lon="49.1093150"><time>2021-09-11T19:14:42.557</time></trkpt><trkpt lat="55.8157970" lon="49.1092810"><time>2021-09-11T19:14:43.557</time></trkpt><trkpt lat="55.8157790" lon="49.1092460"><time>2021-09-11T19:14:44.557</time></trkpt><trkpt lat="55.8157600" lon="49.1092120"><time>2021-09-11T19:14:45.557</time></trkpt><trkpt lat="55.8157330" lon="49.1091580"><time>2021-09-11T19:14:47.557</time></trkpt><trkpt lat="55.8157240" lon="49.1091400"><time>2021-09-11T19:14:47.557</time></trkpt><trkpt lat="55.8157070" lon="49.1091030"><time>2021-09-11T19:14:48.557</time></trkpt><trkpt lat="55.8156900" lon="49.1090640"><time>2021-09-11T19:14:49.557</time></trkpt><trkpt lat="55.8156730" lon="49.1090270"><time>2021-09-11T19:14:50.557</time></trkpt><trkpt lat="55.8156550" lon="49.1089890"><time>2021-09-11T19:14:51.557</time></trkpt><trkpt lat="55.8156370" lon="49.1089530"><time>2021-09-11T19:14:52.557</time></trkpt><trkpt lat="55.8156170" lon="49.1089160"><time>2021-09-11T19:14:53.557</time></trkpt><trkpt lat="55.8155980" lon="49.1088820"><time>2021-09-11T19:14:54.557</time></trkpt><trkpt lat="55.8155790" lon="49.1088460"><time>2021-09-11T19:14:55.557</time></trkpt><trkpt lat="55.8155620" lon="49.1088130"><time>2021-09-11T19:14:56.557</time></trkpt><trkpt lat="55.8155460" lon="49.1087780"><time>2021-09-11T19:14:57.557</time></trkpt><trkpt lat="55.8155300" lon="49.1087430"><time>2021-09-11T19:14:58.557</time></trkpt><trkpt lat="55.8155140" lon="49.1087080"><time>2021-09-11T19:14:59.557</time></trkpt><trkpt lat="55.8154990" lon="49.1086720"><time>2021-09-11T19:15:00.557</time></trkpt><trkpt lat="55.8154820" lon="49.1086380"><time>2021-09-11T19:15:01.557</time></trkpt><trkpt lat="55.8154650" lon="49.1086040"><time>2021-09-11T19:15:02.557</time></trkpt><trkpt lat="55.8154480" lon="49.1085710"><time>2021-09-11T19:15:03.557</time></trkpt><trkpt lat="55.8154310" lon="49.1085350"><time>2021-09-11T19:15:04.557</time></trkpt><trkpt lat="55.8154140" lon="49.1084980"><time>2021-09-11T19:15:05.557</time></trkpt><trkpt lat="55.8153970" lon="49.1084610"><time>2021-09-11T19:15:06.557</time></trkpt><trkpt lat="55.8153730" lon="49.1084060"><time>2021-09-11T19:15:08.557</time></trkpt><trkpt lat="55.8153650" lon="49.1083880"><time>2021-09-11T19:15:08.557</time></trkpt><trkpt lat="55.8153490" lon="49.1083520"><time>2021-09-11T19:15:09.557</time></trkpt><trkpt lat="55.8153320" lon="49.1083170"><time>2021-09-11T19:15:10.557</time></trkpt><trkpt lat="55.8153160" lon="49.1082840"><time>2021-09-11T19:15:11.557</time></trkpt><trkpt lat="55.8152990" lon="49.1082510"><time>2021-09-11T19:15:12.557</time></trkpt><trkpt lat="55.8152810" lon="49.1082170"><time>2021-09-11T19:15:13.557</time></trkpt><trkpt lat="55.8152640" lon="49.1081790"><time>2021-09-11T19:15:14.557</time></trkpt><trkpt lat="55.8152460" lon="49.1081430"><time>2021-09-11T19:15:15.557</time></trkpt><trkpt lat="55.8152280" lon="49.1081080"><time>2021-09-11T19:15:16.557</time></trkpt><trkpt lat="55.8152110" lon="49.1080730"><time>2021-09-11T19:15:17.557</time></trkpt><trkpt lat="55.8151930" lon="49.1080390"><time>2021-09-11T19:15:18.557</time></trkpt><trkpt lat="55.8151750" lon="49.1080010"><time>2021-09-11T19:15:19.557</time></trkpt><trkpt lat="55.8151580" lon="49.1079660"><time>2021-09-11T19:15:20.557</time></trkpt><trkpt lat="55.8151410" lon="49.1079290"><time>2021-09-11T19:15:21.557</time></trkpt><trkpt lat="55.8151230" lon="49.1078920"><time>2021-09-11T19:15:22.557</time></trkpt><trkpt lat="55.8151060" lon="49.1078560"><time>2021-09-11T19:15:23.557</time></trkpt><trkpt lat="55.8150890" lon="49.1078210"><time>2021-09-11T19:15:24.557</time></trkpt><trkpt lat="55.8150720" lon="49.1077880"><time>2021-09-11T19:15:25.557</time></trkpt><trkpt lat="55.8150540" lon="49.1077540"><time>2021-09-11T19:15:26.557</time></trkpt><trkpt lat="55.8150370" lon="49.1077210"><time>2021-09-11T19:15:27.557</time></trkpt><trkpt lat="55.8150200" lon="49.1076890"><time>2021-09-11T19:15:28.557</time></trkpt><trkpt lat="55.8150020" lon="49.1076560"><time>2021-09-11T19:15:30.557</time></trkpt><trkpt lat="55.8149840" lon="49.1076250"><time>2021-09-11T19:15:31.557</time></trkpt><trkpt lat="55.8149660" lon="49.1075960"><time>2021-09-11T19:15:31.557</time></trkpt><trkpt lat="55.8149460" lon="49.1075650"><time>2021-09-11T19:15:32.557</time></trkpt><trkpt lat="55.8149260" lon="49.1075360"><time>2021-09-11T19:15:33.557</time></trkpt><trkpt lat="55.8149070" lon="49.1075040"><time>2021-09-11T19:15:34.557</time></trkpt><trkpt lat="55.8148890" lon="49.1074720"><time>2021-09-11T19:15:35.557</time></trkpt><trkpt lat="55.8148700" lon="49.1074410"><time>2021-09-11T19:15:36.557</time></trkpt><trkpt lat="55.8148490" lon="49.1074120"><time>2021-09-11T19:15:37.557</time></trkpt><trkpt lat="55.8148290" lon="49.1073830"><time>2021-09-11T19:15:38.557</time></trkpt><trkpt lat="55.8148070" lon="49.1073560"><time>2021-09-11T19:15:39.557</time></trkpt><trkpt lat="55.8147730" lon="49.1073170"><time>2021-09-11T19:15:41.557</time></trkpt><trkpt lat="55.8147610" lon="49.1073050"><time>2021-09-11T19:15:41.557</time></trkpt><trkpt lat="55.8147380" lon="49.1072810"><time>2021-09-11T19:15:42.557</time></trkpt><trkpt lat="55.8147160" lon="49.1072580"><time>2021-09-11T19:15:43.557</time></trkpt><trkpt lat="55.8146840" lon="49.1072200"><time>2021-09-11T19:15:45.557</time></trkpt><trkpt lat="55.8146740" lon="49.1072070"><time>2021-09-11T19:15:45.557</time></trkpt><trkpt lat="55.8146520" lon="49.1071800"><time>2021-09-11T19:15:46.557</time></trkpt><trkpt lat="55.8146320" lon="49.1071520"><time>2021-09-11T19:15:47.557</time></trkpt><trkpt lat="55.8146120" lon="49.1071210"><time>2021-09-11T19:15:48.557</time></trkpt><trkpt lat="55.8145930" lon="49.1070880"><time>2021-09-11T19:15:49.557</time></trkpt><trkpt lat="55.8145740" lon="49.1070550"><time>2021-09-11T19:15:50.557</time></trkpt><trkpt lat="55.8145550" lon="49.1070240"><time>2021-09-11T19:15:51.557</time></trkpt><trkpt lat="55.8145340" lon="49.1069940"><time>2021-09-11T19:15:52.557</time></trkpt><trkpt lat="55.8145140" lon="49.1069710"><time>2021-09-11T19:15:53.557</time></trkpt><trkpt lat="55.8144940" lon="49.1069550"><time>2021-09-11T19:15:54.557</time></trkpt><trkpt lat="55.8144730" lon="49.1069440"><time>2021-09-11T19:15:55.557</time></trkpt><trkpt lat="55.8144530" lon="49.1069340"><time>2021-09-11T19:15:56.557</time></trkpt><trkpt lat="55.8144350" lon="49.1069170"><time>2021-09-11T19:15:57.557</time></trkpt><trkpt lat="55.8144170" lon="49.1068930"><time>2021-09-11T19:15:58.557</time></trkpt><trkpt lat="55.8143970" lon="49.1068660"><time>2021-09-11T19:15:59.557</time></trkpt><trkpt lat="55.8143770" lon="49.1068360"><time>2021-09-11T19:16:00.557</time></trkpt><trkpt lat="55.8143570" lon="49.1068050"><time>2021-09-11T19:16:01.557</time></trkpt><trkpt lat="55.8143380" lon="49.1067730"><time>2021-09-11T19:16:02.557</time></trkpt><trkpt lat="55.8143210" lon="49.1067360"><time>2021-09-11T19:16:03.557</time></trkpt><trkpt lat="55.8143060" lon="49.1066950"><time>2021-09-11T19:16:04.557</time></trkpt><trkpt lat="55.8142880" lon="49.1066420"><time>2021-09-11T19:16:06.557</time></trkpt><trkpt lat="55.8142820" lon="49.1066270"><time>2021-09-11T19:16:06.557</time></trkpt><trkpt lat="55.8142670" lon="49.1066010"><time>2021-09-11T19:16:07.557</time></trkpt><trkpt lat="55.8142500" lon="49.1065800"><time>2021-09-11T19:16:08.557</time></trkpt><trkpt lat="55.8142300" lon="49.1065600"><time>2021-09-11T19:16:09.557</time></trkpt><trkpt lat="55.8142070" lon="49.1065390"><time>2021-09-11T19:16:10.557</time></trkpt><trkpt lat="55.8141800" lon="49.1065200"><time>2021-09-11T19:16:11.557</time></trkpt><trkpt lat="55.8141530" lon="49.1064980"><time>2021-09-11T19:16:12.557</time></trkpt><trkpt lat="55.8141260" lon="49.1064730"><time>2021-09-11T19:16:13.557</time></trkpt><trkpt lat="55.8141000" lon="49.1064430"><time>2021-09-11T19:16:14.557</time></trkpt><trkpt lat="55.8140750" lon="49.1064120"><time>2021-09-11T19:16:15.557</time></trkpt><trkpt lat="55.8140500" lon="49.1063780"><time>2021-09-11T19:16:16.557</time></trkpt><trkpt lat="55.8140270" lon="49.1063450"><time>2021-09-11T19:16:17.557</time></trkpt><trkpt lat="55.8140040" lon="49.1063120"><time>2021-09-11T19:16:18.557</time></trkpt><trkpt lat="55.8139790" lon="49.1062770"><time>2021-09-11T19:16:19.557</time></trkpt><trkpt lat="55.8139560" lon="49.1062410"><time>2021-09-11T19:16:20.557</time></trkpt><trkpt lat="55.8139330" lon="49.1062050"><time>2021-09-11T19:16:21.557</time></trkpt><trkpt lat="55.8139020" lon="49.1061470"><time>2021-09-11T19:16:23.557</time></trkpt><trkpt lat="55.8138920" lon="49.1061290"><time>2021-09-11T19:16:23.557</time></trkpt><trkpt lat="55.8138740" lon="49.1060920"><time>2021-09-11T19:16:24.557</time></trkpt><trkpt lat="55.8138550" lon="49.1060540"><time>2021-09-11T19:16:25.557</time></trkpt><trkpt lat="55.8138370" lon="49.1060170"><time>2021-09-11T19:16:26.557</time></trkpt><trkpt lat="55.8138180" lon="49.1059800"><time>2021-09-11T19:16:27.557</time></trkpt><trkpt lat="55.8137900" lon="49.1059230"><time>2021-09-11T19:16:29.557</time></trkpt><trkpt lat="55.8137810" lon="49.1059050"><time>2021-09-11T19:16:29.557</time></trkpt><trkpt lat="55.8137630" lon="49.1058680"><time>2021-09-11T19:16:30.557</time></trkpt><trkpt lat="55.8137450" lon="49.1058300"><time>2021-09-11T19:16:31.557</time></trkpt><trkpt lat="55.8137270" lon="49.1057940"><time>2021-09-11T19:16:32.557</time></trkpt><trkpt lat="55.8137090" lon="49.1057560"><time>2021-09-11T19:16:33.557</time></trkpt><trkpt lat="55.8136910" lon="49.1057180"><time>2021-09-11T19:16:34.557</time></trkpt><trkpt lat="55.8136740" lon="49.1056800"><time>2021-09-11T19:16:35.557</time></trkpt><trkpt lat="55.8136570" lon="49.1056390"><time>2021-09-11T19:16:36.557</time></trkpt><trkpt lat="55.8136420" lon="49.1055970"><time>2021-09-11T19:16:37.557</time></trkpt><trkpt lat="55.8136270" lon="49.1055550"><time>2021-09-11T19:16:38.557</time></trkpt><trkpt lat="55.8136130" lon="49.1055110"><time>2021-09-11T19:16:39.557</time></trkpt><trkpt lat="55.8136020" lon="49.1054670"><time>2021-09-11T19:16:40.557</time></trkpt><trkpt lat="55.8135940" lon="49.1054220"><time>2021-09-11T19:16:41.557</time></trkpt><trkpt lat="55.8135870" lon="49.1053740"><time>2021-09-11T19:16:42.557</time></trkpt><trkpt lat="55.8135820" lon="49.1053020"><time>2021-09-11T19:16:44.557</time></trkpt><trkpt lat="55.8135810" lon="49.1052780"><time>2021-09-11T19:16:44.557</time></trkpt><trkpt lat="55.8135810" lon="49.1052290"><time>2021-09-11T19:16:45.557</time></trkpt><trkpt lat="55.8135800" lon="49.1051810"><time>2021-09-11T19:16:46.557</time></trkpt><trkpt lat="55.8135790" lon="49.1051340"><time>2021-09-11T19:16:47.557</time></trkpt><trkpt lat="55.8135800" lon="49.1050870"><time>2021-09-11T19:16:48.557</time></trkpt><trkpt lat="55.8135830" lon="49.1050410"><time>2021-09-11T19:16:49.557</time></trkpt><trkpt lat="55.8135880" lon="49.1049960"><time>2021-09-11T19:16:50.557</time></trkpt><trkpt lat="55.8135950" lon="49.1049550"><time>2021-09-11T19:16:51.557</time></trkpt><trkpt lat="55.8136020" lon="49.1049180"><time>2021-09-11T19:16:52.557</time></trkpt><trkpt lat="55.8136090" lon="49.1048840"><time>2021-09-11T19:16:53.557</time></trkpt><trkpt lat="55.8136160" lon="49.1048510"><time>2021-09-11T19:16:54.557</time></trkpt><trkpt lat="55.8136210" lon="49.1048170"><time>2021-09-11T19:16:55.557</time></trkpt><trkpt lat="55.8136220" lon="49.1047830"><time>2021-09-11T19:16:56.557</time></trkpt><trkpt lat="55.8136190" lon="49.1047480"><time>2021-09-11T19:16:57.557</time></trkpt><trkpt lat="55.8136120" lon="49.1047130"><time>2021-09-11T19:16:58.557</time></trkpt><trkpt lat="55.8136030" lon="49.1046790"><time>2021-09-11T19:16:59.557</time></trkpt><trkpt lat="55.8135900" lon="49.1046430"><time>2021-09-11T19:17:00.557</time></trkpt><trkpt lat="55.8135760" lon="49.1046070"><time>2021-09-11T19:17:01.557</time></trkpt><trkpt lat="55.8135600" lon="49.1045720"><time>2021-09-11T19:17:02.557</time></trkpt><trkpt lat="55.8135430" lon="49.1045360"><time>2021-09-11T19:17:03.557</time></trkpt><trkpt lat="55.8135180" lon="49.1044810"><time>2021-09-11T19:17:05.557</time></trkpt><trkpt lat="55.8135090" lon="49.1044630"><time>2021-09-11T19:17:05.557</time></trkpt><trkpt lat="55.8134920" lon="49.1044270"><time>2021-09-11T19:17:06.557</time></trkpt><trkpt lat="55.8134730" lon="49.1043920"><time>2021-09-11T19:17:07.557</time></trkpt><trkpt lat="55.8134540" lon="49.1043590"><time>2021-09-11T19:17:08.557</time></trkpt><trkpt lat="55.8134360" lon="49.1043240"><time>2021-09-11T19:17:09.557</time></trkpt><trkpt lat="55.8134190" lon="49.1042880"><time>2021-09-11T19:17:10.557</time></trkpt><trkpt lat="55.8134020" lon="49.1042520"><time>2021-09-11T19:17:10.557</time></trkpt><trkpt lat="55.8133860" lon="49.1042150"><time>2021-09-11T19:17:11.557</time></trkpt><trkpt lat="55.8133700" lon="49.1041770"><time>2021-09-11T19:17:12.557</time></trkpt><trkpt lat="55.8133560" lon="49.1041390"><time>2021-09-11T19:17:13.557</time></trkpt><trkpt lat="55.8133410" lon="49.1041010"><time>2021-09-11T19:17:14.557</time></trkpt><trkpt lat="55.8133250" lon="49.1040620"><time>2021-09-11T19:17:15.557</time></trkpt><trkpt lat="55.8133100" lon="49.1040230"><time>2021-09-11T19:17:16.557</time></trkpt><trkpt lat="55.8132940" lon="49.1039830"><time>2021-09-11T19:17:17.557</time></trkpt><trkpt lat="55.8132780" lon="49.1039430"><time>2021-09-11T19:17:18.557</time></trkpt><trkpt lat="55.8132620" lon="49.1039070"><time>2021-09-11T19:17:19.557</time></trkpt><trkpt lat="55.8132450" lon="49.1038710"><time>2021-09-11T19:17:20.557</time></trkpt><trkpt lat="55.8132270" lon="49.1038360"><time>2021-09-11T19:17:21.557</time></trkpt><trkpt lat="55.8132090" lon="49.1038030"><time>2021-09-11T19:17:22.557</time></trkpt><trkpt lat="55.8131900" lon="49.1037690"><time>2021-09-11T19:17:23.557</time></trkpt><trkpt lat="55.8131710" lon="49.1037350"><time>2021-09-11T19:17:24.557</time></trkpt><trkpt lat="55.8131530" lon="49.1037020"><time>2021-09-11T19:17:25.557</time></trkpt><trkpt lat="55.8131280" lon="49.1036480"><time>2021-09-11T19:17:27.557</time></trkpt><trkpt lat="55.8131190" lon="49.1036300"><time>2021-09-11T19:17:27.557</time></trkpt><trkpt lat="55.8131010" lon="49.1035950"><time>2021-09-11T19:17:28.557</time></trkpt><trkpt lat="55.8130840" lon="49.1035590"><time>2021-09-11T19:17:29.557</time></trkpt><trkpt lat="55.8130650" lon="49.1035230"><time>2021-09-11T19:17:30.557</time></trkpt><trkpt lat="55.8130460" lon="49.1034870"><time>2021-09-11T19:17:31.557</time></trkpt><trkpt lat="55.8130160" lon="49.1034340"><time>2021-09-11T19:17:33.557</time></trkpt><trkpt lat="55.8130050" lon="49.1034170"><time>2021-09-11T19:17:33.557</time></trkpt><trkpt lat="55.8129850" lon="49.1033820"><time>2021-09-11T19:17:34.557</time></trkpt><trkpt lat="55.8129650" lon="49.1033450"><time>2021-09-11T19:17:35.557</time></trkpt><trkpt lat="55.8129450" lon="49.1033070"><time>2021-09-11T19:17:36.557</time></trkpt><trkpt lat="55.8129240" lon="49.1032680"><time>2021-09-11T19:17:37.557</time></trkpt><trkpt lat="55.8129030" lon="49.1032280"><time>2021-09-11T19:17:38.557</time></trkpt><trkpt lat="55.8128800" lon="49.1031880"><time>2021-09-11T19:17:39.557</time></trkpt><trkpt lat="55.8128580" lon="49.1031470"><time>2021-09-11T19:17:40.557</time></trkpt><trkpt lat="55.8128370" lon="49.1031040"><time>2021-09-11T19:17:41.557</time></trkpt><trkpt lat="55.8128200" lon="49.1030560"><time>2021-09-11T19:17:42.557</time></trkpt><trkpt lat="55.8128050" lon="49.1030040"><time>2021-09-11T19:17:43.557</time></trkpt><trkpt lat="55.8127920" lon="49.1029490"><time>2021-09-11T19:17:44.557</time></trkpt><trkpt lat="55.8127790" lon="49.1028930"><time>2021-09-11T19:17:45.557</time></trkpt><trkpt lat="55.8127660" lon="49.1028370"><time>2021-09-11T19:17:46.557</time></trkpt><trkpt lat="55.8127520" lon="49.1027830"><time>2021-09-11T19:17:47.557</time></trkpt><trkpt lat="55.8127360" lon="49.1027330"><time>2021-09-11T19:17:48.557</time></trkpt><trkpt lat="55.8127180" lon="49.1026850"><time>2021-09-11T19:17:49.557</time></trkpt><trkpt lat="55.8126990" lon="49.1026400"><time>2021-09-11T19:17:50.557</time></trkpt><trkpt lat="55.8126800" lon="49.1025960"><time>2021-09-11T19:17:51.557</time></trkpt><trkpt lat="55.8126610" lon="49.1025530"><time>2021-09-11T19:17:52.557</time></trkpt><trkpt lat="55.8126430" lon="49.1025100"><time>2021-09-11T19:17:53.557</time></trkpt><trkpt lat="55.8126270" lon="49.1024660"><time>2021-09-11T19:17:54.557</time></trkpt><trkpt lat="55.8126220" lon="49.1024230"><time>2021-09-11T19:17:55.557</time></trkpt><trkpt lat="55.8126260" lon="49.1023830"><time>2021-09-11T19:17:56.557</time></trkpt><trkpt lat="55.8126390" lon="49.1023480"><time>2021-09-11T19:17:57.557</time></trkpt><trkpt lat="55.8126570" lon="49.1023160"><time>2021-09-11T19:17:58.557</time></trkpt><trkpt lat="55.8126780" lon="49.1022840"><time>2021-09-11T19:17:59.557</time></trkpt><trkpt lat="55.8127000" lon="49.1022530"><time>2021-09-11T19:18:00.557</time></trkpt><trkpt lat="55.8127220" lon="49.1022230"><time>2021-09-11T19:18:01.557</time></trkpt><trkpt lat="55.8127420" lon="49.1021970"><time>2021-09-11T19:18:02.557</time></trkpt><trkpt lat="55.8127600" lon="49.1021770"><time>2021-09-11T19:18:03.557</time></trkpt><trkpt lat="55.8127760" lon="49.1021620"><time>2021-09-11T19:18:04.557</time></trkpt><trkpt lat="55.8127960" lon="49.1021450"><time>2021-09-11T19:18:05.557</time></trkpt><trkpt lat="55.8128020" lon="49.1021390"><time>2021-09-11T19:18:06.557</time></trkpt><trkpt lat="55.8128080" lon="49.1021340"><time>2021-09-11T19:18:07.557</time></trkpt><trkpt lat="55.8128140" lon="49.1021280"><time>2021-09-11T19:18:09.557</time></trkpt><trkpt lat="55.8128200" lon="49.1021220"><time>2021-09-11T19:18:09.557</time></trkpt><trkpt lat="55.8128300" lon="49.1021140"><time>2021-09-11T19:18:15.557</time></trkpt><trkpt lat="55.8128300" lon="49.1021130"><time>2021-09-11T19:18:16.557</time></trkpt><trkpt lat="55.8128300" lon="49.1021010"><time>2021-09-11T19:18:27.557</time></trkpt><trkpt lat="55.8128270" lon="49.1020910"><time>2021-09-11T19:18:28.557</time></trkpt><trkpt lat="55.8128200" lon="49.1020680"><time>2021-09-11T19:18:29.557</time></trkpt><trkpt lat="55.8128110" lon="49.1020370"><time>2021-09-11T19:18:30.557</time></trkpt><trkpt lat="55.8128010" lon="49.1019990"><time>2021-09-11T19:18:31.557</time></trkpt><trkpt lat="55.8127890" lon="49.1019570"><time>2021-09-11T19:18:32.557</time></trkpt><trkpt lat="55.8127770" lon="49.1019120"><time>2021-09-11T19:18:33.557</time></trkpt><trkpt lat="55.8127640" lon="49.1018650"><time>2021-09-11T19:18:34.557</time></trkpt><trkpt lat="55.8127500" lon="49.1018170"><time>2021-09-11T19:18:35.557</time></trkpt><trkpt lat="55.8127360" lon="49.1017680"><time>2021-09-11T19:18:36.557</time></trkpt><trkpt lat="55.8127240" lon="49.1017200"><time>2021-09-11T19:18:37.557</time></trkpt><trkpt lat="55.8127120" lon="49.1016740"><time>2021-09-11T19:18:38.557</time></trkpt><trkpt lat="55.8126930" lon="49.1016170"><time>2021-09-11T19:18:40.557</time></trkpt><trkpt lat="55.8126850" lon="49.1016000"><time>2021-09-11T19:18:40.557</time></trkpt><trkpt lat="55.8126680" lon="49.1015770"><time>2021-09-11T19:18:41.557</time></trkpt><trkpt lat="55.8126500" lon="49.1015640"><time>2021-09-11T19:18:42.557</time></trkpt><trkpt lat="55.8126320" lon="49.1015590"><time>2021-09-11T19:18:43.557</time></trkpt><trkpt lat="55.8126100" lon="49.1015610"><time>2021-09-11T19:18:45.557</time></trkpt><trkpt lat="55.8126030" lon="49.1015630"><time>2021-09-11T19:18:45.557</time></trkpt><trkpt lat="55.8125880" lon="49.1015710"><time>2021-09-11T19:18:46.557</time></trkpt><trkpt lat="55.8125830" lon="49.1015740"><time>2021-09-11T19:18:47.557</time></trkpt><trkpt lat="55.8125770" lon="49.1015780"><time>2021-09-11T19:18:54.557</time></trkpt><trkpt lat="55.8125720" lon="49.1015810"><time>2021-09-11T19:18:56.557</time></trkpt><trkpt lat="55.8125670" lon="49.1015840"><time>2021-09-11T19:18:56.557</time></trkpt><trkpt lat="55.8125550" lon="49.1015930"><time>2021-09-11T19:18:57.557</time></trkpt><trkpt lat="55.8125450" lon="49.1016010"><time>2021-09-11T19:18:58.557</time></trkpt><trkpt lat="55.8125350" lon="49.1016100"><time>2021-09-11T19:18:59.557</time></trkpt><trkpt lat="55.8125250" lon="49.1016180"><time>2021-09-11T19:19:00.557</time></trkpt><trkpt lat="55.8125140" lon="49.1016270"><time>2021-09-11T19:19:01.557</time></trkpt><trkpt lat="55.8125040" lon="49.1016350"><time>2021-09-11T19:19:02.557</time></trkpt><trkpt lat="55.8124940" lon="49.1016440"><time>2021-09-11T19:19:04.557</time></trkpt><trkpt lat="55.8124840" lon="49.1016520"><time>2021-09-11T19:19:04.557</time></trkpt><trkpt lat="55.8124640" lon="49.1016680"><time>2021-09-11T19:19:05.557</time></trkpt><trkpt lat="55.8124410" lon="49.1016860"><time>2021-09-11T19:19:06.557</time></trkpt><trkpt lat="55.8124180" lon="49.1017050"><time>2021-09-11T19:19:07.557</time></trkpt><trkpt lat="55.8123940" lon="49.1017240"><time>2021-09-11T19:19:08.557</time></trkpt><trkpt lat="55.8123700" lon="49.1017440"><time>2021-09-11T19:19:09.557</time></trkpt><trkpt lat="55.8123440" lon="49.1017650"><time>2021-09-11T19:19:10.557</time></trkpt><trkpt lat="55.8123180" lon="49.1017880"><time>2021-09-11T19:19:11.557</time></trkpt><trkpt lat="55.8122920" lon="49.1018100"><time>2021-09-11T19:19:12.557</time></trkpt><trkpt lat="55.8122660" lon="49.1018330"><time>2021-09-11T19:19:13.557</time></trkpt><trkpt lat="55.8122420" lon="49.1018530"><time>2021-09-11T19:19:14.557</time></trkpt><trkpt lat="55.8122180" lon="49.1018730"><time>2021-09-11T19:19:15.557</time></trkpt><trkpt lat="55.8121940" lon="49.1018940"><time>2021-09-11T19:19:16.557</time></trkpt><trkpt lat="55.8121700" lon="49.1019170"><time>2021-09-11T19:19:17.557</time></trkpt><trkpt lat="55.8121440" lon="49.1019410"><time>2021-09-11T19:19:18.557</time></trkpt><trkpt lat="55.8121180" lon="49.1019650"><time>2021-09-11T19:19:19.557</time></trkpt><trkpt lat="55.8120810" lon="49.1020020"><time>2021-09-11T19:19:21.557</time></trkpt><trkpt lat="55.8120680" lon="49.1020130"><time>2021-09-11T19:19:21.557</time></trkpt><trkpt lat="55.8120420" lon="49.1020340"><time>2021-09-11T19:19:22.557</time></trkpt><trkpt lat="55.8120160" lon="49.1020550"><time>2021-09-11T19:19:23.557</time></trkpt><trkpt lat="55.8119920" lon="49.1020760"><time>2021-09-11T19:19:24.557</time></trkpt><trkpt lat="55.8119690" lon="49.1020930"><time>2021-09-11T19:19:25.557</time></trkpt><trkpt lat="55.8119360" lon="49.1021180"><time>2021-09-11T19:19:27.557</time></trkpt><trkpt lat="55.8119250" lon="49.1021260"><time>2021-09-11T19:19:27.557</time></trkpt><trkpt lat="55.8119000" lon="49.1021450"><time>2021-09-11T19:19:28.557</time></trkpt><trkpt lat="55.8118750" lon="49.1021640"><time>2021-09-11T19:19:29.557</time></trkpt><trkpt lat="55.8118490" lon="49.1021820"><time>2021-09-11T19:19:30.557</time></trkpt><trkpt lat="55.8118220" lon="49.1022000"><time>2021-09-11T19:19:31.557</time></trkpt><trkpt lat="55.8117950" lon="49.1022180"><time>2021-09-11T19:19:32.557</time></trkpt><trkpt lat="55.8117670" lon="49.1022360"><time>2021-09-11T19:19:33.557</time></trkpt><trkpt lat="55.8117390" lon="49.1022540"><time>2021-09-11T19:19:34.557</time></trkpt><trkpt lat="55.8117110" lon="49.1022700"><time>2021-09-11T19:19:35.557</time></trkpt><trkpt lat="55.8116700" lon="49.1022960"><time>2021-09-11T19:19:37.557</time></trkpt><trkpt lat="55.8116550" lon="49.1023030"><time>2021-09-11T19:19:37.557</time></trkpt><trkpt lat="55.8116280" lon="49.1023160"><time>2021-09-11T19:19:38.557</time></trkpt><trkpt lat="55.8116010" lon="49.1023280"><time>2021-09-11T19:19:39.557</time></trkpt><trkpt lat="55.8115730" lon="49.1023410"><time>2021-09-11T19:19:40.557</time></trkpt><trkpt lat="55.8115330" lon="49.1023570"><time>2021-09-11T19:19:42.557</time></trkpt><trkpt lat="55.8115190" lon="49.1023620"><time>2021-09-11T19:19:42.557</time></trkpt><trkpt lat="55.8114910" lon="49.1023730"><time>2021-09-11T19:19:43.557</time></trkpt><trkpt lat="55.8114640" lon="49.1023840"><time>2021-09-11T19:19:44.557</time></trkpt><trkpt lat="55.8114360" lon="49.1023950"><time>2021-09-11T19:19:45.557</time></trkpt><trkpt lat="55.8114080" lon="49.1024040"><time>2021-09-11T19:19:46.557</time></trkpt><trkpt lat="55.8113820" lon="49.1024110"><time>2021-09-11T19:19:47.557</time></trkpt><trkpt lat="55.8113540" lon="49.1024180"><time>2021-09-11T19:19:48.557</time></trkpt><trkpt lat="55.8113280" lon="49.1024220"><time>2021-09-11T19:19:49.557</time></trkpt><trkpt lat="55.8113020" lon="49.1024240"><time>2021-09-11T19:19:50.557</time></trkpt><trkpt lat="55.8112630" lon="49.1024290"><time>2021-09-11T19:19:52.557</time></trkpt><trkpt lat="55.8112510" lon="49.1024300"><time>2021-09-11T19:19:52.557</time></trkpt><trkpt lat="55.8112260" lon="49.1024330"><time>2021-09-11T19:19:53.557</time></trkpt><trkpt lat="55.8112010" lon="49.1024340"><time>2021-09-11T19:19:54.557</time></trkpt><trkpt lat="55.8111750" lon="49.1024350"><time>2021-09-11T19:19:55.557</time></trkpt><trkpt lat="55.8111470" lon="49.1024370"><time>2021-09-11T19:19:56.557</time></trkpt><trkpt lat="55.8111190" lon="49.1024380"><time>2021-09-11T19:19:57.557</time></trkpt><trkpt lat="55.8110910" lon="49.1024370"><time>2021-09-11T19:19:58.557</time></trkpt><trkpt lat="55.8110630" lon="49.1024360"><time>2021-09-11T19:19:59.557</time></trkpt><trkpt lat="55.8110360" lon="49.1024350"><time>2021-09-11T19:20:00.557</time></trkpt><trkpt lat="55.8110070" lon="49.1024340"><time>2021-09-11T19:20:01.557</time></trkpt><trkpt lat="55.8109640" lon="49.1024310"><time>2021-09-11T19:20:03.557</time></trkpt><trkpt lat="55.8109500" lon="49.1024300"><time>2021-09-11T19:20:03.557</time></trkpt><trkpt lat="55.8109220" lon="49.1024270"><time>2021-09-11T19:20:04.557</time></trkpt><trkpt lat="55.8108940" lon="49.1024240"><time>2021-09-11T19:20:05.557</time></trkpt><trkpt lat="55.8108670" lon="49.1024220"><time>2021-09-11T19:20:06.557</time></trkpt><trkpt lat="55.8108410" lon="49.1024200"><time>2021-09-11T19:20:07.557</time></trkpt><trkpt lat="55.8108010" lon="49.1024180"><time>2021-09-11T19:20:09.557</time></trkpt><trkpt lat="55.8107880" lon="49.1024180"><time>2021-09-11T19:20:09.557</time></trkpt><trkpt lat="55.8107620" lon="49.1024150"><time>2021-09-11T19:20:10.557</time></trkpt><trkpt lat="55.8107360" lon="49.1024110"><time>2021-09-11T19:20:11.557</time></trkpt><trkpt lat="55.8107100" lon="49.1024050"><time>2021-09-11T19:20:12.557</time></trkpt><trkpt lat="55.8106830" lon="49.1024000"><time>2021-09-11T19:20:13.557</time></trkpt><trkpt lat="55.8106570" lon="49.1023950"><time>2021-09-11T19:20:14.557</time></trkpt><trkpt lat="55.8106310" lon="49.1023900"><time>2021-09-11T19:20:15.557</time></trkpt><trkpt lat="55.8106050" lon="49.1023810"><time>2021-09-11T19:20:16.557</time></trkpt><trkpt lat="55.8105800" lon="49.1023710"><time>2021-09-11T19:20:17.557</time></trkpt><trkpt lat="55.8105540" lon="49.1023630"><time>2021-09-11T19:20:18.557</time></trkpt><trkpt lat="55.8105290" lon="49.1023540"><time>2021-09-11T19:20:19.557</time></trkpt><trkpt lat="55.8105040" lon="49.1023470"><time>2021-09-11T19:20:20.557</time></trkpt><trkpt lat="55.8104770" lon="49.1023420"><time>2021-09-11T19:20:21.557</time></trkpt><trkpt lat="55.8104510" lon="49.1023370"><time>2021-09-11T19:20:22.557</time></trkpt><trkpt lat="55.8104260" lon="49.1023320"><time>2021-09-11T19:20:23.557</time></trkpt><trkpt lat="55.8104020" lon="49.1023280"><time>2021-09-11T19:20:24.557</time></trkpt><trkpt lat="55.8103640" lon="49.1023210"><time>2021-09-11T19:20:26.557</time></trkpt><trkpt lat="55.8103510" lon="49.1023200"><time>2021-09-11T19:20:26.557</time></trkpt><trkpt lat="55.8103250" lon="49.1023180"><time>2021-09-11T19:20:27.557</time></trkpt><trkpt lat="55.8103000" lon="49.1023160"><time>2021-09-11T19:20:28.557</time></trkpt><trkpt lat="55.8102750" lon="49.1023140"><time>2021-09-11T19:20:29.557</time></trkpt><trkpt lat="55.8102490" lon="49.1023130"><time>2021-09-11T19:20:30.557</time></trkpt><trkpt lat="55.8102120" lon="49.1023100"><time>2021-09-11T19:20:32.557</time></trkpt><trkpt lat="55.8102000" lon="49.1023090"><time>2021-09-11T19:20:32.557</time></trkpt><trkpt lat="55.8101750" lon="49.1023060"><time>2021-09-11T19:20:33.557</time></trkpt><trkpt lat="55.8101490" lon="49.1023040"><time>2021-09-11T19:20:34.557</time></trkpt><trkpt lat="55.8101230" lon="49.1023030"><time>2021-09-11T19:20:35.557</time></trkpt><trkpt lat="55.8100970" lon="49.1023020"><time>2021-09-11T19:20:36.557</time></trkpt><trkpt lat="55.8100720" lon="49.1022990"><time>2021-09-11T19:20:37.557</time></trkpt><trkpt lat="55.8100460" lon="49.1022950"><time>2021-09-11T19:20:38.557</time></trkpt><trkpt lat="55.8100180" lon="49.1022910"><time>2021-09-11T19:20:39.557</time></trkpt><trkpt lat="55.8099910" lon="49.1022880"><time>2021-09-11T19:20:40.557</time></trkpt><trkpt lat="55.8099650" lon="49.1022840"><time>2021-09-11T19:20:41.557</time></trkpt><trkpt lat="55.8099380" lon="49.1022800"><time>2021-09-11T19:20:42.557</time></trkpt><trkpt lat="55.8099110" lon="49.1022760"><time>2021-09-11T19:20:43.557</time></trkpt><trkpt lat="55.8098850" lon="49.1022700"><time>2021-09-11T19:20:44.557</time></trkpt><trkpt lat="55.8098600" lon="49.1022630"><time>2021-09-11T19:20:45.557</time></trkpt><trkpt lat="55.8098240" lon="49.1022500"><time>2021-09-11T19:20:47.557</time></trkpt><trkpt lat="55.8098120" lon="49.1022460"><time>2021-09-11T19:20:47.557</time></trkpt><trkpt lat="55.8097890" lon="49.1022380"><time>2021-09-11T19:20:48.557</time></trkpt><trkpt lat="55.8097660" lon="49.1022290"><time>2021-09-11T19:20:49.557</time></trkpt><trkpt lat="55.8097400" lon="49.1022220"><time>2021-09-11T19:20:50.557</time></trkpt><trkpt lat="55.8097140" lon="49.1022150"><time>2021-09-11T19:20:51.557</time></trkpt><trkpt lat="55.8096870" lon="49.1022100"><time>2021-09-11T19:20:52.557</time></trkpt><trkpt lat="55.8096600" lon="49.1022050"><time>2021-09-11T19:20:53.557</time></trkpt><trkpt lat="55.8096330" lon="49.1022010"><time>2021-09-11T19:20:54.557</time></trkpt><trkpt lat="55.8096070" lon="49.1021960"><time>2021-09-11T19:20:55.557</time></trkpt><trkpt lat="55.8095800" lon="49.1021910"><time>2021-09-11T19:20:56.557</time></trkpt><trkpt lat="55.8095530" lon="49.1021860"><time>2021-09-11T19:20:57.557</time></trkpt><trkpt lat="55.8095260" lon="49.1021790"><time>2021-09-11T19:20:58.557</time></trkpt><trkpt lat="55.8095000" lon="49.1021730"><time>2021-09-11T19:20:59.557</time></trkpt><trkpt lat="55.8094730" lon="49.1021670"><time>2021-09-11T19:21:00.557</time></trkpt><trkpt lat="55.8094470" lon="49.1021600"><time>2021-09-11T19:21:01.557</time></trkpt><trkpt lat="55.8094200" lon="49.1021560"><time>2021-09-11T19:21:02.557</time></trkpt><trkpt lat="55.8093940" lon="49.1021510"><time>2021-09-11T19:21:03.557</time></trkpt><trkpt lat="55.8093660" lon="49.1021490"><time>2021-09-11T19:21:04.557</time></trkpt><trkpt lat="55.8093390" lon="49.1021490"><time>2021-09-11T19:21:05.557</time></trkpt><trkpt lat="55.8093130" lon="49.1021460"><time>2021-09-11T19:21:06.557</time></trkpt><trkpt lat="55.8092740" lon="49.1021400"><time>2021-09-11T19:21:08.557</time></trkpt><trkpt lat="55.8092610" lon="49.1021380"><time>2021-09-11T19:21:08.557</time></trkpt><trkpt lat="55.8092350" lon="49.1021330"><time>2021-09-11T19:21:09.557</time></trkpt><trkpt lat="55.8092080" lon="49.1021310"><time>2021-09-11T19:21:10.557</time></trkpt><trkpt lat="55.8091820" lon="49.1021290"><time>2021-09-11T19:21:11.557</time></trkpt><trkpt lat="55.8091560" lon="49.1021280"><time>2021-09-11T19:21:12.557</time></trkpt><trkpt lat="55.8091170" lon="49.1021260"><time>2021-09-11T19:21:14.557</time></trkpt><trkpt lat="55.8091040" lon="49.1021260"><time>2021-09-11T19:21:14.557</time></trkpt><trkpt lat="55.8090770" lon="49.1021250"><time>2021-09-11T19:21:15.557</time></trkpt><trkpt lat="55.8090500" lon="49.1021240"><time>2021-09-11T19:21:16.557</time></trkpt><trkpt lat="55.8090250" lon="49.1021210"><time>2021-09-11T19:21:17.557</time></trkpt><trkpt lat="55.8089990" lon="49.1021170"><time>2021-09-11T19:21:18.557</time></trkpt><trkpt lat="55.8089740" lon="49.1021120"><time>2021-09-11T19:21:19.557</time></trkpt><trkpt lat="55.8089480" lon="49.1021070"><time>2021-09-11T19:21:20.557</time></trkpt><trkpt lat="55.8089220" lon="49.1021010"><time>2021-09-11T19:21:21.557</time></trkpt><trkpt lat="55.8088960" lon="49.1020960"><time>2021-09-11T19:21:22.557</time></trkpt><trkpt lat="55.8088690" lon="49.1020900"><time>2021-09-11T19:21:23.557</time></trkpt><trkpt lat="55.8088440" lon="49.1020800"><time>2021-09-11T19:21:24.557</time></trkpt><trkpt lat="55.8088200" lon="49.1020660"><time>2021-09-11T19:21:24.557</time></trkpt><trkpt lat="55.8087960" lon="49.1020530"><time>2021-09-11T19:21:25.557</time></trkpt><trkpt lat="55.8087720" lon="49.1020400"><time>2021-09-11T19:21:26.557</time></trkpt><trkpt lat="55.8087480" lon="49.1020270"><time>2021-09-11T19:21:27.557</time></trkpt><trkpt lat="55.8087250" lon="49.1020140"><time>2021-09-11T19:21:28.557</time></trkpt><trkpt lat="55.8086890" lon="49.1019960"><time>2021-09-11T19:21:30.557</time></trkpt><trkpt lat="55.8086770" lon="49.1019910"><time>2021-09-11T19:21:30.557</time></trkpt><trkpt lat="55.8086530" lon="49.1019800"><time>2021-09-11T19:21:31.557</time></trkpt><trkpt lat="55.8086310" lon="49.1019670"><time>2021-09-11T19:21:32.557</time></trkpt><trkpt lat="55.8086080" lon="49.1019490"><time>2021-09-11T19:21:33.557</time></trkpt><trkpt lat="55.8085840" lon="49.1019270"><time>2021-09-11T19:21:34.557</time></trkpt><trkpt lat="55.8085490" lon="49.1018900"><time>2021-09-11T19:21:36.557</time></trkpt><trkpt lat="55.8085370" lon="49.1018770"><time>2021-09-11T19:21:36.557</time></trkpt><trkpt lat="55.8085150" lon="49.1018510"><time>2021-09-11T19:21:37.557</time></trkpt><trkpt lat="55.8084930" lon="49.1018240"><time>2021-09-11T19:21:38.557</time></trkpt><trkpt lat="55.8084710" lon="49.1017960"><time>2021-09-11T19:21:39.557</time></trkpt><trkpt lat="55.8084500" lon="49.1017680"><time>2021-09-11T19:21:40.557</time></trkpt><trkpt lat="55.8084300" lon="49.1017390"><time>2021-09-11T19:21:41.557</time></trkpt><trkpt lat="55.8084120" lon="49.1017080"><time>2021-09-11T19:21:42.557</time></trkpt><trkpt lat="55.8083960" lon="49.1016790"><time>2021-09-11T19:21:43.557</time></trkpt><trkpt lat="55.8083810" lon="49.1016510"><time>2021-09-11T19:21:44.557</time></trkpt><trkpt lat="55.8083690" lon="49.1016280"><time>2021-09-11T19:21:45.557</time></trkpt><trkpt lat="55.8083500" lon="49.1015970"><time>2021-09-11T19:21:46.557</time></trkpt><trkpt lat="55.8083430" lon="49.1015880"><time>2021-09-11T19:21:47.557</time></trkpt><trkpt lat="55.8083360" lon="49.1015790"><time>2021-09-11T19:21:48.557</time></trkpt><trkpt lat="55.8083280" lon="49.1015710"><time>2021-09-11T19:21:50.557</time></trkpt><trkpt lat="55.8083210" lon="49.1015620"><time>2021-09-11T19:21:52.557</time></trkpt><trkpt lat="55.8083140" lon="49.1015530"><time>2021-09-11T19:21:52.557</time></trkpt><trkpt lat="55.8083130" lon="49.1015550"><time>2021-09-11T19:21:53.557</time></trkpt><trkpt lat="55.8083130" lon="49.1015570"><time>2021-09-11T19:21:54.557</time></trkpt><trkpt lat="55.8083150" lon="49.1015600"><time>2021-09-11T19:21:55.557</time></trkpt><trkpt lat="55.8083170" lon="49.1015680"><time>2021-09-11T19:21:56.557</time></trkpt><trkpt lat="55.8083160" lon="49.1015820"><time>2021-09-11T19:21:57.557</time></trkpt><trkpt lat="55.8083140" lon="49.1016010"><time>2021-09-11T19:21:58.557</time></trkpt><trkpt lat="55.8083080" lon="49.1016250"><time>2021-09-11T19:21:59.557</time></trkpt><trkpt lat="55.8082990" lon="49.1016520"><time>2021-09-11T19:22:00.557</time></trkpt><trkpt lat="55.8082880" lon="49.1016790"><time>2021-09-11T19:22:01.557</time></trkpt><trkpt lat="55.8082740" lon="49.1017040"><time>2021-09-11T19:22:02.557</time></trkpt><trkpt lat="55.8082580" lon="49.1017270"><time>2021-09-11T19:22:03.557</time></trkpt><trkpt lat="55.8082420" lon="49.1017460"><time>2021-09-11T19:22:04.557</time></trkpt><trkpt lat="55.8082150" lon="49.1017690"><time>2021-09-11T19:22:06.557</time></trkpt><trkpt lat="55.8082050" lon="49.1017770"><time>2021-09-11T19:22:06.557</time></trkpt><trkpt lat="55.8081830" lon="49.1017920"><time>2021-09-11T19:22:07.557</time></trkpt><trkpt lat="55.8081600" lon="49.1018080"><time>2021-09-11T19:22:08.557</time></trkpt><trkpt lat="55.8081360" lon="49.1018230"><time>2021-09-11T19:22:09.557</time></trkpt><trkpt lat="55.8081130" lon="49.1018370"><time>2021-09-11T19:22:10.557</time></trkpt><trkpt lat="55.8080890" lon="49.1018510"><time>2021-09-11T19:22:11.557</time></trkpt><trkpt lat="55.8080660" lon="49.1018630"><time>2021-09-11T19:22:12.557</time></trkpt><trkpt lat="55.8080430" lon="49.1018790"><time>2021-09-11T19:22:13.557</time></trkpt><trkpt lat="55.8080200" lon="49.1018950"><time>2021-09-11T19:22:14.557</time></trkpt><trkpt lat="55.8079970" lon="49.1019120"><time>2021-09-11T19:22:15.557</time></trkpt><trkpt lat="55.8079740" lon="49.1019270"><time>2021-09-11T19:22:16.557</time></trkpt><trkpt lat="55.8079510" lon="49.1019440"><time>2021-09-11T19:22:17.557</time></trkpt><trkpt lat="55.8079290" lon="49.1019620"><time>2021-09-11T19:22:18.557</time></trkpt><trkpt lat="55.8079050" lon="49.1019810"><time>2021-09-11T19:22:19.557</time></trkpt><trkpt lat="55.8078820" lon="49.1019990"><time>2021-09-11T19:22:20.557</time></trkpt><trkpt lat="55.8078570" lon="49.1020130"><time>2021-09-11T19:22:21.557</time></trkpt><trkpt lat="55.8078190" lon="49.1020280"><time>2021-09-11T19:22:23.557</time></trkpt><trkpt lat="55.8078060" lon="49.1020310"><time>2021-09-11T19:22:23.557</time></trkpt><trkpt lat="55.8077790" lon="49.1020370"><time>2021-09-11T19:22:24.557</time></trkpt><trkpt lat="55.8077380" lon="49.1020390"><time>2021-09-11T19:22:26.557</time></trkpt><trkpt lat="55.8077240" lon="49.1020390"><time>2021-09-11T19:22:26.557</time></trkpt><trkpt lat="55.8076980" lon="49.1020350"><time>2021-09-11T19:22:27.557</time></trkpt><trkpt lat="55.8076600" lon="49.1020280"><time>2021-09-11T19:22:29.557</time></trkpt><trkpt lat="55.8076470" lon="49.1020260"><time>2021-09-11T19:22:29.557</time></trkpt><trkpt lat="55.8076210" lon="49.1020230"><time>2021-09-11T19:22:30.557</time></trkpt><trkpt lat="55.8075950" lon="49.1020200"><time>2021-09-11T19:22:31.557</time></trkpt><trkpt lat="55.8075680" lon="49.1020170"><time>2021-09-11T19:22:32.557</time></trkpt><trkpt lat="55.8075410" lon="49.1020160"><time>2021-09-11T19:22:33.557</time></trkpt><trkpt lat="55.8075150" lon="49.1020130"><time>2021-09-11T19:22:34.557</time></trkpt><trkpt lat="55.8074900" lon="49.1020090"><time>2021-09-11T19:22:35.557</time></trkpt><trkpt lat="55.8074630" lon="49.1020040"><time>2021-09-11T19:22:36.557</time></trkpt><trkpt lat="55.8074350" lon="49.1020000"><time>2021-09-11T19:22:37.557</time></trkpt><trkpt lat="55.8074090" lon="49.1019970"><time>2021-09-11T19:22:38.557</time></trkpt><trkpt lat="55.8073700" lon="49.1019900"><time>2021-09-11T19:22:40.557</time></trkpt><trkpt lat="55.8073570" lon="49.1019880"><time>2021-09-11T19:22:40.557</time></trkpt><trkpt lat="55.8073310" lon="49.1019840"><time>2021-09-11T19:22:41.557</time></trkpt><trkpt lat="55.8073050" lon="49.1019800"><time>2021-09-11T19:22:42.557</time></trkpt><trkpt lat="55.8072800" lon="49.1019780"><time>2021-09-11T19:22:43.557</time></trkpt><trkpt lat="55.8072550" lon="49.1019760"><time>2021-09-11T19:22:44.557</time></trkpt><trkpt lat="55.8072290" lon="49.1019750"><time>2021-09-11T19:22:45.557</time></trkpt><trkpt lat="55.8072050" lon="49.1019740"><time>2021-09-11T19:22:46.557</time></trkpt><trkpt lat="55.8071810" lon="49.1019730"><time>2021-09-11T19:22:47.557</time></trkpt><trkpt lat="55.8071560" lon="49.1019720"><time>2021-09-11T19:22:48.557</time></trkpt><trkpt lat="55.8071320" lon="49.1019690"><time>2021-09-11T19:22:49.557</time></trkpt><trkpt lat="55.8070960" lon="49.1019660"><time>2021-09-11T19:22:51.557</time></trkpt><trkpt lat="55.8070830" lon="49.1019650"><time>2021-09-11T19:22:51.557</time></trkpt><trkpt lat="55.8070560" lon="49.1019640"><time>2021-09-11T19:22:52.557</time></trkpt><trkpt lat="55.8070310" lon="49.1019630"><time>2021-09-11T19:22:53.557</time></trkpt><trkpt lat="55.8070050" lon="49.1019630"><time>2021-09-11T19:22:54.557</time></trkpt><trkpt lat="55.8069800" lon="49.1019600"><time>2021-09-11T19:22:55.557</time></trkpt><trkpt lat="55.8069430" lon="49.1019560"><time>2021-09-11T19:22:57.557</time></trkpt><trkpt lat="55.8069300" lon="49.1019550"><time>2021-09-11T19:22:57.557</time></trkpt><trkpt lat="55.8069030" lon="49.1019540"><time>2021-09-11T19:22:58.557</time></trkpt><trkpt lat="55.8068770" lon="49.1019520"><time>2021-09-11T19:22:59.557</time></trkpt><trkpt lat="55.8068390" lon="49.1019490"><time>2021-09-11T19:23:01.557</time></trkpt><trkpt lat="55.8068270" lon="49.1019490"><time>2021-09-11T19:23:01.557</time></trkpt><trkpt lat="55.8068010" lon="49.1019480"><time>2021-09-11T19:23:02.557</time></trkpt><trkpt lat="55.8067750" lon="49.1019460"><time>2021-09-11T19:23:03.557</time></trkpt><trkpt lat="55.8067480" lon="49.1019420"><time>2021-09-11T19:23:04.557</time></trkpt><trkpt lat="55.8067210" lon="49.1019390"><time>2021-09-11T19:23:05.557</time></trkpt><trkpt lat="55.8066940" lon="49.1019360"><time>2021-09-11T19:23:06.557</time></trkpt><trkpt lat="55.8066670" lon="49.1019320"><time>2021-09-11T19:23:07.557</time></trkpt><trkpt lat="55.8066410" lon="49.1019270"><time>2021-09-11T19:23:08.557</time></trkpt><trkpt lat="55.8066140" lon="49.1019210"><time>2021-09-11T19:23:09.557</time></trkpt><trkpt lat="55.8065860" lon="49.1019150"><time>2021-09-11T19:23:10.557</time></trkpt><trkpt lat="55.8065590" lon="49.1019120"><time>2021-09-11T19:23:11.557</time></trkpt><trkpt lat="55.8065320" lon="49.1019100"><time>2021-09-11T19:23:12.557</time></trkpt><trkpt lat="55.8065060" lon="49.1019090"><time>2021-09-11T19:23:13.557</time></trkpt><trkpt lat="55.8064800" lon="49.1019070"><time>2021-09-11T19:23:14.557</time></trkpt><trkpt lat="55.8064540" lon="49.1019050"><time>2021-09-11T19:23:15.557</time></trkpt><trkpt lat="55.8064280" lon="49.1019020"><time>2021-09-11T19:23:16.557</time></trkpt><trkpt lat="55.8064030" lon="49.1018980"><time>2021-09-11T19:23:17.557</time></trkpt><trkpt lat="55.8063780" lon="49.1018930"><time>2021-09-11T19:23:18.557</time></trkpt><trkpt lat="55.8063510" lon="49.1018920"><time>2021-09-11T19:23:19.557</time></trkpt><trkpt lat="55.8063260" lon="49.1018910"><time>2021-09-11T19:23:20.557</time></trkpt><trkpt lat="55.8062870" lon="49.1018880"><time>2021-09-11T19:23:22.557</time></trkpt><trkpt lat="55.8062740" lon="49.1018870"><time>2021-09-11T19:23:22.557</time></trkpt><trkpt lat="55.8062500" lon="49.1018810"><time>2021-09-11T19:23:23.557</time></trkpt><trkpt lat="55.8062240" lon="49.1018770"><time>2021-09-11T19:23:24.557</time></trkpt><trkpt lat="55.8061970" lon="49.1018750"><time>2021-09-11T19:23:25.557</time></trkpt><trkpt lat="55.8061680" lon="49.1018740"><time>2021-09-11T19:23:26.557</time></trkpt><trkpt lat="55.8061280" lon="49.1018660"><time>2021-09-11T19:23:28.557</time></trkpt><trkpt lat="55.8061150" lon="49.1018630"><time>2021-09-11T19:23:28.557</time></trkpt><trkpt lat="55.8060920" lon="49.1018530"><time>2021-09-11T19:23:29.557</time></trkpt><trkpt lat="55.8060680" lon="49.1018440"><time>2021-09-11T19:23:30.557</time></trkpt><trkpt lat="55.8060440" lon="49.1018390"><time>2021-09-11T19:23:31.557</time></trkpt><trkpt lat="55.8060180" lon="49.1018360"><time>2021-09-11T19:23:32.557</time></trkpt><trkpt lat="55.8059900" lon="49.1018360"><time>2021-09-11T19:23:33.557</time></trkpt><trkpt lat="55.8059620" lon="49.1018360"><time>2021-09-11T19:23:34.557</time></trkpt><trkpt lat="55.8059350" lon="49.1018350"><time>2021-09-11T19:23:35.557</time></trkpt><trkpt lat="55.8059110" lon="49.1018320"><time>2021-09-11T19:23:36.557</time></trkpt><trkpt lat="55.8058880" lon="49.1018280"><time>2021-09-11T19:23:37.557</time></trkpt><trkpt lat="55.8058640" lon="49.1018230"><time>2021-09-11T19:23:38.557</time></trkpt><trkpt lat="55.8058400" lon="49.1018180"><time>2021-09-11T19:23:39.557</time></trkpt><trkpt lat="55.8058150" lon="49.1018130"><time>2021-09-11T19:23:40.557</time></trkpt><trkpt lat="55.8057890" lon="49.1018080"><time>2021-09-11T19:23:41.557</time></trkpt><trkpt lat="55.8057630" lon="49.1018060"><time>2021-09-11T19:23:42.557</time></trkpt><trkpt lat="55.8057370" lon="49.1018040"><time>2021-09-11T19:23:43.557</time></trkpt><trkpt lat="55.8057100" lon="49.1018020"><time>2021-09-11T19:23:44.557</time></trkpt><trkpt lat="55.8056820" lon="49.1018010"><time>2021-09-11T19:23:45.557</time></trkpt><trkpt lat="55.8056550" lon="49.1018010"><time>2021-09-11T19:23:46.557</time></trkpt><trkpt lat="55.8056160" lon="49.1018020"><time>2021-09-11T19:23:48.557</time></trkpt><trkpt lat="55.8056020" lon="49.1018020"><time>2021-09-11T19:23:48.557</time></trkpt><trkpt lat="55.8055740" lon="49.1018020"><time>2021-09-11T19:23:49.557</time></trkpt><trkpt lat="55.8055480" lon="49.1018020"><time>2021-09-11T19:23:50.557</time></trkpt><trkpt lat="55.8055220" lon="49.1018010"><time>2021-09-11T19:23:51.557</time></trkpt><trkpt lat="55.8054950" lon="49.1017990"><time>2021-09-11T19:23:52.557</time></trkpt><trkpt lat="55.8054700" lon="49.1017970"><time>2021-09-11T19:23:53.557</time></trkpt><trkpt lat="55.8054430" lon="49.1017960"><time>2021-09-11T19:23:54.557</time></trkpt><trkpt lat="55.8054060" lon="49.1017900"><time>2021-09-11T19:23:56.557</time></trkpt><trkpt lat="55.8053940" lon="49.1017890"><time>2021-09-11T19:23:56.557</time></trkpt><trkpt lat="55.8053680" lon="49.1017860"><time>2021-09-11T19:23:57.557</time></trkpt><trkpt lat="55.8053410" lon="49.1017840"><time>2021-09-11T19:23:58.557</time></trkpt><trkpt lat="55.8053010" lon="49.1017800"><time>2021-09-11T19:24:00.557</time></trkpt><trkpt lat="55.8052870" lon="49.1017790"><time>2021-09-11T19:24:00.557</time></trkpt><trkpt lat="55.8052580" lon="49.1017790"><time>2021-09-11T19:24:01.557</time></trkpt><trkpt lat="55.8052290" lon="49.1017770"><time>2021-09-11T19:24:02.557</time></trkpt><trkpt lat="55.8052000" lon="49.1017770"><time>2021-09-11T19:24:03.557</time></trkpt><trkpt lat="55.8051720" lon="49.1017760"><time>2021-09-11T19:24:04.557</time></trkpt><trkpt lat="55.8051370" lon="49.1017570"><time>2021-09-11T19:24:06.557</time></trkpt><trkpt lat="55.8051250" lon="49.1017520"><time>2021-09-11T19:24:06.557</time></trkpt><trkpt lat="55.8051010" lon="49.1017440"><time>2021-09-11T19:24:07.557</time></trkpt><trkpt lat="55.8050770" lon="49.1017370"><time>2021-09-11T19:24:08.557</time></trkpt><trkpt lat="55.8050500" lon="49.1017300"><time>2021-09-11T19:24:09.557</time></trkpt><trkpt lat="55.8050240" lon="49.1017240"><time>2021-09-11T19:24:10.557</time></trkpt><trkpt lat="55.8049990" lon="49.1017180"><time>2021-09-11T19:24:11.557</time></trkpt><trkpt lat="55.8049730" lon="49.1017140"><time>2021-09-11T19:24:12.557</time></trkpt><trkpt lat="55.8049470" lon="49.1017090"><time>2021-09-11T19:24:13.557</time></trkpt><trkpt lat="55.8049210" lon="49.1017040"><time>2021-09-11T19:24:14.557</time></trkpt><trkpt lat="55.8048960" lon="49.1016960"><time>2021-09-11T19:24:15.557</time></trkpt><trkpt lat="55.8048720" lon="49.1016890"><time>2021-09-11T19:24:16.557</time></trkpt><trkpt lat="55.8048470" lon="49.1016840"><time>2021-09-11T19:24:17.557</time></trkpt><trkpt lat="55.8048190" lon="49.1016810"><time>2021-09-11T19:24:18.557</time></trkpt><trkpt lat="55.8047910" lon="49.1016780"><time>2021-09-11T19:24:19.557</time></trkpt><trkpt lat="55.8047630" lon="49.1016740"><time>2021-09-11T19:24:20.557</time></trkpt><trkpt lat="55.8047350" lon="49.1016710"><time>2021-09-11T19:24:21.557</time></trkpt><trkpt lat="55.8047080" lon="49.1016660"><time>2021-09-11T19:24:22.557</time></trkpt><trkpt lat="55.8046830" lon="49.1016610"><time>2021-09-11T19:24:23.557</time></trkpt><trkpt lat="55.8046570" lon="49.1016590"><time>2021-09-11T19:24:24.557</time></trkpt><trkpt lat="55.8046320" lon="49.1016530"><time>2021-09-11T19:24:25.557</time></trkpt><trkpt lat="55.8045950" lon="49.1016460"><time>2021-09-11T19:24:27.557</time></trkpt><trkpt lat="55.8045820" lon="49.1016440"><time>2021-09-11T19:24:27.557</time></trkpt><trkpt lat="55.8045570" lon="49.1016360"><time>2021-09-11T19:24:28.557</time></trkpt><trkpt lat="55.8045320" lon="49.1016280"><time>2021-09-11T19:24:29.557</time></trkpt><trkpt lat="55.8045070" lon="49.1016210"><time>2021-09-11T19:24:30.557</time></trkpt><trkpt lat="55.8044810" lon="49.1016140"><time>2021-09-11T19:24:31.557</time></trkpt><trkpt lat="55.8044430" lon="49.1016060"><time>2021-09-11T19:24:33.557</time></trkpt><trkpt lat="55.8044300" lon="49.1016040"><time>2021-09-11T19:24:33.557</time></trkpt><trkpt lat="55.8044040" lon="49.1016010"><time>2021-09-11T19:24:34.557</time></trkpt><trkpt lat="55.8043780" lon="49.1015990"><time>2021-09-11T19:24:35.557</time></trkpt><trkpt lat="55.8043520" lon="49.1015970"><time>2021-09-11T19:24:36.557</time></trkpt><trkpt lat="55.8043250" lon="49.1015940"><time>2021-09-11T19:24:37.557</time></trkpt><trkpt lat="55.8042980" lon="49.1015900"><time>2021-09-11T19:24:38.557</time></trkpt><trkpt lat="55.8042730" lon="49.1015850"><time>2021-09-11T19:24:39.557</time></trkpt><trkpt lat="55.8042470" lon="49.1015800"><time>2021-09-11T19:24:40.557</time></trkpt><trkpt lat="55.8042220" lon="49.1015740"><time>2021-09-11T19:24:41.557</time></trkpt><trkpt lat="55.8041980" lon="49.1015690"><time>2021-09-11T19:24:42.557</time></trkpt><trkpt lat="55.8041730" lon="49.1015630"><time>2021-09-11T19:24:43.557</time></trkpt><trkpt lat="55.8041480" lon="49.1015590"><time>2021-09-11T19:24:44.557</time></trkpt><trkpt lat="55.8041230" lon="49.1015570"><time>2021-09-11T19:24:45.557</time></trkpt><trkpt lat="55.8040980" lon="49.1015520"><time>2021-09-11T19:24:46.557</time></trkpt><trkpt lat="55.8040730" lon="49.1015470"><time>2021-09-11T19:24:47.557</time></trkpt><trkpt lat="55.8040480" lon="49.1015410"><time>2021-09-11T19:24:48.557</time></trkpt><trkpt lat="55.8040230" lon="49.1015330"><time>2021-09-11T19:24:49.557</time></trkpt><trkpt lat="55.8039990" lon="49.1015250"><time>2021-09-11T19:24:50.557</time></trkpt><trkpt lat="55.8039750" lon="49.1015160"><time>2021-09-11T19:24:51.557</time></trkpt><trkpt lat="55.8039520" lon="49.1015070"><time>2021-09-11T19:24:52.557</time></trkpt><trkpt lat="55.8039290" lon="49.1014960"><time>2021-09-11T19:24:53.557</time></trkpt><trkpt lat="55.8038950" lon="49.1014830"><time>2021-09-11T19:24:55.557</time></trkpt><trkpt lat="55.8038830" lon="49.1014790"><time>2021-09-11T19:24:55.557</time></trkpt><trkpt lat="55.8038600" lon="49.1014720"><time>2021-09-11T19:24:56.557</time></trkpt><trkpt lat="55.8038370" lon="49.1014630"><time>2021-09-11T19:24:57.557</time></trkpt><trkpt lat="55.8038040" lon="49.1014480"><time>2021-09-11T19:24:59.557</time></trkpt><trkpt lat="55.8037920" lon="49.1014420"><time>2021-09-11T19:24:59.557</time></trkpt><trkpt lat="55.8037690" lon="49.1014300"><time>2021-09-11T19:25:00.557</time></trkpt><trkpt lat="55.8037460" lon="49.1014190"><time>2021-09-11T19:25:01.557</time></trkpt><trkpt lat="55.8037240" lon="49.1014080"><time>2021-09-11T19:25:02.557</time></trkpt><trkpt lat="55.8037010" lon="49.1013980"><time>2021-09-11T19:25:03.557</time></trkpt><trkpt lat="55.8036770" lon="49.1013880"><time>2021-09-11T19:25:04.557</time></trkpt><trkpt lat="55.8036530" lon="49.1013780"><time>2021-09-11T19:25:05.557</time></trkpt><trkpt lat="55.8036290" lon="49.1013680"><time>2021-09-11T19:25:06.557</time></trkpt><trkpt lat="55.8036030" lon="49.1013590"><time>2021-09-11T19:25:07.557</time></trkpt><trkpt lat="55.8035780" lon="49.1013520"><time>2021-09-11T19:25:08.557</time></trkpt><trkpt lat="55.8035410" lon="49.1013410"><time>2021-09-11T19:25:10.557</time></trkpt><trkpt lat="55.8035280" lon="49.1013370"><time>2021-09-11T19:25:10.557</time></trkpt><trkpt lat="55.8035030" lon="49.1013270"><time>2021-09-11T19:25:11.557</time></trkpt><trkpt lat="55.8034800" lon="49.1013180"><time>2021-09-11T19:25:12.557</time></trkpt><trkpt lat="55.8034560" lon="49.1013080"><time>2021-09-11T19:25:13.557</time></trkpt><trkpt lat="55.8034320" lon="49.1012980"><time>2021-09-11T19:25:14.557</time></trkpt><trkpt lat="55.8033950" lon="49.1012850"><time>2021-09-11T19:25:16.557</time></trkpt><trkpt lat="55.8033820" lon="49.1012800"><time>2021-09-11T19:25:16.557</time></trkpt><trkpt lat="55.8033560" lon="49.1012730"><time>2021-09-11T19:25:17.557</time></trkpt><trkpt lat="55.8033300" lon="49.1012670"><time>2021-09-11T19:25:18.557</time></trkpt><trkpt lat="55.8033030" lon="49.1012610"><time>2021-09-11T19:25:19.557</time></trkpt><trkpt lat="55.8032770" lon="49.1012540"><time>2021-09-11T19:25:20.557</time></trkpt><trkpt lat="55.8032500" lon="49.1012510"><time>2021-09-11T19:25:21.557</time></trkpt><trkpt lat="55.8032270" lon="49.1012470"><time>2021-09-11T19:25:22.557</time></trkpt><trkpt lat="55.8032020" lon="49.1012440"><time>2021-09-11T19:25:23.557</time></trkpt><trkpt lat="55.8031770" lon="49.1012400"><time>2021-09-11T19:25:24.557</time></trkpt><trkpt lat="55.8031520" lon="49.1012350"><time>2021-09-11T19:25:25.557</time></trkpt><trkpt lat="55.8031270" lon="49.1012330"><time>2021-09-11T19:25:26.557</time></trkpt><trkpt lat="55.8030980" lon="49.1012320"><time>2021-09-11T19:25:27.557</time></trkpt><trkpt lat="55.8030700" lon="49.1012310"><time>2021-09-11T19:25:28.557</time></trkpt><trkpt lat="55.8030410" lon="49.1012300"><time>2021-09-11T19:25:29.557</time></trkpt><trkpt lat="55.8030130" lon="49.1012290"><time>2021-09-11T19:25:30.557</time></trkpt><trkpt lat="55.8029860" lon="49.1012270"><time>2021-09-11T19:25:31.557</time></trkpt><trkpt lat="55.8029480" lon="49.1012200"><time>2021-09-11T19:25:33.557</time></trkpt><trkpt lat="55.8029350" lon="49.1012180"><time>2021-09-11T19:25:33.557</time></trkpt><trkpt lat="55.8029120" lon="49.1012140"><time>2021-09-11T19:25:34.557</time></trkpt><trkpt lat="55.8028900" lon="49.1012120"><time>2021-09-11T19:25:35.557</time></trkpt><trkpt lat="55.8028660" lon="49.1012130"><time>2021-09-11T19:25:36.557</time></trkpt><trkpt lat="55.8028440" lon="49.1012150"><time>2021-09-11T19:25:37.557</time></trkpt><trkpt lat="55.8028210" lon="49.1012180"><time>2021-09-11T19:25:38.557</time></trkpt><trkpt lat="55.8027980" lon="49.1012210"><time>2021-09-11T19:25:39.557</time></trkpt><trkpt lat="55.8027730" lon="49.1012250"><time>2021-09-11T19:25:39.557</time></trkpt><trkpt lat="55.8027500" lon="49.1012300"><time>2021-09-11T19:25:40.557</time></trkpt><trkpt lat="55.8027260" lon="49.1012380"><time>2021-09-11T19:25:41.557</time></trkpt><trkpt lat="55.8027000" lon="49.1012490"><time>2021-09-11T19:25:42.557</time></trkpt><trkpt lat="55.8026750" lon="49.1012610"><time>2021-09-11T19:25:43.557</time></trkpt><trkpt lat="55.8026500" lon="49.1012730"><time>2021-09-11T19:25:44.557</time></trkpt><trkpt lat="55.8026270" lon="49.1012820"><time>2021-09-11T19:25:45.557</time></trkpt><trkpt lat="55.8025910" lon="49.1012960"><time>2021-09-11T19:25:47.557</time></trkpt><trkpt lat="55.8025790" lon="49.1013000"><time>2021-09-11T19:25:47.557</time></trkpt><trkpt lat="55.8025560" lon="49.1013050"><time>2021-09-11T19:25:48.557</time></trkpt><trkpt lat="55.8025330" lon="49.1013120"><time>2021-09-11T19:25:49.557</time></trkpt><trkpt lat="55.8025100" lon="49.1013200"><time>2021-09-11T19:25:50.557</time></trkpt><trkpt lat="55.8024870" lon="49.1013290"><time>2021-09-11T19:25:51.557</time></trkpt><trkpt lat="55.8024550" lon="49.1013400"><time>2021-09-11T19:25:53.557</time></trkpt><trkpt lat="55.8024440" lon="49.1013440"><time>2021-09-11T19:25:53.557</time></trkpt><trkpt lat="55.8024220" lon="49.1013520"><time>2021-09-11T19:25:54.557</time></trkpt><trkpt lat="55.8023980" lon="49.1013630"><time>2021-09-11T19:25:55.557</time></trkpt><trkpt lat="55.8023610" lon="49.1013800"><time>2021-09-11T19:25:57.557</time></trkpt><trkpt lat="55.8023480" lon="49.1013860"><time>2021-09-11T19:25:57.557</time></trkpt><trkpt lat="55.8023220" lon="49.1014000"><time>2021-09-11T19:25:58.557</time></trkpt><trkpt lat="55.8022960" lon="49.1014130"><time>2021-09-11T19:25:59.557</time></trkpt><trkpt lat="55.8022730" lon="49.1014240"><time>2021-09-11T19:26:00.557</time></trkpt><trkpt lat="55.8022510" lon="49.1014340"><time>2021-09-11T19:26:01.557</time></trkpt><trkpt lat="55.8022270" lon="49.1014460"><time>2021-09-11T19:26:02.557</time></trkpt><trkpt lat="55.8022040" lon="49.1014570"><time>2021-09-11T19:26:03.557</time></trkpt><trkpt lat="55.8021690" lon="49.1014740"><time>2021-09-11T19:26:05.557</time></trkpt><trkpt lat="55.8021580" lon="49.1014790"><time>2021-09-11T19:26:05.557</time></trkpt><trkpt lat="55.8021340" lon="49.1014900"><time>2021-09-11T19:26:06.557</time></trkpt><trkpt lat="55.8021090" lon="49.1015030"><time>2021-09-11T19:26:07.557</time></trkpt><trkpt lat="55.8020840" lon="49.1015160"><time>2021-09-11T19:26:08.557</time></trkpt><trkpt lat="55.8020590" lon="49.1015300"><time>2021-09-11T19:26:09.557</time></trkpt><trkpt lat="55.8020330" lon="49.1015440"><time>2021-09-11T19:26:10.557</time></trkpt><trkpt lat="55.8020080" lon="49.1015570"><time>2021-09-11T19:26:11.557</time></trkpt><trkpt lat="55.8019840" lon="49.1015670"><time>2021-09-11T19:26:12.557</time></trkpt><trkpt lat="55.8019470" lon="49.1015820"><time>2021-09-11T19:26:14.557</time></trkpt><trkpt lat="55.8019350" lon="49.1015870"><time>2021-09-11T19:26:14.557</time></trkpt><trkpt lat="55.8019120" lon="49.1015950"><time>2021-09-11T19:26:15.557</time></trkpt><trkpt lat="55.8018890" lon="49.1016040"><time>2021-09-11T19:26:16.557</time></trkpt><trkpt lat="55.8018680" lon="49.1016090"><time>2021-09-11T19:26:17.557</time></trkpt><trkpt lat="55.8018480" lon="49.1016130"><time>2021-09-11T19:26:18.557</time></trkpt><trkpt lat="55.8018260" lon="49.1016180"><time>2021-09-11T19:26:19.557</time></trkpt><trkpt lat="55.8018040" lon="49.1016230"><time>2021-09-11T19:26:20.557</time></trkpt><trkpt lat="55.8017800" lon="49.1016300"><time>2021-09-11T19:26:21.557</time></trkpt><trkpt lat="55.8017560" lon="49.1016360"><time>2021-09-11T19:26:22.557</time></trkpt><trkpt lat="55.8017320" lon="49.1016430"><time>2021-09-11T19:26:23.557</time></trkpt><trkpt lat="55.8017100" lon="49.1016490"><time>2021-09-11T19:26:24.557</time></trkpt><trkpt lat="55.8016880" lon="49.1016560"><time>2021-09-11T19:26:25.557</time></trkpt><trkpt lat="55.8016660" lon="49.1016620"><time>2021-09-11T19:26:26.557</time></trkpt><trkpt lat="55.8016450" lon="49.1016660"><time>2021-09-11T19:26:27.557</time></trkpt><trkpt lat="55.8016230" lon="49.1016730"><time>2021-09-11T19:26:28.557</time></trkpt><trkpt lat="55.8016000" lon="49.1016810"><time>2021-09-11T19:26:29.557</time></trkpt><trkpt lat="55.8015760" lon="49.1016900"><time>2021-09-11T19:26:30.557</time></trkpt><trkpt lat="55.8015520" lon="49.1016990"><time>2021-09-11T19:26:31.557</time></trkpt><trkpt lat="55.8015280" lon="49.1017100"><time>2021-09-11T19:26:32.557</time></trkpt><trkpt lat="55.8015040" lon="49.1017180"><time>2021-09-11T19:26:33.557</time></trkpt><trkpt lat="55.8014790" lon="49.1017260"><time>2021-09-11T19:26:34.557</time></trkpt><trkpt lat="55.8014550" lon="49.1017330"><time>2021-09-11T19:26:35.557</time></trkpt><trkpt lat="55.8014170" lon="49.1017480"><time>2021-09-11T19:26:37.557</time></trkpt><trkpt lat="55.8014040" lon="49.1017530"><time>2021-09-11T19:26:37.557</time></trkpt><trkpt lat="55.8013780" lon="49.1017640"><time>2021-09-11T19:26:38.557</time></trkpt><trkpt lat="55.8013520" lon="49.1017760"><time>2021-09-11T19:26:39.557</time></trkpt><trkpt lat="55.8013260" lon="49.1017900"><time>2021-09-11T19:26:40.557</time></trkpt><trkpt lat="55.8012860" lon="49.1018140"><time>2021-09-11T19:26:42.557</time></trkpt><trkpt lat="55.8012730" lon="49.1018200"><time>2021-09-11T19:26:42.557</time></trkpt><trkpt lat="55.8012490" lon="49.1018310"><time>2021-09-11T19:26:43.557</time></trkpt><trkpt lat="55.8012240" lon="49.1018430"><time>2021-09-11T19:26:44.557</time></trkpt><trkpt lat="55.8011990" lon="49.1018520"><time>2021-09-11T19:26:45.557</time></trkpt><trkpt lat="55.8011760" lon="49.1018570"><time>2021-09-11T19:26:46.557</time></trkpt><trkpt lat="55.8011510" lon="49.1018610"><time>2021-09-11T19:26:47.557</time></trkpt><trkpt lat="55.8011270" lon="49.1018630"><time>2021-09-11T19:26:48.557</time></trkpt><trkpt lat="55.8011040" lon="49.1018630"><time>2021-09-11T19:26:49.557</time></trkpt><trkpt lat="55.8010810" lon="49.1018620"><time>2021-09-11T19:26:50.557</time></trkpt><trkpt lat="55.8010480" lon="49.1018540"><time>2021-09-11T19:26:52.557</time></trkpt><trkpt lat="55.8010360" lon="49.1018510"><time>2021-09-11T19:26:52.557</time></trkpt><trkpt lat="55.8010120" lon="49.1018430"><time>2021-09-11T19:26:53.557</time></trkpt><trkpt lat="55.8009870" lon="49.1018320"><time>2021-09-11T19:26:54.557</time></trkpt><trkpt lat="55.8009630" lon="49.1018190"><time>2021-09-11T19:26:55.557</time></trkpt><trkpt lat="55.8009380" lon="49.1018040"><time>2021-09-11T19:26:56.557</time></trkpt><trkpt lat="55.8009120" lon="49.1017880"><time>2021-09-11T19:26:57.557</time></trkpt><trkpt lat="55.8008870" lon="49.1017700"><time>2021-09-11T19:26:58.557</time></trkpt><trkpt lat="55.8008620" lon="49.1017530"><time>2021-09-11T19:26:59.557</time></trkpt><trkpt lat="55.8008400" lon="49.1017290"><time>2021-09-11T19:27:00.557</time></trkpt><trkpt lat="55.8008210" lon="49.1017020"><time>2021-09-11T19:27:01.557</time></trkpt><trkpt lat="55.8008020" lon="49.1016750"><time>2021-09-11T19:27:02.557</time></trkpt><trkpt lat="55.8007830" lon="49.1016470"><time>2021-09-11T19:27:03.557</time></trkpt><trkpt lat="55.8007650" lon="49.1016180"><time>2021-09-11T19:27:04.557</time></trkpt><trkpt lat="55.8007470" lon="49.1015850"><time>2021-09-11T19:27:05.557</time></trkpt><trkpt lat="55.8007300" lon="49.1015530"><time>2021-09-11T19:27:06.557</time></trkpt><trkpt lat="55.8007130" lon="49.1015200"><time>2021-09-11T19:27:07.557</time></trkpt><trkpt lat="55.8006950" lon="49.1014890"><time>2021-09-11T19:27:08.557</time></trkpt><trkpt lat="55.8006780" lon="49.1014560"><time>2021-09-11T19:27:09.557</time></trkpt><trkpt lat="55.8006600" lon="49.1014230"><time>2021-09-11T19:27:10.557</time></trkpt><trkpt lat="55.8006430" lon="49.1013900"><time>2021-09-11T19:27:11.557</time></trkpt><trkpt lat="55.8006170" lon="49.1013390"><time>2021-09-11T19:27:13.557</time></trkpt><trkpt lat="55.8006080" lon="49.1013220"><time>2021-09-11T19:27:13.557</time></trkpt><trkpt lat="55.8005920" lon="49.1012870"><time>2021-09-11T19:27:14.557</time></trkpt><trkpt lat="55.8005740" lon="49.1012530"><time>2021-09-11T19:27:15.557</time></trkpt><trkpt lat="55.8005570" lon="49.1012180"><time>2021-09-11T19:27:16.557</time></trkpt><trkpt lat="55.8005380" lon="49.1011850"><time>2021-09-11T19:27:17.557</time></trkpt><trkpt lat="55.8005100" lon="49.1011400"><time>2021-09-11T19:27:19.557</time></trkpt><trkpt lat="55.8005000" lon="49.1011250"><time>2021-09-11T19:27:19.557</time></trkpt><trkpt lat="55.8004790" lon="49.1010950"><time>2021-09-11T19:27:20.557</time></trkpt><trkpt lat="55.8004580" lon="49.1010640"><time>2021-09-11T19:27:21.557</time></trkpt><trkpt lat="55.8004380" lon="49.1010340"><time>2021-09-11T19:27:22.557</time></trkpt><trkpt lat="55.8004190" lon="49.1010030"><time>2021-09-11T19:27:23.557</time></trkpt><trkpt lat="55.8004000" lon="49.1009710"><time>2021-09-11T19:27:24.557</time></trkpt><trkpt lat="55.8003810" lon="49.1009400"><time>2021-09-11T19:27:25.557</time></trkpt><trkpt lat="55.8003610" lon="49.1009100"><time>2021-09-11T19:27:26.557</time></trkpt><trkpt lat="55.8003420" lon="49.1008810"><time>2021-09-11T19:27:27.557</time></trkpt><trkpt lat="55.8003240" lon="49.1008500"><time>2021-09-11T19:27:28.557</time></trkpt><trkpt lat="55.8003070" lon="49.1008220"><time>2021-09-11T19:27:29.557</time></trkpt><trkpt lat="55.8002870" lon="49.1007910"><time>2021-09-11T19:27:30.557</time></trkpt><trkpt lat="55.8002690" lon="49.1007630"><time>2021-09-11T19:27:31.557</time></trkpt><trkpt lat="55.8002520" lon="49.1007350"><time>2021-09-11T19:27:32.557</time></trkpt><trkpt lat="55.8002340" lon="49.1007070"><time>2021-09-11T19:27:33.557</time></trkpt><trkpt lat="55.8002180" lon="49.1006760"><time>2021-09-11T19:27:34.557</time></trkpt><trkpt lat="55.8001920" lon="49.1006290"><time>2021-09-11T19:27:36.557</time></trkpt><trkpt lat="55.8001830" lon="49.1006140"><time>2021-09-11T19:27:36.557</time></trkpt><trkpt lat="55.8001650" lon="49.1005810"><time>2021-09-11T19:27:37.557</time></trkpt><trkpt lat="55.8001480" lon="49.1005490"><time>2021-09-11T19:27:38.557</time></trkpt><trkpt lat="55.8001230" lon="49.1005000"><time>2021-09-11T19:27:40.557</time></trkpt><trkpt lat="55.8001140" lon="49.1004830"><time>2021-09-11T19:27:40.557</time></trkpt><trkpt lat="55.8000970" lon="49.1004490"><time>2021-09-11T19:27:41.557</time></trkpt><trkpt lat="55.8000810" lon="49.1004140"><time>2021-09-11T19:27:42.557</time></trkpt><trkpt lat="55.8000650" lon="49.1003790"><time>2021-09-11T19:27:43.557</time></trkpt><trkpt lat="55.8000480" lon="49.1003440"><time>2021-09-11T19:27:44.557</time></trkpt><trkpt lat="55.8000240" lon="49.1002920"><time>2021-09-11T19:27:46.557</time></trkpt><trkpt lat="55.8000160" lon="49.1002750"><time>2021-09-11T19:27:46.557</time></trkpt><trkpt lat="55.8000000" lon="49.1002390"><time>2021-09-11T19:27:47.557</time></trkpt><trkpt lat="55.7999830" lon="49.1002060"><time>2021-09-11T19:27:48.557</time></trkpt><trkpt lat="55.7999670" lon="49.1001740"><time>2021-09-11T19:27:49.557</time></trkpt><trkpt lat="55.7999500" lon="49.1001420"><time>2021-09-11T19:27:50.557</time></trkpt><trkpt lat="55.7999350" lon="49.1001100"><time>2021-09-11T19:27:51.557</time></trkpt><trkpt lat="55.7999200" lon="49.1000760"><time>2021-09-11T19:27:52.557</time></trkpt><trkpt lat="55.7999060" lon="49.1000410"><time>2021-09-11T19:27:53.557</time></trkpt><trkpt lat="55.7998920" lon="49.1000070"><time>2021-09-11T19:27:54.557</time></trkpt><trkpt lat="55.7998780" lon="49.0999750"><time>2021-09-11T19:27:55.557</time></trkpt><trkpt lat="55.7998780" lon="49.0999590"><time>2021-09-11T19:27:56.557</time></trkpt><trkpt lat="55.7998850" lon="49.0999690"><time>2021-09-11T19:27:57.557</time></trkpt><trkpt lat="55.7998930" lon="49.0999780"><time>2021-09-11T19:27:58.557</time></trkpt><trkpt lat="55.7999000" lon="49.0999880"><time>2021-09-11T19:27:59.557</time></trkpt><trkpt lat="55.7999080" lon="49.0999980"><time>2021-09-11T19:28:00.557</time></trkpt><trkpt lat="55.7999150" lon="49.1000080"><time>2021-09-11T19:28:01.557</time></trkpt><trkpt lat="55.7999230" lon="49.1000180"><time>2021-09-11T19:28:02.557</time></trkpt><trkpt lat="55.7999300" lon="49.1000280"><time>2021-09-11T19:28:03.557</time></trkpt><trkpt lat="55.7999380" lon="49.1000370"><time>2021-09-11T19:28:04.557</time></trkpt><trkpt lat="55.7999450" lon="49.1000470"><time>2021-09-11T19:28:05.557</time></trkpt><trkpt lat="55.7999530" lon="49.1000570"><time>2021-09-11T19:28:06.557</time></trkpt><trkpt lat="55.7999600" lon="49.1000670"><time>2021-09-11T19:28:07.557</time></trkpt><trkpt lat="55.7999680" lon="49.1000770"><time>2021-09-11T19:28:08.557</time></trkpt><trkpt lat="55.7999750" lon="49.1000860"><time>2021-09-11T19:28:09.557</time></trkpt><trkpt lat="55.7999830" lon="49.1000960"><time>2021-09-11T19:28:10.557</time></trkpt><trkpt lat="55.7999900" lon="49.1001060"><time>2021-09-11T19:28:11.557</time></trkpt><trkpt lat="55.7999980" lon="49.1001160"><time>2021-09-11T19:28:12.557</time></trkpt><trkpt lat="55.8000050" lon="49.1001260"><time>2021-09-11T19:28:13.557</time></trkpt><trkpt lat="55.8000130" lon="49.1001360"><time>2021-09-11T19:28:14.557</time></trkpt><trkpt lat="55.8000200" lon="49.1001450"><time>2021-09-11T19:28:15.557</time></trkpt><trkpt lat="55.8000280" lon="49.1001550"><time>2021-09-11T19:28:17.557</time></trkpt><trkpt lat="55.8000350" lon="49.1001650"><time>2021-09-11T19:28:17.557</time></trkpt><trkpt lat="55.8000480" lon="49.1001870"><time>2021-09-11T19:28:18.557</time></trkpt><trkpt lat="55.8000600" lon="49.1002100"><time>2021-09-11T19:28:19.557</time></trkpt><trkpt lat="55.8000750" lon="49.1002320"><time>2021-09-11T19:28:20.557</time></trkpt><trkpt lat="55.8000920" lon="49.1002530"><time>2021-09-11T19:28:21.557</time></trkpt><trkpt lat="55.8001110" lon="49.1002760"><time>2021-09-11T19:28:22.557</time></trkpt><trkpt lat="55.8001290" lon="49.1003040"><time>2021-09-11T19:28:23.557</time></trkpt><trkpt lat="55.8001460" lon="49.1003330"><time>2021-09-11T19:28:24.557</time></trkpt><trkpt lat="55.8001640" lon="49.1003620"><time>2021-09-11T19:28:25.557</time></trkpt><trkpt lat="55.8001810" lon="49.1003900"><time>2021-09-11T19:28:26.557</time></trkpt><trkpt lat="55.8002000" lon="49.1004190"><time>2021-09-11T19:28:27.557</time></trkpt><trkpt lat="55.8002190" lon="49.1004470"><time>2021-09-11T19:28:28.557</time></trkpt><trkpt lat="55.8002380" lon="49.1004710"><time>2021-09-11T19:28:29.557</time></trkpt><trkpt lat="55.8002550" lon="49.1004900"><time>2021-09-11T19:28:30.557</time></trkpt><trkpt lat="55.8002810" lon="49.1005100"><time>2021-09-11T19:28:31.557</time></trkpt><trkpt lat="55.8002920" lon="49.1005160"><time>2021-09-11T19:28:32.557</time></trkpt><trkpt lat="55.8003020" lon="49.1005230"><time>2021-09-11T19:28:34.557</time></trkpt><trkpt lat="55.8003130" lon="49.1005300"><time>2021-09-11T19:28:34.557</time></trkpt><trkpt lat="55.8003310" lon="49.1005380"><time>2021-09-11T19:28:35.557</time></trkpt><trkpt lat="55.8003500" lon="49.1005450"><time>2021-09-11T19:28:36.557</time></trkpt><trkpt lat="55.8003710" lon="49.1005550"><time>2021-09-11T19:28:37.557</time></trkpt><trkpt lat="55.8003930" lon="49.1005670"><time>2021-09-11T19:28:38.557</time></trkpt><trkpt lat="55.8004170" lon="49.1005820"><time>2021-09-11T19:28:39.557</time></trkpt><trkpt lat="55.8004400" lon="49.1006000"><time>2021-09-11T19:28:40.557</time></trkpt><trkpt lat="55.8004630" lon="49.1006210"><time>2021-09-11T19:28:41.557</time></trkpt><trkpt lat="55.8004860" lon="49.1006450"><time>2021-09-11T19:28:42.557</time></trkpt><trkpt lat="55.8005080" lon="49.1006740"><time>2021-09-11T19:28:43.557</time></trkpt><trkpt lat="55.8005410" lon="49.1007210"><time>2021-09-11T19:28:45.557</time></trkpt><trkpt lat="55.8005520" lon="49.1007380"><time>2021-09-11T19:28:45.557</time></trkpt><trkpt lat="55.8005730" lon="49.1007730"><time>2021-09-11T19:28:46.557</time></trkpt><trkpt lat="55.8005930" lon="49.1008080"><time>2021-09-11T19:28:47.557</time></trkpt><trkpt lat="55.8006120" lon="49.1008430"><time>2021-09-11T19:28:48.557</time></trkpt><trkpt lat="55.8006300" lon="49.1008760"><time>2021-09-11T19:28:49.557</time></trkpt><trkpt lat="55.8006490" lon="49.1009120"><time>2021-09-11T19:28:50.557</time></trkpt><trkpt lat="55.8006670" lon="49.1009480"><time>2021-09-11T19:28:51.557</time></trkpt><trkpt lat="55.8006870" lon="49.1009770"><time>2021-09-11T19:28:52.557</time></trkpt><trkpt lat="55.8007060" lon="49.1010080"><time>2021-09-11T19:28:53.557</time></trkpt><trkpt lat="55.8007270" lon="49.1010370"><time>2021-09-11T19:28:54.557</time></trkpt><trkpt lat="55.8007470" lon="49.1010660"><time>2021-09-11T19:28:55.557</time></trkpt><trkpt lat="55.8007670" lon="49.1010960"><time>2021-09-11T19:28:56.557</time></trkpt><trkpt lat="55.8007870" lon="49.1011250"><time>2021-09-11T19:28:57.557</time></trkpt><trkpt lat="55.8008070" lon="49.1011530"><time>2021-09-11T19:28:58.557</time></trkpt><trkpt lat="55.8008280" lon="49.1011810"><time>2021-09-11T19:28:59.557</time></trkpt><trkpt lat="55.8008480" lon="49.1012090"><time>2021-09-11T19:29:00.557</time></trkpt><trkpt lat="55.8008700" lon="49.1012370"><time>2021-09-11T19:29:01.557</time></trkpt><trkpt lat="55.8008910" lon="49.1012650"><time>2021-09-11T19:29:02.557</time></trkpt><trkpt lat="55.8009140" lon="49.1012910"><time>2021-09-11T19:29:03.557</time></trkpt><trkpt lat="55.8009370" lon="49.1013180"><time>2021-09-11T19:29:04.557</time></trkpt><trkpt lat="55.8009700" lon="49.1013580"><time>2021-09-11T19:29:06.557</time></trkpt><trkpt lat="55.8009800" lon="49.1013710"><time>2021-09-11T19:29:06.557</time></trkpt><trkpt lat="55.8010010" lon="49.1013990"><time>2021-09-11T19:29:07.557</time></trkpt><trkpt lat="55.8010220" lon="49.1014250"><time>2021-09-11T19:29:08.557</time></trkpt><trkpt lat="55.8010420" lon="49.1014510"><time>2021-09-11T19:29:09.557</time></trkpt><trkpt lat="55.8010620" lon="49.1014750"><time>2021-09-11T19:29:10.557</time></trkpt><trkpt lat="55.8010930" lon="49.1015110"><time>2021-09-11T19:29:12.557</time></trkpt><trkpt lat="55.8011040" lon="49.1015230"><time>2021-09-11T19:29:12.557</time></trkpt><trkpt lat="55.8011250" lon="49.1015490"><time>2021-09-11T19:29:13.557</time></trkpt><trkpt lat="55.8011480" lon="49.1015740"><time>2021-09-11T19:29:14.557</time></trkpt><trkpt lat="55.8011700" lon="49.1015970"><time>2021-09-11T19:29:15.557</time></trkpt><trkpt lat="55.8011930" lon="49.1016200"><time>2021-09-11T19:29:16.557</time></trkpt><trkpt lat="55.8012160" lon="49.1016400"><time>2021-09-11T19:29:17.557</time></trkpt><trkpt lat="55.8012380" lon="49.1016600"><time>2021-09-11T19:29:18.557</time></trkpt><trkpt lat="55.8012580" lon="49.1016850"><time>2021-09-11T19:29:19.557</time></trkpt><trkpt lat="55.8012780" lon="49.1017120"><time>2021-09-11T19:29:20.557</time></trkpt><trkpt lat="55.8012950" lon="49.1017430"><time>2021-09-11T19:29:21.557</time></trkpt><trkpt lat="55.8013130" lon="49.1017760"><time>2021-09-11T19:29:22.557</time></trkpt><trkpt lat="55.8013310" lon="49.1018090"><time>2021-09-11T19:29:23.557</time></trkpt><trkpt lat="55.8013490" lon="49.1018440"><time>2021-09-11T19:29:24.557</time></trkpt><trkpt lat="55.8013670" lon="49.1018800"><time>2021-09-11T19:29:25.557</time></trkpt><trkpt lat="55.8013820" lon="49.1019200"><time>2021-09-11T19:29:26.557</time></trkpt><trkpt lat="55.8013990" lon="49.1019580"><time>2021-09-11T19:29:27.557</time></trkpt><trkpt lat="55.8014170" lon="49.1019940"><time>2021-09-11T19:29:28.557</time></trkpt><trkpt lat="55.8014360" lon="49.1020270"><time>2021-09-11T19:29:29.557</time></trkpt><trkpt lat="55.8014550" lon="49.1020600"><time>2021-09-11T19:29:30.557</time></trkpt><trkpt lat="55.8014730" lon="49.1020940"><time>2021-09-11T19:29:31.557</time></trkpt><trkpt lat="55.8014880" lon="49.1021250"><time>2021-09-11T19:29:32.557</time></trkpt><trkpt lat="55.8015000" lon="49.1021630"><time>2021-09-11T19:29:33.557</time></trkpt><trkpt lat="55.8015110" lon="49.1022030"><time>2021-09-11T19:29:34.557</time></trkpt><trkpt lat="55.8015230" lon="49.1022400"><time>2021-09-11T19:29:35.557</time></trkpt><trkpt lat="55.8015360" lon="49.1022760"><time>2021-09-11T19:29:36.557</time></trkpt><trkpt lat="55.8015480" lon="49.1023130"><time>2021-09-11T19:29:37.557</time></trkpt><trkpt lat="55.8015690" lon="49.1023750"><time>2021-09-11T19:29:39.557</time></trkpt><trkpt lat="55.8015760" lon="49.1023950"><time>2021-09-11T19:29:39.557</time></trkpt><trkpt lat="55.8015930" lon="49.1024300"><time>2021-09-11T19:29:40.557</time></trkpt><trkpt lat="55.8016090" lon="49.1024620"><time>2021-09-11T19:29:41.557</time></trkpt><trkpt lat="55.8016240" lon="49.1024950"><time>2021-09-11T19:29:42.557</time></trkpt><trkpt lat="55.8016440" lon="49.1025470"><time>2021-09-11T19:29:44.557</time></trkpt><trkpt lat="55.8016510" lon="49.1025640"><time>2021-09-11T19:29:44.557</time></trkpt><trkpt lat="55.8016640" lon="49.1025950"><time>2021-09-11T19:29:45.557</time></trkpt><trkpt lat="55.8016800" lon="49.1026220"><time>2021-09-11T19:29:46.557</time></trkpt><trkpt lat="55.8016950" lon="49.1026520"><time>2021-09-11T19:29:47.557</time></trkpt><trkpt lat="55.8017120" lon="49.1026890"><time>2021-09-11T19:29:48.557</time></trkpt><trkpt lat="55.8017360" lon="49.1027480"><time>2021-09-11T19:29:50.557</time></trkpt><trkpt lat="55.8017420" lon="49.1027670"><time>2021-09-11T19:29:50.557</time></trkpt><trkpt lat="55.8017530" lon="49.1028040"><time>2021-09-11T19:29:51.557</time></trkpt><trkpt lat="55.8017630" lon="49.1028430"><time>2021-09-11T19:29:52.557</time></trkpt><trkpt lat="55.8017720" lon="49.1028850"><time>2021-09-11T19:29:53.557</time></trkpt><trkpt lat="55.8017890" lon="49.1029240"><time>2021-09-11T19:29:54.557</time></trkpt><trkpt lat="55.8018050" lon="49.1029660"><time>2021-09-11T19:29:54.557</time></trkpt><trkpt lat="55.8018220" lon="49.1030050"><time>2021-09-11T19:29:55.557</time></trkpt><trkpt lat="55.8018350" lon="49.1030450"><time>2021-09-11T19:29:56.557</time></trkpt><trkpt lat="55.8018490" lon="49.1030840"><time>2021-09-11T19:29:57.557</time></trkpt><trkpt lat="55.8018660" lon="49.1031220"><time>2021-09-11T19:29:58.557</time></trkpt><trkpt lat="55.8018830" lon="49.1031590"><time>2021-09-11T19:29:59.557</time></trkpt><trkpt lat="55.8019000" lon="49.1031950"><time>2021-09-11T19:30:00.557</time></trkpt><trkpt lat="55.8019160" lon="49.1032320"><time>2021-09-11T19:30:01.557</time></trkpt><trkpt lat="55.8019340" lon="49.1032660"><time>2021-09-11T19:30:02.557</time></trkpt><trkpt lat="55.8019500" lon="49.1033010"><time>2021-09-11T19:30:03.557</time></trkpt><trkpt lat="55.8019630" lon="49.1033320"><time>2021-09-11T19:30:04.557</time></trkpt><trkpt lat="55.8019770" lon="49.1033620"><time>2021-09-11T19:30:05.557</time></trkpt><trkpt lat="55.8019930" lon="49.1033940"><time>2021-09-11T19:30:06.557</time></trkpt><trkpt lat="55.8020080" lon="49.1034310"><time>2021-09-11T19:30:07.557</time></trkpt><trkpt lat="55.8020220" lon="49.1034700"><time>2021-09-11T19:30:08.557</time></trkpt><trkpt lat="55.8020440" lon="49.1035280"><time>2021-09-11T19:30:10.557</time></trkpt><trkpt lat="55.8020510" lon="49.1035480"><time>2021-09-11T19:30:10.557</time></trkpt><trkpt lat="55.8020650" lon="49.1035880"><time>2021-09-11T19:30:11.557</time></trkpt><trkpt lat="55.8020780" lon="49.1036260"><time>2021-09-11T19:30:12.557</time></trkpt><trkpt lat="55.8020900" lon="49.1036660"><time>2021-09-11T19:30:13.557</time></trkpt><trkpt lat="55.8020990" lon="49.1037040"><time>2021-09-11T19:30:14.557</time></trkpt><trkpt lat="55.8021130" lon="49.1037610"><time>2021-09-11T19:30:16.557</time></trkpt><trkpt lat="55.8021180" lon="49.1037800"><time>2021-09-11T19:30:16.557</time></trkpt><trkpt lat="55.8021280" lon="49.1038200"><time>2021-09-11T19:30:17.557</time></trkpt><trkpt lat="55.8021380" lon="49.1038590"><time>2021-09-11T19:30:18.557</time></trkpt><trkpt lat="55.8021500" lon="49.1038980"><time>2021-09-11T19:30:19.557</time></trkpt><trkpt lat="55.8021630" lon="49.1039370"><time>2021-09-11T19:30:20.557</time></trkpt><trkpt lat="55.8021750" lon="49.1039750"><time>2021-09-11T19:30:21.557</time></trkpt><trkpt lat="55.8021860" lon="49.1040140"><time>2021-09-11T19:30:22.557</time></trkpt><trkpt lat="55.8021950" lon="49.1040540"><time>2021-09-11T19:30:23.557</time></trkpt><trkpt lat="55.8022040" lon="49.1040940"><time>2021-09-11T19:30:24.557</time></trkpt><trkpt lat="55.8022090" lon="49.1041360"><time>2021-09-11T19:30:25.557</time></trkpt><trkpt lat="55.8022180" lon="49.1041770"><time>2021-09-11T19:30:26.557</time></trkpt><trkpt lat="55.8022290" lon="49.1042180"><time>2021-09-11T19:30:27.557</time></trkpt><trkpt lat="55.8022380" lon="49.1042620"><time>2021-09-11T19:30:28.557</time></trkpt><trkpt lat="55.8022470" lon="49.1043050"><time>2021-09-11T19:30:29.557</time></trkpt><trkpt lat="55.8022550" lon="49.1043490"><time>2021-09-11T19:30:30.557</time></trkpt><trkpt lat="55.8022620" lon="49.1043910"><time>2021-09-11T19:30:31.557</time></trkpt><trkpt lat="55.8022710" lon="49.1044550"><time>2021-09-11T19:30:33.557</time></trkpt><trkpt lat="55.8022740" lon="49.1044760"><time>2021-09-11T19:30:33.557</time></trkpt><trkpt lat="55.8022800" lon="49.1045150"><time>2021-09-11T19:30:34.557</time></trkpt><trkpt lat="55.8022900" lon="49.1045550"><time>2021-09-11T19:30:35.557</time></trkpt><trkpt lat="55.8022990" lon="49.1045950"><time>2021-09-11T19:30:36.557</time></trkpt><trkpt lat="55.8023100" lon="49.1046340"><time>2021-09-11T19:30:37.557</time></trkpt><trkpt lat="55.8023230" lon="49.1046730"><time>2021-09-11T19:30:38.557</time></trkpt><trkpt lat="55.8023370" lon="49.1047110"><time>2021-09-11T19:30:39.557</time></trkpt><trkpt lat="55.8023510" lon="49.1047510"><time>2021-09-11T19:30:40.557</time></trkpt><trkpt lat="55.8023640" lon="49.1047910"><time>2021-09-11T19:30:41.557</time></trkpt><trkpt lat="55.8023760" lon="49.1048320"><time>2021-09-11T19:30:42.557</time></trkpt><trkpt lat="55.8023840" lon="49.1048770"><time>2021-09-11T19:30:43.557</time></trkpt><trkpt lat="55.8023920" lon="49.1049230"><time>2021-09-11T19:30:44.557</time></trkpt><trkpt lat="55.8024010" lon="49.1049660"><time>2021-09-11T19:30:45.557</time></trkpt><trkpt lat="55.8024120" lon="49.1050050"><time>2021-09-11T19:30:46.557</time></trkpt><trkpt lat="55.8024290" lon="49.1050610"><time>2021-09-11T19:30:48.557</time></trkpt><trkpt lat="55.8024340" lon="49.1050810"><time>2021-09-11T19:30:48.557</time></trkpt><trkpt lat="55.8024460" lon="49.1051180"><time>2021-09-11T19:30:49.557</time></trkpt><trkpt lat="55.8024590" lon="49.1051560"><time>2021-09-11T19:30:50.557</time></trkpt><trkpt lat="55.8024710" lon="49.1051940"><time>2021-09-11T19:30:51.557</time></trkpt><trkpt lat="55.8024830" lon="49.1052330"><time>2021-09-11T19:30:52.557</time></trkpt><trkpt lat="55.8024960" lon="49.1052720"><time>2021-09-11T19:30:54.557</time></trkpt><trkpt lat="55.8025080" lon="49.1053100"><time>2021-09-11T19:30:55.557</time></trkpt><trkpt lat="55.8025200" lon="49.1053470"><time>2021-09-11T19:30:55.557</time></trkpt><trkpt lat="55.8025300" lon="49.1053850"><time>2021-09-11T19:30:56.557</time></trkpt><trkpt lat="55.8025450" lon="49.1054430"><time>2021-09-11T19:30:58.557</time></trkpt><trkpt lat="55.8025500" lon="49.1054620"><time>2021-09-11T19:30:58.557</time></trkpt><trkpt lat="55.8025590" lon="49.1055010"><time>2021-09-11T19:30:59.557</time></trkpt><trkpt lat="55.8025670" lon="49.1055410"><time>2021-09-11T19:31:00.557</time></trkpt><trkpt lat="55.8025760" lon="49.1055800"><time>2021-09-11T19:31:01.557</time></trkpt><trkpt lat="55.8025880" lon="49.1056360"><time>2021-09-11T19:31:03.557</time></trkpt><trkpt lat="55.8025910" lon="49.1056550"><time>2021-09-11T19:31:03.557</time></trkpt><trkpt lat="55.8026010" lon="49.1056920"><time>2021-09-11T19:31:04.557</time></trkpt><trkpt lat="55.8026070" lon="49.1057290"><time>2021-09-11T19:31:05.557</time></trkpt><trkpt lat="55.8026130" lon="49.1057680"><time>2021-09-11T19:31:06.557</time></trkpt><trkpt lat="55.8026190" lon="49.1058060"><time>2021-09-11T19:31:07.557</time></trkpt><trkpt lat="55.8026260" lon="49.1058410"><time>2021-09-11T19:31:08.557</time></trkpt><trkpt lat="55.8026320" lon="49.1058750"><time>2021-09-11T19:31:09.557</time></trkpt><trkpt lat="55.8026400" lon="49.1059160"><time>2021-09-11T19:31:11.557</time></trkpt><trkpt lat="55.8026430" lon="49.1059290"><time>2021-09-11T19:31:11.557</time></trkpt><trkpt lat="55.8026530" lon="49.1059690"><time>2021-09-11T19:31:12.557</time></trkpt><trkpt lat="55.8026560" lon="49.1059860"><time>2021-09-11T19:31:13.557</time></trkpt><trkpt lat="55.8026600" lon="49.1060020"><time>2021-09-11T19:31:15.557</time></trkpt><trkpt lat="55.8026630" lon="49.1060190"><time>2021-09-11T19:31:15.557</time></trkpt><trkpt lat="55.8026760" lon="49.1060570"><time>2021-09-11T19:31:16.557</time></trkpt><trkpt lat="55.8026820" lon="49.1060750"><time>2021-09-11T19:31:17.557</time></trkpt><trkpt lat="55.8026890" lon="49.1060920"><time>2021-09-11T19:31:18.557</time></trkpt><trkpt lat="55.8026950" lon="49.1061100"><time>2021-09-11T19:31:19.557</time></trkpt><trkpt lat="55.8027020" lon="49.1061280"><time>2021-09-11T19:31:21.557</time></trkpt><trkpt lat="55.8027080" lon="49.1061460"><time>2021-09-11T19:31:21.557</time></trkpt><trkpt lat="55.8027210" lon="49.1061940"><time>2021-09-11T19:31:22.557</time></trkpt><trkpt lat="55.8027260" lon="49.1062190"><time>2021-09-11T19:31:23.557</time></trkpt><trkpt lat="55.8027300" lon="49.1062430"><time>2021-09-11T19:31:24.557</time></trkpt><trkpt lat="55.8027350" lon="49.1062670"><time>2021-09-11T19:31:25.557</time></trkpt><trkpt lat="55.8027400" lon="49.1062920"><time>2021-09-11T19:31:26.557</time></trkpt><trkpt lat="55.8027450" lon="49.1063160"><time>2021-09-11T19:31:27.557</time></trkpt><trkpt lat="55.8027490" lon="49.1063400"><time>2021-09-11T19:31:28.557</time></trkpt><trkpt lat="55.8027540" lon="49.1063650"><time>2021-09-11T19:31:29.557</time></trkpt><trkpt lat="55.8027590" lon="49.1063890"><time>2021-09-11T19:31:30.557</time></trkpt><trkpt lat="55.8027640" lon="49.1064140"><time>2021-09-11T19:31:31.557</time></trkpt><trkpt lat="55.8027680" lon="49.1064380"><time>2021-09-11T19:31:32.557</time></trkpt><trkpt lat="55.8027730" lon="49.1064620"><time>2021-09-11T19:31:33.557</time></trkpt><trkpt lat="55.8027780" lon="49.1064870"><time>2021-09-11T19:31:34.557</time></trkpt><trkpt lat="55.8027830" lon="49.1065110"><time>2021-09-11T19:31:35.557</time></trkpt><trkpt lat="55.8027870" lon="49.1065350"><time>2021-09-11T19:31:36.557</time></trkpt><trkpt lat="55.8027920" lon="49.1065600"><time>2021-09-11T19:31:38.557</time></trkpt><trkpt lat="55.8027970" lon="49.1065840"><time>2021-09-11T19:31:38.557</time></trkpt><trkpt lat="55.8027940" lon="49.1066370"><time>2021-09-11T19:31:39.557</time></trkpt><trkpt lat="55.8027910" lon="49.1066630"><time>2021-09-11T19:31:40.557</time></trkpt><trkpt lat="55.8027870" lon="49.1066880"><time>2021-09-11T19:31:41.557</time></trkpt><trkpt lat="55.8027830" lon="49.1067140"><time>2021-09-11T19:31:42.557</time></trkpt><trkpt lat="55.8027800" lon="49.1067390"><time>2021-09-11T19:31:43.557</time></trkpt><trkpt lat="55.8027760" lon="49.1067650"><time>2021-09-11T19:31:44.557</time></trkpt><trkpt lat="55.8027730" lon="49.1067900"><time>2021-09-11T19:31:45.557</time></trkpt><trkpt lat="55.8027690" lon="49.1068160"><time>2021-09-11T19:31:46.557</time></trkpt><trkpt lat="55.8027650" lon="49.1068410"><time>2021-09-11T19:31:47.557</time></trkpt><trkpt lat="55.8027620" lon="49.1068670"><time>2021-09-11T19:31:49.557</time></trkpt><trkpt lat="55.8027580" lon="49.1068920"><time>2021-09-11T19:31:49.557</time></trkpt><trkpt lat="55.8027420" lon="49.1069320"><time>2021-09-11T19:31:50.557</time></trkpt><trkpt lat="55.8027360" lon="49.1069510"><time>2021-09-11T19:31:51.557</time></trkpt><trkpt lat="55.8027300" lon="49.1069700"><time>2021-09-11T19:31:52.557</time></trkpt><trkpt lat="55.8027230" lon="49.1069890"><time>2021-09-11T19:31:53.557</time></trkpt><trkpt lat="55.8027170" lon="49.1070080"><time>2021-09-11T19:31:55.557</time></trkpt><trkpt lat="55.8027110" lon="49.1070270"><time>2021-09-11T19:31:55.557</time></trkpt><trkpt lat="55.8027040" lon="49.1070750"><time>2021-09-11T19:31:56.557</time></trkpt><trkpt lat="55.8027020" lon="49.1070970"><time>2021-09-11T19:31:57.557</time></trkpt><trkpt lat="55.8026990" lon="49.1071190"><time>2021-09-11T19:31:59.557</time></trkpt><trkpt lat="55.8026960" lon="49.1071410"><time>2021-09-11T19:31:59.557</time></trkpt><trkpt lat="55.8026950" lon="49.1071700"><time>2021-09-11T19:32:00.557</time></trkpt><trkpt lat="55.8026920" lon="49.1071970"><time>2021-09-11T19:32:01.557</time></trkpt><trkpt lat="55.8026890" lon="49.1072240"><time>2021-09-11T19:32:02.557</time></trkpt><trkpt lat="55.8026870" lon="49.1072530"><time>2021-09-11T19:32:03.557</time></trkpt><trkpt lat="55.8026880" lon="49.1072790"><time>2021-09-11T19:32:04.557</time></trkpt><trkpt lat="55.8026890" lon="49.1073040"><time>2021-09-11T19:32:05.557</time></trkpt><trkpt lat="55.8026890" lon="49.1073250"><time>2021-09-11T19:32:06.557</time></trkpt><trkpt lat="55.8026890" lon="49.1073460"><time>2021-09-11T19:32:07.557</time></trkpt><trkpt lat="55.8026880" lon="49.1073640"><time>2021-09-11T19:32:08.557</time></trkpt><trkpt lat="55.8026840" lon="49.1073840"><time>2021-09-11T19:32:09.557</time></trkpt><trkpt lat="55.8026790" lon="49.1074080"><time>2021-09-11T19:32:10.557</time></trkpt><trkpt lat="55.8026760" lon="49.1074350"><time>2021-09-11T19:32:11.557</time></trkpt><trkpt lat="55.8026760" lon="49.1074630"><time>2021-09-11T19:32:12.557</time></trkpt><trkpt lat="55.8026760" lon="49.1074930"><time>2021-09-11T19:32:13.557</time></trkpt><trkpt lat="55.8026750" lon="49.1075300"><time>2021-09-11T19:32:14.557</time></trkpt><trkpt lat="55.8026720" lon="49.1075700"><time>2021-09-11T19:32:15.557</time></trkpt><trkpt lat="55.8026690" lon="49.1076150"><time>2021-09-11T19:32:16.557</time></trkpt><trkpt lat="55.8026670" lon="49.1076600"><time>2021-09-11T19:32:17.557</time></trkpt><trkpt lat="55.8026660" lon="49.1077010"><time>2021-09-11T19:32:18.557</time></trkpt><trkpt lat="55.8026660" lon="49.1077590"><time>2021-09-11T19:32:20.557</time></trkpt><trkpt lat="55.8026660" lon="49.1077800"><time>2021-09-11T19:32:20.557</time></trkpt><trkpt lat="55.8026640" lon="49.1078190"><time>2021-09-11T19:32:21.557</time></trkpt><trkpt lat="55.8026620" lon="49.1078630"><time>2021-09-11T19:32:22.557</time></trkpt><trkpt lat="55.8026600" lon="49.1079040"><time>2021-09-11T19:32:23.557</time></trkpt><trkpt lat="55.8026580" lon="49.1079450"><time>2021-09-11T19:32:24.557</time></trkpt><trkpt lat="55.8026550" lon="49.1080120"><time>2021-09-11T19:32:26.557</time></trkpt><trkpt lat="55.8026540" lon="49.1080340"><time>2021-09-11T19:32:26.557</time></trkpt><trkpt lat="55.8026530" lon="49.1080790"><time>2021-09-11T19:32:27.557</time></trkpt><trkpt lat="55.8026530" lon="49.1081220"><time>2021-09-11T19:32:28.557</time></trkpt><trkpt lat="55.8026550" lon="49.1081660"><time>2021-09-11T19:32:29.557</time></trkpt><trkpt lat="55.8026590" lon="49.1082090"><time>2021-09-11T19:32:30.557</time></trkpt><trkpt lat="55.8026620" lon="49.1082530"><time>2021-09-11T19:32:31.557</time></trkpt><trkpt lat="55.8026670" lon="49.1082970"><time>2021-09-11T19:32:32.557</time></trkpt><trkpt lat="55.8026720" lon="49.1083400"><time>2021-09-11T19:32:33.557</time></trkpt><trkpt lat="55.8026770" lon="49.1083840"><time>2021-09-11T19:32:34.557</time></trkpt><trkpt lat="55.8026850" lon="49.1084260"><time>2021-09-11T19:32:35.557</time></trkpt><trkpt lat="55.8026980" lon="49.1084640"><time>2021-09-11T19:32:36.557</time></trkpt><trkpt lat="55.8027120" lon="49.1085010"><time>2021-09-11T19:32:37.557</time></trkpt><trkpt lat="55.8027270" lon="49.1085380"><time>2021-09-11T19:32:38.557</time></trkpt><trkpt lat="55.8027380" lon="49.1085780"><time>2021-09-11T19:32:39.557</time></trkpt><trkpt lat="55.8027470" lon="49.1086170"><time>2021-09-11T19:32:40.557</time></trkpt><trkpt lat="55.8027530" lon="49.1086640"><time>2021-09-11T19:32:41.557</time></trkpt><trkpt lat="55.8027570" lon="49.1087120"><time>2021-09-11T19:32:42.557</time></trkpt><trkpt lat="55.8027580" lon="49.1087610"><time>2021-09-11T19:32:43.557</time></trkpt><trkpt lat="55.8027580" lon="49.1088100"><time>2021-09-11T19:32:44.557</time></trkpt><trkpt lat="55.8027570" lon="49.1088580"><time>2021-09-11T19:32:45.557</time></trkpt><trkpt lat="55.8027540" lon="49.1089030"><time>2021-09-11T19:32:46.557</time></trkpt><trkpt lat="55.8027500" lon="49.1089530"><time>2021-09-11T19:32:47.557</time></trkpt><trkpt lat="55.8027450" lon="49.1090020"><time>2021-09-11T19:32:48.557</time></trkpt><trkpt lat="55.8027410" lon="49.1090460"><time>2021-09-11T19:32:49.557</time></trkpt><trkpt lat="55.8027380" lon="49.1090910"><time>2021-09-11T19:32:50.557</time></trkpt><trkpt lat="55.8027350" lon="49.1091350"><time>2021-09-11T19:32:51.557</time></trkpt><trkpt lat="55.8027310" lon="49.1091830"><time>2021-09-11T19:32:52.557</time></trkpt><trkpt lat="55.8027260" lon="49.1092540"><time>2021-09-11T19:32:54.557</time></trkpt><trkpt lat="55.8027240" lon="49.1092770"><time>2021-09-11T19:32:54.557</time></trkpt><trkpt lat="55.8027190" lon="49.1093210"><time>2021-09-11T19:32:55.557</time></trkpt><trkpt lat="55.8027160" lon="49.1093670"><time>2021-09-11T19:32:56.557</time></trkpt><trkpt lat="55.8027120" lon="49.1094370"><time>2021-09-11T19:32:58.557</time></trkpt><trkpt lat="55.8027110" lon="49.1094600"><time>2021-09-11T19:32:58.557</time></trkpt><trkpt lat="55.8027110" lon="49.1095050"><time>2021-09-11T19:32:59.557</time></trkpt><trkpt lat="55.8027120" lon="49.1095500"><time>2021-09-11T19:33:00.557</time></trkpt><trkpt lat="55.8027110" lon="49.1095940"><time>2021-09-11T19:33:01.557</time></trkpt><trkpt lat="55.8027090" lon="49.1096380"><time>2021-09-11T19:33:02.557</time></trkpt><trkpt lat="55.8027070" lon="49.1097030"><time>2021-09-11T19:33:04.557</time></trkpt><trkpt lat="55.8027060" lon="49.1097240"><time>2021-09-11T19:33:04.557</time></trkpt><trkpt lat="55.8027040" lon="49.1097650"><time>2021-09-11T19:33:05.557</time></trkpt><trkpt lat="55.8027020" lon="49.1098090"><time>2021-09-11T19:33:06.557</time></trkpt><trkpt lat="55.8026980" lon="49.1098530"><time>2021-09-11T19:33:07.557</time></trkpt><trkpt lat="55.8026940" lon="49.1098930"><time>2021-09-11T19:33:08.557</time></trkpt><trkpt lat="55.8026910" lon="49.1099310"><time>2021-09-11T19:33:09.557</time></trkpt><trkpt lat="55.8026870" lon="49.1099640"><time>2021-09-11T19:33:10.557</time></trkpt><trkpt lat="55.8026840" lon="49.1099940"><time>2021-09-11T19:33:11.557</time></trkpt><trkpt lat="55.8026820" lon="49.1100240"><time>2021-09-11T19:33:12.557</time></trkpt><trkpt lat="55.8026800" lon="49.1100480"><time>2021-09-11T19:33:13.557</time></trkpt><trkpt lat="55.8026790" lon="49.1100670"><time>2021-09-11T19:33:14.557</time></trkpt><trkpt lat="55.8026770" lon="49.1101170"><time>2021-09-11T19:33:16.557</time></trkpt><trkpt lat="55.8026770" lon="49.1101230"><time>2021-09-11T19:33:17.557</time></trkpt><trkpt lat="55.8026770" lon="49.1101390"><time>2021-09-11T19:33:18.557</time></trkpt><trkpt lat="55.8026780" lon="49.1101620"><time>2021-09-11T19:33:19.557</time></trkpt><trkpt lat="55.8026800" lon="49.1101940"><time>2021-09-11T19:33:20.557</time></trkpt><trkpt lat="55.8026820" lon="49.1102320"><time>2021-09-11T19:33:21.557</time></trkpt><trkpt lat="55.8026820" lon="49.1102740"><time>2021-09-11T19:33:22.557</time></trkpt><trkpt lat="55.8026820" lon="49.1103160"><time>2021-09-11T19:33:23.557</time></trkpt><trkpt lat="55.8026790" lon="49.1103560"><time>2021-09-11T19:33:24.557</time></trkpt><trkpt lat="55.8026770" lon="49.1104000"><time>2021-09-11T19:33:25.557</time></trkpt><trkpt lat="55.8026740" lon="49.1104460"><time>2021-09-11T19:33:26.557</time></trkpt><trkpt lat="55.8026710" lon="49.1104920"><time>2021-09-11T19:33:27.557</time></trkpt><trkpt lat="55.8026680" lon="49.1105380"><time>2021-09-11T19:33:28.557</time></trkpt><trkpt lat="55.8026670" lon="49.1105850"><time>2021-09-11T19:33:29.557</time></trkpt><trkpt lat="55.8026660" lon="49.1106290"><time>2021-09-11T19:33:30.557</time></trkpt><trkpt lat="55.8026650" lon="49.1106770"><time>2021-09-11T19:33:31.557</time></trkpt><trkpt lat="55.8026660" lon="49.1107210"><time>2021-09-11T19:33:32.557</time></trkpt><trkpt lat="55.8026660" lon="49.1107690"><time>2021-09-11T19:33:33.557</time></trkpt><trkpt lat="55.8026660" lon="49.1108140"><time>2021-09-11T19:33:34.557</time></trkpt><trkpt lat="55.8026660" lon="49.1108590"><time>2021-09-11T19:33:35.557</time></trkpt><trkpt lat="55.8026670" lon="49.1109060"><time>2021-09-11T19:33:36.557</time></trkpt><trkpt lat="55.8026690" lon="49.1109560"><time>2021-09-11T19:33:37.557</time></trkpt><trkpt lat="55.8026690" lon="49.1110060"><time>2021-09-11T19:33:38.557</time></trkpt><trkpt lat="55.8026700" lon="49.1110520"><time>2021-09-11T19:33:39.557</time></trkpt><trkpt lat="55.8026700" lon="49.1110980"><time>2021-09-11T19:33:40.557</time></trkpt><trkpt lat="55.8026680" lon="49.1111460"><time>2021-09-11T19:33:41.557</time></trkpt><trkpt lat="55.8026660" lon="49.1111950"><time>2021-09-11T19:33:42.557</time></trkpt><trkpt lat="55.8026640" lon="49.1112430"><time>2021-09-11T19:33:43.557</time></trkpt><trkpt lat="55.8026630" lon="49.1112920"><time>2021-09-11T19:33:44.557</time></trkpt><trkpt lat="55.8026610" lon="49.1113370"><time>2021-09-11T19:33:45.557</time></trkpt><trkpt lat="55.8026600" lon="49.1114020"><time>2021-09-11T19:33:47.557</time></trkpt><trkpt lat="55.8026600" lon="49.1114250"><time>2021-09-11T19:33:47.557</time></trkpt><trkpt lat="55.8026600" lon="49.1114710"><time>2021-09-11T19:33:48.557</time></trkpt><trkpt lat="55.8026590" lon="49.1115190"><time>2021-09-11T19:33:49.557</time></trkpt><trkpt lat="55.8026590" lon="49.1115640"><time>2021-09-11T19:33:50.557</time></trkpt><trkpt lat="55.8026590" lon="49.1116100"><time>2021-09-11T19:33:51.557</time></trkpt><trkpt lat="55.8026600" lon="49.1116830"><time>2021-09-11T19:33:53.557</time></trkpt><trkpt lat="55.8026600" lon="49.1117060"><time>2021-09-11T19:33:53.557</time></trkpt><trkpt lat="55.8026610" lon="49.1117530"><time>2021-09-11T19:33:54.557</time></trkpt><trkpt lat="55.8026620" lon="49.1117970"><time>2021-09-11T19:33:55.557</time></trkpt><trkpt lat="55.8026660" lon="49.1118660"><time>2021-09-11T19:33:57.557</time></trkpt><trkpt lat="55.8026670" lon="49.1118900"><time>2021-09-11T19:33:57.557</time></trkpt><trkpt lat="55.8026720" lon="49.1119360"><time>2021-09-11T19:33:58.557</time></trkpt><trkpt lat="55.8026770" lon="49.1119810"><time>2021-09-11T19:33:59.557</time></trkpt><trkpt lat="55.8026830" lon="49.1120240"><time>2021-09-11T19:34:00.557</time></trkpt><trkpt lat="55.8026880" lon="49.1120640"><time>2021-09-11T19:34:01.557</time></trkpt><trkpt lat="55.8026960" lon="49.1121080"><time>2021-09-11T19:34:02.557</time></trkpt><trkpt lat="55.8027030" lon="49.1121500"><time>2021-09-11T19:34:03.557</time></trkpt><trkpt lat="55.8027090" lon="49.1121900"><time>2021-09-11T19:34:04.557</time></trkpt><trkpt lat="55.8027170" lon="49.1122320"><time>2021-09-11T19:34:05.557</time></trkpt><trkpt lat="55.8027250" lon="49.1122750"><time>2021-09-11T19:34:06.557</time></trkpt><trkpt lat="55.8027330" lon="49.1123190"><time>2021-09-11T19:34:07.557</time></trkpt><trkpt lat="55.8027410" lon="49.1123630"><time>2021-09-11T19:34:08.557</time></trkpt><trkpt lat="55.8027480" lon="49.1124070"><time>2021-09-11T19:34:09.557</time></trkpt><trkpt lat="55.8027560" lon="49.1124450"><time>2021-09-11T19:34:09.557</time></trkpt><trkpt lat="55.8027670" lon="49.1124870"><time>2021-09-11T19:34:10.557</time></trkpt><trkpt lat="55.8027770" lon="49.1125290"><time>2021-09-11T19:34:11.557</time></trkpt><trkpt lat="55.8027880" lon="49.1125910"><time>2021-09-11T19:34:13.557</time></trkpt><trkpt lat="55.8027920" lon="49.1126100"><time>2021-09-11T19:34:13.557</time></trkpt><trkpt lat="55.8028000" lon="49.1126510"><time>2021-09-11T19:34:14.557</time></trkpt><trkpt lat="55.8028080" lon="49.1126910"><time>2021-09-11T19:34:15.557</time></trkpt><trkpt lat="55.8028150" lon="49.1127310"><time>2021-09-11T19:34:16.557</time></trkpt><trkpt lat="55.8028240" lon="49.1127740"><time>2021-09-11T19:34:17.557</time></trkpt><trkpt lat="55.8028380" lon="49.1128350"><time>2021-09-11T19:34:19.557</time></trkpt><trkpt lat="55.8028420" lon="49.1128540"><time>2021-09-11T19:34:19.557</time></trkpt><trkpt lat="55.8028520" lon="49.1128930"><time>2021-09-11T19:34:20.557</time></trkpt><trkpt lat="55.8028640" lon="49.1129350"><time>2021-09-11T19:34:21.557</time></trkpt><trkpt lat="55.8028750" lon="49.1129780"><time>2021-09-11T19:34:22.557</time></trkpt><trkpt lat="55.8028880" lon="49.1130190"><time>2021-09-11T19:34:23.557</time></trkpt><trkpt lat="55.8029000" lon="49.1130560"><time>2021-09-11T19:34:24.557</time></trkpt><trkpt lat="55.8029120" lon="49.1130950"><time>2021-09-11T19:34:25.557</time></trkpt><trkpt lat="55.8029250" lon="49.1131340"><time>2021-09-11T19:34:26.557</time></trkpt><trkpt lat="55.8029390" lon="49.1131730"><time>2021-09-11T19:34:27.557</time></trkpt><trkpt lat="55.8029540" lon="49.1132080"><time>2021-09-11T19:34:28.557</time></trkpt><trkpt lat="55.8029680" lon="49.1132440"><time>2021-09-11T19:34:29.557</time></trkpt><trkpt lat="55.8029800" lon="49.1132850"><time>2021-09-11T19:34:30.557</time></trkpt><trkpt lat="55.8029920" lon="49.1133260"><time>2021-09-11T19:34:31.557</time></trkpt><trkpt lat="55.8030030" lon="49.1133660"><time>2021-09-11T19:34:32.557</time></trkpt><trkpt lat="55.8030140" lon="49.1134050"><time>2021-09-11T19:34:33.557</time></trkpt><trkpt lat="55.8030240" lon="49.1134430"><time>2021-09-11T19:34:35.557</time></trkpt><trkpt lat="55.8030350" lon="49.1134830"><time>2021-09-11T19:34:36.557</time></trkpt><trkpt lat="55.8030460" lon="49.1135230"><time>2021-09-11T19:34:36.557</time></trkpt><trkpt lat="55.8030560" lon="49.1135640"><time>2021-09-11T19:34:37.557</time></trkpt><trkpt lat="55.8030640" lon="49.1136040"><time>2021-09-11T19:34:38.557</time></trkpt><trkpt lat="55.8030750" lon="49.1136470"><time>2021-09-11T19:34:39.557</time></trkpt><trkpt lat="55.8030900" lon="49.1137070"><time>2021-09-11T19:34:41.557</time></trkpt><trkpt lat="55.8030940" lon="49.1137280"><time>2021-09-11T19:34:41.557</time></trkpt><trkpt lat="55.8031030" lon="49.1137660"><time>2021-09-11T19:34:42.557</time></trkpt><trkpt lat="55.8031120" lon="49.1138010"><time>2021-09-11T19:34:43.557</time></trkpt><trkpt lat="55.8031180" lon="49.1138400"><time>2021-09-11T19:34:44.557</time></trkpt><trkpt lat="55.8031270" lon="49.1138800"><time>2021-09-11T19:34:45.557</time></trkpt><trkpt lat="55.8031370" lon="49.1139220"><time>2021-09-11T19:34:46.557</time></trkpt><trkpt lat="55.8031480" lon="49.1139630"><time>2021-09-11T19:34:47.557</time></trkpt><trkpt lat="55.8031590" lon="49.1140030"><time>2021-09-11T19:34:48.557</time></trkpt><trkpt lat="55.8031690" lon="49.1140400"><time>2021-09-11T19:34:49.557</time></trkpt><trkpt lat="55.8031850" lon="49.1141010"><time>2021-09-11T19:34:51.557</time></trkpt><trkpt lat="55.8031900" lon="49.1141230"><time>2021-09-11T19:34:51.557</time></trkpt><trkpt lat="55.8031990" lon="49.1141680"><time>2021-09-11T19:34:52.557</time></trkpt><trkpt lat="55.8032090" lon="49.1142120"><time>2021-09-11T19:34:53.557</time></trkpt><trkpt lat="55.8032230" lon="49.1142770"><time>2021-09-11T19:34:55.557</time></trkpt><trkpt lat="55.8032270" lon="49.1142990"><time>2021-09-11T19:34:55.557</time></trkpt><trkpt lat="55.8032370" lon="49.1143430"><time>2021-09-11T19:34:56.557</time></trkpt><trkpt lat="55.8032450" lon="49.1143860"><time>2021-09-11T19:34:57.557</time></trkpt><trkpt lat="55.8032530" lon="49.1144300"><time>2021-09-11T19:34:58.557</time></trkpt><trkpt lat="55.8032620" lon="49.1144740"><time>2021-09-11T19:34:59.557</time></trkpt><trkpt lat="55.8032710" lon="49.1145180"><time>2021-09-11T19:35:00.557</time></trkpt><trkpt lat="55.8032810" lon="49.1145610"><time>2021-09-11T19:35:01.557</time></trkpt><trkpt lat="55.8032910" lon="49.1146050"><time>2021-09-11T19:35:02.557</time></trkpt><trkpt lat="55.8033020" lon="49.1146480"><time>2021-09-11T19:35:03.557</time></trkpt><trkpt lat="55.8033130" lon="49.1146900"><time>2021-09-11T19:35:04.557</time></trkpt><trkpt lat="55.8033250" lon="49.1147310"><time>2021-09-11T19:35:05.557</time></trkpt><trkpt lat="55.8033360" lon="49.1147740"><time>2021-09-11T19:35:06.557</time></trkpt><trkpt lat="55.8033470" lon="49.1148160"><time>2021-09-11T19:35:07.557</time></trkpt><trkpt lat="55.8033570" lon="49.1148580"><time>2021-09-11T19:35:08.557</time></trkpt><trkpt lat="55.8033670" lon="49.1148990"><time>2021-09-11T19:35:09.557</time></trkpt><trkpt lat="55.8033770" lon="49.1149390"><time>2021-09-11T19:35:10.557</time></trkpt><trkpt lat="55.8033930" lon="49.1150000"><time>2021-09-11T19:35:12.557</time></trkpt><trkpt lat="55.8033990" lon="49.1150210"><time>2021-09-11T19:35:12.557</time></trkpt><trkpt lat="55.8034110" lon="49.1150610"><time>2021-09-11T19:35:13.557</time></trkpt><trkpt lat="55.8034220" lon="49.1151010"><time>2021-09-11T19:35:14.557</time></trkpt><trkpt lat="55.8034330" lon="49.1151410"><time>2021-09-11T19:35:15.557</time></trkpt><trkpt lat="55.8034440" lon="49.1151820"><time>2021-09-11T19:35:16.557</time></trkpt><trkpt lat="55.8034620" lon="49.1152450"><time>2021-09-11T19:35:18.557</time></trkpt><trkpt lat="55.8034680" lon="49.1152660"><time>2021-09-11T19:35:18.557</time></trkpt><trkpt lat="55.8034780" lon="49.1153080"><time>2021-09-11T19:35:19.557</time></trkpt><trkpt lat="55.8034880" lon="49.1153480"><time>2021-09-11T19:35:20.557</time></trkpt><trkpt lat="55.8035000" lon="49.1153890"><time>2021-09-11T19:35:21.557</time></trkpt><trkpt lat="55.8035120" lon="49.1154300"><time>2021-09-11T19:35:22.557</time></trkpt><trkpt lat="55.8035250" lon="49.1154700"><time>2021-09-11T19:35:23.557</time></trkpt><trkpt lat="55.8035370" lon="49.1155110"><time>2021-09-11T19:35:24.557</time></trkpt><trkpt lat="55.8035480" lon="49.1155530"><time>2021-09-11T19:35:25.557</time></trkpt><trkpt lat="55.8035580" lon="49.1155960"><time>2021-09-11T19:35:26.557</time></trkpt><trkpt lat="55.8035680" lon="49.1156380"><time>2021-09-11T19:35:27.557</time></trkpt><trkpt lat="55.8035770" lon="49.1156810"><time>2021-09-11T19:35:28.557</time></trkpt><trkpt lat="55.8035870" lon="49.1157220"><time>2021-09-11T19:35:29.557</time></trkpt><trkpt lat="55.8035960" lon="49.1157610"><time>2021-09-11T19:35:30.557</time></trkpt><trkpt lat="55.8036030" lon="49.1158000"><time>2021-09-11T19:35:31.557</time></trkpt><trkpt lat="55.8036110" lon="49.1158390"><time>2021-09-11T19:35:32.557</time></trkpt><trkpt lat="55.8036200" lon="49.1158790"><time>2021-09-11T19:35:34.557</time></trkpt><trkpt lat="55.8036280" lon="49.1159190"><time>2021-09-11T19:35:35.557</time></trkpt><trkpt lat="55.8036370" lon="49.1159580"><time>2021-09-11T19:35:35.557</time></trkpt><trkpt lat="55.8036450" lon="49.1159960"><time>2021-09-11T19:35:36.557</time></trkpt><trkpt lat="55.8036530" lon="49.1160340"><time>2021-09-11T19:35:37.557</time></trkpt><trkpt lat="55.8036620" lon="49.1160730"><time>2021-09-11T19:35:38.557</time></trkpt><trkpt lat="55.8036750" lon="49.1161320"><time>2021-09-11T19:35:40.557</time></trkpt><trkpt lat="55.8036790" lon="49.1161520"><time>2021-09-11T19:35:40.557</time></trkpt><trkpt lat="55.8036890" lon="49.1161930"><time>2021-09-11T19:35:41.557</time></trkpt><trkpt lat="55.8037000" lon="49.1162310"><time>2021-09-11T19:35:42.557</time></trkpt><trkpt lat="55.8037110" lon="49.1162700"><time>2021-09-11T19:35:43.557</time></trkpt><trkpt lat="55.8037240" lon="49.1163090"><time>2021-09-11T19:35:44.557</time></trkpt><trkpt lat="55.8037420" lon="49.1163680"><time>2021-09-11T19:35:46.557</time></trkpt><trkpt lat="55.8037470" lon="49.1163880"><time>2021-09-11T19:35:46.557</time></trkpt><trkpt lat="55.8037570" lon="49.1164290"><time>2021-09-11T19:35:47.557</time></trkpt><trkpt lat="55.8037690" lon="49.1164690"><time>2021-09-11T19:35:48.557</time></trkpt><trkpt lat="55.8037800" lon="49.1165110"><time>2021-09-11T19:35:49.557</time></trkpt><trkpt lat="55.8037920" lon="49.1165510"><time>2021-09-11T19:35:50.557</time></trkpt><trkpt lat="55.8038090" lon="49.1166100"><time>2021-09-11T19:35:52.557</time></trkpt><trkpt lat="55.8038150" lon="49.1166300"><time>2021-09-11T19:35:52.557</time></trkpt><trkpt lat="55.8038260" lon="49.1166700"><time>2021-09-11T19:35:53.557</time></trkpt><trkpt lat="55.8038370" lon="49.1167100"><time>2021-09-11T19:35:54.557</time></trkpt><trkpt lat="55.8038480" lon="49.1167520"><time>2021-09-11T19:35:55.557</time></trkpt><trkpt lat="55.8038580" lon="49.1167940"><time>2021-09-11T19:35:56.557</time></trkpt><trkpt lat="55.8038670" lon="49.1168350"><time>2021-09-11T19:35:57.557</time></trkpt><trkpt lat="55.8038770" lon="49.1168770"><time>2021-09-11T19:35:58.557</time></trkpt><trkpt lat="55.8038930" lon="49.1169390"><time>2021-09-11T19:36:00.557</time></trkpt><trkpt lat="55.8038980" lon="49.1169590"><time>2021-09-11T19:36:00.557</time></trkpt><trkpt lat="55.8039110" lon="49.1170010"><time>2021-09-11T19:36:01.557</time></trkpt><trkpt lat="55.8039220" lon="49.1170420"><time>2021-09-11T19:36:02.557</time></trkpt><trkpt lat="55.8039340" lon="49.1170830"><time>2021-09-11T19:36:03.557</time></trkpt><trkpt lat="55.8039470" lon="49.1171220"><time>2021-09-11T19:36:04.557</time></trkpt><trkpt lat="55.8039600" lon="49.1171620"><time>2021-09-11T19:36:05.557</time></trkpt><trkpt lat="55.8039720" lon="49.1172040"><time>2021-09-11T19:36:06.557</time></trkpt><trkpt lat="55.8039850" lon="49.1172460"><time>2021-09-11T19:36:07.557</time></trkpt><trkpt lat="55.8040000" lon="49.1172900"><time>2021-09-11T19:36:08.557</time></trkpt><trkpt lat="55.8040120" lon="49.1173340"><time>2021-09-11T19:36:09.557</time></trkpt><trkpt lat="55.8040250" lon="49.1173760"><time>2021-09-11T19:36:10.557</time></trkpt><trkpt lat="55.8040380" lon="49.1174180"><time>2021-09-11T19:36:11.557</time></trkpt><trkpt lat="55.8040490" lon="49.1174580"><time>2021-09-11T19:36:12.557</time></trkpt><trkpt lat="55.8040600" lon="49.1174990"><time>2021-09-11T19:36:13.557</time></trkpt><trkpt lat="55.8040710" lon="49.1175410"><time>2021-09-11T19:36:14.557</time></trkpt><trkpt lat="55.8040830" lon="49.1175870"><time>2021-09-11T19:36:15.557</time></trkpt><trkpt lat="55.8040950" lon="49.1176270"><time>2021-09-11T19:36:17.557</time></trkpt><trkpt lat="55.8041050" lon="49.1176670"><time>2021-09-11T19:36:18.557</time></trkpt><trkpt lat="55.8041130" lon="49.1177060"><time>2021-09-11T19:36:18.557</time></trkpt><trkpt lat="55.8041220" lon="49.1177460"><time>2021-09-11T19:36:19.557</time></trkpt><trkpt lat="55.8041310" lon="49.1177860"><time>2021-09-11T19:36:20.557</time></trkpt><trkpt lat="55.8041390" lon="49.1178270"><time>2021-09-11T19:36:21.557</time></trkpt><trkpt lat="55.8041470" lon="49.1178670"><time>2021-09-11T19:36:23.557</time></trkpt><trkpt lat="55.8041540" lon="49.1179070"><time>2021-09-11T19:36:24.557</time></trkpt><trkpt lat="55.8041610" lon="49.1179480"><time>2021-09-11T19:36:24.557</time></trkpt><trkpt lat="55.8041670" lon="49.1179900"><time>2021-09-11T19:36:25.557</time></trkpt><trkpt lat="55.8041740" lon="49.1180330"><time>2021-09-11T19:36:26.557</time></trkpt><trkpt lat="55.8041830" lon="49.1180750"><time>2021-09-11T19:36:27.557</time></trkpt><trkpt lat="55.8041910" lon="49.1181180"><time>2021-09-11T19:36:28.557</time></trkpt><trkpt lat="55.8041990" lon="49.1181610"><time>2021-09-11T19:36:29.557</time></trkpt><trkpt lat="55.8042070" lon="49.1182040"><time>2021-09-11T19:36:30.557</time></trkpt><trkpt lat="55.8042140" lon="49.1182460"><time>2021-09-11T19:36:31.557</time></trkpt><trkpt lat="55.8042210" lon="49.1182900"><time>2021-09-11T19:36:32.557</time></trkpt><trkpt lat="55.8042290" lon="49.1183350"><time>2021-09-11T19:36:33.557</time></trkpt><trkpt lat="55.8042360" lon="49.1183800"><time>2021-09-11T19:36:34.557</time></trkpt><trkpt lat="55.8042430" lon="49.1184260"><time>2021-09-11T19:36:35.557</time></trkpt><trkpt lat="55.8042490" lon="49.1184730"><time>2021-09-11T19:36:36.557</time></trkpt><trkpt lat="55.8042550" lon="49.1185170"><time>2021-09-11T19:36:37.557</time></trkpt><trkpt lat="55.8042600" lon="49.1185610"><time>2021-09-11T19:36:38.557</time></trkpt><trkpt lat="55.8042650" lon="49.1186030"><time>2021-09-11T19:36:39.557</time></trkpt><trkpt lat="55.8042710" lon="49.1186460"><time>2021-09-11T19:36:40.557</time></trkpt><trkpt lat="55.8042750" lon="49.1186880"><time>2021-09-11T19:36:41.557</time></trkpt><trkpt lat="55.8042790" lon="49.1187310"><time>2021-09-11T19:36:42.557</time></trkpt><trkpt lat="55.8042830" lon="49.1187740"><time>2021-09-11T19:36:43.557</time></trkpt><trkpt lat="55.8042860" lon="49.1188190"><time>2021-09-11T19:36:44.557</time></trkpt><trkpt lat="55.8042880" lon="49.1188640"><time>2021-09-11T19:36:45.557</time></trkpt><trkpt lat="55.8042910" lon="49.1189060"><time>2021-09-11T19:36:46.557</time></trkpt><trkpt lat="55.8042950" lon="49.1189700"><time>2021-09-11T19:36:48.557</time></trkpt><trkpt lat="55.8042950" lon="49.1189910"><time>2021-09-11T19:36:48.557</time></trkpt><trkpt lat="55.8042960" lon="49.1190330"><time>2021-09-11T19:36:49.557</time></trkpt><trkpt lat="55.8042990" lon="49.1190980"><time>2021-09-11T19:36:51.557</time></trkpt><trkpt lat="55.8043000" lon="49.1191200"><time>2021-09-11T19:36:51.557</time></trkpt><trkpt lat="55.8043030" lon="49.1191640"><time>2021-09-11T19:36:52.557</time></trkpt><trkpt lat="55.8043030" lon="49.1192050"><time>2021-09-11T19:36:53.557</time></trkpt><trkpt lat="55.8043050" lon="49.1192650"><time>2021-09-11T19:36:55.557</time></trkpt><trkpt lat="55.8043050" lon="49.1192860"><time>2021-09-11T19:36:55.557</time></trkpt><trkpt lat="55.8043050" lon="49.1193280"><time>2021-09-11T19:36:56.557</time></trkpt><trkpt lat="55.8043060" lon="49.1193700"><time>2021-09-11T19:36:57.557</time></trkpt><trkpt lat="55.8043050" lon="49.1194130"><time>2021-09-11T19:36:58.557</time></trkpt><trkpt lat="55.8043040" lon="49.1194570"><time>2021-09-11T19:36:59.557</time></trkpt><trkpt lat="55.8043030" lon="49.1195240"><time>2021-09-11T19:37:01.557</time></trkpt><trkpt lat="55.8043020" lon="49.1195460"><time>2021-09-11T19:37:01.557</time></trkpt><trkpt lat="55.8043000" lon="49.1195910"><time>2021-09-11T19:37:02.557</time></trkpt><trkpt lat="55.8042990" lon="49.1196370"><time>2021-09-11T19:37:03.557</time></trkpt><trkpt lat="55.8042970" lon="49.1196820"><time>2021-09-11T19:37:04.557</time></trkpt><trkpt lat="55.8042960" lon="49.1197270"><time>2021-09-11T19:37:05.557</time></trkpt><trkpt lat="55.8042960" lon="49.1197710"><time>2021-09-11T19:37:06.557</time></trkpt><trkpt lat="55.8042950" lon="49.1198150"><time>2021-09-11T19:37:07.557</time></trkpt><trkpt lat="55.8042940" lon="49.1198600"><time>2021-09-11T19:37:08.557</time></trkpt><trkpt lat="55.8042930" lon="49.1199050"><time>2021-09-11T19:37:09.557</time></trkpt><trkpt lat="55.8042920" lon="49.1199500"><time>2021-09-11T19:37:10.557</time></trkpt><trkpt lat="55.8042910" lon="49.1199940"><time>2021-09-11T19:37:11.557</time></trkpt><trkpt lat="55.8042900" lon="49.1200390"><time>2021-09-11T19:37:12.557</time></trkpt><trkpt lat="55.8042880" lon="49.1200830"><time>2021-09-11T19:37:13.557</time></trkpt><trkpt lat="55.8042880" lon="49.1201280"><time>2021-09-11T19:37:14.557</time></trkpt><trkpt lat="55.8042870" lon="49.1201730"><time>2021-09-11T19:37:15.557</time></trkpt><trkpt lat="55.8042870" lon="49.1202190"><time>2021-09-11T19:37:16.557</time></trkpt><trkpt lat="55.8042870" lon="49.1202630"><time>2021-09-11T19:37:17.557</time></trkpt><trkpt lat="55.8042870" lon="49.1203080"><time>2021-09-11T19:37:18.557</time></trkpt><trkpt lat="55.8042880" lon="49.1203520"><time>2021-09-11T19:37:19.557</time></trkpt><trkpt lat="55.8042870" lon="49.1203980"><time>2021-09-11T19:37:20.557</time></trkpt><trkpt lat="55.8042850" lon="49.1204660"><time>2021-09-11T19:37:22.557</time></trkpt><trkpt lat="55.8042840" lon="49.1204880"><time>2021-09-11T19:37:22.557</time></trkpt><trkpt lat="55.8042830" lon="49.1205330"><time>2021-09-11T19:37:23.557</time></trkpt><trkpt lat="55.8042810" lon="49.1205770"><time>2021-09-11T19:37:24.557</time></trkpt><trkpt lat="55.8042790" lon="49.1206200"><time>2021-09-11T19:37:25.557</time></trkpt><trkpt lat="55.8042770" lon="49.1206630"><time>2021-09-11T19:37:26.557</time></trkpt><trkpt lat="55.8042750" lon="49.1207280"><time>2021-09-11T19:37:28.557</time></trkpt><trkpt lat="55.8042740" lon="49.1207500"><time>2021-09-11T19:37:28.557</time></trkpt><trkpt lat="55.8042740" lon="49.1207940"><time>2021-09-11T19:37:29.557</time></trkpt><trkpt lat="55.8042730" lon="49.1208390"><time>2021-09-11T19:37:30.557</time></trkpt><trkpt lat="55.8042720" lon="49.1208840"><time>2021-09-11T19:37:31.557</time></trkpt><trkpt lat="55.8042710" lon="49.1209280"><time>2021-09-11T19:37:32.557</time></trkpt><trkpt lat="55.8042680" lon="49.1209720"><time>2021-09-11T19:37:33.557</time></trkpt><trkpt lat="55.8042650" lon="49.1210150"><time>2021-09-11T19:37:34.557</time></trkpt><trkpt lat="55.8042610" lon="49.1210580"><time>2021-09-11T19:37:35.557</time></trkpt><trkpt lat="55.8042580" lon="49.1211030"><time>2021-09-11T19:37:36.557</time></trkpt><trkpt lat="55.8042550" lon="49.1211500"><time>2021-09-11T19:37:37.557</time></trkpt><trkpt lat="55.8042510" lon="49.1211950"><time>2021-09-11T19:37:38.557</time></trkpt><trkpt lat="55.8042470" lon="49.1212410"><time>2021-09-11T19:37:39.557</time></trkpt><trkpt lat="55.8042440" lon="49.1212860"><time>2021-09-11T19:37:40.557</time></trkpt><trkpt lat="55.8042410" lon="49.1213310"><time>2021-09-11T19:37:41.557</time></trkpt><trkpt lat="55.8042370" lon="49.1213770"><time>2021-09-11T19:37:42.557</time></trkpt><trkpt lat="55.8042330" lon="49.1214220"><time>2021-09-11T19:37:43.557</time></trkpt><trkpt lat="55.8042270" lon="49.1214740"><time>2021-09-11T19:37:44.557</time></trkpt><trkpt lat="55.8042200" lon="49.1215260"><time>2021-09-11T19:37:45.557</time></trkpt><trkpt lat="55.8042130" lon="49.1215820"><time>2021-09-11T19:37:46.557</time></trkpt><trkpt lat="55.8042080" lon="49.1216310"><time>2021-09-11T19:37:47.557</time></trkpt><trkpt lat="55.8042060" lon="49.1216740"><time>2021-09-11T19:37:48.557</time></trkpt><trkpt lat="55.8042030" lon="49.1217180"><time>2021-09-11T19:37:49.557</time></trkpt><trkpt lat="55.8042000" lon="49.1217610"><time>2021-09-11T19:37:50.557</time></trkpt><trkpt lat="55.8041960" lon="49.1218300"><time>2021-09-11T19:37:52.557</time></trkpt><trkpt lat="55.8041940" lon="49.1218540"><time>2021-09-11T19:37:52.557</time></trkpt><trkpt lat="55.8041920" lon="49.1219010"><time>2021-09-11T19:37:53.557</time></trkpt><trkpt lat="55.8041900" lon="49.1219460"><time>2021-09-11T19:37:54.557</time></trkpt><trkpt lat="55.8041870" lon="49.1220130"><time>2021-09-11T19:37:56.557</time></trkpt><trkpt lat="55.8041860" lon="49.1220350"><time>2021-09-11T19:37:56.557</time></trkpt><trkpt lat="55.8041850" lon="49.1220800"><time>2021-09-11T19:37:57.557</time></trkpt><trkpt lat="55.8041840" lon="49.1221250"><time>2021-09-11T19:37:58.557</time></trkpt><trkpt lat="55.8041840" lon="49.1221920"><time>2021-09-11T19:38:00.557</time></trkpt><trkpt lat="55.8041840" lon="49.1222150"><time>2021-09-11T19:38:00.557</time></trkpt><trkpt lat="55.8041820" lon="49.1222600"><time>2021-09-11T19:38:01.557</time></trkpt><trkpt lat="55.8041800" lon="49.1223060"><time>2021-09-11T19:38:02.557</time></trkpt><trkpt lat="55.8041780" lon="49.1223520"><time>2021-09-11T19:38:03.557</time></trkpt><trkpt lat="55.8041740" lon="49.1223980"><time>2021-09-11T19:38:04.557</time></trkpt><trkpt lat="55.8041700" lon="49.1224660"><time>2021-09-11T19:38:06.557</time></trkpt><trkpt lat="55.8041690" lon="49.1224890"><time>2021-09-11T19:38:06.557</time></trkpt><trkpt lat="55.8041660" lon="49.1225360"><time>2021-09-11T19:38:07.557</time></trkpt><trkpt lat="55.8041630" lon="49.1225820"><time>2021-09-11T19:38:08.557</time></trkpt><trkpt lat="55.8041600" lon="49.1226280"><time>2021-09-11T19:38:09.557</time></trkpt><trkpt lat="55.8041570" lon="49.1226750"><time>2021-09-11T19:38:10.557</time></trkpt><trkpt lat="55.8041540" lon="49.1227220"><time>2021-09-11T19:38:11.557</time></trkpt><trkpt lat="55.8041510" lon="49.1227680"><time>2021-09-11T19:38:12.557</time></trkpt><trkpt lat="55.8041470" lon="49.1228140"><time>2021-09-11T19:38:13.557</time></trkpt><trkpt lat="55.8041430" lon="49.1228580"><time>2021-09-11T19:38:14.557</time></trkpt><trkpt lat="55.8041400" lon="49.1229030"><time>2021-09-11T19:38:15.557</time></trkpt><trkpt lat="55.8041380" lon="49.1229480"><time>2021-09-11T19:38:16.557</time></trkpt><trkpt lat="55.8041360" lon="49.1229920"><time>2021-09-11T19:38:17.557</time></trkpt><trkpt lat="55.8041340" lon="49.1230350"><time>2021-09-11T19:38:18.557</time></trkpt><trkpt lat="55.8041310" lon="49.1230770"><time>2021-09-11T19:38:19.557</time></trkpt><trkpt lat="55.8041260" lon="49.1231200"><time>2021-09-11T19:38:20.557</time></trkpt><trkpt lat="55.8041220" lon="49.1231630"><time>2021-09-11T19:38:21.557</time></trkpt><trkpt lat="55.8041180" lon="49.1232060"><time>2021-09-11T19:38:22.557</time></trkpt><trkpt lat="55.8041140" lon="49.1232480"><time>2021-09-11T19:38:23.557</time></trkpt><trkpt lat="55.8041100" lon="49.1232920"><time>2021-09-11T19:38:24.557</time></trkpt><trkpt lat="55.8041050" lon="49.1233390"><time>2021-09-11T19:38:24.557</time></trkpt><trkpt lat="55.8041000" lon="49.1233870"><time>2021-09-11T19:38:25.557</time></trkpt><trkpt lat="55.8040960" lon="49.1234350"><time>2021-09-11T19:38:26.557</time></trkpt><trkpt lat="55.8040930" lon="49.1234810"><time>2021-09-11T19:38:27.557</time></trkpt><trkpt lat="55.8040900" lon="49.1235260"><time>2021-09-11T19:38:28.557</time></trkpt><trkpt lat="55.8040870" lon="49.1237040"><time>2021-09-11T19:38:30.557</time></trkpt><trkpt lat="55.8040860" lon="49.1237140"><time>2021-09-11T19:38:31.557</time></trkpt><trkpt lat="55.8040860" lon="49.1237360"><time>2021-09-11T19:38:32.557</time></trkpt><trkpt lat="55.8040860" lon="49.1237660"><time>2021-09-11T19:38:33.557</time></trkpt><trkpt lat="55.8040840" lon="49.1238030"><time>2021-09-11T19:38:34.557</time></trkpt><trkpt lat="55.8040830" lon="49.1238430"><time>2021-09-11T19:38:35.557</time></trkpt><trkpt lat="55.8040820" lon="49.1238840"><time>2021-09-11T19:38:36.557</time></trkpt><trkpt lat="55.8040780" lon="49.1239270"><time>2021-09-11T19:38:37.557</time></trkpt><trkpt lat="55.8040770" lon="49.1239670"><time>2021-09-11T19:38:38.557</time></trkpt><trkpt lat="55.8040760" lon="49.1240080"><time>2021-09-11T19:38:39.557</time></trkpt><trkpt lat="55.8040730" lon="49.1240510"><time>2021-09-11T19:38:40.557</time></trkpt><trkpt lat="55.8040690" lon="49.1240930"><time>2021-09-11T19:38:41.557</time></trkpt><trkpt lat="55.8040660" lon="49.1241360"><time>2021-09-11T19:38:42.557</time></trkpt><trkpt lat="55.8040610" lon="49.1241800"><time>2021-09-11T19:38:43.557</time></trkpt><trkpt lat="55.8040570" lon="49.1242220"><time>2021-09-11T19:38:44.557</time></trkpt><trkpt lat="55.8040530" lon="49.1242650"><time>2021-09-11T19:38:45.557</time></trkpt><trkpt lat="55.8040500" lon="49.1243080"><time>2021-09-11T19:38:46.557</time></trkpt><trkpt lat="55.8040470" lon="49.1243490"><time>2021-09-11T19:38:47.557</time></trkpt><trkpt lat="55.8040450" lon="49.1243920"><time>2021-09-11T19:38:48.557</time></trkpt><trkpt lat="55.8040440" lon="49.1244360"><time>2021-09-11T19:38:49.557</time></trkpt><trkpt lat="55.8040420" lon="49.1244780"><time>2021-09-11T19:38:50.557</time></trkpt><trkpt lat="55.8040400" lon="49.1245220"><time>2021-09-11T19:38:51.557</time></trkpt><trkpt lat="55.8040370" lon="49.1245660"><time>2021-09-11T19:38:52.557</time></trkpt><trkpt lat="55.8040360" lon="49.1246090"><time>2021-09-11T19:38:53.557</time></trkpt><trkpt lat="55.8040350" lon="49.1246510"><time>2021-09-11T19:38:54.557</time></trkpt><trkpt lat="55.8040330" lon="49.1246940"><time>2021-09-11T19:38:55.557</time></trkpt><trkpt lat="55.8040320" lon="49.1247380"><time>2021-09-11T19:38:56.557</time></trkpt><trkpt lat="55.8040320" lon="49.1247820"><time>2021-09-11T19:38:57.557</time></trkpt><trkpt lat="55.8040290" lon="49.1248510"><time>2021-09-11T19:38:59.557</time></trkpt><trkpt lat="55.8040270" lon="49.1248740"><time>2021-09-11T19:38:59.557</time></trkpt><trkpt lat="55.8040250" lon="49.1249200"><time>2021-09-11T19:39:00.557</time></trkpt><trkpt lat="55.8040230" lon="49.1249660"><time>2021-09-11T19:39:01.557</time></trkpt><trkpt lat="55.8040200" lon="49.1250120"><time>2021-09-11T19:39:02.557</time></trkpt><trkpt lat="55.8040170" lon="49.1250530"><time>2021-09-11T19:39:03.557</time></trkpt><trkpt lat="55.8040130" lon="49.1250940"><time>2021-09-11T19:39:04.557</time></trkpt><trkpt lat="55.8040100" lon="49.1251340"><time>2021-09-11T19:39:05.557</time></trkpt><trkpt lat="55.8040060" lon="49.1251750"><time>2021-09-11T19:39:06.557</time></trkpt><trkpt lat="55.8039960" lon="49.1252350"><time>2021-09-11T19:39:08.557</time></trkpt><trkpt lat="55.8039920" lon="49.1252540"><time>2021-09-11T19:39:08.557</time></trkpt><trkpt lat="55.8039820" lon="49.1252910"><time>2021-09-11T19:39:09.557</time></trkpt><trkpt lat="55.8039700" lon="49.1253260"><time>2021-09-11T19:39:10.557</time></trkpt><trkpt lat="55.8039560" lon="49.1253580"><time>2021-09-11T19:39:11.557</time></trkpt><trkpt lat="55.8039410" lon="49.1253870"><time>2021-09-11T19:39:12.557</time></trkpt><trkpt lat="55.8039260" lon="49.1254160"><time>2021-09-11T19:39:13.557</time></trkpt><trkpt lat="55.8039120" lon="49.1254470"><time>2021-09-11T19:39:14.557</time></trkpt><trkpt lat="55.8038950" lon="49.1254970"><time>2021-09-11T19:39:16.557</time></trkpt><trkpt lat="55.8038890" lon="49.1255140"><time>2021-09-11T19:39:16.557</time></trkpt><trkpt lat="55.8038790" lon="49.1255500"><time>2021-09-11T19:39:17.557</time></trkpt><trkpt lat="55.8038670" lon="49.1255870"><time>2021-09-11T19:39:18.557</time></trkpt><trkpt lat="55.8038570" lon="49.1256260"><time>2021-09-11T19:39:19.557</time></trkpt><trkpt lat="55.8038460" lon="49.1256650"><time>2021-09-11T19:39:20.557</time></trkpt><trkpt lat="55.8038350" lon="49.1257250"><time>2021-09-11T19:39:22.557</time></trkpt><trkpt lat="55.8038310" lon="49.1257460"><time>2021-09-11T19:39:22.557</time></trkpt><trkpt lat="55.8038250" lon="49.1257860"><time>2021-09-11T19:39:23.557</time></trkpt><trkpt lat="55.8038190" lon="49.1258280"><time>2021-09-11T19:39:24.557</time></trkpt><trkpt lat="55.8038130" lon="49.1258720"><time>2021-09-11T19:39:25.557</time></trkpt><trkpt lat="55.8038080" lon="49.1259150"><time>2021-09-11T19:39:26.557</time></trkpt><trkpt lat="55.8038030" lon="49.1259560"><time>2021-09-11T19:39:27.557</time></trkpt><trkpt lat="55.8037980" lon="49.1259950"><time>2021-09-11T19:39:28.557</time></trkpt><trkpt lat="55.8037900" lon="49.1260350"><time>2021-09-11T19:39:29.557</time></trkpt><trkpt lat="55.8037820" lon="49.1260690"><time>2021-09-11T19:39:30.557</time></trkpt><trkpt lat="55.8037690" lon="49.1261070"><time>2021-09-11T19:39:32.557</time></trkpt><trkpt lat="55.8037640" lon="49.1261180"><time>2021-09-11T19:39:32.557</time></trkpt><trkpt lat="55.8037530" lon="49.1261390"><time>2021-09-11T19:39:33.557</time></trkpt><trkpt lat="55.8037520" lon="49.1261440"><time>2021-09-11T19:39:34.557</time></trkpt><trkpt lat="55.8037520" lon="49.1261500"><time>2021-09-11T19:39:35.557</time></trkpt><trkpt lat="55.8037510" lon="49.1261550"><time>2021-09-11T19:39:36.557</time></trkpt><trkpt lat="55.8037500" lon="49.1261600"><time>2021-09-11T19:39:37.557</time></trkpt><trkpt lat="55.8037490" lon="49.1261650"><time>2021-09-11T19:39:41.557</time></trkpt><trkpt lat="55.8037490" lon="49.1261710"><time>2021-09-11T19:39:43.557</time></trkpt><trkpt lat="55.8037480" lon="49.1261760"><time>2021-09-11T19:39:45.557</time></trkpt><trkpt lat="55.8037470" lon="49.1261810"><time>2021-09-11T19:39:46.557</time></trkpt><trkpt lat="55.8037460" lon="49.1261860"><time>2021-09-11T19:39:47.557</time></trkpt><trkpt lat="55.8037460" lon="49.1261920"><time>2021-09-11T19:39:48.557</time></trkpt><trkpt lat="55.8037450" lon="49.1261970"><time>2021-09-11T19:39:50.557</time></trkpt><trkpt lat="55.8037440" lon="49.1262020"><time>2021-09-11T19:39:50.557</time></trkpt><trkpt lat="55.8037560" lon="49.1262230"><time>2021-09-11T19:39:51.557</time></trkpt><trkpt lat="55.8037650" lon="49.1262490"><time>2021-09-11T19:39:52.557</time></trkpt><trkpt lat="55.8037700" lon="49.1262790"><time>2021-09-11T19:39:53.557</time></trkpt><trkpt lat="55.8037700" lon="49.1263120"><time>2021-09-11T19:39:54.557</time></trkpt><trkpt lat="55.8037660" lon="49.1263470"><time>2021-09-11T19:39:55.557</time></trkpt><trkpt lat="55.8037610" lon="49.1263790"><time>2021-09-11T19:39:56.557</time></trkpt><trkpt lat="55.8037550" lon="49.1264160"><time>2021-09-11T19:39:57.557</time></trkpt><trkpt lat="55.8037470" lon="49.1264530"><time>2021-09-11T19:39:58.557</time></trkpt><trkpt lat="55.8037360" lon="49.1265080"><time>2021-09-11T19:40:00.557</time></trkpt><trkpt lat="55.8037310" lon="49.1265270"><time>2021-09-11T19:40:00.557</time></trkpt><trkpt lat="55.8037210" lon="49.1265670"><time>2021-09-11T19:40:01.557</time></trkpt><trkpt lat="55.8037100" lon="49.1266060"><time>2021-09-11T19:40:02.557</time></trkpt><trkpt lat="55.8036990" lon="49.1266440"><time>2021-09-11T19:40:03.557</time></trkpt><trkpt lat="55.8036880" lon="49.1266820"><time>2021-09-11T19:40:04.557</time></trkpt><trkpt lat="55.8036760" lon="49.1267190"><time>2021-09-11T19:40:05.557</time></trkpt><trkpt lat="55.8036630" lon="49.1267570"><time>2021-09-11T19:40:06.557</time></trkpt><trkpt lat="55.8036490" lon="49.1267960"><time>2021-09-11T19:40:07.557</time></trkpt><trkpt lat="55.8036370" lon="49.1268340"><time>2021-09-11T19:40:08.557</time></trkpt><trkpt lat="55.8036250" lon="49.1268700"><time>2021-09-11T19:40:09.557</time></trkpt><trkpt lat="55.8036140" lon="49.1269050"><time>2021-09-11T19:40:10.557</time></trkpt><trkpt lat="55.8035940" lon="49.1269580"><time>2021-09-11T19:40:12.557</time></trkpt><trkpt lat="55.8035860" lon="49.1269770"><time>2021-09-11T19:40:12.557</time></trkpt><trkpt lat="55.8035700" lon="49.1270140"><time>2021-09-11T19:40:13.557</time></trkpt><trkpt lat="55.8035510" lon="49.1270520"><time>2021-09-11T19:40:14.557</time></trkpt><trkpt lat="55.8035330" lon="49.1270890"><time>2021-09-11T19:40:15.557</time></trkpt><trkpt lat="55.8035080" lon="49.1271470"><time>2021-09-11T19:40:17.557</time></trkpt><trkpt lat="55.8034990" lon="49.1271650"><time>2021-09-11T19:40:17.557</time></trkpt><trkpt lat="55.8034810" lon="49.1272000"><time>2021-09-11T19:40:18.557</time></trkpt><trkpt lat="55.8034630" lon="49.1272350"><time>2021-09-11T19:40:19.557</time></trkpt><trkpt lat="55.8034440" lon="49.1272710"><time>2021-09-11T19:40:20.557</time></trkpt><trkpt lat="55.8034250" lon="49.1273050"><time>2021-09-11T19:40:21.557</time></trkpt><trkpt lat="55.8033950" lon="49.1273540"><time>2021-09-11T19:40:23.557</time></trkpt><trkpt lat="55.8033850" lon="49.1273690"><time>2021-09-11T19:40:23.557</time></trkpt><trkpt lat="55.8033650" lon="49.1274000"><time>2021-09-11T19:40:24.557</time></trkpt><trkpt lat="55.8033450" lon="49.1274300"><time>2021-09-11T19:40:25.557</time></trkpt><trkpt lat="55.8033260" lon="49.1274590"><time>2021-09-11T19:40:26.557</time></trkpt><trkpt lat="55.8033070" lon="49.1274890"><time>2021-09-11T19:40:27.557</time></trkpt><trkpt lat="55.8032860" lon="49.1275180"><time>2021-09-11T19:40:28.557</time></trkpt><trkpt lat="55.8032650" lon="49.1275490"><time>2021-09-11T19:40:29.557</time></trkpt><trkpt lat="55.8032450" lon="49.1275790"><time>2021-09-11T19:40:30.557</time></trkpt><trkpt lat="55.8032260" lon="49.1276090"><time>2021-09-11T19:40:31.557</time></trkpt><trkpt lat="55.8032080" lon="49.1276360"><time>2021-09-11T19:40:32.557</time></trkpt><trkpt lat="55.8031910" lon="49.1276600"><time>2021-09-11T19:40:33.557</time></trkpt><trkpt lat="55.8031750" lon="49.1276840"><time>2021-09-11T19:40:34.557</time></trkpt><trkpt lat="55.8031590" lon="49.1277070"><time>2021-09-11T19:40:35.557</time></trkpt><trkpt lat="55.8031430" lon="49.1277310"><time>2021-09-11T19:40:36.557</time></trkpt><trkpt lat="55.8031270" lon="49.1277610"><time>2021-09-11T19:40:37.557</time></trkpt><trkpt lat="55.8031130" lon="49.1277950"><time>2021-09-11T19:40:38.557</time></trkpt><trkpt lat="55.8030990" lon="49.1278320"><time>2021-09-11T19:40:39.557</time></trkpt><trkpt lat="55.8030810" lon="49.1278690"><time>2021-09-11T19:40:40.557</time></trkpt><trkpt lat="55.8030610" lon="49.1279040"><time>2021-09-11T19:40:41.557</time></trkpt><trkpt lat="55.8030410" lon="49.1279360"><time>2021-09-11T19:40:42.557</time></trkpt><trkpt lat="55.8030240" lon="49.1279650"><time>2021-09-11T19:40:43.557</time></trkpt><trkpt lat="55.8030080" lon="49.1279910"><time>2021-09-11T19:40:44.557</time></trkpt><trkpt lat="55.8029880" lon="49.1280190"><time>2021-09-11T19:40:45.557</time></trkpt><trkpt lat="55.8029680" lon="49.1280450"><time>2021-09-11T19:40:46.557</time></trkpt><trkpt lat="55.8029470" lon="49.1280690"><time>2021-09-11T19:40:47.557</time></trkpt><trkpt lat="55.8029250" lon="49.1280910"><time>2021-09-11T19:40:48.557</time></trkpt><trkpt lat="55.8029040" lon="49.1281130"><time>2021-09-11T19:40:49.557</time></trkpt><trkpt lat="55.8028730" lon="49.1281420"><time>2021-09-11T19:40:51.557</time></trkpt><trkpt lat="55.8028630" lon="49.1281510"><time>2021-09-11T19:40:51.557</time></trkpt><trkpt lat="55.8028420" lon="49.1281670"><time>2021-09-11T19:40:52.557</time></trkpt><trkpt lat="55.8028200" lon="49.1281830"><time>2021-09-11T19:40:53.557</time></trkpt><trkpt lat="55.8027870" lon="49.1282080"><time>2021-09-11T19:40:55.557</time></trkpt><trkpt lat="55.8027760" lon="49.1282150"><time>2021-09-11T19:40:55.557</time></trkpt><trkpt lat="55.8027530" lon="49.1282330"><time>2021-09-11T19:40:56.557</time></trkpt><trkpt lat="55.8027310" lon="49.1282490"><time>2021-09-11T19:40:57.557</time></trkpt><trkpt lat="55.8026980" lon="49.1282720"><time>2021-09-11T19:40:59.557</time></trkpt><trkpt lat="55.8026870" lon="49.1282790"><time>2021-09-11T19:40:59.557</time></trkpt><trkpt lat="55.8026640" lon="49.1282950"><time>2021-09-11T19:41:00.557</time></trkpt><trkpt lat="55.8026400" lon="49.1283120"><time>2021-09-11T19:41:01.557</time></trkpt><trkpt lat="55.8026160" lon="49.1283290"><time>2021-09-11T19:41:02.557</time></trkpt><trkpt lat="55.8025920" lon="49.1283450"><time>2021-09-11T19:41:03.557</time></trkpt><trkpt lat="55.8025560" lon="49.1283730"><time>2021-09-11T19:41:05.557</time></trkpt><trkpt lat="55.8025440" lon="49.1283820"><time>2021-09-11T19:41:05.557</time></trkpt><trkpt lat="55.8025220" lon="49.1284010"><time>2021-09-11T19:41:06.557</time></trkpt><trkpt lat="55.8025000" lon="49.1284190"><time>2021-09-11T19:41:07.557</time></trkpt><trkpt lat="55.8024780" lon="49.1284380"><time>2021-09-11T19:41:08.557</time></trkpt><trkpt lat="55.8024560" lon="49.1284570"><time>2021-09-11T19:41:09.557</time></trkpt><trkpt lat="55.8024340" lon="49.1284760"><time>2021-09-11T19:41:10.557</time></trkpt><trkpt lat="55.8024110" lon="49.1284960"><time>2021-09-11T19:41:11.557</time></trkpt><trkpt lat="55.8023890" lon="49.1285170"><time>2021-09-11T19:41:12.557</time></trkpt><trkpt lat="55.8023660" lon="49.1285380"><time>2021-09-11T19:41:13.557</time></trkpt><trkpt lat="55.8023430" lon="49.1285610"><time>2021-09-11T19:41:14.557</time></trkpt><trkpt lat="55.8023100" lon="49.1285930"><time>2021-09-11T19:41:16.557</time></trkpt><trkpt lat="55.8022990" lon="49.1286040"><time>2021-09-11T19:41:16.557</time></trkpt><trkpt lat="55.8022800" lon="49.1286270"><time>2021-09-11T19:41:17.557</time></trkpt><trkpt lat="55.8022640" lon="49.1286540"><time>2021-09-11T19:41:18.557</time></trkpt><trkpt lat="55.8022490" lon="49.1286860"><time>2021-09-11T19:41:19.557</time></trkpt><trkpt lat="55.8022360" lon="49.1287220"><time>2021-09-11T19:41:21.557</time></trkpt><trkpt lat="55.8022260" lon="49.1287600"><time>2021-09-11T19:41:22.557</time></trkpt><trkpt lat="55.8022170" lon="49.1287980"><time>2021-09-11T19:41:22.557</time></trkpt><trkpt lat="55.8022090" lon="49.1288360"><time>2021-09-11T19:41:23.557</time></trkpt><trkpt lat="55.8022010" lon="49.1288750"><time>2021-09-11T19:41:24.557</time></trkpt><trkpt lat="55.8021930" lon="49.1289150"><time>2021-09-11T19:41:25.557</time></trkpt><trkpt lat="55.8021850" lon="49.1289570"><time>2021-09-11T19:41:26.557</time></trkpt><trkpt lat="55.8021780" lon="49.1289990"><time>2021-09-11T19:41:27.557</time></trkpt><trkpt lat="55.8021730" lon="49.1290400"><time>2021-09-11T19:41:28.557</time></trkpt><trkpt lat="55.8021670" lon="49.1290840"><time>2021-09-11T19:41:29.557</time></trkpt><trkpt lat="55.8021630" lon="49.1291280"><time>2021-09-11T19:41:30.557</time></trkpt><trkpt lat="55.8021590" lon="49.1291720"><time>2021-09-11T19:41:31.557</time></trkpt><trkpt lat="55.8021560" lon="49.1292150"><time>2021-09-11T19:41:32.557</time></trkpt><trkpt lat="55.8021530" lon="49.1292580"><time>2021-09-11T19:41:33.557</time></trkpt><trkpt lat="55.8021500" lon="49.1293010"><time>2021-09-11T19:41:34.557</time></trkpt><trkpt lat="55.8021470" lon="49.1293450"><time>2021-09-11T19:41:35.557</time></trkpt><trkpt lat="55.8021430" lon="49.1293900"><time>2021-09-11T19:41:36.557</time></trkpt><trkpt lat="55.8021410" lon="49.1294370"><time>2021-09-11T19:41:37.557</time></trkpt><trkpt lat="55.8021410" lon="49.1294840"><time>2021-09-11T19:41:38.557</time></trkpt><trkpt lat="55.8021380" lon="49.1295310"><time>2021-09-11T19:41:39.557</time></trkpt><trkpt lat="55.8021350" lon="49.1295780"><time>2021-09-11T19:41:40.557</time></trkpt><trkpt lat="55.8021310" lon="49.1296250"><time>2021-09-11T19:41:41.557</time></trkpt><trkpt lat="55.8021280" lon="49.1296750"><time>2021-09-11T19:41:42.557</time></trkpt><trkpt lat="55.8021250" lon="49.1297210"><time>2021-09-11T19:41:43.557</time></trkpt><trkpt lat="55.8021220" lon="49.1297680"><time>2021-09-11T19:41:44.557</time></trkpt><trkpt lat="55.8021190" lon="49.1298160"><time>2021-09-11T19:41:45.557</time></trkpt><trkpt lat="55.8021160" lon="49.1298640"><time>2021-09-11T19:41:46.557</time></trkpt><trkpt lat="55.8021130" lon="49.1299130"><time>2021-09-11T19:41:47.557</time></trkpt><trkpt lat="55.8021090" lon="49.1299560"><time>2021-09-11T19:41:48.557</time></trkpt><trkpt lat="55.8021030" lon="49.1300220"><time>2021-09-11T19:41:50.557</time></trkpt><trkpt lat="55.8021010" lon="49.1300440"><time>2021-09-11T19:41:50.557</time></trkpt><trkpt lat="55.8020950" lon="49.1301120"><time>2021-09-11T19:41:52.557</time></trkpt><trkpt lat="55.8020940" lon="49.1301340"><time>2021-09-11T19:41:52.557</time></trkpt><trkpt lat="55.8020930" lon="49.1301810"><time>2021-09-11T19:41:54.557</time></trkpt><trkpt lat="55.8020920" lon="49.1302270"><time>2021-09-11T19:41:55.557</time></trkpt><trkpt lat="55.8020910" lon="49.1302710"><time>2021-09-11T19:41:55.557</time></trkpt><trkpt lat="55.8020910" lon="49.1303150"><time>2021-09-11T19:41:56.557</time></trkpt><trkpt lat="55.8020930" lon="49.1303620"><time>2021-09-11T19:41:57.557</time></trkpt><trkpt lat="55.8020950" lon="49.1304070"><time>2021-09-11T19:41:58.557</time></trkpt><trkpt lat="55.8020940" lon="49.1304750"><time>2021-09-11T19:42:00.557</time></trkpt><trkpt lat="55.8020930" lon="49.1304970"><time>2021-09-11T19:42:00.557</time></trkpt><trkpt lat="55.8020890" lon="49.1305450"><time>2021-09-11T19:42:01.557</time></trkpt><trkpt lat="55.8020850" lon="49.1305900"><time>2021-09-11T19:42:02.557</time></trkpt><trkpt lat="55.8020810" lon="49.1306350"><time>2021-09-11T19:42:03.557</time></trkpt><trkpt lat="55.8020770" lon="49.1306790"><time>2021-09-11T19:42:04.557</time></trkpt><trkpt lat="55.8020750" lon="49.1307230"><time>2021-09-11T19:42:05.557</time></trkpt><trkpt lat="55.8020740" lon="49.1307670"><time>2021-09-11T19:42:06.557</time></trkpt><trkpt lat="55.8020720" lon="49.1308110"><time>2021-09-11T19:42:07.557</time></trkpt><trkpt lat="55.8020710" lon="49.1308550"><time>2021-09-11T19:42:08.557</time></trkpt><trkpt lat="55.8020700" lon="49.1308990"><time>2021-09-11T19:42:09.557</time></trkpt><trkpt lat="55.8020700" lon="49.1309450"><time>2021-09-11T19:42:10.557</time></trkpt><trkpt lat="55.8020700" lon="49.1309900"><time>2021-09-11T19:42:11.557</time></trkpt><trkpt lat="55.8020690" lon="49.1310340"><time>2021-09-11T19:42:12.557</time></trkpt><trkpt lat="55.8020670" lon="49.1310780"><time>2021-09-11T19:42:13.557</time></trkpt><trkpt lat="55.8020650" lon="49.1311220"><time>2021-09-11T19:42:14.557</time></trkpt><trkpt lat="55.8020640" lon="49.1311660"><time>2021-09-11T19:42:15.557</time></trkpt><trkpt lat="55.8020620" lon="49.1312100"><time>2021-09-11T19:42:16.557</time></trkpt><trkpt lat="55.8020620" lon="49.1312520"><time>2021-09-11T19:42:17.557</time></trkpt><trkpt lat="55.8020610" lon="49.1312950"><time>2021-09-11T19:42:18.557</time></trkpt><trkpt lat="55.8020600" lon="49.1313380"><time>2021-09-11T19:42:19.557</time></trkpt><trkpt lat="55.8020590" lon="49.1314010"><time>2021-09-11T19:42:21.557</time></trkpt><trkpt lat="55.8020590" lon="49.1314220"><time>2021-09-11T19:42:21.557</time></trkpt><trkpt lat="55.8020590" lon="49.1314630"><time>2021-09-11T19:42:22.557</time></trkpt><trkpt lat="55.8020580" lon="49.1315050"><time>2021-09-11T19:42:23.557</time></trkpt><trkpt lat="55.8020580" lon="49.1315460"><time>2021-09-11T19:42:24.557</time></trkpt><trkpt lat="55.8020570" lon="49.1315880"><time>2021-09-11T19:42:25.557</time></trkpt><trkpt lat="55.8020550" lon="49.1316500"><time>2021-09-11T19:42:27.557</time></trkpt><trkpt lat="55.8020540" lon="49.1316710"><time>2021-09-11T19:42:27.557</time></trkpt><trkpt lat="55.8020520" lon="49.1317130"><time>2021-09-11T19:42:28.557</time></trkpt><trkpt lat="55.8020490" lon="49.1317530"><time>2021-09-11T19:42:29.557</time></trkpt><trkpt lat="55.8020470" lon="49.1317930"><time>2021-09-11T19:42:30.557</time></trkpt><trkpt lat="55.8020440" lon="49.1318340"><time>2021-09-11T19:42:31.557</time></trkpt><trkpt lat="55.8020410" lon="49.1318750"><time>2021-09-11T19:42:32.557</time></trkpt><trkpt lat="55.8020380" lon="49.1319170"><time>2021-09-11T19:42:33.557</time></trkpt><trkpt lat="55.8020350" lon="49.1319590"><time>2021-09-11T19:42:34.557</time></trkpt><trkpt lat="55.8020330" lon="49.1320020"><time>2021-09-11T19:42:35.557</time></trkpt><trkpt lat="55.8020290" lon="49.1320450"><time>2021-09-11T19:42:36.557</time></trkpt><trkpt lat="55.8020220" lon="49.1321090"><time>2021-09-11T19:42:38.557</time></trkpt><trkpt lat="55.8020190" lon="49.1321300"><time>2021-09-11T19:42:38.557</time></trkpt><trkpt lat="55.8020150" lon="49.1321710"><time>2021-09-11T19:42:39.557</time></trkpt><trkpt lat="55.8020110" lon="49.1322120"><time>2021-09-11T19:42:39.557</time></trkpt><trkpt lat="55.8020080" lon="49.1322530"><time>2021-09-11T19:42:40.557</time></trkpt><trkpt lat="55.8020060" lon="49.1322970"><time>2021-09-11T19:42:41.557</time></trkpt><trkpt lat="55.8020030" lon="49.1323430"><time>2021-09-11T19:42:42.557</time></trkpt><trkpt lat="55.8020000" lon="49.1323950"><time>2021-09-11T19:42:43.557</time></trkpt><trkpt lat="55.8019960" lon="49.1324420"><time>2021-09-11T19:42:44.557</time></trkpt><trkpt lat="55.8019930" lon="49.1324880"><time>2021-09-11T19:42:45.557</time></trkpt><trkpt lat="55.8019910" lon="49.1325340"><time>2021-09-11T19:42:46.557</time></trkpt><trkpt lat="55.8019890" lon="49.1325810"><time>2021-09-11T19:42:47.557</time></trkpt><trkpt lat="55.8019860" lon="49.1326280"><time>2021-09-11T19:42:48.557</time></trkpt><trkpt lat="55.8019850" lon="49.1326740"><time>2021-09-11T19:42:49.557</time></trkpt><trkpt lat="55.8019840" lon="49.1327210"><time>2021-09-11T19:42:50.557</time></trkpt><trkpt lat="55.8019850" lon="49.1327680"><time>2021-09-11T19:42:51.557</time></trkpt><trkpt lat="55.8019880" lon="49.1328130"><time>2021-09-11T19:42:52.557</time></trkpt><trkpt lat="55.8019890" lon="49.1328570"><time>2021-09-11T19:42:53.557</time></trkpt><trkpt lat="55.8019890" lon="49.1329020"><time>2021-09-11T19:42:54.557</time></trkpt><trkpt lat="55.8019880" lon="49.1329470"><time>2021-09-11T19:42:55.557</time></trkpt><trkpt lat="55.8019860" lon="49.1329920"><time>2021-09-11T19:42:56.557</time></trkpt><trkpt lat="55.8019850" lon="49.1330600"><time>2021-09-11T19:42:58.557</time></trkpt><trkpt lat="55.8019850" lon="49.1330830"><time>2021-09-11T19:42:58.557</time></trkpt><trkpt lat="55.8019860" lon="49.1331290"><time>2021-09-11T19:42:59.557</time></trkpt><trkpt lat="55.8019860" lon="49.1331760"><time>2021-09-11T19:43:00.557</time></trkpt><trkpt lat="55.8019860" lon="49.1332210"><time>2021-09-11T19:43:01.557</time></trkpt><trkpt lat="55.8019850" lon="49.1332670"><time>2021-09-11T19:43:02.557</time></trkpt><trkpt lat="55.8019840" lon="49.1333350"><time>2021-09-11T19:43:04.557</time></trkpt><trkpt lat="55.8019840" lon="49.1333570"><time>2021-09-11T19:43:04.557</time></trkpt><trkpt lat="55.8019830" lon="49.1334020"><time>2021-09-11T19:43:05.557</time></trkpt><trkpt lat="55.8019790" lon="49.1334490"><time>2021-09-11T19:43:06.557</time></trkpt><trkpt lat="55.8019770" lon="49.1334920"><time>2021-09-11T19:43:07.557</time></trkpt><trkpt lat="55.8019740" lon="49.1335370"><time>2021-09-11T19:43:08.557</time></trkpt><trkpt lat="55.8019700" lon="49.1335840"><time>2021-09-11T19:43:09.557</time></trkpt><trkpt lat="55.8019670" lon="49.1336320"><time>2021-09-11T19:43:10.557</time></trkpt><trkpt lat="55.8019630" lon="49.1336830"><time>2021-09-11T19:43:11.557</time></trkpt><trkpt lat="55.8019610" lon="49.1337340"><time>2021-09-11T19:43:12.557</time></trkpt><trkpt lat="55.8019610" lon="49.1337850"><time>2021-09-11T19:43:13.557</time></trkpt><trkpt lat="55.8019600" lon="49.1338600"><time>2021-09-11T19:43:15.557</time></trkpt><trkpt lat="55.8019590" lon="49.1338840"><time>2021-09-11T19:43:15.557</time></trkpt><trkpt lat="55.8019570" lon="49.1339330"><time>2021-09-11T19:43:16.557</time></trkpt><trkpt lat="55.8019560" lon="49.1339820"><time>2021-09-11T19:43:17.557</time></trkpt><trkpt lat="55.8019550" lon="49.1340320"><time>2021-09-11T19:43:18.557</time></trkpt><trkpt lat="55.8019520" lon="49.1340820"><time>2021-09-11T19:43:19.557</time></trkpt><trkpt lat="55.8019480" lon="49.1341340"><time>2021-09-11T19:43:20.557</time></trkpt><trkpt lat="55.8019450" lon="49.1341870"><time>2021-09-11T19:43:21.557</time></trkpt><trkpt lat="55.8019420" lon="49.1342380"><time>2021-09-11T19:43:22.557</time></trkpt><trkpt lat="55.8019360" lon="49.1342890"><time>2021-09-11T19:43:23.557</time></trkpt><trkpt lat="55.8019290" lon="49.1343620"><time>2021-09-11T19:43:25.557</time></trkpt><trkpt lat="55.8019270" lon="49.1343850"><time>2021-09-11T19:43:25.557</time></trkpt><trkpt lat="55.8019250" lon="49.1344320"><time>2021-09-11T19:43:26.557</time></trkpt><trkpt lat="55.8019230" lon="49.1344770"><time>2021-09-11T19:43:27.557</time></trkpt><trkpt lat="55.8019210" lon="49.1345230"><time>2021-09-11T19:43:28.557</time></trkpt><trkpt lat="55.8019180" lon="49.1345690"><time>2021-09-11T19:43:29.557</time></trkpt><trkpt lat="55.8019130" lon="49.1346380"><time>2021-09-11T19:43:31.557</time></trkpt><trkpt lat="55.8019100" lon="49.1346610"><time>2021-09-11T19:43:31.557</time></trkpt><trkpt lat="55.8019050" lon="49.1347070"><time>2021-09-11T19:43:32.557</time></trkpt><trkpt lat="55.8019010" lon="49.1347520"><time>2021-09-11T19:43:33.557</time></trkpt><trkpt lat="55.8018970" lon="49.1347950"><time>2021-09-11T19:43:34.557</time></trkpt><trkpt lat="55.8018920" lon="49.1348590"><time>2021-09-11T19:43:36.557</time></trkpt><trkpt lat="55.8018910" lon="49.1348800"><time>2021-09-11T19:43:36.557</time></trkpt><trkpt lat="55.8018900" lon="49.1349250"><time>2021-09-11T19:43:37.557</time></trkpt><trkpt lat="55.8018880" lon="49.1349690"><time>2021-09-11T19:43:38.557</time></trkpt><trkpt lat="55.8018860" lon="49.1350140"><time>2021-09-11T19:43:39.557</time></trkpt><trkpt lat="55.8018850" lon="49.1350610"><time>2021-09-11T19:43:40.557</time></trkpt><trkpt lat="55.8018820" lon="49.1351080"><time>2021-09-11T19:43:41.557</time></trkpt><trkpt lat="55.8018800" lon="49.1351530"><time>2021-09-11T19:43:42.557</time></trkpt><trkpt lat="55.8018810" lon="49.1351960"><time>2021-09-11T19:43:43.557</time></trkpt><trkpt lat="55.8018830" lon="49.1352380"><time>2021-09-11T19:43:44.557</time></trkpt><trkpt lat="55.8018840" lon="49.1352810"><time>2021-09-11T19:43:45.557</time></trkpt><trkpt lat="55.8018840" lon="49.1353240"><time>2021-09-11T19:43:46.557</time></trkpt><trkpt lat="55.8018850" lon="49.1353680"><time>2021-09-11T19:43:47.557</time></trkpt><trkpt lat="55.8018870" lon="49.1354120"><time>2021-09-11T19:43:48.557</time></trkpt><trkpt lat="55.8018880" lon="49.1354560"><time>2021-09-11T19:43:49.557</time></trkpt><trkpt lat="55.8018890" lon="49.1354980"><time>2021-09-11T19:43:50.557</time></trkpt><trkpt lat="55.8018910" lon="49.1355410"><time>2021-09-11T19:43:51.557</time></trkpt><trkpt lat="55.8018930" lon="49.1355840"><time>2021-09-11T19:43:52.557</time></trkpt><trkpt lat="55.8018940" lon="49.1356260"><time>2021-09-11T19:43:53.557</time></trkpt><trkpt lat="55.8018970" lon="49.1356670"><time>2021-09-11T19:43:54.557</time></trkpt><trkpt lat="55.8018990" lon="49.1357090"><time>2021-09-11T19:43:55.557</time></trkpt><trkpt lat="55.8019010" lon="49.1357510"><time>2021-09-11T19:43:56.557</time></trkpt><trkpt lat="55.8019030" lon="49.1357920"><time>2021-09-11T19:43:57.557</time></trkpt><trkpt lat="55.8019060" lon="49.1358330"><time>2021-09-11T19:43:58.557</time></trkpt><trkpt lat="55.8019090" lon="49.1358740"><time>2021-09-11T19:43:59.557</time></trkpt><trkpt lat="55.8019140" lon="49.1359140"><time>2021-09-11T19:44:00.557</time></trkpt><trkpt lat="55.8019190" lon="49.1359530"><time>2021-09-11T19:44:01.557</time></trkpt><trkpt lat="55.8019260" lon="49.1360090"><time>2021-09-11T19:44:03.557</time></trkpt><trkpt lat="55.8019280" lon="49.1360260"><time>2021-09-11T19:44:03.557</time></trkpt><trkpt lat="55.8019320" lon="49.1360600"><time>2021-09-11T19:44:04.557</time></trkpt><trkpt lat="55.8019360" lon="49.1360940"><time>2021-09-11T19:44:05.557</time></trkpt><trkpt lat="55.8019410" lon="49.1361300"><time>2021-09-11T19:44:06.557</time></trkpt><trkpt lat="55.8019460" lon="49.1361660"><time>2021-09-11T19:44:07.557</time></trkpt><trkpt lat="55.8019510" lon="49.1362020"><time>2021-09-11T19:44:08.557</time></trkpt><trkpt lat="55.8019580" lon="49.1362380"><time>2021-09-11T19:44:09.557</time></trkpt><trkpt lat="55.8019640" lon="49.1362740"><time>2021-09-11T19:44:10.557</time></trkpt><trkpt lat="55.8019700" lon="49.1363110"><time>2021-09-11T19:44:11.557</time></trkpt><trkpt lat="55.8019760" lon="49.1363480"><time>2021-09-11T19:44:12.557</time></trkpt><trkpt lat="55.8019820" lon="49.1363850"><time>2021-09-11T19:44:13.557</time></trkpt><trkpt lat="55.8019890" lon="49.1364230"><time>2021-09-11T19:44:14.557</time></trkpt><trkpt lat="55.8019950" lon="49.1364610"><time>2021-09-11T19:44:15.557</time></trkpt><trkpt lat="55.8020010" lon="49.1364990"><time>2021-09-11T19:44:16.557</time></trkpt><trkpt lat="55.8020080" lon="49.1365370"><time>2021-09-11T19:44:17.557</time></trkpt><trkpt lat="55.8020140" lon="49.1365720"><time>2021-09-11T19:44:18.557</time></trkpt><trkpt lat="55.8020170" lon="49.1366100"><time>2021-09-11T19:44:19.557</time></trkpt><trkpt lat="55.8020160" lon="49.1366210"><time>2021-09-11T19:44:20.557</time></trkpt><trkpt lat="55.8020160" lon="49.1366320"><time>2021-09-11T19:44:21.557</time></trkpt><trkpt lat="55.8020160" lon="49.1366420"><time>2021-09-11T19:44:22.557</time></trkpt><trkpt lat="55.8020150" lon="49.1366530"><time>2021-09-11T19:44:39.557</time></trkpt><trkpt lat="55.8020150" lon="49.1366640"><time>2021-09-11T19:44:39.557</time></trkpt><trkpt lat="55.8020200" lon="49.1367010"><time>2021-09-11T19:44:40.557</time></trkpt><trkpt lat="55.8020220" lon="49.1367230"><time>2021-09-11T19:44:41.557</time></trkpt><trkpt lat="55.8020250" lon="49.1367450"><time>2021-09-11T19:44:42.557</time></trkpt><trkpt lat="55.8020280" lon="49.1367680"><time>2021-09-11T19:44:43.557</time></trkpt><trkpt lat="55.8020300" lon="49.1367900"><time>2021-09-11T19:44:45.557</time></trkpt><trkpt lat="55.8020330" lon="49.1368120"><time>2021-09-11T19:44:45.557</time></trkpt><trkpt lat="55.8020390" lon="49.1368450"><time>2021-09-11T19:44:46.557</time></trkpt><trkpt lat="55.8020430" lon="49.1368750"><time>2021-09-11T19:44:47.557</time></trkpt><trkpt lat="55.8020480" lon="49.1369040"><time>2021-09-11T19:44:48.557</time></trkpt><trkpt lat="55.8020520" lon="49.1369330"><time>2021-09-11T19:44:49.557</time></trkpt><trkpt lat="55.8020550" lon="49.1369600"><time>2021-09-11T19:44:50.557</time></trkpt><trkpt lat="55.8020590" lon="49.1369840"><time>2021-09-11T19:44:51.557</time></trkpt><trkpt lat="55.8020650" lon="49.1370060"><time>2021-09-11T19:44:52.557</time></trkpt><trkpt lat="55.8020710" lon="49.1370270"><time>2021-09-11T19:44:53.557</time></trkpt><trkpt lat="55.8020770" lon="49.1370490"><time>2021-09-11T19:44:54.557</time></trkpt><trkpt lat="55.8020830" lon="49.1370750"><time>2021-09-11T19:44:55.557</time></trkpt><trkpt lat="55.8020890" lon="49.1371030"><time>2021-09-11T19:44:56.557</time></trkpt><trkpt lat="55.8020950" lon="49.1371340"><time>2021-09-11T19:44:57.557</time></trkpt><trkpt lat="55.8021010" lon="49.1371700"><time>2021-09-11T19:44:58.557</time></trkpt><trkpt lat="55.8021080" lon="49.1372070"><time>2021-09-11T19:44:59.557</time></trkpt><trkpt lat="55.8021140" lon="49.1372450"><time>2021-09-11T19:45:00.557</time></trkpt><trkpt lat="55.8021200" lon="49.1372850"><time>2021-09-11T19:45:01.557</time></trkpt><trkpt lat="55.8021270" lon="49.1373280"><time>2021-09-11T19:45:02.557</time></trkpt><trkpt lat="55.8021340" lon="49.1373710"><time>2021-09-11T19:45:03.557</time></trkpt><trkpt lat="55.8021400" lon="49.1374160"><time>2021-09-11T19:45:04.557</time></trkpt><trkpt lat="55.8021480" lon="49.1374640"><time>2021-09-11T19:45:05.557</time></trkpt><trkpt lat="55.8021540" lon="49.1375110"><time>2021-09-11T19:45:06.557</time></trkpt><trkpt lat="55.8021600" lon="49.1375560"><time>2021-09-11T19:45:07.557</time></trkpt><trkpt lat="55.8021680" lon="49.1375990"><time>2021-09-11T19:45:08.557</time></trkpt><trkpt lat="55.8021770" lon="49.1376420"><time>2021-09-11T19:45:09.557</time></trkpt><trkpt lat="55.8021860" lon="49.1376850"><time>2021-09-11T19:45:10.557</time></trkpt><trkpt lat="55.8021940" lon="49.1377250"><time>2021-09-11T19:45:11.557</time></trkpt><trkpt lat="55.8022020" lon="49.1377680"><time>2021-09-11T19:45:12.557</time></trkpt><trkpt lat="55.8022100" lon="49.1378110"><time>2021-09-11T19:45:13.557</time></trkpt><trkpt lat="55.8022180" lon="49.1378560"><time>2021-09-11T19:45:14.557</time></trkpt><trkpt lat="55.8022320" lon="49.1379270"><time>2021-09-11T19:45:16.557</time></trkpt><trkpt lat="55.8022360" lon="49.1379510"><time>2021-09-11T19:45:16.557</time></trkpt><trkpt lat="55.8022450" lon="49.1379940"><time>2021-09-11T19:45:17.557</time></trkpt><trkpt lat="55.8022540" lon="49.1380380"><time>2021-09-11T19:45:18.557</time></trkpt><trkpt lat="55.8022630" lon="49.1380840"><time>2021-09-11T19:45:19.557</time></trkpt><trkpt lat="55.8022720" lon="49.1381290"><time>2021-09-11T19:45:20.557</time></trkpt><trkpt lat="55.8022860" lon="49.1381960"><time>2021-09-11T19:45:22.557</time></trkpt><trkpt lat="55.8022900" lon="49.1382180"><time>2021-09-11T19:45:22.557</time></trkpt><trkpt lat="55.8022990" lon="49.1382620"><time>2021-09-11T19:45:23.557</time></trkpt><trkpt lat="55.8023080" lon="49.1383050"><time>2021-09-11T19:45:24.557</time></trkpt><trkpt lat="55.8023170" lon="49.1383490"><time>2021-09-11T19:45:25.557</time></trkpt><trkpt lat="55.8023260" lon="49.1383940"><time>2021-09-11T19:45:26.557</time></trkpt><trkpt lat="55.8023350" lon="49.1384380"><time>2021-09-11T19:45:27.557</time></trkpt><trkpt lat="55.8023440" lon="49.1384810"><time>2021-09-11T19:45:28.557</time></trkpt><trkpt lat="55.8023530" lon="49.1385230"><time>2021-09-11T19:45:29.557</time></trkpt><trkpt lat="55.8023620" lon="49.1385650"><time>2021-09-11T19:45:30.557</time></trkpt><trkpt lat="55.8023710" lon="49.1386110"><time>2021-09-11T19:45:31.557</time></trkpt><trkpt lat="55.8023800" lon="49.1386570"><time>2021-09-11T19:45:32.557</time></trkpt><trkpt lat="55.8023880" lon="49.1387020"><time>2021-09-11T19:45:33.557</time></trkpt><trkpt lat="55.8023950" lon="49.1387460"><time>2021-09-11T19:45:34.557</time></trkpt><trkpt lat="55.8024000" lon="49.1387910"><time>2021-09-11T19:45:35.557</time></trkpt><trkpt lat="55.8024060" lon="49.1388350"><time>2021-09-11T19:45:36.557</time></trkpt><trkpt lat="55.8024110" lon="49.1388750"><time>2021-09-11T19:45:37.557</time></trkpt><trkpt lat="55.8024160" lon="49.1389180"><time>2021-09-11T19:45:38.557</time></trkpt><trkpt lat="55.8024200" lon="49.1389600"><time>2021-09-11T19:45:39.557</time></trkpt><trkpt lat="55.8024240" lon="49.1390040"><time>2021-09-11T19:45:40.557</time></trkpt><trkpt lat="55.8024300" lon="49.1390490"><time>2021-09-11T19:45:41.557</time></trkpt><trkpt lat="55.8024410" lon="49.1391130"><time>2021-09-11T19:45:43.557</time></trkpt><trkpt lat="55.8024440" lon="49.1391340"><time>2021-09-11T19:45:43.557</time></trkpt><trkpt lat="55.8024510" lon="49.1391760"><time>2021-09-11T19:45:44.557</time></trkpt><trkpt lat="55.8024580" lon="49.1392140"><time>2021-09-11T19:45:45.557</time></trkpt><trkpt lat="55.8024650" lon="49.1392530"><time>2021-09-11T19:45:46.557</time></trkpt><trkpt lat="55.8024730" lon="49.1392950"><time>2021-09-11T19:45:47.557</time></trkpt><trkpt lat="55.8024840" lon="49.1393590"><time>2021-09-11T19:45:49.557</time></trkpt><trkpt lat="55.8024880" lon="49.1393800"><time>2021-09-11T19:45:49.557</time></trkpt><trkpt lat="55.8024950" lon="49.1394230"><time>2021-09-11T19:45:50.557</time></trkpt><trkpt lat="55.8025020" lon="49.1394660"><time>2021-09-11T19:45:51.557</time></trkpt><trkpt lat="55.8025130" lon="49.1395290"><time>2021-09-11T19:45:53.557</time></trkpt><trkpt lat="55.8025170" lon="49.1395510"><time>2021-09-11T19:45:53.557</time></trkpt><trkpt lat="55.8025250" lon="49.1395950"><time>2021-09-11T19:45:54.557</time></trkpt><trkpt lat="55.8025410" lon="49.1396600"><time>2021-09-11T19:45:56.557</time></trkpt><trkpt lat="55.8025450" lon="49.1396810"><time>2021-09-11T19:45:56.557</time></trkpt><trkpt lat="55.8025540" lon="49.1397260"><time>2021-09-11T19:45:57.557</time></trkpt><trkpt lat="55.8025630" lon="49.1397700"><time>2021-09-11T19:45:58.557</time></trkpt><trkpt lat="55.8025710" lon="49.1398140"><time>2021-09-11T19:45:59.557</time></trkpt><trkpt lat="55.8025780" lon="49.1398580"><time>2021-09-11T19:46:00.557</time></trkpt><trkpt lat="55.8025840" lon="49.1399020"><time>2021-09-11T19:46:01.557</time></trkpt><trkpt lat="55.8025900" lon="49.1399460"><time>2021-09-11T19:46:02.557</time></trkpt><trkpt lat="55.8025980" lon="49.1399900"><time>2021-09-11T19:46:03.557</time></trkpt><trkpt lat="55.8026050" lon="49.1400330"><time>2021-09-11T19:46:04.557</time></trkpt><trkpt lat="55.8026140" lon="49.1400760"><time>2021-09-11T19:46:05.557</time></trkpt><trkpt lat="55.8026220" lon="49.1401170"><time>2021-09-11T19:46:06.557</time></trkpt><trkpt lat="55.8026300" lon="49.1401580"><time>2021-09-11T19:46:07.557</time></trkpt><trkpt lat="55.8026370" lon="49.1401960"><time>2021-09-11T19:46:08.557</time></trkpt><trkpt lat="55.8026490" lon="49.1402550"><time>2021-09-11T19:46:10.557</time></trkpt><trkpt lat="55.8026530" lon="49.1402770"><time>2021-09-11T19:46:10.557</time></trkpt><trkpt lat="55.8026610" lon="49.1403210"><time>2021-09-11T19:46:11.557</time></trkpt><trkpt lat="55.8026690" lon="49.1403650"><time>2021-09-11T19:46:12.557</time></trkpt><trkpt lat="55.8026780" lon="49.1404090"><time>2021-09-11T19:46:13.557</time></trkpt><trkpt lat="55.8026860" lon="49.1404530"><time>2021-09-11T19:46:14.557</time></trkpt><trkpt lat="55.8026940" lon="49.1404970"><time>2021-09-11T19:46:15.557</time></trkpt><trkpt lat="55.8027010" lon="49.1405400"><time>2021-09-11T19:46:16.557</time></trkpt><trkpt lat="55.8027120" lon="49.1406000"><time>2021-09-11T19:46:18.557</time></trkpt><trkpt lat="55.8027160" lon="49.1406220"><time>2021-09-11T19:46:18.557</time></trkpt><trkpt lat="55.8027300" lon="49.1406860"><time>2021-09-11T19:46:20.557</time></trkpt><trkpt lat="55.8027340" lon="49.1407080"><time>2021-09-11T19:46:20.557</time></trkpt><trkpt lat="55.8027420" lon="49.1407510"><time>2021-09-11T19:46:21.557</time></trkpt><trkpt lat="55.8027520" lon="49.1407930"><time>2021-09-11T19:46:22.557</time></trkpt><trkpt lat="55.8027610" lon="49.1408350"><time>2021-09-11T19:46:23.557</time></trkpt><trkpt lat="55.8027680" lon="49.1408780"><time>2021-09-11T19:46:24.557</time></trkpt><trkpt lat="55.8027790" lon="49.1409330"><time>2021-09-11T19:46:26.557</time></trkpt><trkpt lat="55.8027820" lon="49.1409510"><time>2021-09-11T19:46:26.557</time></trkpt><trkpt lat="55.8027900" lon="49.1409820"><time>2021-09-11T19:46:27.557</time></trkpt><trkpt lat="55.8027980" lon="49.1410110"><time>2021-09-11T19:46:28.557</time></trkpt><trkpt lat="55.8028050" lon="49.1410360"><time>2021-09-11T19:46:29.557</time></trkpt><trkpt lat="55.8028100" lon="49.1410610"><time>2021-09-11T19:46:30.557</time></trkpt><trkpt lat="55.8028130" lon="49.1410860"><time>2021-09-11T19:46:31.557</time></trkpt><trkpt lat="55.8028150" lon="49.1411110"><time>2021-09-11T19:46:32.557</time></trkpt><trkpt lat="55.8028120" lon="49.1411320"><time>2021-09-11T19:46:33.557</time></trkpt><trkpt lat="55.8028110" lon="49.1411540"><time>2021-09-11T19:46:34.557</time></trkpt><trkpt lat="55.8028110" lon="49.1411760"><time>2021-09-11T19:46:35.557</time></trkpt><trkpt lat="55.8028120" lon="49.1411970"><time>2021-09-11T19:46:36.557</time></trkpt><trkpt lat="55.8028130" lon="49.1412180"><time>2021-09-11T19:46:37.557</time></trkpt><trkpt lat="55.8028140" lon="49.1412350"><time>2021-09-11T19:46:38.557</time></trkpt><trkpt lat="55.8028170" lon="49.1412520"><time>2021-09-11T19:46:39.557</time></trkpt><trkpt lat="55.8028200" lon="49.1412690"><time>2021-09-11T19:46:40.557</time></trkpt><trkpt lat="55.8028240" lon="49.1412870"><time>2021-09-11T19:46:41.557</time></trkpt><trkpt lat="55.8028290" lon="49.1413080"><time>2021-09-11T19:46:42.557</time></trkpt><trkpt lat="55.8028330" lon="49.1413280"><time>2021-09-11T19:46:43.557</time></trkpt><trkpt lat="55.8028370" lon="49.1413540"><time>2021-09-11T19:46:44.557</time></trkpt><trkpt lat="55.8028410" lon="49.1413830"><time>2021-09-11T19:46:45.557</time></trkpt><trkpt lat="55.8028460" lon="49.1414130"><time>2021-09-11T19:46:46.557</time></trkpt><trkpt lat="55.8028520" lon="49.1414440"><time>2021-09-11T19:46:47.557</time></trkpt><trkpt lat="55.8028580" lon="49.1414750"><time>2021-09-11T19:46:48.557</time></trkpt><trkpt lat="55.8028650" lon="49.1415030"><time>2021-09-11T19:46:49.557</time></trkpt><trkpt lat="55.8028710" lon="49.1415290"><time>2021-09-11T19:46:50.557</time></trkpt><trkpt lat="55.8028800" lon="49.1415570"><time>2021-09-11T19:46:51.557</time></trkpt><trkpt lat="55.8028900" lon="49.1415840"><time>2021-09-11T19:46:52.557</time></trkpt><trkpt lat="55.8029030" lon="49.1416250"><time>2021-09-11T19:46:53.557</time></trkpt><trkpt lat="55.8029090" lon="49.1416420"><time>2021-09-11T19:46:54.557</time></trkpt><trkpt lat="55.8029140" lon="49.1416580"><time>2021-09-11T19:46:54.557</time></trkpt><trkpt lat="55.8029230" lon="49.1416910"><time>2021-09-11T19:46:55.557</time></trkpt><trkpt lat="55.8029260" lon="49.1417040"><time>2021-09-11T19:46:57.557</time></trkpt><trkpt lat="55.8029290" lon="49.1417160"><time>2021-09-11T19:46:57.557</time></trkpt><trkpt lat="55.8029360" lon="49.1417430"><time>2021-09-11T19:46:58.557</time></trkpt><trkpt lat="55.8029390" lon="49.1417530"><time>2021-09-11T19:46:59.557</time></trkpt><trkpt lat="55.8029420" lon="49.1417620"><time>2021-09-11T19:47:00.557</time></trkpt><trkpt lat="55.8029450" lon="49.1417720"><time>2021-09-11T19:47:02.557</time></trkpt><trkpt lat="55.8029480" lon="49.1417820"><time>2021-09-11T19:47:03.557</time></trkpt><trkpt lat="55.8029510" lon="49.1417920"><time>2021-09-11T19:47:03.557</time></trkpt><trkpt lat="55.8029660" lon="49.1418230"><time>2021-09-11T19:47:04.557</time></trkpt><trkpt lat="55.8029750" lon="49.1418380"><time>2021-09-11T19:47:05.557</time></trkpt><trkpt lat="55.8029830" lon="49.1418540"><time>2021-09-11T19:47:07.557</time></trkpt><trkpt lat="55.8029910" lon="49.1418700"><time>2021-09-11T19:47:07.557</time></trkpt><trkpt lat="55.8030040" lon="49.1418970"><time>2021-09-11T19:47:08.557</time></trkpt><trkpt lat="55.8030180" lon="49.1419240"><time>2021-09-11T19:47:09.557</time></trkpt><trkpt lat="55.8030330" lon="49.1419520"><time>2021-09-11T19:47:10.557</time></trkpt><trkpt lat="55.8030490" lon="49.1419810"><time>2021-09-11T19:47:11.557</time></trkpt><trkpt lat="55.8030650" lon="49.1420090"><time>2021-09-11T19:47:12.557</time></trkpt><trkpt lat="55.8030820" lon="49.1420360"><time>2021-09-11T19:47:13.557</time></trkpt><trkpt lat="55.8031000" lon="49.1420640"><time>2021-09-11T19:47:14.557</time></trkpt><trkpt lat="55.8031180" lon="49.1420920"><time>2021-09-11T19:47:15.557</time></trkpt><trkpt lat="55.8031340" lon="49.1421180"><time>2021-09-11T19:47:16.557</time></trkpt><trkpt lat="55.8031510" lon="49.1421460"><time>2021-09-11T19:47:17.557</time></trkpt><trkpt lat="55.8031690" lon="49.1421720"><time>2021-09-11T19:47:18.557</time></trkpt><trkpt lat="55.8031990" lon="49.1422090"><time>2021-09-11T19:47:20.557</time></trkpt><trkpt lat="55.8032080" lon="49.1422220"><time>2021-09-11T19:47:20.557</time></trkpt><trkpt lat="55.8032280" lon="49.1422480"><time>2021-09-11T19:47:21.557</time></trkpt><trkpt lat="55.8032480" lon="49.1422740"><time>2021-09-11T19:47:22.557</time></trkpt><trkpt lat="55.8032680" lon="49.1422990"><time>2021-09-11T19:47:23.557</time></trkpt><trkpt lat="55.8032870" lon="49.1423260"><time>2021-09-11T19:47:24.557</time></trkpt><trkpt lat="55.8033160" lon="49.1423680"><time>2021-09-11T19:47:26.557</time></trkpt><trkpt lat="55.8033250" lon="49.1423820"><time>2021-09-11T19:47:26.557</time></trkpt><trkpt lat="55.8033440" lon="49.1424100"><time>2021-09-11T19:47:27.557</time></trkpt><trkpt lat="55.8033640" lon="49.1424370"><time>2021-09-11T19:47:28.557</time></trkpt><trkpt lat="55.8033840" lon="49.1424650"><time>2021-09-11T19:47:29.557</time></trkpt><trkpt lat="55.8034030" lon="49.1424930"><time>2021-09-11T19:47:30.557</time></trkpt><trkpt lat="55.8034220" lon="49.1425210"><time>2021-09-11T19:47:31.557</time></trkpt><trkpt lat="55.8034400" lon="49.1425470"><time>2021-09-11T19:47:32.557</time></trkpt><trkpt lat="55.8034610" lon="49.1425760"><time>2021-09-11T19:47:33.557</time></trkpt><trkpt lat="55.8034820" lon="49.1426050"><time>2021-09-11T19:47:34.557</time></trkpt><trkpt lat="55.8035030" lon="49.1426320"><time>2021-09-11T19:47:35.557</time></trkpt><trkpt lat="55.8035330" lon="49.1426730"><time>2021-09-11T19:47:37.557</time></trkpt><trkpt lat="55.8035430" lon="49.1426860"><time>2021-09-11T19:47:37.557</time></trkpt><trkpt lat="55.8035630" lon="49.1427110"><time>2021-09-11T19:47:38.557</time></trkpt><trkpt lat="55.8035850" lon="49.1427370"><time>2021-09-11T19:47:39.557</time></trkpt><trkpt lat="55.8036060" lon="49.1427620"><time>2021-09-11T19:47:40.557</time></trkpt><trkpt lat="55.8036270" lon="49.1427880"><time>2021-09-11T19:47:41.557</time></trkpt><trkpt lat="55.8036460" lon="49.1428140"><time>2021-09-11T19:47:42.557</time></trkpt><trkpt lat="55.8036670" lon="49.1428410"><time>2021-09-11T19:47:43.557</time></trkpt><trkpt lat="55.8036870" lon="49.1428680"><time>2021-09-11T19:47:44.557</time></trkpt><trkpt lat="55.8037090" lon="49.1428970"><time>2021-09-11T19:47:45.557</time></trkpt><trkpt lat="55.8037290" lon="49.1429250"><time>2021-09-11T19:47:46.557</time></trkpt><trkpt lat="55.8037500" lon="49.1429540"><time>2021-09-11T19:47:47.557</time></trkpt><trkpt lat="55.8037730" lon="49.1429850"><time>2021-09-11T19:47:48.557</time></trkpt><trkpt lat="55.8037960" lon="49.1430130"><time>2021-09-11T19:47:49.557</time></trkpt><trkpt lat="55.8038200" lon="49.1430400"><time>2021-09-11T19:47:50.557</time></trkpt><trkpt lat="55.8038430" lon="49.1430660"><time>2021-09-11T19:47:51.557</time></trkpt><trkpt lat="55.8038660" lon="49.1430910"><time>2021-09-11T19:47:52.557</time></trkpt><trkpt lat="55.8038890" lon="49.1431150"><time>2021-09-11T19:47:53.557</time></trkpt><trkpt lat="55.8039110" lon="49.1431390"><time>2021-09-11T19:47:54.557</time></trkpt><trkpt lat="55.8039460" lon="49.1431700"><time>2021-09-11T19:47:56.557</time></trkpt><trkpt lat="55.8039570" lon="49.1431810"><time>2021-09-11T19:47:56.557</time></trkpt><trkpt lat="55.8039790" lon="49.1432020"><time>2021-09-11T19:47:57.557</time></trkpt><trkpt lat="55.8040040" lon="49.1432250"><time>2021-09-11T19:47:58.557</time></trkpt><trkpt lat="55.8040290" lon="49.1432470"><time>2021-09-11T19:47:59.557</time></trkpt><trkpt lat="55.8040520" lon="49.1432700"><time>2021-09-11T19:48:00.557</time></trkpt><trkpt lat="55.8040870" lon="49.1433030"><time>2021-09-11T19:48:02.557</time></trkpt><trkpt lat="55.8040980" lon="49.1433140"><time>2021-09-11T19:48:02.557</time></trkpt><trkpt lat="55.8041210" lon="49.1433340"><time>2021-09-11T19:48:03.557</time></trkpt><trkpt lat="55.8041430" lon="49.1433550"><time>2021-09-11T19:48:04.557</time></trkpt><trkpt lat="55.8041670" lon="49.1433750"><time>2021-09-11T19:48:05.557</time></trkpt><trkpt lat="55.8041890" lon="49.1433980"><time>2021-09-11T19:48:06.557</time></trkpt><trkpt lat="55.8042100" lon="49.1434240"><time>2021-09-11T19:48:07.557</time></trkpt><trkpt lat="55.8042260" lon="49.1434560"><time>2021-09-11T19:48:08.557</time></trkpt><trkpt lat="55.8042370" lon="49.1434920"><time>2021-09-11T19:48:09.557</time></trkpt><trkpt lat="55.8042400" lon="49.1435320"><time>2021-09-11T19:48:10.557</time></trkpt><trkpt lat="55.8042380" lon="49.1435750"><time>2021-09-11T19:48:11.557</time></trkpt><trkpt lat="55.8042340" lon="49.1436170"><time>2021-09-11T19:48:12.557</time></trkpt><trkpt lat="55.8042270" lon="49.1436620"><time>2021-09-11T19:48:13.557</time></trkpt><trkpt lat="55.8042180" lon="49.1437100"><time>2021-09-11T19:48:14.557</time></trkpt><trkpt lat="55.8042090" lon="49.1437590"><time>2021-09-11T19:48:15.557</time></trkpt><trkpt lat="55.8041980" lon="49.1438060"><time>2021-09-11T19:48:16.557</time></trkpt><trkpt lat="55.8041870" lon="49.1438540"><time>2021-09-11T19:48:17.557</time></trkpt><trkpt lat="55.8041700" lon="49.1439270"><time>2021-09-11T19:48:19.557</time></trkpt><trkpt lat="55.8041630" lon="49.1439510"><time>2021-09-11T19:48:19.557</time></trkpt><trkpt lat="55.8041490" lon="49.1439990"><time>2021-09-11T19:48:20.557</time></trkpt><trkpt lat="55.8041320" lon="49.1440470"><time>2021-09-11T19:48:21.557</time></trkpt><trkpt lat="55.8041130" lon="49.1440940"><time>2021-09-11T19:48:22.557</time></trkpt><trkpt lat="55.8040980" lon="49.1441360"><time>2021-09-11T19:48:23.557</time></trkpt><trkpt lat="55.8040730" lon="49.1441990"><time>2021-09-11T19:48:25.557</time></trkpt><trkpt lat="55.8040650" lon="49.1442190"><time>2021-09-11T19:48:25.557</time></trkpt><trkpt lat="55.8040480" lon="49.1442570"><time>2021-09-11T19:48:26.557</time></trkpt><trkpt lat="55.8040330" lon="49.1442920"><time>2021-09-11T19:48:27.557</time></trkpt><trkpt lat="55.8040140" lon="49.1443340"><time>2021-09-11T19:48:28.557</time></trkpt><trkpt lat="55.8039950" lon="49.1443790"><time>2021-09-11T19:48:29.557</time></trkpt><trkpt lat="55.8039770" lon="49.1444240"><time>2021-09-11T19:48:30.557</time></trkpt><trkpt lat="55.8039600" lon="49.1444680"><time>2021-09-11T19:48:31.557</time></trkpt><trkpt lat="55.8039440" lon="49.1445110"><time>2021-09-11T19:48:32.557</time></trkpt><trkpt lat="55.8039290" lon="49.1445530"><time>2021-09-11T19:48:33.557</time></trkpt><trkpt lat="55.8039120" lon="49.1445950"><time>2021-09-11T19:48:34.557</time></trkpt><trkpt lat="55.8038950" lon="49.1446390"><time>2021-09-11T19:48:35.557</time></trkpt><trkpt lat="55.8038790" lon="49.1446810"><time>2021-09-11T19:48:36.557</time></trkpt><trkpt lat="55.8038650" lon="49.1447220"><time>2021-09-11T19:48:37.557</time></trkpt><trkpt lat="55.8038510" lon="49.1447650"><time>2021-09-11T19:48:38.557</time></trkpt><trkpt lat="55.8038380" lon="49.1448070"><time>2021-09-11T19:48:39.557</time></trkpt><trkpt lat="55.8038270" lon="49.1448480"><time>2021-09-11T19:48:40.557</time></trkpt><trkpt lat="55.8038170" lon="49.1448890"><time>2021-09-11T19:48:41.557</time></trkpt><trkpt lat="55.8038090" lon="49.1449290"><time>2021-09-11T19:48:42.557</time></trkpt><trkpt lat="55.8037990" lon="49.1449740"><time>2021-09-11T19:48:43.557</time></trkpt><trkpt lat="55.8037900" lon="49.1450210"><time>2021-09-11T19:48:44.557</time></trkpt><trkpt lat="55.8037820" lon="49.1450670"><time>2021-09-11T19:48:45.557</time></trkpt><trkpt lat="55.8037730" lon="49.1451110"><time>2021-09-11T19:48:46.557</time></trkpt><trkpt lat="55.8037640" lon="49.1451510"><time>2021-09-11T19:48:47.557</time></trkpt><trkpt lat="55.8037540" lon="49.1451920"><time>2021-09-11T19:48:48.557</time></trkpt><trkpt lat="55.8037440" lon="49.1452330"><time>2021-09-11T19:48:49.557</time></trkpt><trkpt lat="55.8037390" lon="49.1452700"><time>2021-09-11T19:48:50.557</time></trkpt><trkpt lat="55.8037330" lon="49.1453080"><time>2021-09-11T19:48:51.557</time></trkpt><trkpt lat="55.8037200" lon="49.1453610"><time>2021-09-11T19:48:53.557</time></trkpt><trkpt lat="55.8037150" lon="49.1453770"><time>2021-09-11T19:48:53.557</time></trkpt><trkpt lat="55.8037080" lon="49.1454140"><time>2021-09-11T19:48:54.557</time></trkpt><trkpt lat="55.8037030" lon="49.1454750"><time>2021-09-11T19:48:56.557</time></trkpt><trkpt lat="55.8037020" lon="49.1454970"><time>2021-09-11T19:48:56.557</time></trkpt><trkpt lat="55.8037030" lon="49.1455420"><time>2021-09-11T19:48:57.557</time></trkpt><trkpt lat="55.8037030" lon="49.1455910"><time>2021-09-11T19:48:58.557</time></trkpt><trkpt lat="55.8037020" lon="49.1456400"><time>2021-09-11T19:48:59.557</time></trkpt><trkpt lat="55.8037010" lon="49.1457140"><time>2021-09-11T19:49:01.557</time></trkpt><trkpt lat="55.8037010" lon="49.1457370"><time>2021-09-11T19:49:01.557</time></trkpt><trkpt lat="55.8037020" lon="49.1457840"><time>2021-09-11T19:49:02.557</time></trkpt><trkpt lat="55.8037020" lon="49.1458310"><time>2021-09-11T19:49:03.557</time></trkpt><trkpt lat="55.8037040" lon="49.1458760"><time>2021-09-11T19:49:04.557</time></trkpt><trkpt lat="55.8037080" lon="49.1459190"><time>2021-09-11T19:49:05.557</time></trkpt><trkpt lat="55.8037200" lon="49.1459770"><time>2021-09-11T19:49:07.557</time></trkpt><trkpt lat="55.8037260" lon="49.1459960"><time>2021-09-11T19:49:07.557</time></trkpt><trkpt lat="55.8037360" lon="49.1460360"><time>2021-09-11T19:49:08.557</time></trkpt><trkpt lat="55.8037490" lon="49.1460740"><time>2021-09-11T19:49:09.557</time></trkpt><trkpt lat="55.8037640" lon="49.1461120"><time>2021-09-11T19:49:10.557</time></trkpt><trkpt lat="55.8037810" lon="49.1461500"><time>2021-09-11T19:49:11.557</time></trkpt><trkpt lat="55.8037970" lon="49.1461900"><time>2021-09-11T19:49:12.557</time></trkpt><trkpt lat="55.8038140" lon="49.1462300"><time>2021-09-11T19:49:13.557</time></trkpt><trkpt lat="55.8038330" lon="49.1462650"><time>2021-09-11T19:49:14.557</time></trkpt><trkpt lat="55.8038540" lon="49.1463010"><time>2021-09-11T19:49:15.557</time></trkpt><trkpt lat="55.8038750" lon="49.1463360"><time>2021-09-11T19:49:16.557</time></trkpt><trkpt lat="55.8038970" lon="49.1463710"><time>2021-09-11T19:49:17.557</time></trkpt><trkpt lat="55.8039170" lon="49.1464100"><time>2021-09-11T19:49:18.557</time></trkpt><trkpt lat="55.8039330" lon="49.1464510"><time>2021-09-11T19:49:19.557</time></trkpt><trkpt lat="55.8039470" lon="49.1464920"><time>2021-09-11T19:49:20.557</time></trkpt><trkpt lat="55.8039610" lon="49.1465340"><time>2021-09-11T19:49:21.557</time></trkpt><trkpt lat="55.8039740" lon="49.1465770"><time>2021-09-11T19:49:22.557</time></trkpt><trkpt lat="55.8039960" lon="49.1466420"><time>2021-09-11T19:49:24.557</time></trkpt><trkpt lat="55.8040030" lon="49.1466630"><time>2021-09-11T19:49:24.557</time></trkpt><trkpt lat="55.8040180" lon="49.1467060"><time>2021-09-11T19:49:25.557</time></trkpt><trkpt lat="55.8040340" lon="49.1467480"><time>2021-09-11T19:49:26.557</time></trkpt><trkpt lat="55.8040500" lon="49.1467860"><time>2021-09-11T19:49:27.557</time></trkpt><trkpt lat="55.8040660" lon="49.1468250"><time>2021-09-11T19:49:28.557</time></trkpt><trkpt lat="55.8040880" lon="49.1468820"><time>2021-09-11T19:49:30.557</time></trkpt><trkpt lat="55.8040940" lon="49.1469020"><time>2021-09-11T19:49:30.557</time></trkpt><trkpt lat="55.8041060" lon="49.1469420"><time>2021-09-11T19:49:31.557</time></trkpt><trkpt lat="55.8041260" lon="49.1470000"><time>2021-09-11T19:49:33.557</time></trkpt><trkpt lat="55.8041320" lon="49.1470200"><time>2021-09-11T19:49:33.557</time></trkpt><trkpt lat="55.8041500" lon="49.1470840"><time>2021-09-11T19:49:35.557</time></trkpt><trkpt lat="55.8041550" lon="49.1471070"><time>2021-09-11T19:49:35.557</time></trkpt><trkpt lat="55.8041700" lon="49.1471760"><time>2021-09-11T19:49:37.557</time></trkpt><trkpt lat="55.8041750" lon="49.1472000"><time>2021-09-11T19:49:37.557</time></trkpt><trkpt lat="55.8041880" lon="49.1472490"><time>2021-09-11T19:49:38.557</time></trkpt><trkpt lat="55.8042010" lon="49.1472990"><time>2021-09-11T19:49:39.557</time></trkpt><trkpt lat="55.8042120" lon="49.1473450"><time>2021-09-11T19:49:40.557</time></trkpt><trkpt lat="55.8042250" lon="49.1473920"><time>2021-09-11T19:49:41.557</time></trkpt><trkpt lat="55.8042380" lon="49.1474460"><time>2021-09-11T19:49:42.557</time></trkpt><trkpt lat="55.8042490" lon="49.1474980"><time>2021-09-11T19:49:43.557</time></trkpt><trkpt lat="55.8042590" lon="49.1475480"><time>2021-09-11T19:49:44.557</time></trkpt><trkpt lat="55.8042660" lon="49.1476020"><time>2021-09-11T19:49:45.557</time></trkpt><trkpt lat="55.8042730" lon="49.1476590"><time>2021-09-11T19:49:46.557</time></trkpt><trkpt lat="55.8042810" lon="49.1477180"><time>2021-09-11T19:49:47.557</time></trkpt><trkpt lat="55.8042890" lon="49.1477750"><time>2021-09-11T19:49:48.557</time></trkpt><trkpt lat="55.8042960" lon="49.1478290"><time>2021-09-11T19:49:49.557</time></trkpt><trkpt lat="55.8043030" lon="49.1478850"><time>2021-09-11T19:49:50.557</time></trkpt><trkpt lat="55.8043100" lon="49.1479370"><time>2021-09-11T19:49:51.557</time></trkpt><trkpt lat="55.8043170" lon="49.1479900"><time>2021-09-11T19:49:52.557</time></trkpt><trkpt lat="55.8043250" lon="49.1480390"><time>2021-09-11T19:49:53.557</time></trkpt><trkpt lat="55.8043330" lon="49.1480910"><time>2021-09-11T19:49:54.557</time></trkpt><trkpt lat="55.8043450" lon="49.1481610"><time>2021-09-11T19:49:56.557</time></trkpt><trkpt lat="55.8043500" lon="49.1481850"><time>2021-09-11T19:49:56.557</time></trkpt><trkpt lat="55.8043590" lon="49.1482310"><time>2021-09-11T19:49:57.557</time></trkpt><trkpt lat="55.8043680" lon="49.1482730"><time>2021-09-11T19:49:58.557</time></trkpt><trkpt lat="55.8043770" lon="49.1483160"><time>2021-09-11T19:49:59.557</time></trkpt><trkpt lat="55.8043850" lon="49.1483580"><time>2021-09-11T19:50:00.557</time></trkpt><trkpt lat="55.8043960" lon="49.1484000"><time>2021-09-11T19:50:01.557</time></trkpt><trkpt lat="55.8044050" lon="49.1484420"><time>2021-09-11T19:50:02.557</time></trkpt><trkpt lat="55.8044120" lon="49.1484830"><time>2021-09-11T19:50:03.557</time></trkpt><trkpt lat="55.8044160" lon="49.1485270"><time>2021-09-11T19:50:04.557</time></trkpt><trkpt lat="55.8044070" lon="49.1485950"><time>2021-09-11T19:50:06.557</time></trkpt><trkpt lat="55.8044010" lon="49.1486180"><time>2021-09-11T19:50:06.557</time></trkpt><trkpt lat="55.8043840" lon="49.1486580"><time>2021-09-11T19:50:07.557</time></trkpt><trkpt lat="55.8043450" lon="49.1487110"><time>2021-09-11T19:50:09.557</time></trkpt><trkpt lat="55.8043320" lon="49.1487260"><time>2021-09-11T19:50:09.557</time></trkpt><trkpt lat="55.8043080" lon="49.1487540"><time>2021-09-11T19:50:10.557</time></trkpt><trkpt lat="55.8042760" lon="49.1487880"><time>2021-09-11T19:50:12.557</time></trkpt><trkpt lat="55.8042650" lon="49.1487990"><time>2021-09-11T19:50:12.557</time></trkpt><trkpt lat="55.8042420" lon="49.1488210"><time>2021-09-11T19:50:13.557</time></trkpt><trkpt lat="55.8042200" lon="49.1488420"><time>2021-09-11T19:50:14.557</time></trkpt><trkpt lat="55.8041990" lon="49.1488620"><time>2021-09-11T19:50:15.557</time></trkpt><trkpt lat="55.8041740" lon="49.1488850"><time>2021-09-11T19:50:16.557</time></trkpt><trkpt lat="55.8041500" lon="49.1489070"><time>2021-09-11T19:50:17.557</time></trkpt><trkpt lat="55.8041260" lon="49.1489280"><time>2021-09-11T19:50:18.557</time></trkpt><trkpt lat="55.8041020" lon="49.1489460"><time>2021-09-11T19:50:19.557</time></trkpt><trkpt lat="55.8040770" lon="49.1489650"><time>2021-09-11T19:50:20.557</time></trkpt><trkpt lat="55.8040510" lon="49.1489860"><time>2021-09-11T19:50:21.557</time></trkpt><trkpt lat="55.8040260" lon="49.1490070"><time>2021-09-11T19:50:22.557</time></trkpt><trkpt lat="55.8039990" lon="49.1490270"><time>2021-09-11T19:50:23.557</time></trkpt><trkpt lat="55.8039730" lon="49.1490430"><time>2021-09-11T19:50:24.557</time></trkpt><trkpt lat="55.8039490" lon="49.1490450"><time>2021-09-11T19:50:25.557</time></trkpt><trkpt lat="55.8039290" lon="49.1490380"><time>2021-09-11T19:50:26.557</time></trkpt><trkpt lat="55.8039050" lon="49.1490120"><time>2021-09-11T19:50:27.557</time></trkpt><trkpt lat="55.8038960" lon="49.1490000"><time>2021-09-11T19:50:29.557</time></trkpt><trkpt lat="55.8038870" lon="49.1489890"><time>2021-09-11T19:50:29.557</time></trkpt><trkpt lat="55.8038740" lon="49.1489660"><time>2021-09-11T19:50:30.557</time></trkpt><trkpt lat="55.8038510" lon="49.1489340"><time>2021-09-11T19:50:32.557</time></trkpt><trkpt lat="55.8038420" lon="49.1489250"><time>2021-09-11T19:50:32.557</time></trkpt><trkpt lat="55.8038230" lon="49.1489170"><time>2021-09-11T19:50:33.557</time></trkpt><trkpt lat="55.8038070" lon="49.1489190"><time>2021-09-11T19:50:34.557</time></trkpt><trkpt lat="55.8037920" lon="49.1489340"><time>2021-09-11T19:50:35.557</time></trkpt><trkpt lat="55.8037860" lon="49.1489590"><time>2021-09-11T19:50:36.557</time></trkpt><trkpt lat="55.8037840" lon="49.1489890"><time>2021-09-11T19:50:37.557</time></trkpt><trkpt lat="55.8037850" lon="49.1490250"><time>2021-09-11T19:50:38.557</time></trkpt><trkpt lat="55.8037910" lon="49.1490770"><time>2021-09-11T19:50:40.557</time></trkpt><trkpt lat="55.8037930" lon="49.1490940"><time>2021-09-11T19:50:40.557</time></trkpt><trkpt lat="55.8037960" lon="49.1491310"><time>2021-09-11T19:50:41.557</time></trkpt><trkpt lat="55.8037930" lon="49.1491650"><time>2021-09-11T19:50:42.557</time></trkpt><trkpt lat="55.8037790" lon="49.1491980"><time>2021-09-11T19:50:43.557</time></trkpt><trkpt lat="55.8037600" lon="49.1492290"><time>2021-09-11T19:50:44.557</time></trkpt><trkpt lat="55.8037420" lon="49.1492580"><time>2021-09-11T19:50:45.557</time></trkpt><trkpt lat="55.8037240" lon="49.1492860"><time>2021-09-11T19:50:46.557</time></trkpt><trkpt lat="55.8037020" lon="49.1493150"><time>2021-09-11T19:50:47.557</time></trkpt><trkpt lat="55.8036780" lon="49.1493430"><time>2021-09-11T19:50:48.557</time></trkpt><trkpt lat="55.8036520" lon="49.1493690"><time>2021-09-11T19:50:49.557</time></trkpt><trkpt lat="55.8036250" lon="49.1493890"><time>2021-09-11T19:50:50.557</time></trkpt><trkpt lat="55.8035880" lon="49.1494210"><time>2021-09-11T19:50:52.557</time></trkpt><trkpt lat="55.8035750" lon="49.1494320"><time>2021-09-11T19:50:52.557</time></trkpt><trkpt lat="55.8035520" lon="49.1494600"><time>2021-09-11T19:50:53.557</time></trkpt><trkpt lat="55.8035300" lon="49.1494870"><time>2021-09-11T19:50:54.557</time></trkpt><trkpt lat="55.8035110" lon="49.1495170"><time>2021-09-11T19:50:55.557</time></trkpt><trkpt lat="55.8034910" lon="49.1495450"><time>2021-09-11T19:50:56.557</time></trkpt><trkpt lat="55.8034700" lon="49.1495720"><time>2021-09-11T19:50:57.557</time></trkpt><trkpt lat="55.8034470" lon="49.1495980"><time>2021-09-11T19:50:58.557</time></trkpt><trkpt lat="55.8034220" lon="49.1496240"><time>2021-09-11T19:50:59.557</time></trkpt><trkpt lat="55.8033860" lon="49.1496540"><time>2021-09-11T19:51:01.557</time></trkpt><trkpt lat="55.8033740" lon="49.1496610"><time>2021-09-11T19:51:01.557</time></trkpt><trkpt lat="55.8033500" lon="49.1496740"><time>2021-09-11T19:51:02.557</time></trkpt><trkpt lat="55.8033250" lon="49.1496870"><time>2021-09-11T19:51:03.557</time></trkpt><trkpt lat="55.8033000" lon="49.1497020"><time>2021-09-11T19:51:04.557</time></trkpt><trkpt lat="55.8032750" lon="49.1497170"><time>2021-09-11T19:51:06.557</time></trkpt><trkpt lat="55.8032550" lon="49.1497250"><time>2021-09-11T19:51:07.557</time></trkpt><trkpt lat="55.8032340" lon="49.1497280"><time>2021-09-11T19:51:07.557</time></trkpt><trkpt lat="55.8032060" lon="49.1497330"><time>2021-09-11T19:51:08.557</time></trkpt><trkpt lat="55.8031800" lon="49.1497400"><time>2021-09-11T19:51:09.557</time></trkpt><trkpt lat="55.8031560" lon="49.1497500"><time>2021-09-11T19:51:10.557</time></trkpt><trkpt lat="55.8031340" lon="49.1497630"><time>2021-09-11T19:51:10.557</time></trkpt><trkpt lat="55.8031130" lon="49.1497780"><time>2021-09-11T19:51:11.557</time></trkpt><trkpt lat="55.8030890" lon="49.1497890"><time>2021-09-11T19:51:12.557</time></trkpt><trkpt lat="55.8030680" lon="49.1497920"><time>2021-09-11T19:51:13.557</time></trkpt><trkpt lat="55.8030480" lon="49.1497980"><time>2021-09-11T19:51:14.557</time></trkpt><trkpt lat="55.8030290" lon="49.1498020"><time>2021-09-11T19:51:15.557</time></trkpt><trkpt lat="55.8030100" lon="49.1498110"><time>2021-09-11T19:51:16.557</time></trkpt><trkpt lat="55.8029880" lon="49.1498190"><time>2021-09-11T19:51:17.557</time></trkpt><trkpt lat="55.8029620" lon="49.1498290"><time>2021-09-11T19:51:18.557</time></trkpt><trkpt lat="55.8029390" lon="49.1498380"><time>2021-09-11T19:51:19.557</time></trkpt><trkpt lat="55.8029170" lon="49.1498520"><time>2021-09-11T19:51:20.557</time></trkpt><trkpt lat="55.8028960" lon="49.1498680"><time>2021-09-11T19:51:21.557</time></trkpt><trkpt lat="55.8028800" lon="49.1498810"><time>2021-09-11T19:51:22.557</time></trkpt><trkpt lat="55.8028560" lon="49.1498980"><time>2021-09-11T19:51:23.557</time></trkpt><trkpt lat="55.8028350" lon="49.1499110"><time>2021-09-11T19:51:24.557</time></trkpt><trkpt lat="55.8028100" lon="49.1499190"><time>2021-09-11T19:51:26.557</time></trkpt><trkpt lat="55.8028010" lon="49.1499220"><time>2021-09-11T19:51:27.557</time></trkpt><trkpt lat="55.8027930" lon="49.1499260"><time>2021-09-11T19:51:28.557</time></trkpt><trkpt lat="55.8027840" lon="49.1499290"><time>2021-09-11T19:51:28.557</time></trkpt><trkpt lat="55.8027670" lon="49.1499350"><time>2021-09-11T19:51:30.557</time></trkpt><trkpt lat="55.8027610" lon="49.1499360"><time>2021-09-11T19:51:30.557</time></trkpt><trkpt lat="55.8027400" lon="49.1499480"><time>2021-09-11T19:51:31.557</time></trkpt><trkpt lat="55.8027300" lon="49.1499550"><time>2021-09-11T19:51:33.557</time></trkpt><trkpt lat="55.8027200" lon="49.1499610"><time>2021-09-11T19:51:33.557</time></trkpt><trkpt lat="55.8027020" lon="49.1499720"><time>2021-09-11T19:51:34.557</time></trkpt><trkpt lat="55.8026810" lon="49.1499880"><time>2021-09-11T19:51:35.557</time></trkpt><trkpt lat="55.8026470" lon="49.1500140"><time>2021-09-11T19:51:37.557</time></trkpt><trkpt lat="55.8026340" lon="49.1500230"><time>2021-09-11T19:51:37.557</time></trkpt><trkpt lat="55.8026110" lon="49.1500410"><time>2021-09-11T19:51:38.557</time></trkpt><trkpt lat="55.8025910" lon="49.1500560"><time>2021-09-11T19:51:39.557</time></trkpt><trkpt lat="55.8025700" lon="49.1500660"><time>2021-09-11T19:51:40.557</time></trkpt><trkpt lat="55.8025400" lon="49.1500790"><time>2021-09-11T19:51:42.557</time></trkpt><trkpt lat="55.8025300" lon="49.1500810"><time>2021-09-11T19:51:42.557</time></trkpt><trkpt lat="55.8025080" lon="49.1500860"><time>2021-09-11T19:51:43.557</time></trkpt><trkpt lat="55.8024870" lon="49.1500900"><time>2021-09-11T19:51:44.557</time></trkpt><trkpt lat="55.8024660" lon="49.1500950"><time>2021-09-11T19:51:45.557</time></trkpt><trkpt lat="55.8024370" lon="49.1501010"><time>2021-09-11T19:51:47.557</time></trkpt><trkpt lat="55.8024280" lon="49.1501020"><time>2021-09-11T19:51:47.557</time></trkpt><trkpt lat="55.8024000" lon="49.1500960"><time>2021-09-11T19:51:48.557</time></trkpt><trkpt lat="55.8023870" lon="49.1500930"><time>2021-09-11T19:51:49.557</time></trkpt><trkpt lat="55.8023740" lon="49.1500890"><time>2021-09-11T19:51:51.557</time></trkpt><trkpt lat="55.8023620" lon="49.1500850"><time>2021-09-11T19:51:52.557</time></trkpt><trkpt lat="55.8023490" lon="49.1500820"><time>2021-09-11T19:51:53.557</time></trkpt><trkpt lat="55.8023360" lon="49.1500780"><time>2021-09-11T19:51:54.557</time></trkpt><trkpt lat="55.8023230" lon="49.1500750"><time>2021-09-11T19:51:55.557</time></trkpt><trkpt lat="55.8023100" lon="49.1500710"><time>2021-09-11T19:51:55.557</time></trkpt><trkpt lat="55.8022820" lon="49.1500660"><time>2021-09-11T19:51:56.557</time></trkpt><trkpt lat="55.8022700" lon="49.1500650"><time>2021-09-11T19:51:58.557</time></trkpt><trkpt lat="55.8022580" lon="49.1500630"><time>2021-09-11T19:51:58.557</time></trkpt><trkpt lat="55.8022370" lon="49.1500640"><time>2021-09-11T19:52:00.557</time></trkpt><trkpt lat="55.8022160" lon="49.1500640"><time>2021-09-11T19:52:01.557</time></trkpt><trkpt lat="55.8021950" lon="49.1500620"><time>2021-09-11T19:52:01.557</time></trkpt><trkpt lat="55.8021760" lon="49.1500610"><time>2021-09-11T19:52:02.557</time></trkpt><trkpt lat="55.8021460" lon="49.1500610"><time>2021-09-11T19:52:04.557</time></trkpt><trkpt lat="55.8021360" lon="49.1500610"><time>2021-09-11T19:52:04.557</time></trkpt><trkpt lat="55.8021150" lon="49.1500610"><time>2021-09-11T19:52:05.557</time></trkpt><trkpt lat="55.8020950" lon="49.1500610"><time>2021-09-11T19:52:06.557</time></trkpt><trkpt lat="55.8020750" lon="49.1500620"><time>2021-09-11T19:52:07.557</time></trkpt><trkpt lat="55.8020540" lon="49.1500620"><time>2021-09-11T19:52:08.557</time></trkpt><trkpt lat="55.8020330" lon="49.1500620"><time>2021-09-11T19:52:09.557</time></trkpt><trkpt lat="55.8020110" lon="49.1500630"><time>2021-09-11T19:52:10.557</time></trkpt><trkpt lat="55.8019900" lon="49.1500670"><time>2021-09-11T19:52:11.557</time></trkpt><trkpt lat="55.8019690" lon="49.1500700"><time>2021-09-11T19:52:12.557</time></trkpt><trkpt lat="55.8019470" lon="49.1500740"><time>2021-09-11T19:52:14.557</time></trkpt><trkpt lat="55.8019240" lon="49.1500770"><time>2021-09-11T19:52:15.557</time></trkpt><trkpt lat="55.8019030" lon="49.1500770"><time>2021-09-11T19:52:15.557</time></trkpt><trkpt lat="55.8018810" lon="49.1500770"><time>2021-09-11T19:52:16.557</time></trkpt><trkpt lat="55.8018490" lon="49.1500800"><time>2021-09-11T19:52:18.557</time></trkpt><trkpt lat="55.8018380" lon="49.1500810"><time>2021-09-11T19:52:18.557</time></trkpt><trkpt lat="55.8018130" lon="49.1500860"><time>2021-09-11T19:52:19.557</time></trkpt><trkpt lat="55.8017760" lon="49.1500910"><time>2021-09-11T19:52:21.557</time></trkpt><trkpt lat="55.8017630" lon="49.1500920"><time>2021-09-11T19:52:21.557</time></trkpt><trkpt lat="55.8017400" lon="49.1500960"><time>2021-09-11T19:52:22.557</time></trkpt><trkpt lat="55.8017140" lon="49.1501010"><time>2021-09-11T19:52:23.557</time></trkpt><trkpt lat="55.8016880" lon="49.1501070"><time>2021-09-11T19:52:24.557</time></trkpt><trkpt lat="55.8016590" lon="49.1501130"><time>2021-09-11T19:52:25.557</time></trkpt><trkpt lat="55.8016340" lon="49.1501160"><time>2021-09-11T19:52:26.557</time></trkpt><trkpt lat="55.8016110" lon="49.1501150"><time>2021-09-11T19:52:27.557</time></trkpt><trkpt lat="55.8015910" lon="49.1501150"><time>2021-09-11T19:52:28.557</time></trkpt><trkpt lat="55.8015690" lon="49.1501140"><time>2021-09-11T19:52:29.557</time></trkpt><trkpt lat="55.8015470" lon="49.1501130"><time>2021-09-11T19:52:30.557</time></trkpt><trkpt lat="55.8015260" lon="49.1501140"><time>2021-09-11T19:52:31.557</time></trkpt><trkpt lat="55.8015050" lon="49.1501140"><time>2021-09-11T19:52:32.557</time></trkpt><trkpt lat="55.8014840" lon="49.1501150"><time>2021-09-11T19:52:33.557</time></trkpt><trkpt lat="55.8014610" lon="49.1501170"><time>2021-09-11T19:52:34.557</time></trkpt><trkpt lat="55.8014410" lon="49.1501190"><time>2021-09-11T19:52:35.557</time></trkpt><trkpt lat="55.8014190" lon="49.1501230"><time>2021-09-11T19:52:36.557</time></trkpt><trkpt lat="55.8013960" lon="49.1501280"><time>2021-09-11T19:52:37.557</time></trkpt><trkpt lat="55.8013730" lon="49.1501350"><time>2021-09-11T19:52:38.557</time></trkpt><trkpt lat="55.8013510" lon="49.1501440"><time>2021-09-11T19:52:39.557</time></trkpt><trkpt lat="55.8013290" lon="49.1501520"><time>2021-09-11T19:52:40.557</time></trkpt><trkpt lat="55.8013050" lon="49.1501610"><time>2021-09-11T19:52:41.557</time></trkpt><trkpt lat="55.8012830" lon="49.1501710"><time>2021-09-11T19:52:42.557</time></trkpt><trkpt lat="55.8012610" lon="49.1501790"><time>2021-09-11T19:52:43.557</time></trkpt><trkpt lat="55.8012400" lon="49.1501890"><time>2021-09-11T19:52:44.557</time></trkpt><trkpt lat="55.8012200" lon="49.1502010"><time>2021-09-11T19:52:45.557</time></trkpt><trkpt lat="55.8011990" lon="49.1502150"><time>2021-09-11T19:52:46.557</time></trkpt><trkpt lat="55.8011780" lon="49.1502320"><time>2021-09-11T19:52:47.557</time></trkpt><trkpt lat="55.8011590" lon="49.1502530"><time>2021-09-11T19:52:48.557</time></trkpt><trkpt lat="55.8011410" lon="49.1502780"><time>2021-09-11T19:52:49.557</time></trkpt><trkpt lat="55.8011210" lon="49.1503050"><time>2021-09-11T19:52:50.557</time></trkpt><trkpt lat="55.8011040" lon="49.1503340"><time>2021-09-11T19:52:51.557</time></trkpt><trkpt lat="55.8010870" lon="49.1503640"><time>2021-09-11T19:52:52.557</time></trkpt><trkpt lat="55.8010640" lon="49.1504110"><time>2021-09-11T19:52:54.557</time></trkpt><trkpt lat="55.8010560" lon="49.1504270"><time>2021-09-11T19:52:54.557</time></trkpt><trkpt lat="55.8010410" lon="49.1504590"><time>2021-09-11T19:52:55.557</time></trkpt><trkpt lat="55.8010180" lon="49.1505080"><time>2021-09-11T19:52:57.557</time></trkpt><trkpt lat="55.8010090" lon="49.1505250"><time>2021-09-11T19:52:57.557</time></trkpt><trkpt lat="55.8009940" lon="49.1505570"><time>2021-09-11T19:52:58.557</time></trkpt><trkpt lat="55.8009710" lon="49.1506060"><time>2021-09-11T19:53:00.557</time></trkpt><trkpt lat="55.8009630" lon="49.1506230"><time>2021-09-11T19:53:00.557</time></trkpt><trkpt lat="55.8009480" lon="49.1506570"><time>2021-09-11T19:53:01.557</time></trkpt><trkpt lat="55.8009340" lon="49.1506920"><time>2021-09-11T19:53:02.557</time></trkpt><trkpt lat="55.8009190" lon="49.1507300"><time>2021-09-11T19:53:03.557</time></trkpt><trkpt lat="55.8009060" lon="49.1507690"><time>2021-09-11T19:53:04.557</time></trkpt><trkpt lat="55.8008910" lon="49.1508100"><time>2021-09-11T19:53:05.557</time></trkpt><trkpt lat="55.8008780" lon="49.1508480"><time>2021-09-11T19:53:06.557</time></trkpt><trkpt lat="55.8008650" lon="49.1508860"><time>2021-09-11T19:53:07.557</time></trkpt><trkpt lat="55.8008500" lon="49.1509240"><time>2021-09-11T19:53:08.557</time></trkpt><trkpt lat="55.8008360" lon="49.1509620"><time>2021-09-11T19:53:09.557</time></trkpt><trkpt lat="55.8008220" lon="49.1509990"><time>2021-09-11T19:53:10.557</time></trkpt><trkpt lat="55.8008090" lon="49.1510340"><time>2021-09-11T19:53:11.557</time></trkpt><trkpt lat="55.8007950" lon="49.1510700"><time>2021-09-11T19:53:13.557</time></trkpt><trkpt lat="55.8007820" lon="49.1511050"><time>2021-09-11T19:53:14.557</time></trkpt><trkpt lat="55.8007700" lon="49.1511400"><time>2021-09-11T19:53:14.557</time></trkpt><trkpt lat="55.8007580" lon="49.1511740"><time>2021-09-11T19:53:15.557</time></trkpt><trkpt lat="55.8007460" lon="49.1512090"><time>2021-09-11T19:53:16.557</time></trkpt><trkpt lat="55.8007360" lon="49.1512440"><time>2021-09-11T19:53:17.557</time></trkpt><trkpt lat="55.8007240" lon="49.1512800"><time>2021-09-11T19:53:18.557</time></trkpt><trkpt lat="55.8007040" lon="49.1513380"><time>2021-09-11T19:53:20.557</time></trkpt><trkpt lat="55.8006970" lon="49.1513570"><time>2021-09-11T19:53:20.557</time></trkpt><trkpt lat="55.8006850" lon="49.1513940"><time>2021-09-11T19:53:21.557</time></trkpt><trkpt lat="55.8006710" lon="49.1514300"><time>2021-09-11T19:53:22.557</time></trkpt><trkpt lat="55.8006570" lon="49.1514630"><time>2021-09-11T19:53:23.557</time></trkpt><trkpt lat="55.8006410" lon="49.1515010"><time>2021-09-11T19:53:24.557</time></trkpt><trkpt lat="55.8006250" lon="49.1515370"><time>2021-09-11T19:53:25.557</time></trkpt><trkpt lat="55.8006100" lon="49.1515710"><time>2021-09-11T19:53:26.557</time></trkpt><trkpt lat="55.8005940" lon="49.1516050"><time>2021-09-11T19:53:27.557</time></trkpt><trkpt lat="55.8005820" lon="49.1516370"><time>2021-09-11T19:53:28.557</time></trkpt><trkpt lat="55.8005720" lon="49.1516710"><time>2021-09-11T19:53:29.557</time></trkpt><trkpt lat="55.8005680" lon="49.1517040"><time>2021-09-11T19:53:30.557</time></trkpt><trkpt lat="55.8005710" lon="49.1517280"><time>2021-09-11T19:53:31.557</time></trkpt><trkpt lat="55.8005800" lon="49.1517460"><time>2021-09-11T19:53:32.557</time></trkpt><trkpt lat="55.8005950" lon="49.1517550"><time>2021-09-11T19:53:33.557</time></trkpt><trkpt lat="55.8006130" lon="49.1517560"><time>2021-09-11T19:53:34.557</time></trkpt><trkpt lat="55.8006350" lon="49.1517490"><time>2021-09-11T19:53:35.557</time></trkpt><trkpt lat="55.8006570" lon="49.1517400"><time>2021-09-11T19:53:36.557</time></trkpt><trkpt lat="55.8006790" lon="49.1517260"><time>2021-09-11T19:53:37.557</time></trkpt><trkpt lat="55.8007020" lon="49.1517070"><time>2021-09-11T19:53:38.557</time></trkpt><trkpt lat="55.8007250" lon="49.1516880"><time>2021-09-11T19:53:39.557</time></trkpt><trkpt lat="55.8007490" lon="49.1516690"><time>2021-09-11T19:53:40.557</time></trkpt><trkpt lat="55.8007730" lon="49.1516510"><time>2021-09-11T19:53:41.557</time></trkpt><trkpt lat="55.8007950" lon="49.1516340"><time>2021-09-11T19:53:42.557</time></trkpt><trkpt lat="55.8008190" lon="49.1516160"><time>2021-09-11T19:53:43.557</time></trkpt><trkpt lat="55.8008580" lon="49.1515860"><time>2021-09-11T19:53:45.557</time></trkpt><trkpt lat="55.8008710" lon="49.1515750"><time>2021-09-11T19:53:45.557</time></trkpt><trkpt lat="55.8008990" lon="49.1515560"><time>2021-09-11T19:53:46.557</time></trkpt><trkpt lat="55.8009380" lon="49.1515310"><time>2021-09-11T19:53:48.557</time></trkpt><trkpt lat="55.8009510" lon="49.1515220"><time>2021-09-11T19:53:48.557</time></trkpt><trkpt lat="55.8009900" lon="49.1514930"><time>2021-09-11T19:53:50.557</time></trkpt><trkpt lat="55.8010030" lon="49.1514820"><time>2021-09-11T19:53:50.557</time></trkpt><trkpt lat="55.8010410" lon="49.1514520"><time>2021-09-11T19:53:52.557</time></trkpt><trkpt lat="55.8010530" lon="49.1514430"><time>2021-09-11T19:53:52.557</time></trkpt><trkpt lat="55.8010780" lon="49.1514240"><time>2021-09-11T19:53:53.557</time></trkpt><trkpt lat="55.8011040" lon="49.1514060"><time>2021-09-11T19:53:54.557</time></trkpt><trkpt lat="55.8011440" lon="49.1513780"><time>2021-09-11T19:53:56.557</time></trkpt><trkpt lat="55.8011570" lon="49.1513680"><time>2021-09-11T19:53:56.557</time></trkpt><trkpt lat="55.8011810" lon="49.1513510"><time>2021-09-11T19:53:57.557</time></trkpt><trkpt lat="55.8012060" lon="49.1513310"><time>2021-09-11T19:53:58.557</time></trkpt><trkpt lat="55.8012310" lon="49.1513100"><time>2021-09-11T19:53:59.557</time></trkpt><trkpt lat="55.8012580" lon="49.1512880"><time>2021-09-11T19:54:00.557</time></trkpt><trkpt lat="55.8012840" lon="49.1512660"><time>2021-09-11T19:54:01.557</time></trkpt><trkpt lat="55.8013070" lon="49.1512430"><time>2021-09-11T19:54:02.557</time></trkpt><trkpt lat="55.8013310" lon="49.1512170"><time>2021-09-11T19:54:03.557</time></trkpt><trkpt lat="55.8013550" lon="49.1511870"><time>2021-09-11T19:54:04.557</time></trkpt><trkpt lat="55.8013810" lon="49.1511560"><time>2021-09-11T19:54:05.557</time></trkpt><trkpt lat="55.8014070" lon="49.1511280"><time>2021-09-11T19:54:06.557</time></trkpt><trkpt lat="55.8014300" lon="49.1511050"><time>2021-09-11T19:54:07.557</time></trkpt><trkpt lat="55.8014540" lon="49.1510850"><time>2021-09-11T19:54:08.557</time></trkpt><trkpt lat="55.8014780" lon="49.1510660"><time>2021-09-11T19:54:09.557</time></trkpt><trkpt lat="55.8015030" lon="49.1510470"><time>2021-09-11T19:54:10.557</time></trkpt><trkpt lat="55.8015280" lon="49.1510280"><time>2021-09-11T19:54:11.557</time></trkpt><trkpt lat="55.8015640" lon="49.1510010"><time>2021-09-11T19:54:13.557</time></trkpt><trkpt lat="55.8015750" lon="49.1509930"><time>2021-09-11T19:54:13.557</time></trkpt><trkpt lat="55.8015980" lon="49.1509770"><time>2021-09-11T19:54:14.557</time></trkpt><trkpt lat="55.8016330" lon="49.1509540"><time>2021-09-11T19:54:16.557</time></trkpt><trkpt lat="55.8016450" lon="49.1509460"><time>2021-09-11T19:54:16.557</time></trkpt><trkpt lat="55.8016690" lon="49.1509300"><time>2021-09-11T19:54:17.557</time></trkpt><trkpt lat="55.8017020" lon="49.1509060"><time>2021-09-11T19:54:19.557</time></trkpt><trkpt lat="55.8017130" lon="49.1508970"><time>2021-09-11T19:54:19.557</time></trkpt><trkpt lat="55.8017350" lon="49.1508800"><time>2021-09-11T19:54:20.557</time></trkpt><trkpt lat="55.8017600" lon="49.1508620"><time>2021-09-11T19:54:21.557</time></trkpt><trkpt lat="55.8017830" lon="49.1508460"><time>2021-09-11T19:54:22.557</time></trkpt><trkpt lat="55.8018060" lon="49.1508310"><time>2021-09-11T19:54:23.557</time></trkpt><trkpt lat="55.8018310" lon="49.1508130"><time>2021-09-11T19:54:24.557</time></trkpt><trkpt lat="55.8018560" lon="49.1507970"><time>2021-09-11T19:54:25.557</time></trkpt><trkpt lat="55.8018780" lon="49.1507800"><time>2021-09-11T19:54:26.557</time></trkpt><trkpt lat="55.8019030" lon="49.1507650"><time>2021-09-11T19:54:27.557</time></trkpt><trkpt lat="55.8019260" lon="49.1507480"><time>2021-09-11T19:54:28.557</time></trkpt><trkpt lat="55.8019590" lon="49.1507210"><time>2021-09-11T19:54:30.557</time></trkpt><trkpt lat="55.8019700" lon="49.1507120"><time>2021-09-11T19:54:30.557</time></trkpt><trkpt lat="55.8019940" lon="49.1506950"><time>2021-09-11T19:54:31.557</time></trkpt><trkpt lat="55.8020180" lon="49.1506830"><time>2021-09-11T19:54:32.557</time></trkpt><trkpt lat="55.8020540" lon="49.1506670"><time>2021-09-11T19:54:34.557</time></trkpt><trkpt lat="55.8020650" lon="49.1506620"><time>2021-09-11T19:54:34.557</time></trkpt><trkpt lat="55.8020890" lon="49.1506530"><time>2021-09-11T19:54:35.557</time></trkpt><trkpt lat="55.8021140" lon="49.1506400"><time>2021-09-11T19:54:36.557</time></trkpt><trkpt lat="55.8021530" lon="49.1506140"><time>2021-09-11T19:54:38.557</time></trkpt><trkpt lat="55.8021660" lon="49.1506040"><time>2021-09-11T19:54:38.557</time></trkpt><trkpt lat="55.8021920" lon="49.1505830"><time>2021-09-11T19:54:39.557</time></trkpt><trkpt lat="55.8022320" lon="49.1505530"><time>2021-09-11T19:54:41.557</time></trkpt><trkpt lat="55.8022440" lon="49.1505440"><time>2021-09-11T19:54:41.557</time></trkpt><trkpt lat="55.8022690" lon="49.1505260"><time>2021-09-11T19:54:42.557</time></trkpt><trkpt lat="55.8022960" lon="49.1505080"><time>2021-09-11T19:54:43.557</time></trkpt><trkpt lat="55.8023220" lon="49.1504910"><time>2021-09-11T19:54:44.557</time></trkpt><trkpt lat="55.8023480" lon="49.1504720"><time>2021-09-11T19:54:45.557</time></trkpt><trkpt lat="55.8023730" lon="49.1504510"><time>2021-09-11T19:54:46.557</time></trkpt><trkpt lat="55.8023980" lon="49.1504290"><time>2021-09-11T19:54:47.557</time></trkpt><trkpt lat="55.8024230" lon="49.1504080"><time>2021-09-11T19:54:48.557</time></trkpt><trkpt lat="55.8024500" lon="49.1503860"><time>2021-09-11T19:54:49.557</time></trkpt><trkpt lat="55.8024760" lon="49.1503640"><time>2021-09-11T19:54:50.557</time></trkpt><trkpt lat="55.8025030" lon="49.1503430"><time>2021-09-11T19:54:51.557</time></trkpt><trkpt lat="55.8025290" lon="49.1503200"><time>2021-09-11T19:54:52.557</time></trkpt><trkpt lat="55.8025560" lon="49.1502960"><time>2021-09-11T19:54:53.557</time></trkpt><trkpt lat="55.8025800" lon="49.1502760"><time>2021-09-11T19:54:54.557</time></trkpt><trkpt lat="55.8026030" lon="49.1502560"><time>2021-09-11T19:54:55.557</time></trkpt><trkpt lat="55.8026270" lon="49.1502370"><time>2021-09-11T19:54:56.557</time></trkpt><trkpt lat="55.8026520" lon="49.1502190"><time>2021-09-11T19:54:57.557</time></trkpt><trkpt lat="55.8026750" lon="49.1502030"><time>2021-09-11T19:54:58.557</time></trkpt><trkpt lat="55.8026980" lon="49.1501880"><time>2021-09-11T19:54:59.557</time></trkpt><trkpt lat="55.8027200" lon="49.1501730"><time>2021-09-11T19:55:00.557</time></trkpt><trkpt lat="55.8027420" lon="49.1501580"><time>2021-09-11T19:55:01.557</time></trkpt><trkpt lat="55.8027650" lon="49.1501390"><time>2021-09-11T19:55:02.557</time></trkpt><trkpt lat="55.8027890" lon="49.1501210"><time>2021-09-11T19:55:03.557</time></trkpt><trkpt lat="55.8028120" lon="49.1501040"><time>2021-09-11T19:55:04.557</time></trkpt><trkpt lat="55.8028350" lon="49.1500860"><time>2021-09-11T19:55:05.557</time></trkpt><trkpt lat="55.8028590" lon="49.1500690"><time>2021-09-11T19:55:06.557</time></trkpt><trkpt lat="55.8028830" lon="49.1500520"><time>2021-09-11T19:55:07.557</time></trkpt><trkpt lat="55.8029080" lon="49.1500370"><time>2021-09-11T19:55:08.557</time></trkpt><trkpt lat="55.8029350" lon="49.1500230"><time>2021-09-11T19:55:09.557</time></trkpt><trkpt lat="55.8029590" lon="49.1500090"><time>2021-09-11T19:55:10.557</time></trkpt><trkpt lat="55.8029960" lon="49.1499860"><time>2021-09-11T19:55:12.557</time></trkpt><trkpt lat="55.8030070" lon="49.1499780"><time>2021-09-11T19:55:12.557</time></trkpt><trkpt lat="55.8030290" lon="49.1499610"><time>2021-09-11T19:55:13.557</time></trkpt><trkpt lat="55.8030630" lon="49.1499370"><time>2021-09-11T19:55:15.557</time></trkpt><trkpt lat="55.8030730" lon="49.1499290"><time>2021-09-11T19:55:15.557</time></trkpt><trkpt lat="55.8030960" lon="49.1499140"><time>2021-09-11T19:55:16.557</time></trkpt><trkpt lat="55.8031300" lon="49.1498880"><time>2021-09-11T19:55:18.557</time></trkpt><trkpt lat="55.8031410" lon="49.1498790"><time>2021-09-11T19:55:18.557</time></trkpt><trkpt lat="55.8031640" lon="49.1498630"><time>2021-09-11T19:55:19.557</time></trkpt><trkpt lat="55.8031880" lon="49.1498480"><time>2021-09-11T19:55:20.557</time></trkpt><trkpt lat="55.8032100" lon="49.1498330"><time>2021-09-11T19:55:21.557</time></trkpt><trkpt lat="55.8032330" lon="49.1498180"><time>2021-09-11T19:55:22.557</time></trkpt><trkpt lat="55.8032560" lon="49.1497990"><time>2021-09-11T19:55:23.557</time></trkpt><trkpt lat="55.8032790" lon="49.1497820"><time>2021-09-11T19:55:24.557</time></trkpt><trkpt lat="55.8033040" lon="49.1497670"><time>2021-09-11T19:55:24.557</time></trkpt><trkpt lat="55.8033280" lon="49.1497530"><time>2021-09-11T19:55:25.557</time></trkpt><trkpt lat="55.8033520" lon="49.1497380"><time>2021-09-11T19:55:26.557</time></trkpt><trkpt lat="55.8033890" lon="49.1497160"><time>2021-09-11T19:55:28.557</time></trkpt><trkpt lat="55.8034010" lon="49.1497080"><time>2021-09-11T19:55:28.557</time></trkpt><trkpt lat="55.8034260" lon="49.1496920"><time>2021-09-11T19:55:29.557</time></trkpt><trkpt lat="55.8034650" lon="49.1496650"><time>2021-09-11T19:55:31.557</time></trkpt><trkpt lat="55.8034780" lon="49.1496550"><time>2021-09-11T19:55:31.557</time></trkpt><trkpt lat="55.8035020" lon="49.1496350"><time>2021-09-11T19:55:32.557</time></trkpt><trkpt lat="55.8035270" lon="49.1496130"><time>2021-09-11T19:55:33.557</time></trkpt><trkpt lat="55.8035530" lon="49.1495890"><time>2021-09-11T19:55:34.557</time></trkpt><trkpt lat="55.8035780" lon="49.1495690"><time>2021-09-11T19:55:35.557</time></trkpt><trkpt lat="55.8036020" lon="49.1495490"><time>2021-09-11T19:55:36.557</time></trkpt><trkpt lat="55.8036270" lon="49.1495310"><time>2021-09-11T19:55:37.557</time></trkpt><trkpt lat="55.8036640" lon="49.1495040"><time>2021-09-11T19:55:39.557</time></trkpt><trkpt lat="55.8036760" lon="49.1494930"><time>2021-09-11T19:55:39.557</time></trkpt><trkpt lat="55.8037000" lon="49.1494710"><time>2021-09-11T19:55:40.557</time></trkpt><trkpt lat="55.8037230" lon="49.1494510"><time>2021-09-11T19:55:41.557</time></trkpt><trkpt lat="55.8037460" lon="49.1494300"><time>2021-09-11T19:55:42.557</time></trkpt><trkpt lat="55.8037700" lon="49.1494090"><time>2021-09-11T19:55:43.557</time></trkpt><trkpt lat="55.8038060" lon="49.1493750"><time>2021-09-11T19:55:45.557</time></trkpt><trkpt lat="55.8038180" lon="49.1493630"><time>2021-09-11T19:55:45.557</time></trkpt><trkpt lat="55.8038430" lon="49.1493390"><time>2021-09-11T19:55:46.557</time></trkpt><trkpt lat="55.8038680" lon="49.1493140"><time>2021-09-11T19:55:47.557</time></trkpt><trkpt lat="55.8038930" lon="49.1492890"><time>2021-09-11T19:55:48.557</time></trkpt><trkpt lat="55.8039180" lon="49.1492640"><time>2021-09-11T19:55:49.557</time></trkpt><trkpt lat="55.8039430" lon="49.1492400"><time>2021-09-11T19:55:50.557</time></trkpt><trkpt lat="55.8039670" lon="49.1492180"><time>2021-09-11T19:55:51.557</time></trkpt><trkpt lat="55.8039900" lon="49.1491930"><time>2021-09-11T19:55:52.557</time></trkpt><trkpt lat="55.8040140" lon="49.1491680"><time>2021-09-11T19:55:53.557</time></trkpt><trkpt lat="55.8040370" lon="49.1491420"><time>2021-09-11T19:55:54.557</time></trkpt><trkpt lat="55.8040610" lon="49.1491150"><time>2021-09-11T19:55:55.557</time></trkpt><trkpt lat="55.8040840" lon="49.1490880"><time>2021-09-11T19:55:56.557</time></trkpt><trkpt lat="55.8041060" lon="49.1490600"><time>2021-09-11T19:55:57.557</time></trkpt><trkpt lat="55.8041290" lon="49.1490320"><time>2021-09-11T19:55:58.557</time></trkpt><trkpt lat="55.8041510" lon="49.1490040"><time>2021-09-11T19:55:59.557</time></trkpt><trkpt lat="55.8041750" lon="49.1489760"><time>2021-09-11T19:56:00.557</time></trkpt><trkpt lat="55.8041980" lon="49.1489490"><time>2021-09-11T19:56:01.557</time></trkpt><trkpt lat="55.8042210" lon="49.1489220"><time>2021-09-11T19:56:02.557</time></trkpt><trkpt lat="55.8042450" lon="49.1488940"><time>2021-09-11T19:56:03.557</time></trkpt><trkpt lat="55.8042690" lon="49.1488670"><time>2021-09-11T19:56:04.557</time></trkpt><trkpt lat="55.8043020" lon="49.1488300"><time>2021-09-11T19:56:06.557</time></trkpt><trkpt lat="55.8043120" lon="49.1488190"><time>2021-09-11T19:56:06.557</time></trkpt><trkpt lat="55.8043330" lon="49.1487960"><time>2021-09-11T19:56:07.557</time></trkpt><trkpt lat="55.8043530" lon="49.1487740"><time>2021-09-11T19:56:08.557</time></trkpt><trkpt lat="55.8043840" lon="49.1487410"><time>2021-09-11T19:56:10.557</time></trkpt><trkpt lat="55.8043940" lon="49.1487290"><time>2021-09-11T19:56:10.557</time></trkpt><trkpt lat="55.8044150" lon="49.1487060"><time>2021-09-11T19:56:11.557</time></trkpt><trkpt lat="55.8044460" lon="49.1486690"><time>2021-09-11T19:56:13.557</time></trkpt><trkpt lat="55.8044570" lon="49.1486560"><time>2021-09-11T19:56:13.557</time></trkpt><trkpt lat="55.8044780" lon="49.1486300"><time>2021-09-11T19:56:14.557</time></trkpt><trkpt lat="55.8045100" lon="49.1485870"><time>2021-09-11T19:56:16.557</time></trkpt><trkpt lat="55.8045200" lon="49.1485710"><time>2021-09-11T19:56:16.557</time></trkpt><trkpt lat="55.8045410" lon="49.1485410"><time>2021-09-11T19:56:17.557</time></trkpt><trkpt lat="55.8045610" lon="49.1485100"><time>2021-09-11T19:56:18.557</time></trkpt><trkpt lat="55.8045810" lon="49.1484800"><time>2021-09-11T19:56:19.557</time></trkpt><trkpt lat="55.8046030" lon="49.1484460"><time>2021-09-11T19:56:20.557</time></trkpt><trkpt lat="55.8046220" lon="49.1484160"><time>2021-09-11T19:56:21.557</time></trkpt><trkpt lat="55.8046410" lon="49.1483870"><time>2021-09-11T19:56:22.557</time></trkpt><trkpt lat="55.8046600" lon="49.1483580"><time>2021-09-11T19:56:23.557</time></trkpt><trkpt lat="55.8046790" lon="49.1483280"><time>2021-09-11T19:56:24.557</time></trkpt><trkpt lat="55.8046970" lon="49.1482990"><time>2021-09-11T19:56:25.557</time></trkpt><trkpt lat="55.8047170" lon="49.1482680"><time>2021-09-11T19:56:26.557</time></trkpt><trkpt lat="55.8047350" lon="49.1482410"><time>2021-09-11T19:56:27.557</time></trkpt><trkpt lat="55.8047530" lon="49.1482140"><time>2021-09-11T19:56:28.557</time></trkpt><trkpt lat="55.8047800" lon="49.1481740"><time>2021-09-11T19:56:30.557</time></trkpt><trkpt lat="55.8047890" lon="49.1481600"><time>2021-09-11T19:56:30.557</time></trkpt><trkpt lat="55.8048090" lon="49.1481280"><time>2021-09-11T19:56:31.557</time></trkpt><trkpt lat="55.8048280" lon="49.1481000"><time>2021-09-11T19:56:32.557</time></trkpt><trkpt lat="55.8048470" lon="49.1480680"><time>2021-09-11T19:56:33.557</time></trkpt><trkpt lat="55.8048660" lon="49.1480350"><time>2021-09-11T19:56:34.557</time></trkpt><trkpt lat="55.8048860" lon="49.1479990"><time>2021-09-11T19:56:35.557</time></trkpt><trkpt lat="55.8049050" lon="49.1479680"><time>2021-09-11T19:56:36.557</time></trkpt><trkpt lat="55.8049310" lon="49.1479210"><time>2021-09-11T19:56:38.557</time></trkpt><trkpt lat="55.8049390" lon="49.1479040"><time>2021-09-11T19:56:38.557</time></trkpt><trkpt lat="55.8049570" lon="49.1478710"><time>2021-09-11T19:56:39.557</time></trkpt><trkpt lat="55.8049750" lon="49.1478380"><time>2021-09-11T19:56:40.557</time></trkpt><trkpt lat="55.8049930" lon="49.1478030"><time>2021-09-11T19:56:41.557</time></trkpt><trkpt lat="55.8050130" lon="49.1477680"><time>2021-09-11T19:56:42.557</time></trkpt><trkpt lat="55.8050400" lon="49.1477190"><time>2021-09-11T19:56:44.557</time></trkpt><trkpt lat="55.8050480" lon="49.1477020"><time>2021-09-11T19:56:44.557</time></trkpt><trkpt lat="55.8050660" lon="49.1476700"><time>2021-09-11T19:56:45.557</time></trkpt><trkpt lat="55.8050840" lon="49.1476360"><time>2021-09-11T19:56:46.557</time></trkpt><trkpt lat="55.8051040" lon="49.1475970"><time>2021-09-11T19:56:47.557</time></trkpt><trkpt lat="55.8051210" lon="49.1475620"><time>2021-09-11T19:56:48.557</time></trkpt><trkpt lat="55.8051380" lon="49.1475270"><time>2021-09-11T19:56:49.557</time></trkpt><trkpt lat="55.8051640" lon="49.1474740"><time>2021-09-11T19:56:51.557</time></trkpt><trkpt lat="55.8051720" lon="49.1474560"><time>2021-09-11T19:56:51.557</time></trkpt><trkpt lat="55.8051900" lon="49.1474200"><time>2021-09-11T19:56:52.557</time></trkpt><trkpt lat="55.8052070" lon="49.1473860"><time>2021-09-11T19:56:53.557</time></trkpt><trkpt lat="55.8052240" lon="49.1473510"><time>2021-09-11T19:56:54.557</time></trkpt><trkpt lat="55.8052400" lon="49.1473160"><time>2021-09-11T19:56:55.557</time></trkpt><trkpt lat="55.8052570" lon="49.1472820"><time>2021-09-11T19:56:56.557</time></trkpt><trkpt lat="55.8052740" lon="49.1472480"><time>2021-09-11T19:56:57.557</time></trkpt><trkpt lat="55.8052990" lon="49.1471950"><time>2021-09-11T19:56:59.557</time></trkpt><trkpt lat="55.8053070" lon="49.1471750"><time>2021-09-11T19:56:59.557</time></trkpt><trkpt lat="55.8053240" lon="49.1471360"><time>2021-09-11T19:57:00.557</time></trkpt><trkpt lat="55.8053400" lon="49.1470980"><time>2021-09-11T19:57:01.557</time></trkpt><trkpt lat="55.8053560" lon="49.1470600"><time>2021-09-11T19:57:02.557</time></trkpt><trkpt lat="55.8053730" lon="49.1470220"><time>2021-09-11T19:57:03.557</time></trkpt><trkpt lat="55.8053980" lon="49.1469710"><time>2021-09-11T19:57:05.557</time></trkpt><trkpt lat="55.8054060" lon="49.1469530"><time>2021-09-11T19:57:05.557</time></trkpt><trkpt lat="55.8054210" lon="49.1469160"><time>2021-09-11T19:57:06.557</time></trkpt><trkpt lat="55.8054360" lon="49.1468780"><time>2021-09-11T19:57:07.557</time></trkpt><trkpt lat="55.8054510" lon="49.1468370"><time>2021-09-11T19:57:08.557</time></trkpt><trkpt lat="55.8054650" lon="49.1468000"><time>2021-09-11T19:57:09.557</time></trkpt><trkpt lat="55.8054790" lon="49.1467610"><time>2021-09-11T19:57:10.557</time></trkpt><trkpt lat="55.8054940" lon="49.1467220"><time>2021-09-11T19:57:11.557</time></trkpt><trkpt lat="55.8055080" lon="49.1466840"><time>2021-09-11T19:57:12.557</time></trkpt><trkpt lat="55.8055210" lon="49.1466480"><time>2021-09-11T19:57:13.557</time></trkpt><trkpt lat="55.8055350" lon="49.1466110"><time>2021-09-11T19:57:14.557</time></trkpt><trkpt lat="55.8055490" lon="49.1465750"><time>2021-09-11T19:57:15.557</time></trkpt><trkpt lat="55.8055630" lon="49.1465400"><time>2021-09-11T19:57:16.557</time></trkpt><trkpt lat="55.8055770" lon="49.1465040"><time>2021-09-11T19:57:17.557</time></trkpt><trkpt lat="55.8055900" lon="49.1464650"><time>2021-09-11T19:57:18.557</time></trkpt><trkpt lat="55.8056030" lon="49.1464290"><time>2021-09-11T19:57:19.557</time></trkpt><trkpt lat="55.8056170" lon="49.1463920"><time>2021-09-11T19:57:20.557</time></trkpt><trkpt lat="55.8056300" lon="49.1463530"><time>2021-09-11T19:57:21.557</time></trkpt><trkpt lat="55.8056430" lon="49.1463150"><time>2021-09-11T19:57:22.557</time></trkpt><trkpt lat="55.8056560" lon="49.1462740"><time>2021-09-11T19:57:23.557</time></trkpt><trkpt lat="55.8056700" lon="49.1462350"><time>2021-09-11T19:57:24.557</time></trkpt><trkpt lat="55.8056880" lon="49.1461760"><time>2021-09-11T19:57:26.557</time></trkpt><trkpt lat="55.8056940" lon="49.1461560"><time>2021-09-11T19:57:26.557</time></trkpt><trkpt lat="55.8057060" lon="49.1461150"><time>2021-09-11T19:57:27.557</time></trkpt><trkpt lat="55.8057250" lon="49.1460530"><time>2021-09-11T19:57:29.557</time></trkpt><trkpt lat="55.8057310" lon="49.1460310"><time>2021-09-11T19:57:29.557</time></trkpt><trkpt lat="55.8057440" lon="49.1459900"><time>2021-09-11T19:57:30.557</time></trkpt><trkpt lat="55.8057630" lon="49.1459280"><time>2021-09-11T19:57:32.557</time></trkpt><trkpt lat="55.8057690" lon="49.1459060"><time>2021-09-11T19:57:32.557</time></trkpt><trkpt lat="55.8057800" lon="49.1458620"><time>2021-09-11T19:57:33.557</time></trkpt><trkpt lat="55.8057920" lon="49.1458170"><time>2021-09-11T19:57:34.557</time></trkpt><trkpt lat="55.8058100" lon="49.1457550"><time>2021-09-11T19:57:36.557</time></trkpt><trkpt lat="55.8058160" lon="49.1457350"><time>2021-09-11T19:57:36.557</time></trkpt><trkpt lat="55.8058270" lon="49.1456930"><time>2021-09-11T19:57:37.557</time></trkpt><trkpt lat="55.8058390" lon="49.1456510"><time>2021-09-11T19:57:38.557</time></trkpt><trkpt lat="55.8058500" lon="49.1456090"><time>2021-09-11T19:57:39.557</time></trkpt><trkpt lat="55.8058600" lon="49.1455710"><time>2021-09-11T19:57:40.557</time></trkpt><trkpt lat="55.8058690" lon="49.1455320"><time>2021-09-11T19:57:41.557</time></trkpt><trkpt lat="55.8058800" lon="49.1454910"><time>2021-09-11T19:57:42.557</time></trkpt><trkpt lat="55.8058920" lon="49.1454450"><time>2021-09-11T19:57:43.557</time></trkpt><trkpt lat="55.8059040" lon="49.1454000"><time>2021-09-11T19:57:44.557</time></trkpt><trkpt lat="55.8059150" lon="49.1453580"><time>2021-09-11T19:57:45.557</time></trkpt><trkpt lat="55.8059260" lon="49.1453180"><time>2021-09-11T19:57:46.557</time></trkpt><trkpt lat="55.8059370" lon="49.1452770"><time>2021-09-11T19:57:47.557</time></trkpt><trkpt lat="55.8059490" lon="49.1452330"><time>2021-09-11T19:57:48.557</time></trkpt><trkpt lat="55.8059600" lon="49.1451890"><time>2021-09-11T19:57:49.557</time></trkpt><trkpt lat="55.8059720" lon="49.1451420"><time>2021-09-11T19:57:50.557</time></trkpt><trkpt lat="55.8059820" lon="49.1450980"><time>2021-09-11T19:57:51.557</time></trkpt><trkpt lat="55.8059920" lon="49.1450550"><time>2021-09-11T19:57:52.557</time></trkpt><trkpt lat="55.8060030" lon="49.1450140"><time>2021-09-11T19:57:53.557</time></trkpt><trkpt lat="55.8060130" lon="49.1449720"><time>2021-09-11T19:57:54.557</time></trkpt><trkpt lat="55.8060220" lon="49.1449300"><time>2021-09-11T19:57:55.557</time></trkpt><trkpt lat="55.8060350" lon="49.1448680"><time>2021-09-11T19:57:57.557</time></trkpt><trkpt lat="55.8060390" lon="49.1448470"><time>2021-09-11T19:57:57.557</time></trkpt><trkpt lat="55.8060490" lon="49.1448050"><time>2021-09-11T19:57:58.557</time></trkpt><trkpt lat="55.8060660" lon="49.1447420"><time>2021-09-11T19:58:00.557</time></trkpt><trkpt lat="55.8060720" lon="49.1447210"><time>2021-09-11T19:58:00.557</time></trkpt><trkpt lat="55.8060830" lon="49.1446740"><time>2021-09-11T19:58:01.557</time></trkpt><trkpt lat="55.8060980" lon="49.1446090"><time>2021-09-11T19:58:03.557</time></trkpt><trkpt lat="55.8061030" lon="49.1445870"><time>2021-09-11T19:58:03.557</time></trkpt><trkpt lat="55.8061140" lon="49.1445420"><time>2021-09-11T19:58:04.557</time></trkpt><trkpt lat="55.8061260" lon="49.1444930"><time>2021-09-11T19:58:05.557</time></trkpt><trkpt lat="55.8061380" lon="49.1444480"><time>2021-09-11T19:58:06.557</time></trkpt><trkpt lat="55.8061500" lon="49.1444020"><time>2021-09-11T19:58:07.557</time></trkpt><trkpt lat="55.8061620" lon="49.1443550"><time>2021-09-11T19:58:08.557</time></trkpt><trkpt lat="55.8061740" lon="49.1443080"><time>2021-09-11T19:58:09.557</time></trkpt><trkpt lat="55.8061850" lon="49.1442640"><time>2021-09-11T19:58:10.557</time></trkpt><trkpt lat="55.8061980" lon="49.1442190"><time>2021-09-11T19:58:11.557</time></trkpt><trkpt lat="55.8062100" lon="49.1441780"><time>2021-09-11T19:58:12.557</time></trkpt><trkpt lat="55.8062230" lon="49.1441400"><time>2021-09-11T19:58:13.557</time></trkpt><trkpt lat="55.8062330" lon="49.1441040"><time>2021-09-11T19:58:14.557</time></trkpt><trkpt lat="55.8062440" lon="49.1440670"><time>2021-09-11T19:58:15.557</time></trkpt><trkpt lat="55.8062550" lon="49.1440310"><time>2021-09-11T19:58:16.557</time></trkpt><trkpt lat="55.8062650" lon="49.1439960"><time>2021-09-11T19:58:17.557</time></trkpt><trkpt lat="55.8062770" lon="49.1439600"><time>2021-09-11T19:58:18.557</time></trkpt><trkpt lat="55.8062940" lon="49.1439030"><time>2021-09-11T19:58:20.557</time></trkpt><trkpt lat="55.8062990" lon="49.1438830"><time>2021-09-11T19:58:20.557</time></trkpt><trkpt lat="55.8063100" lon="49.1438390"><time>2021-09-11T19:58:21.557</time></trkpt><trkpt lat="55.8063270" lon="49.1437760"><time>2021-09-11T19:58:23.557</time></trkpt><trkpt lat="55.8063320" lon="49.1437550"><time>2021-09-11T19:58:23.557</time></trkpt><trkpt lat="55.8063430" lon="49.1437130"><time>2021-09-11T19:58:24.557</time></trkpt><trkpt lat="55.8063550" lon="49.1436730"><time>2021-09-11T19:58:25.557</time></trkpt><trkpt lat="55.8063670" lon="49.1436340"><time>2021-09-11T19:58:26.557</time></trkpt><trkpt lat="55.8063770" lon="49.1435990"><time>2021-09-11T19:58:27.557</time></trkpt><trkpt lat="55.8063870" lon="49.1435630"><time>2021-09-11T19:58:28.557</time></trkpt><trkpt lat="55.8064040" lon="49.1435100"><time>2021-09-11T19:58:30.557</time></trkpt><trkpt lat="55.8064100" lon="49.1434930"><time>2021-09-11T19:58:30.557</time></trkpt><trkpt lat="55.8064220" lon="49.1434580"><time>2021-09-11T19:58:31.557</time></trkpt><trkpt lat="55.8064330" lon="49.1434250"><time>2021-09-11T19:58:32.557</time></trkpt><trkpt lat="55.8064440" lon="49.1433900"><time>2021-09-11T19:58:33.557</time></trkpt><trkpt lat="55.8064600" lon="49.1433310"><time>2021-09-11T19:58:35.557</time></trkpt><trkpt lat="55.8064650" lon="49.1433100"><time>2021-09-11T19:58:35.557</time></trkpt><trkpt lat="55.8064760" lon="49.1432720"><time>2021-09-11T19:58:36.557</time></trkpt><trkpt lat="55.8064870" lon="49.1432330"><time>2021-09-11T19:58:37.557</time></trkpt><trkpt lat="55.8064990" lon="49.1431920"><time>2021-09-11T19:58:38.557</time></trkpt><trkpt lat="55.8065100" lon="49.1431490"><time>2021-09-11T19:58:39.557</time></trkpt><trkpt lat="55.8065230" lon="49.1431070"><time>2021-09-11T19:58:40.557</time></trkpt><trkpt lat="55.8065350" lon="49.1430640"><time>2021-09-11T19:58:41.557</time></trkpt><trkpt lat="55.8065500" lon="49.1430160"><time>2021-09-11T19:58:42.557</time></trkpt><trkpt lat="55.8065630" lon="49.1429730"><time>2021-09-11T19:58:43.557</time></trkpt><trkpt lat="55.8065750" lon="49.1429300"><time>2021-09-11T19:58:44.557</time></trkpt><trkpt lat="55.8065870" lon="49.1428870"><time>2021-09-11T19:58:45.557</time></trkpt><trkpt lat="55.8065990" lon="49.1428410"><time>2021-09-11T19:58:46.557</time></trkpt><trkpt lat="55.8066100" lon="49.1427990"><time>2021-09-11T19:58:47.557</time></trkpt><trkpt lat="55.8066210" lon="49.1427590"><time>2021-09-11T19:58:48.557</time></trkpt><trkpt lat="55.8066310" lon="49.1427160"><time>2021-09-11T19:58:49.557</time></trkpt><trkpt lat="55.8066420" lon="49.1426710"><time>2021-09-11T19:58:50.557</time></trkpt><trkpt lat="55.8066530" lon="49.1426240"><time>2021-09-11T19:58:51.557</time></trkpt><trkpt lat="55.8066690" lon="49.1425560"><time>2021-09-11T19:58:53.557</time></trkpt><trkpt lat="55.8066740" lon="49.1425320"><time>2021-09-11T19:58:53.557</time></trkpt><trkpt lat="55.8066860" lon="49.1424860"><time>2021-09-11T19:58:54.557</time></trkpt><trkpt lat="55.8067030" lon="49.1424110"><time>2021-09-11T19:58:56.557</time></trkpt><trkpt lat="55.8067090" lon="49.1423850"><time>2021-09-11T19:58:56.557</time></trkpt><trkpt lat="55.8067200" lon="49.1423360"><time>2021-09-11T19:58:57.557</time></trkpt><trkpt lat="55.8067310" lon="49.1422920"><time>2021-09-11T19:58:58.557</time></trkpt><trkpt lat="55.8067430" lon="49.1422470"><time>2021-09-11T19:58:59.557</time></trkpt><trkpt lat="55.8067540" lon="49.1422020"><time>2021-09-11T19:59:00.557</time></trkpt><trkpt lat="55.8067660" lon="49.1421540"><time>2021-09-11T19:59:01.557</time></trkpt><trkpt lat="55.8067770" lon="49.1421120"><time>2021-09-11T19:59:02.557</time></trkpt><trkpt lat="55.8067880" lon="49.1420690"><time>2021-09-11T19:59:03.557</time></trkpt><trkpt lat="55.8067990" lon="49.1420270"><time>2021-09-11T19:59:04.557</time></trkpt><trkpt lat="55.8068120" lon="49.1419860"><time>2021-09-11T19:59:05.557</time></trkpt><trkpt lat="55.8068250" lon="49.1419430"><time>2021-09-11T19:59:06.557</time></trkpt><trkpt lat="55.8068360" lon="49.1419020"><time>2021-09-11T19:59:07.557</time></trkpt><trkpt lat="55.8068480" lon="49.1418580"><time>2021-09-11T19:59:08.557</time></trkpt><trkpt lat="55.8068580" lon="49.1418170"><time>2021-09-11T19:59:09.557</time></trkpt><trkpt lat="55.8068680" lon="49.1417760"><time>2021-09-11T19:59:10.557</time></trkpt><trkpt lat="55.8068800" lon="49.1417340"><time>2021-09-11T19:59:11.557</time></trkpt><trkpt lat="55.8068980" lon="49.1416670"><time>2021-09-11T19:59:13.557</time></trkpt><trkpt lat="55.8069040" lon="49.1416430"><time>2021-09-11T19:59:13.557</time></trkpt><trkpt lat="55.8069150" lon="49.1415970"><time>2021-09-11T19:59:14.557</time></trkpt><trkpt lat="55.8069260" lon="49.1415510"><time>2021-09-11T19:59:15.557</time></trkpt><trkpt lat="55.8069380" lon="49.1415080"><time>2021-09-11T19:59:16.557</time></trkpt><trkpt lat="55.8069490" lon="49.1414670"><time>2021-09-11T19:59:17.557</time></trkpt><trkpt lat="55.8069670" lon="49.1414020"><time>2021-09-11T19:59:19.557</time></trkpt><trkpt lat="55.8069720" lon="49.1413810"><time>2021-09-11T19:59:19.557</time></trkpt><trkpt lat="55.8069830" lon="49.1413360"><time>2021-09-11T19:59:20.557</time></trkpt><trkpt lat="55.8069940" lon="49.1412920"><time>2021-09-11T19:59:21.557</time></trkpt><trkpt lat="55.8070070" lon="49.1412440"><time>2021-09-11T19:59:22.557</time></trkpt><trkpt lat="55.8070170" lon="49.1411960"><time>2021-09-11T19:59:23.557</time></trkpt><trkpt lat="55.8070280" lon="49.1411510"><time>2021-09-11T19:59:24.557</time></trkpt><trkpt lat="55.8070380" lon="49.1411100"><time>2021-09-11T19:59:25.557</time></trkpt><trkpt lat="55.8070480" lon="49.1410670"><time>2021-09-11T19:59:26.557</time></trkpt><trkpt lat="55.8070590" lon="49.1410250"><time>2021-09-11T19:59:27.557</time></trkpt><trkpt lat="55.8070700" lon="49.1409840"><time>2021-09-11T19:59:28.557</time></trkpt><trkpt lat="55.8070810" lon="49.1409370"><time>2021-09-11T19:59:29.557</time></trkpt><trkpt lat="55.8070890" lon="49.1408940"><time>2021-09-11T19:59:30.557</time></trkpt><trkpt lat="55.8071000" lon="49.1408490"><time>2021-09-11T19:59:31.557</time></trkpt><trkpt lat="55.8071100" lon="49.1408030"><time>2021-09-11T19:59:32.557</time></trkpt><trkpt lat="55.8071210" lon="49.1407580"><time>2021-09-11T19:59:33.557</time></trkpt><trkpt lat="55.8071310" lon="49.1407150"><time>2021-09-11T19:59:34.557</time></trkpt><trkpt lat="55.8071430" lon="49.1406700"><time>2021-09-11T19:59:35.557</time></trkpt><trkpt lat="55.8071530" lon="49.1406260"><time>2021-09-11T19:59:36.557</time></trkpt><trkpt lat="55.8071640" lon="49.1405840"><time>2021-09-11T19:59:37.557</time></trkpt><trkpt lat="55.8071750" lon="49.1405400"><time>2021-09-11T19:59:38.557</time></trkpt><trkpt lat="55.8071870" lon="49.1404970"><time>2021-09-11T19:59:39.557</time></trkpt><trkpt lat="55.8071970" lon="49.1404570"><time>2021-09-11T19:59:39.557</time></trkpt><trkpt lat="55.8072080" lon="49.1404150"><time>2021-09-11T19:59:40.557</time></trkpt><trkpt lat="55.8072200" lon="49.1403710"><time>2021-09-11T19:59:41.557</time></trkpt><trkpt lat="55.8072320" lon="49.1403260"><time>2021-09-11T19:59:42.557</time></trkpt><trkpt lat="55.8072470" lon="49.1402600"><time>2021-09-11T19:59:44.557</time></trkpt><trkpt lat="55.8072520" lon="49.1402360"><time>2021-09-11T19:59:44.557</time></trkpt><trkpt lat="55.8072630" lon="49.1401930"><time>2021-09-11T19:59:45.557</time></trkpt><trkpt lat="55.8072740" lon="49.1401490"><time>2021-09-11T19:59:46.557</time></trkpt><trkpt lat="55.8072850" lon="49.1401030"><time>2021-09-11T19:59:47.557</time></trkpt><trkpt lat="55.8072980" lon="49.1400560"><time>2021-09-11T19:59:48.557</time></trkpt><trkpt lat="55.8073110" lon="49.1400050"><time>2021-09-11T19:59:49.557</time></trkpt><trkpt lat="55.8073230" lon="49.1399610"><time>2021-09-11T19:59:50.557</time></trkpt><trkpt lat="55.8073340" lon="49.1399180"><time>2021-09-11T19:59:51.557</time></trkpt><trkpt lat="55.8073460" lon="49.1398740"><time>2021-09-11T19:59:52.557</time></trkpt><trkpt lat="55.8073550" lon="49.1398280"><time>2021-09-11T19:59:53.557</time></trkpt><trkpt lat="55.8073640" lon="49.1397850"><time>2021-09-11T19:59:54.557</time></trkpt><trkpt lat="55.8073730" lon="49.1397430"><time>2021-09-11T19:59:55.557</time></trkpt><trkpt lat="55.8073840" lon="49.1397040"><time>2021-09-11T19:59:56.557</time></trkpt><trkpt lat="55.8073960" lon="49.1396670"><time>2021-09-11T19:59:57.557</time></trkpt><trkpt lat="55.8074090" lon="49.1396300"><time>2021-09-11T19:59:58.557</time></trkpt><trkpt lat="55.8074210" lon="49.1395930"><time>2021-09-11T19:59:59.557</time></trkpt><trkpt lat="55.8074330" lon="49.1395550"><time>2021-09-11T20:00:00.557</time></trkpt><trkpt lat="55.8074450" lon="49.1395160"><time>2021-09-11T20:00:01.557</time></trkpt><trkpt lat="55.8074570" lon="49.1394770"><time>2021-09-11T20:00:02.557</time></trkpt><trkpt lat="55.8074700" lon="49.1394390"><time>2021-09-11T20:00:03.557</time></trkpt><trkpt lat="55.8074890" lon="49.1393830"><time>2021-09-11T20:00:05.557</time></trkpt><trkpt lat="55.8074950" lon="49.1393630"><time>2021-09-11T20:00:05.557</time></trkpt><trkpt lat="55.8075080" lon="49.1393230"><time>2021-09-11T20:00:06.557</time></trkpt><trkpt lat="55.8075200" lon="49.1392830"><time>2021-09-11T20:00:07.557</time></trkpt><trkpt lat="55.8075320" lon="49.1392440"><time>2021-09-11T20:00:08.557</time></trkpt><trkpt lat="55.8075440" lon="49.1392050"><time>2021-09-11T20:00:09.557</time></trkpt><trkpt lat="55.8075620" lon="49.1391480"><time>2021-09-11T20:00:11.557</time></trkpt><trkpt lat="55.8075680" lon="49.1391290"><time>2021-09-11T20:00:11.557</time></trkpt><trkpt lat="55.8075800" lon="49.1390910"><time>2021-09-11T20:00:12.557</time></trkpt><trkpt lat="55.8075970" lon="49.1390330"><time>2021-09-11T20:00:14.557</time></trkpt><trkpt lat="55.8076030" lon="49.1390130"><time>2021-09-11T20:00:14.557</time></trkpt><trkpt lat="55.8076150" lon="49.1389720"><time>2021-09-11T20:00:15.557</time></trkpt><trkpt lat="55.8076270" lon="49.1389300"><time>2021-09-11T20:00:16.557</time></trkpt><trkpt lat="55.8076380" lon="49.1388860"><time>2021-09-11T20:00:17.557</time></trkpt><trkpt lat="55.8076500" lon="49.1388410"><time>2021-09-11T20:00:18.557</time></trkpt><trkpt lat="55.8076630" lon="49.1387960"><time>2021-09-11T20:00:19.557</time></trkpt><trkpt lat="55.8076750" lon="49.1387530"><time>2021-09-11T20:00:20.557</time></trkpt><trkpt lat="55.8076880" lon="49.1387100"><time>2021-09-11T20:00:21.557</time></trkpt><trkpt lat="55.8077010" lon="49.1386680"><time>2021-09-11T20:00:22.557</time></trkpt><trkpt lat="55.8077130" lon="49.1386270"><time>2021-09-11T20:00:23.557</time></trkpt><trkpt lat="55.8077250" lon="49.1385870"><time>2021-09-11T20:00:24.557</time></trkpt><trkpt lat="55.8077370" lon="49.1385500"><time>2021-09-11T20:00:25.557</time></trkpt><trkpt lat="55.8077480" lon="49.1385140"><time>2021-09-11T20:00:26.557</time></trkpt><trkpt lat="55.8077670" lon="49.1384560"><time>2021-09-11T20:00:28.557</time></trkpt><trkpt lat="55.8077730" lon="49.1384360"><time>2021-09-11T20:00:28.557</time></trkpt><trkpt lat="55.8077850" lon="49.1383970"><time>2021-09-11T20:00:29.557</time></trkpt><trkpt lat="55.8077980" lon="49.1383580"><time>2021-09-11T20:00:30.557</time></trkpt><trkpt lat="55.8078110" lon="49.1383190"><time>2021-09-11T20:00:31.557</time></trkpt><trkpt lat="55.8078310" lon="49.1382580"><time>2021-09-11T20:00:33.557</time></trkpt><trkpt lat="55.8078380" lon="49.1382380"><time>2021-09-11T20:00:33.557</time></trkpt><trkpt lat="55.8078520" lon="49.1381980"><time>2021-09-11T20:00:34.557</time></trkpt><trkpt lat="55.8078710" lon="49.1381390"><time>2021-09-11T20:00:36.557</time></trkpt><trkpt lat="55.8078770" lon="49.1381190"><time>2021-09-11T20:00:36.557</time></trkpt><trkpt lat="55.8078910" lon="49.1380810"><time>2021-09-11T20:00:37.557</time></trkpt><trkpt lat="55.8079110" lon="49.1380250"><time>2021-09-11T20:00:39.557</time></trkpt><trkpt lat="55.8079180" lon="49.1380050"><time>2021-09-11T20:00:39.557</time></trkpt><trkpt lat="55.8079320" lon="49.1379670"><time>2021-09-11T20:00:40.557</time></trkpt><trkpt lat="55.8079460" lon="49.1379300"><time>2021-09-11T20:00:41.557</time></trkpt><trkpt lat="55.8079610" lon="49.1378910"><time>2021-09-11T20:00:42.557</time></trkpt><trkpt lat="55.8079770" lon="49.1378540"><time>2021-09-11T20:00:43.557</time></trkpt><trkpt lat="55.8079920" lon="49.1378180"><time>2021-09-11T20:00:44.557</time></trkpt><trkpt lat="55.8080080" lon="49.1377830"><time>2021-09-11T20:00:45.557</time></trkpt><trkpt lat="55.8080230" lon="49.1377480"><time>2021-09-11T20:00:46.557</time></trkpt><trkpt lat="55.8080390" lon="49.1377130"><time>2021-09-11T20:00:47.557</time></trkpt><trkpt lat="55.8080560" lon="49.1376780"><time>2021-09-11T20:00:48.557</time></trkpt><trkpt lat="55.8080820" lon="49.1376240"><time>2021-09-11T20:00:50.557</time></trkpt><trkpt lat="55.8080900" lon="49.1376060"><time>2021-09-11T20:00:50.557</time></trkpt><trkpt lat="55.8081070" lon="49.1375710"><time>2021-09-11T20:00:51.557</time></trkpt><trkpt lat="55.8081310" lon="49.1375180"><time>2021-09-11T20:00:53.557</time></trkpt><trkpt lat="55.8081390" lon="49.1374990"><time>2021-09-11T20:00:53.557</time></trkpt><trkpt lat="55.8081530" lon="49.1374610"><time>2021-09-11T20:00:54.557</time></trkpt><trkpt lat="55.8081690" lon="49.1374210"><time>2021-09-11T20:00:55.557</time></trkpt><trkpt lat="55.8081840" lon="49.1373830"><time>2021-09-11T20:00:56.557</time></trkpt><trkpt lat="55.8082010" lon="49.1373450"><time>2021-09-11T20:00:57.557</time></trkpt><trkpt lat="55.8082170" lon="49.1373070"><time>2021-09-11T20:00:58.557</time></trkpt><trkpt lat="55.8082340" lon="49.1372710"><time>2021-09-11T20:00:59.557</time></trkpt><trkpt lat="55.8082510" lon="49.1372340"><time>2021-09-11T20:01:00.557</time></trkpt><trkpt lat="55.8082690" lon="49.1371980"><time>2021-09-11T20:01:01.557</time></trkpt><trkpt lat="55.8082850" lon="49.1371610"><time>2021-09-11T20:01:02.557</time></trkpt><trkpt lat="55.8083120" lon="49.1371040"><time>2021-09-11T20:01:04.557</time></trkpt><trkpt lat="55.8083210" lon="49.1370840"><time>2021-09-11T20:01:04.557</time></trkpt><trkpt lat="55.8083380" lon="49.1370470"><time>2021-09-11T20:01:05.557</time></trkpt><trkpt lat="55.8083630" lon="49.1369920"><time>2021-09-11T20:01:07.557</time></trkpt><trkpt lat="55.8083710" lon="49.1369730"><time>2021-09-11T20:01:07.557</time></trkpt><trkpt lat="55.8083900" lon="49.1369340"><time>2021-09-11T20:01:08.557</time></trkpt><trkpt lat="55.8084160" lon="49.1368820"><time>2021-09-11T20:01:10.557</time></trkpt><trkpt lat="55.8084240" lon="49.1368640"><time>2021-09-11T20:01:10.557</time></trkpt><trkpt lat="55.8084430" lon="49.1368290"><time>2021-09-11T20:01:11.557</time></trkpt><trkpt lat="55.8084700" lon="49.1367800"><time>2021-09-11T20:01:13.557</time></trkpt><trkpt lat="55.8084790" lon="49.1367630"><time>2021-09-11T20:01:13.557</time></trkpt><trkpt lat="55.8084960" lon="49.1367340"><time>2021-09-11T20:01:14.557</time></trkpt><trkpt lat="55.8085140" lon="49.1367050"><time>2021-09-11T20:01:15.557</time></trkpt><trkpt lat="55.8085320" lon="49.1366760"><time>2021-09-11T20:01:16.557</time></trkpt><trkpt lat="55.8085500" lon="49.1366480"><time>2021-09-11T20:01:17.557</time></trkpt><trkpt lat="55.8085670" lon="49.1366150"><time>2021-09-11T20:01:18.557</time></trkpt><trkpt lat="55.8085850" lon="49.1365800"><time>2021-09-11T20:01:19.557</time></trkpt><trkpt lat="55.8086030" lon="49.1365440"><time>2021-09-11T20:01:20.557</time></trkpt><trkpt lat="55.8086200" lon="49.1365080"><time>2021-09-11T20:01:21.557</time></trkpt><trkpt lat="55.8086380" lon="49.1364740"><time>2021-09-11T20:01:22.557</time></trkpt><trkpt lat="55.8086560" lon="49.1364410"><time>2021-09-11T20:01:23.557</time></trkpt><trkpt lat="55.8086750" lon="49.1364070"><time>2021-09-11T20:01:24.557</time></trkpt><trkpt lat="55.8086930" lon="49.1363740"><time>2021-09-11T20:01:25.557</time></trkpt><trkpt lat="55.8087210" lon="49.1363260"><time>2021-09-11T20:01:27.557</time></trkpt><trkpt lat="55.8087300" lon="49.1363100"><time>2021-09-11T20:01:27.557</time></trkpt><trkpt lat="55.8087470" lon="49.1362780"><time>2021-09-11T20:01:28.557</time></trkpt><trkpt lat="55.8087750" lon="49.1362310"><time>2021-09-11T20:01:30.557</time></trkpt><trkpt lat="55.8087840" lon="49.1362150"><time>2021-09-11T20:01:30.557</time></trkpt><trkpt lat="55.8088110" lon="49.1361700"><time>2021-09-11T20:01:32.557</time></trkpt><trkpt lat="55.8088200" lon="49.1361560"><time>2021-09-11T20:01:32.557</time></trkpt><trkpt lat="55.8088370" lon="49.1361290"><time>2021-09-11T20:01:33.557</time></trkpt><trkpt lat="55.8088560" lon="49.1361010"><time>2021-09-11T20:01:34.557</time></trkpt><trkpt lat="55.8088740" lon="49.1360740"><time>2021-09-11T20:01:35.557</time></trkpt><trkpt lat="55.8088930" lon="49.1360460"><time>2021-09-11T20:01:36.557</time></trkpt><trkpt lat="55.8089220" lon="49.1360020"><time>2021-09-11T20:01:38.557</time></trkpt><trkpt lat="55.8089310" lon="49.1359870"><time>2021-09-11T20:01:38.557</time></trkpt><trkpt lat="55.8089500" lon="49.1359570"><time>2021-09-11T20:01:39.557</time></trkpt><trkpt lat="55.8089780" lon="49.1359090"><time>2021-09-11T20:01:41.557</time></trkpt><trkpt lat="55.8089870" lon="49.1358930"><time>2021-09-11T20:01:41.557</time></trkpt><trkpt lat="55.8090060" lon="49.1358620"><time>2021-09-11T20:01:42.557</time></trkpt><trkpt lat="55.8090240" lon="49.1358330"><time>2021-09-11T20:01:43.557</time></trkpt><trkpt lat="55.8090430" lon="49.1358030"><time>2021-09-11T20:01:44.557</time></trkpt><trkpt lat="55.8090610" lon="49.1357730"><time>2021-09-11T20:01:45.557</time></trkpt><trkpt lat="55.8090810" lon="49.1357430"><time>2021-09-11T20:01:46.557</time></trkpt><trkpt lat="55.8091120" lon="49.1357000"><time>2021-09-11T20:01:48.557</time></trkpt><trkpt lat="55.8091220" lon="49.1356850"><time>2021-09-11T20:01:48.557</time></trkpt><trkpt lat="55.8091430" lon="49.1356560"><time>2021-09-11T20:01:49.557</time></trkpt><trkpt lat="55.8091640" lon="49.1356270"><time>2021-09-11T20:01:50.557</time></trkpt><trkpt lat="55.8091860" lon="49.1356000"><time>2021-09-11T20:01:51.557</time></trkpt><trkpt lat="55.8092070" lon="49.1355740"><time>2021-09-11T20:01:52.557</time></trkpt><trkpt lat="55.8092280" lon="49.1355470"><time>2021-09-11T20:01:53.557</time></trkpt><trkpt lat="55.8092480" lon="49.1355210"><time>2021-09-11T20:01:54.557</time></trkpt><trkpt lat="55.8092670" lon="49.1354960"><time>2021-09-11T20:01:55.557</time></trkpt><trkpt lat="55.8092850" lon="49.1354710"><time>2021-09-11T20:01:56.557</time></trkpt><trkpt lat="55.8093030" lon="49.1354460"><time>2021-09-11T20:01:57.557</time></trkpt><trkpt lat="55.8093210" lon="49.1354180"><time>2021-09-11T20:01:58.557</time></trkpt><trkpt lat="55.8093400" lon="49.1353900"><time>2021-09-11T20:01:59.557</time></trkpt><trkpt lat="55.8094270" lon="49.1352760"><time>2021-09-11T20:02:02.557</time></trkpt><trkpt lat="55.8094310" lon="49.1352680"><time>2021-09-11T20:02:02.557</time></trkpt><trkpt lat="55.8094400" lon="49.1352540"><time>2021-09-11T20:02:03.557</time></trkpt><trkpt lat="55.8094530" lon="49.1352350"><time>2021-09-11T20:02:04.557</time></trkpt><trkpt lat="55.8094670" lon="49.1352130"><time>2021-09-11T20:02:05.557</time></trkpt><trkpt lat="55.8094840" lon="49.1351900"><time>2021-09-11T20:02:06.557</time></trkpt><trkpt lat="55.8095030" lon="49.1351670"><time>2021-09-11T20:02:07.557</time></trkpt><trkpt lat="55.8095340" lon="49.1351310"><time>2021-09-11T20:02:09.557</time></trkpt><trkpt lat="55.8095440" lon="49.1351190"><time>2021-09-11T20:02:09.557</time></trkpt><trkpt lat="55.8095640" lon="49.1350940"><time>2021-09-11T20:02:10.557</time></trkpt><trkpt lat="55.8095840" lon="49.1350680"><time>2021-09-11T20:02:11.557</time></trkpt><trkpt lat="55.8096050" lon="49.1350430"><time>2021-09-11T20:02:12.557</time></trkpt><trkpt lat="55.8096250" lon="49.1350180"><time>2021-09-11T20:02:13.557</time></trkpt><trkpt lat="55.8096570" lon="49.1349790"><time>2021-09-11T20:02:15.557</time></trkpt><trkpt lat="55.8096680" lon="49.1349660"><time>2021-09-11T20:02:15.557</time></trkpt><trkpt lat="55.8096890" lon="49.1349430"><time>2021-09-11T20:02:16.557</time></trkpt><trkpt lat="55.8097100" lon="49.1349200"><time>2021-09-11T20:02:17.557</time></trkpt><trkpt lat="55.8097310" lon="49.1348980"><time>2021-09-11T20:02:18.557</time></trkpt><trkpt lat="55.8097520" lon="49.1348760"><time>2021-09-11T20:02:20.557</time></trkpt><trkpt lat="55.8097730" lon="49.1348520"><time>2021-09-11T20:02:21.557</time></trkpt><trkpt lat="55.8097940" lon="49.1348290"><time>2021-09-11T20:02:21.557</time></trkpt><trkpt lat="55.8098160" lon="49.1348070"><time>2021-09-11T20:02:22.557</time></trkpt><trkpt lat="55.8098370" lon="49.1347860"><time>2021-09-11T20:02:23.557</time></trkpt><trkpt lat="55.8098590" lon="49.1347650"><time>2021-09-11T20:02:24.557</time></trkpt><trkpt lat="55.8098820" lon="49.1347450"><time>2021-09-11T20:02:25.557</time></trkpt><trkpt lat="55.8099050" lon="49.1347260"><time>2021-09-11T20:02:26.557</time></trkpt><trkpt lat="55.8099270" lon="49.1347070"><time>2021-09-11T20:02:27.557</time></trkpt><trkpt lat="55.8099480" lon="49.1346870"><time>2021-09-11T20:02:28.557</time></trkpt><trkpt lat="55.8099690" lon="49.1346670"><time>2021-09-11T20:02:29.557</time></trkpt><trkpt lat="55.8099910" lon="49.1346460"><time>2021-09-11T20:02:30.557</time></trkpt><trkpt lat="55.8100120" lon="49.1346270"><time>2021-09-11T20:02:31.557</time></trkpt><trkpt lat="55.8100340" lon="49.1346070"><time>2021-09-11T20:02:32.557</time></trkpt><trkpt lat="55.8100560" lon="49.1345860"><time>2021-09-11T20:02:33.557</time></trkpt><trkpt lat="55.8100770" lon="49.1345650"><time>2021-09-11T20:02:34.557</time></trkpt><trkpt lat="55.8100990" lon="49.1345460"><time>2021-09-11T20:02:35.557</time></trkpt><trkpt lat="55.8101210" lon="49.1345250"><time>2021-09-11T20:02:36.557</time></trkpt><trkpt lat="55.8101430" lon="49.1345060"><time>2021-09-11T20:02:37.557</time></trkpt><trkpt lat="55.8101650" lon="49.1344890"><time>2021-09-11T20:02:38.557</time></trkpt><trkpt lat="55.8101860" lon="49.1344720"><time>2021-09-11T20:02:39.557</time></trkpt><trkpt lat="55.8102080" lon="49.1344550"><time>2021-09-11T20:02:40.557</time></trkpt><trkpt lat="55.8102310" lon="49.1344370"><time>2021-09-11T20:02:41.557</time></trkpt><trkpt lat="55.8102640" lon="49.1344090"><time>2021-09-11T20:02:43.557</time></trkpt><trkpt lat="55.8102750" lon="49.1343990"><time>2021-09-11T20:02:43.557</time></trkpt><trkpt lat="55.8102980" lon="49.1343810"><time>2021-09-11T20:02:44.557</time></trkpt><trkpt lat="55.8103190" lon="49.1343630"><time>2021-09-11T20:02:45.557</time></trkpt><trkpt lat="55.8103410" lon="49.1343430"><time>2021-09-11T20:02:46.557</time></trkpt><trkpt lat="55.8103640" lon="49.1343240"><time>2021-09-11T20:02:47.557</time></trkpt><trkpt lat="55.8103870" lon="49.1343030"><time>2021-09-11T20:02:48.557</time></trkpt><trkpt lat="55.8104230" lon="49.1342720"><time>2021-09-11T20:02:50.557</time></trkpt><trkpt lat="55.8104340" lon="49.1342610"><time>2021-09-11T20:02:50.557</time></trkpt><trkpt lat="55.8104570" lon="49.1342410"><time>2021-09-11T20:02:51.557</time></trkpt><trkpt lat="55.8104920" lon="49.1342160"><time>2021-09-11T20:02:53.557</time></trkpt><trkpt lat="55.8105030" lon="49.1342070"><time>2021-09-11T20:02:53.557</time></trkpt><trkpt lat="55.8105270" lon="49.1341900"><time>2021-09-11T20:02:54.557</time></trkpt><trkpt lat="55.8105500" lon="49.1341740"><time>2021-09-11T20:02:55.557</time></trkpt><trkpt lat="55.8105740" lon="49.1341580"><time>2021-09-11T20:02:56.557</time></trkpt><trkpt lat="55.8105980" lon="49.1341440"><time>2021-09-11T20:02:57.557</time></trkpt><trkpt lat="55.8106230" lon="49.1341310"><time>2021-09-11T20:02:58.557</time></trkpt><trkpt lat="55.8106470" lon="49.1341150"><time>2021-09-11T20:02:59.557</time></trkpt><trkpt lat="55.8106710" lon="49.1340990"><time>2021-09-11T20:03:00.557</time></trkpt><trkpt lat="55.8106940" lon="49.1340830"><time>2021-09-11T20:03:01.557</time></trkpt><trkpt lat="55.8107180" lon="49.1340700"><time>2021-09-11T20:03:02.557</time></trkpt><trkpt lat="55.8107430" lon="49.1340570"><time>2021-09-11T20:03:03.557</time></trkpt><trkpt lat="55.8107680" lon="49.1340450"><time>2021-09-11T20:03:04.557</time></trkpt><trkpt lat="55.8107930" lon="49.1340340"><time>2021-09-11T20:03:05.557</time></trkpt><trkpt lat="55.8108170" lon="49.1340220"><time>2021-09-11T20:03:06.557</time></trkpt><trkpt lat="55.8108420" lon="49.1340100"><time>2021-09-11T20:03:07.557</time></trkpt><trkpt lat="55.8108660" lon="49.1339960"><time>2021-09-11T20:03:08.557</time></trkpt><trkpt lat="55.8108910" lon="49.1339810"><time>2021-09-11T20:03:09.557</time></trkpt><trkpt lat="55.8109150" lon="49.1339640"><time>2021-09-11T20:03:10.557</time></trkpt><trkpt lat="55.8109390" lon="49.1339490"><time>2021-09-11T20:03:11.557</time></trkpt><trkpt lat="55.8109630" lon="49.1339330"><time>2021-09-11T20:03:12.557</time></trkpt><trkpt lat="55.8110010" lon="49.1339100"><time>2021-09-11T20:03:14.557</time></trkpt><trkpt lat="55.8110130" lon="49.1339020"><time>2021-09-11T20:03:14.557</time></trkpt><trkpt lat="55.8110370" lon="49.1338870"><time>2021-09-11T20:03:15.557</time></trkpt><trkpt lat="55.8110620" lon="49.1338720"><time>2021-09-11T20:03:16.557</time></trkpt><trkpt lat="55.8110850" lon="49.1338590"><time>2021-09-11T20:03:17.557</time></trkpt><trkpt lat="55.8111090" lon="49.1338470"><time>2021-09-11T20:03:19.557</time></trkpt><trkpt lat="55.8111320" lon="49.1338350"><time>2021-09-11T20:03:20.557</time></trkpt><trkpt lat="55.8111550" lon="49.1338240"><time>2021-09-11T20:03:20.557</time></trkpt><trkpt lat="55.8111780" lon="49.1338130"><time>2021-09-11T20:03:21.557</time></trkpt><trkpt lat="55.8112020" lon="49.1338010"><time>2021-09-11T20:03:22.557</time></trkpt><trkpt lat="55.8112260" lon="49.1337900"><time>2021-09-11T20:03:23.557</time></trkpt><trkpt lat="55.8112500" lon="49.1337780"><time>2021-09-11T20:03:24.557</time></trkpt><trkpt lat="55.8112750" lon="49.1337660"><time>2021-09-11T20:03:25.557</time></trkpt><trkpt lat="55.8113000" lon="49.1337560"><time>2021-09-11T20:03:26.557</time></trkpt><trkpt lat="55.8113240" lon="49.1337460"><time>2021-09-11T20:03:27.557</time></trkpt><trkpt lat="55.8113480" lon="49.1337380"><time>2021-09-11T20:03:28.557</time></trkpt><trkpt lat="55.8113730" lon="49.1337300"><time>2021-09-11T20:03:29.557</time></trkpt><trkpt lat="55.8113980" lon="49.1337230"><time>2021-09-11T20:03:30.557</time></trkpt><trkpt lat="55.8114230" lon="49.1337160"><time>2021-09-11T20:03:31.557</time></trkpt><trkpt lat="55.8114480" lon="49.1337080"><time>2021-09-11T20:03:32.557</time></trkpt><trkpt lat="55.8114740" lon="49.1337010"><time>2021-09-11T20:03:33.557</time></trkpt><trkpt lat="55.8115130" lon="49.1336910"><time>2021-09-11T20:03:35.557</time></trkpt><trkpt lat="55.8115260" lon="49.1336880"><time>2021-09-11T20:03:35.557</time></trkpt><trkpt lat="55.8115530" lon="49.1336820"><time>2021-09-11T20:03:36.557</time></trkpt><trkpt lat="55.8115810" lon="49.1336750"><time>2021-09-11T20:03:37.557</time></trkpt><trkpt lat="55.8116090" lon="49.1336660"><time>2021-09-11T20:03:38.557</time></trkpt><trkpt lat="55.8116360" lon="49.1336590"><time>2021-09-11T20:03:39.557</time></trkpt><trkpt lat="55.8116760" lon="49.1336510"><time>2021-09-11T20:03:41.557</time></trkpt><trkpt lat="55.8116890" lon="49.1336480"><time>2021-09-11T20:03:41.557</time></trkpt><trkpt lat="55.8117150" lon="49.1336430"><time>2021-09-11T20:03:42.557</time></trkpt><trkpt lat="55.8117530" lon="49.1336350"><time>2021-09-11T20:03:44.557</time></trkpt><trkpt lat="55.8117660" lon="49.1336320"><time>2021-09-11T20:03:44.557</time></trkpt><trkpt lat="55.8117910" lon="49.1336260"><time>2021-09-11T20:03:45.557</time></trkpt><trkpt lat="55.8118170" lon="49.1336180"><time>2021-09-11T20:03:46.557</time></trkpt><trkpt lat="55.8118430" lon="49.1336100"><time>2021-09-11T20:03:47.557</time></trkpt><trkpt lat="55.8118680" lon="49.1336050"><time>2021-09-11T20:03:48.557</time></trkpt><trkpt lat="55.8119070" lon="49.1335970"><time>2021-09-11T20:03:50.557</time></trkpt><trkpt lat="55.8119200" lon="49.1335940"><time>2021-09-11T20:03:50.557</time></trkpt><trkpt lat="55.8119460" lon="49.1335890"><time>2021-09-11T20:03:51.557</time></trkpt><trkpt lat="55.8119720" lon="49.1335850"><time>2021-09-11T20:03:52.557</time></trkpt><trkpt lat="55.8119990" lon="49.1335830"><time>2021-09-11T20:03:53.557</time></trkpt><trkpt lat="55.8120250" lon="49.1335810"><time>2021-09-11T20:03:54.557</time></trkpt><trkpt lat="55.8120510" lon="49.1335780"><time>2021-09-11T20:03:54.557</time></trkpt><trkpt lat="55.8120770" lon="49.1335750"><time>2021-09-11T20:03:55.557</time></trkpt><trkpt lat="55.8121030" lon="49.1335710"><time>2021-09-11T20:03:56.557</time></trkpt><trkpt lat="55.8121300" lon="49.1335680"><time>2021-09-11T20:03:57.557</time></trkpt><trkpt lat="55.8121580" lon="49.1335640"><time>2021-09-11T20:03:58.557</time></trkpt><trkpt lat="55.8121850" lon="49.1335600"><time>2021-09-11T20:03:59.557</time></trkpt><trkpt lat="55.8122250" lon="49.1335560"><time>2021-09-11T20:04:01.557</time></trkpt><trkpt lat="55.8122380" lon="49.1335540"><time>2021-09-11T20:04:01.557</time></trkpt><trkpt lat="55.8122650" lon="49.1335500"><time>2021-09-11T20:04:02.557</time></trkpt><trkpt lat="55.8122910" lon="49.1335460"><time>2021-09-11T20:04:03.557</time></trkpt><trkpt lat="55.8123160" lon="49.1335440"><time>2021-09-11T20:04:04.557</time></trkpt><trkpt lat="55.8123410" lon="49.1335390"><time>2021-09-11T20:04:05.557</time></trkpt><trkpt lat="55.8123790" lon="49.1335320"><time>2021-09-11T20:04:07.557</time></trkpt><trkpt lat="55.8123920" lon="49.1335290"><time>2021-09-11T20:04:07.557</time></trkpt><trkpt lat="55.8124180" lon="49.1335230"><time>2021-09-11T20:04:08.557</time></trkpt><trkpt lat="55.8124440" lon="49.1335190"><time>2021-09-11T20:04:09.557</time></trkpt><trkpt lat="55.8124830" lon="49.1335140"><time>2021-09-11T20:04:11.557</time></trkpt><trkpt lat="55.8124950" lon="49.1335120"><time>2021-09-11T20:04:11.557</time></trkpt><trkpt lat="55.8125210" lon="49.1335110"><time>2021-09-11T20:04:12.557</time></trkpt><trkpt lat="55.8125470" lon="49.1335110"><time>2021-09-11T20:04:13.557</time></trkpt><trkpt lat="55.8125720" lon="49.1335100"><time>2021-09-11T20:04:14.557</time></trkpt><trkpt lat="55.8125970" lon="49.1335110"><time>2021-09-11T20:04:15.557</time></trkpt><trkpt lat="55.8126220" lon="49.1335100"><time>2021-09-11T20:04:16.557</time></trkpt><trkpt lat="55.8126460" lon="49.1335090"><time>2021-09-11T20:04:17.557</time></trkpt><trkpt lat="55.8126840" lon="49.1335090"><time>2021-09-11T20:04:19.557</time></trkpt><trkpt lat="55.8126960" lon="49.1335080"><time>2021-09-11T20:04:19.557</time></trkpt><trkpt lat="55.8127210" lon="49.1335040"><time>2021-09-11T20:04:20.557</time></trkpt><trkpt lat="55.8127490" lon="49.1335020"><time>2021-09-11T20:04:21.557</time></trkpt><trkpt lat="55.8127750" lon="49.1335010"><time>2021-09-11T20:04:22.557</time></trkpt><trkpt lat="55.8128020" lon="49.1334990"><time>2021-09-11T20:04:23.557</time></trkpt><trkpt lat="55.8128300" lon="49.1334960"><time>2021-09-11T20:04:24.557</time></trkpt><trkpt lat="55.8128590" lon="49.1334910"><time>2021-09-11T20:04:25.557</time></trkpt><trkpt lat="55.8128870" lon="49.1334880"><time>2021-09-11T20:04:26.557</time></trkpt><trkpt lat="55.8129150" lon="49.1334850"><time>2021-09-11T20:04:27.557</time></trkpt><trkpt lat="55.8129430" lon="49.1334820"><time>2021-09-11T20:04:28.557</time></trkpt><trkpt lat="55.8129700" lon="49.1334810"><time>2021-09-11T20:04:29.557</time></trkpt><trkpt lat="55.8129980" lon="49.1334770"><time>2021-09-11T20:04:30.557</time></trkpt><trkpt lat="55.8130390" lon="49.1334650"><time>2021-09-11T20:04:32.557</time></trkpt><trkpt lat="55.8130520" lon="49.1334610"><time>2021-09-11T20:04:32.557</time></trkpt><trkpt lat="55.8130800" lon="49.1334550"><time>2021-09-11T20:04:33.557</time></trkpt><trkpt lat="55.8131070" lon="49.1334500"><time>2021-09-11T20:04:34.557</time></trkpt><trkpt lat="55.8131330" lon="49.1334460"><time>2021-09-11T20:04:35.557</time></trkpt><trkpt lat="55.8131600" lon="49.1334450"><time>2021-09-11T20:04:36.557</time></trkpt><trkpt lat="55.8131860" lon="49.1334440"><time>2021-09-11T20:04:37.557</time></trkpt><trkpt lat="55.8132120" lon="49.1334420"><time>2021-09-11T20:04:39.557</time></trkpt><trkpt lat="55.8132380" lon="49.1334410"><time>2021-09-11T20:04:40.557</time></trkpt><trkpt lat="55.8132650" lon="49.1334400"><time>2021-09-11T20:04:41.557</time></trkpt><trkpt lat="55.8132910" lon="49.1334400"><time>2021-09-11T20:04:42.557</time></trkpt><trkpt lat="55.8133160" lon="49.1334410"><time>2021-09-11T20:04:42.557</time></trkpt><trkpt lat="55.8133420" lon="49.1334420"><time>2021-09-11T20:04:43.557</time></trkpt><trkpt lat="55.8133780" lon="49.1334420"><time>2021-09-11T20:04:45.557</time></trkpt><trkpt lat="55.8133910" lon="49.1334440"><time>2021-09-11T20:04:45.557</time></trkpt><trkpt lat="55.8134170" lon="49.1334440"><time>2021-09-11T20:04:46.557</time></trkpt><trkpt lat="55.8134440" lon="49.1334430"><time>2021-09-11T20:04:48.557</time></trkpt><trkpt lat="55.8134710" lon="49.1334420"><time>2021-09-11T20:04:49.557</time></trkpt><trkpt lat="55.8134980" lon="49.1334410"><time>2021-09-11T20:04:49.557</time></trkpt><trkpt lat="55.8135250" lon="49.1334410"><time>2021-09-11T20:04:50.557</time></trkpt><trkpt lat="55.8135520" lon="49.1334400"><time>2021-09-11T20:04:51.557</time></trkpt><trkpt lat="55.8135800" lon="49.1334390"><time>2021-09-11T20:04:52.557</time></trkpt><trkpt lat="55.8136080" lon="49.1334370"><time>2021-09-11T20:04:53.557</time></trkpt><trkpt lat="55.8136360" lon="49.1334350"><time>2021-09-11T20:04:54.557</time></trkpt><trkpt lat="55.8136640" lon="49.1334340"><time>2021-09-11T20:04:55.557</time></trkpt><trkpt lat="55.8136920" lon="49.1334320"><time>2021-09-11T20:04:56.557</time></trkpt><trkpt lat="55.8137210" lon="49.1334300"><time>2021-09-11T20:04:57.557</time></trkpt><trkpt lat="55.8137470" lon="49.1334270"><time>2021-09-11T20:04:58.557</time></trkpt><trkpt lat="55.8137860" lon="49.1334210"><time>2021-09-11T20:05:00.557</time></trkpt><trkpt lat="55.8137990" lon="49.1334190"><time>2021-09-11T20:05:00.557</time></trkpt><trkpt lat="55.8138250" lon="49.1334130"><time>2021-09-11T20:05:01.557</time></trkpt><trkpt lat="55.8138520" lon="49.1334090"><time>2021-09-11T20:05:02.557</time></trkpt><trkpt lat="55.8138790" lon="49.1334020"><time>2021-09-11T20:05:03.557</time></trkpt><trkpt lat="55.8139060" lon="49.1333960"><time>2021-09-11T20:05:04.557</time></trkpt><trkpt lat="55.8139470" lon="49.1333860"><time>2021-09-11T20:05:06.557</time></trkpt><trkpt lat="55.8139610" lon="49.1333820"><time>2021-09-11T20:05:06.557</time></trkpt><trkpt lat="55.8139890" lon="49.1333740"><time>2021-09-11T20:05:07.557</time></trkpt><trkpt lat="55.8140170" lon="49.1333630"><time>2021-09-11T20:05:08.557</time></trkpt><trkpt lat="55.8140440" lon="49.1333500"><time>2021-09-11T20:05:09.557</time></trkpt><trkpt lat="55.8140840" lon="49.1333330"><time>2021-09-11T20:05:11.557</time></trkpt><trkpt lat="55.8140960" lon="49.1333270"><time>2021-09-11T20:05:11.557</time></trkpt><trkpt lat="55.8141230" lon="49.1333150"><time>2021-09-11T20:05:12.557</time></trkpt><trkpt lat="55.8141470" lon="49.1333020"><time>2021-09-11T20:05:13.557</time></trkpt><trkpt lat="55.8141720" lon="49.1332850"><time>2021-09-11T20:05:14.557</time></trkpt><trkpt lat="55.8141980" lon="49.1332690"><time>2021-09-11T20:05:15.557</time></trkpt><trkpt lat="55.8142240" lon="49.1332510"><time>2021-09-11T20:05:16.557</time></trkpt><trkpt lat="55.8142510" lon="49.1332340"><time>2021-09-11T20:05:17.557</time></trkpt><trkpt lat="55.8142800" lon="49.1332180"><time>2021-09-11T20:05:19.557</time></trkpt><trkpt lat="55.8143070" lon="49.1332020"><time>2021-09-11T20:05:20.557</time></trkpt><trkpt lat="55.8143330" lon="49.1331890"><time>2021-09-11T20:05:20.557</time></trkpt><trkpt lat="55.8143610" lon="49.1331760"><time>2021-09-11T20:05:21.557</time></trkpt><trkpt lat="55.8144060" lon="49.1331610"><time>2021-09-11T20:05:23.557</time></trkpt><trkpt lat="55.8144200" lon="49.1331570"><time>2021-09-11T20:05:23.557</time></trkpt><trkpt lat="55.8144450" lon="49.1331530"><time>2021-09-11T20:05:24.557</time></trkpt><trkpt lat="55.8144720" lon="49.1331510"><time>2021-09-11T20:05:25.557</time></trkpt><trkpt lat="55.8145120" lon="49.1331510"><time>2021-09-11T20:05:27.557</time></trkpt><trkpt lat="55.8145250" lon="49.1331500"><time>2021-09-11T20:05:27.557</time></trkpt><trkpt lat="55.8145530" lon="49.1331490"><time>2021-09-11T20:05:28.557</time></trkpt><trkpt lat="55.8145810" lon="49.1331490"><time>2021-09-11T20:05:29.557</time></trkpt><trkpt lat="55.8146050" lon="49.1331490"><time>2021-09-11T20:05:30.557</time></trkpt><trkpt lat="55.8146410" lon="49.1331520"><time>2021-09-11T20:05:32.557</time></trkpt><trkpt lat="55.8146530" lon="49.1331530"><time>2021-09-11T20:05:32.557</time></trkpt><trkpt lat="55.8146770" lon="49.1331530"><time>2021-09-11T20:05:33.557</time></trkpt><trkpt lat="55.8147160" lon="49.1331500"><time>2021-09-11T20:05:35.557</time></trkpt><trkpt lat="55.8147280" lon="49.1331490"><time>2021-09-11T20:05:35.557</time></trkpt><trkpt lat="55.8147540" lon="49.1331480"><time>2021-09-11T20:05:36.557</time></trkpt><trkpt lat="55.8147930" lon="49.1331430"><time>2021-09-11T20:05:38.557</time></trkpt><trkpt lat="55.8148060" lon="49.1331410"><time>2021-09-11T20:05:38.557</time></trkpt><trkpt lat="55.8148330" lon="49.1331370"><time>2021-09-11T20:05:39.557</time></trkpt><trkpt lat="55.8148600" lon="49.1331320"><time>2021-09-11T20:05:40.557</time></trkpt><trkpt lat="55.8148870" lon="49.1331290"><time>2021-09-11T20:05:41.557</time></trkpt><trkpt lat="55.8149140" lon="49.1331280"><time>2021-09-11T20:05:42.557</time></trkpt><trkpt lat="55.8149400" lon="49.1331300"><time>2021-09-11T20:05:43.557</time></trkpt><trkpt lat="55.8149650" lon="49.1331340"><time>2021-09-11T20:05:44.557</time></trkpt><trkpt lat="55.8149910" lon="49.1331360"><time>2021-09-11T20:05:45.557</time></trkpt><trkpt lat="55.8150170" lon="49.1331380"><time>2021-09-11T20:05:46.557</time></trkpt><trkpt lat="55.8150440" lon="49.1331380"><time>2021-09-11T20:05:47.557</time></trkpt><trkpt lat="55.8150850" lon="49.1331360"><time>2021-09-11T20:05:49.557</time></trkpt><trkpt lat="55.8150980" lon="49.1331350"><time>2021-09-11T20:05:49.557</time></trkpt><trkpt lat="55.8151240" lon="49.1331330"><time>2021-09-11T20:05:50.557</time></trkpt><trkpt lat="55.8151500" lon="49.1331310"><time>2021-09-11T20:05:51.557</time></trkpt><trkpt lat="55.8151760" lon="49.1331300"><time>2021-09-11T20:05:53.557</time></trkpt><trkpt lat="55.8152030" lon="49.1331300"><time>2021-09-11T20:05:54.557</time></trkpt><trkpt lat="55.8152300" lon="49.1331280"><time>2021-09-11T20:05:54.557</time></trkpt><trkpt lat="55.8152590" lon="49.1331290"><time>2021-09-11T20:05:55.557</time></trkpt><trkpt lat="55.8152860" lon="49.1331310"><time>2021-09-11T20:05:56.557</time></trkpt><trkpt lat="55.8153130" lon="49.1331370"><time>2021-09-11T20:05:57.557</time></trkpt><trkpt lat="55.8153540" lon="49.1331460"><time>2021-09-11T20:05:59.557</time></trkpt><trkpt lat="55.8153680" lon="49.1331490"><time>2021-09-11T20:05:59.557</time></trkpt><trkpt lat="55.8153950" lon="49.1331560"><time>2021-09-11T20:06:00.557</time></trkpt><trkpt lat="55.8154210" lon="49.1331600"><time>2021-09-11T20:06:01.557</time></trkpt><trkpt lat="55.8154480" lon="49.1331640"><time>2021-09-11T20:06:02.557</time></trkpt><trkpt lat="55.8154740" lon="49.1331660"><time>2021-09-11T20:06:03.557</time></trkpt><trkpt lat="55.8154990" lon="49.1331660"><time>2021-09-11T20:06:04.557</time></trkpt><trkpt lat="55.8155240" lon="49.1331660"><time>2021-09-11T20:06:05.557</time></trkpt><trkpt lat="55.8155480" lon="49.1331660"><time>2021-09-11T20:06:06.557</time></trkpt><trkpt lat="55.8155730" lon="49.1331670"><time>2021-09-11T20:06:07.557</time></trkpt><trkpt lat="55.8155950" lon="49.1331650"><time>2021-09-11T20:06:08.557</time></trkpt><trkpt lat="55.8156180" lon="49.1331630"><time>2021-09-11T20:06:09.557</time></trkpt><trkpt lat="55.8156410" lon="49.1331620"><time>2021-09-11T20:06:10.557</time></trkpt><trkpt lat="55.8156620" lon="49.1331590"><time>2021-09-11T20:06:11.557</time></trkpt><trkpt lat="55.8156820" lon="49.1331550"><time>2021-09-11T20:06:12.557</time></trkpt><trkpt lat="55.8157000" lon="49.1331510"><time>2021-09-11T20:06:13.557</time></trkpt><trkpt lat="55.8157270" lon="49.1331450"><time>2021-09-11T20:06:14.557</time></trkpt><trkpt lat="55.8157360" lon="49.1331430"><time>2021-09-11T20:06:15.557</time></trkpt><trkpt lat="55.8157460" lon="49.1331420"><time>2021-09-11T20:06:16.557</time></trkpt><trkpt lat="55.8157550" lon="49.1331400"><time>2021-09-11T20:06:17.557</time></trkpt><trkpt lat="55.8157650" lon="49.1331380"><time>2021-09-11T20:06:19.557</time></trkpt><trkpt lat="55.8157740" lon="49.1331360"><time>2021-09-11T20:06:19.557</time></trkpt><trkpt lat="55.8157860" lon="49.1331510"><time>2021-09-11T20:06:20.557</time></trkpt><trkpt lat="55.8157910" lon="49.1331680"><time>2021-09-11T20:06:22.557</time></trkpt><trkpt lat="55.8157960" lon="49.1331840"><time>2021-09-11T20:06:23.557</time></trkpt><trkpt lat="55.8158010" lon="49.1332000"><time>2021-09-11T20:06:24.557</time></trkpt><trkpt lat="55.8158050" lon="49.1332170"><time>2021-09-11T20:06:25.557</time></trkpt><trkpt lat="55.8158100" lon="49.1332330"><time>2021-09-11T20:06:26.557</time></trkpt><trkpt lat="55.8158150" lon="49.1332500"><time>2021-09-11T20:06:28.557</time></trkpt><trkpt lat="55.8158200" lon="49.1332660"><time>2021-09-11T20:06:28.557</time></trkpt><trkpt lat="55.8158230" lon="49.1333080"><time>2021-09-11T20:06:29.557</time></trkpt><trkpt lat="55.8158240" lon="49.1333520"><time>2021-09-11T20:06:30.557</time></trkpt><trkpt lat="55.8158260" lon="49.1333990"><time>2021-09-11T20:06:31.557</time></trkpt><trkpt lat="55.8158270" lon="49.1334500"><time>2021-09-11T20:06:32.557</time></trkpt><trkpt lat="55.8158280" lon="49.1334970"><time>2021-09-11T20:06:33.557</time></trkpt><trkpt lat="55.8158270" lon="49.1335450"><time>2021-09-11T20:06:34.557</time></trkpt><trkpt lat="55.8158250" lon="49.1335950"><time>2021-09-11T20:06:35.557</time></trkpt><trkpt lat="55.8158240" lon="49.1336460"><time>2021-09-11T20:06:36.557</time></trkpt><trkpt lat="55.8158230" lon="49.1336970"><time>2021-09-11T20:06:37.557</time></trkpt><trkpt lat="55.8158220" lon="49.1337490"><time>2021-09-11T20:06:38.557</time></trkpt><trkpt lat="55.8158190" lon="49.1337990"><time>2021-09-11T20:06:39.557</time></trkpt><trkpt lat="55.8158140" lon="49.1338480"><time>2021-09-11T20:06:40.557</time></trkpt><trkpt lat="55.8158040" lon="49.1339220"><time>2021-09-11T20:06:42.557</time></trkpt><trkpt lat="55.8158000" lon="49.1339470"><time>2021-09-11T20:06:42.557</time></trkpt><trkpt lat="55.8157930" lon="49.1339970"><time>2021-09-11T20:06:43.557</time></trkpt><trkpt lat="55.8157860" lon="49.1340490"><time>2021-09-11T20:06:44.557</time></trkpt><trkpt lat="55.8157780" lon="49.1341000"><time>2021-09-11T20:06:45.557</time></trkpt><trkpt lat="55.8157720" lon="49.1341510"><time>2021-09-11T20:06:46.557</time></trkpt><trkpt lat="55.8157680" lon="49.1342030"><time>2021-09-11T20:06:47.557</time></trkpt><trkpt lat="55.8157670" lon="49.1342770"><time>2021-09-11T20:06:49.557</time></trkpt><trkpt lat="55.8157680" lon="49.1343020"><time>2021-09-11T20:06:49.557</time></trkpt><trkpt lat="55.8157730" lon="49.1343510"><time>2021-09-11T20:06:50.557</time></trkpt><trkpt lat="55.8157780" lon="49.1344000"><time>2021-09-11T20:06:51.557</time></trkpt><trkpt lat="55.8157870" lon="49.1344750"><time>2021-09-11T20:06:53.557</time></trkpt><trkpt lat="55.8157900" lon="49.1345010"><time>2021-09-11T20:06:53.557</time></trkpt><trkpt lat="55.8157930" lon="49.1345490"><time>2021-09-11T20:06:54.557</time></trkpt><trkpt lat="55.8157960" lon="49.1345970"><time>2021-09-11T20:06:55.557</time></trkpt><trkpt lat="55.8157980" lon="49.1346450"><time>2021-09-11T20:06:56.557</time></trkpt><trkpt lat="55.8158010" lon="49.1346950"><time>2021-09-11T20:06:57.557</time></trkpt><trkpt lat="55.8158020" lon="49.1347690"><time>2021-09-11T20:06:59.557</time></trkpt><trkpt lat="55.8158010" lon="49.1347920"><time>2021-09-11T20:06:59.557</time></trkpt><trkpt lat="55.8158000" lon="49.1348380"><time>2021-09-11T20:07:00.557</time></trkpt><trkpt lat="55.8157970" lon="49.1348820"><time>2021-09-11T20:07:01.557</time></trkpt><trkpt lat="55.8157970" lon="49.1349280"><time>2021-09-11T20:07:02.557</time></trkpt><trkpt lat="55.8157970" lon="49.1349740"><time>2021-09-11T20:07:03.557</time></trkpt><trkpt lat="55.8157970" lon="49.1350230"><time>2021-09-11T20:07:04.557</time></trkpt><trkpt lat="55.8157980" lon="49.1350690"><time>2021-09-11T20:07:05.557</time></trkpt><trkpt lat="55.8158000" lon="49.1351150"><time>2021-09-11T20:07:06.557</time></trkpt><trkpt lat="55.8158000" lon="49.1351620"><time>2021-09-11T20:07:07.557</time></trkpt><trkpt lat="55.8157990" lon="49.1352080"><time>2021-09-11T20:07:08.557</time></trkpt><trkpt lat="55.8158010" lon="49.1352570"><time>2021-09-11T20:07:09.557</time></trkpt><trkpt lat="55.8158020" lon="49.1353240"><time>2021-09-11T20:07:11.557</time></trkpt><trkpt lat="55.8158020" lon="49.1353470"><time>2021-09-11T20:07:11.557</time></trkpt><trkpt lat="55.8158030" lon="49.1353930"><time>2021-09-11T20:07:12.557</time></trkpt><trkpt lat="55.8158030" lon="49.1354390"><time>2021-09-11T20:07:13.557</time></trkpt><trkpt lat="55.8158030" lon="49.1354850"><time>2021-09-11T20:07:14.557</time></trkpt><trkpt lat="55.8158040" lon="49.1355570"><time>2021-09-11T20:07:16.557</time></trkpt><trkpt lat="55.8158040" lon="49.1355810"><time>2021-09-11T20:07:16.557</time></trkpt><trkpt lat="55.8158040" lon="49.1356280"><time>2021-09-11T20:07:17.557</time></trkpt><trkpt lat="55.8158010" lon="49.1356970"><time>2021-09-11T20:07:19.557</time></trkpt><trkpt lat="55.8158000" lon="49.1357200"><time>2021-09-11T20:07:19.557</time></trkpt><trkpt lat="55.8157980" lon="49.1357670"><time>2021-09-11T20:07:20.557</time></trkpt><trkpt lat="55.8157970" lon="49.1358380"><time>2021-09-11T20:07:22.557</time></trkpt><trkpt lat="55.8157970" lon="49.1358620"><time>2021-09-11T20:07:22.557</time></trkpt><trkpt lat="55.8157970" lon="49.1359090"><time>2021-09-11T20:07:23.557</time></trkpt><trkpt lat="55.8157960" lon="49.1359550"><time>2021-09-11T20:07:24.557</time></trkpt><trkpt lat="55.8157930" lon="49.1359990"><time>2021-09-11T20:07:25.557</time></trkpt><trkpt lat="55.8157910" lon="49.1360420"><time>2021-09-11T20:07:26.557</time></trkpt><trkpt lat="55.8157880" lon="49.1360850"><time>2021-09-11T20:07:27.557</time></trkpt><trkpt lat="55.8157850" lon="49.1361290"><time>2021-09-11T20:07:28.557</time></trkpt><trkpt lat="55.8157840" lon="49.1361710"><time>2021-09-11T20:07:29.557</time></trkpt><trkpt lat="55.8157840" lon="49.1362160"><time>2021-09-11T20:07:30.557</time></trkpt><trkpt lat="55.8157840" lon="49.1362610"><time>2021-09-11T20:07:31.557</time></trkpt><trkpt lat="55.8157820" lon="49.1363290"><time>2021-09-11T20:07:33.557</time></trkpt><trkpt lat="55.8157820" lon="49.1363530"><time>2021-09-11T20:07:33.557</time></trkpt><trkpt lat="55.8157840" lon="49.1364030"><time>2021-09-11T20:07:34.557</time></trkpt><trkpt lat="55.8157870" lon="49.1364510"><time>2021-09-11T20:07:35.557</time></trkpt><trkpt lat="55.8157920" lon="49.1364960"><time>2021-09-11T20:07:36.557</time></trkpt><trkpt lat="55.8157960" lon="49.1365420"><time>2021-09-11T20:07:37.557</time></trkpt><trkpt lat="55.8158000" lon="49.1365870"><time>2021-09-11T20:07:38.557</time></trkpt><trkpt lat="55.8158040" lon="49.1366540"><time>2021-09-11T20:07:40.557</time></trkpt><trkpt lat="55.8158040" lon="49.1366770"><time>2021-09-11T20:07:40.557</time></trkpt><trkpt lat="55.8158060" lon="49.1367270"><time>2021-09-11T20:07:41.557</time></trkpt><trkpt lat="55.8158050" lon="49.1367730"><time>2021-09-11T20:07:42.557</time></trkpt><trkpt lat="55.8158040" lon="49.1368420"><time>2021-09-11T20:07:44.557</time></trkpt><trkpt lat="55.8158030" lon="49.1368640"><time>2021-09-11T20:07:44.557</time></trkpt><trkpt lat="55.8158050" lon="49.1369110"><time>2021-09-11T20:07:45.557</time></trkpt><trkpt lat="55.8158080" lon="49.1369620"><time>2021-09-11T20:07:46.557</time></trkpt><trkpt lat="55.8158090" lon="49.1370340"><time>2021-09-11T20:07:48.557</time></trkpt><trkpt lat="55.8158100" lon="49.1370590"><time>2021-09-11T20:07:48.557</time></trkpt><trkpt lat="55.8158110" lon="49.1371080"><time>2021-09-11T20:07:49.557</time></trkpt><trkpt lat="55.8158110" lon="49.1371820"><time>2021-09-11T20:07:51.557</time></trkpt><trkpt lat="55.8158110" lon="49.1372080"><time>2021-09-11T20:07:51.557</time></trkpt><trkpt lat="55.8158110" lon="49.1372600"><time>2021-09-11T20:07:52.557</time></trkpt><trkpt lat="55.8158090" lon="49.1373060"><time>2021-09-11T20:07:53.557</time></trkpt><trkpt lat="55.8158080" lon="49.1373540"><time>2021-09-11T20:07:54.557</time></trkpt><trkpt lat="55.8158070" lon="49.1374040"><time>2021-09-11T20:07:55.557</time></trkpt><trkpt lat="55.8158070" lon="49.1374540"><time>2021-09-11T20:07:56.557</time></trkpt><trkpt lat="55.8158100" lon="49.1375220"><time>2021-09-11T20:07:58.557</time></trkpt><trkpt lat="55.8158110" lon="49.1375460"><time>2021-09-11T20:07:58.557</time></trkpt><trkpt lat="55.8158140" lon="49.1375900"><time>2021-09-11T20:07:59.557</time></trkpt><trkpt lat="55.8158170" lon="49.1376340"><time>2021-09-11T20:08:00.557</time></trkpt><trkpt lat="55.8158170" lon="49.1376760"><time>2021-09-11T20:08:01.557</time></trkpt><trkpt lat="55.8158150" lon="49.1377220"><time>2021-09-11T20:08:02.557</time></trkpt><trkpt lat="55.8158150" lon="49.1377640"><time>2021-09-11T20:08:03.557</time></trkpt><trkpt lat="55.8158150" lon="49.1378080"><time>2021-09-11T20:08:04.557</time></trkpt><trkpt lat="55.8158150" lon="49.1378520"><time>2021-09-11T20:08:05.557</time></trkpt><trkpt lat="55.8158150" lon="49.1378980"><time>2021-09-11T20:08:06.557</time></trkpt><trkpt lat="55.8158190" lon="49.1379480"><time>2021-09-11T20:08:07.557</time></trkpt><trkpt lat="55.8158200" lon="49.1379940"><time>2021-09-11T20:08:08.557</time></trkpt><trkpt lat="55.8158200" lon="49.1380400"><time>2021-09-11T20:08:09.557</time></trkpt><trkpt lat="55.8158200" lon="49.1380860"><time>2021-09-11T20:08:09.557</time></trkpt><trkpt lat="55.8158200" lon="49.1381360"><time>2021-09-11T20:08:10.557</time></trkpt><trkpt lat="55.8158210" lon="49.1381860"><time>2021-09-11T20:08:11.557</time></trkpt><trkpt lat="55.8158230" lon="49.1382340"><time>2021-09-11T20:08:12.557</time></trkpt><trkpt lat="55.8158240" lon="49.1382790"><time>2021-09-11T20:08:13.557</time></trkpt><trkpt lat="55.8158260" lon="49.1383270"><time>2021-09-11T20:08:14.557</time></trkpt><trkpt lat="55.8158270" lon="49.1383740"><time>2021-09-11T20:08:15.557</time></trkpt><trkpt lat="55.8158260" lon="49.1384260"><time>2021-09-11T20:08:16.557</time></trkpt><trkpt lat="55.8158270" lon="49.1384970"><time>2021-09-11T20:08:18.557</time></trkpt><trkpt lat="55.8158280" lon="49.1385210"><time>2021-09-11T20:08:18.557</time></trkpt><trkpt lat="55.8158270" lon="49.1385870"><time>2021-09-11T20:08:20.557</time></trkpt><trkpt lat="55.8158260" lon="49.1386060"><time>2021-09-11T20:08:20.557</time></trkpt><trkpt lat="55.8158240" lon="49.1386500"><time>2021-09-11T20:08:21.557</time></trkpt><trkpt lat="55.8158230" lon="49.1386960"><time>2021-09-11T20:08:22.557</time></trkpt><trkpt lat="55.8158230" lon="49.1387400"><time>2021-09-11T20:08:23.557</time></trkpt><trkpt lat="55.8158230" lon="49.1387830"><time>2021-09-11T20:08:24.557</time></trkpt><trkpt lat="55.8158250" lon="49.1388250"><time>2021-09-11T20:08:25.557</time></trkpt><trkpt lat="55.8158270" lon="49.1388720"><time>2021-09-11T20:08:26.557</time></trkpt><trkpt lat="55.8158290" lon="49.1389220"><time>2021-09-11T20:08:27.557</time></trkpt><trkpt lat="55.8158300" lon="49.1389680"><time>2021-09-11T20:08:28.557</time></trkpt><trkpt lat="55.8158320" lon="49.1390160"><time>2021-09-11T20:08:29.557</time></trkpt><trkpt lat="55.8158350" lon="49.1390630"><time>2021-09-11T20:08:30.557</time></trkpt><trkpt lat="55.8158380" lon="49.1391140"><time>2021-09-11T20:08:31.557</time></trkpt><trkpt lat="55.8158420" lon="49.1391640"><time>2021-09-11T20:08:32.557</time></trkpt><trkpt lat="55.8158450" lon="49.1392120"><time>2021-09-11T20:08:33.557</time></trkpt><trkpt lat="55.8158480" lon="49.1392550"><time>2021-09-11T20:08:34.557</time></trkpt><trkpt lat="55.8158510" lon="49.1392990"><time>2021-09-11T20:08:35.557</time></trkpt><trkpt lat="55.8158540" lon="49.1393430"><time>2021-09-11T20:08:36.557</time></trkpt><trkpt lat="55.8158560" lon="49.1393890"><time>2021-09-11T20:08:37.557</time></trkpt><trkpt lat="55.8158620" lon="49.1394560"><time>2021-09-11T20:08:39.557</time></trkpt><trkpt lat="55.8158630" lon="49.1394780"><time>2021-09-11T20:08:39.557</time></trkpt><trkpt lat="55.8158660" lon="49.1395200"><time>2021-09-11T20:08:40.557</time></trkpt><trkpt lat="55.8158680" lon="49.1395630"><time>2021-09-11T20:08:41.557</time></trkpt><trkpt lat="55.8158690" lon="49.1396070"><time>2021-09-11T20:08:42.557</time></trkpt><trkpt lat="55.8158700" lon="49.1396500"><time>2021-09-11T20:08:43.557</time></trkpt><trkpt lat="55.8158710" lon="49.1396950"><time>2021-09-11T20:08:44.557</time></trkpt><trkpt lat="55.8158710" lon="49.1397430"><time>2021-09-11T20:08:45.557</time></trkpt><trkpt lat="55.8158710" lon="49.1397900"><time>2021-09-11T20:08:46.557</time></trkpt><trkpt lat="55.8158680" lon="49.1398620"><time>2021-09-11T20:08:48.557</time></trkpt><trkpt lat="55.8158660" lon="49.1398860"><time>2021-09-11T20:08:48.557</time></trkpt><trkpt lat="55.8158590" lon="49.1399290"><time>2021-09-11T20:08:49.557</time></trkpt><trkpt lat="55.8158510" lon="49.1399690"><time>2021-09-11T20:08:50.557</time></trkpt><trkpt lat="55.8158430" lon="49.1400070"><time>2021-09-11T20:08:52.557</time></trkpt><trkpt lat="55.8158350" lon="49.1400480"><time>2021-09-11T20:08:53.557</time></trkpt><trkpt lat="55.8158280" lon="49.1400890"><time>2021-09-11T20:08:53.557</time></trkpt><trkpt lat="55.8158210" lon="49.1401300"><time>2021-09-11T20:08:54.557</time></trkpt><trkpt lat="55.8158160" lon="49.1401680"><time>2021-09-11T20:08:55.557</time></trkpt><trkpt lat="55.8158140" lon="49.1402060"><time>2021-09-11T20:08:56.557</time></trkpt><trkpt lat="55.8158120" lon="49.1402680"><time>2021-09-11T20:08:58.557</time></trkpt><trkpt lat="55.8158110" lon="49.1402890"><time>2021-09-11T20:08:58.557</time></trkpt><trkpt lat="55.8158100" lon="49.1403370"><time>2021-09-11T20:08:59.557</time></trkpt><trkpt lat="55.8158100" lon="49.1403820"><time>2021-09-11T20:09:00.557</time></trkpt><trkpt lat="55.8158110" lon="49.1404490"><time>2021-09-11T20:09:02.557</time></trkpt><trkpt lat="55.8158110" lon="49.1404720"><time>2021-09-11T20:09:02.557</time></trkpt><trkpt lat="55.8158100" lon="49.1405180"><time>2021-09-11T20:09:03.557</time></trkpt><trkpt lat="55.8158090" lon="49.1405630"><time>2021-09-11T20:09:04.557</time></trkpt><trkpt lat="55.8158080" lon="49.1406050"><time>2021-09-11T20:09:05.557</time></trkpt><trkpt lat="55.8158070" lon="49.1406470"><time>2021-09-11T20:09:06.557</time></trkpt><trkpt lat="55.8158050" lon="49.1406900"><time>2021-09-11T20:09:07.557</time></trkpt><trkpt lat="55.8158030" lon="49.1407330"><time>2021-09-11T20:09:08.557</time></trkpt><trkpt lat="55.8158020" lon="49.1407770"><time>2021-09-11T20:09:09.557</time></trkpt><trkpt lat="55.8157990" lon="49.1408170"><time>2021-09-11T20:09:10.557</time></trkpt><trkpt lat="55.8157970" lon="49.1408590"><time>2021-09-11T20:09:11.557</time></trkpt><trkpt lat="55.8157970" lon="49.1409030"><time>2021-09-11T20:09:12.557</time></trkpt><trkpt lat="55.8157970" lon="49.1409490"><time>2021-09-11T20:09:13.557</time></trkpt><trkpt lat="55.8157950" lon="49.1409940"><time>2021-09-11T20:09:14.557</time></trkpt><trkpt lat="55.8157930" lon="49.1410390"><time>2021-09-11T20:09:15.557</time></trkpt><trkpt lat="55.8157930" lon="49.1410820"><time>2021-09-11T20:09:16.557</time></trkpt><trkpt lat="55.8157940" lon="49.1411250"><time>2021-09-11T20:09:17.557</time></trkpt><trkpt lat="55.8157950" lon="49.1411900"><time>2021-09-11T20:09:19.557</time></trkpt><trkpt lat="55.8157950" lon="49.1412130"><time>2021-09-11T20:09:19.557</time></trkpt><trkpt lat="55.8157940" lon="49.1412570"><time>2021-09-11T20:09:20.557</time></trkpt><trkpt lat="55.8157930" lon="49.1412980"><time>2021-09-11T20:09:21.557</time></trkpt><trkpt lat="55.8157930" lon="49.1413600"><time>2021-09-11T20:09:23.557</time></trkpt><trkpt lat="55.8157930" lon="49.1413810"><time>2021-09-11T20:09:23.557</time></trkpt><trkpt lat="55.8157950" lon="49.1414500"><time>2021-09-11T20:09:25.557</time></trkpt><trkpt lat="55.8157960" lon="49.1414730"><time>2021-09-11T20:09:25.557</time></trkpt><trkpt lat="55.8157960" lon="49.1415150"><time>2021-09-11T20:09:26.557</time></trkpt><trkpt lat="55.8157940" lon="49.1415810"><time>2021-09-11T20:09:28.557</time></trkpt><trkpt lat="55.8157930" lon="49.1416020"><time>2021-09-11T20:09:28.557</time></trkpt><trkpt lat="55.8157910" lon="49.1416720"><time>2021-09-11T20:09:30.557</time></trkpt><trkpt lat="55.8157900" lon="49.1416950"><time>2021-09-11T20:09:30.557</time></trkpt><trkpt lat="55.8157890" lon="49.1417400"><time>2021-09-11T20:09:31.557</time></trkpt><trkpt lat="55.8157890" lon="49.1417830"><time>2021-09-11T20:09:32.557</time></trkpt><trkpt lat="55.8157880" lon="49.1418260"><time>2021-09-11T20:09:34.557</time></trkpt><trkpt lat="55.8157860" lon="49.1418730"><time>2021-09-11T20:09:35.557</time></trkpt><trkpt lat="55.8157840" lon="49.1419190"><time>2021-09-11T20:09:35.557</time></trkpt><trkpt lat="55.8157820" lon="49.1419860"><time>2021-09-11T20:09:37.557</time></trkpt><trkpt lat="55.8157810" lon="49.1420090"><time>2021-09-11T20:09:37.557</time></trkpt><trkpt lat="55.8157830" lon="49.1420560"><time>2021-09-11T20:09:38.557</time></trkpt><trkpt lat="55.8157850" lon="49.1421050"><time>2021-09-11T20:09:39.557</time></trkpt><trkpt lat="55.8157840" lon="49.1421520"><time>2021-09-11T20:09:40.557</time></trkpt><trkpt lat="55.8157840" lon="49.1422000"><time>2021-09-11T20:09:41.557</time></trkpt><trkpt lat="55.8157830" lon="49.1422500"><time>2021-09-11T20:09:42.557</time></trkpt><trkpt lat="55.8157820" lon="49.1423000"><time>2021-09-11T20:09:43.557</time></trkpt><trkpt lat="55.8157830" lon="49.1423490"><time>2021-09-11T20:09:44.557</time></trkpt><trkpt lat="55.8157870" lon="49.1424190"><time>2021-09-11T20:09:46.557</time></trkpt><trkpt lat="55.8157890" lon="49.1424440"><time>2021-09-11T20:09:46.557</time></trkpt><trkpt lat="55.8157940" lon="49.1424900"><time>2021-09-11T20:09:48.557</time></trkpt><trkpt lat="55.8157980" lon="49.1425400"><time>2021-09-11T20:09:49.557</time></trkpt><trkpt lat="55.8158030" lon="49.1425900"><time>2021-09-11T20:09:50.557</time></trkpt><trkpt lat="55.8158070" lon="49.1426350"><time>2021-09-11T20:09:51.557</time></trkpt><trkpt lat="55.8158120" lon="49.1426810"><time>2021-09-11T20:09:51.557</time></trkpt><trkpt lat="55.8158180" lon="49.1427480"><time>2021-09-11T20:09:53.557</time></trkpt><trkpt lat="55.8158190" lon="49.1427700"><time>2021-09-11T20:09:53.557</time></trkpt><trkpt lat="55.8158230" lon="49.1428180"><time>2021-09-11T20:09:54.557</time></trkpt><trkpt lat="55.8158280" lon="49.1428880"><time>2021-09-11T20:09:56.557</time></trkpt><trkpt lat="55.8158290" lon="49.1429120"><time>2021-09-11T20:09:56.557</time></trkpt><trkpt lat="55.8158310" lon="49.1429590"><time>2021-09-11T20:09:57.557</time></trkpt><trkpt lat="55.8158340" lon="49.1430060"><time>2021-09-11T20:09:58.557</time></trkpt><trkpt lat="55.8158360" lon="49.1430530"><time>2021-09-11T20:09:59.557</time></trkpt><trkpt lat="55.8158360" lon="49.1430960"><time>2021-09-11T20:10:00.557</time></trkpt><trkpt lat="55.8158340" lon="49.1431600"><time>2021-09-11T20:10:02.557</time></trkpt><trkpt lat="55.8158330" lon="49.1431830"><time>2021-09-11T20:10:02.557</time></trkpt><trkpt lat="55.8158310" lon="49.1432290"><time>2021-09-11T20:10:03.557</time></trkpt><trkpt lat="55.8158300" lon="49.1432720"><time>2021-09-11T20:10:04.557</time></trkpt><trkpt lat="55.8158280" lon="49.1433160"><time>2021-09-11T20:10:05.557</time></trkpt><trkpt lat="55.8158260" lon="49.1433610"><time>2021-09-11T20:10:06.557</time></trkpt><trkpt lat="55.8158230" lon="49.1434060"><time>2021-09-11T20:10:07.557</time></trkpt><trkpt lat="55.8158200" lon="49.1434540"><time>2021-09-11T20:10:08.557</time></trkpt><trkpt lat="55.8158160" lon="49.1435210"><time>2021-09-11T20:10:10.557</time></trkpt><trkpt lat="55.8158150" lon="49.1435430"><time>2021-09-11T20:10:10.557</time></trkpt><trkpt lat="55.8158140" lon="49.1435900"><time>2021-09-11T20:10:11.557</time></trkpt><trkpt lat="55.8158150" lon="49.1436370"><time>2021-09-11T20:10:12.557</time></trkpt><trkpt lat="55.8158150" lon="49.1437080"><time>2021-09-11T20:10:14.557</time></trkpt><trkpt lat="55.8158150" lon="49.1437320"><time>2021-09-11T20:10:14.557</time></trkpt><trkpt lat="55.8158150" lon="49.1437830"><time>2021-09-11T20:10:15.557</time></trkpt><trkpt lat="55.8158190" lon="49.1438570"><time>2021-09-11T20:10:17.557</time></trkpt><trkpt lat="55.8158200" lon="49.1438830"><time>2021-09-11T20:10:17.557</time></trkpt><trkpt lat="55.8158220" lon="49.1439340"><time>2021-09-11T20:10:19.557</time></trkpt><trkpt lat="55.8158240" lon="49.1439850"><time>2021-09-11T20:10:20.557</time></trkpt><trkpt lat="55.8158260" lon="49.1440330"><time>2021-09-11T20:10:20.557</time></trkpt><trkpt lat="55.8158270" lon="49.1440820"><time>2021-09-11T20:10:21.557</time></trkpt><trkpt lat="55.8158290" lon="49.1441540"><time>2021-09-11T20:10:23.557</time></trkpt><trkpt lat="55.8158300" lon="49.1441800"><time>2021-09-11T20:10:23.557</time></trkpt><trkpt lat="55.8158300" lon="49.1442280"><time>2021-09-11T20:10:24.557</time></trkpt><trkpt lat="55.8158310" lon="49.1442720"><time>2021-09-11T20:10:25.557</time></trkpt><trkpt lat="55.8158310" lon="49.1443170"><time>2021-09-11T20:10:26.557</time></trkpt><trkpt lat="55.8158290" lon="49.1443620"><time>2021-09-11T20:10:27.557</time></trkpt><trkpt lat="55.8158290" lon="49.1444130"><time>2021-09-11T20:10:28.557</time></trkpt><trkpt lat="55.8158290" lon="49.1444630"><time>2021-09-11T20:10:29.557</time></trkpt><trkpt lat="55.8158280" lon="49.1445070"><time>2021-09-11T20:10:30.557</time></trkpt><trkpt lat="55.8158270" lon="49.1445510"><time>2021-09-11T20:10:31.557</time></trkpt><trkpt lat="55.8158270" lon="49.1445940"><time>2021-09-11T20:10:32.557</time></trkpt><trkpt lat="55.8158270" lon="49.1446380"><time>2021-09-11T20:10:33.557</time></trkpt><trkpt lat="55.8158260" lon="49.1446880"><time>2021-09-11T20:10:34.557</time></trkpt><trkpt lat="55.8158250" lon="49.1447340"><time>2021-09-11T20:10:35.557</time></trkpt><trkpt lat="55.8158260" lon="49.1448060"><time>2021-09-11T20:10:37.557</time></trkpt><trkpt lat="55.8158260" lon="49.1448300"><time>2021-09-11T20:10:37.557</time></trkpt><trkpt lat="55.8158270" lon="49.1448770"><time>2021-09-11T20:10:38.557</time></trkpt><trkpt lat="55.8158280" lon="49.1449510"><time>2021-09-11T20:10:40.557</time></trkpt><trkpt lat="55.8158280" lon="49.1449750"><time>2021-09-11T20:10:40.557</time></trkpt><trkpt lat="55.8158260" lon="49.1450220"><time>2021-09-11T20:10:41.557</time></trkpt><trkpt lat="55.8158230" lon="49.1450700"><time>2021-09-11T20:10:42.557</time></trkpt><trkpt lat="55.8158210" lon="49.1451190"><time>2021-09-11T20:10:43.557</time></trkpt><trkpt lat="55.8158170" lon="49.1451960"><time>2021-09-11T20:10:45.557</time></trkpt><trkpt lat="55.8158150" lon="49.1452190"><time>2021-09-11T20:10:45.557</time></trkpt><trkpt lat="55.8158120" lon="49.1452660"><time>2021-09-11T20:10:46.557</time></trkpt><trkpt lat="55.8158090" lon="49.1453110"><time>2021-09-11T20:10:48.557</time></trkpt><trkpt lat="55.8158050" lon="49.1453560"><time>2021-09-11T20:10:49.557</time></trkpt><trkpt lat="55.8158040" lon="49.1454030"><time>2021-09-11T20:10:49.557</time></trkpt><trkpt lat="55.8158040" lon="49.1454470"><time>2021-09-11T20:10:50.557</time></trkpt><trkpt lat="55.8158020" lon="49.1454910"><time>2021-09-11T20:10:51.557</time></trkpt><trkpt lat="55.8158020" lon="49.1455360"><time>2021-09-11T20:10:52.557</time></trkpt><trkpt lat="55.8158010" lon="49.1455820"><time>2021-09-11T20:10:53.557</time></trkpt><trkpt lat="55.8158010" lon="49.1456560"><time>2021-09-11T20:10:55.557</time></trkpt><trkpt lat="55.8158020" lon="49.1456800"><time>2021-09-11T20:10:55.557</time></trkpt><trkpt lat="55.8158060" lon="49.1457280"><time>2021-09-11T20:10:56.557</time></trkpt><trkpt lat="55.8158090" lon="49.1457750"><time>2021-09-11T20:10:57.557</time></trkpt><trkpt lat="55.8158150" lon="49.1458240"><time>2021-09-11T20:10:58.557</time></trkpt><trkpt lat="55.8158220" lon="49.1458740"><time>2021-09-11T20:10:59.557</time></trkpt><trkpt lat="55.8158310" lon="49.1459300"><time>2021-09-11T20:11:00.557</time></trkpt><trkpt lat="55.8158390" lon="49.1459820"><time>2021-09-11T20:11:01.557</time></trkpt><trkpt lat="55.8158460" lon="49.1460290"><time>2021-09-11T20:11:02.557</time></trkpt><trkpt lat="55.8158500" lon="49.1460740"><time>2021-09-11T20:11:03.557</time></trkpt><trkpt lat="55.8158540" lon="49.1461150"><time>2021-09-11T20:11:04.557</time></trkpt><trkpt lat="55.8158570" lon="49.1461590"><time>2021-09-11T20:11:05.557</time></trkpt><trkpt lat="55.8158590" lon="49.1462040"><time>2021-09-11T20:11:06.557</time></trkpt><trkpt lat="55.8158610" lon="49.1462470"><time>2021-09-11T20:11:07.557</time></trkpt><trkpt lat="55.8158630" lon="49.1462940"><time>2021-09-11T20:11:08.557</time></trkpt><trkpt lat="55.8158650" lon="49.1463370"><time>2021-09-11T20:11:09.557</time></trkpt><trkpt lat="55.8158710" lon="49.1463850"><time>2021-09-11T20:11:10.557</time></trkpt><trkpt lat="55.8158820" lon="49.1464530"><time>2021-09-11T20:11:12.557</time></trkpt><trkpt lat="55.8158860" lon="49.1464760"><time>2021-09-11T20:11:12.557</time></trkpt><trkpt lat="55.8158950" lon="49.1465200"><time>2021-09-11T20:11:13.557</time></trkpt><trkpt lat="55.8159050" lon="49.1465590"><time>2021-09-11T20:11:14.557</time></trkpt><trkpt lat="55.8159150" lon="49.1466010"><time>2021-09-11T20:11:15.557</time></trkpt><trkpt lat="55.8159260" lon="49.1466410"><time>2021-09-11T20:11:16.557</time></trkpt><trkpt lat="55.8159440" lon="49.1467000"><time>2021-09-11T20:11:18.557</time></trkpt><trkpt lat="55.8159510" lon="49.1467200"><time>2021-09-11T20:11:18.557</time></trkpt><trkpt lat="55.8159650" lon="49.1467550"><time>2021-09-11T20:11:19.557</time></trkpt><trkpt lat="55.8159820" lon="49.1467880"><time>2021-09-11T20:11:20.557</time></trkpt><trkpt lat="55.8160000" lon="49.1468170"><time>2021-09-11T20:11:21.557</time></trkpt><trkpt lat="55.8160180" lon="49.1468460"><time>2021-09-11T20:11:22.557</time></trkpt><trkpt lat="55.8160480" lon="49.1468860"><time>2021-09-11T20:11:24.557</time></trkpt><trkpt lat="55.8160580" lon="49.1468990"><time>2021-09-11T20:11:24.557</time></trkpt><trkpt lat="55.8160760" lon="49.1469220"><time>2021-09-11T20:11:25.557</time></trkpt><trkpt lat="55.8160970" lon="49.1469440"><time>2021-09-11T20:11:26.557</time></trkpt><trkpt lat="55.8161170" lon="49.1469670"><time>2021-09-11T20:11:27.557</time></trkpt><trkpt lat="55.8161350" lon="49.1469910"><time>2021-09-11T20:11:28.557</time></trkpt><trkpt lat="55.8161540" lon="49.1470170"><time>2021-09-11T20:11:29.557</time></trkpt><trkpt lat="55.8161710" lon="49.1470400"><time>2021-09-11T20:11:30.557</time></trkpt><trkpt lat="55.8161900" lon="49.1470660"><time>2021-09-11T20:11:31.557</time></trkpt><trkpt lat="55.8162070" lon="49.1470940"><time>2021-09-11T20:11:32.557</time></trkpt><trkpt lat="55.8162230" lon="49.1471210"><time>2021-09-11T20:11:33.557</time></trkpt><trkpt lat="55.8162400" lon="49.1471450"><time>2021-09-11T20:11:34.557</time></trkpt><trkpt lat="55.8162560" lon="49.1471640"><time>2021-09-11T20:11:35.557</time></trkpt><trkpt lat="55.8162760" lon="49.1471870"><time>2021-09-11T20:11:36.557</time></trkpt><trkpt lat="55.8162950" lon="49.1472110"><time>2021-09-11T20:11:37.557</time></trkpt><trkpt lat="55.8163130" lon="49.1472350"><time>2021-09-11T20:11:38.557</time></trkpt><trkpt lat="55.8163300" lon="49.1472560"><time>2021-09-11T20:11:39.557</time></trkpt><trkpt lat="55.8163580" lon="49.1472970"><time>2021-09-11T20:11:41.557</time></trkpt><trkpt lat="55.8163670" lon="49.1473120"><time>2021-09-11T20:11:41.557</time></trkpt><trkpt lat="55.8163860" lon="49.1473400"><time>2021-09-11T20:11:42.557</time></trkpt><trkpt lat="55.8164130" lon="49.1473830"><time>2021-09-11T20:11:44.557</time></trkpt><trkpt lat="55.8164220" lon="49.1473990"><time>2021-09-11T20:11:44.557</time></trkpt><trkpt lat="55.8164400" lon="49.1474330"><time>2021-09-11T20:11:45.557</time></trkpt><trkpt lat="55.8164590" lon="49.1474640"><time>2021-09-11T20:11:46.557</time></trkpt><trkpt lat="55.8164870" lon="49.1475090"><time>2021-09-11T20:11:48.557</time></trkpt><trkpt lat="55.8164960" lon="49.1475230"><time>2021-09-11T20:11:48.557</time></trkpt><trkpt lat="55.8165160" lon="49.1475500"><time>2021-09-11T20:11:49.557</time></trkpt><trkpt lat="55.8165330" lon="49.1475740"><time>2021-09-11T20:11:50.557</time></trkpt><trkpt lat="55.8165500" lon="49.1476000"><time>2021-09-11T20:11:51.557</time></trkpt><trkpt lat="55.8165670" lon="49.1476230"><time>2021-09-11T20:11:52.557</time></trkpt><trkpt lat="55.8165830" lon="49.1476470"><time>2021-09-11T20:11:53.557</time></trkpt><trkpt lat="55.8166010" lon="49.1476710"><time>2021-09-11T20:11:54.557</time></trkpt><trkpt lat="55.8166210" lon="49.1476940"><time>2021-09-11T20:11:55.557</time></trkpt><trkpt lat="55.8166430" lon="49.1477140"><time>2021-09-11T20:11:56.557</time></trkpt><trkpt lat="55.8166640" lon="49.1477350"><time>2021-09-11T20:11:57.557</time></trkpt><trkpt lat="55.8166880" lon="49.1477530"><time>2021-09-11T20:11:58.557</time></trkpt><trkpt lat="55.8167100" lon="49.1477750"><time>2021-09-11T20:11:59.557</time></trkpt><trkpt lat="55.8167310" lon="49.1477990"><time>2021-09-11T20:12:01.557</time></trkpt><trkpt lat="55.8167520" lon="49.1478230"><time>2021-09-11T20:12:02.557</time></trkpt><trkpt lat="55.8167740" lon="49.1478430"><time>2021-09-11T20:12:02.557</time></trkpt><trkpt lat="55.8167980" lon="49.1478610"><time>2021-09-11T20:12:03.557</time></trkpt><trkpt lat="55.8168320" lon="49.1478910"><time>2021-09-11T20:12:05.557</time></trkpt><trkpt lat="55.8168430" lon="49.1479020"><time>2021-09-11T20:12:05.557</time></trkpt><trkpt lat="55.8168630" lon="49.1479240"><time>2021-09-11T20:12:06.557</time></trkpt><trkpt lat="55.8168810" lon="49.1479490"><time>2021-09-11T20:12:07.557</time></trkpt><trkpt lat="55.8169000" lon="49.1479780"><time>2021-09-11T20:12:08.557</time></trkpt><trkpt lat="55.8169180" lon="49.1480070"><time>2021-09-11T20:12:09.557</time></trkpt><trkpt lat="55.8169460" lon="49.1480500"><time>2021-09-11T20:12:11.557</time></trkpt><trkpt lat="55.8169550" lon="49.1480650"><time>2021-09-11T20:12:11.557</time></trkpt><trkpt lat="55.8169730" lon="49.1480960"><time>2021-09-11T20:12:12.557</time></trkpt><trkpt lat="55.8169910" lon="49.1481260"><time>2021-09-11T20:12:13.557</time></trkpt><trkpt lat="55.8170090" lon="49.1481560"><time>2021-09-11T20:12:14.557</time></trkpt><trkpt lat="55.8170260" lon="49.1481870"><time>2021-09-11T20:12:15.557</time></trkpt><trkpt lat="55.8170520" lon="49.1482300"><time>2021-09-11T20:12:17.557</time></trkpt><trkpt lat="55.8170600" lon="49.1482440"><time>2021-09-11T20:12:17.557</time></trkpt><trkpt lat="55.8170790" lon="49.1482740"><time>2021-09-11T20:12:18.557</time></trkpt><trkpt lat="55.8170990" lon="49.1483020"><time>2021-09-11T20:12:19.557</time></trkpt><trkpt lat="55.8171180" lon="49.1483300"><time>2021-09-11T20:12:20.557</time></trkpt><trkpt lat="55.8171370" lon="49.1483600"><time>2021-09-11T20:12:21.557</time></trkpt><trkpt lat="55.8171550" lon="49.1483890"><time>2021-09-11T20:12:22.557</time></trkpt><trkpt lat="55.8171740" lon="49.1484220"><time>2021-09-11T20:12:23.557</time></trkpt><trkpt lat="55.8171920" lon="49.1484560"><time>2021-09-11T20:12:24.557</time></trkpt><trkpt lat="55.8172090" lon="49.1484900"><time>2021-09-11T20:12:24.557</time></trkpt><trkpt lat="55.8172260" lon="49.1485220"><time>2021-09-11T20:12:25.557</time></trkpt><trkpt lat="55.8172530" lon="49.1485670"><time>2021-09-11T20:12:27.557</time></trkpt><trkpt lat="55.8172620" lon="49.1485830"><time>2021-09-11T20:12:27.557</time></trkpt><trkpt lat="55.8172800" lon="49.1486150"><time>2021-09-11T20:12:28.557</time></trkpt><trkpt lat="55.8173000" lon="49.1486470"><time>2021-09-11T20:12:29.557</time></trkpt><trkpt lat="55.8173190" lon="49.1486770"><time>2021-09-11T20:12:30.557</time></trkpt><trkpt lat="55.8173370" lon="49.1487090"><time>2021-09-11T20:12:31.557</time></trkpt><trkpt lat="55.8173540" lon="49.1487410"><time>2021-09-11T20:12:32.557</time></trkpt><trkpt lat="55.8173750" lon="49.1487740"><time>2021-09-11T20:12:33.557</time></trkpt><trkpt lat="55.8173970" lon="49.1488060"><time>2021-09-11T20:12:34.557</time></trkpt><trkpt lat="55.8174180" lon="49.1488400"><time>2021-09-11T20:12:35.557</time></trkpt><trkpt lat="55.8174380" lon="49.1488730"><time>2021-09-11T20:12:36.557</time></trkpt><trkpt lat="55.8174560" lon="49.1489060"><time>2021-09-11T20:12:37.557</time></trkpt><trkpt lat="55.8174720" lon="49.1489390"><time>2021-09-11T20:12:38.557</time></trkpt><trkpt lat="55.8174880" lon="49.1489740"><time>2021-09-11T20:12:39.557</time></trkpt><trkpt lat="55.8175050" lon="49.1490080"><time>2021-09-11T20:12:40.557</time></trkpt><trkpt lat="55.8175200" lon="49.1490420"><time>2021-09-11T20:12:41.557</time></trkpt><trkpt lat="55.8175850" lon="49.1491780"><time>2021-09-11T20:12:44.557</time></trkpt><trkpt lat="55.8175880" lon="49.1491860"><time>2021-09-11T20:12:44.557</time></trkpt><trkpt lat="55.8176010" lon="49.1492190"><time>2021-09-11T20:12:45.557</time></trkpt><trkpt lat="55.8176080" lon="49.1492360"><time>2021-09-11T20:12:47.557</time></trkpt><trkpt lat="55.8176140" lon="49.1492530"><time>2021-09-11T20:12:47.557</time></trkpt><trkpt lat="55.8176230" lon="49.1492870"><time>2021-09-11T20:12:48.557</time></trkpt><trkpt lat="55.8176350" lon="49.1493170"><time>2021-09-11T20:12:49.557</time></trkpt><trkpt lat="55.8176470" lon="49.1493490"><time>2021-09-11T20:12:50.557</time></trkpt><trkpt lat="55.8176670" lon="49.1493910"><time>2021-09-11T20:12:52.557</time></trkpt><trkpt lat="55.8176740" lon="49.1494060"><time>2021-09-11T20:12:52.557</time></trkpt><trkpt lat="55.8176900" lon="49.1494350"><time>2021-09-11T20:12:53.557</time></trkpt><trkpt lat="55.8177130" lon="49.1494810"><time>2021-09-11T20:12:55.557</time></trkpt><trkpt lat="55.8177210" lon="49.1494970"><time>2021-09-11T20:12:55.557</time></trkpt><trkpt lat="55.8177370" lon="49.1495270"><time>2021-09-11T20:12:56.557</time></trkpt><trkpt lat="55.8177630" lon="49.1495730"><time>2021-09-11T20:12:58.557</time></trkpt><trkpt lat="55.8177710" lon="49.1495900"><time>2021-09-11T20:12:58.557</time></trkpt><trkpt lat="55.8177890" lon="49.1496210"><time>2021-09-11T20:12:59.557</time></trkpt><trkpt lat="55.8178070" lon="49.1496500"><time>2021-09-11T20:13:00.557</time></trkpt><trkpt lat="55.8178260" lon="49.1496800"><time>2021-09-11T20:13:01.557</time></trkpt><trkpt lat="55.8178420" lon="49.1497080"><time>2021-09-11T20:13:02.557</time></trkpt><trkpt lat="55.8178660" lon="49.1497510"><time>2021-09-11T20:13:04.557</time></trkpt><trkpt lat="55.8178740" lon="49.1497660"><time>2021-09-11T20:13:04.557</time></trkpt><trkpt lat="55.8178900" lon="49.1497940"><time>2021-09-11T20:13:05.557</time></trkpt><trkpt lat="55.8179070" lon="49.1498220"><time>2021-09-11T20:13:06.557</time></trkpt><trkpt lat="55.8179230" lon="49.1498490"><time>2021-09-11T20:13:07.557</time></trkpt><trkpt lat="55.8179490" lon="49.1498930"><time>2021-09-11T20:13:09.557</time></trkpt><trkpt lat="55.8179580" lon="49.1499090"><time>2021-09-11T20:13:09.557</time></trkpt><trkpt lat="55.8179770" lon="49.1499410"><time>2021-09-11T20:13:10.557</time></trkpt><trkpt lat="55.8179950" lon="49.1499730"><time>2021-09-11T20:13:11.557</time></trkpt><trkpt lat="55.8180130" lon="49.1500020"><time>2021-09-11T20:13:12.557</time></trkpt><trkpt lat="55.8180310" lon="49.1500330"><time>2021-09-11T20:13:13.557</time></trkpt><trkpt lat="55.8180510" lon="49.1500620"><time>2021-09-11T20:13:14.557</time></trkpt><trkpt lat="55.8180710" lon="49.1500920"><time>2021-09-11T20:13:15.557</time></trkpt><trkpt lat="55.8180890" lon="49.1501200"><time>2021-09-11T20:13:17.557</time></trkpt><trkpt lat="55.8181080" lon="49.1501480"><time>2021-09-11T20:13:18.557</time></trkpt><trkpt lat="55.8181270" lon="49.1501780"><time>2021-09-11T20:13:18.557</time></trkpt><trkpt lat="55.8181470" lon="49.1502090"><time>2021-09-11T20:13:19.557</time></trkpt><trkpt lat="55.8181770" lon="49.1502540"><time>2021-09-11T20:13:21.557</time></trkpt><trkpt lat="55.8181870" lon="49.1502700"><time>2021-09-11T20:13:21.557</time></trkpt><trkpt lat="55.8182060" lon="49.1503010"><time>2021-09-11T20:13:22.557</time></trkpt><trkpt lat="55.8182240" lon="49.1503330"><time>2021-09-11T20:13:23.557</time></trkpt><trkpt lat="55.8182390" lon="49.1503630"><time>2021-09-11T20:13:24.557</time></trkpt><trkpt lat="55.8182550" lon="49.1503960"><time>2021-09-11T20:13:25.557</time></trkpt><trkpt lat="55.8182710" lon="49.1504280"><time>2021-09-11T20:13:26.557</time></trkpt><trkpt lat="55.8182870" lon="49.1504580"><time>2021-09-11T20:13:27.557</time></trkpt><trkpt lat="55.8183030" lon="49.1504870"><time>2021-09-11T20:13:28.557</time></trkpt><trkpt lat="55.8183190" lon="49.1505170"><time>2021-09-11T20:13:29.557</time></trkpt><trkpt lat="55.8183360" lon="49.1505490"><time>2021-09-11T20:13:31.557</time></trkpt><trkpt lat="55.8183520" lon="49.1505790"><time>2021-09-11T20:13:32.557</time></trkpt><trkpt lat="55.8183680" lon="49.1506060"><time>2021-09-11T20:13:32.557</time></trkpt><trkpt lat="55.8183840" lon="49.1506330"><time>2021-09-11T20:13:33.557</time></trkpt><trkpt lat="55.8184000" lon="49.1506610"><time>2021-09-11T20:13:34.557</time></trkpt><trkpt lat="55.8184170" lon="49.1506920"><time>2021-09-11T20:13:35.557</time></trkpt><trkpt lat="55.8184350" lon="49.1507220"><time>2021-09-11T20:13:36.557</time></trkpt><trkpt lat="55.8184520" lon="49.1507510"><time>2021-09-11T20:13:38.557</time></trkpt><trkpt lat="55.8184690" lon="49.1507770"><time>2021-09-11T20:13:39.557</time></trkpt><trkpt lat="55.8184860" lon="49.1508030"><time>2021-09-11T20:13:39.557</time></trkpt><trkpt lat="55.8185040" lon="49.1508320"><time>2021-09-11T20:13:40.557</time></trkpt><trkpt lat="55.8185210" lon="49.1508600"><time>2021-09-11T20:13:41.557</time></trkpt><trkpt lat="55.8185380" lon="49.1508890"><time>2021-09-11T20:13:42.557</time></trkpt><trkpt lat="55.8185560" lon="49.1509190"><time>2021-09-11T20:13:43.557</time></trkpt><trkpt lat="55.8185770" lon="49.1509510"><time>2021-09-11T20:13:45.557</time></trkpt><trkpt lat="55.8185960" lon="49.1509820"><time>2021-09-11T20:13:46.557</time></trkpt><trkpt lat="55.8186170" lon="49.1510150"><time>2021-09-11T20:13:47.557</time></trkpt><trkpt lat="55.8186360" lon="49.1510470"><time>2021-09-11T20:13:47.557</time></trkpt><trkpt lat="55.8186530" lon="49.1510780"><time>2021-09-11T20:13:48.557</time></trkpt><trkpt lat="55.8186700" lon="49.1511090"><time>2021-09-11T20:13:49.557</time></trkpt><trkpt lat="55.8186860" lon="49.1511390"><time>2021-09-11T20:13:50.557</time></trkpt><trkpt lat="55.8187040" lon="49.1511710"><time>2021-09-11T20:13:51.557</time></trkpt><trkpt lat="55.8187200" lon="49.1512020"><time>2021-09-11T20:13:53.557</time></trkpt><trkpt lat="55.8187380" lon="49.1512330"><time>2021-09-11T20:13:54.557</time></trkpt><trkpt lat="55.8187550" lon="49.1512650"><time>2021-09-11T20:13:54.557</time></trkpt><trkpt lat="55.8187720" lon="49.1512940"><time>2021-09-11T20:13:55.557</time></trkpt><trkpt lat="55.8188000" lon="49.1513430"><time>2021-09-11T20:13:57.557</time></trkpt><trkpt lat="55.8188090" lon="49.1513600"><time>2021-09-11T20:13:57.557</time></trkpt><trkpt lat="55.8188260" lon="49.1513900"><time>2021-09-11T20:13:58.557</time></trkpt><trkpt lat="55.8188440" lon="49.1514210"><time>2021-09-11T20:13:59.557</time></trkpt><trkpt lat="55.8188720" lon="49.1514670"><time>2021-09-11T20:14:01.557</time></trkpt><trkpt lat="55.8188810" lon="49.1514830"><time>2021-09-11T20:14:01.557</time></trkpt><trkpt lat="55.8189110" lon="49.1515300"><time>2021-09-11T20:14:03.557</time></trkpt><trkpt lat="55.8189210" lon="49.1515470"><time>2021-09-11T20:14:03.557</time></trkpt><trkpt lat="55.8189410" lon="49.1515800"><time>2021-09-11T20:14:04.557</time></trkpt><trkpt lat="55.8189620" lon="49.1516110"><time>2021-09-11T20:14:05.557</time></trkpt><trkpt lat="55.8189820" lon="49.1516420"><time>2021-09-11T20:14:06.557</time></trkpt><trkpt lat="55.8190010" lon="49.1516740"><time>2021-09-11T20:14:08.557</time></trkpt><trkpt lat="55.8190180" lon="49.1517070"><time>2021-09-11T20:14:09.557</time></trkpt><trkpt lat="55.8190360" lon="49.1517390"><time>2021-09-11T20:14:09.557</time></trkpt><trkpt lat="55.8190530" lon="49.1517700"><time>2021-09-11T20:14:10.557</time></trkpt><trkpt lat="55.8190690" lon="49.1518010"><time>2021-09-11T20:14:11.557</time></trkpt><trkpt lat="55.8190870" lon="49.1518320"><time>2021-09-11T20:14:12.557</time></trkpt><trkpt lat="55.8191050" lon="49.1518620"><time>2021-09-11T20:14:13.557</time></trkpt><trkpt lat="55.8191240" lon="49.1518910"><time>2021-09-11T20:14:14.557</time></trkpt><trkpt lat="55.8191400" lon="49.1519220"><time>2021-09-11T20:14:16.557</time></trkpt><trkpt lat="55.8191560" lon="49.1519530"><time>2021-09-11T20:14:17.557</time></trkpt><trkpt lat="55.8191710" lon="49.1519840"><time>2021-09-11T20:14:17.557</time></trkpt><trkpt lat="55.8191830" lon="49.1520120"><time>2021-09-11T20:14:18.557</time></trkpt><trkpt lat="55.8192040" lon="49.1520530"><time>2021-09-11T20:14:20.557</time></trkpt><trkpt lat="55.8192110" lon="49.1520660"><time>2021-09-11T20:14:20.557</time></trkpt><trkpt lat="55.8192230" lon="49.1520900"><time>2021-09-11T20:14:21.557</time></trkpt><trkpt lat="55.8192420" lon="49.1521330"><time>2021-09-11T20:14:23.557</time></trkpt><trkpt lat="55.8192480" lon="49.1521500"><time>2021-09-11T20:14:24.557</time></trkpt><trkpt lat="55.8192550" lon="49.1521680"><time>2021-09-11T20:14:24.557</time></trkpt><trkpt lat="55.8192710" lon="49.1522100"><time>2021-09-11T20:14:26.557</time></trkpt><trkpt lat="55.8192760" lon="49.1522250"><time>2021-09-11T20:14:27.557</time></trkpt><trkpt lat="55.8192820" lon="49.1522410"><time>2021-09-11T20:14:27.557</time></trkpt><trkpt lat="55.8192930" lon="49.1522670"><time>2021-09-11T20:14:28.557</time></trkpt><trkpt lat="55.8192980" lon="49.1522760"><time>2021-09-11T20:14:29.557</time></trkpt><trkpt lat="55.8193020" lon="49.1522860"><time>2021-09-11T20:14:31.557</time></trkpt><trkpt lat="55.8193070" lon="49.1522950"><time>2021-09-11T20:14:31.557</time></trkpt><trkpt lat="55.8193170" lon="49.1523090"><time>2021-09-11T20:14:32.557</time></trkpt><trkpt lat="55.8193290" lon="49.1523240"><time>2021-09-11T20:14:33.557</time></trkpt><trkpt lat="55.8193430" lon="49.1523420"><time>2021-09-11T20:14:34.557</time></trkpt><trkpt lat="55.8193580" lon="49.1523630"><time>2021-09-11T20:14:35.557</time></trkpt><trkpt lat="55.8193730" lon="49.1523880"><time>2021-09-11T20:14:36.557</time></trkpt><trkpt lat="55.8193910" lon="49.1524150"><time>2021-09-11T20:14:38.557</time></trkpt><trkpt lat="55.8194080" lon="49.1524430"><time>2021-09-11T20:14:39.557</time></trkpt><trkpt lat="55.8194250" lon="49.1524690"><time>2021-09-11T20:14:39.557</time></trkpt><trkpt lat="55.8194430" lon="49.1524980"><time>2021-09-11T20:14:40.557</time></trkpt><trkpt lat="55.8194620" lon="49.1525270"><time>2021-09-11T20:14:41.557</time></trkpt><trkpt lat="55.8194800" lon="49.1525560"><time>2021-09-11T20:14:42.557</time></trkpt><trkpt lat="55.8194980" lon="49.1525850"><time>2021-09-11T20:14:43.557</time></trkpt><trkpt lat="55.8195160" lon="49.1526150"><time>2021-09-11T20:14:44.557</time></trkpt><trkpt lat="55.8195340" lon="49.1526470"><time>2021-09-11T20:14:46.557</time></trkpt><trkpt lat="55.8195530" lon="49.1526780"><time>2021-09-11T20:14:47.557</time></trkpt><trkpt lat="55.8195750" lon="49.1527090"><time>2021-09-11T20:14:47.557</time></trkpt><trkpt lat="55.8195970" lon="49.1527420"><time>2021-09-11T20:14:48.557</time></trkpt><trkpt lat="55.8196150" lon="49.1527760"><time>2021-09-11T20:14:49.557</time></trkpt><trkpt lat="55.8196330" lon="49.1528080"><time>2021-09-11T20:14:50.557</time></trkpt><trkpt lat="55.8196520" lon="49.1528420"><time>2021-09-11T20:14:52.557</time></trkpt><trkpt lat="55.8196700" lon="49.1528740"><time>2021-09-11T20:14:53.557</time></trkpt><trkpt lat="55.8196880" lon="49.1529050"><time>2021-09-11T20:14:54.557</time></trkpt><trkpt lat="55.8197050" lon="49.1529360"><time>2021-09-11T20:14:55.557</time></trkpt><trkpt lat="55.8197230" lon="49.1529660"><time>2021-09-11T20:14:55.557</time></trkpt><trkpt lat="55.8197390" lon="49.1529960"><time>2021-09-11T20:14:56.557</time></trkpt><trkpt lat="55.8197650" lon="49.1530400"><time>2021-09-11T20:14:58.557</time></trkpt><trkpt lat="55.8197730" lon="49.1530550"><time>2021-09-11T20:14:58.557</time></trkpt><trkpt lat="55.8197900" lon="49.1530840"><time>2021-09-11T20:15:00.557</time></trkpt><trkpt lat="55.8198090" lon="49.1531150"><time>2021-09-11T20:15:01.557</time></trkpt><trkpt lat="55.8198280" lon="49.1531450"><time>2021-09-11T20:15:01.557</time></trkpt><trkpt lat="55.8198470" lon="49.1531750"><time>2021-09-11T20:15:02.557</time></trkpt><trkpt lat="55.8198650" lon="49.1532060"><time>2021-09-11T20:15:03.557</time></trkpt><trkpt lat="55.8198820" lon="49.1532340"><time>2021-09-11T20:15:04.557</time></trkpt><trkpt lat="55.8199000" lon="49.1532650"><time>2021-09-11T20:15:05.557</time></trkpt><trkpt lat="55.8199170" lon="49.1532940"><time>2021-09-11T20:15:06.557</time></trkpt><trkpt lat="55.8199350" lon="49.1533240"><time>2021-09-11T20:15:08.557</time></trkpt><trkpt lat="55.8199530" lon="49.1533530"><time>2021-09-11T20:15:09.557</time></trkpt><trkpt lat="55.8199700" lon="49.1533810"><time>2021-09-11T20:15:09.557</time></trkpt><trkpt lat="55.8199870" lon="49.1534110"><time>2021-09-11T20:15:10.557</time></trkpt><trkpt lat="55.8200060" lon="49.1534420"><time>2021-09-11T20:15:11.557</time></trkpt><trkpt lat="55.8200240" lon="49.1534720"><time>2021-09-11T20:15:12.557</time></trkpt><trkpt lat="55.8200420" lon="49.1535010"><time>2021-09-11T20:15:13.557</time></trkpt><trkpt lat="55.8200600" lon="49.1535280"><time>2021-09-11T20:15:14.557</time></trkpt><trkpt lat="55.8200770" lon="49.1535540"><time>2021-09-11T20:15:16.557</time></trkpt><trkpt lat="55.8200960" lon="49.1535800"><time>2021-09-11T20:15:17.557</time></trkpt><trkpt lat="55.8201160" lon="49.1536070"><time>2021-09-11T20:15:17.557</time></trkpt><trkpt lat="55.8201460" lon="49.1536470"><time>2021-09-11T20:15:19.557</time></trkpt><trkpt lat="55.8201560" lon="49.1536600"><time>2021-09-11T20:15:19.557</time></trkpt><trkpt lat="55.8201740" lon="49.1536860"><time>2021-09-11T20:15:20.557</time></trkpt><trkpt lat="55.8201930" lon="49.1537130"><time>2021-09-11T20:15:21.557</time></trkpt><trkpt lat="55.8202100" lon="49.1537380"><time>2021-09-11T20:15:23.557</time></trkpt><trkpt lat="55.8202290" lon="49.1537620"><time>2021-09-11T20:15:24.557</time></trkpt><trkpt lat="55.8202470" lon="49.1537850"><time>2021-09-11T20:15:25.557</time></trkpt><trkpt lat="55.8202650" lon="49.1538100"><time>2021-09-11T20:15:25.557</time></trkpt><trkpt lat="55.8202830" lon="49.1538370"><time>2021-09-11T20:15:26.557</time></trkpt><trkpt lat="55.8203020" lon="49.1538660"><time>2021-09-11T20:15:27.557</time></trkpt><trkpt lat="55.8203310" lon="49.1539090"><time>2021-09-11T20:15:29.557</time></trkpt><trkpt lat="55.8203410" lon="49.1539230"><time>2021-09-11T20:15:29.557</time></trkpt><trkpt lat="55.8203600" lon="49.1539520"><time>2021-09-11T20:15:31.557</time></trkpt><trkpt lat="55.8203790" lon="49.1539820"><time>2021-09-11T20:15:32.557</time></trkpt><trkpt lat="55.8203970" lon="49.1540110"><time>2021-09-11T20:15:32.557</time></trkpt><trkpt lat="55.8204150" lon="49.1540400"><time>2021-09-11T20:15:33.557</time></trkpt><trkpt lat="55.8204330" lon="49.1540700"><time>2021-09-11T20:15:34.557</time></trkpt><trkpt lat="55.8204500" lon="49.1540970"><time>2021-09-11T20:15:35.557</time></trkpt><trkpt lat="55.8204670" lon="49.1541230"><time>2021-09-11T20:15:36.557</time></trkpt><trkpt lat="55.8204860" lon="49.1541510"><time>2021-09-11T20:15:38.557</time></trkpt><trkpt lat="55.8205060" lon="49.1541810"><time>2021-09-11T20:15:39.557</time></trkpt><trkpt lat="55.8205260" lon="49.1542110"><time>2021-09-11T20:15:39.557</time></trkpt><trkpt lat="55.8205540" lon="49.1542520"><time>2021-09-11T20:15:41.557</time></trkpt><trkpt lat="55.8205620" lon="49.1542670"><time>2021-09-11T20:15:41.557</time></trkpt><trkpt lat="55.8205800" lon="49.1542960"><time>2021-09-11T20:15:42.557</time></trkpt><trkpt lat="55.8205980" lon="49.1543250"><time>2021-09-11T20:15:43.557</time></trkpt><trkpt lat="55.8206180" lon="49.1543550"><time>2021-09-11T20:15:44.557</time></trkpt><trkpt lat="55.8206350" lon="49.1543810"><time>2021-09-11T20:15:46.557</time></trkpt><trkpt lat="55.8206530" lon="49.1544090"><time>2021-09-11T20:15:47.557</time></trkpt><trkpt lat="55.8206690" lon="49.1544370"><time>2021-09-11T20:15:47.557</time></trkpt><trkpt lat="55.8206870" lon="49.1544680"><time>2021-09-11T20:15:48.557</time></trkpt><trkpt lat="55.8207110" lon="49.1545160"><time>2021-09-11T20:15:50.557</time></trkpt><trkpt lat="55.8207190" lon="49.1545330"><time>2021-09-11T20:15:50.557</time></trkpt><trkpt lat="55.8207340" lon="49.1545650"><time>2021-09-11T20:15:51.557</time></trkpt><trkpt lat="55.8207570" lon="49.1546130"><time>2021-09-11T20:15:53.557</time></trkpt><trkpt lat="55.8207650" lon="49.1546290"><time>2021-09-11T20:15:53.557</time></trkpt><trkpt lat="55.8207810" lon="49.1546610"><time>2021-09-11T20:15:54.557</time></trkpt><trkpt lat="55.8208060" lon="49.1547110"><time>2021-09-11T20:15:56.557</time></trkpt><trkpt lat="55.8208130" lon="49.1547280"><time>2021-09-11T20:15:56.557</time></trkpt><trkpt lat="55.8208270" lon="49.1547610"><time>2021-09-11T20:15:57.557</time></trkpt><trkpt lat="55.8208420" lon="49.1547980"><time>2021-09-11T20:15:58.557</time></trkpt><trkpt lat="55.8208620" lon="49.1548520"><time>2021-09-11T20:16:00.557</time></trkpt><trkpt lat="55.8208680" lon="49.1548700"><time>2021-09-11T20:16:00.557</time></trkpt><trkpt lat="55.8208820" lon="49.1549100"><time>2021-09-11T20:16:01.557</time></trkpt><trkpt lat="55.8208950" lon="49.1549500"><time>2021-09-11T20:16:02.557</time></trkpt><trkpt lat="55.8209070" lon="49.1549890"><time>2021-09-11T20:16:03.557</time></trkpt><trkpt lat="55.8209190" lon="49.1550290"><time>2021-09-11T20:16:04.557</time></trkpt><trkpt lat="55.8209330" lon="49.1550700"><time>2021-09-11T20:16:05.557</time></trkpt><trkpt lat="55.8209470" lon="49.1551090"><time>2021-09-11T20:16:06.557</time></trkpt><trkpt lat="55.8209630" lon="49.1551440"><time>2021-09-11T20:16:08.557</time></trkpt><trkpt lat="55.8209780" lon="49.1551750"><time>2021-09-11T20:16:09.557</time></trkpt><trkpt lat="55.8209940" lon="49.1552090"><time>2021-09-11T20:16:10.557</time></trkpt><trkpt lat="55.8210100" lon="49.1552400"><time>2021-09-11T20:16:10.557</time></trkpt><trkpt lat="55.8210260" lon="49.1552710"><time>2021-09-11T20:16:12.557</time></trkpt><trkpt lat="55.8210420" lon="49.1553020"><time>2021-09-11T20:16:13.557</time></trkpt><trkpt lat="55.8210580" lon="49.1553320"><time>2021-09-11T20:16:13.557</time></trkpt><trkpt lat="55.8210750" lon="49.1553630"><time>2021-09-11T20:16:14.557</time></trkpt><trkpt lat="55.8210910" lon="49.1553940"><time>2021-09-11T20:16:16.557</time></trkpt><trkpt lat="55.8211070" lon="49.1554230"><time>2021-09-11T20:16:17.557</time></trkpt><trkpt lat="55.8211260" lon="49.1554560"><time>2021-09-11T20:16:17.557</time></trkpt><trkpt lat="55.8211540" lon="49.1555050"><time>2021-09-11T20:16:19.557</time></trkpt><trkpt lat="55.8211630" lon="49.1555220"><time>2021-09-11T20:16:19.557</time></trkpt><trkpt lat="55.8211820" lon="49.1555520"><time>2021-09-11T20:16:20.557</time></trkpt><trkpt lat="55.8212010" lon="49.1555800"><time>2021-09-11T20:16:22.557</time></trkpt><trkpt lat="55.8212190" lon="49.1556070"><time>2021-09-11T20:16:23.557</time></trkpt><trkpt lat="55.8212380" lon="49.1556350"><time>2021-09-11T20:16:24.557</time></trkpt><trkpt lat="55.8212550" lon="49.1556640"><time>2021-09-11T20:16:24.557</time></trkpt><trkpt lat="55.8212800" lon="49.1557100"><time>2021-09-11T20:16:26.557</time></trkpt><trkpt lat="55.8212880" lon="49.1557250"><time>2021-09-11T20:16:26.557</time></trkpt><trkpt lat="55.8213040" lon="49.1557560"><time>2021-09-11T20:16:27.557</time></trkpt><trkpt lat="55.8213210" lon="49.1557900"><time>2021-09-11T20:16:28.557</time></trkpt><trkpt lat="55.8213380" lon="49.1558210"><time>2021-09-11T20:16:30.557</time></trkpt><trkpt lat="55.8213560" lon="49.1558530"><time>2021-09-11T20:16:31.557</time></trkpt><trkpt lat="55.8213750" lon="49.1558850"><time>2021-09-11T20:16:31.557</time></trkpt><trkpt lat="55.8213950" lon="49.1559190"><time>2021-09-11T20:16:32.557</time></trkpt><trkpt lat="55.8214210" lon="49.1559700"><time>2021-09-11T20:16:34.557</time></trkpt><trkpt lat="55.8214300" lon="49.1559870"><time>2021-09-11T20:16:34.557</time></trkpt><trkpt lat="55.8214480" lon="49.1560200"><time>2021-09-11T20:16:35.557</time></trkpt><trkpt lat="55.8214770" lon="49.1560690"><time>2021-09-11T20:16:37.557</time></trkpt><trkpt lat="55.8214860" lon="49.1560850"><time>2021-09-11T20:16:37.557</time></trkpt><trkpt lat="55.8215140" lon="49.1561290"><time>2021-09-11T20:16:39.557</time></trkpt><trkpt lat="55.8215230" lon="49.1561430"><time>2021-09-11T20:16:39.557</time></trkpt><trkpt lat="55.8215440" lon="49.1561710"><time>2021-09-11T20:16:39.557</time></trkpt><trkpt lat="55.8215650" lon="49.1562000"><time>2021-09-11T20:16:40.557</time></trkpt><trkpt lat="55.8215830" lon="49.1562250"><time>2021-09-11T20:16:41.557</time></trkpt><trkpt lat="55.8216010" lon="49.1562510"><time>2021-09-11T20:16:42.557</time></trkpt><trkpt lat="55.8216180" lon="49.1562780"><time>2021-09-11T20:16:44.557</time></trkpt><trkpt lat="55.8216380" lon="49.1563070"><time>2021-09-11T20:16:45.557</time></trkpt><trkpt lat="55.8216600" lon="49.1563360"><time>2021-09-11T20:16:46.557</time></trkpt><trkpt lat="55.8216790" lon="49.1563630"><time>2021-09-11T20:16:46.557</time></trkpt><trkpt lat="55.8217070" lon="49.1564030"><time>2021-09-11T20:16:48.557</time></trkpt><trkpt lat="55.8217160" lon="49.1564170"><time>2021-09-11T20:16:48.557</time></trkpt><trkpt lat="55.8217360" lon="49.1564480"><time>2021-09-11T20:16:49.557</time></trkpt><trkpt lat="55.8217550" lon="49.1564780"><time>2021-09-11T20:16:50.557</time></trkpt><trkpt lat="55.8217740" lon="49.1565070"><time>2021-09-11T20:16:52.557</time></trkpt><trkpt lat="55.8217930" lon="49.1565340"><time>2021-09-11T20:16:53.557</time></trkpt><trkpt lat="55.8218140" lon="49.1565600"><time>2021-09-11T20:16:54.557</time></trkpt><trkpt lat="55.8218350" lon="49.1565870"><time>2021-09-11T20:16:54.557</time></trkpt><trkpt lat="55.8218550" lon="49.1566130"><time>2021-09-11T20:16:55.557</time></trkpt><trkpt lat="55.8218760" lon="49.1566420"><time>2021-09-11T20:16:57.557</time></trkpt><trkpt lat="55.8218940" lon="49.1566700"><time>2021-09-11T20:16:58.557</time></trkpt><trkpt lat="55.8219160" lon="49.1567030"><time>2021-09-11T20:16:59.557</time></trkpt><trkpt lat="55.8219370" lon="49.1567350"><time>2021-09-11T20:17:00.557</time></trkpt><trkpt lat="55.8219550" lon="49.1567650"><time>2021-09-11T20:17:00.557</time></trkpt><trkpt lat="55.8219740" lon="49.1567940"><time>2021-09-11T20:17:01.557</time></trkpt><trkpt lat="55.8220030" lon="49.1568350"><time>2021-09-11T20:17:03.557</time></trkpt><trkpt lat="55.8220120" lon="49.1568490"><time>2021-09-11T20:17:03.557</time></trkpt><trkpt lat="55.8220320" lon="49.1568760"><time>2021-09-11T20:17:04.557</time></trkpt><trkpt lat="55.8220510" lon="49.1569030"><time>2021-09-11T20:17:05.557</time></trkpt><trkpt lat="55.8220710" lon="49.1569310"><time>2021-09-11T20:17:07.557</time></trkpt><trkpt lat="55.8220890" lon="49.1569590"><time>2021-09-11T20:17:08.557</time></trkpt><trkpt lat="55.8221070" lon="49.1569880"><time>2021-09-11T20:17:08.557</time></trkpt><trkpt lat="55.8221250" lon="49.1570150"><time>2021-09-11T20:17:09.557</time></trkpt><trkpt lat="55.8221440" lon="49.1570450"><time>2021-09-11T20:17:10.557</time></trkpt><trkpt lat="55.8221720" lon="49.1570880"><time>2021-09-11T20:17:12.557</time></trkpt><trkpt lat="55.8221800" lon="49.1571030"><time>2021-09-11T20:17:12.557</time></trkpt><trkpt lat="55.8221970" lon="49.1571290"><time>2021-09-11T20:17:13.557</time></trkpt><trkpt lat="55.8222150" lon="49.1571550"><time>2021-09-11T20:17:15.557</time></trkpt><trkpt lat="55.8222350" lon="49.1571810"><time>2021-09-11T20:17:16.557</time></trkpt><trkpt lat="55.8222540" lon="49.1572080"><time>2021-09-11T20:17:17.557</time></trkpt><trkpt lat="55.8222750" lon="49.1572340"><time>2021-09-11T20:17:17.557</time></trkpt><trkpt lat="55.8222950" lon="49.1572580"><time>2021-09-11T20:17:18.557</time></trkpt><trkpt lat="55.8223150" lon="49.1572810"><time>2021-09-11T20:17:19.557</time></trkpt><trkpt lat="55.8223370" lon="49.1573080"><time>2021-09-11T20:17:20.557</time></trkpt><trkpt lat="55.8223590" lon="49.1573340"><time>2021-09-11T20:17:22.557</time></trkpt><trkpt lat="55.8223800" lon="49.1573590"><time>2021-09-11T20:17:23.557</time></trkpt><trkpt lat="55.8224010" lon="49.1573860"><time>2021-09-11T20:17:23.557</time></trkpt><trkpt lat="55.8224200" lon="49.1574130"><time>2021-09-11T20:17:24.557</time></trkpt><trkpt lat="55.8224400" lon="49.1574390"><time>2021-09-11T20:17:25.557</time></trkpt><trkpt lat="55.8224600" lon="49.1574640"><time>2021-09-11T20:17:26.557</time></trkpt><trkpt lat="55.8224800" lon="49.1574900"><time>2021-09-11T20:17:27.557</time></trkpt><trkpt lat="55.8224990" lon="49.1575150"><time>2021-09-11T20:17:29.557</time></trkpt><trkpt lat="55.8225170" lon="49.1575400"><time>2021-09-11T20:17:30.557</time></trkpt><trkpt lat="55.8225360" lon="49.1575670"><time>2021-09-11T20:17:30.557</time></trkpt><trkpt lat="55.8225550" lon="49.1575940"><time>2021-09-11T20:17:31.557</time></trkpt><trkpt lat="55.8225730" lon="49.1576200"><time>2021-09-11T20:17:32.557</time></trkpt><trkpt lat="55.8225890" lon="49.1576470"><time>2021-09-11T20:17:33.557</time></trkpt><trkpt lat="55.8226050" lon="49.1576710"><time>2021-09-11T20:17:34.557</time></trkpt><trkpt lat="55.8226300" lon="49.1577070"><time>2021-09-11T20:17:36.557</time></trkpt><trkpt lat="55.8226380" lon="49.1577200"><time>2021-09-11T20:17:36.557</time></trkpt><trkpt lat="55.8226650" lon="49.1577580"><time>2021-09-11T20:17:38.557</time></trkpt><trkpt lat="55.8226730" lon="49.1577710"><time>2021-09-11T20:17:38.557</time></trkpt><trkpt lat="55.8226900" lon="49.1577970"><time>2021-09-11T20:17:39.557</time></trkpt><trkpt lat="55.8227080" lon="49.1578240"><time>2021-09-11T20:17:40.557</time></trkpt><trkpt lat="55.8227280" lon="49.1578530"><time>2021-09-11T20:17:41.557</time></trkpt><trkpt lat="55.8227480" lon="49.1578820"><time>2021-09-11T20:17:42.557</time></trkpt><trkpt lat="55.8227670" lon="49.1579110"><time>2021-09-11T20:17:43.557</time></trkpt><trkpt lat="55.8227850" lon="49.1579390"><time>2021-09-11T20:17:45.557</time></trkpt><trkpt lat="55.8228040" lon="49.1579660"><time>2021-09-11T20:17:46.557</time></trkpt><trkpt lat="55.8228240" lon="49.1579930"><time>2021-09-11T20:17:46.557</time></trkpt><trkpt lat="55.8228430" lon="49.1580180"><time>2021-09-11T20:17:47.557</time></trkpt><trkpt lat="55.8228610" lon="49.1580440"><time>2021-09-11T20:17:48.557</time></trkpt><trkpt lat="55.8228810" lon="49.1580720"><time>2021-09-11T20:17:49.557</time></trkpt><trkpt lat="55.8229000" lon="49.1580990"><time>2021-09-11T20:17:50.557</time></trkpt><trkpt lat="55.8229200" lon="49.1581270"><time>2021-09-11T20:17:52.557</time></trkpt><trkpt lat="55.8229390" lon="49.1581570"><time>2021-09-11T20:17:53.557</time></trkpt><trkpt lat="55.8229580" lon="49.1581860"><time>2021-09-11T20:17:53.557</time></trkpt><trkpt lat="55.8229770" lon="49.1582150"><time>2021-09-11T20:17:54.557</time></trkpt><trkpt lat="55.8229960" lon="49.1582430"><time>2021-09-11T20:17:55.557</time></trkpt><trkpt lat="55.8230130" lon="49.1582720"><time>2021-09-11T20:17:56.557</time></trkpt><trkpt lat="55.8230310" lon="49.1583010"><time>2021-09-11T20:17:57.557</time></trkpt><trkpt lat="55.8230510" lon="49.1583340"><time>2021-09-11T20:17:59.557</time></trkpt><trkpt lat="55.8230680" lon="49.1583630"><time>2021-09-11T20:18:00.557</time></trkpt><trkpt lat="55.8230860" lon="49.1583900"><time>2021-09-11T20:18:00.557</time></trkpt><trkpt lat="55.8231050" lon="49.1584150"><time>2021-09-11T20:18:01.557</time></trkpt><trkpt lat="55.8231240" lon="49.1584400"><time>2021-09-11T20:18:02.557</time></trkpt><trkpt lat="55.8231450" lon="49.1584660"><time>2021-09-11T20:18:03.557</time></trkpt><trkpt lat="55.8231650" lon="49.1584910"><time>2021-09-11T20:18:04.557</time></trkpt><trkpt lat="55.8231860" lon="49.1585170"><time>2021-09-11T20:18:05.557</time></trkpt><trkpt lat="55.8232070" lon="49.1585420"><time>2021-09-11T20:18:07.557</time></trkpt><trkpt lat="55.8232260" lon="49.1585680"><time>2021-09-11T20:18:08.557</time></trkpt><trkpt lat="55.8232470" lon="49.1585960"><time>2021-09-11T20:18:08.557</time></trkpt><trkpt lat="55.8232660" lon="49.1586220"><time>2021-09-11T20:18:09.557</time></trkpt><trkpt lat="55.8232840" lon="49.1586490"><time>2021-09-11T20:18:10.557</time></trkpt><trkpt lat="55.8233000" lon="49.1586770"><time>2021-09-11T20:18:11.557</time></trkpt><trkpt lat="55.8233170" lon="49.1587060"><time>2021-09-11T20:18:12.557</time></trkpt><trkpt lat="55.8233360" lon="49.1587390"><time>2021-09-11T20:18:13.557</time></trkpt><trkpt lat="55.8233530" lon="49.1587720"><time>2021-09-11T20:18:15.557</time></trkpt><trkpt lat="55.8233710" lon="49.1588040"><time>2021-09-11T20:18:16.557</time></trkpt><trkpt lat="55.8233890" lon="49.1588370"><time>2021-09-11T20:18:16.557</time></trkpt><trkpt lat="55.8234070" lon="49.1588700"><time>2021-09-11T20:18:17.557</time></trkpt><trkpt lat="55.8234250" lon="49.1589020"><time>2021-09-11T20:18:18.557</time></trkpt><trkpt lat="55.8234420" lon="49.1589340"><time>2021-09-11T20:18:19.557</time></trkpt><trkpt lat="55.8234600" lon="49.1589680"><time>2021-09-11T20:18:20.557</time></trkpt><trkpt lat="55.8234870" lon="49.1590170"><time>2021-09-11T20:18:22.557</time></trkpt><trkpt lat="55.8234960" lon="49.1590340"><time>2021-09-11T20:18:22.557</time></trkpt><trkpt lat="55.8235130" lon="49.1590680"><time>2021-09-11T20:18:23.557</time></trkpt><trkpt lat="55.8235290" lon="49.1591010"><time>2021-09-11T20:18:24.557</time></trkpt><trkpt lat="55.8235440" lon="49.1591350"><time>2021-09-11T20:18:25.557</time></trkpt><trkpt lat="55.8235600" lon="49.1591710"><time>2021-09-11T20:18:26.557</time></trkpt><trkpt lat="55.8235730" lon="49.1592070"><time>2021-09-11T20:18:27.557</time></trkpt><trkpt lat="55.8235880" lon="49.1592470"><time>2021-09-11T20:18:28.557</time></trkpt><trkpt lat="55.8236060" lon="49.1593060"><time>2021-09-11T20:18:30.557</time></trkpt><trkpt lat="55.8236110" lon="49.1593250"><time>2021-09-11T20:18:30.557</time></trkpt><trkpt lat="55.8236200" lon="49.1593640"><time>2021-09-11T20:18:31.557</time></trkpt><trkpt lat="55.8236280" lon="49.1594030"><time>2021-09-11T20:18:32.557</time></trkpt><trkpt lat="55.8236370" lon="49.1594420"><time>2021-09-11T20:18:33.557</time></trkpt><trkpt lat="55.8236450" lon="49.1594840"><time>2021-09-11T20:18:34.557</time></trkpt><trkpt lat="55.8236530" lon="49.1595250"><time>2021-09-11T20:18:35.557</time></trkpt><trkpt lat="55.8236610" lon="49.1595680"><time>2021-09-11T20:18:37.557</time></trkpt><trkpt lat="55.8236690" lon="49.1596120"><time>2021-09-11T20:18:38.557</time></trkpt><trkpt lat="55.8236770" lon="49.1596560"><time>2021-09-11T20:18:38.557</time></trkpt><trkpt lat="55.8236850" lon="49.1597040"><time>2021-09-11T20:18:39.557</time></trkpt><trkpt lat="55.8236910" lon="49.1597490"><time>2021-09-11T20:18:40.557</time></trkpt><trkpt lat="55.8236950" lon="49.1597970"><time>2021-09-11T20:18:41.557</time></trkpt><trkpt lat="55.8236960" lon="49.1598450"><time>2021-09-11T20:18:42.557</time></trkpt><trkpt lat="55.8236960" lon="49.1598930"><time>2021-09-11T20:18:44.557</time></trkpt><trkpt lat="55.8236940" lon="49.1599430"><time>2021-09-11T20:18:45.557</time></trkpt><trkpt lat="55.8236890" lon="49.1599880"><time>2021-09-11T20:18:46.557</time></trkpt><trkpt lat="55.8236820" lon="49.1600330"><time>2021-09-11T20:18:46.557</time></trkpt><trkpt lat="55.8236730" lon="49.1600770"><time>2021-09-11T20:18:47.557</time></trkpt><trkpt lat="55.8236640" lon="49.1601220"><time>2021-09-11T20:18:48.557</time></trkpt><trkpt lat="55.8236550" lon="49.1601680"><time>2021-09-11T20:18:49.557</time></trkpt><trkpt lat="55.8236460" lon="49.1602110"><time>2021-09-11T20:18:50.557</time></trkpt><trkpt lat="55.8236350" lon="49.1602550"><time>2021-09-11T20:18:52.557</time></trkpt><trkpt lat="55.8236240" lon="49.1602990"><time>2021-09-11T20:18:53.557</time></trkpt><trkpt lat="55.8236130" lon="49.1603410"><time>2021-09-11T20:18:53.557</time></trkpt><trkpt lat="55.8235960" lon="49.1604060"><time>2021-09-11T20:18:55.557</time></trkpt><trkpt lat="55.8235890" lon="49.1604260"><time>2021-09-11T20:18:55.557</time></trkpt><trkpt lat="55.8235770" lon="49.1604660"><time>2021-09-11T20:18:56.557</time></trkpt><trkpt lat="55.8235660" lon="49.1605070"><time>2021-09-11T20:18:58.557</time></trkpt><trkpt lat="55.8235550" lon="49.1605480"><time>2021-09-11T20:18:59.557</time></trkpt><trkpt lat="55.8235460" lon="49.1605890"><time>2021-09-11T20:19:00.557</time></trkpt><trkpt lat="55.8235350" lon="49.1606310"><time>2021-09-11T20:19:00.557</time></trkpt><trkpt lat="55.8235250" lon="49.1606740"><time>2021-09-11T20:19:01.557</time></trkpt><trkpt lat="55.8235150" lon="49.1607180"><time>2021-09-11T20:19:02.557</time></trkpt><trkpt lat="55.8235030" lon="49.1607610"><time>2021-09-11T20:19:03.557</time></trkpt><trkpt lat="55.8234900" lon="49.1608040"><time>2021-09-11T20:19:04.557</time></trkpt><trkpt lat="55.8234740" lon="49.1608680"><time>2021-09-11T20:19:06.557</time></trkpt><trkpt lat="55.8234680" lon="49.1608890"><time>2021-09-11T20:19:06.557</time></trkpt><trkpt lat="55.8234510" lon="49.1609520"><time>2021-09-11T20:19:08.557</time></trkpt><trkpt lat="55.8234450" lon="49.1609730"><time>2021-09-11T20:19:08.557</time></trkpt><trkpt lat="55.8234340" lon="49.1610150"><time>2021-09-11T20:19:09.557</time></trkpt><trkpt lat="55.8234230" lon="49.1610570"><time>2021-09-11T20:19:10.557</time></trkpt><trkpt lat="55.8234100" lon="49.1610970"><time>2021-09-11T20:19:11.557</time></trkpt><trkpt lat="55.8233980" lon="49.1611380"><time>2021-09-11T20:19:12.557</time></trkpt><trkpt lat="55.8233850" lon="49.1611790"><time>2021-09-11T20:19:13.557</time></trkpt><trkpt lat="55.8233700" lon="49.1612190"><time>2021-09-11T20:19:15.557</time></trkpt><trkpt lat="55.8233540" lon="49.1612600"><time>2021-09-11T20:19:16.557</time></trkpt><trkpt lat="55.8233390" lon="49.1613000"><time>2021-09-11T20:19:16.557</time></trkpt><trkpt lat="55.8233190" lon="49.1613600"><time>2021-09-11T20:19:18.557</time></trkpt><trkpt lat="55.8233120" lon="49.1613790"><time>2021-09-11T20:19:18.557</time></trkpt><trkpt lat="55.8232990" lon="49.1614180"><time>2021-09-11T20:19:19.557</time></trkpt><trkpt lat="55.8232860" lon="49.1614610"><time>2021-09-11T20:19:20.557</time></trkpt><trkpt lat="55.8232710" lon="49.1615190"><time>2021-09-11T20:19:22.557</time></trkpt><trkpt lat="55.8232650" lon="49.1615380"><time>2021-09-11T20:19:22.557</time></trkpt><trkpt lat="55.8232550" lon="49.1615770"><time>2021-09-11T20:19:23.557</time></trkpt><trkpt lat="55.8232440" lon="49.1616160"><time>2021-09-11T20:19:24.557</time></trkpt><trkpt lat="55.8232320" lon="49.1616570"><time>2021-09-11T20:19:25.557</time></trkpt><trkpt lat="55.8232220" lon="49.1616950"><time>2021-09-11T20:19:26.557</time></trkpt><trkpt lat="55.8232110" lon="49.1617340"><time>2021-09-11T20:19:27.557</time></trkpt><trkpt lat="55.8232000" lon="49.1617740"><time>2021-09-11T20:19:29.557</time></trkpt><trkpt lat="55.8231900" lon="49.1618190"><time>2021-09-11T20:19:30.557</time></trkpt><trkpt lat="55.8231790" lon="49.1618640"><time>2021-09-11T20:19:30.557</time></trkpt><trkpt lat="55.8231680" lon="49.1619050"><time>2021-09-11T20:19:31.557</time></trkpt><trkpt lat="55.8231550" lon="49.1619460"><time>2021-09-11T20:19:32.557</time></trkpt><trkpt lat="55.8231420" lon="49.1619860"><time>2021-09-11T20:19:33.557</time></trkpt><trkpt lat="55.8231310" lon="49.1620260"><time>2021-09-11T20:19:34.557</time></trkpt><trkpt lat="55.8231200" lon="49.1620650"><time>2021-09-11T20:19:35.557</time></trkpt><trkpt lat="55.8231070" lon="49.1621070"><time>2021-09-11T20:19:37.557</time></trkpt><trkpt lat="55.8230960" lon="49.1621450"><time>2021-09-11T20:19:38.557</time></trkpt><trkpt lat="55.8230830" lon="49.1621820"><time>2021-09-11T20:19:38.557</time></trkpt><trkpt lat="55.8230620" lon="49.1622350"><time>2021-09-11T20:19:40.557</time></trkpt><trkpt lat="55.8230540" lon="49.1622510"><time>2021-09-11T20:19:40.557</time></trkpt><trkpt lat="55.8230380" lon="49.1622800"><time>2021-09-11T20:19:41.557</time></trkpt><trkpt lat="55.8230210" lon="49.1623080"><time>2021-09-11T20:19:43.557</time></trkpt><trkpt lat="55.8230050" lon="49.1623360"><time>2021-09-11T20:19:44.557</time></trkpt><trkpt lat="55.8229880" lon="49.1623670"><time>2021-09-11T20:19:45.557</time></trkpt><trkpt lat="55.8229720" lon="49.1624000"><time>2021-09-11T20:19:46.557</time></trkpt><trkpt lat="55.8229550" lon="49.1624370"><time>2021-09-11T20:19:47.557</time></trkpt><trkpt lat="55.8229390" lon="49.1624710"><time>2021-09-11T20:19:47.557</time></trkpt><trkpt lat="55.8229230" lon="49.1625050"><time>2021-09-11T20:19:48.557</time></trkpt><trkpt lat="55.8229070" lon="49.1625390"><time>2021-09-11T20:19:49.557</time></trkpt><trkpt lat="55.8228910" lon="49.1625770"><time>2021-09-11T20:19:51.557</time></trkpt><trkpt lat="55.8228750" lon="49.1626120"><time>2021-09-11T20:19:52.557</time></trkpt><trkpt lat="55.8228590" lon="49.1626490"><time>2021-09-11T20:19:53.557</time></trkpt><trkpt lat="55.8228420" lon="49.1626870"><time>2021-09-11T20:19:53.557</time></trkpt><trkpt lat="55.8228260" lon="49.1627240"><time>2021-09-11T20:19:54.557</time></trkpt><trkpt lat="55.8228100" lon="49.1627620"><time>2021-09-11T20:19:55.557</time></trkpt><trkpt lat="55.8227880" lon="49.1628230"><time>2021-09-11T20:19:57.557</time></trkpt><trkpt lat="55.8227810" lon="49.1628420"><time>2021-09-11T20:19:57.557</time></trkpt><trkpt lat="55.8227700" lon="49.1628790"><time>2021-09-11T20:19:59.557</time></trkpt><trkpt lat="55.8227630" lon="49.1629140"><time>2021-09-11T20:20:00.557</time></trkpt><trkpt lat="55.8227590" lon="49.1629450"><time>2021-09-11T20:20:00.557</time></trkpt><trkpt lat="55.8227670" lon="49.1629900"><time>2021-09-11T20:20:01.557</time></trkpt><trkpt lat="55.8227730" lon="49.1630070"><time>2021-09-11T20:20:02.557</time></trkpt><trkpt lat="55.8227790" lon="49.1630230"><time>2021-09-11T20:20:03.557</time></trkpt><trkpt lat="55.8227850" lon="49.1630390"><time>2021-09-11T20:20:04.557</time></trkpt><trkpt lat="55.8227910" lon="49.1630560"><time>2021-09-11T20:20:05.557</time></trkpt><trkpt lat="55.8227970" lon="49.1630720"><time>2021-09-11T20:20:07.557</time></trkpt><trkpt lat="55.8228030" lon="49.1630890"><time>2021-09-11T20:20:08.557</time></trkpt><trkpt lat="55.8228090" lon="49.1631050"><time>2021-09-11T20:20:08.557</time></trkpt><trkpt lat="55.8228170" lon="49.1631180"><time>2021-09-11T20:20:09.557</time></trkpt></trkseg></trk></gpx>